<?xml version="1.0" encoding="UTF-8" standalone="no" ?>
<gpx xmlns="http://www.topografix.com/GPX/1/1" xmlns:xsi="http://www.w3.org/2001/XMLSchema-instance" xsi:schemaLocation="http://www.topografix.com/GPX/1/1 http://www.topografix.com/GPX/1/1/gpx.xsd" version="1.1" creator="VisuGPX - https://www.visugpx.com">
  <metadata>
    <name>tour de tregueux 20/11/2013</name>
    <desc><![CDATA[launay, langueux,greve des courses,douvenant, langueux,launay]]></desc>
  </metadata>
  <trk>
    <name><![CDATA[tour de tregueux 20/11/2013_1]]></name>
    <trkseg>
      <trkpt lat="48.48476" lon="-2.72194">
        <ele>106</ele>
        <time>2013-11-22T08:01:53Z</time>
      </trkpt>
      <trkpt lat="48.48457" lon="-2.72164">
        <ele>97</ele>
        <time>2013-11-22T08:02:14Z</time>
      </trkpt>
      <trkpt lat="48.48455" lon="-2.72163">
        <ele>97</ele>
        <time>2013-11-22T08:02:15Z</time>
      </trkpt>
      <trkpt lat="48.48455" lon="-2.72161">
        <ele>97</ele>
        <time>2013-11-22T08:02:16Z</time>
      </trkpt>
      <trkpt lat="48.48454" lon="-2.72159">
        <ele>97</ele>
        <time>2013-11-22T08:02:17Z</time>
      </trkpt>
      <trkpt lat="48.48454" lon="-2.72157">
        <ele>96</ele>
        <time>2013-11-22T08:02:18Z</time>
      </trkpt>
      <trkpt lat="48.48453" lon="-2.72155">
        <ele>96</ele>
        <time>2013-11-22T08:02:19Z</time>
      </trkpt>
      <trkpt lat="48.48454" lon="-2.72149">
        <ele>96</ele>
        <time>2013-11-22T08:02:23Z</time>
      </trkpt>
      <trkpt lat="48.48453" lon="-2.72142">
        <ele>96</ele>
        <time>2013-11-22T08:02:27Z</time>
      </trkpt>
      <trkpt lat="48.48453" lon="-2.7214">
        <ele>96</ele>
        <time>2013-11-22T08:02:28Z</time>
      </trkpt>
      <trkpt lat="48.48452" lon="-2.72139">
        <ele>96</ele>
        <time>2013-11-22T08:02:29Z</time>
      </trkpt>
      <trkpt lat="48.48452" lon="-2.72137">
        <ele>96</ele>
        <time>2013-11-22T08:02:30Z</time>
      </trkpt>
      <trkpt lat="48.48452" lon="-2.72135">
        <ele>96</ele>
        <time>2013-11-22T08:02:31Z</time>
      </trkpt>
      <trkpt lat="48.48452" lon="-2.72131">
        <ele>96</ele>
        <time>2013-11-22T08:02:33Z</time>
      </trkpt>
      <trkpt lat="48.48452" lon="-2.72129">
        <ele>96</ele>
        <time>2013-11-22T08:02:34Z</time>
      </trkpt>
      <trkpt lat="48.48452" lon="-2.72127">
        <ele>96</ele>
        <time>2013-11-22T08:02:35Z</time>
      </trkpt>
      <trkpt lat="48.48451" lon="-2.72125">
        <ele>96</ele>
        <time>2013-11-22T08:02:36Z</time>
      </trkpt>
      <trkpt lat="48.4845" lon="-2.72124">
        <ele>96</ele>
        <time>2013-11-22T08:02:37Z</time>
      </trkpt>
      <trkpt lat="48.4845" lon="-2.72122">
        <ele>96</ele>
        <time>2013-11-22T08:02:38Z</time>
      </trkpt>
      <trkpt lat="48.4845" lon="-2.7212">
        <ele>96</ele>
        <time>2013-11-22T08:02:39Z</time>
      </trkpt>
      <trkpt lat="48.48449" lon="-2.72118">
        <ele>96</ele>
        <time>2013-11-22T08:02:40Z</time>
      </trkpt>
      <trkpt lat="48.48449" lon="-2.72114">
        <ele>96</ele>
        <time>2013-11-22T08:02:42Z</time>
      </trkpt>
      <trkpt lat="48.48449" lon="-2.72113">
        <ele>96</ele>
        <time>2013-11-22T08:02:43Z</time>
      </trkpt>
      <trkpt lat="48.48448" lon="-2.72111">
        <ele>96</ele>
        <time>2013-11-22T08:02:44Z</time>
      </trkpt>
      <trkpt lat="48.48447" lon="-2.72109">
        <ele>95</ele>
        <time>2013-11-22T08:02:45Z</time>
      </trkpt>
      <trkpt lat="48.48447" lon="-2.72108">
        <ele>95</ele>
        <time>2013-11-22T08:02:46Z</time>
      </trkpt>
      <trkpt lat="48.48446" lon="-2.72104">
        <ele>95</ele>
        <time>2013-11-22T08:02:48Z</time>
      </trkpt>
      <trkpt lat="48.48446" lon="-2.72102">
        <ele>95</ele>
        <time>2013-11-22T08:02:49Z</time>
      </trkpt>
      <trkpt lat="48.48445" lon="-2.721">
        <ele>95</ele>
        <time>2013-11-22T08:02:50Z</time>
      </trkpt>
      <trkpt lat="48.48445" lon="-2.72098">
        <ele>95</ele>
        <time>2013-11-22T08:02:51Z</time>
      </trkpt>
      <trkpt lat="48.48444" lon="-2.72096">
        <ele>95</ele>
        <time>2013-11-22T08:02:52Z</time>
      </trkpt>
      <trkpt lat="48.48444" lon="-2.72094">
        <ele>95</ele>
        <time>2013-11-22T08:02:53Z</time>
      </trkpt>
      <trkpt lat="48.48443" lon="-2.72093">
        <ele>95</ele>
        <time>2013-11-22T08:02:54Z</time>
      </trkpt>
      <trkpt lat="48.48443" lon="-2.72091">
        <ele>95</ele>
        <time>2013-11-22T08:02:55Z</time>
      </trkpt>
      <trkpt lat="48.48442" lon="-2.72089">
        <ele>95</ele>
        <time>2013-11-22T08:02:56Z</time>
      </trkpt>
      <trkpt lat="48.48442" lon="-2.72087">
        <ele>95</ele>
        <time>2013-11-22T08:02:57Z</time>
      </trkpt>
      <trkpt lat="48.48442" lon="-2.72085">
        <ele>95</ele>
        <time>2013-11-22T08:02:58Z</time>
      </trkpt>
      <trkpt lat="48.48441" lon="-2.72083">
        <ele>95</ele>
        <time>2013-11-22T08:02:59Z</time>
      </trkpt>
      <trkpt lat="48.48441" lon="-2.72081">
        <ele>95</ele>
        <time>2013-11-22T08:03:00Z</time>
      </trkpt>
      <trkpt lat="48.48441" lon="-2.72079">
        <ele>95</ele>
        <time>2013-11-22T08:03:01Z</time>
      </trkpt>
      <trkpt lat="48.4844" lon="-2.72077">
        <ele>95</ele>
        <time>2013-11-22T08:03:02Z</time>
      </trkpt>
      <trkpt lat="48.4844" lon="-2.72076">
        <ele>95</ele>
        <time>2013-11-22T08:03:03Z</time>
      </trkpt>
      <trkpt lat="48.48439" lon="-2.72074">
        <ele>95</ele>
        <time>2013-11-22T08:03:04Z</time>
      </trkpt>
      <trkpt lat="48.48439" lon="-2.72072">
        <ele>95</ele>
        <time>2013-11-22T08:03:05Z</time>
      </trkpt>
      <trkpt lat="48.48438" lon="-2.72068">
        <ele>95</ele>
        <time>2013-11-22T08:03:07Z</time>
      </trkpt>
      <trkpt lat="48.48438" lon="-2.72066">
        <ele>95</ele>
        <time>2013-11-22T08:03:08Z</time>
      </trkpt>
      <trkpt lat="48.48438" lon="-2.72061">
        <ele>95</ele>
        <time>2013-11-22T08:03:11Z</time>
      </trkpt>
      <trkpt lat="48.48437" lon="-2.72059">
        <ele>95</ele>
        <time>2013-11-22T08:03:12Z</time>
      </trkpt>
      <trkpt lat="48.48437" lon="-2.72055">
        <ele>95</ele>
        <time>2013-11-22T08:03:14Z</time>
      </trkpt>
      <trkpt lat="48.48436" lon="-2.72046">
        <ele>94</ele>
        <time>2013-11-22T08:03:19Z</time>
      </trkpt>
      <trkpt lat="48.48436" lon="-2.72044">
        <ele>94</ele>
        <time>2013-11-22T08:03:20Z</time>
      </trkpt>
      <trkpt lat="48.48435" lon="-2.72042">
        <ele>94</ele>
        <time>2013-11-22T08:03:21Z</time>
      </trkpt>
      <trkpt lat="48.48434" lon="-2.72039">
        <ele>94</ele>
        <time>2013-11-22T08:03:23Z</time>
      </trkpt>
      <trkpt lat="48.48434" lon="-2.72037">
        <ele>94</ele>
        <time>2013-11-22T08:03:24Z</time>
      </trkpt>
      <trkpt lat="48.48434" lon="-2.72035">
        <ele>94</ele>
        <time>2013-11-22T08:03:25Z</time>
      </trkpt>
      <trkpt lat="48.48433" lon="-2.72028">
        <ele>94</ele>
        <time>2013-11-22T08:03:28Z</time>
      </trkpt>
      <trkpt lat="48.48433" lon="-2.72026">
        <ele>94</ele>
        <time>2013-11-22T08:03:29Z</time>
      </trkpt>
      <trkpt lat="48.48433" lon="-2.72025">
        <ele>94</ele>
        <time>2013-11-22T08:03:30Z</time>
      </trkpt>
      <trkpt lat="48.48432" lon="-2.72023">
        <ele>94</ele>
        <time>2013-11-22T08:03:31Z</time>
      </trkpt>
      <trkpt lat="48.48431" lon="-2.72021">
        <ele>94</ele>
        <time>2013-11-22T08:03:32Z</time>
      </trkpt>
      <trkpt lat="48.48431" lon="-2.72019">
        <ele>94</ele>
        <time>2013-11-22T08:03:33Z</time>
      </trkpt>
      <trkpt lat="48.48431" lon="-2.72017">
        <ele>94</ele>
        <time>2013-11-22T08:03:34Z</time>
      </trkpt>
      <trkpt lat="48.4843" lon="-2.72015">
        <ele>94</ele>
        <time>2013-11-22T08:03:35Z</time>
      </trkpt>
      <trkpt lat="48.4843" lon="-2.72013">
        <ele>94</ele>
        <time>2013-11-22T08:03:36Z</time>
      </trkpt>
      <trkpt lat="48.48429" lon="-2.72009">
        <ele>94</ele>
        <time>2013-11-22T08:03:38Z</time>
      </trkpt>
      <trkpt lat="48.48429" lon="-2.72007">
        <ele>94</ele>
        <time>2013-11-22T08:03:39Z</time>
      </trkpt>
      <trkpt lat="48.48429" lon="-2.72003">
        <ele>94</ele>
        <time>2013-11-22T08:03:41Z</time>
      </trkpt>
      <trkpt lat="48.48428" lon="-2.72">
        <ele>94</ele>
        <time>2013-11-22T08:03:42Z</time>
      </trkpt>
      <trkpt lat="48.48428" lon="-2.71998">
        <ele>94</ele>
        <time>2013-11-22T08:03:43Z</time>
      </trkpt>
      <trkpt lat="48.48428" lon="-2.71996">
        <ele>94</ele>
        <time>2013-11-22T08:03:44Z</time>
      </trkpt>
      <trkpt lat="48.48428" lon="-2.71993">
        <ele>94</ele>
        <time>2013-11-22T08:03:46Z</time>
      </trkpt>
      <trkpt lat="48.48426" lon="-2.7199">
        <ele>94</ele>
        <time>2013-11-22T08:03:48Z</time>
      </trkpt>
      <trkpt lat="48.48426" lon="-2.71986">
        <ele>94</ele>
        <time>2013-11-22T08:03:50Z</time>
      </trkpt>
      <trkpt lat="48.48425" lon="-2.71985">
        <ele>94</ele>
        <time>2013-11-22T08:03:51Z</time>
      </trkpt>
      <trkpt lat="48.48424" lon="-2.71982">
        <ele>94</ele>
        <time>2013-11-22T08:03:53Z</time>
      </trkpt>
      <trkpt lat="48.48423" lon="-2.71974">
        <ele>94</ele>
        <time>2013-11-22T08:03:58Z</time>
      </trkpt>
      <trkpt lat="48.48422" lon="-2.71971">
        <ele>94</ele>
        <time>2013-11-22T08:04:00Z</time>
      </trkpt>
      <trkpt lat="48.48422" lon="-2.71965">
        <ele>94</ele>
        <time>2013-11-22T08:04:03Z</time>
      </trkpt>
      <trkpt lat="48.48421" lon="-2.71963">
        <ele>94</ele>
        <time>2013-11-22T08:04:04Z</time>
      </trkpt>
      <trkpt lat="48.48421" lon="-2.71962">
        <ele>94</ele>
        <time>2013-11-22T08:04:05Z</time>
      </trkpt>
      <trkpt lat="48.48421" lon="-2.7196">
        <ele>94</ele>
        <time>2013-11-22T08:04:06Z</time>
      </trkpt>
      <trkpt lat="48.4842" lon="-2.71958">
        <ele>94</ele>
        <time>2013-11-22T08:04:07Z</time>
      </trkpt>
      <trkpt lat="48.48419" lon="-2.71955">
        <ele>94</ele>
        <time>2013-11-22T08:04:09Z</time>
      </trkpt>
      <trkpt lat="48.4842" lon="-2.71952">
        <ele>94</ele>
        <time>2013-11-22T08:04:11Z</time>
      </trkpt>
      <trkpt lat="48.48419" lon="-2.71949">
        <ele>94</ele>
        <time>2013-11-22T08:04:12Z</time>
      </trkpt>
      <trkpt lat="48.48418" lon="-2.71947">
        <ele>94</ele>
        <time>2013-11-22T08:04:13Z</time>
      </trkpt>
      <trkpt lat="48.48418" lon="-2.71945">
        <ele>94</ele>
        <time>2013-11-22T08:04:14Z</time>
      </trkpt>
      <trkpt lat="48.48417" lon="-2.71944">
        <ele>94</ele>
        <time>2013-11-22T08:04:15Z</time>
      </trkpt>
      <trkpt lat="48.48416" lon="-2.71941">
        <ele>94</ele>
        <time>2013-11-22T08:04:16Z</time>
      </trkpt>
      <trkpt lat="48.48415" lon="-2.71936">
        <ele>94</ele>
        <time>2013-11-22T08:04:19Z</time>
      </trkpt>
      <trkpt lat="48.48414" lon="-2.71934">
        <ele>94</ele>
        <time>2013-11-22T08:04:20Z</time>
      </trkpt>
      <trkpt lat="48.48413" lon="-2.7193">
        <ele>94</ele>
        <time>2013-11-22T08:04:22Z</time>
      </trkpt>
      <trkpt lat="48.48413" lon="-2.71928">
        <ele>94</ele>
        <time>2013-11-22T08:04:23Z</time>
      </trkpt>
      <trkpt lat="48.48412" lon="-2.71925">
        <ele>94</ele>
        <time>2013-11-22T08:04:25Z</time>
      </trkpt>
      <trkpt lat="48.4841" lon="-2.71923">
        <ele>93</ele>
        <time>2013-11-22T08:04:26Z</time>
      </trkpt>
      <trkpt lat="48.4841" lon="-2.71922">
        <ele>93</ele>
        <time>2013-11-22T08:04:27Z</time>
      </trkpt>
      <trkpt lat="48.4841" lon="-2.7192">
        <ele>93</ele>
        <time>2013-11-22T08:04:28Z</time>
      </trkpt>
      <trkpt lat="48.48411" lon="-2.71918">
        <ele>93</ele>
        <time>2013-11-22T08:04:29Z</time>
      </trkpt>
      <trkpt lat="48.4841" lon="-2.71914">
        <ele>92</ele>
        <time>2013-11-22T08:04:32Z</time>
      </trkpt>
      <trkpt lat="48.48409" lon="-2.71912">
        <ele>91</ele>
        <time>2013-11-22T08:04:33Z</time>
      </trkpt>
      <trkpt lat="48.48407" lon="-2.7191">
        <ele>91</ele>
        <time>2013-11-22T08:04:35Z</time>
      </trkpt>
      <trkpt lat="48.48407" lon="-2.71908">
        <ele>91</ele>
        <time>2013-11-22T08:04:36Z</time>
      </trkpt>
      <trkpt lat="48.48405" lon="-2.71904">
        <ele>91</ele>
        <time>2013-11-22T08:04:38Z</time>
      </trkpt>
      <trkpt lat="48.48405" lon="-2.71901">
        <ele>90</ele>
        <time>2013-11-22T08:04:40Z</time>
      </trkpt>
      <trkpt lat="48.48405" lon="-2.71899">
        <ele>90</ele>
        <time>2013-11-22T08:04:41Z</time>
      </trkpt>
      <trkpt lat="48.48406" lon="-2.71896">
        <ele>89</ele>
        <time>2013-11-22T08:04:42Z</time>
      </trkpt>
      <trkpt lat="48.48407" lon="-2.71893">
        <ele>89</ele>
        <time>2013-11-22T08:04:43Z</time>
      </trkpt>
      <trkpt lat="48.48406" lon="-2.71889">
        <ele>88</ele>
        <time>2013-11-22T08:04:45Z</time>
      </trkpt>
      <trkpt lat="48.48407" lon="-2.71887">
        <ele>88</ele>
        <time>2013-11-22T08:04:46Z</time>
      </trkpt>
      <trkpt lat="48.48406" lon="-2.71883">
        <ele>87</ele>
        <time>2013-11-22T08:04:48Z</time>
      </trkpt>
      <trkpt lat="48.48405" lon="-2.71881">
        <ele>87</ele>
        <time>2013-11-22T08:04:49Z</time>
      </trkpt>
      <trkpt lat="48.48405" lon="-2.71876">
        <ele>87</ele>
        <time>2013-11-22T08:04:51Z</time>
      </trkpt>
      <trkpt lat="48.48406" lon="-2.71872">
        <ele>87</ele>
        <time>2013-11-22T08:04:53Z</time>
      </trkpt>
      <trkpt lat="48.48405" lon="-2.7187">
        <ele>87</ele>
        <time>2013-11-22T08:04:54Z</time>
      </trkpt>
      <trkpt lat="48.48404" lon="-2.71868">
        <ele>87</ele>
        <time>2013-11-22T08:04:55Z</time>
      </trkpt>
      <trkpt lat="48.48404" lon="-2.71864">
        <ele>87</ele>
        <time>2013-11-22T08:04:57Z</time>
      </trkpt>
      <trkpt lat="48.48403" lon="-2.71862">
        <ele>87</ele>
        <time>2013-11-22T08:04:58Z</time>
      </trkpt>
      <trkpt lat="48.48403" lon="-2.7186">
        <ele>87</ele>
        <time>2013-11-22T08:04:59Z</time>
      </trkpt>
      <trkpt lat="48.48402" lon="-2.71858">
        <ele>87</ele>
        <time>2013-11-22T08:05:00Z</time>
      </trkpt>
      <trkpt lat="48.48402" lon="-2.71856">
        <ele>87</ele>
        <time>2013-11-22T08:05:01Z</time>
      </trkpt>
      <trkpt lat="48.48401" lon="-2.71854">
        <ele>87</ele>
        <time>2013-11-22T08:05:02Z</time>
      </trkpt>
      <trkpt lat="48.48401" lon="-2.71852">
        <ele>87</ele>
        <time>2013-11-22T08:05:03Z</time>
      </trkpt>
      <trkpt lat="48.484" lon="-2.71848">
        <ele>87</ele>
        <time>2013-11-22T08:05:05Z</time>
      </trkpt>
      <trkpt lat="48.484" lon="-2.7184">
        <ele>87</ele>
        <time>2013-11-22T08:05:09Z</time>
      </trkpt>
      <trkpt lat="48.48399" lon="-2.71838">
        <ele>87</ele>
        <time>2013-11-22T08:05:10Z</time>
      </trkpt>
      <trkpt lat="48.484" lon="-2.71831">
        <ele>88</ele>
        <time>2013-11-22T08:05:13Z</time>
      </trkpt>
      <trkpt lat="48.484" lon="-2.71825">
        <ele>88</ele>
        <time>2013-11-22T08:05:16Z</time>
      </trkpt>
      <trkpt lat="48.48401" lon="-2.71816">
        <ele>88</ele>
        <time>2013-11-22T08:05:20Z</time>
      </trkpt>
      <trkpt lat="48.48401" lon="-2.71814">
        <ele>88</ele>
        <time>2013-11-22T08:05:21Z</time>
      </trkpt>
      <trkpt lat="48.48401" lon="-2.71808">
        <ele>90</ele>
        <time>2013-11-22T08:05:24Z</time>
      </trkpt>
      <trkpt lat="48.48402" lon="-2.71806">
        <ele>90</ele>
        <time>2013-11-22T08:05:25Z</time>
      </trkpt>
      <trkpt lat="48.48402" lon="-2.71798">
        <ele>92</ele>
        <time>2013-11-22T08:05:29Z</time>
      </trkpt>
      <trkpt lat="48.48403" lon="-2.71795">
        <ele>92</ele>
        <time>2013-11-22T08:05:30Z</time>
      </trkpt>
      <trkpt lat="48.48404" lon="-2.71793">
        <ele>93</ele>
        <time>2013-11-22T08:05:31Z</time>
      </trkpt>
      <trkpt lat="48.48404" lon="-2.71791">
        <ele>93</ele>
        <time>2013-11-22T08:05:32Z</time>
      </trkpt>
      <trkpt lat="48.48405" lon="-2.71789">
        <ele>93</ele>
        <time>2013-11-22T08:05:33Z</time>
      </trkpt>
      <trkpt lat="48.48406" lon="-2.71787">
        <ele>94</ele>
        <time>2013-11-22T08:05:34Z</time>
      </trkpt>
      <trkpt lat="48.48407" lon="-2.71785">
        <ele>94</ele>
        <time>2013-11-22T08:05:35Z</time>
      </trkpt>
      <trkpt lat="48.48407" lon="-2.71783">
        <ele>94</ele>
        <time>2013-11-22T08:05:36Z</time>
      </trkpt>
      <trkpt lat="48.48408" lon="-2.71781">
        <ele>94</ele>
        <time>2013-11-22T08:05:37Z</time>
      </trkpt>
      <trkpt lat="48.48409" lon="-2.71779">
        <ele>94</ele>
        <time>2013-11-22T08:05:38Z</time>
      </trkpt>
      <trkpt lat="48.4841" lon="-2.71777">
        <ele>94</ele>
        <time>2013-11-22T08:05:39Z</time>
      </trkpt>
      <trkpt lat="48.4841" lon="-2.71774">
        <ele>94</ele>
        <time>2013-11-22T08:05:40Z</time>
      </trkpt>
      <trkpt lat="48.48411" lon="-2.71772">
        <ele>94</ele>
        <time>2013-11-22T08:05:41Z</time>
      </trkpt>
      <trkpt lat="48.48412" lon="-2.7177">
        <ele>94</ele>
        <time>2013-11-22T08:05:42Z</time>
      </trkpt>
      <trkpt lat="48.48413" lon="-2.71768">
        <ele>94</ele>
        <time>2013-11-22T08:05:43Z</time>
      </trkpt>
      <trkpt lat="48.48414" lon="-2.71766">
        <ele>94</ele>
        <time>2013-11-22T08:05:44Z</time>
      </trkpt>
      <trkpt lat="48.48414" lon="-2.71764">
        <ele>94</ele>
        <time>2013-11-22T08:05:45Z</time>
      </trkpt>
      <trkpt lat="48.48415" lon="-2.71762">
        <ele>94</ele>
        <time>2013-11-22T08:05:46Z</time>
      </trkpt>
      <trkpt lat="48.48416" lon="-2.7176">
        <ele>94</ele>
        <time>2013-11-22T08:05:47Z</time>
      </trkpt>
      <trkpt lat="48.48417" lon="-2.71758">
        <ele>94</ele>
        <time>2013-11-22T08:05:48Z</time>
      </trkpt>
      <trkpt lat="48.48418" lon="-2.71756">
        <ele>94</ele>
        <time>2013-11-22T08:05:49Z</time>
      </trkpt>
      <trkpt lat="48.48418" lon="-2.71754">
        <ele>94</ele>
        <time>2013-11-22T08:05:50Z</time>
      </trkpt>
      <trkpt lat="48.48419" lon="-2.71752">
        <ele>94</ele>
        <time>2013-11-22T08:05:51Z</time>
      </trkpt>
      <trkpt lat="48.4842" lon="-2.71749">
        <ele>94</ele>
        <time>2013-11-22T08:05:52Z</time>
      </trkpt>
      <trkpt lat="48.4842" lon="-2.71747">
        <ele>94</ele>
        <time>2013-11-22T08:05:53Z</time>
      </trkpt>
      <trkpt lat="48.48421" lon="-2.71745">
        <ele>94</ele>
        <time>2013-11-22T08:05:54Z</time>
      </trkpt>
      <trkpt lat="48.48422" lon="-2.71743">
        <ele>94</ele>
        <time>2013-11-22T08:05:55Z</time>
      </trkpt>
      <trkpt lat="48.48423" lon="-2.71741">
        <ele>94</ele>
        <time>2013-11-22T08:05:56Z</time>
      </trkpt>
      <trkpt lat="48.48423" lon="-2.71738">
        <ele>94</ele>
        <time>2013-11-22T08:05:57Z</time>
      </trkpt>
      <trkpt lat="48.48424" lon="-2.71736">
        <ele>94</ele>
        <time>2013-11-22T08:05:58Z</time>
      </trkpt>
      <trkpt lat="48.48425" lon="-2.71734">
        <ele>94</ele>
        <time>2013-11-22T08:05:59Z</time>
      </trkpt>
      <trkpt lat="48.48426" lon="-2.71732">
        <ele>94</ele>
        <time>2013-11-22T08:06:00Z</time>
      </trkpt>
      <trkpt lat="48.48427" lon="-2.7173">
        <ele>94</ele>
        <time>2013-11-22T08:06:01Z</time>
      </trkpt>
      <trkpt lat="48.48428" lon="-2.71728">
        <ele>94</ele>
        <time>2013-11-22T08:06:02Z</time>
      </trkpt>
      <trkpt lat="48.48428" lon="-2.71726">
        <ele>94</ele>
        <time>2013-11-22T08:06:03Z</time>
      </trkpt>
      <trkpt lat="48.48429" lon="-2.71724">
        <ele>94</ele>
        <time>2013-11-22T08:06:04Z</time>
      </trkpt>
      <trkpt lat="48.4843" lon="-2.71722">
        <ele>94</ele>
        <time>2013-11-22T08:06:05Z</time>
      </trkpt>
      <trkpt lat="48.48431" lon="-2.7172">
        <ele>94</ele>
        <time>2013-11-22T08:06:06Z</time>
      </trkpt>
      <trkpt lat="48.48432" lon="-2.71717">
        <ele>94</ele>
        <time>2013-11-22T08:06:07Z</time>
      </trkpt>
      <trkpt lat="48.48433" lon="-2.71715">
        <ele>94</ele>
        <time>2013-11-22T08:06:08Z</time>
      </trkpt>
      <trkpt lat="48.48434" lon="-2.71713">
        <ele>94</ele>
        <time>2013-11-22T08:06:09Z</time>
      </trkpt>
      <trkpt lat="48.48434" lon="-2.71711">
        <ele>94</ele>
        <time>2013-11-22T08:06:10Z</time>
      </trkpt>
      <trkpt lat="48.48435" lon="-2.71709">
        <ele>94</ele>
        <time>2013-11-22T08:06:11Z</time>
      </trkpt>
      <trkpt lat="48.48436" lon="-2.71707">
        <ele>94</ele>
        <time>2013-11-22T08:06:12Z</time>
      </trkpt>
      <trkpt lat="48.48437" lon="-2.71705">
        <ele>94</ele>
        <time>2013-11-22T08:06:13Z</time>
      </trkpt>
      <trkpt lat="48.48438" lon="-2.71704">
        <ele>94</ele>
        <time>2013-11-22T08:06:14Z</time>
      </trkpt>
      <trkpt lat="48.48438" lon="-2.71701">
        <ele>94</ele>
        <time>2013-11-22T08:06:15Z</time>
      </trkpt>
      <trkpt lat="48.48439" lon="-2.71699">
        <ele>94</ele>
        <time>2013-11-22T08:06:16Z</time>
      </trkpt>
      <trkpt lat="48.4844" lon="-2.71697">
        <ele>94</ele>
        <time>2013-11-22T08:06:17Z</time>
      </trkpt>
      <trkpt lat="48.48441" lon="-2.71695">
        <ele>94</ele>
        <time>2013-11-22T08:06:18Z</time>
      </trkpt>
      <trkpt lat="48.48441" lon="-2.71693">
        <ele>94</ele>
        <time>2013-11-22T08:06:19Z</time>
      </trkpt>
      <trkpt lat="48.48442" lon="-2.71691">
        <ele>94</ele>
        <time>2013-11-22T08:06:20Z</time>
      </trkpt>
      <trkpt lat="48.48443" lon="-2.71689">
        <ele>94</ele>
        <time>2013-11-22T08:06:21Z</time>
      </trkpt>
      <trkpt lat="48.48444" lon="-2.71687">
        <ele>94</ele>
        <time>2013-11-22T08:06:22Z</time>
      </trkpt>
      <trkpt lat="48.48445" lon="-2.71685">
        <ele>94</ele>
        <time>2013-11-22T08:06:23Z</time>
      </trkpt>
      <trkpt lat="48.48446" lon="-2.71683">
        <ele>94</ele>
        <time>2013-11-22T08:06:24Z</time>
      </trkpt>
      <trkpt lat="48.48447" lon="-2.71681">
        <ele>93</ele>
        <time>2013-11-22T08:06:25Z</time>
      </trkpt>
      <trkpt lat="48.48448" lon="-2.71679">
        <ele>93</ele>
        <time>2013-11-22T08:06:26Z</time>
      </trkpt>
      <trkpt lat="48.48449" lon="-2.71676">
        <ele>93</ele>
        <time>2013-11-22T08:06:27Z</time>
      </trkpt>
      <trkpt lat="48.48449" lon="-2.71674">
        <ele>93</ele>
        <time>2013-11-22T08:06:28Z</time>
      </trkpt>
      <trkpt lat="48.4845" lon="-2.71672">
        <ele>93</ele>
        <time>2013-11-22T08:06:29Z</time>
      </trkpt>
      <trkpt lat="48.48451" lon="-2.7167">
        <ele>93</ele>
        <time>2013-11-22T08:06:30Z</time>
      </trkpt>
      <trkpt lat="48.48452" lon="-2.71668">
        <ele>93</ele>
        <time>2013-11-22T08:06:31Z</time>
      </trkpt>
      <trkpt lat="48.48453" lon="-2.71666">
        <ele>93</ele>
        <time>2013-11-22T08:06:32Z</time>
      </trkpt>
      <trkpt lat="48.48454" lon="-2.71664">
        <ele>93</ele>
        <time>2013-11-22T08:06:33Z</time>
      </trkpt>
      <trkpt lat="48.48455" lon="-2.71663">
        <ele>93</ele>
        <time>2013-11-22T08:06:34Z</time>
      </trkpt>
      <trkpt lat="48.48457" lon="-2.71659">
        <ele>92</ele>
        <time>2013-11-22T08:06:36Z</time>
      </trkpt>
      <trkpt lat="48.48458" lon="-2.71658">
        <ele>92</ele>
        <time>2013-11-22T08:06:37Z</time>
      </trkpt>
      <trkpt lat="48.48459" lon="-2.71656">
        <ele>92</ele>
        <time>2013-11-22T08:06:38Z</time>
      </trkpt>
      <trkpt lat="48.48461" lon="-2.71653">
        <ele>92</ele>
        <time>2013-11-22T08:06:40Z</time>
      </trkpt>
      <trkpt lat="48.48463" lon="-2.71651">
        <ele>92</ele>
        <time>2013-11-22T08:06:42Z</time>
      </trkpt>
      <trkpt lat="48.48464" lon="-2.71649">
        <ele>92</ele>
        <time>2013-11-22T08:06:43Z</time>
      </trkpt>
      <trkpt lat="48.48466" lon="-2.71646">
        <ele>92</ele>
        <time>2013-11-22T08:06:45Z</time>
      </trkpt>
      <trkpt lat="48.48467" lon="-2.71645">
        <ele>92</ele>
        <time>2013-11-22T08:06:46Z</time>
      </trkpt>
      <trkpt lat="48.48468" lon="-2.71642">
        <ele>92</ele>
        <time>2013-11-22T08:06:47Z</time>
      </trkpt>
      <trkpt lat="48.48469" lon="-2.71641">
        <ele>92</ele>
        <time>2013-11-22T08:06:48Z</time>
      </trkpt>
      <trkpt lat="48.4847" lon="-2.7164">
        <ele>92</ele>
        <time>2013-11-22T08:06:49Z</time>
      </trkpt>
      <trkpt lat="48.48471" lon="-2.71639">
        <ele>92</ele>
        <time>2013-11-22T08:06:50Z</time>
      </trkpt>
      <trkpt lat="48.48473" lon="-2.71637">
        <ele>92</ele>
        <time>2013-11-22T08:06:52Z</time>
      </trkpt>
      <trkpt lat="48.48475" lon="-2.71635">
        <ele>92</ele>
        <time>2013-11-22T08:06:54Z</time>
      </trkpt>
      <trkpt lat="48.48476" lon="-2.71634">
        <ele>92</ele>
        <time>2013-11-22T08:06:55Z</time>
      </trkpt>
      <trkpt lat="48.48478" lon="-2.71632">
        <ele>92</ele>
        <time>2013-11-22T08:06:57Z</time>
      </trkpt>
      <trkpt lat="48.4848" lon="-2.71631">
        <ele>92</ele>
        <time>2013-11-22T08:06:58Z</time>
      </trkpt>
      <trkpt lat="48.48481" lon="-2.7163">
        <ele>92</ele>
        <time>2013-11-22T08:06:59Z</time>
      </trkpt>
      <trkpt lat="48.48483" lon="-2.71629">
        <ele>92</ele>
        <time>2013-11-22T08:07:00Z</time>
      </trkpt>
      <trkpt lat="48.48484" lon="-2.71628">
        <ele>92</ele>
        <time>2013-11-22T08:07:01Z</time>
      </trkpt>
      <trkpt lat="48.48485" lon="-2.71627">
        <ele>92</ele>
        <time>2013-11-22T08:07:02Z</time>
      </trkpt>
      <trkpt lat="48.48486" lon="-2.71626">
        <ele>92</ele>
        <time>2013-11-22T08:07:03Z</time>
      </trkpt>
      <trkpt lat="48.48487" lon="-2.71625">
        <ele>92</ele>
        <time>2013-11-22T08:07:04Z</time>
      </trkpt>
      <trkpt lat="48.48489" lon="-2.71624">
        <ele>92</ele>
        <time>2013-11-22T08:07:05Z</time>
      </trkpt>
      <trkpt lat="48.4849" lon="-2.71623">
        <ele>92</ele>
        <time>2013-11-22T08:07:06Z</time>
      </trkpt>
      <trkpt lat="48.48492" lon="-2.71621">
        <ele>92</ele>
        <time>2013-11-22T08:07:08Z</time>
      </trkpt>
      <trkpt lat="48.48493" lon="-2.71621">
        <ele>92</ele>
        <time>2013-11-22T08:07:09Z</time>
      </trkpt>
      <trkpt lat="48.48495" lon="-2.71619">
        <ele>92</ele>
        <time>2013-11-22T08:07:11Z</time>
      </trkpt>
      <trkpt lat="48.48497" lon="-2.71618">
        <ele>92</ele>
        <time>2013-11-22T08:07:12Z</time>
      </trkpt>
      <trkpt lat="48.48498" lon="-2.71618">
        <ele>92</ele>
        <time>2013-11-22T08:07:13Z</time>
      </trkpt>
      <trkpt lat="48.485" lon="-2.71617">
        <ele>92</ele>
        <time>2013-11-22T08:07:14Z</time>
      </trkpt>
      <trkpt lat="48.48501" lon="-2.71616">
        <ele>92</ele>
        <time>2013-11-22T08:07:15Z</time>
      </trkpt>
      <trkpt lat="48.48502" lon="-2.71615">
        <ele>92</ele>
        <time>2013-11-22T08:07:16Z</time>
      </trkpt>
      <trkpt lat="48.48504" lon="-2.71614">
        <ele>92</ele>
        <time>2013-11-22T08:07:18Z</time>
      </trkpt>
      <trkpt lat="48.48505" lon="-2.71613">
        <ele>92</ele>
        <time>2013-11-22T08:07:19Z</time>
      </trkpt>
      <trkpt lat="48.48507" lon="-2.71613">
        <ele>93</ele>
        <time>2013-11-22T08:07:20Z</time>
      </trkpt>
      <trkpt lat="48.48508" lon="-2.71612">
        <ele>93</ele>
        <time>2013-11-22T08:07:21Z</time>
      </trkpt>
      <trkpt lat="48.4851" lon="-2.71611">
        <ele>93</ele>
        <time>2013-11-22T08:07:22Z</time>
      </trkpt>
      <trkpt lat="48.48511" lon="-2.7161">
        <ele>93</ele>
        <time>2013-11-22T08:07:23Z</time>
      </trkpt>
      <trkpt lat="48.48512" lon="-2.7161">
        <ele>93</ele>
        <time>2013-11-22T08:07:24Z</time>
      </trkpt>
      <trkpt lat="48.48513" lon="-2.71609">
        <ele>93</ele>
        <time>2013-11-22T08:07:25Z</time>
      </trkpt>
      <trkpt lat="48.48515" lon="-2.71608">
        <ele>93</ele>
        <time>2013-11-22T08:07:26Z</time>
      </trkpt>
      <trkpt lat="48.48516" lon="-2.71608">
        <ele>93</ele>
        <time>2013-11-22T08:07:27Z</time>
      </trkpt>
      <trkpt lat="48.48517" lon="-2.71607">
        <ele>93</ele>
        <time>2013-11-22T08:07:28Z</time>
      </trkpt>
      <trkpt lat="48.48518" lon="-2.71606">
        <ele>93</ele>
        <time>2013-11-22T08:07:29Z</time>
      </trkpt>
      <trkpt lat="48.48519" lon="-2.71606">
        <ele>94</ele>
        <time>2013-11-22T08:07:30Z</time>
      </trkpt>
      <trkpt lat="48.48521" lon="-2.71605">
        <ele>94</ele>
        <time>2013-11-22T08:07:31Z</time>
      </trkpt>
      <trkpt lat="48.48522" lon="-2.71604">
        <ele>94</ele>
        <time>2013-11-22T08:07:32Z</time>
      </trkpt>
      <trkpt lat="48.48523" lon="-2.71603">
        <ele>94</ele>
        <time>2013-11-22T08:07:33Z</time>
      </trkpt>
      <trkpt lat="48.48524" lon="-2.71602">
        <ele>94</ele>
        <time>2013-11-22T08:07:34Z</time>
      </trkpt>
      <trkpt lat="48.48526" lon="-2.71602">
        <ele>94</ele>
        <time>2013-11-22T08:07:35Z</time>
      </trkpt>
      <trkpt lat="48.48527" lon="-2.71601">
        <ele>94</ele>
        <time>2013-11-22T08:07:36Z</time>
      </trkpt>
      <trkpt lat="48.48529" lon="-2.71601">
        <ele>94</ele>
        <time>2013-11-22T08:07:37Z</time>
      </trkpt>
      <trkpt lat="48.4853" lon="-2.716">
        <ele>95</ele>
        <time>2013-11-22T08:07:38Z</time>
      </trkpt>
      <trkpt lat="48.48532" lon="-2.716">
        <ele>95</ele>
        <time>2013-11-22T08:07:40Z</time>
      </trkpt>
      <trkpt lat="48.48533" lon="-2.71599">
        <ele>95</ele>
        <time>2013-11-22T08:07:41Z</time>
      </trkpt>
      <trkpt lat="48.48535" lon="-2.71599">
        <ele>95</ele>
        <time>2013-11-22T08:07:42Z</time>
      </trkpt>
      <trkpt lat="48.48536" lon="-2.71599">
        <ele>96</ele>
        <time>2013-11-22T08:07:43Z</time>
      </trkpt>
      <trkpt lat="48.48537" lon="-2.71598">
        <ele>96</ele>
        <time>2013-11-22T08:07:44Z</time>
      </trkpt>
      <trkpt lat="48.48539" lon="-2.71598">
        <ele>96</ele>
        <time>2013-11-22T08:07:46Z</time>
      </trkpt>
      <trkpt lat="48.48541" lon="-2.71596">
        <ele>96</ele>
        <time>2013-11-22T08:07:48Z</time>
      </trkpt>
      <trkpt lat="48.48542" lon="-2.71594">
        <ele>97</ele>
        <time>2013-11-22T08:07:50Z</time>
      </trkpt>
      <trkpt lat="48.48542" lon="-2.71592">
        <ele>97</ele>
        <time>2013-11-22T08:07:51Z</time>
      </trkpt>
      <trkpt lat="48.48543" lon="-2.71589">
        <ele>97</ele>
        <time>2013-11-22T08:07:52Z</time>
      </trkpt>
      <trkpt lat="48.48544" lon="-2.71587">
        <ele>97</ele>
        <time>2013-11-22T08:07:53Z</time>
      </trkpt>
      <trkpt lat="48.48546" lon="-2.71586">
        <ele>97</ele>
        <time>2013-11-22T08:07:54Z</time>
      </trkpt>
      <trkpt lat="48.48547" lon="-2.71585">
        <ele>97</ele>
        <time>2013-11-22T08:07:55Z</time>
      </trkpt>
      <trkpt lat="48.48548" lon="-2.71585">
        <ele>97</ele>
        <time>2013-11-22T08:07:56Z</time>
      </trkpt>
      <trkpt lat="48.4855" lon="-2.71584">
        <ele>97</ele>
        <time>2013-11-22T08:07:57Z</time>
      </trkpt>
      <trkpt lat="48.48551" lon="-2.71584">
        <ele>97</ele>
        <time>2013-11-22T08:07:58Z</time>
      </trkpt>
      <trkpt lat="48.48552" lon="-2.71583">
        <ele>97</ele>
        <time>2013-11-22T08:07:59Z</time>
      </trkpt>
      <trkpt lat="48.48554" lon="-2.71582">
        <ele>97</ele>
        <time>2013-11-22T08:08:00Z</time>
      </trkpt>
      <trkpt lat="48.48555" lon="-2.71581">
        <ele>97</ele>
        <time>2013-11-22T08:08:01Z</time>
      </trkpt>
      <trkpt lat="48.48557" lon="-2.71581">
        <ele>97</ele>
        <time>2013-11-22T08:08:02Z</time>
      </trkpt>
      <trkpt lat="48.48559" lon="-2.7158">
        <ele>97</ele>
        <time>2013-11-22T08:08:03Z</time>
      </trkpt>
      <trkpt lat="48.4856" lon="-2.71579">
        <ele>97</ele>
        <time>2013-11-22T08:08:04Z</time>
      </trkpt>
      <trkpt lat="48.48562" lon="-2.71578">
        <ele>97</ele>
        <time>2013-11-22T08:08:05Z</time>
      </trkpt>
      <trkpt lat="48.48563" lon="-2.71577">
        <ele>97</ele>
        <time>2013-11-22T08:08:06Z</time>
      </trkpt>
      <trkpt lat="48.48565" lon="-2.71577">
        <ele>97</ele>
        <time>2013-11-22T08:08:07Z</time>
      </trkpt>
      <trkpt lat="48.48566" lon="-2.71576">
        <ele>97</ele>
        <time>2013-11-22T08:08:08Z</time>
      </trkpt>
      <trkpt lat="48.48568" lon="-2.71573">
        <ele>97</ele>
        <time>2013-11-22T08:08:10Z</time>
      </trkpt>
      <trkpt lat="48.48569" lon="-2.71572">
        <ele>97</ele>
        <time>2013-11-22T08:08:11Z</time>
      </trkpt>
      <trkpt lat="48.48571" lon="-2.71571">
        <ele>97</ele>
        <time>2013-11-22T08:08:12Z</time>
      </trkpt>
      <trkpt lat="48.48573" lon="-2.7157">
        <ele>97</ele>
        <time>2013-11-22T08:08:13Z</time>
      </trkpt>
      <trkpt lat="48.48574" lon="-2.7157">
        <ele>97</ele>
        <time>2013-11-22T08:08:14Z</time>
      </trkpt>
      <trkpt lat="48.48576" lon="-2.71569">
        <ele>97</ele>
        <time>2013-11-22T08:08:15Z</time>
      </trkpt>
      <trkpt lat="48.48577" lon="-2.71568">
        <ele>97</ele>
        <time>2013-11-22T08:08:16Z</time>
      </trkpt>
      <trkpt lat="48.48579" lon="-2.71568">
        <ele>97</ele>
        <time>2013-11-22T08:08:17Z</time>
      </trkpt>
      <trkpt lat="48.4858" lon="-2.71567">
        <ele>97</ele>
        <time>2013-11-22T08:08:18Z</time>
      </trkpt>
      <trkpt lat="48.48581" lon="-2.71566">
        <ele>97</ele>
        <time>2013-11-22T08:08:19Z</time>
      </trkpt>
      <trkpt lat="48.48583" lon="-2.71565">
        <ele>97</ele>
        <time>2013-11-22T08:08:20Z</time>
      </trkpt>
      <trkpt lat="48.48584" lon="-2.71565">
        <ele>97</ele>
        <time>2013-11-22T08:08:21Z</time>
      </trkpt>
      <trkpt lat="48.48585" lon="-2.71564">
        <ele>97</ele>
        <time>2013-11-22T08:08:22Z</time>
      </trkpt>
      <trkpt lat="48.48587" lon="-2.71563">
        <ele>97</ele>
        <time>2013-11-22T08:08:23Z</time>
      </trkpt>
      <trkpt lat="48.48588" lon="-2.71562">
        <ele>97</ele>
        <time>2013-11-22T08:08:24Z</time>
      </trkpt>
      <trkpt lat="48.48589" lon="-2.71561">
        <ele>97</ele>
        <time>2013-11-22T08:08:25Z</time>
      </trkpt>
      <trkpt lat="48.48591" lon="-2.7156">
        <ele>97</ele>
        <time>2013-11-22T08:08:26Z</time>
      </trkpt>
      <trkpt lat="48.48592" lon="-2.7156">
        <ele>97</ele>
        <time>2013-11-22T08:08:27Z</time>
      </trkpt>
      <trkpt lat="48.48594" lon="-2.71559">
        <ele>97</ele>
        <time>2013-11-22T08:08:28Z</time>
      </trkpt>
      <trkpt lat="48.48595" lon="-2.71558">
        <ele>97</ele>
        <time>2013-11-22T08:08:29Z</time>
      </trkpt>
      <trkpt lat="48.48597" lon="-2.71557">
        <ele>97</ele>
        <time>2013-11-22T08:08:30Z</time>
      </trkpt>
      <trkpt lat="48.48598" lon="-2.71556">
        <ele>97</ele>
        <time>2013-11-22T08:08:31Z</time>
      </trkpt>
      <trkpt lat="48.48599" lon="-2.71555">
        <ele>97</ele>
        <time>2013-11-22T08:08:32Z</time>
      </trkpt>
      <trkpt lat="48.486" lon="-2.71554">
        <ele>97</ele>
        <time>2013-11-22T08:08:33Z</time>
      </trkpt>
      <trkpt lat="48.48602" lon="-2.71553">
        <ele>97</ele>
        <time>2013-11-22T08:08:34Z</time>
      </trkpt>
      <trkpt lat="48.48603" lon="-2.71552">
        <ele>97</ele>
        <time>2013-11-22T08:08:35Z</time>
      </trkpt>
      <trkpt lat="48.48604" lon="-2.71551">
        <ele>97</ele>
        <time>2013-11-22T08:08:36Z</time>
      </trkpt>
      <trkpt lat="48.48606" lon="-2.7155">
        <ele>97</ele>
        <time>2013-11-22T08:08:37Z</time>
      </trkpt>
      <trkpt lat="48.48607" lon="-2.7155">
        <ele>97</ele>
        <time>2013-11-22T08:08:38Z</time>
      </trkpt>
      <trkpt lat="48.48608" lon="-2.71549">
        <ele>97</ele>
        <time>2013-11-22T08:08:39Z</time>
      </trkpt>
      <trkpt lat="48.4861" lon="-2.71548">
        <ele>97</ele>
        <time>2013-11-22T08:08:40Z</time>
      </trkpt>
      <trkpt lat="48.48611" lon="-2.71547">
        <ele>97</ele>
        <time>2013-11-22T08:08:41Z</time>
      </trkpt>
      <trkpt lat="48.48613" lon="-2.71546">
        <ele>97</ele>
        <time>2013-11-22T08:08:42Z</time>
      </trkpt>
      <trkpt lat="48.48614" lon="-2.71545">
        <ele>97</ele>
        <time>2013-11-22T08:08:43Z</time>
      </trkpt>
      <trkpt lat="48.48615" lon="-2.71544">
        <ele>97</ele>
        <time>2013-11-22T08:08:44Z</time>
      </trkpt>
      <trkpt lat="48.48616" lon="-2.71543">
        <ele>97</ele>
        <time>2013-11-22T08:08:45Z</time>
      </trkpt>
      <trkpt lat="48.48618" lon="-2.71543">
        <ele>97</ele>
        <time>2013-11-22T08:08:46Z</time>
      </trkpt>
      <trkpt lat="48.48619" lon="-2.71542">
        <ele>97</ele>
        <time>2013-11-22T08:08:47Z</time>
      </trkpt>
      <trkpt lat="48.4862" lon="-2.71541">
        <ele>97</ele>
        <time>2013-11-22T08:08:48Z</time>
      </trkpt>
      <trkpt lat="48.48621" lon="-2.7154">
        <ele>97</ele>
        <time>2013-11-22T08:08:49Z</time>
      </trkpt>
      <trkpt lat="48.48623" lon="-2.71539">
        <ele>97</ele>
        <time>2013-11-22T08:08:50Z</time>
      </trkpt>
      <trkpt lat="48.48624" lon="-2.71538">
        <ele>97</ele>
        <time>2013-11-22T08:08:51Z</time>
      </trkpt>
      <trkpt lat="48.48625" lon="-2.71537">
        <ele>97</ele>
        <time>2013-11-22T08:08:52Z</time>
      </trkpt>
      <trkpt lat="48.48627" lon="-2.71536">
        <ele>97</ele>
        <time>2013-11-22T08:08:53Z</time>
      </trkpt>
      <trkpt lat="48.48628" lon="-2.71535">
        <ele>97</ele>
        <time>2013-11-22T08:08:54Z</time>
      </trkpt>
      <trkpt lat="48.48629" lon="-2.71534">
        <ele>97</ele>
        <time>2013-11-22T08:08:55Z</time>
      </trkpt>
      <trkpt lat="48.48631" lon="-2.71533">
        <ele>97</ele>
        <time>2013-11-22T08:08:56Z</time>
      </trkpt>
      <trkpt lat="48.48633" lon="-2.71531">
        <ele>97</ele>
        <time>2013-11-22T08:08:58Z</time>
      </trkpt>
      <trkpt lat="48.48635" lon="-2.71528">
        <ele>97</ele>
        <time>2013-11-22T08:09:00Z</time>
      </trkpt>
      <trkpt lat="48.48636" lon="-2.71526">
        <ele>97</ele>
        <time>2013-11-22T08:09:01Z</time>
      </trkpt>
      <trkpt lat="48.48637" lon="-2.71525">
        <ele>97</ele>
        <time>2013-11-22T08:09:02Z</time>
      </trkpt>
      <trkpt lat="48.48637" lon="-2.71523">
        <ele>97</ele>
        <time>2013-11-22T08:09:03Z</time>
      </trkpt>
      <trkpt lat="48.48638" lon="-2.71521">
        <ele>97</ele>
        <time>2013-11-22T08:09:04Z</time>
      </trkpt>
      <trkpt lat="48.48639" lon="-2.71519">
        <ele>97</ele>
        <time>2013-11-22T08:09:05Z</time>
      </trkpt>
      <trkpt lat="48.4864" lon="-2.71517">
        <ele>97</ele>
        <time>2013-11-22T08:09:06Z</time>
      </trkpt>
      <trkpt lat="48.4864" lon="-2.71515">
        <ele>97</ele>
        <time>2013-11-22T08:09:07Z</time>
      </trkpt>
      <trkpt lat="48.4864" lon="-2.71513">
        <ele>97</ele>
        <time>2013-11-22T08:09:08Z</time>
      </trkpt>
      <trkpt lat="48.48641" lon="-2.71511">
        <ele>97</ele>
        <time>2013-11-22T08:09:09Z</time>
      </trkpt>
      <trkpt lat="48.48642" lon="-2.71509">
        <ele>97</ele>
        <time>2013-11-22T08:09:10Z</time>
      </trkpt>
      <trkpt lat="48.48642" lon="-2.71507">
        <ele>97</ele>
        <time>2013-11-22T08:09:11Z</time>
      </trkpt>
      <trkpt lat="48.48643" lon="-2.71505">
        <ele>97</ele>
        <time>2013-11-22T08:09:12Z</time>
      </trkpt>
      <trkpt lat="48.48644" lon="-2.71503">
        <ele>97</ele>
        <time>2013-11-22T08:09:13Z</time>
      </trkpt>
      <trkpt lat="48.48644" lon="-2.71501">
        <ele>97</ele>
        <time>2013-11-22T08:09:14Z</time>
      </trkpt>
      <trkpt lat="48.48645" lon="-2.71499">
        <ele>97</ele>
        <time>2013-11-22T08:09:15Z</time>
      </trkpt>
      <trkpt lat="48.48645" lon="-2.71497">
        <ele>97</ele>
        <time>2013-11-22T08:09:16Z</time>
      </trkpt>
      <trkpt lat="48.48646" lon="-2.71495">
        <ele>97</ele>
        <time>2013-11-22T08:09:17Z</time>
      </trkpt>
      <trkpt lat="48.48646" lon="-2.71492">
        <ele>97</ele>
        <time>2013-11-22T08:09:18Z</time>
      </trkpt>
      <trkpt lat="48.48647" lon="-2.7149">
        <ele>97</ele>
        <time>2013-11-22T08:09:19Z</time>
      </trkpt>
      <trkpt lat="48.48647" lon="-2.71488">
        <ele>97</ele>
        <time>2013-11-22T08:09:20Z</time>
      </trkpt>
      <trkpt lat="48.48648" lon="-2.71486">
        <ele>97</ele>
        <time>2013-11-22T08:09:21Z</time>
      </trkpt>
      <trkpt lat="48.48648" lon="-2.71484">
        <ele>96</ele>
        <time>2013-11-22T08:09:22Z</time>
      </trkpt>
      <trkpt lat="48.48649" lon="-2.71481">
        <ele>96</ele>
        <time>2013-11-22T08:09:23Z</time>
      </trkpt>
      <trkpt lat="48.4865" lon="-2.71479">
        <ele>95</ele>
        <time>2013-11-22T08:09:24Z</time>
      </trkpt>
      <trkpt lat="48.4865" lon="-2.71477">
        <ele>95</ele>
        <time>2013-11-22T08:09:25Z</time>
      </trkpt>
      <trkpt lat="48.4865" lon="-2.71474">
        <ele>94</ele>
        <time>2013-11-22T08:09:26Z</time>
      </trkpt>
      <trkpt lat="48.48651" lon="-2.71472">
        <ele>94</ele>
        <time>2013-11-22T08:09:27Z</time>
      </trkpt>
      <trkpt lat="48.48651" lon="-2.7147">
        <ele>94</ele>
        <time>2013-11-22T08:09:28Z</time>
      </trkpt>
      <trkpt lat="48.48652" lon="-2.71465">
        <ele>93</ele>
        <time>2013-11-22T08:09:30Z</time>
      </trkpt>
      <trkpt lat="48.48652" lon="-2.71463">
        <ele>92</ele>
        <time>2013-11-22T08:09:31Z</time>
      </trkpt>
      <trkpt lat="48.48653" lon="-2.71458">
        <ele>91</ele>
        <time>2013-11-22T08:09:33Z</time>
      </trkpt>
      <trkpt lat="48.48653" lon="-2.71456">
        <ele>91</ele>
        <time>2013-11-22T08:09:34Z</time>
      </trkpt>
      <trkpt lat="48.48654" lon="-2.71454">
        <ele>90</ele>
        <time>2013-11-22T08:09:35Z</time>
      </trkpt>
      <trkpt lat="48.48655" lon="-2.71452">
        <ele>90</ele>
        <time>2013-11-22T08:09:36Z</time>
      </trkpt>
      <trkpt lat="48.48656" lon="-2.71449">
        <ele>89</ele>
        <time>2013-11-22T08:09:37Z</time>
      </trkpt>
      <trkpt lat="48.48656" lon="-2.71447">
        <ele>89</ele>
        <time>2013-11-22T08:09:38Z</time>
      </trkpt>
      <trkpt lat="48.48656" lon="-2.71445">
        <ele>89</ele>
        <time>2013-11-22T08:09:39Z</time>
      </trkpt>
      <trkpt lat="48.48657" lon="-2.71444">
        <ele>88</ele>
        <time>2013-11-22T08:09:40Z</time>
      </trkpt>
      <trkpt lat="48.48657" lon="-2.71442">
        <ele>88</ele>
        <time>2013-11-22T08:09:41Z</time>
      </trkpt>
      <trkpt lat="48.48658" lon="-2.7144">
        <ele>88</ele>
        <time>2013-11-22T08:09:42Z</time>
      </trkpt>
      <trkpt lat="48.48658" lon="-2.71436">
        <ele>88</ele>
        <time>2013-11-22T08:09:44Z</time>
      </trkpt>
      <trkpt lat="48.48658" lon="-2.71435">
        <ele>88</ele>
        <time>2013-11-22T08:09:45Z</time>
      </trkpt>
      <trkpt lat="48.48659" lon="-2.7143">
        <ele>88</ele>
        <time>2013-11-22T08:09:47Z</time>
      </trkpt>
      <trkpt lat="48.4866" lon="-2.71428">
        <ele>88</ele>
        <time>2013-11-22T08:09:48Z</time>
      </trkpt>
      <trkpt lat="48.48661" lon="-2.71426">
        <ele>88</ele>
        <time>2013-11-22T08:09:49Z</time>
      </trkpt>
      <trkpt lat="48.48661" lon="-2.71422">
        <ele>88</ele>
        <time>2013-11-22T08:09:51Z</time>
      </trkpt>
      <trkpt lat="48.48661" lon="-2.7142">
        <ele>88</ele>
        <time>2013-11-22T08:09:52Z</time>
      </trkpt>
      <trkpt lat="48.48662" lon="-2.71418">
        <ele>88</ele>
        <time>2013-11-22T08:09:53Z</time>
      </trkpt>
      <trkpt lat="48.48663" lon="-2.71413">
        <ele>88</ele>
        <time>2013-11-22T08:09:55Z</time>
      </trkpt>
      <trkpt lat="48.48664" lon="-2.71411">
        <ele>88</ele>
        <time>2013-11-22T08:09:56Z</time>
      </trkpt>
      <trkpt lat="48.48664" lon="-2.7141">
        <ele>88</ele>
        <time>2013-11-22T08:09:57Z</time>
      </trkpt>
      <trkpt lat="48.48665" lon="-2.71408">
        <ele>88</ele>
        <time>2013-11-22T08:09:58Z</time>
      </trkpt>
      <trkpt lat="48.48666" lon="-2.71406">
        <ele>88</ele>
        <time>2013-11-22T08:09:59Z</time>
      </trkpt>
      <trkpt lat="48.48666" lon="-2.71404">
        <ele>88</ele>
        <time>2013-11-22T08:10:00Z</time>
      </trkpt>
      <trkpt lat="48.48666" lon="-2.71399">
        <ele>88</ele>
        <time>2013-11-22T08:10:02Z</time>
      </trkpt>
      <trkpt lat="48.48667" lon="-2.71397">
        <ele>88</ele>
        <time>2013-11-22T08:10:03Z</time>
      </trkpt>
      <trkpt lat="48.48667" lon="-2.71395">
        <ele>88</ele>
        <time>2013-11-22T08:10:04Z</time>
      </trkpt>
      <trkpt lat="48.48668" lon="-2.71393">
        <ele>88</ele>
        <time>2013-11-22T08:10:05Z</time>
      </trkpt>
      <trkpt lat="48.48668" lon="-2.71391">
        <ele>87</ele>
        <time>2013-11-22T08:10:06Z</time>
      </trkpt>
      <trkpt lat="48.48669" lon="-2.71389">
        <ele>87</ele>
        <time>2013-11-22T08:10:07Z</time>
      </trkpt>
      <trkpt lat="48.48669" lon="-2.71387">
        <ele>87</ele>
        <time>2013-11-22T08:10:08Z</time>
      </trkpt>
      <trkpt lat="48.48669" lon="-2.71385">
        <ele>87</ele>
        <time>2013-11-22T08:10:09Z</time>
      </trkpt>
      <trkpt lat="48.4867" lon="-2.71383">
        <ele>87</ele>
        <time>2013-11-22T08:10:10Z</time>
      </trkpt>
      <trkpt lat="48.48671" lon="-2.71379">
        <ele>87</ele>
        <time>2013-11-22T08:10:12Z</time>
      </trkpt>
      <trkpt lat="48.48671" lon="-2.71377">
        <ele>87</ele>
        <time>2013-11-22T08:10:13Z</time>
      </trkpt>
      <trkpt lat="48.48672" lon="-2.71375">
        <ele>87</ele>
        <time>2013-11-22T08:10:14Z</time>
      </trkpt>
      <trkpt lat="48.48672" lon="-2.71373">
        <ele>87</ele>
        <time>2013-11-22T08:10:15Z</time>
      </trkpt>
      <trkpt lat="48.48673" lon="-2.71371">
        <ele>86</ele>
        <time>2013-11-22T08:10:16Z</time>
      </trkpt>
      <trkpt lat="48.48674" lon="-2.71369">
        <ele>86</ele>
        <time>2013-11-22T08:10:17Z</time>
      </trkpt>
      <trkpt lat="48.48675" lon="-2.71368">
        <ele>86</ele>
        <time>2013-11-22T08:10:18Z</time>
      </trkpt>
      <trkpt lat="48.48675" lon="-2.71366">
        <ele>85</ele>
        <time>2013-11-22T08:10:19Z</time>
      </trkpt>
      <trkpt lat="48.48676" lon="-2.71364">
        <ele>85</ele>
        <time>2013-11-22T08:10:20Z</time>
      </trkpt>
      <trkpt lat="48.48677" lon="-2.71362">
        <ele>84</ele>
        <time>2013-11-22T08:10:21Z</time>
      </trkpt>
      <trkpt lat="48.48679" lon="-2.7136">
        <ele>84</ele>
        <time>2013-11-22T08:10:22Z</time>
      </trkpt>
      <trkpt lat="48.4868" lon="-2.71358">
        <ele>83</ele>
        <time>2013-11-22T08:10:23Z</time>
      </trkpt>
      <trkpt lat="48.48681" lon="-2.71357">
        <ele>83</ele>
        <time>2013-11-22T08:10:24Z</time>
      </trkpt>
      <trkpt lat="48.48682" lon="-2.71355">
        <ele>82</ele>
        <time>2013-11-22T08:10:25Z</time>
      </trkpt>
      <trkpt lat="48.48682" lon="-2.71353">
        <ele>82</ele>
        <time>2013-11-22T08:10:26Z</time>
      </trkpt>
      <trkpt lat="48.48682" lon="-2.71351">
        <ele>82</ele>
        <time>2013-11-22T08:10:27Z</time>
      </trkpt>
      <trkpt lat="48.48684" lon="-2.71349">
        <ele>82</ele>
        <time>2013-11-22T08:10:28Z</time>
      </trkpt>
      <trkpt lat="48.48684" lon="-2.71347">
        <ele>82</ele>
        <time>2013-11-22T08:10:29Z</time>
      </trkpt>
      <trkpt lat="48.48684" lon="-2.71345">
        <ele>82</ele>
        <time>2013-11-22T08:10:30Z</time>
      </trkpt>
      <trkpt lat="48.48685" lon="-2.71343">
        <ele>82</ele>
        <time>2013-11-22T08:10:31Z</time>
      </trkpt>
      <trkpt lat="48.48686" lon="-2.71341">
        <ele>82</ele>
        <time>2013-11-22T08:10:32Z</time>
      </trkpt>
      <trkpt lat="48.48688" lon="-2.71338">
        <ele>82</ele>
        <time>2013-11-22T08:10:34Z</time>
      </trkpt>
      <trkpt lat="48.48689" lon="-2.71336">
        <ele>82</ele>
        <time>2013-11-22T08:10:35Z</time>
      </trkpt>
      <trkpt lat="48.4869" lon="-2.71334">
        <ele>82</ele>
        <time>2013-11-22T08:10:36Z</time>
      </trkpt>
      <trkpt lat="48.4869" lon="-2.71332">
        <ele>82</ele>
        <time>2013-11-22T08:10:37Z</time>
      </trkpt>
      <trkpt lat="48.48691" lon="-2.7133">
        <ele>82</ele>
        <time>2013-11-22T08:10:38Z</time>
      </trkpt>
      <trkpt lat="48.48692" lon="-2.71328">
        <ele>82</ele>
        <time>2013-11-22T08:10:39Z</time>
      </trkpt>
      <trkpt lat="48.48692" lon="-2.71326">
        <ele>82</ele>
        <time>2013-11-22T08:10:40Z</time>
      </trkpt>
      <trkpt lat="48.48693" lon="-2.71319">
        <ele>82</ele>
        <time>2013-11-22T08:10:43Z</time>
      </trkpt>
      <trkpt lat="48.48693" lon="-2.71317">
        <ele>82</ele>
        <time>2013-11-22T08:10:44Z</time>
      </trkpt>
      <trkpt lat="48.48694" lon="-2.71315">
        <ele>82</ele>
        <time>2013-11-22T08:10:45Z</time>
      </trkpt>
      <trkpt lat="48.48695" lon="-2.71313">
        <ele>82</ele>
        <time>2013-11-22T08:10:46Z</time>
      </trkpt>
      <trkpt lat="48.48695" lon="-2.71309">
        <ele>82</ele>
        <time>2013-11-22T08:10:48Z</time>
      </trkpt>
      <trkpt lat="48.48696" lon="-2.71306">
        <ele>82</ele>
        <time>2013-11-22T08:10:49Z</time>
      </trkpt>
      <trkpt lat="48.48697" lon="-2.71304">
        <ele>82</ele>
        <time>2013-11-22T08:10:50Z</time>
      </trkpt>
      <trkpt lat="48.48697" lon="-2.71302">
        <ele>82</ele>
        <time>2013-11-22T08:10:51Z</time>
      </trkpt>
      <trkpt lat="48.48698" lon="-2.713">
        <ele>82</ele>
        <time>2013-11-22T08:10:52Z</time>
      </trkpt>
      <trkpt lat="48.48698" lon="-2.71296">
        <ele>82</ele>
        <time>2013-11-22T08:10:54Z</time>
      </trkpt>
      <trkpt lat="48.48699" lon="-2.71294">
        <ele>82</ele>
        <time>2013-11-22T08:10:55Z</time>
      </trkpt>
      <trkpt lat="48.48699" lon="-2.71292">
        <ele>82</ele>
        <time>2013-11-22T08:10:56Z</time>
      </trkpt>
      <trkpt lat="48.487" lon="-2.7129">
        <ele>82</ele>
        <time>2013-11-22T08:10:57Z</time>
      </trkpt>
      <trkpt lat="48.487" lon="-2.71288">
        <ele>82</ele>
        <time>2013-11-22T08:10:58Z</time>
      </trkpt>
      <trkpt lat="48.48701" lon="-2.71284">
        <ele>83</ele>
        <time>2013-11-22T08:11:00Z</time>
      </trkpt>
      <trkpt lat="48.48701" lon="-2.71283">
        <ele>84</ele>
        <time>2013-11-22T08:11:01Z</time>
      </trkpt>
      <trkpt lat="48.48702" lon="-2.71281">
        <ele>85</ele>
        <time>2013-11-22T08:11:02Z</time>
      </trkpt>
      <trkpt lat="48.48702" lon="-2.71279">
        <ele>85</ele>
        <time>2013-11-22T08:11:03Z</time>
      </trkpt>
      <trkpt lat="48.48703" lon="-2.71275">
        <ele>86</ele>
        <time>2013-11-22T08:11:05Z</time>
      </trkpt>
      <trkpt lat="48.48704" lon="-2.71273">
        <ele>86</ele>
        <time>2013-11-22T08:11:06Z</time>
      </trkpt>
      <trkpt lat="48.48705" lon="-2.71271">
        <ele>86</ele>
        <time>2013-11-22T08:11:07Z</time>
      </trkpt>
      <trkpt lat="48.48705" lon="-2.71269">
        <ele>87</ele>
        <time>2013-11-22T08:11:08Z</time>
      </trkpt>
      <trkpt lat="48.48706" lon="-2.71267">
        <ele>87</ele>
        <time>2013-11-22T08:11:09Z</time>
      </trkpt>
      <trkpt lat="48.48707" lon="-2.71265">
        <ele>87</ele>
        <time>2013-11-22T08:11:10Z</time>
      </trkpt>
      <trkpt lat="48.48708" lon="-2.71263">
        <ele>87</ele>
        <time>2013-11-22T08:11:11Z</time>
      </trkpt>
      <trkpt lat="48.48708" lon="-2.71262">
        <ele>87</ele>
        <time>2013-11-22T08:11:12Z</time>
      </trkpt>
      <trkpt lat="48.4871" lon="-2.71258">
        <ele>87</ele>
        <time>2013-11-22T08:11:14Z</time>
      </trkpt>
      <trkpt lat="48.48711" lon="-2.71256">
        <ele>87</ele>
        <time>2013-11-22T08:11:15Z</time>
      </trkpt>
      <trkpt lat="48.48711" lon="-2.71254">
        <ele>87</ele>
        <time>2013-11-22T08:11:16Z</time>
      </trkpt>
      <trkpt lat="48.48712" lon="-2.71253">
        <ele>87</ele>
        <time>2013-11-22T08:11:17Z</time>
      </trkpt>
      <trkpt lat="48.48713" lon="-2.71251">
        <ele>87</ele>
        <time>2013-11-22T08:11:18Z</time>
      </trkpt>
      <trkpt lat="48.48714" lon="-2.71249">
        <ele>87</ele>
        <time>2013-11-22T08:11:19Z</time>
      </trkpt>
      <trkpt lat="48.48715" lon="-2.71246">
        <ele>87</ele>
        <time>2013-11-22T08:11:21Z</time>
      </trkpt>
      <trkpt lat="48.48716" lon="-2.71243">
        <ele>87</ele>
        <time>2013-11-22T08:11:22Z</time>
      </trkpt>
      <trkpt lat="48.48716" lon="-2.71241">
        <ele>87</ele>
        <time>2013-11-22T08:11:23Z</time>
      </trkpt>
      <trkpt lat="48.48717" lon="-2.71239">
        <ele>88</ele>
        <time>2013-11-22T08:11:24Z</time>
      </trkpt>
      <trkpt lat="48.48717" lon="-2.71237">
        <ele>88</ele>
        <time>2013-11-22T08:11:25Z</time>
      </trkpt>
      <trkpt lat="48.48718" lon="-2.71235">
        <ele>89</ele>
        <time>2013-11-22T08:11:26Z</time>
      </trkpt>
      <trkpt lat="48.48719" lon="-2.71233">
        <ele>89</ele>
        <time>2013-11-22T08:11:27Z</time>
      </trkpt>
      <trkpt lat="48.48719" lon="-2.71231">
        <ele>89</ele>
        <time>2013-11-22T08:11:28Z</time>
      </trkpt>
      <trkpt lat="48.4872" lon="-2.71229">
        <ele>89</ele>
        <time>2013-11-22T08:11:29Z</time>
      </trkpt>
      <trkpt lat="48.48721" lon="-2.71228">
        <ele>90</ele>
        <time>2013-11-22T08:11:30Z</time>
      </trkpt>
      <trkpt lat="48.48721" lon="-2.71226">
        <ele>90</ele>
        <time>2013-11-22T08:11:31Z</time>
      </trkpt>
      <trkpt lat="48.48722" lon="-2.71224">
        <ele>90</ele>
        <time>2013-11-22T08:11:32Z</time>
      </trkpt>
      <trkpt lat="48.48723" lon="-2.71221">
        <ele>90</ele>
        <time>2013-11-22T08:11:33Z</time>
      </trkpt>
      <trkpt lat="48.48723" lon="-2.71219">
        <ele>90</ele>
        <time>2013-11-22T08:11:34Z</time>
      </trkpt>
      <trkpt lat="48.48724" lon="-2.71218">
        <ele>91</ele>
        <time>2013-11-22T08:11:35Z</time>
      </trkpt>
      <trkpt lat="48.48725" lon="-2.71216">
        <ele>91</ele>
        <time>2013-11-22T08:11:36Z</time>
      </trkpt>
      <trkpt lat="48.48725" lon="-2.71214">
        <ele>91</ele>
        <time>2013-11-22T08:11:37Z</time>
      </trkpt>
      <trkpt lat="48.48726" lon="-2.71212">
        <ele>91</ele>
        <time>2013-11-22T08:11:38Z</time>
      </trkpt>
      <trkpt lat="48.48727" lon="-2.7121">
        <ele>91</ele>
        <time>2013-11-22T08:11:39Z</time>
      </trkpt>
      <trkpt lat="48.48727" lon="-2.71208">
        <ele>91</ele>
        <time>2013-11-22T08:11:40Z</time>
      </trkpt>
      <trkpt lat="48.48728" lon="-2.71206">
        <ele>91</ele>
        <time>2013-11-22T08:11:41Z</time>
      </trkpt>
      <trkpt lat="48.48729" lon="-2.71204">
        <ele>91</ele>
        <time>2013-11-22T08:11:42Z</time>
      </trkpt>
      <trkpt lat="48.48729" lon="-2.71202">
        <ele>91</ele>
        <time>2013-11-22T08:11:43Z</time>
      </trkpt>
      <trkpt lat="48.4873" lon="-2.712">
        <ele>91</ele>
        <time>2013-11-22T08:11:44Z</time>
      </trkpt>
      <trkpt lat="48.4873" lon="-2.71199">
        <ele>91</ele>
        <time>2013-11-22T08:11:45Z</time>
      </trkpt>
      <trkpt lat="48.4873" lon="-2.71197">
        <ele>92</ele>
        <time>2013-11-22T08:11:46Z</time>
      </trkpt>
      <trkpt lat="48.4873" lon="-2.71195">
        <ele>93</ele>
        <time>2013-11-22T08:11:47Z</time>
      </trkpt>
      <trkpt lat="48.4873" lon="-2.71187">
        <ele>97</ele>
        <time>2013-11-22T08:11:51Z</time>
      </trkpt>
      <trkpt lat="48.48731" lon="-2.71185">
        <ele>98</ele>
        <time>2013-11-22T08:11:52Z</time>
      </trkpt>
      <trkpt lat="48.48732" lon="-2.71183">
        <ele>98</ele>
        <time>2013-11-22T08:11:53Z</time>
      </trkpt>
      <trkpt lat="48.48732" lon="-2.71181">
        <ele>99</ele>
        <time>2013-11-22T08:11:54Z</time>
      </trkpt>
      <trkpt lat="48.48733" lon="-2.71179">
        <ele>99</ele>
        <time>2013-11-22T08:11:55Z</time>
      </trkpt>
      <trkpt lat="48.48733" lon="-2.71177">
        <ele>99</ele>
        <time>2013-11-22T08:11:56Z</time>
      </trkpt>
      <trkpt lat="48.48734" lon="-2.71175">
        <ele>99</ele>
        <time>2013-11-22T08:11:57Z</time>
      </trkpt>
      <trkpt lat="48.48735" lon="-2.71173">
        <ele>99</ele>
        <time>2013-11-22T08:11:58Z</time>
      </trkpt>
      <trkpt lat="48.48735" lon="-2.71171">
        <ele>99</ele>
        <time>2013-11-22T08:11:59Z</time>
      </trkpt>
      <trkpt lat="48.48736" lon="-2.71168">
        <ele>99</ele>
        <time>2013-11-22T08:12:00Z</time>
      </trkpt>
      <trkpt lat="48.48736" lon="-2.71166">
        <ele>99</ele>
        <time>2013-11-22T08:12:01Z</time>
      </trkpt>
      <trkpt lat="48.48737" lon="-2.71164">
        <ele>99</ele>
        <time>2013-11-22T08:12:02Z</time>
      </trkpt>
      <trkpt lat="48.48737" lon="-2.71162">
        <ele>99</ele>
        <time>2013-11-22T08:12:03Z</time>
      </trkpt>
      <trkpt lat="48.48738" lon="-2.7116">
        <ele>99</ele>
        <time>2013-11-22T08:12:04Z</time>
      </trkpt>
      <trkpt lat="48.48739" lon="-2.71159">
        <ele>99</ele>
        <time>2013-11-22T08:12:05Z</time>
      </trkpt>
      <trkpt lat="48.4874" lon="-2.71156">
        <ele>99</ele>
        <time>2013-11-22T08:12:06Z</time>
      </trkpt>
      <trkpt lat="48.48741" lon="-2.71155">
        <ele>99</ele>
        <time>2013-11-22T08:12:07Z</time>
      </trkpt>
      <trkpt lat="48.48742" lon="-2.71153">
        <ele>99</ele>
        <time>2013-11-22T08:12:08Z</time>
      </trkpt>
      <trkpt lat="48.48743" lon="-2.71151">
        <ele>99</ele>
        <time>2013-11-22T08:12:09Z</time>
      </trkpt>
      <trkpt lat="48.48744" lon="-2.71149">
        <ele>99</ele>
        <time>2013-11-22T08:12:10Z</time>
      </trkpt>
      <trkpt lat="48.48745" lon="-2.71148">
        <ele>99</ele>
        <time>2013-11-22T08:12:11Z</time>
      </trkpt>
      <trkpt lat="48.48746" lon="-2.71146">
        <ele>99</ele>
        <time>2013-11-22T08:12:12Z</time>
      </trkpt>
      <trkpt lat="48.48746" lon="-2.71144">
        <ele>99</ele>
        <time>2013-11-22T08:12:13Z</time>
      </trkpt>
      <trkpt lat="48.48747" lon="-2.71142">
        <ele>99</ele>
        <time>2013-11-22T08:12:14Z</time>
      </trkpt>
      <trkpt lat="48.48748" lon="-2.71141">
        <ele>99</ele>
        <time>2013-11-22T08:12:15Z</time>
      </trkpt>
      <trkpt lat="48.48748" lon="-2.71139">
        <ele>99</ele>
        <time>2013-11-22T08:12:16Z</time>
      </trkpt>
      <trkpt lat="48.48749" lon="-2.71137">
        <ele>99</ele>
        <time>2013-11-22T08:12:17Z</time>
      </trkpt>
      <trkpt lat="48.4875" lon="-2.71135">
        <ele>99</ele>
        <time>2013-11-22T08:12:18Z</time>
      </trkpt>
      <trkpt lat="48.48751" lon="-2.71133">
        <ele>99</ele>
        <time>2013-11-22T08:12:19Z</time>
      </trkpt>
      <trkpt lat="48.48751" lon="-2.71131">
        <ele>99</ele>
        <time>2013-11-22T08:12:20Z</time>
      </trkpt>
      <trkpt lat="48.48752" lon="-2.71129">
        <ele>99</ele>
        <time>2013-11-22T08:12:21Z</time>
      </trkpt>
      <trkpt lat="48.48753" lon="-2.71128">
        <ele>99</ele>
        <time>2013-11-22T08:12:22Z</time>
      </trkpt>
      <trkpt lat="48.48753" lon="-2.71126">
        <ele>99</ele>
        <time>2013-11-22T08:12:23Z</time>
      </trkpt>
      <trkpt lat="48.48754" lon="-2.71123">
        <ele>99</ele>
        <time>2013-11-22T08:12:24Z</time>
      </trkpt>
      <trkpt lat="48.48755" lon="-2.71121">
        <ele>99</ele>
        <time>2013-11-22T08:12:25Z</time>
      </trkpt>
      <trkpt lat="48.48755" lon="-2.71119">
        <ele>99</ele>
        <time>2013-11-22T08:12:26Z</time>
      </trkpt>
      <trkpt lat="48.48756" lon="-2.71117">
        <ele>99</ele>
        <time>2013-11-22T08:12:27Z</time>
      </trkpt>
      <trkpt lat="48.48756" lon="-2.71115">
        <ele>99</ele>
        <time>2013-11-22T08:12:28Z</time>
      </trkpt>
      <trkpt lat="48.48757" lon="-2.71113">
        <ele>99</ele>
        <time>2013-11-22T08:12:29Z</time>
      </trkpt>
      <trkpt lat="48.48757" lon="-2.71111">
        <ele>99</ele>
        <time>2013-11-22T08:12:30Z</time>
      </trkpt>
      <trkpt lat="48.48758" lon="-2.71109">
        <ele>99</ele>
        <time>2013-11-22T08:12:31Z</time>
      </trkpt>
      <trkpt lat="48.48758" lon="-2.71107">
        <ele>99</ele>
        <time>2013-11-22T08:12:32Z</time>
      </trkpt>
      <trkpt lat="48.48759" lon="-2.71105">
        <ele>99</ele>
        <time>2013-11-22T08:12:33Z</time>
      </trkpt>
      <trkpt lat="48.48759" lon="-2.71103">
        <ele>99</ele>
        <time>2013-11-22T08:12:34Z</time>
      </trkpt>
      <trkpt lat="48.4876" lon="-2.711">
        <ele>99</ele>
        <time>2013-11-22T08:12:35Z</time>
      </trkpt>
      <trkpt lat="48.48761" lon="-2.71098">
        <ele>99</ele>
        <time>2013-11-22T08:12:36Z</time>
      </trkpt>
      <trkpt lat="48.48761" lon="-2.71096">
        <ele>99</ele>
        <time>2013-11-22T08:12:37Z</time>
      </trkpt>
      <trkpt lat="48.48762" lon="-2.71094">
        <ele>99</ele>
        <time>2013-11-22T08:12:38Z</time>
      </trkpt>
      <trkpt lat="48.48762" lon="-2.71092">
        <ele>99</ele>
        <time>2013-11-22T08:12:39Z</time>
      </trkpt>
      <trkpt lat="48.48763" lon="-2.7109">
        <ele>99</ele>
        <time>2013-11-22T08:12:40Z</time>
      </trkpt>
      <trkpt lat="48.48764" lon="-2.71088">
        <ele>99</ele>
        <time>2013-11-22T08:12:41Z</time>
      </trkpt>
      <trkpt lat="48.48764" lon="-2.71086">
        <ele>99</ele>
        <time>2013-11-22T08:12:42Z</time>
      </trkpt>
      <trkpt lat="48.48765" lon="-2.71084">
        <ele>99</ele>
        <time>2013-11-22T08:12:43Z</time>
      </trkpt>
      <trkpt lat="48.48765" lon="-2.71082">
        <ele>99</ele>
        <time>2013-11-22T08:12:44Z</time>
      </trkpt>
      <trkpt lat="48.48766" lon="-2.7108">
        <ele>99</ele>
        <time>2013-11-22T08:12:45Z</time>
      </trkpt>
      <trkpt lat="48.48766" lon="-2.71078">
        <ele>99</ele>
        <time>2013-11-22T08:12:46Z</time>
      </trkpt>
      <trkpt lat="48.48767" lon="-2.71076">
        <ele>99</ele>
        <time>2013-11-22T08:12:47Z</time>
      </trkpt>
      <trkpt lat="48.48767" lon="-2.71074">
        <ele>99</ele>
        <time>2013-11-22T08:12:48Z</time>
      </trkpt>
      <trkpt lat="48.48767" lon="-2.71072">
        <ele>99</ele>
        <time>2013-11-22T08:12:49Z</time>
      </trkpt>
      <trkpt lat="48.48768" lon="-2.7107">
        <ele>99</ele>
        <time>2013-11-22T08:12:50Z</time>
      </trkpt>
      <trkpt lat="48.48769" lon="-2.71068">
        <ele>99</ele>
        <time>2013-11-22T08:12:51Z</time>
      </trkpt>
      <trkpt lat="48.48769" lon="-2.71065">
        <ele>99</ele>
        <time>2013-11-22T08:12:52Z</time>
      </trkpt>
      <trkpt lat="48.48769" lon="-2.71063">
        <ele>99</ele>
        <time>2013-11-22T08:12:53Z</time>
      </trkpt>
      <trkpt lat="48.4877" lon="-2.71061">
        <ele>99</ele>
        <time>2013-11-22T08:12:54Z</time>
      </trkpt>
      <trkpt lat="48.4877" lon="-2.71057">
        <ele>99</ele>
        <time>2013-11-22T08:12:56Z</time>
      </trkpt>
      <trkpt lat="48.48771" lon="-2.71055">
        <ele>99</ele>
        <time>2013-11-22T08:12:57Z</time>
      </trkpt>
      <trkpt lat="48.48771" lon="-2.71053">
        <ele>99</ele>
        <time>2013-11-22T08:12:58Z</time>
      </trkpt>
      <trkpt lat="48.48771" lon="-2.71051">
        <ele>99</ele>
        <time>2013-11-22T08:12:59Z</time>
      </trkpt>
      <trkpt lat="48.48772" lon="-2.71049">
        <ele>99</ele>
        <time>2013-11-22T08:13:00Z</time>
      </trkpt>
      <trkpt lat="48.48772" lon="-2.71047">
        <ele>99</ele>
        <time>2013-11-22T08:13:01Z</time>
      </trkpt>
      <trkpt lat="48.48772" lon="-2.71045">
        <ele>99</ele>
        <time>2013-11-22T08:13:02Z</time>
      </trkpt>
      <trkpt lat="48.48773" lon="-2.71042">
        <ele>99</ele>
        <time>2013-11-22T08:13:03Z</time>
      </trkpt>
      <trkpt lat="48.48773" lon="-2.7104">
        <ele>99</ele>
        <time>2013-11-22T08:13:04Z</time>
      </trkpt>
      <trkpt lat="48.48774" lon="-2.71038">
        <ele>99</ele>
        <time>2013-11-22T08:13:05Z</time>
      </trkpt>
      <trkpt lat="48.48774" lon="-2.71036">
        <ele>99</ele>
        <time>2013-11-22T08:13:06Z</time>
      </trkpt>
      <trkpt lat="48.48774" lon="-2.71034">
        <ele>98</ele>
        <time>2013-11-22T08:13:07Z</time>
      </trkpt>
      <trkpt lat="48.48775" lon="-2.71032">
        <ele>98</ele>
        <time>2013-11-22T08:13:08Z</time>
      </trkpt>
      <trkpt lat="48.48775" lon="-2.71029">
        <ele>98</ele>
        <time>2013-11-22T08:13:09Z</time>
      </trkpt>
      <trkpt lat="48.48776" lon="-2.71027">
        <ele>97</ele>
        <time>2013-11-22T08:13:10Z</time>
      </trkpt>
      <trkpt lat="48.48776" lon="-2.71023">
        <ele>97</ele>
        <time>2013-11-22T08:13:12Z</time>
      </trkpt>
      <trkpt lat="48.48777" lon="-2.71021">
        <ele>96</ele>
        <time>2013-11-22T08:13:13Z</time>
      </trkpt>
      <trkpt lat="48.48777" lon="-2.71019">
        <ele>96</ele>
        <time>2013-11-22T08:13:14Z</time>
      </trkpt>
      <trkpt lat="48.48778" lon="-2.71015">
        <ele>96</ele>
        <time>2013-11-22T08:13:16Z</time>
      </trkpt>
      <trkpt lat="48.48778" lon="-2.71013">
        <ele>96</ele>
        <time>2013-11-22T08:13:17Z</time>
      </trkpt>
      <trkpt lat="48.48779" lon="-2.71011">
        <ele>95</ele>
        <time>2013-11-22T08:13:18Z</time>
      </trkpt>
      <trkpt lat="48.48779" lon="-2.71008">
        <ele>95</ele>
        <time>2013-11-22T08:13:19Z</time>
      </trkpt>
      <trkpt lat="48.48779" lon="-2.71006">
        <ele>95</ele>
        <time>2013-11-22T08:13:20Z</time>
      </trkpt>
      <trkpt lat="48.4878" lon="-2.71005">
        <ele>95</ele>
        <time>2013-11-22T08:13:21Z</time>
      </trkpt>
      <trkpt lat="48.4878" lon="-2.71001">
        <ele>94</ele>
        <time>2013-11-22T08:13:23Z</time>
      </trkpt>
      <trkpt lat="48.4878" lon="-2.70997">
        <ele>94</ele>
        <time>2013-11-22T08:13:25Z</time>
      </trkpt>
      <trkpt lat="48.48781" lon="-2.70992">
        <ele>94</ele>
        <time>2013-11-22T08:13:27Z</time>
      </trkpt>
      <trkpt lat="48.48781" lon="-2.70986">
        <ele>94</ele>
        <time>2013-11-22T08:13:30Z</time>
      </trkpt>
      <trkpt lat="48.48782" lon="-2.70982">
        <ele>94</ele>
        <time>2013-11-22T08:13:32Z</time>
      </trkpt>
      <trkpt lat="48.48782" lon="-2.7098">
        <ele>94</ele>
        <time>2013-11-22T08:13:33Z</time>
      </trkpt>
      <trkpt lat="48.48782" lon="-2.70978">
        <ele>94</ele>
        <time>2013-11-22T08:13:34Z</time>
      </trkpt>
      <trkpt lat="48.48783" lon="-2.70973">
        <ele>94</ele>
        <time>2013-11-22T08:13:36Z</time>
      </trkpt>
      <trkpt lat="48.48783" lon="-2.70971">
        <ele>94</ele>
        <time>2013-11-22T08:13:37Z</time>
      </trkpt>
      <trkpt lat="48.48784" lon="-2.70967">
        <ele>94</ele>
        <time>2013-11-22T08:13:39Z</time>
      </trkpt>
      <trkpt lat="48.48784" lon="-2.70965">
        <ele>94</ele>
        <time>2013-11-22T08:13:40Z</time>
      </trkpt>
      <trkpt lat="48.48785" lon="-2.70963">
        <ele>94</ele>
        <time>2013-11-22T08:13:41Z</time>
      </trkpt>
      <trkpt lat="48.48785" lon="-2.7096">
        <ele>94</ele>
        <time>2013-11-22T08:13:42Z</time>
      </trkpt>
      <trkpt lat="48.48786" lon="-2.70958">
        <ele>94</ele>
        <time>2013-11-22T08:13:43Z</time>
      </trkpt>
      <trkpt lat="48.48786" lon="-2.70956">
        <ele>93</ele>
        <time>2013-11-22T08:13:44Z</time>
      </trkpt>
      <trkpt lat="48.48787" lon="-2.70952">
        <ele>93</ele>
        <time>2013-11-22T08:13:46Z</time>
      </trkpt>
      <trkpt lat="48.48786" lon="-2.70935">
        <ele>92</ele>
        <time>2013-11-22T08:13:54Z</time>
      </trkpt>
      <trkpt lat="48.48787" lon="-2.7093">
        <ele>92</ele>
        <time>2013-11-22T08:13:56Z</time>
      </trkpt>
      <trkpt lat="48.48787" lon="-2.70928">
        <ele>92</ele>
        <time>2013-11-22T08:13:57Z</time>
      </trkpt>
      <trkpt lat="48.48788" lon="-2.70924">
        <ele>92</ele>
        <time>2013-11-22T08:13:59Z</time>
      </trkpt>
      <trkpt lat="48.48788" lon="-2.70917">
        <ele>92</ele>
        <time>2013-11-22T08:14:02Z</time>
      </trkpt>
      <trkpt lat="48.48788" lon="-2.70914">
        <ele>92</ele>
        <time>2013-11-22T08:14:03Z</time>
      </trkpt>
      <trkpt lat="48.48789" lon="-2.7091">
        <ele>92</ele>
        <time>2013-11-22T08:14:05Z</time>
      </trkpt>
      <trkpt lat="48.4879" lon="-2.70906">
        <ele>91</ele>
        <time>2013-11-22T08:14:07Z</time>
      </trkpt>
      <trkpt lat="48.4879" lon="-2.70904">
        <ele>91</ele>
        <time>2013-11-22T08:14:08Z</time>
      </trkpt>
      <trkpt lat="48.48791" lon="-2.70901">
        <ele>91</ele>
        <time>2013-11-22T08:14:10Z</time>
      </trkpt>
      <trkpt lat="48.48792" lon="-2.70896">
        <ele>91</ele>
        <time>2013-11-22T08:14:12Z</time>
      </trkpt>
      <trkpt lat="48.48792" lon="-2.70892">
        <ele>91</ele>
        <time>2013-11-22T08:14:14Z</time>
      </trkpt>
      <trkpt lat="48.48792" lon="-2.7089">
        <ele>91</ele>
        <time>2013-11-22T08:14:15Z</time>
      </trkpt>
      <trkpt lat="48.48793" lon="-2.70887">
        <ele>91</ele>
        <time>2013-11-22T08:14:16Z</time>
      </trkpt>
      <trkpt lat="48.48793" lon="-2.70883">
        <ele>90</ele>
        <time>2013-11-22T08:14:18Z</time>
      </trkpt>
      <trkpt lat="48.48794" lon="-2.70879">
        <ele>90</ele>
        <time>2013-11-22T08:14:20Z</time>
      </trkpt>
      <trkpt lat="48.48794" lon="-2.70877">
        <ele>90</ele>
        <time>2013-11-22T08:14:21Z</time>
      </trkpt>
      <trkpt lat="48.48795" lon="-2.70875">
        <ele>90</ele>
        <time>2013-11-22T08:14:22Z</time>
      </trkpt>
      <trkpt lat="48.48796" lon="-2.70874">
        <ele>90</ele>
        <time>2013-11-22T08:14:23Z</time>
      </trkpt>
      <trkpt lat="48.48796" lon="-2.70872">
        <ele>90</ele>
        <time>2013-11-22T08:14:24Z</time>
      </trkpt>
      <trkpt lat="48.48797" lon="-2.7087">
        <ele>90</ele>
        <time>2013-11-22T08:14:25Z</time>
      </trkpt>
      <trkpt lat="48.48798" lon="-2.70868">
        <ele>90</ele>
        <time>2013-11-22T08:14:26Z</time>
      </trkpt>
      <trkpt lat="48.48798" lon="-2.70866">
        <ele>90</ele>
        <time>2013-11-22T08:14:27Z</time>
      </trkpt>
      <trkpt lat="48.48799" lon="-2.70862">
        <ele>90</ele>
        <time>2013-11-22T08:14:29Z</time>
      </trkpt>
      <trkpt lat="48.48799" lon="-2.7086">
        <ele>90</ele>
        <time>2013-11-22T08:14:30Z</time>
      </trkpt>
      <trkpt lat="48.488" lon="-2.70855">
        <ele>90</ele>
        <time>2013-11-22T08:14:32Z</time>
      </trkpt>
      <trkpt lat="48.488" lon="-2.70851">
        <ele>89</ele>
        <time>2013-11-22T08:14:34Z</time>
      </trkpt>
      <trkpt lat="48.488" lon="-2.70847">
        <ele>89</ele>
        <time>2013-11-22T08:14:36Z</time>
      </trkpt>
      <trkpt lat="48.48801" lon="-2.70841">
        <ele>89</ele>
        <time>2013-11-22T08:14:39Z</time>
      </trkpt>
      <trkpt lat="48.488" lon="-2.70839">
        <ele>89</ele>
        <time>2013-11-22T08:14:40Z</time>
      </trkpt>
      <trkpt lat="48.488" lon="-2.70813">
        <ele>89</ele>
        <time>2013-11-22T08:14:52Z</time>
      </trkpt>
      <trkpt lat="48.488" lon="-2.70808">
        <ele>89</ele>
        <time>2013-11-22T08:14:54Z</time>
      </trkpt>
      <trkpt lat="48.48799" lon="-2.70806">
        <ele>89</ele>
        <time>2013-11-22T08:14:55Z</time>
      </trkpt>
      <trkpt lat="48.48798" lon="-2.70804">
        <ele>89</ele>
        <time>2013-11-22T08:14:56Z</time>
      </trkpt>
      <trkpt lat="48.48798" lon="-2.70798">
        <ele>89</ele>
        <time>2013-11-22T08:14:59Z</time>
      </trkpt>
      <trkpt lat="48.48797" lon="-2.70796">
        <ele>89</ele>
        <time>2013-11-22T08:15:00Z</time>
      </trkpt>
      <trkpt lat="48.48797" lon="-2.70794">
        <ele>89</ele>
        <time>2013-11-22T08:15:01Z</time>
      </trkpt>
      <trkpt lat="48.48796" lon="-2.7079">
        <ele>89</ele>
        <time>2013-11-22T08:15:03Z</time>
      </trkpt>
      <trkpt lat="48.48796" lon="-2.70785">
        <ele>89</ele>
        <time>2013-11-22T08:15:05Z</time>
      </trkpt>
      <trkpt lat="48.48796" lon="-2.70783">
        <ele>89</ele>
        <time>2013-11-22T08:15:06Z</time>
      </trkpt>
      <trkpt lat="48.48795" lon="-2.70778">
        <ele>89</ele>
        <time>2013-11-22T08:15:08Z</time>
      </trkpt>
      <trkpt lat="48.48795" lon="-2.70771">
        <ele>89</ele>
        <time>2013-11-22T08:15:11Z</time>
      </trkpt>
      <trkpt lat="48.48795" lon="-2.70769">
        <ele>89</ele>
        <time>2013-11-22T08:15:12Z</time>
      </trkpt>
      <trkpt lat="48.48794" lon="-2.70767">
        <ele>89</ele>
        <time>2013-11-22T08:15:13Z</time>
      </trkpt>
      <trkpt lat="48.48793" lon="-2.70762">
        <ele>89</ele>
        <time>2013-11-22T08:15:15Z</time>
      </trkpt>
      <trkpt lat="48.48793" lon="-2.7076">
        <ele>89</ele>
        <time>2013-11-22T08:15:16Z</time>
      </trkpt>
      <trkpt lat="48.48793" lon="-2.70758">
        <ele>89</ele>
        <time>2013-11-22T08:15:17Z</time>
      </trkpt>
      <trkpt lat="48.48792" lon="-2.70756">
        <ele>89</ele>
        <time>2013-11-22T08:15:18Z</time>
      </trkpt>
      <trkpt lat="48.48792" lon="-2.70754">
        <ele>89</ele>
        <time>2013-11-22T08:15:19Z</time>
      </trkpt>
      <trkpt lat="48.48792" lon="-2.70752">
        <ele>89</ele>
        <time>2013-11-22T08:15:20Z</time>
      </trkpt>
      <trkpt lat="48.48791" lon="-2.70749">
        <ele>89</ele>
        <time>2013-11-22T08:15:21Z</time>
      </trkpt>
      <trkpt lat="48.48791" lon="-2.70747">
        <ele>89</ele>
        <time>2013-11-22T08:15:22Z</time>
      </trkpt>
      <trkpt lat="48.4879" lon="-2.70745">
        <ele>89</ele>
        <time>2013-11-22T08:15:23Z</time>
      </trkpt>
      <trkpt lat="48.4879" lon="-2.7074">
        <ele>89</ele>
        <time>2013-11-22T08:15:25Z</time>
      </trkpt>
      <trkpt lat="48.4879" lon="-2.70738">
        <ele>89</ele>
        <time>2013-11-22T08:15:26Z</time>
      </trkpt>
      <trkpt lat="48.48789" lon="-2.70736">
        <ele>89</ele>
        <time>2013-11-22T08:15:27Z</time>
      </trkpt>
      <trkpt lat="48.48789" lon="-2.70734">
        <ele>89</ele>
        <time>2013-11-22T08:15:28Z</time>
      </trkpt>
      <trkpt lat="48.48788" lon="-2.7073">
        <ele>89</ele>
        <time>2013-11-22T08:15:30Z</time>
      </trkpt>
      <trkpt lat="48.48788" lon="-2.70728">
        <ele>89</ele>
        <time>2013-11-22T08:15:31Z</time>
      </trkpt>
      <trkpt lat="48.48788" lon="-2.70726">
        <ele>89</ele>
        <time>2013-11-22T08:15:32Z</time>
      </trkpt>
      <trkpt lat="48.48787" lon="-2.70724">
        <ele>89</ele>
        <time>2013-11-22T08:15:33Z</time>
      </trkpt>
      <trkpt lat="48.48787" lon="-2.70719">
        <ele>89</ele>
        <time>2013-11-22T08:15:35Z</time>
      </trkpt>
      <trkpt lat="48.48787" lon="-2.70712">
        <ele>89</ele>
        <time>2013-11-22T08:15:38Z</time>
      </trkpt>
      <trkpt lat="48.48787" lon="-2.70702">
        <ele>89</ele>
        <time>2013-11-22T08:15:42Z</time>
      </trkpt>
      <trkpt lat="48.48787" lon="-2.707">
        <ele>89</ele>
        <time>2013-11-22T08:15:43Z</time>
      </trkpt>
      <trkpt lat="48.48787" lon="-2.70693">
        <ele>89</ele>
        <time>2013-11-22T08:15:46Z</time>
      </trkpt>
      <trkpt lat="48.48787" lon="-2.70687">
        <ele>89</ele>
        <time>2013-11-22T08:15:49Z</time>
      </trkpt>
      <trkpt lat="48.48788" lon="-2.70685">
        <ele>89</ele>
        <time>2013-11-22T08:15:50Z</time>
      </trkpt>
      <trkpt lat="48.48787" lon="-2.70678">
        <ele>89</ele>
        <time>2013-11-22T08:15:53Z</time>
      </trkpt>
      <trkpt lat="48.48787" lon="-2.70676">
        <ele>89</ele>
        <time>2013-11-22T08:15:54Z</time>
      </trkpt>
      <trkpt lat="48.48786" lon="-2.70674">
        <ele>89</ele>
        <time>2013-11-22T08:15:55Z</time>
      </trkpt>
      <trkpt lat="48.48787" lon="-2.70672">
        <ele>89</ele>
        <time>2013-11-22T08:15:56Z</time>
      </trkpt>
      <trkpt lat="48.48787" lon="-2.70666">
        <ele>89</ele>
        <time>2013-11-22T08:15:59Z</time>
      </trkpt>
      <trkpt lat="48.48787" lon="-2.70663">
        <ele>89</ele>
        <time>2013-11-22T08:16:00Z</time>
      </trkpt>
      <trkpt lat="48.48788" lon="-2.70661">
        <ele>89</ele>
        <time>2013-11-22T08:16:01Z</time>
      </trkpt>
      <trkpt lat="48.48788" lon="-2.70655">
        <ele>89</ele>
        <time>2013-11-22T08:16:04Z</time>
      </trkpt>
      <trkpt lat="48.48788" lon="-2.70653">
        <ele>89</ele>
        <time>2013-11-22T08:16:05Z</time>
      </trkpt>
      <trkpt lat="48.48789" lon="-2.70649">
        <ele>89</ele>
        <time>2013-11-22T08:16:07Z</time>
      </trkpt>
      <trkpt lat="48.48789" lon="-2.70642">
        <ele>89</ele>
        <time>2013-11-22T08:16:10Z</time>
      </trkpt>
      <trkpt lat="48.4879" lon="-2.70634">
        <ele>89</ele>
        <time>2013-11-22T08:16:14Z</time>
      </trkpt>
      <trkpt lat="48.4879" lon="-2.70632">
        <ele>89</ele>
        <time>2013-11-22T08:16:15Z</time>
      </trkpt>
      <trkpt lat="48.4879" lon="-2.70629">
        <ele>89</ele>
        <time>2013-11-22T08:16:16Z</time>
      </trkpt>
      <trkpt lat="48.48791" lon="-2.70627">
        <ele>89</ele>
        <time>2013-11-22T08:16:17Z</time>
      </trkpt>
      <trkpt lat="48.48791" lon="-2.70625">
        <ele>89</ele>
        <time>2013-11-22T08:16:18Z</time>
      </trkpt>
      <trkpt lat="48.48792" lon="-2.70621">
        <ele>89</ele>
        <time>2013-11-22T08:16:20Z</time>
      </trkpt>
      <trkpt lat="48.48792" lon="-2.70615">
        <ele>88</ele>
        <time>2013-11-22T08:16:23Z</time>
      </trkpt>
      <trkpt lat="48.48793" lon="-2.70613">
        <ele>88</ele>
        <time>2013-11-22T08:16:24Z</time>
      </trkpt>
      <trkpt lat="48.48793" lon="-2.70609">
        <ele>87</ele>
        <time>2013-11-22T08:16:26Z</time>
      </trkpt>
      <trkpt lat="48.48793" lon="-2.70605">
        <ele>86</ele>
        <time>2013-11-22T08:16:28Z</time>
      </trkpt>
      <trkpt lat="48.48794" lon="-2.70603">
        <ele>86</ele>
        <time>2013-11-22T08:16:29Z</time>
      </trkpt>
      <trkpt lat="48.48794" lon="-2.70597">
        <ele>86</ele>
        <time>2013-11-22T08:16:32Z</time>
      </trkpt>
      <trkpt lat="48.48794" lon="-2.7059">
        <ele>86</ele>
        <time>2013-11-22T08:16:35Z</time>
      </trkpt>
      <trkpt lat="48.48794" lon="-2.70588">
        <ele>86</ele>
        <time>2013-11-22T08:16:36Z</time>
      </trkpt>
      <trkpt lat="48.48795" lon="-2.70586">
        <ele>86</ele>
        <time>2013-11-22T08:16:38Z</time>
      </trkpt>
      <trkpt lat="48.48794" lon="-2.70583">
        <ele>86</ele>
        <time>2013-11-22T08:16:40Z</time>
      </trkpt>
      <trkpt lat="48.48795" lon="-2.70582">
        <ele>86</ele>
        <time>2013-11-22T08:16:42Z</time>
      </trkpt>
      <trkpt lat="48.48796" lon="-2.70581">
        <ele>86</ele>
        <time>2013-11-22T08:16:44Z</time>
      </trkpt>
      <trkpt lat="48.48799" lon="-2.70582">
        <ele>86</ele>
        <time>2013-11-22T08:16:46Z</time>
      </trkpt>
      <trkpt lat="48.48801" lon="-2.70582">
        <ele>86</ele>
        <time>2013-11-22T08:16:47Z</time>
      </trkpt>
      <trkpt lat="48.48802" lon="-2.70583">
        <ele>86</ele>
        <time>2013-11-22T08:16:48Z</time>
      </trkpt>
      <trkpt lat="48.48803" lon="-2.70583">
        <ele>86</ele>
        <time>2013-11-22T08:16:49Z</time>
      </trkpt>
      <trkpt lat="48.48804" lon="-2.70584">
        <ele>86</ele>
        <time>2013-11-22T08:16:50Z</time>
      </trkpt>
      <trkpt lat="48.48806" lon="-2.70585">
        <ele>86</ele>
        <time>2013-11-22T08:16:51Z</time>
      </trkpt>
      <trkpt lat="48.48807" lon="-2.70585">
        <ele>86</ele>
        <time>2013-11-22T08:16:52Z</time>
      </trkpt>
      <trkpt lat="48.48809" lon="-2.70586">
        <ele>86</ele>
        <time>2013-11-22T08:16:53Z</time>
      </trkpt>
      <trkpt lat="48.4881" lon="-2.70587">
        <ele>86</ele>
        <time>2013-11-22T08:16:54Z</time>
      </trkpt>
      <trkpt lat="48.48811" lon="-2.70588">
        <ele>86</ele>
        <time>2013-11-22T08:16:55Z</time>
      </trkpt>
      <trkpt lat="48.48813" lon="-2.7059">
        <ele>86</ele>
        <time>2013-11-22T08:16:57Z</time>
      </trkpt>
      <trkpt lat="48.48815" lon="-2.70593">
        <ele>86</ele>
        <time>2013-11-22T08:16:59Z</time>
      </trkpt>
      <trkpt lat="48.48817" lon="-2.70595">
        <ele>86</ele>
        <time>2013-11-22T08:17:01Z</time>
      </trkpt>
      <trkpt lat="48.48818" lon="-2.70597">
        <ele>86</ele>
        <time>2013-11-22T08:17:03Z</time>
      </trkpt>
      <trkpt lat="48.4882" lon="-2.70599">
        <ele>86</ele>
        <time>2013-11-22T08:17:05Z</time>
      </trkpt>
      <trkpt lat="48.48822" lon="-2.70602">
        <ele>86</ele>
        <time>2013-11-22T08:17:07Z</time>
      </trkpt>
      <trkpt lat="48.48824" lon="-2.70604">
        <ele>86</ele>
        <time>2013-11-22T08:17:09Z</time>
      </trkpt>
      <trkpt lat="48.48826" lon="-2.70607">
        <ele>86</ele>
        <time>2013-11-22T08:17:11Z</time>
      </trkpt>
      <trkpt lat="48.48828" lon="-2.70609">
        <ele>86</ele>
        <time>2013-11-22T08:17:13Z</time>
      </trkpt>
      <trkpt lat="48.48829" lon="-2.70611">
        <ele>86</ele>
        <time>2013-11-22T08:17:14Z</time>
      </trkpt>
      <trkpt lat="48.48831" lon="-2.70612">
        <ele>86</ele>
        <time>2013-11-22T08:17:15Z</time>
      </trkpt>
      <trkpt lat="48.48832" lon="-2.70613">
        <ele>86</ele>
        <time>2013-11-22T08:17:16Z</time>
      </trkpt>
      <trkpt lat="48.48834" lon="-2.70616">
        <ele>86</ele>
        <time>2013-11-22T08:17:18Z</time>
      </trkpt>
      <trkpt lat="48.48836" lon="-2.70618">
        <ele>86</ele>
        <time>2013-11-22T08:17:20Z</time>
      </trkpt>
      <trkpt lat="48.48838" lon="-2.7062">
        <ele>86</ele>
        <time>2013-11-22T08:17:22Z</time>
      </trkpt>
      <trkpt lat="48.48839" lon="-2.7062">
        <ele>86</ele>
        <time>2013-11-22T08:17:23Z</time>
      </trkpt>
      <trkpt lat="48.4884" lon="-2.70622">
        <ele>86</ele>
        <time>2013-11-22T08:17:24Z</time>
      </trkpt>
      <trkpt lat="48.48842" lon="-2.70623">
        <ele>86</ele>
        <time>2013-11-22T08:17:25Z</time>
      </trkpt>
      <trkpt lat="48.48843" lon="-2.70624">
        <ele>86</ele>
        <time>2013-11-22T08:17:26Z</time>
      </trkpt>
      <trkpt lat="48.48844" lon="-2.70626">
        <ele>86</ele>
        <time>2013-11-22T08:17:27Z</time>
      </trkpt>
      <trkpt lat="48.48845" lon="-2.70627">
        <ele>86</ele>
        <time>2013-11-22T08:17:28Z</time>
      </trkpt>
      <trkpt lat="48.48847" lon="-2.7063">
        <ele>86</ele>
        <time>2013-11-22T08:17:30Z</time>
      </trkpt>
      <trkpt lat="48.48848" lon="-2.70631">
        <ele>86</ele>
        <time>2013-11-22T08:17:31Z</time>
      </trkpt>
      <trkpt lat="48.4885" lon="-2.70632">
        <ele>86</ele>
        <time>2013-11-22T08:17:32Z</time>
      </trkpt>
      <trkpt lat="48.48851" lon="-2.70634">
        <ele>86</ele>
        <time>2013-11-22T08:17:33Z</time>
      </trkpt>
      <trkpt lat="48.48852" lon="-2.70635">
        <ele>86</ele>
        <time>2013-11-22T08:17:34Z</time>
      </trkpt>
      <trkpt lat="48.48854" lon="-2.70637">
        <ele>87</ele>
        <time>2013-11-22T08:17:36Z</time>
      </trkpt>
      <trkpt lat="48.48856" lon="-2.7064">
        <ele>87</ele>
        <time>2013-11-22T08:17:38Z</time>
      </trkpt>
      <trkpt lat="48.48859" lon="-2.70642">
        <ele>87</ele>
        <time>2013-11-22T08:17:40Z</time>
      </trkpt>
      <trkpt lat="48.4886" lon="-2.70643">
        <ele>87</ele>
        <time>2013-11-22T08:17:41Z</time>
      </trkpt>
      <trkpt lat="48.48861" lon="-2.70645">
        <ele>87</ele>
        <time>2013-11-22T08:17:42Z</time>
      </trkpt>
      <trkpt lat="48.48863" lon="-2.70647">
        <ele>87</ele>
        <time>2013-11-22T08:17:44Z</time>
      </trkpt>
      <trkpt lat="48.48864" lon="-2.70648">
        <ele>87</ele>
        <time>2013-11-22T08:17:45Z</time>
      </trkpt>
      <trkpt lat="48.48867" lon="-2.7065">
        <ele>87</ele>
        <time>2013-11-22T08:17:47Z</time>
      </trkpt>
      <trkpt lat="48.48868" lon="-2.70651">
        <ele>87</ele>
        <time>2013-11-22T08:17:48Z</time>
      </trkpt>
      <trkpt lat="48.48869" lon="-2.70651">
        <ele>87</ele>
        <time>2013-11-22T08:17:49Z</time>
      </trkpt>
      <trkpt lat="48.4887" lon="-2.70652">
        <ele>87</ele>
        <time>2013-11-22T08:17:50Z</time>
      </trkpt>
      <trkpt lat="48.48872" lon="-2.70653">
        <ele>87</ele>
        <time>2013-11-22T08:17:51Z</time>
      </trkpt>
      <trkpt lat="48.48873" lon="-2.70654">
        <ele>87</ele>
        <time>2013-11-22T08:17:52Z</time>
      </trkpt>
      <trkpt lat="48.48875" lon="-2.70655">
        <ele>87</ele>
        <time>2013-11-22T08:17:53Z</time>
      </trkpt>
      <trkpt lat="48.48876" lon="-2.70655">
        <ele>87</ele>
        <time>2013-11-22T08:17:54Z</time>
      </trkpt>
      <trkpt lat="48.48877" lon="-2.70656">
        <ele>87</ele>
        <time>2013-11-22T08:17:55Z</time>
      </trkpt>
      <trkpt lat="48.48879" lon="-2.70656">
        <ele>87</ele>
        <time>2013-11-22T08:17:56Z</time>
      </trkpt>
      <trkpt lat="48.4888" lon="-2.70657">
        <ele>87</ele>
        <time>2013-11-22T08:17:57Z</time>
      </trkpt>
      <trkpt lat="48.48882" lon="-2.70657">
        <ele>87</ele>
        <time>2013-11-22T08:17:58Z</time>
      </trkpt>
      <trkpt lat="48.48883" lon="-2.70658">
        <ele>87</ele>
        <time>2013-11-22T08:17:59Z</time>
      </trkpt>
      <trkpt lat="48.48885" lon="-2.70659">
        <ele>87</ele>
        <time>2013-11-22T08:18:00Z</time>
      </trkpt>
      <trkpt lat="48.48886" lon="-2.70659">
        <ele>87</ele>
        <time>2013-11-22T08:18:01Z</time>
      </trkpt>
      <trkpt lat="48.48887" lon="-2.7066">
        <ele>87</ele>
        <time>2013-11-22T08:18:02Z</time>
      </trkpt>
      <trkpt lat="48.48889" lon="-2.7066">
        <ele>87</ele>
        <time>2013-11-22T08:18:03Z</time>
      </trkpt>
      <trkpt lat="48.4889" lon="-2.70661">
        <ele>87</ele>
        <time>2013-11-22T08:18:04Z</time>
      </trkpt>
      <trkpt lat="48.48891" lon="-2.70661">
        <ele>87</ele>
        <time>2013-11-22T08:18:05Z</time>
      </trkpt>
      <trkpt lat="48.48893" lon="-2.70661">
        <ele>87</ele>
        <time>2013-11-22T08:18:06Z</time>
      </trkpt>
      <trkpt lat="48.48894" lon="-2.70662">
        <ele>87</ele>
        <time>2013-11-22T08:18:07Z</time>
      </trkpt>
      <trkpt lat="48.48895" lon="-2.70662">
        <ele>87</ele>
        <time>2013-11-22T08:18:08Z</time>
      </trkpt>
      <trkpt lat="48.489" lon="-2.70662">
        <ele>87</ele>
        <time>2013-11-22T08:18:11Z</time>
      </trkpt>
      <trkpt lat="48.48901" lon="-2.70662">
        <ele>87</ele>
        <time>2013-11-22T08:18:12Z</time>
      </trkpt>
      <trkpt lat="48.48904" lon="-2.70662">
        <ele>87</ele>
        <time>2013-11-22T08:18:14Z</time>
      </trkpt>
      <trkpt lat="48.48907" lon="-2.70663">
        <ele>87</ele>
        <time>2013-11-22T08:18:16Z</time>
      </trkpt>
      <trkpt lat="48.48909" lon="-2.70663">
        <ele>87</ele>
        <time>2013-11-22T08:18:17Z</time>
      </trkpt>
      <trkpt lat="48.4891" lon="-2.70663">
        <ele>87</ele>
        <time>2013-11-22T08:18:18Z</time>
      </trkpt>
      <trkpt lat="48.48911" lon="-2.70663">
        <ele>87</ele>
        <time>2013-11-22T08:18:19Z</time>
      </trkpt>
      <trkpt lat="48.48913" lon="-2.70663">
        <ele>87</ele>
        <time>2013-11-22T08:18:20Z</time>
      </trkpt>
      <trkpt lat="48.48914" lon="-2.70664">
        <ele>87</ele>
        <time>2013-11-22T08:18:21Z</time>
      </trkpt>
      <trkpt lat="48.48917" lon="-2.70664">
        <ele>87</ele>
        <time>2013-11-22T08:18:23Z</time>
      </trkpt>
      <trkpt lat="48.48919" lon="-2.70664">
        <ele>87</ele>
        <time>2013-11-22T08:18:24Z</time>
      </trkpt>
      <trkpt lat="48.48922" lon="-2.70664">
        <ele>87</ele>
        <time>2013-11-22T08:18:26Z</time>
      </trkpt>
      <trkpt lat="48.48923" lon="-2.70665">
        <ele>87</ele>
        <time>2013-11-22T08:18:27Z</time>
      </trkpt>
      <trkpt lat="48.48925" lon="-2.70665">
        <ele>87</ele>
        <time>2013-11-22T08:18:28Z</time>
      </trkpt>
      <trkpt lat="48.48926" lon="-2.70665">
        <ele>87</ele>
        <time>2013-11-22T08:18:29Z</time>
      </trkpt>
      <trkpt lat="48.48928" lon="-2.70665">
        <ele>87</ele>
        <time>2013-11-22T08:18:30Z</time>
      </trkpt>
      <trkpt lat="48.48929" lon="-2.70665">
        <ele>87</ele>
        <time>2013-11-22T08:18:31Z</time>
      </trkpt>
      <trkpt lat="48.48931" lon="-2.70666">
        <ele>87</ele>
        <time>2013-11-22T08:18:32Z</time>
      </trkpt>
      <trkpt lat="48.48934" lon="-2.70666">
        <ele>87</ele>
        <time>2013-11-22T08:18:34Z</time>
      </trkpt>
      <trkpt lat="48.48936" lon="-2.70666">
        <ele>87</ele>
        <time>2013-11-22T08:18:35Z</time>
      </trkpt>
      <trkpt lat="48.48937" lon="-2.70666">
        <ele>87</ele>
        <time>2013-11-22T08:18:36Z</time>
      </trkpt>
      <trkpt lat="48.4894" lon="-2.70666">
        <ele>87</ele>
        <time>2013-11-22T08:18:38Z</time>
      </trkpt>
      <trkpt lat="48.48944" lon="-2.70666">
        <ele>87</ele>
        <time>2013-11-22T08:18:41Z</time>
      </trkpt>
      <trkpt lat="48.48947" lon="-2.70666">
        <ele>87</ele>
        <time>2013-11-22T08:18:43Z</time>
      </trkpt>
      <trkpt lat="48.48949" lon="-2.70666">
        <ele>87</ele>
        <time>2013-11-22T08:18:44Z</time>
      </trkpt>
      <trkpt lat="48.4895" lon="-2.70665">
        <ele>87</ele>
        <time>2013-11-22T08:18:45Z</time>
      </trkpt>
      <trkpt lat="48.48952" lon="-2.70665">
        <ele>87</ele>
        <time>2013-11-22T08:18:46Z</time>
      </trkpt>
      <trkpt lat="48.48953" lon="-2.70665">
        <ele>87</ele>
        <time>2013-11-22T08:18:47Z</time>
      </trkpt>
      <trkpt lat="48.48955" lon="-2.70664">
        <ele>87</ele>
        <time>2013-11-22T08:18:48Z</time>
      </trkpt>
      <trkpt lat="48.48956" lon="-2.70664">
        <ele>87</ele>
        <time>2013-11-22T08:18:49Z</time>
      </trkpt>
      <trkpt lat="48.48957" lon="-2.70664">
        <ele>87</ele>
        <time>2013-11-22T08:18:50Z</time>
      </trkpt>
      <trkpt lat="48.48959" lon="-2.70663">
        <ele>87</ele>
        <time>2013-11-22T08:18:51Z</time>
      </trkpt>
      <trkpt lat="48.4896" lon="-2.70663">
        <ele>87</ele>
        <time>2013-11-22T08:18:52Z</time>
      </trkpt>
      <trkpt lat="48.48962" lon="-2.70662">
        <ele>87</ele>
        <time>2013-11-22T08:18:53Z</time>
      </trkpt>
      <trkpt lat="48.48963" lon="-2.70662">
        <ele>87</ele>
        <time>2013-11-22T08:18:54Z</time>
      </trkpt>
      <trkpt lat="48.48964" lon="-2.70661">
        <ele>87</ele>
        <time>2013-11-22T08:18:55Z</time>
      </trkpt>
      <trkpt lat="48.48966" lon="-2.7066">
        <ele>87</ele>
        <time>2013-11-22T08:18:56Z</time>
      </trkpt>
      <trkpt lat="48.48967" lon="-2.70659">
        <ele>87</ele>
        <time>2013-11-22T08:18:57Z</time>
      </trkpt>
      <trkpt lat="48.48969" lon="-2.70658">
        <ele>87</ele>
        <time>2013-11-22T08:18:58Z</time>
      </trkpt>
      <trkpt lat="48.4897" lon="-2.70657">
        <ele>87</ele>
        <time>2013-11-22T08:18:59Z</time>
      </trkpt>
      <trkpt lat="48.48971" lon="-2.70657">
        <ele>87</ele>
        <time>2013-11-22T08:19:00Z</time>
      </trkpt>
      <trkpt lat="48.48972" lon="-2.70656">
        <ele>87</ele>
        <time>2013-11-22T08:19:01Z</time>
      </trkpt>
      <trkpt lat="48.48975" lon="-2.70654">
        <ele>87</ele>
        <time>2013-11-22T08:19:03Z</time>
      </trkpt>
      <trkpt lat="48.48976" lon="-2.70653">
        <ele>87</ele>
        <time>2013-11-22T08:19:04Z</time>
      </trkpt>
      <trkpt lat="48.48977" lon="-2.70651">
        <ele>87</ele>
        <time>2013-11-22T08:19:05Z</time>
      </trkpt>
      <trkpt lat="48.48978" lon="-2.7065">
        <ele>87</ele>
        <time>2013-11-22T08:19:06Z</time>
      </trkpt>
      <trkpt lat="48.48979" lon="-2.70649">
        <ele>87</ele>
        <time>2013-11-22T08:19:07Z</time>
      </trkpt>
      <trkpt lat="48.4898" lon="-2.70648">
        <ele>87</ele>
        <time>2013-11-22T08:19:08Z</time>
      </trkpt>
      <trkpt lat="48.48983" lon="-2.70646">
        <ele>87</ele>
        <time>2013-11-22T08:19:10Z</time>
      </trkpt>
      <trkpt lat="48.48984" lon="-2.70644">
        <ele>87</ele>
        <time>2013-11-22T08:19:11Z</time>
      </trkpt>
      <trkpt lat="48.48985" lon="-2.70643">
        <ele>87</ele>
        <time>2013-11-22T08:19:12Z</time>
      </trkpt>
      <trkpt lat="48.48986" lon="-2.70641">
        <ele>87</ele>
        <time>2013-11-22T08:19:13Z</time>
      </trkpt>
      <trkpt lat="48.48988" lon="-2.7064">
        <ele>87</ele>
        <time>2013-11-22T08:19:14Z</time>
      </trkpt>
      <trkpt lat="48.48989" lon="-2.70638">
        <ele>87</ele>
        <time>2013-11-22T08:19:15Z</time>
      </trkpt>
      <trkpt lat="48.48991" lon="-2.70635">
        <ele>87</ele>
        <time>2013-11-22T08:19:17Z</time>
      </trkpt>
      <trkpt lat="48.48993" lon="-2.70632">
        <ele>87</ele>
        <time>2013-11-22T08:19:19Z</time>
      </trkpt>
      <trkpt lat="48.48995" lon="-2.7063">
        <ele>87</ele>
        <time>2013-11-22T08:19:21Z</time>
      </trkpt>
      <trkpt lat="48.48997" lon="-2.70627">
        <ele>87</ele>
        <time>2013-11-22T08:19:23Z</time>
      </trkpt>
      <trkpt lat="48.48999" lon="-2.70623">
        <ele>87</ele>
        <time>2013-11-22T08:19:25Z</time>
      </trkpt>
      <trkpt lat="48.49001" lon="-2.70622">
        <ele>87</ele>
        <time>2013-11-22T08:19:26Z</time>
      </trkpt>
      <trkpt lat="48.49002" lon="-2.7062">
        <ele>87</ele>
        <time>2013-11-22T08:19:27Z</time>
      </trkpt>
      <trkpt lat="48.49004" lon="-2.70617">
        <ele>87</ele>
        <time>2013-11-22T08:19:29Z</time>
      </trkpt>
      <trkpt lat="48.49005" lon="-2.70616">
        <ele>87</ele>
        <time>2013-11-22T08:19:30Z</time>
      </trkpt>
      <trkpt lat="48.49007" lon="-2.70613">
        <ele>87</ele>
        <time>2013-11-22T08:19:32Z</time>
      </trkpt>
      <trkpt lat="48.49008" lon="-2.70612">
        <ele>86</ele>
        <time>2013-11-22T08:19:33Z</time>
      </trkpt>
      <trkpt lat="48.49009" lon="-2.7061">
        <ele>86</ele>
        <time>2013-11-22T08:19:34Z</time>
      </trkpt>
      <trkpt lat="48.49011" lon="-2.70608">
        <ele>86</ele>
        <time>2013-11-22T08:19:35Z</time>
      </trkpt>
      <trkpt lat="48.49012" lon="-2.70606">
        <ele>86</ele>
        <time>2013-11-22T08:19:36Z</time>
      </trkpt>
      <trkpt lat="48.49013" lon="-2.70604">
        <ele>86</ele>
        <time>2013-11-22T08:19:37Z</time>
      </trkpt>
      <trkpt lat="48.49015" lon="-2.70602">
        <ele>86</ele>
        <time>2013-11-22T08:19:39Z</time>
      </trkpt>
      <trkpt lat="48.49016" lon="-2.706">
        <ele>86</ele>
        <time>2013-11-22T08:19:40Z</time>
      </trkpt>
      <trkpt lat="48.49017" lon="-2.70599">
        <ele>86</ele>
        <time>2013-11-22T08:19:41Z</time>
      </trkpt>
      <trkpt lat="48.4902" lon="-2.70597">
        <ele>85</ele>
        <time>2013-11-22T08:19:43Z</time>
      </trkpt>
      <trkpt lat="48.49022" lon="-2.70594">
        <ele>85</ele>
        <time>2013-11-22T08:19:45Z</time>
      </trkpt>
      <trkpt lat="48.49023" lon="-2.70591">
        <ele>85</ele>
        <time>2013-11-22T08:19:47Z</time>
      </trkpt>
      <trkpt lat="48.49025" lon="-2.7059">
        <ele>85</ele>
        <time>2013-11-22T08:19:48Z</time>
      </trkpt>
      <trkpt lat="48.49026" lon="-2.70588">
        <ele>85</ele>
        <time>2013-11-22T08:19:49Z</time>
      </trkpt>
      <trkpt lat="48.49027" lon="-2.70587">
        <ele>85</ele>
        <time>2013-11-22T08:19:50Z</time>
      </trkpt>
      <trkpt lat="48.4903" lon="-2.70585">
        <ele>85</ele>
        <time>2013-11-22T08:19:52Z</time>
      </trkpt>
      <trkpt lat="48.49031" lon="-2.70584">
        <ele>85</ele>
        <time>2013-11-22T08:19:53Z</time>
      </trkpt>
      <trkpt lat="48.49032" lon="-2.70583">
        <ele>85</ele>
        <time>2013-11-22T08:19:54Z</time>
      </trkpt>
      <trkpt lat="48.49034" lon="-2.70581">
        <ele>85</ele>
        <time>2013-11-22T08:19:56Z</time>
      </trkpt>
      <trkpt lat="48.49035" lon="-2.7058">
        <ele>85</ele>
        <time>2013-11-22T08:19:57Z</time>
      </trkpt>
      <trkpt lat="48.49037" lon="-2.70579">
        <ele>85</ele>
        <time>2013-11-22T08:19:58Z</time>
      </trkpt>
      <trkpt lat="48.49038" lon="-2.70578">
        <ele>85</ele>
        <time>2013-11-22T08:19:59Z</time>
      </trkpt>
      <trkpt lat="48.49039" lon="-2.70577">
        <ele>85</ele>
        <time>2013-11-22T08:20:00Z</time>
      </trkpt>
      <trkpt lat="48.4904" lon="-2.70576">
        <ele>85</ele>
        <time>2013-11-22T08:20:01Z</time>
      </trkpt>
      <trkpt lat="48.49042" lon="-2.70575">
        <ele>85</ele>
        <time>2013-11-22T08:20:02Z</time>
      </trkpt>
      <trkpt lat="48.49043" lon="-2.70574">
        <ele>85</ele>
        <time>2013-11-22T08:20:03Z</time>
      </trkpt>
      <trkpt lat="48.49045" lon="-2.70571">
        <ele>85</ele>
        <time>2013-11-22T08:20:05Z</time>
      </trkpt>
      <trkpt lat="48.49046" lon="-2.7057">
        <ele>85</ele>
        <time>2013-11-22T08:20:06Z</time>
      </trkpt>
      <trkpt lat="48.49047" lon="-2.7057">
        <ele>85</ele>
        <time>2013-11-22T08:20:07Z</time>
      </trkpt>
      <trkpt lat="48.49048" lon="-2.70569">
        <ele>85</ele>
        <time>2013-11-22T08:20:08Z</time>
      </trkpt>
      <trkpt lat="48.4905" lon="-2.70568">
        <ele>85</ele>
        <time>2013-11-22T08:20:09Z</time>
      </trkpt>
      <trkpt lat="48.49051" lon="-2.70567">
        <ele>85</ele>
        <time>2013-11-22T08:20:10Z</time>
      </trkpt>
      <trkpt lat="48.49053" lon="-2.70567">
        <ele>85</ele>
        <time>2013-11-22T08:20:11Z</time>
      </trkpt>
      <trkpt lat="48.49054" lon="-2.70566">
        <ele>85</ele>
        <time>2013-11-22T08:20:12Z</time>
      </trkpt>
      <trkpt lat="48.49056" lon="-2.70566">
        <ele>85</ele>
        <time>2013-11-22T08:20:13Z</time>
      </trkpt>
      <trkpt lat="48.49057" lon="-2.70566">
        <ele>84</ele>
        <time>2013-11-22T08:20:14Z</time>
      </trkpt>
      <trkpt lat="48.49059" lon="-2.70565">
        <ele>84</ele>
        <time>2013-11-22T08:20:15Z</time>
      </trkpt>
      <trkpt lat="48.4906" lon="-2.70564">
        <ele>84</ele>
        <time>2013-11-22T08:20:16Z</time>
      </trkpt>
      <trkpt lat="48.49061" lon="-2.70563">
        <ele>84</ele>
        <time>2013-11-22T08:20:17Z</time>
      </trkpt>
      <trkpt lat="48.49062" lon="-2.70563">
        <ele>84</ele>
        <time>2013-11-22T08:20:18Z</time>
      </trkpt>
      <trkpt lat="48.49064" lon="-2.70562">
        <ele>84</ele>
        <time>2013-11-22T08:20:19Z</time>
      </trkpt>
      <trkpt lat="48.49065" lon="-2.70562">
        <ele>84</ele>
        <time>2013-11-22T08:20:20Z</time>
      </trkpt>
      <trkpt lat="48.49067" lon="-2.70561">
        <ele>84</ele>
        <time>2013-11-22T08:20:21Z</time>
      </trkpt>
      <trkpt lat="48.49068" lon="-2.7056">
        <ele>83</ele>
        <time>2013-11-22T08:20:22Z</time>
      </trkpt>
      <trkpt lat="48.4907" lon="-2.7056">
        <ele>83</ele>
        <time>2013-11-22T08:20:23Z</time>
      </trkpt>
      <trkpt lat="48.49071" lon="-2.70559">
        <ele>83</ele>
        <time>2013-11-22T08:20:24Z</time>
      </trkpt>
      <trkpt lat="48.49073" lon="-2.70559">
        <ele>83</ele>
        <time>2013-11-22T08:20:25Z</time>
      </trkpt>
      <trkpt lat="48.49074" lon="-2.70558">
        <ele>82</ele>
        <time>2013-11-22T08:20:26Z</time>
      </trkpt>
      <trkpt lat="48.49075" lon="-2.70558">
        <ele>82</ele>
        <time>2013-11-22T08:20:27Z</time>
      </trkpt>
      <trkpt lat="48.49077" lon="-2.70557">
        <ele>82</ele>
        <time>2013-11-22T08:20:28Z</time>
      </trkpt>
      <trkpt lat="48.49078" lon="-2.70557">
        <ele>82</ele>
        <time>2013-11-22T08:20:29Z</time>
      </trkpt>
      <trkpt lat="48.49079" lon="-2.70556">
        <ele>82</ele>
        <time>2013-11-22T08:20:30Z</time>
      </trkpt>
      <trkpt lat="48.49081" lon="-2.70555">
        <ele>82</ele>
        <time>2013-11-22T08:20:31Z</time>
      </trkpt>
      <trkpt lat="48.49082" lon="-2.70554">
        <ele>82</ele>
        <time>2013-11-22T08:20:32Z</time>
      </trkpt>
      <trkpt lat="48.49083" lon="-2.70553">
        <ele>82</ele>
        <time>2013-11-22T08:20:33Z</time>
      </trkpt>
      <trkpt lat="48.49084" lon="-2.70552">
        <ele>82</ele>
        <time>2013-11-22T08:20:34Z</time>
      </trkpt>
      <trkpt lat="48.49086" lon="-2.70552">
        <ele>82</ele>
        <time>2013-11-22T08:20:35Z</time>
      </trkpt>
      <trkpt lat="48.49087" lon="-2.70551">
        <ele>82</ele>
        <time>2013-11-22T08:20:36Z</time>
      </trkpt>
      <trkpt lat="48.49088" lon="-2.7055">
        <ele>82</ele>
        <time>2013-11-22T08:20:37Z</time>
      </trkpt>
      <trkpt lat="48.49089" lon="-2.7055">
        <ele>82</ele>
        <time>2013-11-22T08:20:38Z</time>
      </trkpt>
      <trkpt lat="48.4909" lon="-2.70549">
        <ele>82</ele>
        <time>2013-11-22T08:20:39Z</time>
      </trkpt>
      <trkpt lat="48.49091" lon="-2.70548">
        <ele>82</ele>
        <time>2013-11-22T08:20:40Z</time>
      </trkpt>
      <trkpt lat="48.49093" lon="-2.70548">
        <ele>82</ele>
        <time>2013-11-22T08:20:41Z</time>
      </trkpt>
      <trkpt lat="48.49094" lon="-2.70547">
        <ele>82</ele>
        <time>2013-11-22T08:20:42Z</time>
      </trkpt>
      <trkpt lat="48.49096" lon="-2.70547">
        <ele>82</ele>
        <time>2013-11-22T08:20:43Z</time>
      </trkpt>
      <trkpt lat="48.49097" lon="-2.70546">
        <ele>82</ele>
        <time>2013-11-22T08:20:44Z</time>
      </trkpt>
      <trkpt lat="48.49099" lon="-2.70545">
        <ele>82</ele>
        <time>2013-11-22T08:20:45Z</time>
      </trkpt>
      <trkpt lat="48.491" lon="-2.70544">
        <ele>82</ele>
        <time>2013-11-22T08:20:46Z</time>
      </trkpt>
      <trkpt lat="48.49101" lon="-2.70543">
        <ele>82</ele>
        <time>2013-11-22T08:20:47Z</time>
      </trkpt>
      <trkpt lat="48.49102" lon="-2.70543">
        <ele>82</ele>
        <time>2013-11-22T08:20:48Z</time>
      </trkpt>
      <trkpt lat="48.49104" lon="-2.70542">
        <ele>81</ele>
        <time>2013-11-22T08:20:49Z</time>
      </trkpt>
      <trkpt lat="48.49105" lon="-2.70541">
        <ele>81</ele>
        <time>2013-11-22T08:20:50Z</time>
      </trkpt>
      <trkpt lat="48.49107" lon="-2.7054">
        <ele>81</ele>
        <time>2013-11-22T08:20:51Z</time>
      </trkpt>
      <trkpt lat="48.49108" lon="-2.7054">
        <ele>81</ele>
        <time>2013-11-22T08:20:52Z</time>
      </trkpt>
      <trkpt lat="48.49109" lon="-2.70539">
        <ele>81</ele>
        <time>2013-11-22T08:20:53Z</time>
      </trkpt>
      <trkpt lat="48.4911" lon="-2.70538">
        <ele>81</ele>
        <time>2013-11-22T08:20:54Z</time>
      </trkpt>
      <trkpt lat="48.49112" lon="-2.70537">
        <ele>80</ele>
        <time>2013-11-22T08:20:55Z</time>
      </trkpt>
      <trkpt lat="48.49113" lon="-2.70537">
        <ele>80</ele>
        <time>2013-11-22T08:20:56Z</time>
      </trkpt>
      <trkpt lat="48.49115" lon="-2.70536">
        <ele>80</ele>
        <time>2013-11-22T08:20:57Z</time>
      </trkpt>
      <trkpt lat="48.49116" lon="-2.70535">
        <ele>80</ele>
        <time>2013-11-22T08:20:58Z</time>
      </trkpt>
      <trkpt lat="48.49117" lon="-2.70535">
        <ele>80</ele>
        <time>2013-11-22T08:20:59Z</time>
      </trkpt>
      <trkpt lat="48.49118" lon="-2.70534">
        <ele>80</ele>
        <time>2013-11-22T08:21:00Z</time>
      </trkpt>
      <trkpt lat="48.49121" lon="-2.70532">
        <ele>80</ele>
        <time>2013-11-22T08:21:02Z</time>
      </trkpt>
      <trkpt lat="48.49123" lon="-2.70532">
        <ele>80</ele>
        <time>2013-11-22T08:21:03Z</time>
      </trkpt>
      <trkpt lat="48.49124" lon="-2.70531">
        <ele>80</ele>
        <time>2013-11-22T08:21:04Z</time>
      </trkpt>
      <trkpt lat="48.49126" lon="-2.70531">
        <ele>80</ele>
        <time>2013-11-22T08:21:05Z</time>
      </trkpt>
      <trkpt lat="48.49127" lon="-2.7053">
        <ele>80</ele>
        <time>2013-11-22T08:21:06Z</time>
      </trkpt>
      <trkpt lat="48.49129" lon="-2.70529">
        <ele>80</ele>
        <time>2013-11-22T08:21:07Z</time>
      </trkpt>
      <trkpt lat="48.4913" lon="-2.70528">
        <ele>80</ele>
        <time>2013-11-22T08:21:08Z</time>
      </trkpt>
      <trkpt lat="48.49132" lon="-2.70528">
        <ele>80</ele>
        <time>2013-11-22T08:21:09Z</time>
      </trkpt>
      <trkpt lat="48.49134" lon="-2.70527">
        <ele>80</ele>
        <time>2013-11-22T08:21:10Z</time>
      </trkpt>
      <trkpt lat="48.49135" lon="-2.70526">
        <ele>80</ele>
        <time>2013-11-22T08:21:11Z</time>
      </trkpt>
      <trkpt lat="48.49136" lon="-2.70526">
        <ele>80</ele>
        <time>2013-11-22T08:21:12Z</time>
      </trkpt>
      <trkpt lat="48.49138" lon="-2.70525">
        <ele>80</ele>
        <time>2013-11-22T08:21:13Z</time>
      </trkpt>
      <trkpt lat="48.49139" lon="-2.70524">
        <ele>79</ele>
        <time>2013-11-22T08:21:14Z</time>
      </trkpt>
      <trkpt lat="48.49141" lon="-2.70523">
        <ele>79</ele>
        <time>2013-11-22T08:21:15Z</time>
      </trkpt>
      <trkpt lat="48.49142" lon="-2.70522">
        <ele>79</ele>
        <time>2013-11-22T08:21:16Z</time>
      </trkpt>
      <trkpt lat="48.49144" lon="-2.70521">
        <ele>79</ele>
        <time>2013-11-22T08:21:17Z</time>
      </trkpt>
      <trkpt lat="48.49145" lon="-2.7052">
        <ele>79</ele>
        <time>2013-11-22T08:21:18Z</time>
      </trkpt>
      <trkpt lat="48.49146" lon="-2.70518">
        <ele>79</ele>
        <time>2013-11-22T08:21:19Z</time>
      </trkpt>
      <trkpt lat="48.49147" lon="-2.70517">
        <ele>79</ele>
        <time>2013-11-22T08:21:20Z</time>
      </trkpt>
      <trkpt lat="48.49149" lon="-2.70516">
        <ele>79</ele>
        <time>2013-11-22T08:21:21Z</time>
      </trkpt>
      <trkpt lat="48.4915" lon="-2.70515">
        <ele>79</ele>
        <time>2013-11-22T08:21:22Z</time>
      </trkpt>
      <trkpt lat="48.49151" lon="-2.70514">
        <ele>79</ele>
        <time>2013-11-22T08:21:23Z</time>
      </trkpt>
      <trkpt lat="48.49153" lon="-2.70513">
        <ele>79</ele>
        <time>2013-11-22T08:21:24Z</time>
      </trkpt>
      <trkpt lat="48.49154" lon="-2.70512">
        <ele>79</ele>
        <time>2013-11-22T08:21:25Z</time>
      </trkpt>
      <trkpt lat="48.49156" lon="-2.70511">
        <ele>79</ele>
        <time>2013-11-22T08:21:26Z</time>
      </trkpt>
      <trkpt lat="48.49157" lon="-2.70509">
        <ele>79</ele>
        <time>2013-11-22T08:21:27Z</time>
      </trkpt>
      <trkpt lat="48.49158" lon="-2.70508">
        <ele>79</ele>
        <time>2013-11-22T08:21:28Z</time>
      </trkpt>
      <trkpt lat="48.4916" lon="-2.70506">
        <ele>79</ele>
        <time>2013-11-22T08:21:29Z</time>
      </trkpt>
      <trkpt lat="48.49162" lon="-2.70504">
        <ele>79</ele>
        <time>2013-11-22T08:21:31Z</time>
      </trkpt>
      <trkpt lat="48.49163" lon="-2.70503">
        <ele>78</ele>
        <time>2013-11-22T08:21:32Z</time>
      </trkpt>
      <trkpt lat="48.49165" lon="-2.705">
        <ele>77</ele>
        <time>2013-11-22T08:21:34Z</time>
      </trkpt>
      <trkpt lat="48.49167" lon="-2.70498">
        <ele>77</ele>
        <time>2013-11-22T08:21:35Z</time>
      </trkpt>
      <trkpt lat="48.49168" lon="-2.70497">
        <ele>76</ele>
        <time>2013-11-22T08:21:36Z</time>
      </trkpt>
      <trkpt lat="48.4917" lon="-2.70495">
        <ele>76</ele>
        <time>2013-11-22T08:21:37Z</time>
      </trkpt>
      <trkpt lat="48.49171" lon="-2.70494">
        <ele>75</ele>
        <time>2013-11-22T08:21:38Z</time>
      </trkpt>
      <trkpt lat="48.49173" lon="-2.70494">
        <ele>75</ele>
        <time>2013-11-22T08:21:39Z</time>
      </trkpt>
      <trkpt lat="48.49175" lon="-2.70495">
        <ele>75</ele>
        <time>2013-11-22T08:21:40Z</time>
      </trkpt>
      <trkpt lat="48.49176" lon="-2.70495">
        <ele>75</ele>
        <time>2013-11-22T08:21:41Z</time>
      </trkpt>
      <trkpt lat="48.49177" lon="-2.70494">
        <ele>75</ele>
        <time>2013-11-22T08:21:42Z</time>
      </trkpt>
      <trkpt lat="48.49178" lon="-2.70493">
        <ele>75</ele>
        <time>2013-11-22T08:21:43Z</time>
      </trkpt>
      <trkpt lat="48.49181" lon="-2.70492">
        <ele>75</ele>
        <time>2013-11-22T08:21:45Z</time>
      </trkpt>
      <trkpt lat="48.49182" lon="-2.70491">
        <ele>75</ele>
        <time>2013-11-22T08:21:46Z</time>
      </trkpt>
      <trkpt lat="48.49184" lon="-2.7049">
        <ele>75</ele>
        <time>2013-11-22T08:21:47Z</time>
      </trkpt>
      <trkpt lat="48.49185" lon="-2.70489">
        <ele>75</ele>
        <time>2013-11-22T08:21:48Z</time>
      </trkpt>
      <trkpt lat="48.49186" lon="-2.70489">
        <ele>75</ele>
        <time>2013-11-22T08:21:49Z</time>
      </trkpt>
      <trkpt lat="48.49188" lon="-2.70488">
        <ele>75</ele>
        <time>2013-11-22T08:21:50Z</time>
      </trkpt>
      <trkpt lat="48.49193" lon="-2.70489">
        <ele>75</ele>
        <time>2013-11-22T08:21:53Z</time>
      </trkpt>
      <trkpt lat="48.49195" lon="-2.70492">
        <ele>75</ele>
        <time>2013-11-22T08:21:55Z</time>
      </trkpt>
      <trkpt lat="48.49196" lon="-2.70493">
        <ele>75</ele>
        <time>2013-11-22T08:21:56Z</time>
      </trkpt>
      <trkpt lat="48.49197" lon="-2.70495">
        <ele>75</ele>
        <time>2013-11-22T08:21:57Z</time>
      </trkpt>
      <trkpt lat="48.49198" lon="-2.70497">
        <ele>75</ele>
        <time>2013-11-22T08:21:58Z</time>
      </trkpt>
      <trkpt lat="48.49199" lon="-2.705">
        <ele>75</ele>
        <time>2013-11-22T08:22:00Z</time>
      </trkpt>
      <trkpt lat="48.492" lon="-2.70503">
        <ele>75</ele>
        <time>2013-11-22T08:22:02Z</time>
      </trkpt>
      <trkpt lat="48.49201" lon="-2.70505">
        <ele>75</ele>
        <time>2013-11-22T08:22:03Z</time>
      </trkpt>
      <trkpt lat="48.49203" lon="-2.70508">
        <ele>74</ele>
        <time>2013-11-22T08:22:05Z</time>
      </trkpt>
      <trkpt lat="48.49205" lon="-2.70511">
        <ele>74</ele>
        <time>2013-11-22T08:22:07Z</time>
      </trkpt>
      <trkpt lat="48.49204" lon="-2.70514">
        <ele>74</ele>
        <time>2013-11-22T08:22:08Z</time>
      </trkpt>
      <trkpt lat="48.49204" lon="-2.70516">
        <ele>74</ele>
        <time>2013-11-22T08:22:09Z</time>
      </trkpt>
      <trkpt lat="48.49203" lon="-2.70523">
        <ele>74</ele>
        <time>2013-11-22T08:22:12Z</time>
      </trkpt>
      <trkpt lat="48.49203" lon="-2.70531">
        <ele>74</ele>
        <time>2013-11-22T08:22:15Z</time>
      </trkpt>
      <trkpt lat="48.49202" lon="-2.70533">
        <ele>74</ele>
        <time>2013-11-22T08:22:16Z</time>
      </trkpt>
      <trkpt lat="48.49203" lon="-2.70545">
        <ele>74</ele>
        <time>2013-11-22T08:22:21Z</time>
      </trkpt>
      <trkpt lat="48.49204" lon="-2.7056">
        <ele>74</ele>
        <time>2013-11-22T08:22:27Z</time>
      </trkpt>
      <trkpt lat="48.49205" lon="-2.70563">
        <ele>74</ele>
        <time>2013-11-22T08:22:28Z</time>
      </trkpt>
      <trkpt lat="48.49205" lon="-2.70565">
        <ele>74</ele>
        <time>2013-11-22T08:22:29Z</time>
      </trkpt>
      <trkpt lat="48.49206" lon="-2.70567">
        <ele>74</ele>
        <time>2013-11-22T08:22:30Z</time>
      </trkpt>
      <trkpt lat="48.49207" lon="-2.70569">
        <ele>74</ele>
        <time>2013-11-22T08:22:31Z</time>
      </trkpt>
      <trkpt lat="48.49208" lon="-2.70571">
        <ele>74</ele>
        <time>2013-11-22T08:22:32Z</time>
      </trkpt>
      <trkpt lat="48.49209" lon="-2.70574">
        <ele>74</ele>
        <time>2013-11-22T08:22:33Z</time>
      </trkpt>
      <trkpt lat="48.4921" lon="-2.70576">
        <ele>74</ele>
        <time>2013-11-22T08:22:34Z</time>
      </trkpt>
      <trkpt lat="48.49211" lon="-2.70578">
        <ele>74</ele>
        <time>2013-11-22T08:22:35Z</time>
      </trkpt>
      <trkpt lat="48.49211" lon="-2.7058">
        <ele>74</ele>
        <time>2013-11-22T08:22:36Z</time>
      </trkpt>
      <trkpt lat="48.49212" lon="-2.70582">
        <ele>74</ele>
        <time>2013-11-22T08:22:37Z</time>
      </trkpt>
      <trkpt lat="48.49213" lon="-2.70584">
        <ele>74</ele>
        <time>2013-11-22T08:22:38Z</time>
      </trkpt>
      <trkpt lat="48.49215" lon="-2.70586">
        <ele>74</ele>
        <time>2013-11-22T08:22:39Z</time>
      </trkpt>
      <trkpt lat="48.49215" lon="-2.70588">
        <ele>74</ele>
        <time>2013-11-22T08:22:40Z</time>
      </trkpt>
      <trkpt lat="48.49216" lon="-2.7059">
        <ele>74</ele>
        <time>2013-11-22T08:22:41Z</time>
      </trkpt>
      <trkpt lat="48.49218" lon="-2.70592">
        <ele>74</ele>
        <time>2013-11-22T08:22:42Z</time>
      </trkpt>
      <trkpt lat="48.49218" lon="-2.70594">
        <ele>74</ele>
        <time>2013-11-22T08:22:43Z</time>
      </trkpt>
      <trkpt lat="48.49218" lon="-2.70599">
        <ele>74</ele>
        <time>2013-11-22T08:22:45Z</time>
      </trkpt>
      <trkpt lat="48.49219" lon="-2.70601">
        <ele>74</ele>
        <time>2013-11-22T08:22:46Z</time>
      </trkpt>
      <trkpt lat="48.49219" lon="-2.70603">
        <ele>75</ele>
        <time>2013-11-22T08:22:47Z</time>
      </trkpt>
      <trkpt lat="48.49221" lon="-2.70605">
        <ele>75</ele>
        <time>2013-11-22T08:22:48Z</time>
      </trkpt>
      <trkpt lat="48.49222" lon="-2.70607">
        <ele>75</ele>
        <time>2013-11-22T08:22:49Z</time>
      </trkpt>
      <trkpt lat="48.49223" lon="-2.70609">
        <ele>76</ele>
        <time>2013-11-22T08:22:50Z</time>
      </trkpt>
      <trkpt lat="48.49224" lon="-2.70611">
        <ele>76</ele>
        <time>2013-11-22T08:22:51Z</time>
      </trkpt>
      <trkpt lat="48.49225" lon="-2.70613">
        <ele>76</ele>
        <time>2013-11-22T08:22:52Z</time>
      </trkpt>
      <trkpt lat="48.49226" lon="-2.70615">
        <ele>76</ele>
        <time>2013-11-22T08:22:53Z</time>
      </trkpt>
      <trkpt lat="48.49226" lon="-2.70617">
        <ele>76</ele>
        <time>2013-11-22T08:22:54Z</time>
      </trkpt>
      <trkpt lat="48.49227" lon="-2.70619">
        <ele>76</ele>
        <time>2013-11-22T08:22:55Z</time>
      </trkpt>
      <trkpt lat="48.49228" lon="-2.7062">
        <ele>76</ele>
        <time>2013-11-22T08:22:56Z</time>
      </trkpt>
      <trkpt lat="48.49228" lon="-2.70628">
        <ele>77</ele>
        <time>2013-11-22T08:22:59Z</time>
      </trkpt>
      <trkpt lat="48.49228" lon="-2.7063">
        <ele>77</ele>
        <time>2013-11-22T08:23:00Z</time>
      </trkpt>
      <trkpt lat="48.49229" lon="-2.70632">
        <ele>77</ele>
        <time>2013-11-22T08:23:01Z</time>
      </trkpt>
      <trkpt lat="48.49229" lon="-2.70639">
        <ele>78</ele>
        <time>2013-11-22T08:23:04Z</time>
      </trkpt>
      <trkpt lat="48.49229" lon="-2.70641">
        <ele>79</ele>
        <time>2013-11-22T08:23:05Z</time>
      </trkpt>
      <trkpt lat="48.4923" lon="-2.70643">
        <ele>79</ele>
        <time>2013-11-22T08:23:06Z</time>
      </trkpt>
      <trkpt lat="48.49231" lon="-2.70645">
        <ele>79</ele>
        <time>2013-11-22T08:23:07Z</time>
      </trkpt>
      <trkpt lat="48.49232" lon="-2.70647">
        <ele>79</ele>
        <time>2013-11-22T08:23:08Z</time>
      </trkpt>
      <trkpt lat="48.49233" lon="-2.70649">
        <ele>79</ele>
        <time>2013-11-22T08:23:09Z</time>
      </trkpt>
      <trkpt lat="48.49233" lon="-2.70652">
        <ele>79</ele>
        <time>2013-11-22T08:23:10Z</time>
      </trkpt>
      <trkpt lat="48.49234" lon="-2.70654">
        <ele>79</ele>
        <time>2013-11-22T08:23:11Z</time>
      </trkpt>
      <trkpt lat="48.49234" lon="-2.70658">
        <ele>79</ele>
        <time>2013-11-22T08:23:13Z</time>
      </trkpt>
      <trkpt lat="48.49236" lon="-2.70659">
        <ele>80</ele>
        <time>2013-11-22T08:23:14Z</time>
      </trkpt>
      <trkpt lat="48.49236" lon="-2.70661">
        <ele>80</ele>
        <time>2013-11-22T08:23:15Z</time>
      </trkpt>
      <trkpt lat="48.49237" lon="-2.70663">
        <ele>80</ele>
        <time>2013-11-22T08:23:16Z</time>
      </trkpt>
      <trkpt lat="48.49238" lon="-2.70665">
        <ele>80</ele>
        <time>2013-11-22T08:23:17Z</time>
      </trkpt>
      <trkpt lat="48.4924" lon="-2.70668">
        <ele>80</ele>
        <time>2013-11-22T08:23:19Z</time>
      </trkpt>
      <trkpt lat="48.49242" lon="-2.70668">
        <ele>80</ele>
        <time>2013-11-22T08:23:20Z</time>
      </trkpt>
      <trkpt lat="48.49244" lon="-2.70668">
        <ele>80</ele>
        <time>2013-11-22T08:23:22Z</time>
      </trkpt>
      <trkpt lat="48.49246" lon="-2.70668">
        <ele>80</ele>
        <time>2013-11-22T08:23:23Z</time>
      </trkpt>
      <trkpt lat="48.49247" lon="-2.70668">
        <ele>80</ele>
        <time>2013-11-22T08:23:24Z</time>
      </trkpt>
      <trkpt lat="48.49252" lon="-2.70667">
        <ele>80</ele>
        <time>2013-11-22T08:23:27Z</time>
      </trkpt>
      <trkpt lat="48.49253" lon="-2.70667">
        <ele>80</ele>
        <time>2013-11-22T08:23:28Z</time>
      </trkpt>
      <trkpt lat="48.49255" lon="-2.70667">
        <ele>80</ele>
        <time>2013-11-22T08:23:29Z</time>
      </trkpt>
      <trkpt lat="48.49256" lon="-2.70666">
        <ele>80</ele>
        <time>2013-11-22T08:23:30Z</time>
      </trkpt>
      <trkpt lat="48.49258" lon="-2.70666">
        <ele>80</ele>
        <time>2013-11-22T08:23:31Z</time>
      </trkpt>
      <trkpt lat="48.49259" lon="-2.70666">
        <ele>80</ele>
        <time>2013-11-22T08:23:32Z</time>
      </trkpt>
      <trkpt lat="48.49261" lon="-2.70666">
        <ele>80</ele>
        <time>2013-11-22T08:23:33Z</time>
      </trkpt>
      <trkpt lat="48.49264" lon="-2.70666">
        <ele>80</ele>
        <time>2013-11-22T08:23:35Z</time>
      </trkpt>
      <trkpt lat="48.49266" lon="-2.70666">
        <ele>80</ele>
        <time>2013-11-22T08:23:36Z</time>
      </trkpt>
      <trkpt lat="48.49268" lon="-2.70666">
        <ele>80</ele>
        <time>2013-11-22T08:23:37Z</time>
      </trkpt>
      <trkpt lat="48.49269" lon="-2.70666">
        <ele>80</ele>
        <time>2013-11-22T08:23:38Z</time>
      </trkpt>
      <trkpt lat="48.49271" lon="-2.70667">
        <ele>80</ele>
        <time>2013-11-22T08:23:39Z</time>
      </trkpt>
      <trkpt lat="48.49272" lon="-2.70667">
        <ele>80</ele>
        <time>2013-11-22T08:23:40Z</time>
      </trkpt>
      <trkpt lat="48.49274" lon="-2.70668">
        <ele>80</ele>
        <time>2013-11-22T08:23:41Z</time>
      </trkpt>
      <trkpt lat="48.49275" lon="-2.70669">
        <ele>80</ele>
        <time>2013-11-22T08:23:42Z</time>
      </trkpt>
      <trkpt lat="48.49277" lon="-2.7067">
        <ele>80</ele>
        <time>2013-11-22T08:23:43Z</time>
      </trkpt>
      <trkpt lat="48.49278" lon="-2.70671">
        <ele>80</ele>
        <time>2013-11-22T08:23:44Z</time>
      </trkpt>
      <trkpt lat="48.4928" lon="-2.70672">
        <ele>80</ele>
        <time>2013-11-22T08:23:45Z</time>
      </trkpt>
      <trkpt lat="48.49281" lon="-2.70673">
        <ele>80</ele>
        <time>2013-11-22T08:23:46Z</time>
      </trkpt>
      <trkpt lat="48.49282" lon="-2.70674">
        <ele>80</ele>
        <time>2013-11-22T08:23:47Z</time>
      </trkpt>
      <trkpt lat="48.49284" lon="-2.70675">
        <ele>80</ele>
        <time>2013-11-22T08:23:48Z</time>
      </trkpt>
      <trkpt lat="48.49285" lon="-2.70676">
        <ele>80</ele>
        <time>2013-11-22T08:23:49Z</time>
      </trkpt>
      <trkpt lat="48.49286" lon="-2.70678">
        <ele>80</ele>
        <time>2013-11-22T08:23:50Z</time>
      </trkpt>
      <trkpt lat="48.49288" lon="-2.70679">
        <ele>80</ele>
        <time>2013-11-22T08:23:51Z</time>
      </trkpt>
      <trkpt lat="48.49289" lon="-2.7068">
        <ele>80</ele>
        <time>2013-11-22T08:23:52Z</time>
      </trkpt>
      <trkpt lat="48.49291" lon="-2.70681">
        <ele>80</ele>
        <time>2013-11-22T08:23:53Z</time>
      </trkpt>
      <trkpt lat="48.49292" lon="-2.70683">
        <ele>80</ele>
        <time>2013-11-22T08:23:54Z</time>
      </trkpt>
      <trkpt lat="48.49293" lon="-2.70684">
        <ele>80</ele>
        <time>2013-11-22T08:23:55Z</time>
      </trkpt>
      <trkpt lat="48.49295" lon="-2.70685">
        <ele>80</ele>
        <time>2013-11-22T08:23:56Z</time>
      </trkpt>
      <trkpt lat="48.49296" lon="-2.70686">
        <ele>80</ele>
        <time>2013-11-22T08:23:57Z</time>
      </trkpt>
      <trkpt lat="48.49297" lon="-2.70688">
        <ele>80</ele>
        <time>2013-11-22T08:23:58Z</time>
      </trkpt>
      <trkpt lat="48.49298" lon="-2.70689">
        <ele>80</ele>
        <time>2013-11-22T08:23:59Z</time>
      </trkpt>
      <trkpt lat="48.493" lon="-2.7069">
        <ele>80</ele>
        <time>2013-11-22T08:24:00Z</time>
      </trkpt>
      <trkpt lat="48.49301" lon="-2.70691">
        <ele>80</ele>
        <time>2013-11-22T08:24:01Z</time>
      </trkpt>
      <trkpt lat="48.49303" lon="-2.70693">
        <ele>80</ele>
        <time>2013-11-22T08:24:02Z</time>
      </trkpt>
      <trkpt lat="48.49304" lon="-2.70694">
        <ele>80</ele>
        <time>2013-11-22T08:24:03Z</time>
      </trkpt>
      <trkpt lat="48.49305" lon="-2.70695">
        <ele>80</ele>
        <time>2013-11-22T08:24:04Z</time>
      </trkpt>
      <trkpt lat="48.49307" lon="-2.70696">
        <ele>80</ele>
        <time>2013-11-22T08:24:05Z</time>
      </trkpt>
      <trkpt lat="48.49308" lon="-2.70697">
        <ele>80</ele>
        <time>2013-11-22T08:24:06Z</time>
      </trkpt>
      <trkpt lat="48.49309" lon="-2.70698">
        <ele>80</ele>
        <time>2013-11-22T08:24:07Z</time>
      </trkpt>
      <trkpt lat="48.49311" lon="-2.70699">
        <ele>80</ele>
        <time>2013-11-22T08:24:08Z</time>
      </trkpt>
      <trkpt lat="48.49312" lon="-2.707">
        <ele>80</ele>
        <time>2013-11-22T08:24:09Z</time>
      </trkpt>
      <trkpt lat="48.49313" lon="-2.70701">
        <ele>80</ele>
        <time>2013-11-22T08:24:10Z</time>
      </trkpt>
      <trkpt lat="48.49315" lon="-2.70702">
        <ele>80</ele>
        <time>2013-11-22T08:24:11Z</time>
      </trkpt>
      <trkpt lat="48.49316" lon="-2.70703">
        <ele>80</ele>
        <time>2013-11-22T08:24:12Z</time>
      </trkpt>
      <trkpt lat="48.49317" lon="-2.70703">
        <ele>80</ele>
        <time>2013-11-22T08:24:13Z</time>
      </trkpt>
      <trkpt lat="48.49319" lon="-2.70704">
        <ele>80</ele>
        <time>2013-11-22T08:24:14Z</time>
      </trkpt>
      <trkpt lat="48.4932" lon="-2.70705">
        <ele>80</ele>
        <time>2013-11-22T08:24:15Z</time>
      </trkpt>
      <trkpt lat="48.49322" lon="-2.70705">
        <ele>80</ele>
        <time>2013-11-22T08:24:16Z</time>
      </trkpt>
      <trkpt lat="48.49323" lon="-2.70706">
        <ele>80</ele>
        <time>2013-11-22T08:24:17Z</time>
      </trkpt>
      <trkpt lat="48.49324" lon="-2.70706">
        <ele>80</ele>
        <time>2013-11-22T08:24:18Z</time>
      </trkpt>
      <trkpt lat="48.49326" lon="-2.70706">
        <ele>80</ele>
        <time>2013-11-22T08:24:19Z</time>
      </trkpt>
      <trkpt lat="48.49328" lon="-2.70707">
        <ele>80</ele>
        <time>2013-11-22T08:24:20Z</time>
      </trkpt>
      <trkpt lat="48.49329" lon="-2.70707">
        <ele>80</ele>
        <time>2013-11-22T08:24:21Z</time>
      </trkpt>
      <trkpt lat="48.49331" lon="-2.70707">
        <ele>80</ele>
        <time>2013-11-22T08:24:22Z</time>
      </trkpt>
      <trkpt lat="48.49332" lon="-2.70708">
        <ele>80</ele>
        <time>2013-11-22T08:24:23Z</time>
      </trkpt>
      <trkpt lat="48.49334" lon="-2.70708">
        <ele>80</ele>
        <time>2013-11-22T08:24:24Z</time>
      </trkpt>
      <trkpt lat="48.49335" lon="-2.70708">
        <ele>80</ele>
        <time>2013-11-22T08:24:25Z</time>
      </trkpt>
      <trkpt lat="48.49336" lon="-2.70708">
        <ele>80</ele>
        <time>2013-11-22T08:24:26Z</time>
      </trkpt>
      <trkpt lat="48.49341" lon="-2.70708">
        <ele>80</ele>
        <time>2013-11-22T08:24:29Z</time>
      </trkpt>
      <trkpt lat="48.49342" lon="-2.70708">
        <ele>80</ele>
        <time>2013-11-22T08:24:30Z</time>
      </trkpt>
      <trkpt lat="48.49349" lon="-2.70708">
        <ele>80</ele>
        <time>2013-11-22T08:24:34Z</time>
      </trkpt>
      <trkpt lat="48.4935" lon="-2.70708">
        <ele>79</ele>
        <time>2013-11-22T08:24:35Z</time>
      </trkpt>
      <trkpt lat="48.49352" lon="-2.70707">
        <ele>79</ele>
        <time>2013-11-22T08:24:36Z</time>
      </trkpt>
      <trkpt lat="48.49353" lon="-2.70707">
        <ele>79</ele>
        <time>2013-11-22T08:24:37Z</time>
      </trkpt>
      <trkpt lat="48.49356" lon="-2.70707">
        <ele>79</ele>
        <time>2013-11-22T08:24:39Z</time>
      </trkpt>
      <trkpt lat="48.49359" lon="-2.70706">
        <ele>78</ele>
        <time>2013-11-22T08:24:41Z</time>
      </trkpt>
      <trkpt lat="48.49361" lon="-2.70706">
        <ele>78</ele>
        <time>2013-11-22T08:24:42Z</time>
      </trkpt>
      <trkpt lat="48.49363" lon="-2.70706">
        <ele>78</ele>
        <time>2013-11-22T08:24:43Z</time>
      </trkpt>
      <trkpt lat="48.49364" lon="-2.70705">
        <ele>78</ele>
        <time>2013-11-22T08:24:44Z</time>
      </trkpt>
      <trkpt lat="48.49366" lon="-2.70705">
        <ele>78</ele>
        <time>2013-11-22T08:24:45Z</time>
      </trkpt>
      <trkpt lat="48.49368" lon="-2.70705">
        <ele>78</ele>
        <time>2013-11-22T08:24:46Z</time>
      </trkpt>
      <trkpt lat="48.49369" lon="-2.70704">
        <ele>78</ele>
        <time>2013-11-22T08:24:47Z</time>
      </trkpt>
      <trkpt lat="48.49371" lon="-2.70704">
        <ele>78</ele>
        <time>2013-11-22T08:24:48Z</time>
      </trkpt>
      <trkpt lat="48.49372" lon="-2.70704">
        <ele>78</ele>
        <time>2013-11-22T08:24:49Z</time>
      </trkpt>
      <trkpt lat="48.49374" lon="-2.70703">
        <ele>77</ele>
        <time>2013-11-22T08:24:50Z</time>
      </trkpt>
      <trkpt lat="48.49375" lon="-2.70703">
        <ele>77</ele>
        <time>2013-11-22T08:24:51Z</time>
      </trkpt>
      <trkpt lat="48.49377" lon="-2.70703">
        <ele>77</ele>
        <time>2013-11-22T08:24:52Z</time>
      </trkpt>
      <trkpt lat="48.49378" lon="-2.70702">
        <ele>77</ele>
        <time>2013-11-22T08:24:53Z</time>
      </trkpt>
      <trkpt lat="48.49379" lon="-2.70702">
        <ele>77</ele>
        <time>2013-11-22T08:24:54Z</time>
      </trkpt>
      <trkpt lat="48.49381" lon="-2.70702">
        <ele>76</ele>
        <time>2013-11-22T08:24:55Z</time>
      </trkpt>
      <trkpt lat="48.49382" lon="-2.70701">
        <ele>76</ele>
        <time>2013-11-22T08:24:56Z</time>
      </trkpt>
      <trkpt lat="48.49384" lon="-2.70701">
        <ele>76</ele>
        <time>2013-11-22T08:24:57Z</time>
      </trkpt>
      <trkpt lat="48.49385" lon="-2.70701">
        <ele>75</ele>
        <time>2013-11-22T08:24:58Z</time>
      </trkpt>
      <trkpt lat="48.49387" lon="-2.70701">
        <ele>75</ele>
        <time>2013-11-22T08:24:59Z</time>
      </trkpt>
      <trkpt lat="48.49389" lon="-2.707">
        <ele>74</ele>
        <time>2013-11-22T08:25:00Z</time>
      </trkpt>
      <trkpt lat="48.4939" lon="-2.707">
        <ele>74</ele>
        <time>2013-11-22T08:25:01Z</time>
      </trkpt>
      <trkpt lat="48.49392" lon="-2.707">
        <ele>74</ele>
        <time>2013-11-22T08:25:02Z</time>
      </trkpt>
      <trkpt lat="48.49393" lon="-2.70699">
        <ele>73</ele>
        <time>2013-11-22T08:25:03Z</time>
      </trkpt>
      <trkpt lat="48.49395" lon="-2.70699">
        <ele>73</ele>
        <time>2013-11-22T08:25:04Z</time>
      </trkpt>
      <trkpt lat="48.49397" lon="-2.70699">
        <ele>73</ele>
        <time>2013-11-22T08:25:05Z</time>
      </trkpt>
      <trkpt lat="48.49398" lon="-2.70698">
        <ele>73</ele>
        <time>2013-11-22T08:25:06Z</time>
      </trkpt>
      <trkpt lat="48.494" lon="-2.70698">
        <ele>72</ele>
        <time>2013-11-22T08:25:07Z</time>
      </trkpt>
      <trkpt lat="48.49402" lon="-2.70698">
        <ele>72</ele>
        <time>2013-11-22T08:25:08Z</time>
      </trkpt>
      <trkpt lat="48.49403" lon="-2.70697">
        <ele>72</ele>
        <time>2013-11-22T08:25:09Z</time>
      </trkpt>
      <trkpt lat="48.49405" lon="-2.70697">
        <ele>72</ele>
        <time>2013-11-22T08:25:10Z</time>
      </trkpt>
      <trkpt lat="48.49406" lon="-2.70696">
        <ele>72</ele>
        <time>2013-11-22T08:25:11Z</time>
      </trkpt>
      <trkpt lat="48.49408" lon="-2.70696">
        <ele>72</ele>
        <time>2013-11-22T08:25:12Z</time>
      </trkpt>
      <trkpt lat="48.49409" lon="-2.70696">
        <ele>72</ele>
        <time>2013-11-22T08:25:13Z</time>
      </trkpt>
      <trkpt lat="48.49411" lon="-2.70695">
        <ele>72</ele>
        <time>2013-11-22T08:25:14Z</time>
      </trkpt>
      <trkpt lat="48.49412" lon="-2.70695">
        <ele>72</ele>
        <time>2013-11-22T08:25:15Z</time>
      </trkpt>
      <trkpt lat="48.49414" lon="-2.70694">
        <ele>72</ele>
        <time>2013-11-22T08:25:16Z</time>
      </trkpt>
      <trkpt lat="48.49415" lon="-2.70694">
        <ele>72</ele>
        <time>2013-11-22T08:25:17Z</time>
      </trkpt>
      <trkpt lat="48.49416" lon="-2.70694">
        <ele>72</ele>
        <time>2013-11-22T08:25:18Z</time>
      </trkpt>
      <trkpt lat="48.49418" lon="-2.70693">
        <ele>72</ele>
        <time>2013-11-22T08:25:19Z</time>
      </trkpt>
      <trkpt lat="48.49419" lon="-2.70693">
        <ele>72</ele>
        <time>2013-11-22T08:25:20Z</time>
      </trkpt>
      <trkpt lat="48.49421" lon="-2.70692">
        <ele>72</ele>
        <time>2013-11-22T08:25:21Z</time>
      </trkpt>
      <trkpt lat="48.49422" lon="-2.70692">
        <ele>72</ele>
        <time>2013-11-22T08:25:22Z</time>
      </trkpt>
      <trkpt lat="48.49424" lon="-2.70691">
        <ele>72</ele>
        <time>2013-11-22T08:25:23Z</time>
      </trkpt>
      <trkpt lat="48.49425" lon="-2.7069">
        <ele>72</ele>
        <time>2013-11-22T08:25:24Z</time>
      </trkpt>
      <trkpt lat="48.49426" lon="-2.70689">
        <ele>72</ele>
        <time>2013-11-22T08:25:25Z</time>
      </trkpt>
      <trkpt lat="48.49428" lon="-2.70689">
        <ele>72</ele>
        <time>2013-11-22T08:25:26Z</time>
      </trkpt>
      <trkpt lat="48.49429" lon="-2.70688">
        <ele>72</ele>
        <time>2013-11-22T08:25:27Z</time>
      </trkpt>
      <trkpt lat="48.49431" lon="-2.70687">
        <ele>72</ele>
        <time>2013-11-22T08:25:28Z</time>
      </trkpt>
      <trkpt lat="48.49432" lon="-2.70686">
        <ele>72</ele>
        <time>2013-11-22T08:25:29Z</time>
      </trkpt>
      <trkpt lat="48.49434" lon="-2.70685">
        <ele>72</ele>
        <time>2013-11-22T08:25:30Z</time>
      </trkpt>
      <trkpt lat="48.49435" lon="-2.70684">
        <ele>72</ele>
        <time>2013-11-22T08:25:31Z</time>
      </trkpt>
      <trkpt lat="48.49436" lon="-2.70683">
        <ele>72</ele>
        <time>2013-11-22T08:25:32Z</time>
      </trkpt>
      <trkpt lat="48.49438" lon="-2.70682">
        <ele>72</ele>
        <time>2013-11-22T08:25:33Z</time>
      </trkpt>
      <trkpt lat="48.49439" lon="-2.70681">
        <ele>72</ele>
        <time>2013-11-22T08:25:34Z</time>
      </trkpt>
      <trkpt lat="48.4944" lon="-2.7068">
        <ele>72</ele>
        <time>2013-11-22T08:25:35Z</time>
      </trkpt>
      <trkpt lat="48.49442" lon="-2.70679">
        <ele>72</ele>
        <time>2013-11-22T08:25:36Z</time>
      </trkpt>
      <trkpt lat="48.49443" lon="-2.70678">
        <ele>72</ele>
        <time>2013-11-22T08:25:37Z</time>
      </trkpt>
      <trkpt lat="48.49444" lon="-2.70677">
        <ele>72</ele>
        <time>2013-11-22T08:25:38Z</time>
      </trkpt>
      <trkpt lat="48.49445" lon="-2.70676">
        <ele>72</ele>
        <time>2013-11-22T08:25:39Z</time>
      </trkpt>
      <trkpt lat="48.49447" lon="-2.70675">
        <ele>72</ele>
        <time>2013-11-22T08:25:40Z</time>
      </trkpt>
      <trkpt lat="48.49448" lon="-2.70674">
        <ele>72</ele>
        <time>2013-11-22T08:25:41Z</time>
      </trkpt>
      <trkpt lat="48.49449" lon="-2.70672">
        <ele>72</ele>
        <time>2013-11-22T08:25:42Z</time>
      </trkpt>
      <trkpt lat="48.49451" lon="-2.70671">
        <ele>72</ele>
        <time>2013-11-22T08:25:43Z</time>
      </trkpt>
      <trkpt lat="48.49452" lon="-2.7067">
        <ele>72</ele>
        <time>2013-11-22T08:25:44Z</time>
      </trkpt>
      <trkpt lat="48.49453" lon="-2.70668">
        <ele>72</ele>
        <time>2013-11-22T08:25:45Z</time>
      </trkpt>
      <trkpt lat="48.49455" lon="-2.70667">
        <ele>72</ele>
        <time>2013-11-22T08:25:46Z</time>
      </trkpt>
      <trkpt lat="48.49456" lon="-2.70666">
        <ele>72</ele>
        <time>2013-11-22T08:25:47Z</time>
      </trkpt>
      <trkpt lat="48.49457" lon="-2.70665">
        <ele>72</ele>
        <time>2013-11-22T08:25:48Z</time>
      </trkpt>
      <trkpt lat="48.49459" lon="-2.70664">
        <ele>72</ele>
        <time>2013-11-22T08:25:49Z</time>
      </trkpt>
      <trkpt lat="48.4946" lon="-2.70663">
        <ele>72</ele>
        <time>2013-11-22T08:25:50Z</time>
      </trkpt>
      <trkpt lat="48.49461" lon="-2.70662">
        <ele>72</ele>
        <time>2013-11-22T08:25:51Z</time>
      </trkpt>
      <trkpt lat="48.49463" lon="-2.70661">
        <ele>72</ele>
        <time>2013-11-22T08:25:52Z</time>
      </trkpt>
      <trkpt lat="48.49464" lon="-2.70659">
        <ele>72</ele>
        <time>2013-11-22T08:25:53Z</time>
      </trkpt>
      <trkpt lat="48.49466" lon="-2.70658">
        <ele>72</ele>
        <time>2013-11-22T08:25:54Z</time>
      </trkpt>
      <trkpt lat="48.49467" lon="-2.70657">
        <ele>72</ele>
        <time>2013-11-22T08:25:55Z</time>
      </trkpt>
      <trkpt lat="48.49468" lon="-2.70656">
        <ele>72</ele>
        <time>2013-11-22T08:25:56Z</time>
      </trkpt>
      <trkpt lat="48.49469" lon="-2.70655">
        <ele>72</ele>
        <time>2013-11-22T08:25:57Z</time>
      </trkpt>
      <trkpt lat="48.49471" lon="-2.70654">
        <ele>72</ele>
        <time>2013-11-22T08:25:58Z</time>
      </trkpt>
      <trkpt lat="48.49472" lon="-2.70653">
        <ele>72</ele>
        <time>2013-11-22T08:25:59Z</time>
      </trkpt>
      <trkpt lat="48.49474" lon="-2.70652">
        <ele>72</ele>
        <time>2013-11-22T08:26:00Z</time>
      </trkpt>
      <trkpt lat="48.49475" lon="-2.70651">
        <ele>72</ele>
        <time>2013-11-22T08:26:01Z</time>
      </trkpt>
      <trkpt lat="48.49476" lon="-2.7065">
        <ele>72</ele>
        <time>2013-11-22T08:26:02Z</time>
      </trkpt>
      <trkpt lat="48.49477" lon="-2.70649">
        <ele>72</ele>
        <time>2013-11-22T08:26:03Z</time>
      </trkpt>
      <trkpt lat="48.49479" lon="-2.70648">
        <ele>72</ele>
        <time>2013-11-22T08:26:04Z</time>
      </trkpt>
      <trkpt lat="48.4948" lon="-2.70647">
        <ele>72</ele>
        <time>2013-11-22T08:26:05Z</time>
      </trkpt>
      <trkpt lat="48.49481" lon="-2.70646">
        <ele>72</ele>
        <time>2013-11-22T08:26:06Z</time>
      </trkpt>
      <trkpt lat="48.49483" lon="-2.70645">
        <ele>72</ele>
        <time>2013-11-22T08:26:07Z</time>
      </trkpt>
      <trkpt lat="48.49484" lon="-2.70644">
        <ele>72</ele>
        <time>2013-11-22T08:26:08Z</time>
      </trkpt>
      <trkpt lat="48.49485" lon="-2.70643">
        <ele>72</ele>
        <time>2013-11-22T08:26:09Z</time>
      </trkpt>
      <trkpt lat="48.49487" lon="-2.70641">
        <ele>72</ele>
        <time>2013-11-22T08:26:10Z</time>
      </trkpt>
      <trkpt lat="48.49488" lon="-2.7064">
        <ele>72</ele>
        <time>2013-11-22T08:26:11Z</time>
      </trkpt>
      <trkpt lat="48.4949" lon="-2.70639">
        <ele>72</ele>
        <time>2013-11-22T08:26:12Z</time>
      </trkpt>
      <trkpt lat="48.49491" lon="-2.70638">
        <ele>72</ele>
        <time>2013-11-22T08:26:13Z</time>
      </trkpt>
      <trkpt lat="48.49492" lon="-2.70637">
        <ele>72</ele>
        <time>2013-11-22T08:26:14Z</time>
      </trkpt>
      <trkpt lat="48.49494" lon="-2.70636">
        <ele>72</ele>
        <time>2013-11-22T08:26:15Z</time>
      </trkpt>
      <trkpt lat="48.49495" lon="-2.70635">
        <ele>72</ele>
        <time>2013-11-22T08:26:16Z</time>
      </trkpt>
      <trkpt lat="48.49497" lon="-2.70634">
        <ele>72</ele>
        <time>2013-11-22T08:26:17Z</time>
      </trkpt>
      <trkpt lat="48.49498" lon="-2.70633">
        <ele>72</ele>
        <time>2013-11-22T08:26:18Z</time>
      </trkpt>
      <trkpt lat="48.495" lon="-2.70632">
        <ele>72</ele>
        <time>2013-11-22T08:26:19Z</time>
      </trkpt>
      <trkpt lat="48.49501" lon="-2.70631">
        <ele>72</ele>
        <time>2013-11-22T08:26:20Z</time>
      </trkpt>
      <trkpt lat="48.49503" lon="-2.7063">
        <ele>72</ele>
        <time>2013-11-22T08:26:21Z</time>
      </trkpt>
      <trkpt lat="48.49504" lon="-2.70629">
        <ele>72</ele>
        <time>2013-11-22T08:26:22Z</time>
      </trkpt>
      <trkpt lat="48.49506" lon="-2.70628">
        <ele>72</ele>
        <time>2013-11-22T08:26:23Z</time>
      </trkpt>
      <trkpt lat="48.49507" lon="-2.70627">
        <ele>72</ele>
        <time>2013-11-22T08:26:24Z</time>
      </trkpt>
      <trkpt lat="48.49509" lon="-2.70626">
        <ele>72</ele>
        <time>2013-11-22T08:26:25Z</time>
      </trkpt>
      <trkpt lat="48.4951" lon="-2.70626">
        <ele>72</ele>
        <time>2013-11-22T08:26:26Z</time>
      </trkpt>
      <trkpt lat="48.49512" lon="-2.70625">
        <ele>72</ele>
        <time>2013-11-22T08:26:27Z</time>
      </trkpt>
      <trkpt lat="48.49513" lon="-2.70624">
        <ele>72</ele>
        <time>2013-11-22T08:26:28Z</time>
      </trkpt>
      <trkpt lat="48.49514" lon="-2.70624">
        <ele>72</ele>
        <time>2013-11-22T08:26:29Z</time>
      </trkpt>
      <trkpt lat="48.49516" lon="-2.70624">
        <ele>72</ele>
        <time>2013-11-22T08:26:30Z</time>
      </trkpt>
      <trkpt lat="48.49518" lon="-2.70624">
        <ele>72</ele>
        <time>2013-11-22T08:26:31Z</time>
      </trkpt>
      <trkpt lat="48.49521" lon="-2.70624">
        <ele>72</ele>
        <time>2013-11-22T08:26:33Z</time>
      </trkpt>
      <trkpt lat="48.49522" lon="-2.70624">
        <ele>72</ele>
        <time>2013-11-22T08:26:34Z</time>
      </trkpt>
      <trkpt lat="48.49524" lon="-2.70625">
        <ele>72</ele>
        <time>2013-11-22T08:26:35Z</time>
      </trkpt>
      <trkpt lat="48.49525" lon="-2.70625">
        <ele>72</ele>
        <time>2013-11-22T08:26:36Z</time>
      </trkpt>
      <trkpt lat="48.49527" lon="-2.70625">
        <ele>72</ele>
        <time>2013-11-22T08:26:37Z</time>
      </trkpt>
      <trkpt lat="48.49528" lon="-2.70626">
        <ele>72</ele>
        <time>2013-11-22T08:26:38Z</time>
      </trkpt>
      <trkpt lat="48.4953" lon="-2.70626">
        <ele>72</ele>
        <time>2013-11-22T08:26:39Z</time>
      </trkpt>
      <trkpt lat="48.49531" lon="-2.70627">
        <ele>72</ele>
        <time>2013-11-22T08:26:40Z</time>
      </trkpt>
      <trkpt lat="48.49532" lon="-2.70628">
        <ele>72</ele>
        <time>2013-11-22T08:26:41Z</time>
      </trkpt>
      <trkpt lat="48.49534" lon="-2.70628">
        <ele>72</ele>
        <time>2013-11-22T08:26:42Z</time>
      </trkpt>
      <trkpt lat="48.49535" lon="-2.70629">
        <ele>72</ele>
        <time>2013-11-22T08:26:43Z</time>
      </trkpt>
      <trkpt lat="48.49537" lon="-2.7063">
        <ele>72</ele>
        <time>2013-11-22T08:26:44Z</time>
      </trkpt>
      <trkpt lat="48.49538" lon="-2.70631">
        <ele>72</ele>
        <time>2013-11-22T08:26:45Z</time>
      </trkpt>
      <trkpt lat="48.4954" lon="-2.70632">
        <ele>72</ele>
        <time>2013-11-22T08:26:46Z</time>
      </trkpt>
      <trkpt lat="48.49541" lon="-2.70633">
        <ele>72</ele>
        <time>2013-11-22T08:26:47Z</time>
      </trkpt>
      <trkpt lat="48.49542" lon="-2.70634">
        <ele>72</ele>
        <time>2013-11-22T08:26:48Z</time>
      </trkpt>
      <trkpt lat="48.49544" lon="-2.70635">
        <ele>72</ele>
        <time>2013-11-22T08:26:49Z</time>
      </trkpt>
      <trkpt lat="48.49545" lon="-2.70636">
        <ele>72</ele>
        <time>2013-11-22T08:26:50Z</time>
      </trkpt>
      <trkpt lat="48.49546" lon="-2.70637">
        <ele>72</ele>
        <time>2013-11-22T08:26:51Z</time>
      </trkpt>
      <trkpt lat="48.49548" lon="-2.70638">
        <ele>72</ele>
        <time>2013-11-22T08:26:52Z</time>
      </trkpt>
      <trkpt lat="48.49549" lon="-2.70639">
        <ele>72</ele>
        <time>2013-11-22T08:26:53Z</time>
      </trkpt>
      <trkpt lat="48.49551" lon="-2.7064">
        <ele>72</ele>
        <time>2013-11-22T08:26:54Z</time>
      </trkpt>
      <trkpt lat="48.49552" lon="-2.70641">
        <ele>72</ele>
        <time>2013-11-22T08:26:55Z</time>
      </trkpt>
      <trkpt lat="48.49553" lon="-2.70643">
        <ele>72</ele>
        <time>2013-11-22T08:26:56Z</time>
      </trkpt>
      <trkpt lat="48.49555" lon="-2.70645">
        <ele>72</ele>
        <time>2013-11-22T08:26:58Z</time>
      </trkpt>
      <trkpt lat="48.49557" lon="-2.70648">
        <ele>72</ele>
        <time>2013-11-22T08:27:00Z</time>
      </trkpt>
      <trkpt lat="48.49558" lon="-2.70649">
        <ele>72</ele>
        <time>2013-11-22T08:27:01Z</time>
      </trkpt>
      <trkpt lat="48.49559" lon="-2.70651">
        <ele>72</ele>
        <time>2013-11-22T08:27:02Z</time>
      </trkpt>
      <trkpt lat="48.49561" lon="-2.70652">
        <ele>72</ele>
        <time>2013-11-22T08:27:03Z</time>
      </trkpt>
      <trkpt lat="48.49563" lon="-2.70655">
        <ele>72</ele>
        <time>2013-11-22T08:27:05Z</time>
      </trkpt>
      <trkpt lat="48.49564" lon="-2.70656">
        <ele>72</ele>
        <time>2013-11-22T08:27:06Z</time>
      </trkpt>
      <trkpt lat="48.49565" lon="-2.70657">
        <ele>72</ele>
        <time>2013-11-22T08:27:07Z</time>
      </trkpt>
      <trkpt lat="48.49567" lon="-2.7066">
        <ele>72</ele>
        <time>2013-11-22T08:27:09Z</time>
      </trkpt>
      <trkpt lat="48.49569" lon="-2.70661">
        <ele>72</ele>
        <time>2013-11-22T08:27:10Z</time>
      </trkpt>
      <trkpt lat="48.49571" lon="-2.70664">
        <ele>72</ele>
        <time>2013-11-22T08:27:12Z</time>
      </trkpt>
      <trkpt lat="48.49572" lon="-2.70665">
        <ele>72</ele>
        <time>2013-11-22T08:27:13Z</time>
      </trkpt>
      <trkpt lat="48.49574" lon="-2.70667">
        <ele>72</ele>
        <time>2013-11-22T08:27:14Z</time>
      </trkpt>
      <trkpt lat="48.49575" lon="-2.70668">
        <ele>72</ele>
        <time>2013-11-22T08:27:15Z</time>
      </trkpt>
      <trkpt lat="48.49576" lon="-2.70669">
        <ele>72</ele>
        <time>2013-11-22T08:27:16Z</time>
      </trkpt>
      <trkpt lat="48.49577" lon="-2.70671">
        <ele>72</ele>
        <time>2013-11-22T08:27:17Z</time>
      </trkpt>
      <trkpt lat="48.49579" lon="-2.70672">
        <ele>72</ele>
        <time>2013-11-22T08:27:18Z</time>
      </trkpt>
      <trkpt lat="48.4958" lon="-2.70673">
        <ele>72</ele>
        <time>2013-11-22T08:27:19Z</time>
      </trkpt>
      <trkpt lat="48.49581" lon="-2.70675">
        <ele>72</ele>
        <time>2013-11-22T08:27:20Z</time>
      </trkpt>
      <trkpt lat="48.49582" lon="-2.70676">
        <ele>72</ele>
        <time>2013-11-22T08:27:21Z</time>
      </trkpt>
      <trkpt lat="48.49583" lon="-2.70678">
        <ele>72</ele>
        <time>2013-11-22T08:27:22Z</time>
      </trkpt>
      <trkpt lat="48.49585" lon="-2.7068">
        <ele>72</ele>
        <time>2013-11-22T08:27:23Z</time>
      </trkpt>
      <trkpt lat="48.49586" lon="-2.70681">
        <ele>72</ele>
        <time>2013-11-22T08:27:24Z</time>
      </trkpt>
      <trkpt lat="48.49587" lon="-2.70683">
        <ele>72</ele>
        <time>2013-11-22T08:27:25Z</time>
      </trkpt>
      <trkpt lat="48.49588" lon="-2.70685">
        <ele>72</ele>
        <time>2013-11-22T08:27:26Z</time>
      </trkpt>
      <trkpt lat="48.49589" lon="-2.70687">
        <ele>72</ele>
        <time>2013-11-22T08:27:27Z</time>
      </trkpt>
      <trkpt lat="48.4959" lon="-2.70689">
        <ele>72</ele>
        <time>2013-11-22T08:27:28Z</time>
      </trkpt>
      <trkpt lat="48.49591" lon="-2.7069">
        <ele>72</ele>
        <time>2013-11-22T08:27:29Z</time>
      </trkpt>
      <trkpt lat="48.49591" lon="-2.70692">
        <ele>72</ele>
        <time>2013-11-22T08:27:30Z</time>
      </trkpt>
      <trkpt lat="48.49592" lon="-2.70694">
        <ele>72</ele>
        <time>2013-11-22T08:27:31Z</time>
      </trkpt>
      <trkpt lat="48.49593" lon="-2.70696">
        <ele>72</ele>
        <time>2013-11-22T08:27:32Z</time>
      </trkpt>
      <trkpt lat="48.49594" lon="-2.70698">
        <ele>72</ele>
        <time>2013-11-22T08:27:33Z</time>
      </trkpt>
      <trkpt lat="48.49595" lon="-2.707">
        <ele>72</ele>
        <time>2013-11-22T08:27:34Z</time>
      </trkpt>
      <trkpt lat="48.49595" lon="-2.70702">
        <ele>72</ele>
        <time>2013-11-22T08:27:35Z</time>
      </trkpt>
      <trkpt lat="48.49596" lon="-2.70704">
        <ele>72</ele>
        <time>2013-11-22T08:27:36Z</time>
      </trkpt>
      <trkpt lat="48.49597" lon="-2.70705">
        <ele>72</ele>
        <time>2013-11-22T08:27:37Z</time>
      </trkpt>
      <trkpt lat="48.49599" lon="-2.70708">
        <ele>72</ele>
        <time>2013-11-22T08:27:39Z</time>
      </trkpt>
      <trkpt lat="48.49601" lon="-2.70709">
        <ele>72</ele>
        <time>2013-11-22T08:27:40Z</time>
      </trkpt>
      <trkpt lat="48.49603" lon="-2.70712">
        <ele>72</ele>
        <time>2013-11-22T08:27:42Z</time>
      </trkpt>
      <trkpt lat="48.49604" lon="-2.70713">
        <ele>72</ele>
        <time>2013-11-22T08:27:43Z</time>
      </trkpt>
      <trkpt lat="48.49605" lon="-2.70714">
        <ele>72</ele>
        <time>2013-11-22T08:27:44Z</time>
      </trkpt>
      <trkpt lat="48.49606" lon="-2.70716">
        <ele>72</ele>
        <time>2013-11-22T08:27:45Z</time>
      </trkpt>
      <trkpt lat="48.49609" lon="-2.70719">
        <ele>72</ele>
        <time>2013-11-22T08:27:47Z</time>
      </trkpt>
      <trkpt lat="48.4961" lon="-2.70721">
        <ele>72</ele>
        <time>2013-11-22T08:27:48Z</time>
      </trkpt>
      <trkpt lat="48.49611" lon="-2.70722">
        <ele>72</ele>
        <time>2013-11-22T08:27:49Z</time>
      </trkpt>
      <trkpt lat="48.49612" lon="-2.70724">
        <ele>72</ele>
        <time>2013-11-22T08:27:50Z</time>
      </trkpt>
      <trkpt lat="48.49614" lon="-2.70725">
        <ele>72</ele>
        <time>2013-11-22T08:27:51Z</time>
      </trkpt>
      <trkpt lat="48.49615" lon="-2.70727">
        <ele>72</ele>
        <time>2013-11-22T08:27:52Z</time>
      </trkpt>
      <trkpt lat="48.49616" lon="-2.70728">
        <ele>72</ele>
        <time>2013-11-22T08:27:53Z</time>
      </trkpt>
      <trkpt lat="48.49617" lon="-2.7073">
        <ele>72</ele>
        <time>2013-11-22T08:27:54Z</time>
      </trkpt>
      <trkpt lat="48.49619" lon="-2.70731">
        <ele>72</ele>
        <time>2013-11-22T08:27:55Z</time>
      </trkpt>
      <trkpt lat="48.4962" lon="-2.70733">
        <ele>72</ele>
        <time>2013-11-22T08:27:56Z</time>
      </trkpt>
      <trkpt lat="48.49622" lon="-2.70734">
        <ele>72</ele>
        <time>2013-11-22T08:27:57Z</time>
      </trkpt>
      <trkpt lat="48.49623" lon="-2.70735">
        <ele>72</ele>
        <time>2013-11-22T08:27:58Z</time>
      </trkpt>
      <trkpt lat="48.49624" lon="-2.70736">
        <ele>72</ele>
        <time>2013-11-22T08:27:59Z</time>
      </trkpt>
      <trkpt lat="48.49625" lon="-2.70738">
        <ele>72</ele>
        <time>2013-11-22T08:28:00Z</time>
      </trkpt>
      <trkpt lat="48.49627" lon="-2.70739">
        <ele>72</ele>
        <time>2013-11-22T08:28:01Z</time>
      </trkpt>
      <trkpt lat="48.49628" lon="-2.70741">
        <ele>72</ele>
        <time>2013-11-22T08:28:02Z</time>
      </trkpt>
      <trkpt lat="48.4963" lon="-2.70742">
        <ele>72</ele>
        <time>2013-11-22T08:28:03Z</time>
      </trkpt>
      <trkpt lat="48.49631" lon="-2.70744">
        <ele>72</ele>
        <time>2013-11-22T08:28:04Z</time>
      </trkpt>
      <trkpt lat="48.49633" lon="-2.70747">
        <ele>72</ele>
        <time>2013-11-22T08:28:06Z</time>
      </trkpt>
      <trkpt lat="48.49635" lon="-2.7075">
        <ele>72</ele>
        <time>2013-11-22T08:28:08Z</time>
      </trkpt>
      <trkpt lat="48.49637" lon="-2.70752">
        <ele>72</ele>
        <time>2013-11-22T08:28:10Z</time>
      </trkpt>
      <trkpt lat="48.49638" lon="-2.70754">
        <ele>72</ele>
        <time>2013-11-22T08:28:11Z</time>
      </trkpt>
      <trkpt lat="48.4964" lon="-2.70755">
        <ele>73</ele>
        <time>2013-11-22T08:28:12Z</time>
      </trkpt>
      <trkpt lat="48.49641" lon="-2.70756">
        <ele>73</ele>
        <time>2013-11-22T08:28:13Z</time>
      </trkpt>
      <trkpt lat="48.49642" lon="-2.70758">
        <ele>73</ele>
        <time>2013-11-22T08:28:14Z</time>
      </trkpt>
      <trkpt lat="48.49643" lon="-2.70759">
        <ele>73</ele>
        <time>2013-11-22T08:28:15Z</time>
      </trkpt>
      <trkpt lat="48.49644" lon="-2.70761">
        <ele>73</ele>
        <time>2013-11-22T08:28:16Z</time>
      </trkpt>
      <trkpt lat="48.49647" lon="-2.70763">
        <ele>73</ele>
        <time>2013-11-22T08:28:18Z</time>
      </trkpt>
      <trkpt lat="48.49648" lon="-2.70764">
        <ele>73</ele>
        <time>2013-11-22T08:28:19Z</time>
      </trkpt>
      <trkpt lat="48.49649" lon="-2.70766">
        <ele>73</ele>
        <time>2013-11-22T08:28:20Z</time>
      </trkpt>
      <trkpt lat="48.49651" lon="-2.70768">
        <ele>73</ele>
        <time>2013-11-22T08:28:22Z</time>
      </trkpt>
      <trkpt lat="48.49652" lon="-2.7077">
        <ele>73</ele>
        <time>2013-11-22T08:28:23Z</time>
      </trkpt>
      <trkpt lat="48.49654" lon="-2.70773">
        <ele>73</ele>
        <time>2013-11-22T08:28:25Z</time>
      </trkpt>
      <trkpt lat="48.49656" lon="-2.70775">
        <ele>74</ele>
        <time>2013-11-22T08:28:27Z</time>
      </trkpt>
      <trkpt lat="48.49658" lon="-2.70778">
        <ele>74</ele>
        <time>2013-11-22T08:28:29Z</time>
      </trkpt>
      <trkpt lat="48.49659" lon="-2.70779">
        <ele>74</ele>
        <time>2013-11-22T08:28:30Z</time>
      </trkpt>
      <trkpt lat="48.4966" lon="-2.7078">
        <ele>74</ele>
        <time>2013-11-22T08:28:31Z</time>
      </trkpt>
      <trkpt lat="48.49662" lon="-2.70781">
        <ele>74</ele>
        <time>2013-11-22T08:28:32Z</time>
      </trkpt>
      <trkpt lat="48.49663" lon="-2.70783">
        <ele>74</ele>
        <time>2013-11-22T08:28:33Z</time>
      </trkpt>
      <trkpt lat="48.49664" lon="-2.70784">
        <ele>74</ele>
        <time>2013-11-22T08:28:34Z</time>
      </trkpt>
      <trkpt lat="48.49665" lon="-2.70786">
        <ele>75</ele>
        <time>2013-11-22T08:28:35Z</time>
      </trkpt>
      <trkpt lat="48.49666" lon="-2.70787">
        <ele>75</ele>
        <time>2013-11-22T08:28:36Z</time>
      </trkpt>
      <trkpt lat="48.49668" lon="-2.70789">
        <ele>75</ele>
        <time>2013-11-22T08:28:38Z</time>
      </trkpt>
      <trkpt lat="48.49669" lon="-2.7079">
        <ele>75</ele>
        <time>2013-11-22T08:28:39Z</time>
      </trkpt>
      <trkpt lat="48.49671" lon="-2.70792">
        <ele>75</ele>
        <time>2013-11-22T08:28:40Z</time>
      </trkpt>
      <trkpt lat="48.49672" lon="-2.70793">
        <ele>75</ele>
        <time>2013-11-22T08:28:41Z</time>
      </trkpt>
      <trkpt lat="48.49673" lon="-2.70794">
        <ele>75</ele>
        <time>2013-11-22T08:28:42Z</time>
      </trkpt>
      <trkpt lat="48.49675" lon="-2.70796">
        <ele>75</ele>
        <time>2013-11-22T08:28:43Z</time>
      </trkpt>
      <trkpt lat="48.49676" lon="-2.70797">
        <ele>75</ele>
        <time>2013-11-22T08:28:44Z</time>
      </trkpt>
      <trkpt lat="48.49677" lon="-2.70798">
        <ele>75</ele>
        <time>2013-11-22T08:28:45Z</time>
      </trkpt>
      <trkpt lat="48.49679" lon="-2.70799">
        <ele>75</ele>
        <time>2013-11-22T08:28:46Z</time>
      </trkpt>
      <trkpt lat="48.4968" lon="-2.708">
        <ele>75</ele>
        <time>2013-11-22T08:28:47Z</time>
      </trkpt>
      <trkpt lat="48.49681" lon="-2.70802">
        <ele>75</ele>
        <time>2013-11-22T08:28:48Z</time>
      </trkpt>
      <trkpt lat="48.49683" lon="-2.70803">
        <ele>76</ele>
        <time>2013-11-22T08:28:49Z</time>
      </trkpt>
      <trkpt lat="48.49684" lon="-2.70805">
        <ele>76</ele>
        <time>2013-11-22T08:28:50Z</time>
      </trkpt>
      <trkpt lat="48.49685" lon="-2.70806">
        <ele>76</ele>
        <time>2013-11-22T08:28:51Z</time>
      </trkpt>
      <trkpt lat="48.49687" lon="-2.70807">
        <ele>76</ele>
        <time>2013-11-22T08:28:52Z</time>
      </trkpt>
      <trkpt lat="48.49688" lon="-2.70808">
        <ele>76</ele>
        <time>2013-11-22T08:28:53Z</time>
      </trkpt>
      <trkpt lat="48.49689" lon="-2.70809">
        <ele>76</ele>
        <time>2013-11-22T08:28:54Z</time>
      </trkpt>
      <trkpt lat="48.4969" lon="-2.7081">
        <ele>76</ele>
        <time>2013-11-22T08:28:55Z</time>
      </trkpt>
      <trkpt lat="48.49691" lon="-2.70811">
        <ele>76</ele>
        <time>2013-11-22T08:28:56Z</time>
      </trkpt>
      <trkpt lat="48.49693" lon="-2.70811">
        <ele>76</ele>
        <time>2013-11-22T08:28:57Z</time>
      </trkpt>
      <trkpt lat="48.49695" lon="-2.70813">
        <ele>76</ele>
        <time>2013-11-22T08:28:59Z</time>
      </trkpt>
      <trkpt lat="48.49697" lon="-2.70816">
        <ele>76</ele>
        <time>2013-11-22T08:29:01Z</time>
      </trkpt>
      <trkpt lat="48.49699" lon="-2.70819">
        <ele>76</ele>
        <time>2013-11-22T08:29:03Z</time>
      </trkpt>
      <trkpt lat="48.497" lon="-2.7082">
        <ele>76</ele>
        <time>2013-11-22T08:29:04Z</time>
      </trkpt>
      <trkpt lat="48.49701" lon="-2.70821">
        <ele>76</ele>
        <time>2013-11-22T08:29:05Z</time>
      </trkpt>
      <trkpt lat="48.49703" lon="-2.70821">
        <ele>76</ele>
        <time>2013-11-22T08:29:06Z</time>
      </trkpt>
      <trkpt lat="48.49705" lon="-2.70821">
        <ele>76</ele>
        <time>2013-11-22T08:29:07Z</time>
      </trkpt>
      <trkpt lat="48.49707" lon="-2.70822">
        <ele>76</ele>
        <time>2013-11-22T08:29:08Z</time>
      </trkpt>
      <trkpt lat="48.49708" lon="-2.70823">
        <ele>76</ele>
        <time>2013-11-22T08:29:09Z</time>
      </trkpt>
      <trkpt lat="48.49709" lon="-2.70824">
        <ele>76</ele>
        <time>2013-11-22T08:29:10Z</time>
      </trkpt>
      <trkpt lat="48.4971" lon="-2.70826">
        <ele>76</ele>
        <time>2013-11-22T08:29:11Z</time>
      </trkpt>
      <trkpt lat="48.49711" lon="-2.70828">
        <ele>76</ele>
        <time>2013-11-22T08:29:12Z</time>
      </trkpt>
      <trkpt lat="48.49713" lon="-2.7083">
        <ele>76</ele>
        <time>2013-11-22T08:29:14Z</time>
      </trkpt>
      <trkpt lat="48.49715" lon="-2.70831">
        <ele>76</ele>
        <time>2013-11-22T08:29:16Z</time>
      </trkpt>
      <trkpt lat="48.49716" lon="-2.70833">
        <ele>76</ele>
        <time>2013-11-22T08:29:17Z</time>
      </trkpt>
      <trkpt lat="48.49717" lon="-2.70835">
        <ele>76</ele>
        <time>2013-11-22T08:29:18Z</time>
      </trkpt>
      <trkpt lat="48.49719" lon="-2.70837">
        <ele>76</ele>
        <time>2013-11-22T08:29:20Z</time>
      </trkpt>
      <trkpt lat="48.4972" lon="-2.70839">
        <ele>76</ele>
        <time>2013-11-22T08:29:21Z</time>
      </trkpt>
      <trkpt lat="48.49722" lon="-2.7084">
        <ele>76</ele>
        <time>2013-11-22T08:29:22Z</time>
      </trkpt>
      <trkpt lat="48.49723" lon="-2.70841">
        <ele>76</ele>
        <time>2013-11-22T08:29:23Z</time>
      </trkpt>
      <trkpt lat="48.49724" lon="-2.70842">
        <ele>76</ele>
        <time>2013-11-22T08:29:24Z</time>
      </trkpt>
      <trkpt lat="48.49725" lon="-2.70846">
        <ele>76</ele>
        <time>2013-11-22T08:29:26Z</time>
      </trkpt>
      <trkpt lat="48.49727" lon="-2.70848">
        <ele>76</ele>
        <time>2013-11-22T08:29:28Z</time>
      </trkpt>
      <trkpt lat="48.49728" lon="-2.70848">
        <ele>76</ele>
        <time>2013-11-22T08:29:29Z</time>
      </trkpt>
      <trkpt lat="48.4973" lon="-2.70849">
        <ele>76</ele>
        <time>2013-11-22T08:29:31Z</time>
      </trkpt>
      <trkpt lat="48.49732" lon="-2.70849">
        <ele>76</ele>
        <time>2013-11-22T08:29:33Z</time>
      </trkpt>
      <trkpt lat="48.49734" lon="-2.7085">
        <ele>76</ele>
        <time>2013-11-22T08:29:34Z</time>
      </trkpt>
      <trkpt lat="48.49735" lon="-2.7085">
        <ele>76</ele>
        <time>2013-11-22T08:29:35Z</time>
      </trkpt>
      <trkpt lat="48.49739" lon="-2.7085">
        <ele>77</ele>
        <time>2013-11-22T08:29:40Z</time>
      </trkpt>
      <trkpt lat="48.4974" lon="-2.7085">
        <ele>77</ele>
        <time>2013-11-22T08:29:42Z</time>
      </trkpt>
      <trkpt lat="48.49741" lon="-2.70851">
        <ele>77</ele>
        <time>2013-11-22T08:29:45Z</time>
      </trkpt>
      <trkpt lat="48.49743" lon="-2.70852">
        <ele>77</ele>
        <time>2013-11-22T08:29:48Z</time>
      </trkpt>
      <trkpt lat="48.49744" lon="-2.70853">
        <ele>77</ele>
        <time>2013-11-22T08:29:50Z</time>
      </trkpt>
      <trkpt lat="48.49746" lon="-2.70854">
        <ele>77</ele>
        <time>2013-11-22T08:29:52Z</time>
      </trkpt>
      <trkpt lat="48.49747" lon="-2.70854">
        <ele>77</ele>
        <time>2013-11-22T08:29:54Z</time>
      </trkpt>
      <trkpt lat="48.49749" lon="-2.70854">
        <ele>78</ele>
        <time>2013-11-22T08:29:56Z</time>
      </trkpt>
      <trkpt lat="48.4975" lon="-2.70855">
        <ele>78</ele>
        <time>2013-11-22T08:29:58Z</time>
      </trkpt>
      <trkpt lat="48.49752" lon="-2.70856">
        <ele>78</ele>
        <time>2013-11-22T08:30:01Z</time>
      </trkpt>
      <trkpt lat="48.49753" lon="-2.70856">
        <ele>78</ele>
        <time>2013-11-22T08:30:03Z</time>
      </trkpt>
      <trkpt lat="48.49755" lon="-2.70856">
        <ele>78</ele>
        <time>2013-11-22T08:30:05Z</time>
      </trkpt>
      <trkpt lat="48.49757" lon="-2.70857">
        <ele>78</ele>
        <time>2013-11-22T08:30:07Z</time>
      </trkpt>
      <trkpt lat="48.49759" lon="-2.70858">
        <ele>78</ele>
        <time>2013-11-22T08:30:09Z</time>
      </trkpt>
      <trkpt lat="48.4976" lon="-2.70858">
        <ele>78</ele>
        <time>2013-11-22T08:30:10Z</time>
      </trkpt>
      <trkpt lat="48.49762" lon="-2.70858">
        <ele>78</ele>
        <time>2013-11-22T08:30:12Z</time>
      </trkpt>
      <trkpt lat="48.49764" lon="-2.70859">
        <ele>79</ele>
        <time>2013-11-22T08:30:14Z</time>
      </trkpt>
      <trkpt lat="48.49765" lon="-2.7086">
        <ele>79</ele>
        <time>2013-11-22T08:30:15Z</time>
      </trkpt>
      <trkpt lat="48.49767" lon="-2.7086">
        <ele>79</ele>
        <time>2013-11-22T08:30:16Z</time>
      </trkpt>
      <trkpt lat="48.49768" lon="-2.7086">
        <ele>79</ele>
        <time>2013-11-22T08:30:17Z</time>
      </trkpt>
      <trkpt lat="48.4977" lon="-2.70861">
        <ele>79</ele>
        <time>2013-11-22T08:30:18Z</time>
      </trkpt>
      <trkpt lat="48.49771" lon="-2.70862">
        <ele>79</ele>
        <time>2013-11-22T08:30:20Z</time>
      </trkpt>
      <trkpt lat="48.49773" lon="-2.70862">
        <ele>79</ele>
        <time>2013-11-22T08:30:21Z</time>
      </trkpt>
      <trkpt lat="48.49774" lon="-2.70863">
        <ele>79</ele>
        <time>2013-11-22T08:30:22Z</time>
      </trkpt>
      <trkpt lat="48.49776" lon="-2.70863">
        <ele>79</ele>
        <time>2013-11-22T08:30:23Z</time>
      </trkpt>
      <trkpt lat="48.49777" lon="-2.70864">
        <ele>79</ele>
        <time>2013-11-22T08:30:24Z</time>
      </trkpt>
      <trkpt lat="48.49778" lon="-2.70864">
        <ele>79</ele>
        <time>2013-11-22T08:30:25Z</time>
      </trkpt>
      <trkpt lat="48.4978" lon="-2.70865">
        <ele>79</ele>
        <time>2013-11-22T08:30:26Z</time>
      </trkpt>
      <trkpt lat="48.49781" lon="-2.70865">
        <ele>79</ele>
        <time>2013-11-22T08:30:27Z</time>
      </trkpt>
      <trkpt lat="48.49782" lon="-2.70866">
        <ele>79</ele>
        <time>2013-11-22T08:30:28Z</time>
      </trkpt>
      <trkpt lat="48.49783" lon="-2.70867">
        <ele>79</ele>
        <time>2013-11-22T08:30:29Z</time>
      </trkpt>
      <trkpt lat="48.49785" lon="-2.70868">
        <ele>79</ele>
        <time>2013-11-22T08:30:30Z</time>
      </trkpt>
      <trkpt lat="48.49786" lon="-2.70869">
        <ele>79</ele>
        <time>2013-11-22T08:30:31Z</time>
      </trkpt>
      <trkpt lat="48.49787" lon="-2.7087">
        <ele>79</ele>
        <time>2013-11-22T08:30:32Z</time>
      </trkpt>
      <trkpt lat="48.49789" lon="-2.7087">
        <ele>79</ele>
        <time>2013-11-22T08:30:33Z</time>
      </trkpt>
      <trkpt lat="48.4979" lon="-2.70871">
        <ele>79</ele>
        <time>2013-11-22T08:30:34Z</time>
      </trkpt>
      <trkpt lat="48.49791" lon="-2.70872">
        <ele>79</ele>
        <time>2013-11-22T08:30:35Z</time>
      </trkpt>
      <trkpt lat="48.49793" lon="-2.70873">
        <ele>79</ele>
        <time>2013-11-22T08:30:36Z</time>
      </trkpt>
      <trkpt lat="48.49794" lon="-2.70874">
        <ele>79</ele>
        <time>2013-11-22T08:30:37Z</time>
      </trkpt>
      <trkpt lat="48.49795" lon="-2.70875">
        <ele>79</ele>
        <time>2013-11-22T08:30:38Z</time>
      </trkpt>
      <trkpt lat="48.49797" lon="-2.70876">
        <ele>79</ele>
        <time>2013-11-22T08:30:39Z</time>
      </trkpt>
      <trkpt lat="48.49798" lon="-2.70877">
        <ele>79</ele>
        <time>2013-11-22T08:30:40Z</time>
      </trkpt>
      <trkpt lat="48.49799" lon="-2.70877">
        <ele>79</ele>
        <time>2013-11-22T08:30:42Z</time>
      </trkpt>
      <trkpt lat="48.49798" lon="-2.70875">
        <ele>79</ele>
        <time>2013-11-22T08:30:45Z</time>
      </trkpt>
      <trkpt lat="48.49797" lon="-2.70874">
        <ele>79</ele>
        <time>2013-11-22T08:30:47Z</time>
      </trkpt>
      <trkpt lat="48.49794" lon="-2.70872">
        <ele>79</ele>
        <time>2013-11-22T08:30:49Z</time>
      </trkpt>
      <trkpt lat="48.49793" lon="-2.70871">
        <ele>79</ele>
        <time>2013-11-22T08:30:50Z</time>
      </trkpt>
      <trkpt lat="48.49792" lon="-2.7087">
        <ele>79</ele>
        <time>2013-11-22T08:30:51Z</time>
      </trkpt>
      <trkpt lat="48.49791" lon="-2.70869">
        <ele>79</ele>
        <time>2013-11-22T08:30:52Z</time>
      </trkpt>
      <trkpt lat="48.49789" lon="-2.70869">
        <ele>79</ele>
        <time>2013-11-22T08:30:54Z</time>
      </trkpt>
      <trkpt lat="48.49791" lon="-2.70869">
        <ele>79</ele>
        <time>2013-11-22T08:31:01Z</time>
      </trkpt>
      <trkpt lat="48.49789" lon="-2.70867">
        <ele>79</ele>
        <time>2013-11-22T08:31:13Z</time>
      </trkpt>
      <trkpt lat="48.49789" lon="-2.70869">
        <ele>79</ele>
        <time>2013-11-22T08:32:24Z</time>
      </trkpt>
      <trkpt lat="48.4979" lon="-2.70868">
        <ele>79</ele>
        <time>2013-11-22T08:32:29Z</time>
      </trkpt>
      <trkpt lat="48.49792" lon="-2.70869">
        <ele>79</ele>
        <time>2013-11-22T08:32:50Z</time>
      </trkpt>
      <trkpt lat="48.49793" lon="-2.7087">
        <ele>79</ele>
        <time>2013-11-22T08:32:52Z</time>
      </trkpt>
      <trkpt lat="48.49794" lon="-2.70871">
        <ele>79</ele>
        <time>2013-11-22T08:32:54Z</time>
      </trkpt>
      <trkpt lat="48.49796" lon="-2.70872">
        <ele>79</ele>
        <time>2013-11-22T08:32:55Z</time>
      </trkpt>
      <trkpt lat="48.49797" lon="-2.70873">
        <ele>79</ele>
        <time>2013-11-22T08:32:56Z</time>
      </trkpt>
      <trkpt lat="48.49798" lon="-2.70874">
        <ele>79</ele>
        <time>2013-11-22T08:32:57Z</time>
      </trkpt>
      <trkpt lat="48.49799" lon="-2.70874">
        <ele>79</ele>
        <time>2013-11-22T08:32:58Z</time>
      </trkpt>
      <trkpt lat="48.498" lon="-2.70875">
        <ele>79</ele>
        <time>2013-11-22T08:32:59Z</time>
      </trkpt>
      <trkpt lat="48.49802" lon="-2.70877">
        <ele>79</ele>
        <time>2013-11-22T08:33:01Z</time>
      </trkpt>
      <trkpt lat="48.49804" lon="-2.70878">
        <ele>79</ele>
        <time>2013-11-22T08:33:02Z</time>
      </trkpt>
      <trkpt lat="48.49805" lon="-2.70878">
        <ele>79</ele>
        <time>2013-11-22T08:33:03Z</time>
      </trkpt>
      <trkpt lat="48.49806" lon="-2.70879">
        <ele>79</ele>
        <time>2013-11-22T08:33:04Z</time>
      </trkpt>
      <trkpt lat="48.49808" lon="-2.70881">
        <ele>79</ele>
        <time>2013-11-22T08:33:05Z</time>
      </trkpt>
      <trkpt lat="48.49809" lon="-2.70882">
        <ele>79</ele>
        <time>2013-11-22T08:33:06Z</time>
      </trkpt>
      <trkpt lat="48.4981" lon="-2.70882">
        <ele>79</ele>
        <time>2013-11-22T08:33:07Z</time>
      </trkpt>
      <trkpt lat="48.49812" lon="-2.70883">
        <ele>79</ele>
        <time>2013-11-22T08:33:09Z</time>
      </trkpt>
      <trkpt lat="48.49813" lon="-2.70883">
        <ele>79</ele>
        <time>2013-11-22T08:33:12Z</time>
      </trkpt>
      <trkpt lat="48.49815" lon="-2.70884">
        <ele>79</ele>
        <time>2013-11-22T08:33:14Z</time>
      </trkpt>
      <trkpt lat="48.49816" lon="-2.70886">
        <ele>79</ele>
        <time>2013-11-22T08:33:16Z</time>
      </trkpt>
      <trkpt lat="48.4982" lon="-2.70888">
        <ele>79</ele>
        <time>2013-11-22T08:33:20Z</time>
      </trkpt>
      <trkpt lat="48.49823" lon="-2.70889">
        <ele>79</ele>
        <time>2013-11-22T08:33:22Z</time>
      </trkpt>
      <trkpt lat="48.49824" lon="-2.70889">
        <ele>79</ele>
        <time>2013-11-22T08:33:23Z</time>
      </trkpt>
      <trkpt lat="48.49825" lon="-2.7089">
        <ele>79</ele>
        <time>2013-11-22T08:33:25Z</time>
      </trkpt>
      <trkpt lat="48.49827" lon="-2.70892">
        <ele>79</ele>
        <time>2013-11-22T08:33:27Z</time>
      </trkpt>
      <trkpt lat="48.49829" lon="-2.70893">
        <ele>79</ele>
        <time>2013-11-22T08:33:29Z</time>
      </trkpt>
      <trkpt lat="48.4983" lon="-2.70894">
        <ele>79</ele>
        <time>2013-11-22T08:33:30Z</time>
      </trkpt>
      <trkpt lat="48.49832" lon="-2.70895">
        <ele>79</ele>
        <time>2013-11-22T08:33:31Z</time>
      </trkpt>
      <trkpt lat="48.49833" lon="-2.70897">
        <ele>79</ele>
        <time>2013-11-22T08:33:32Z</time>
      </trkpt>
      <trkpt lat="48.49834" lon="-2.70898">
        <ele>79</ele>
        <time>2013-11-22T08:33:33Z</time>
      </trkpt>
      <trkpt lat="48.49836" lon="-2.70898">
        <ele>79</ele>
        <time>2013-11-22T08:33:34Z</time>
      </trkpt>
      <trkpt lat="48.49837" lon="-2.70899">
        <ele>79</ele>
        <time>2013-11-22T08:33:35Z</time>
      </trkpt>
      <trkpt lat="48.49838" lon="-2.709">
        <ele>79</ele>
        <time>2013-11-22T08:33:36Z</time>
      </trkpt>
      <trkpt lat="48.4984" lon="-2.70901">
        <ele>79</ele>
        <time>2013-11-22T08:33:37Z</time>
      </trkpt>
      <trkpt lat="48.49841" lon="-2.70901">
        <ele>79</ele>
        <time>2013-11-22T08:33:38Z</time>
      </trkpt>
      <trkpt lat="48.49843" lon="-2.70902">
        <ele>79</ele>
        <time>2013-11-22T08:33:39Z</time>
      </trkpt>
      <trkpt lat="48.49844" lon="-2.70903">
        <ele>79</ele>
        <time>2013-11-22T08:33:40Z</time>
      </trkpt>
      <trkpt lat="48.49846" lon="-2.70903">
        <ele>79</ele>
        <time>2013-11-22T08:33:41Z</time>
      </trkpt>
      <trkpt lat="48.49847" lon="-2.70904">
        <ele>79</ele>
        <time>2013-11-22T08:33:42Z</time>
      </trkpt>
      <trkpt lat="48.49849" lon="-2.70905">
        <ele>79</ele>
        <time>2013-11-22T08:33:43Z</time>
      </trkpt>
      <trkpt lat="48.4985" lon="-2.70906">
        <ele>79</ele>
        <time>2013-11-22T08:33:44Z</time>
      </trkpt>
      <trkpt lat="48.49852" lon="-2.70906">
        <ele>79</ele>
        <time>2013-11-22T08:33:45Z</time>
      </trkpt>
      <trkpt lat="48.49854" lon="-2.70907">
        <ele>79</ele>
        <time>2013-11-22T08:33:46Z</time>
      </trkpt>
      <trkpt lat="48.49855" lon="-2.70908">
        <ele>79</ele>
        <time>2013-11-22T08:33:47Z</time>
      </trkpt>
      <trkpt lat="48.49857" lon="-2.70909">
        <ele>79</ele>
        <time>2013-11-22T08:33:48Z</time>
      </trkpt>
      <trkpt lat="48.49858" lon="-2.7091">
        <ele>79</ele>
        <time>2013-11-22T08:33:49Z</time>
      </trkpt>
      <trkpt lat="48.4986" lon="-2.7091">
        <ele>79</ele>
        <time>2013-11-22T08:33:50Z</time>
      </trkpt>
      <trkpt lat="48.49862" lon="-2.70911">
        <ele>79</ele>
        <time>2013-11-22T08:33:51Z</time>
      </trkpt>
      <trkpt lat="48.49864" lon="-2.70912">
        <ele>79</ele>
        <time>2013-11-22T08:33:52Z</time>
      </trkpt>
      <trkpt lat="48.49866" lon="-2.70913">
        <ele>79</ele>
        <time>2013-11-22T08:33:53Z</time>
      </trkpt>
      <trkpt lat="48.49867" lon="-2.70913">
        <ele>79</ele>
        <time>2013-11-22T08:33:54Z</time>
      </trkpt>
      <trkpt lat="48.49869" lon="-2.70914">
        <ele>79</ele>
        <time>2013-11-22T08:33:55Z</time>
      </trkpt>
      <trkpt lat="48.4987" lon="-2.70915">
        <ele>79</ele>
        <time>2013-11-22T08:33:56Z</time>
      </trkpt>
      <trkpt lat="48.49871" lon="-2.70916">
        <ele>79</ele>
        <time>2013-11-22T08:33:57Z</time>
      </trkpt>
      <trkpt lat="48.49873" lon="-2.70916">
        <ele>79</ele>
        <time>2013-11-22T08:33:58Z</time>
      </trkpt>
      <trkpt lat="48.49874" lon="-2.70916">
        <ele>79</ele>
        <time>2013-11-22T08:33:59Z</time>
      </trkpt>
      <trkpt lat="48.49876" lon="-2.70917">
        <ele>79</ele>
        <time>2013-11-22T08:34:00Z</time>
      </trkpt>
      <trkpt lat="48.49878" lon="-2.70918">
        <ele>79</ele>
        <time>2013-11-22T08:34:01Z</time>
      </trkpt>
      <trkpt lat="48.49879" lon="-2.70919">
        <ele>79</ele>
        <time>2013-11-22T08:34:02Z</time>
      </trkpt>
      <trkpt lat="48.49881" lon="-2.70919">
        <ele>79</ele>
        <time>2013-11-22T08:34:03Z</time>
      </trkpt>
      <trkpt lat="48.49882" lon="-2.7092">
        <ele>79</ele>
        <time>2013-11-22T08:34:04Z</time>
      </trkpt>
      <trkpt lat="48.49884" lon="-2.7092">
        <ele>79</ele>
        <time>2013-11-22T08:34:05Z</time>
      </trkpt>
      <trkpt lat="48.49885" lon="-2.70921">
        <ele>79</ele>
        <time>2013-11-22T08:34:06Z</time>
      </trkpt>
      <trkpt lat="48.49886" lon="-2.70921">
        <ele>79</ele>
        <time>2013-11-22T08:34:07Z</time>
      </trkpt>
      <trkpt lat="48.49888" lon="-2.70922">
        <ele>79</ele>
        <time>2013-11-22T08:34:08Z</time>
      </trkpt>
      <trkpt lat="48.49889" lon="-2.70922">
        <ele>79</ele>
        <time>2013-11-22T08:34:09Z</time>
      </trkpt>
      <trkpt lat="48.49891" lon="-2.70923">
        <ele>79</ele>
        <time>2013-11-22T08:34:10Z</time>
      </trkpt>
      <trkpt lat="48.49892" lon="-2.70923">
        <ele>79</ele>
        <time>2013-11-22T08:34:11Z</time>
      </trkpt>
      <trkpt lat="48.49893" lon="-2.70924">
        <ele>79</ele>
        <time>2013-11-22T08:34:12Z</time>
      </trkpt>
      <trkpt lat="48.49895" lon="-2.70925">
        <ele>79</ele>
        <time>2013-11-22T08:34:13Z</time>
      </trkpt>
      <trkpt lat="48.49896" lon="-2.70925">
        <ele>79</ele>
        <time>2013-11-22T08:34:14Z</time>
      </trkpt>
      <trkpt lat="48.49898" lon="-2.70926">
        <ele>79</ele>
        <time>2013-11-22T08:34:15Z</time>
      </trkpt>
      <trkpt lat="48.49899" lon="-2.70927">
        <ele>79</ele>
        <time>2013-11-22T08:34:16Z</time>
      </trkpt>
      <trkpt lat="48.49901" lon="-2.70927">
        <ele>79</ele>
        <time>2013-11-22T08:34:17Z</time>
      </trkpt>
      <trkpt lat="48.49902" lon="-2.70927">
        <ele>79</ele>
        <time>2013-11-22T08:34:18Z</time>
      </trkpt>
      <trkpt lat="48.49904" lon="-2.70928">
        <ele>79</ele>
        <time>2013-11-22T08:34:19Z</time>
      </trkpt>
      <trkpt lat="48.49905" lon="-2.70928">
        <ele>79</ele>
        <time>2013-11-22T08:34:20Z</time>
      </trkpt>
      <trkpt lat="48.49907" lon="-2.70929">
        <ele>79</ele>
        <time>2013-11-22T08:34:21Z</time>
      </trkpt>
      <trkpt lat="48.49908" lon="-2.70929">
        <ele>79</ele>
        <time>2013-11-22T08:34:22Z</time>
      </trkpt>
      <trkpt lat="48.4991" lon="-2.7093">
        <ele>79</ele>
        <time>2013-11-22T08:34:23Z</time>
      </trkpt>
      <trkpt lat="48.49911" lon="-2.7093">
        <ele>79</ele>
        <time>2013-11-22T08:34:24Z</time>
      </trkpt>
      <trkpt lat="48.49913" lon="-2.7093">
        <ele>79</ele>
        <time>2013-11-22T08:34:25Z</time>
      </trkpt>
      <trkpt lat="48.49914" lon="-2.70931">
        <ele>79</ele>
        <time>2013-11-22T08:34:26Z</time>
      </trkpt>
      <trkpt lat="48.49916" lon="-2.70931">
        <ele>79</ele>
        <time>2013-11-22T08:34:27Z</time>
      </trkpt>
      <trkpt lat="48.49919" lon="-2.70931">
        <ele>79</ele>
        <time>2013-11-22T08:34:29Z</time>
      </trkpt>
      <trkpt lat="48.49922" lon="-2.70931">
        <ele>79</ele>
        <time>2013-11-22T08:34:31Z</time>
      </trkpt>
      <trkpt lat="48.49923" lon="-2.70932">
        <ele>79</ele>
        <time>2013-11-22T08:34:32Z</time>
      </trkpt>
      <trkpt lat="48.49925" lon="-2.70932">
        <ele>79</ele>
        <time>2013-11-22T08:34:33Z</time>
      </trkpt>
      <trkpt lat="48.49928" lon="-2.70932">
        <ele>79</ele>
        <time>2013-11-22T08:34:35Z</time>
      </trkpt>
      <trkpt lat="48.49929" lon="-2.70932">
        <ele>79</ele>
        <time>2013-11-22T08:34:36Z</time>
      </trkpt>
      <trkpt lat="48.49932" lon="-2.70933">
        <ele>79</ele>
        <time>2013-11-22T08:34:38Z</time>
      </trkpt>
      <trkpt lat="48.49934" lon="-2.70933">
        <ele>79</ele>
        <time>2013-11-22T08:34:39Z</time>
      </trkpt>
      <trkpt lat="48.49935" lon="-2.70933">
        <ele>79</ele>
        <time>2013-11-22T08:34:40Z</time>
      </trkpt>
      <trkpt lat="48.49938" lon="-2.70933">
        <ele>79</ele>
        <time>2013-11-22T08:34:42Z</time>
      </trkpt>
      <trkpt lat="48.4994" lon="-2.70933">
        <ele>79</ele>
        <time>2013-11-22T08:34:44Z</time>
      </trkpt>
      <trkpt lat="48.49947" lon="-2.70932">
        <ele>79</ele>
        <time>2013-11-22T08:34:49Z</time>
      </trkpt>
      <trkpt lat="48.49949" lon="-2.70932">
        <ele>79</ele>
        <time>2013-11-22T08:34:50Z</time>
      </trkpt>
      <trkpt lat="48.49953" lon="-2.70932">
        <ele>79</ele>
        <time>2013-11-22T08:34:53Z</time>
      </trkpt>
      <trkpt lat="48.49955" lon="-2.70932">
        <ele>79</ele>
        <time>2013-11-22T08:34:54Z</time>
      </trkpt>
      <trkpt lat="48.49956" lon="-2.70932">
        <ele>79</ele>
        <time>2013-11-22T08:34:55Z</time>
      </trkpt>
      <trkpt lat="48.4996" lon="-2.70932">
        <ele>79</ele>
        <time>2013-11-22T08:34:58Z</time>
      </trkpt>
      <trkpt lat="48.49962" lon="-2.70931">
        <ele>79</ele>
        <time>2013-11-22T08:34:59Z</time>
      </trkpt>
      <trkpt lat="48.49963" lon="-2.70931">
        <ele>79</ele>
        <time>2013-11-22T08:35:00Z</time>
      </trkpt>
      <trkpt lat="48.49966" lon="-2.70931">
        <ele>78</ele>
        <time>2013-11-22T08:35:02Z</time>
      </trkpt>
      <trkpt lat="48.49968" lon="-2.70931">
        <ele>78</ele>
        <time>2013-11-22T08:35:03Z</time>
      </trkpt>
      <trkpt lat="48.49969" lon="-2.70931">
        <ele>78</ele>
        <time>2013-11-22T08:35:04Z</time>
      </trkpt>
      <trkpt lat="48.49971" lon="-2.7093">
        <ele>78</ele>
        <time>2013-11-22T08:35:05Z</time>
      </trkpt>
      <trkpt lat="48.49972" lon="-2.7093">
        <ele>78</ele>
        <time>2013-11-22T08:35:06Z</time>
      </trkpt>
      <trkpt lat="48.49975" lon="-2.7093">
        <ele>78</ele>
        <time>2013-11-22T08:35:08Z</time>
      </trkpt>
      <trkpt lat="48.49976" lon="-2.7093">
        <ele>78</ele>
        <time>2013-11-22T08:35:09Z</time>
      </trkpt>
      <trkpt lat="48.49978" lon="-2.7093">
        <ele>78</ele>
        <time>2013-11-22T08:35:10Z</time>
      </trkpt>
      <trkpt lat="48.49979" lon="-2.7093">
        <ele>78</ele>
        <time>2013-11-22T08:35:11Z</time>
      </trkpt>
      <trkpt lat="48.49984" lon="-2.70929">
        <ele>78</ele>
        <time>2013-11-22T08:35:14Z</time>
      </trkpt>
      <trkpt lat="48.49985" lon="-2.70929">
        <ele>77</ele>
        <time>2013-11-22T08:35:15Z</time>
      </trkpt>
      <trkpt lat="48.49987" lon="-2.70929">
        <ele>77</ele>
        <time>2013-11-22T08:35:16Z</time>
      </trkpt>
      <trkpt lat="48.49988" lon="-2.70929">
        <ele>77</ele>
        <time>2013-11-22T08:35:17Z</time>
      </trkpt>
      <trkpt lat="48.49991" lon="-2.70929">
        <ele>77</ele>
        <time>2013-11-22T08:35:19Z</time>
      </trkpt>
      <trkpt lat="48.49997" lon="-2.70929">
        <ele>76</ele>
        <time>2013-11-22T08:35:23Z</time>
      </trkpt>
      <trkpt lat="48.5" lon="-2.70928">
        <ele>75</ele>
        <time>2013-11-22T08:35:25Z</time>
      </trkpt>
      <trkpt lat="48.50003" lon="-2.70929">
        <ele>75</ele>
        <time>2013-11-22T08:35:27Z</time>
      </trkpt>
      <trkpt lat="48.50005" lon="-2.70929">
        <ele>75</ele>
        <time>2013-11-22T08:35:29Z</time>
      </trkpt>
      <trkpt lat="48.50007" lon="-2.70929">
        <ele>75</ele>
        <time>2013-11-22T08:35:30Z</time>
      </trkpt>
      <trkpt lat="48.50008" lon="-2.70929">
        <ele>75</ele>
        <time>2013-11-22T08:35:31Z</time>
      </trkpt>
      <trkpt lat="48.50011" lon="-2.70929">
        <ele>75</ele>
        <time>2013-11-22T08:35:33Z</time>
      </trkpt>
      <trkpt lat="48.50013" lon="-2.70929">
        <ele>75</ele>
        <time>2013-11-22T08:35:34Z</time>
      </trkpt>
      <trkpt lat="48.50016" lon="-2.7093">
        <ele>75</ele>
        <time>2013-11-22T08:35:36Z</time>
      </trkpt>
      <trkpt lat="48.50017" lon="-2.7093">
        <ele>74</ele>
        <time>2013-11-22T08:35:37Z</time>
      </trkpt>
      <trkpt lat="48.50019" lon="-2.7093">
        <ele>74</ele>
        <time>2013-11-22T08:35:38Z</time>
      </trkpt>
      <trkpt lat="48.5002" lon="-2.70931">
        <ele>74</ele>
        <time>2013-11-22T08:35:39Z</time>
      </trkpt>
      <trkpt lat="48.50022" lon="-2.70931">
        <ele>74</ele>
        <time>2013-11-22T08:35:40Z</time>
      </trkpt>
      <trkpt lat="48.50023" lon="-2.70932">
        <ele>74</ele>
        <time>2013-11-22T08:35:41Z</time>
      </trkpt>
      <trkpt lat="48.50024" lon="-2.70933">
        <ele>74</ele>
        <time>2013-11-22T08:35:42Z</time>
      </trkpt>
      <trkpt lat="48.50026" lon="-2.70933">
        <ele>74</ele>
        <time>2013-11-22T08:35:43Z</time>
      </trkpt>
      <trkpt lat="48.50027" lon="-2.70934">
        <ele>74</ele>
        <time>2013-11-22T08:35:44Z</time>
      </trkpt>
      <trkpt lat="48.50029" lon="-2.70935">
        <ele>74</ele>
        <time>2013-11-22T08:35:45Z</time>
      </trkpt>
      <trkpt lat="48.5003" lon="-2.70936">
        <ele>74</ele>
        <time>2013-11-22T08:35:46Z</time>
      </trkpt>
      <trkpt lat="48.50031" lon="-2.70937">
        <ele>74</ele>
        <time>2013-11-22T08:35:47Z</time>
      </trkpt>
      <trkpt lat="48.50032" lon="-2.70938">
        <ele>74</ele>
        <time>2013-11-22T08:35:48Z</time>
      </trkpt>
      <trkpt lat="48.50034" lon="-2.7094">
        <ele>74</ele>
        <time>2013-11-22T08:35:49Z</time>
      </trkpt>
      <trkpt lat="48.50035" lon="-2.70941">
        <ele>74</ele>
        <time>2013-11-22T08:35:50Z</time>
      </trkpt>
      <trkpt lat="48.50036" lon="-2.70943">
        <ele>74</ele>
        <time>2013-11-22T08:35:51Z</time>
      </trkpt>
      <trkpt lat="48.50037" lon="-2.70944">
        <ele>74</ele>
        <time>2013-11-22T08:35:52Z</time>
      </trkpt>
      <trkpt lat="48.5004" lon="-2.70946">
        <ele>74</ele>
        <time>2013-11-22T08:35:54Z</time>
      </trkpt>
      <trkpt lat="48.50041" lon="-2.70947">
        <ele>73</ele>
        <time>2013-11-22T08:35:55Z</time>
      </trkpt>
      <trkpt lat="48.50042" lon="-2.70948">
        <ele>73</ele>
        <time>2013-11-22T08:35:56Z</time>
      </trkpt>
      <trkpt lat="48.50043" lon="-2.70949">
        <ele>73</ele>
        <time>2013-11-22T08:35:57Z</time>
      </trkpt>
      <trkpt lat="48.50045" lon="-2.7095">
        <ele>73</ele>
        <time>2013-11-22T08:35:58Z</time>
      </trkpt>
      <trkpt lat="48.50046" lon="-2.70951">
        <ele>73</ele>
        <time>2013-11-22T08:35:59Z</time>
      </trkpt>
      <trkpt lat="48.50048" lon="-2.70953">
        <ele>73</ele>
        <time>2013-11-22T08:36:01Z</time>
      </trkpt>
      <trkpt lat="48.5005" lon="-2.70954">
        <ele>73</ele>
        <time>2013-11-22T08:36:02Z</time>
      </trkpt>
      <trkpt lat="48.50051" lon="-2.70956">
        <ele>73</ele>
        <time>2013-11-22T08:36:03Z</time>
      </trkpt>
      <trkpt lat="48.50052" lon="-2.70957">
        <ele>73</ele>
        <time>2013-11-22T08:36:04Z</time>
      </trkpt>
      <trkpt lat="48.50054" lon="-2.70959">
        <ele>73</ele>
        <time>2013-11-22T08:36:05Z</time>
      </trkpt>
      <trkpt lat="48.50055" lon="-2.7096">
        <ele>73</ele>
        <time>2013-11-22T08:36:06Z</time>
      </trkpt>
      <trkpt lat="48.50056" lon="-2.70961">
        <ele>73</ele>
        <time>2013-11-22T08:36:07Z</time>
      </trkpt>
      <trkpt lat="48.50058" lon="-2.70962">
        <ele>73</ele>
        <time>2013-11-22T08:36:08Z</time>
      </trkpt>
      <trkpt lat="48.5006" lon="-2.70965">
        <ele>73</ele>
        <time>2013-11-22T08:36:10Z</time>
      </trkpt>
      <trkpt lat="48.50061" lon="-2.70966">
        <ele>73</ele>
        <time>2013-11-22T08:36:11Z</time>
      </trkpt>
      <trkpt lat="48.50063" lon="-2.70968">
        <ele>73</ele>
        <time>2013-11-22T08:36:12Z</time>
      </trkpt>
      <trkpt lat="48.50064" lon="-2.70969">
        <ele>73</ele>
        <time>2013-11-22T08:36:13Z</time>
      </trkpt>
      <trkpt lat="48.50065" lon="-2.7097">
        <ele>73</ele>
        <time>2013-11-22T08:36:14Z</time>
      </trkpt>
      <trkpt lat="48.50066" lon="-2.7097">
        <ele>73</ele>
        <time>2013-11-22T08:36:15Z</time>
      </trkpt>
      <trkpt lat="48.50067" lon="-2.70971">
        <ele>73</ele>
        <time>2013-11-22T08:36:16Z</time>
      </trkpt>
      <trkpt lat="48.50071" lon="-2.7097">
        <ele>73</ele>
        <time>2013-11-22T08:36:19Z</time>
      </trkpt>
      <trkpt lat="48.50072" lon="-2.7097">
        <ele>73</ele>
        <time>2013-11-22T08:36:20Z</time>
      </trkpt>
      <trkpt lat="48.50074" lon="-2.70969">
        <ele>73</ele>
        <time>2013-11-22T08:36:21Z</time>
      </trkpt>
      <trkpt lat="48.50075" lon="-2.70968">
        <ele>73</ele>
        <time>2013-11-22T08:36:22Z</time>
      </trkpt>
      <trkpt lat="48.50077" lon="-2.70966">
        <ele>73</ele>
        <time>2013-11-22T08:36:24Z</time>
      </trkpt>
      <trkpt lat="48.50079" lon="-2.70965">
        <ele>73</ele>
        <time>2013-11-22T08:36:26Z</time>
      </trkpt>
      <trkpt lat="48.50079" lon="-2.70963">
        <ele>73</ele>
        <time>2013-11-22T08:36:28Z</time>
      </trkpt>
      <trkpt lat="48.5008" lon="-2.7096">
        <ele>73</ele>
        <time>2013-11-22T08:36:30Z</time>
      </trkpt>
      <trkpt lat="48.50081" lon="-2.70958">
        <ele>73</ele>
        <time>2013-11-22T08:36:31Z</time>
      </trkpt>
      <trkpt lat="48.50082" lon="-2.70956">
        <ele>73</ele>
        <time>2013-11-22T08:36:32Z</time>
      </trkpt>
      <trkpt lat="48.50082" lon="-2.70954">
        <ele>73</ele>
        <time>2013-11-22T08:36:33Z</time>
      </trkpt>
      <trkpt lat="48.50082" lon="-2.70952">
        <ele>73</ele>
        <time>2013-11-22T08:36:34Z</time>
      </trkpt>
      <trkpt lat="48.50083" lon="-2.70948">
        <ele>73</ele>
        <time>2013-11-22T08:36:36Z</time>
      </trkpt>
      <trkpt lat="48.50083" lon="-2.70945">
        <ele>73</ele>
        <time>2013-11-22T08:36:37Z</time>
      </trkpt>
      <trkpt lat="48.50084" lon="-2.70929">
        <ele>73</ele>
        <time>2013-11-22T08:36:44Z</time>
      </trkpt>
      <trkpt lat="48.50084" lon="-2.70925">
        <ele>73</ele>
        <time>2013-11-22T08:36:46Z</time>
      </trkpt>
      <trkpt lat="48.50084" lon="-2.70922">
        <ele>73</ele>
        <time>2013-11-22T08:36:47Z</time>
      </trkpt>
      <trkpt lat="48.50085" lon="-2.70919">
        <ele>73</ele>
        <time>2013-11-22T08:36:48Z</time>
      </trkpt>
      <trkpt lat="48.50085" lon="-2.70912">
        <ele>73</ele>
        <time>2013-11-22T08:36:52Z</time>
      </trkpt>
      <trkpt lat="48.50085" lon="-2.70904">
        <ele>73</ele>
        <time>2013-11-22T08:36:56Z</time>
      </trkpt>
      <trkpt lat="48.50086" lon="-2.70902">
        <ele>73</ele>
        <time>2013-11-22T08:36:57Z</time>
      </trkpt>
      <trkpt lat="48.50086" lon="-2.70899">
        <ele>73</ele>
        <time>2013-11-22T08:36:58Z</time>
      </trkpt>
      <trkpt lat="48.50087" lon="-2.70897">
        <ele>73</ele>
        <time>2013-11-22T08:36:59Z</time>
      </trkpt>
      <trkpt lat="48.50087" lon="-2.70894">
        <ele>73</ele>
        <time>2013-11-22T08:37:00Z</time>
      </trkpt>
      <trkpt lat="48.50087" lon="-2.70888">
        <ele>73</ele>
        <time>2013-11-22T08:37:03Z</time>
      </trkpt>
      <trkpt lat="48.50088" lon="-2.70884">
        <ele>73</ele>
        <time>2013-11-22T08:37:05Z</time>
      </trkpt>
      <trkpt lat="48.50088" lon="-2.70881">
        <ele>73</ele>
        <time>2013-11-22T08:37:06Z</time>
      </trkpt>
      <trkpt lat="48.50089" lon="-2.70879">
        <ele>73</ele>
        <time>2013-11-22T08:37:07Z</time>
      </trkpt>
      <trkpt lat="48.50089" lon="-2.70875">
        <ele>73</ele>
        <time>2013-11-22T08:37:09Z</time>
      </trkpt>
      <trkpt lat="48.5009" lon="-2.70873">
        <ele>73</ele>
        <time>2013-11-22T08:37:10Z</time>
      </trkpt>
      <trkpt lat="48.5009" lon="-2.70867">
        <ele>73</ele>
        <time>2013-11-22T08:37:13Z</time>
      </trkpt>
      <trkpt lat="48.50091" lon="-2.70865">
        <ele>73</ele>
        <time>2013-11-22T08:37:14Z</time>
      </trkpt>
      <trkpt lat="48.50091" lon="-2.70863">
        <ele>73</ele>
        <time>2013-11-22T08:37:15Z</time>
      </trkpt>
      <trkpt lat="48.50092" lon="-2.70861">
        <ele>73</ele>
        <time>2013-11-22T08:37:16Z</time>
      </trkpt>
      <trkpt lat="48.50092" lon="-2.70858">
        <ele>73</ele>
        <time>2013-11-22T08:37:17Z</time>
      </trkpt>
      <trkpt lat="48.50093" lon="-2.70856">
        <ele>73</ele>
        <time>2013-11-22T08:37:18Z</time>
      </trkpt>
      <trkpt lat="48.50094" lon="-2.70854">
        <ele>73</ele>
        <time>2013-11-22T08:37:19Z</time>
      </trkpt>
      <trkpt lat="48.50095" lon="-2.70852">
        <ele>73</ele>
        <time>2013-11-22T08:37:20Z</time>
      </trkpt>
      <trkpt lat="48.50097" lon="-2.70849">
        <ele>73</ele>
        <time>2013-11-22T08:37:22Z</time>
      </trkpt>
      <trkpt lat="48.50098" lon="-2.70847">
        <ele>73</ele>
        <time>2013-11-22T08:37:24Z</time>
      </trkpt>
      <trkpt lat="48.501" lon="-2.70847">
        <ele>73</ele>
        <time>2013-11-22T08:37:25Z</time>
      </trkpt>
      <trkpt lat="48.50102" lon="-2.70845">
        <ele>73</ele>
        <time>2013-11-22T08:37:27Z</time>
      </trkpt>
      <trkpt lat="48.50103" lon="-2.70844">
        <ele>73</ele>
        <time>2013-11-22T08:37:28Z</time>
      </trkpt>
      <trkpt lat="48.50104" lon="-2.70843">
        <ele>73</ele>
        <time>2013-11-22T08:37:29Z</time>
      </trkpt>
      <trkpt lat="48.50106" lon="-2.70842">
        <ele>72</ele>
        <time>2013-11-22T08:37:30Z</time>
      </trkpt>
      <trkpt lat="48.50107" lon="-2.70842">
        <ele>72</ele>
        <time>2013-11-22T08:37:31Z</time>
      </trkpt>
      <trkpt lat="48.50108" lon="-2.70841">
        <ele>71</ele>
        <time>2013-11-22T08:37:32Z</time>
      </trkpt>
      <trkpt lat="48.5011" lon="-2.70841">
        <ele>71</ele>
        <time>2013-11-22T08:37:33Z</time>
      </trkpt>
      <trkpt lat="48.50111" lon="-2.7084">
        <ele>70</ele>
        <time>2013-11-22T08:37:34Z</time>
      </trkpt>
      <trkpt lat="48.50113" lon="-2.7084">
        <ele>70</ele>
        <time>2013-11-22T08:37:35Z</time>
      </trkpt>
      <trkpt lat="48.50114" lon="-2.70839">
        <ele>70</ele>
        <time>2013-11-22T08:37:36Z</time>
      </trkpt>
      <trkpt lat="48.50115" lon="-2.70838">
        <ele>70</ele>
        <time>2013-11-22T08:37:37Z</time>
      </trkpt>
      <trkpt lat="48.50117" lon="-2.70838">
        <ele>69</ele>
        <time>2013-11-22T08:37:39Z</time>
      </trkpt>
      <trkpt lat="48.50119" lon="-2.70836">
        <ele>69</ele>
        <time>2013-11-22T08:37:41Z</time>
      </trkpt>
      <trkpt lat="48.50121" lon="-2.70835">
        <ele>69</ele>
        <time>2013-11-22T08:37:42Z</time>
      </trkpt>
      <trkpt lat="48.50122" lon="-2.70835">
        <ele>69</ele>
        <time>2013-11-22T08:37:43Z</time>
      </trkpt>
      <trkpt lat="48.50124" lon="-2.70834">
        <ele>69</ele>
        <time>2013-11-22T08:37:44Z</time>
      </trkpt>
      <trkpt lat="48.50125" lon="-2.70833">
        <ele>69</ele>
        <time>2013-11-22T08:37:45Z</time>
      </trkpt>
      <trkpt lat="48.50128" lon="-2.70832">
        <ele>69</ele>
        <time>2013-11-22T08:37:47Z</time>
      </trkpt>
      <trkpt lat="48.5013" lon="-2.70831">
        <ele>69</ele>
        <time>2013-11-22T08:37:49Z</time>
      </trkpt>
      <trkpt lat="48.50132" lon="-2.7083">
        <ele>69</ele>
        <time>2013-11-22T08:37:50Z</time>
      </trkpt>
      <trkpt lat="48.50134" lon="-2.70829">
        <ele>69</ele>
        <time>2013-11-22T08:37:51Z</time>
      </trkpt>
      <trkpt lat="48.50135" lon="-2.70829">
        <ele>69</ele>
        <time>2013-11-22T08:37:52Z</time>
      </trkpt>
      <trkpt lat="48.50137" lon="-2.70828">
        <ele>69</ele>
        <time>2013-11-22T08:37:53Z</time>
      </trkpt>
      <trkpt lat="48.50138" lon="-2.70827">
        <ele>69</ele>
        <time>2013-11-22T08:37:54Z</time>
      </trkpt>
      <trkpt lat="48.5014" lon="-2.70826">
        <ele>69</ele>
        <time>2013-11-22T08:37:55Z</time>
      </trkpt>
      <trkpt lat="48.50141" lon="-2.70825">
        <ele>69</ele>
        <time>2013-11-22T08:37:56Z</time>
      </trkpt>
      <trkpt lat="48.50143" lon="-2.70824">
        <ele>69</ele>
        <time>2013-11-22T08:37:57Z</time>
      </trkpt>
      <trkpt lat="48.50144" lon="-2.70823">
        <ele>69</ele>
        <time>2013-11-22T08:37:58Z</time>
      </trkpt>
      <trkpt lat="48.50146" lon="-2.70822">
        <ele>69</ele>
        <time>2013-11-22T08:37:59Z</time>
      </trkpt>
      <trkpt lat="48.50147" lon="-2.70822">
        <ele>69</ele>
        <time>2013-11-22T08:38:00Z</time>
      </trkpt>
      <trkpt lat="48.50149" lon="-2.70821">
        <ele>69</ele>
        <time>2013-11-22T08:38:01Z</time>
      </trkpt>
      <trkpt lat="48.5015" lon="-2.7082">
        <ele>69</ele>
        <time>2013-11-22T08:38:02Z</time>
      </trkpt>
      <trkpt lat="48.50152" lon="-2.70819">
        <ele>69</ele>
        <time>2013-11-22T08:38:03Z</time>
      </trkpt>
      <trkpt lat="48.50153" lon="-2.70818">
        <ele>69</ele>
        <time>2013-11-22T08:38:04Z</time>
      </trkpt>
      <trkpt lat="48.50155" lon="-2.70818">
        <ele>69</ele>
        <time>2013-11-22T08:38:05Z</time>
      </trkpt>
      <trkpt lat="48.50156" lon="-2.70817">
        <ele>69</ele>
        <time>2013-11-22T08:38:06Z</time>
      </trkpt>
      <trkpt lat="48.50157" lon="-2.70816">
        <ele>69</ele>
        <time>2013-11-22T08:38:07Z</time>
      </trkpt>
      <trkpt lat="48.50159" lon="-2.70815">
        <ele>69</ele>
        <time>2013-11-22T08:38:08Z</time>
      </trkpt>
      <trkpt lat="48.5016" lon="-2.70815">
        <ele>69</ele>
        <time>2013-11-22T08:38:09Z</time>
      </trkpt>
      <trkpt lat="48.50161" lon="-2.70814">
        <ele>69</ele>
        <time>2013-11-22T08:38:10Z</time>
      </trkpt>
      <trkpt lat="48.50163" lon="-2.70813">
        <ele>69</ele>
        <time>2013-11-22T08:38:11Z</time>
      </trkpt>
      <trkpt lat="48.50164" lon="-2.70812">
        <ele>69</ele>
        <time>2013-11-22T08:38:12Z</time>
      </trkpt>
      <trkpt lat="48.50165" lon="-2.70811">
        <ele>69</ele>
        <time>2013-11-22T08:38:13Z</time>
      </trkpt>
      <trkpt lat="48.50166" lon="-2.70809">
        <ele>69</ele>
        <time>2013-11-22T08:38:14Z</time>
      </trkpt>
      <trkpt lat="48.50168" lon="-2.70808">
        <ele>69</ele>
        <time>2013-11-22T08:38:15Z</time>
      </trkpt>
      <trkpt lat="48.50169" lon="-2.70807">
        <ele>69</ele>
        <time>2013-11-22T08:38:16Z</time>
      </trkpt>
      <trkpt lat="48.5017" lon="-2.70805">
        <ele>69</ele>
        <time>2013-11-22T08:38:17Z</time>
      </trkpt>
      <trkpt lat="48.50171" lon="-2.70803">
        <ele>69</ele>
        <time>2013-11-22T08:38:18Z</time>
      </trkpt>
      <trkpt lat="48.50172" lon="-2.70801">
        <ele>69</ele>
        <time>2013-11-22T08:38:19Z</time>
      </trkpt>
      <trkpt lat="48.50174" lon="-2.70799">
        <ele>69</ele>
        <time>2013-11-22T08:38:20Z</time>
      </trkpt>
      <trkpt lat="48.50175" lon="-2.70798">
        <ele>69</ele>
        <time>2013-11-22T08:38:21Z</time>
      </trkpt>
      <trkpt lat="48.50177" lon="-2.70795">
        <ele>69</ele>
        <time>2013-11-22T08:38:23Z</time>
      </trkpt>
      <trkpt lat="48.50179" lon="-2.70793">
        <ele>69</ele>
        <time>2013-11-22T08:38:25Z</time>
      </trkpt>
      <trkpt lat="48.5018" lon="-2.70791">
        <ele>69</ele>
        <time>2013-11-22T08:38:26Z</time>
      </trkpt>
      <trkpt lat="48.50182" lon="-2.7079">
        <ele>69</ele>
        <time>2013-11-22T08:38:27Z</time>
      </trkpt>
      <trkpt lat="48.50183" lon="-2.70789">
        <ele>69</ele>
        <time>2013-11-22T08:38:28Z</time>
      </trkpt>
      <trkpt lat="48.50184" lon="-2.70787">
        <ele>69</ele>
        <time>2013-11-22T08:38:29Z</time>
      </trkpt>
      <trkpt lat="48.50187" lon="-2.70784">
        <ele>69</ele>
        <time>2013-11-22T08:38:31Z</time>
      </trkpt>
      <trkpt lat="48.50188" lon="-2.70783">
        <ele>69</ele>
        <time>2013-11-22T08:38:32Z</time>
      </trkpt>
      <trkpt lat="48.5019" lon="-2.70782">
        <ele>69</ele>
        <time>2013-11-22T08:38:34Z</time>
      </trkpt>
      <trkpt lat="48.50192" lon="-2.70779">
        <ele>69</ele>
        <time>2013-11-22T08:38:36Z</time>
      </trkpt>
      <trkpt lat="48.50193" lon="-2.70777">
        <ele>69</ele>
        <time>2013-11-22T08:38:37Z</time>
      </trkpt>
      <trkpt lat="48.50194" lon="-2.70775">
        <ele>69</ele>
        <time>2013-11-22T08:38:38Z</time>
      </trkpt>
      <trkpt lat="48.50196" lon="-2.70773">
        <ele>69</ele>
        <time>2013-11-22T08:38:40Z</time>
      </trkpt>
      <trkpt lat="48.50198" lon="-2.7077">
        <ele>69</ele>
        <time>2013-11-22T08:38:42Z</time>
      </trkpt>
      <trkpt lat="48.502" lon="-2.70767">
        <ele>69</ele>
        <time>2013-11-22T08:38:44Z</time>
      </trkpt>
      <trkpt lat="48.50201" lon="-2.70766">
        <ele>69</ele>
        <time>2013-11-22T08:38:45Z</time>
      </trkpt>
      <trkpt lat="48.50202" lon="-2.70764">
        <ele>69</ele>
        <time>2013-11-22T08:38:46Z</time>
      </trkpt>
      <trkpt lat="48.50203" lon="-2.70763">
        <ele>69</ele>
        <time>2013-11-22T08:38:47Z</time>
      </trkpt>
      <trkpt lat="48.50204" lon="-2.70761">
        <ele>69</ele>
        <time>2013-11-22T08:38:48Z</time>
      </trkpt>
      <trkpt lat="48.50206" lon="-2.7076">
        <ele>69</ele>
        <time>2013-11-22T08:38:49Z</time>
      </trkpt>
      <trkpt lat="48.50207" lon="-2.70758">
        <ele>69</ele>
        <time>2013-11-22T08:38:50Z</time>
      </trkpt>
      <trkpt lat="48.50208" lon="-2.70756">
        <ele>69</ele>
        <time>2013-11-22T08:38:51Z</time>
      </trkpt>
      <trkpt lat="48.5021" lon="-2.70755">
        <ele>69</ele>
        <time>2013-11-22T08:38:52Z</time>
      </trkpt>
      <trkpt lat="48.50211" lon="-2.70753">
        <ele>69</ele>
        <time>2013-11-22T08:38:53Z</time>
      </trkpt>
      <trkpt lat="48.50212" lon="-2.70751">
        <ele>69</ele>
        <time>2013-11-22T08:38:54Z</time>
      </trkpt>
      <trkpt lat="48.50214" lon="-2.7075">
        <ele>69</ele>
        <time>2013-11-22T08:38:55Z</time>
      </trkpt>
      <trkpt lat="48.50215" lon="-2.70748">
        <ele>69</ele>
        <time>2013-11-22T08:38:56Z</time>
      </trkpt>
      <trkpt lat="48.50216" lon="-2.70747">
        <ele>69</ele>
        <time>2013-11-22T08:38:57Z</time>
      </trkpt>
      <trkpt lat="48.50217" lon="-2.70745">
        <ele>69</ele>
        <time>2013-11-22T08:38:58Z</time>
      </trkpt>
      <trkpt lat="48.50219" lon="-2.70744">
        <ele>69</ele>
        <time>2013-11-22T08:38:59Z</time>
      </trkpt>
      <trkpt lat="48.5022" lon="-2.70742">
        <ele>69</ele>
        <time>2013-11-22T08:39:00Z</time>
      </trkpt>
      <trkpt lat="48.50221" lon="-2.70741">
        <ele>69</ele>
        <time>2013-11-22T08:39:01Z</time>
      </trkpt>
      <trkpt lat="48.50222" lon="-2.7074">
        <ele>69</ele>
        <time>2013-11-22T08:39:02Z</time>
      </trkpt>
      <trkpt lat="48.50223" lon="-2.70738">
        <ele>69</ele>
        <time>2013-11-22T08:39:03Z</time>
      </trkpt>
      <trkpt lat="48.50224" lon="-2.70737">
        <ele>69</ele>
        <time>2013-11-22T08:39:04Z</time>
      </trkpt>
      <trkpt lat="48.50226" lon="-2.70735">
        <ele>69</ele>
        <time>2013-11-22T08:39:05Z</time>
      </trkpt>
      <trkpt lat="48.50227" lon="-2.70734">
        <ele>69</ele>
        <time>2013-11-22T08:39:06Z</time>
      </trkpt>
      <trkpt lat="48.50228" lon="-2.70732">
        <ele>69</ele>
        <time>2013-11-22T08:39:07Z</time>
      </trkpt>
      <trkpt lat="48.5023" lon="-2.70731">
        <ele>69</ele>
        <time>2013-11-22T08:39:08Z</time>
      </trkpt>
      <trkpt lat="48.50231" lon="-2.70729">
        <ele>69</ele>
        <time>2013-11-22T08:39:09Z</time>
      </trkpt>
      <trkpt lat="48.50232" lon="-2.70728">
        <ele>69</ele>
        <time>2013-11-22T08:39:10Z</time>
      </trkpt>
      <trkpt lat="48.50233" lon="-2.70726">
        <ele>69</ele>
        <time>2013-11-22T08:39:11Z</time>
      </trkpt>
      <trkpt lat="48.50235" lon="-2.70725">
        <ele>69</ele>
        <time>2013-11-22T08:39:12Z</time>
      </trkpt>
      <trkpt lat="48.50236" lon="-2.70724">
        <ele>69</ele>
        <time>2013-11-22T08:39:13Z</time>
      </trkpt>
      <trkpt lat="48.50238" lon="-2.70722">
        <ele>69</ele>
        <time>2013-11-22T08:39:14Z</time>
      </trkpt>
      <trkpt lat="48.50239" lon="-2.70721">
        <ele>69</ele>
        <time>2013-11-22T08:39:15Z</time>
      </trkpt>
      <trkpt lat="48.5024" lon="-2.7072">
        <ele>69</ele>
        <time>2013-11-22T08:39:16Z</time>
      </trkpt>
      <trkpt lat="48.50241" lon="-2.70718">
        <ele>69</ele>
        <time>2013-11-22T08:39:17Z</time>
      </trkpt>
      <trkpt lat="48.50243" lon="-2.70717">
        <ele>69</ele>
        <time>2013-11-22T08:39:18Z</time>
      </trkpt>
      <trkpt lat="48.50244" lon="-2.70716">
        <ele>69</ele>
        <time>2013-11-22T08:39:19Z</time>
      </trkpt>
      <trkpt lat="48.50245" lon="-2.70715">
        <ele>69</ele>
        <time>2013-11-22T08:39:20Z</time>
      </trkpt>
      <trkpt lat="48.50246" lon="-2.70713">
        <ele>69</ele>
        <time>2013-11-22T08:39:21Z</time>
      </trkpt>
      <trkpt lat="48.50248" lon="-2.70711">
        <ele>69</ele>
        <time>2013-11-22T08:39:22Z</time>
      </trkpt>
      <trkpt lat="48.50249" lon="-2.7071">
        <ele>69</ele>
        <time>2013-11-22T08:39:23Z</time>
      </trkpt>
      <trkpt lat="48.5025" lon="-2.70708">
        <ele>69</ele>
        <time>2013-11-22T08:39:24Z</time>
      </trkpt>
      <trkpt lat="48.50251" lon="-2.70707">
        <ele>69</ele>
        <time>2013-11-22T08:39:25Z</time>
      </trkpt>
      <trkpt lat="48.50252" lon="-2.70705">
        <ele>69</ele>
        <time>2013-11-22T08:39:26Z</time>
      </trkpt>
      <trkpt lat="48.50254" lon="-2.70703">
        <ele>69</ele>
        <time>2013-11-22T08:39:27Z</time>
      </trkpt>
      <trkpt lat="48.50255" lon="-2.70702">
        <ele>69</ele>
        <time>2013-11-22T08:39:28Z</time>
      </trkpt>
      <trkpt lat="48.50256" lon="-2.70701">
        <ele>69</ele>
        <time>2013-11-22T08:39:29Z</time>
      </trkpt>
      <trkpt lat="48.50258" lon="-2.70698">
        <ele>69</ele>
        <time>2013-11-22T08:39:31Z</time>
      </trkpt>
      <trkpt lat="48.5026" lon="-2.70695">
        <ele>69</ele>
        <time>2013-11-22T08:39:33Z</time>
      </trkpt>
      <trkpt lat="48.50262" lon="-2.70691">
        <ele>69</ele>
        <time>2013-11-22T08:39:35Z</time>
      </trkpt>
      <trkpt lat="48.50263" lon="-2.7069">
        <ele>69</ele>
        <time>2013-11-22T08:39:36Z</time>
      </trkpt>
      <trkpt lat="48.50264" lon="-2.70687">
        <ele>69</ele>
        <time>2013-11-22T08:39:38Z</time>
      </trkpt>
      <trkpt lat="48.50265" lon="-2.70685">
        <ele>69</ele>
        <time>2013-11-22T08:39:39Z</time>
      </trkpt>
      <trkpt lat="48.50267" lon="-2.70682">
        <ele>69</ele>
        <time>2013-11-22T08:39:41Z</time>
      </trkpt>
      <trkpt lat="48.50268" lon="-2.7068">
        <ele>69</ele>
        <time>2013-11-22T08:39:42Z</time>
      </trkpt>
      <trkpt lat="48.50269" lon="-2.70677">
        <ele>69</ele>
        <time>2013-11-22T08:39:44Z</time>
      </trkpt>
      <trkpt lat="48.5027" lon="-2.70675">
        <ele>69</ele>
        <time>2013-11-22T08:39:45Z</time>
      </trkpt>
      <trkpt lat="48.50271" lon="-2.70673">
        <ele>69</ele>
        <time>2013-11-22T08:39:46Z</time>
      </trkpt>
      <trkpt lat="48.50272" lon="-2.70671">
        <ele>69</ele>
        <time>2013-11-22T08:39:47Z</time>
      </trkpt>
      <trkpt lat="48.50272" lon="-2.70669">
        <ele>69</ele>
        <time>2013-11-22T08:39:48Z</time>
      </trkpt>
      <trkpt lat="48.50273" lon="-2.70665">
        <ele>69</ele>
        <time>2013-11-22T08:39:50Z</time>
      </trkpt>
      <trkpt lat="48.50273" lon="-2.70663">
        <ele>69</ele>
        <time>2013-11-22T08:39:51Z</time>
      </trkpt>
      <trkpt lat="48.50274" lon="-2.70661">
        <ele>69</ele>
        <time>2013-11-22T08:39:52Z</time>
      </trkpt>
      <trkpt lat="48.50275" lon="-2.70659">
        <ele>69</ele>
        <time>2013-11-22T08:39:53Z</time>
      </trkpt>
      <trkpt lat="48.50275" lon="-2.70658">
        <ele>69</ele>
        <time>2013-11-22T08:39:54Z</time>
      </trkpt>
      <trkpt lat="48.50276" lon="-2.70655">
        <ele>69</ele>
        <time>2013-11-22T08:39:55Z</time>
      </trkpt>
      <trkpt lat="48.50277" lon="-2.70653">
        <ele>69</ele>
        <time>2013-11-22T08:39:56Z</time>
      </trkpt>
      <trkpt lat="48.50277" lon="-2.70651">
        <ele>69</ele>
        <time>2013-11-22T08:39:57Z</time>
      </trkpt>
      <trkpt lat="48.50278" lon="-2.70649">
        <ele>69</ele>
        <time>2013-11-22T08:39:58Z</time>
      </trkpt>
      <trkpt lat="48.50279" lon="-2.70647">
        <ele>69</ele>
        <time>2013-11-22T08:39:59Z</time>
      </trkpt>
      <trkpt lat="48.50279" lon="-2.70645">
        <ele>69</ele>
        <time>2013-11-22T08:40:00Z</time>
      </trkpt>
      <trkpt lat="48.5028" lon="-2.70643">
        <ele>69</ele>
        <time>2013-11-22T08:40:01Z</time>
      </trkpt>
      <trkpt lat="48.5028" lon="-2.70639">
        <ele>69</ele>
        <time>2013-11-22T08:40:03Z</time>
      </trkpt>
      <trkpt lat="48.50281" lon="-2.70637">
        <ele>69</ele>
        <time>2013-11-22T08:40:04Z</time>
      </trkpt>
      <trkpt lat="48.50282" lon="-2.70635">
        <ele>69</ele>
        <time>2013-11-22T08:40:05Z</time>
      </trkpt>
      <trkpt lat="48.50283" lon="-2.70632">
        <ele>69</ele>
        <time>2013-11-22T08:40:07Z</time>
      </trkpt>
      <trkpt lat="48.50283" lon="-2.70631">
        <ele>69</ele>
        <time>2013-11-22T08:40:08Z</time>
      </trkpt>
      <trkpt lat="48.50283" lon="-2.70629">
        <ele>69</ele>
        <time>2013-11-22T08:40:09Z</time>
      </trkpt>
      <trkpt lat="48.50284" lon="-2.70627">
        <ele>69</ele>
        <time>2013-11-22T08:40:10Z</time>
      </trkpt>
      <trkpt lat="48.50284" lon="-2.70625">
        <ele>69</ele>
        <time>2013-11-22T08:40:11Z</time>
      </trkpt>
      <trkpt lat="48.50285" lon="-2.70623">
        <ele>69</ele>
        <time>2013-11-22T08:40:12Z</time>
      </trkpt>
      <trkpt lat="48.50285" lon="-2.70621">
        <ele>69</ele>
        <time>2013-11-22T08:40:13Z</time>
      </trkpt>
      <trkpt lat="48.50285" lon="-2.70619">
        <ele>69</ele>
        <time>2013-11-22T08:40:14Z</time>
      </trkpt>
      <trkpt lat="48.50286" lon="-2.70617">
        <ele>69</ele>
        <time>2013-11-22T08:40:15Z</time>
      </trkpt>
      <trkpt lat="48.50286" lon="-2.70615">
        <ele>69</ele>
        <time>2013-11-22T08:40:16Z</time>
      </trkpt>
      <trkpt lat="48.50287" lon="-2.70614">
        <ele>69</ele>
        <time>2013-11-22T08:40:17Z</time>
      </trkpt>
      <trkpt lat="48.50288" lon="-2.70609">
        <ele>69</ele>
        <time>2013-11-22T08:40:20Z</time>
      </trkpt>
      <trkpt lat="48.50288" lon="-2.70605">
        <ele>69</ele>
        <time>2013-11-22T08:40:22Z</time>
      </trkpt>
      <trkpt lat="48.50289" lon="-2.70603">
        <ele>69</ele>
        <time>2013-11-22T08:40:23Z</time>
      </trkpt>
      <trkpt lat="48.50289" lon="-2.70601">
        <ele>69</ele>
        <time>2013-11-22T08:40:24Z</time>
      </trkpt>
      <trkpt lat="48.5029" lon="-2.70597">
        <ele>69</ele>
        <time>2013-11-22T08:40:26Z</time>
      </trkpt>
      <trkpt lat="48.5029" lon="-2.70595">
        <ele>69</ele>
        <time>2013-11-22T08:40:27Z</time>
      </trkpt>
      <trkpt lat="48.50291" lon="-2.70592">
        <ele>69</ele>
        <time>2013-11-22T08:40:28Z</time>
      </trkpt>
      <trkpt lat="48.50291" lon="-2.70588">
        <ele>69</ele>
        <time>2013-11-22T08:40:30Z</time>
      </trkpt>
      <trkpt lat="48.50292" lon="-2.70586">
        <ele>69</ele>
        <time>2013-11-22T08:40:31Z</time>
      </trkpt>
      <trkpt lat="48.50293" lon="-2.70584">
        <ele>69</ele>
        <time>2013-11-22T08:40:32Z</time>
      </trkpt>
      <trkpt lat="48.50294" lon="-2.70583">
        <ele>69</ele>
        <time>2013-11-22T08:40:33Z</time>
      </trkpt>
      <trkpt lat="48.50296" lon="-2.70581">
        <ele>69</ele>
        <time>2013-11-22T08:40:34Z</time>
      </trkpt>
      <trkpt lat="48.50297" lon="-2.7058">
        <ele>69</ele>
        <time>2013-11-22T08:40:35Z</time>
      </trkpt>
      <trkpt lat="48.50299" lon="-2.70579">
        <ele>69</ele>
        <time>2013-11-22T08:40:36Z</time>
      </trkpt>
      <trkpt lat="48.50301" lon="-2.70579">
        <ele>69</ele>
        <time>2013-11-22T08:40:37Z</time>
      </trkpt>
      <trkpt lat="48.50304" lon="-2.70579">
        <ele>69</ele>
        <time>2013-11-22T08:40:39Z</time>
      </trkpt>
      <trkpt lat="48.50305" lon="-2.70579">
        <ele>69</ele>
        <time>2013-11-22T08:40:40Z</time>
      </trkpt>
      <trkpt lat="48.50306" lon="-2.7058">
        <ele>69</ele>
        <time>2013-11-22T08:40:41Z</time>
      </trkpt>
      <trkpt lat="48.50308" lon="-2.7058">
        <ele>69</ele>
        <time>2013-11-22T08:40:42Z</time>
      </trkpt>
      <trkpt lat="48.50309" lon="-2.70581">
        <ele>68</ele>
        <time>2013-11-22T08:40:43Z</time>
      </trkpt>
      <trkpt lat="48.50311" lon="-2.70581">
        <ele>68</ele>
        <time>2013-11-22T08:40:44Z</time>
      </trkpt>
      <trkpt lat="48.50312" lon="-2.70581">
        <ele>68</ele>
        <time>2013-11-22T08:40:45Z</time>
      </trkpt>
      <trkpt lat="48.50314" lon="-2.70582">
        <ele>68</ele>
        <time>2013-11-22T08:40:46Z</time>
      </trkpt>
      <trkpt lat="48.50315" lon="-2.70583">
        <ele>68</ele>
        <time>2013-11-22T08:40:47Z</time>
      </trkpt>
      <trkpt lat="48.50317" lon="-2.70583">
        <ele>68</ele>
        <time>2013-11-22T08:40:48Z</time>
      </trkpt>
      <trkpt lat="48.50319" lon="-2.70584">
        <ele>68</ele>
        <time>2013-11-22T08:40:49Z</time>
      </trkpt>
      <trkpt lat="48.5032" lon="-2.70584">
        <ele>68</ele>
        <time>2013-11-22T08:40:50Z</time>
      </trkpt>
      <trkpt lat="48.50322" lon="-2.70584">
        <ele>68</ele>
        <time>2013-11-22T08:40:51Z</time>
      </trkpt>
      <trkpt lat="48.50323" lon="-2.70585">
        <ele>68</ele>
        <time>2013-11-22T08:40:52Z</time>
      </trkpt>
      <trkpt lat="48.50325" lon="-2.70585">
        <ele>68</ele>
        <time>2013-11-22T08:40:53Z</time>
      </trkpt>
      <trkpt lat="48.50327" lon="-2.70585">
        <ele>68</ele>
        <time>2013-11-22T08:40:54Z</time>
      </trkpt>
      <trkpt lat="48.50328" lon="-2.70586">
        <ele>68</ele>
        <time>2013-11-22T08:40:55Z</time>
      </trkpt>
      <trkpt lat="48.50329" lon="-2.70586">
        <ele>68</ele>
        <time>2013-11-22T08:40:56Z</time>
      </trkpt>
      <trkpt lat="48.50331" lon="-2.70587">
        <ele>68</ele>
        <time>2013-11-22T08:40:57Z</time>
      </trkpt>
      <trkpt lat="48.50332" lon="-2.70587">
        <ele>68</ele>
        <time>2013-11-22T08:40:58Z</time>
      </trkpt>
      <trkpt lat="48.50334" lon="-2.70587">
        <ele>68</ele>
        <time>2013-11-22T08:40:59Z</time>
      </trkpt>
      <trkpt lat="48.50335" lon="-2.70588">
        <ele>68</ele>
        <time>2013-11-22T08:41:00Z</time>
      </trkpt>
      <trkpt lat="48.50336" lon="-2.70588">
        <ele>68</ele>
        <time>2013-11-22T08:41:01Z</time>
      </trkpt>
      <trkpt lat="48.50338" lon="-2.70588">
        <ele>68</ele>
        <time>2013-11-22T08:41:02Z</time>
      </trkpt>
      <trkpt lat="48.50341" lon="-2.70589">
        <ele>68</ele>
        <time>2013-11-22T08:41:04Z</time>
      </trkpt>
      <trkpt lat="48.50343" lon="-2.70589">
        <ele>68</ele>
        <time>2013-11-22T08:41:05Z</time>
      </trkpt>
      <trkpt lat="48.50344" lon="-2.7059">
        <ele>68</ele>
        <time>2013-11-22T08:41:06Z</time>
      </trkpt>
      <trkpt lat="48.50346" lon="-2.7059">
        <ele>68</ele>
        <time>2013-11-22T08:41:07Z</time>
      </trkpt>
      <trkpt lat="48.50347" lon="-2.70591">
        <ele>68</ele>
        <time>2013-11-22T08:41:08Z</time>
      </trkpt>
      <trkpt lat="48.50349" lon="-2.70591">
        <ele>68</ele>
        <time>2013-11-22T08:41:09Z</time>
      </trkpt>
      <trkpt lat="48.5035" lon="-2.70591">
        <ele>67</ele>
        <time>2013-11-22T08:41:10Z</time>
      </trkpt>
      <trkpt lat="48.50352" lon="-2.70591">
        <ele>67</ele>
        <time>2013-11-22T08:41:11Z</time>
      </trkpt>
      <trkpt lat="48.50353" lon="-2.70592">
        <ele>67</ele>
        <time>2013-11-22T08:41:12Z</time>
      </trkpt>
      <trkpt lat="48.50354" lon="-2.70593">
        <ele>67</ele>
        <time>2013-11-22T08:41:13Z</time>
      </trkpt>
      <trkpt lat="48.50356" lon="-2.70593">
        <ele>67</ele>
        <time>2013-11-22T08:41:14Z</time>
      </trkpt>
      <trkpt lat="48.50358" lon="-2.70593">
        <ele>67</ele>
        <time>2013-11-22T08:41:15Z</time>
      </trkpt>
      <trkpt lat="48.50359" lon="-2.70594">
        <ele>67</ele>
        <time>2013-11-22T08:41:16Z</time>
      </trkpt>
      <trkpt lat="48.50361" lon="-2.70594">
        <ele>67</ele>
        <time>2013-11-22T08:41:17Z</time>
      </trkpt>
      <trkpt lat="48.50363" lon="-2.70595">
        <ele>67</ele>
        <time>2013-11-22T08:41:18Z</time>
      </trkpt>
      <trkpt lat="48.50365" lon="-2.70595">
        <ele>67</ele>
        <time>2013-11-22T08:41:19Z</time>
      </trkpt>
      <trkpt lat="48.50366" lon="-2.70596">
        <ele>67</ele>
        <time>2013-11-22T08:41:20Z</time>
      </trkpt>
      <trkpt lat="48.50368" lon="-2.70596">
        <ele>67</ele>
        <time>2013-11-22T08:41:21Z</time>
      </trkpt>
      <trkpt lat="48.5037" lon="-2.70597">
        <ele>67</ele>
        <time>2013-11-22T08:41:22Z</time>
      </trkpt>
      <trkpt lat="48.50372" lon="-2.70597">
        <ele>67</ele>
        <time>2013-11-22T08:41:23Z</time>
      </trkpt>
      <trkpt lat="48.50373" lon="-2.70598">
        <ele>67</ele>
        <time>2013-11-22T08:41:24Z</time>
      </trkpt>
      <trkpt lat="48.50375" lon="-2.70598">
        <ele>67</ele>
        <time>2013-11-22T08:41:25Z</time>
      </trkpt>
      <trkpt lat="48.50377" lon="-2.70599">
        <ele>67</ele>
        <time>2013-11-22T08:41:26Z</time>
      </trkpt>
      <trkpt lat="48.50378" lon="-2.70599">
        <ele>67</ele>
        <time>2013-11-22T08:41:27Z</time>
      </trkpt>
      <trkpt lat="48.50383" lon="-2.70599">
        <ele>67</ele>
        <time>2013-11-22T08:41:30Z</time>
      </trkpt>
      <trkpt lat="48.50385" lon="-2.706">
        <ele>66</ele>
        <time>2013-11-22T08:41:31Z</time>
      </trkpt>
      <trkpt lat="48.50386" lon="-2.706">
        <ele>66</ele>
        <time>2013-11-22T08:41:32Z</time>
      </trkpt>
      <trkpt lat="48.50388" lon="-2.706">
        <ele>66</ele>
        <time>2013-11-22T08:41:33Z</time>
      </trkpt>
      <trkpt lat="48.50391" lon="-2.706">
        <ele>66</ele>
        <time>2013-11-22T08:41:35Z</time>
      </trkpt>
      <trkpt lat="48.50393" lon="-2.706">
        <ele>66</ele>
        <time>2013-11-22T08:41:36Z</time>
      </trkpt>
      <trkpt lat="48.50394" lon="-2.70601">
        <ele>66</ele>
        <time>2013-11-22T08:41:37Z</time>
      </trkpt>
      <trkpt lat="48.50396" lon="-2.70601">
        <ele>66</ele>
        <time>2013-11-22T08:41:38Z</time>
      </trkpt>
      <trkpt lat="48.50398" lon="-2.70601">
        <ele>66</ele>
        <time>2013-11-22T08:41:39Z</time>
      </trkpt>
      <trkpt lat="48.50403" lon="-2.70601">
        <ele>66</ele>
        <time>2013-11-22T08:41:42Z</time>
      </trkpt>
      <trkpt lat="48.50405" lon="-2.70602">
        <ele>66</ele>
        <time>2013-11-22T08:41:43Z</time>
      </trkpt>
      <trkpt lat="48.50407" lon="-2.70602">
        <ele>66</ele>
        <time>2013-11-22T08:41:44Z</time>
      </trkpt>
      <trkpt lat="48.5041" lon="-2.70602">
        <ele>65</ele>
        <time>2013-11-22T08:41:46Z</time>
      </trkpt>
      <trkpt lat="48.50412" lon="-2.70602">
        <ele>65</ele>
        <time>2013-11-22T08:41:47Z</time>
      </trkpt>
      <trkpt lat="48.50415" lon="-2.70602">
        <ele>65</ele>
        <time>2013-11-22T08:41:49Z</time>
      </trkpt>
      <trkpt lat="48.50419" lon="-2.70602">
        <ele>65</ele>
        <time>2013-11-22T08:41:51Z</time>
      </trkpt>
      <trkpt lat="48.50421" lon="-2.70603">
        <ele>65</ele>
        <time>2013-11-22T08:41:52Z</time>
      </trkpt>
      <trkpt lat="48.50422" lon="-2.70603">
        <ele>65</ele>
        <time>2013-11-22T08:41:53Z</time>
      </trkpt>
      <trkpt lat="48.50424" lon="-2.70603">
        <ele>65</ele>
        <time>2013-11-22T08:41:54Z</time>
      </trkpt>
      <trkpt lat="48.50426" lon="-2.70603">
        <ele>65</ele>
        <time>2013-11-22T08:41:55Z</time>
      </trkpt>
      <trkpt lat="48.50428" lon="-2.70603">
        <ele>65</ele>
        <time>2013-11-22T08:41:56Z</time>
      </trkpt>
      <trkpt lat="48.50436" lon="-2.70604">
        <ele>65</ele>
        <time>2013-11-22T08:42:01Z</time>
      </trkpt>
      <trkpt lat="48.50441" lon="-2.70604">
        <ele>65</ele>
        <time>2013-11-22T08:42:04Z</time>
      </trkpt>
      <trkpt lat="48.50443" lon="-2.70604">
        <ele>65</ele>
        <time>2013-11-22T08:42:05Z</time>
      </trkpt>
      <trkpt lat="48.50444" lon="-2.70604">
        <ele>65</ele>
        <time>2013-11-22T08:42:06Z</time>
      </trkpt>
      <trkpt lat="48.50446" lon="-2.70605">
        <ele>65</ele>
        <time>2013-11-22T08:42:07Z</time>
      </trkpt>
      <trkpt lat="48.50451" lon="-2.70605">
        <ele>65</ele>
        <time>2013-11-22T08:42:10Z</time>
      </trkpt>
      <trkpt lat="48.50453" lon="-2.70605">
        <ele>65</ele>
        <time>2013-11-22T08:42:11Z</time>
      </trkpt>
      <trkpt lat="48.50454" lon="-2.70606">
        <ele>65</ele>
        <time>2013-11-22T08:42:12Z</time>
      </trkpt>
      <trkpt lat="48.50456" lon="-2.70606">
        <ele>65</ele>
        <time>2013-11-22T08:42:13Z</time>
      </trkpt>
      <trkpt lat="48.50458" lon="-2.70606">
        <ele>65</ele>
        <time>2013-11-22T08:42:14Z</time>
      </trkpt>
      <trkpt lat="48.50459" lon="-2.70606">
        <ele>65</ele>
        <time>2013-11-22T08:42:15Z</time>
      </trkpt>
      <trkpt lat="48.50461" lon="-2.70606">
        <ele>65</ele>
        <time>2013-11-22T08:42:16Z</time>
      </trkpt>
      <trkpt lat="48.50462" lon="-2.70606">
        <ele>65</ele>
        <time>2013-11-22T08:42:17Z</time>
      </trkpt>
      <trkpt lat="48.50464" lon="-2.70605">
        <ele>65</ele>
        <time>2013-11-22T08:42:18Z</time>
      </trkpt>
      <trkpt lat="48.50466" lon="-2.70606">
        <ele>65</ele>
        <time>2013-11-22T08:42:19Z</time>
      </trkpt>
      <trkpt lat="48.50468" lon="-2.70606">
        <ele>65</ele>
        <time>2013-11-22T08:42:20Z</time>
      </trkpt>
      <trkpt lat="48.50469" lon="-2.70606">
        <ele>65</ele>
        <time>2013-11-22T08:42:21Z</time>
      </trkpt>
      <trkpt lat="48.50471" lon="-2.70606">
        <ele>65</ele>
        <time>2013-11-22T08:42:22Z</time>
      </trkpt>
      <trkpt lat="48.50473" lon="-2.70607">
        <ele>65</ele>
        <time>2013-11-22T08:42:23Z</time>
      </trkpt>
      <trkpt lat="48.50475" lon="-2.70608">
        <ele>65</ele>
        <time>2013-11-22T08:42:24Z</time>
      </trkpt>
      <trkpt lat="48.50476" lon="-2.70608">
        <ele>65</ele>
        <time>2013-11-22T08:42:25Z</time>
      </trkpt>
      <trkpt lat="48.50478" lon="-2.70609">
        <ele>65</ele>
        <time>2013-11-22T08:42:26Z</time>
      </trkpt>
      <trkpt lat="48.5048" lon="-2.70609">
        <ele>65</ele>
        <time>2013-11-22T08:42:27Z</time>
      </trkpt>
      <trkpt lat="48.50481" lon="-2.7061">
        <ele>65</ele>
        <time>2013-11-22T08:42:28Z</time>
      </trkpt>
      <trkpt lat="48.50483" lon="-2.70611">
        <ele>65</ele>
        <time>2013-11-22T08:42:29Z</time>
      </trkpt>
      <trkpt lat="48.50484" lon="-2.70612">
        <ele>65</ele>
        <time>2013-11-22T08:42:30Z</time>
      </trkpt>
      <trkpt lat="48.50486" lon="-2.70613">
        <ele>65</ele>
        <time>2013-11-22T08:42:31Z</time>
      </trkpt>
      <trkpt lat="48.50487" lon="-2.70615">
        <ele>65</ele>
        <time>2013-11-22T08:42:32Z</time>
      </trkpt>
      <trkpt lat="48.50488" lon="-2.70616">
        <ele>65</ele>
        <time>2013-11-22T08:42:33Z</time>
      </trkpt>
      <trkpt lat="48.5049" lon="-2.70617">
        <ele>65</ele>
        <time>2013-11-22T08:42:34Z</time>
      </trkpt>
      <trkpt lat="48.50491" lon="-2.70619">
        <ele>65</ele>
        <time>2013-11-22T08:42:35Z</time>
      </trkpt>
      <trkpt lat="48.50492" lon="-2.7062">
        <ele>65</ele>
        <time>2013-11-22T08:42:36Z</time>
      </trkpt>
      <trkpt lat="48.50494" lon="-2.70621">
        <ele>65</ele>
        <time>2013-11-22T08:42:37Z</time>
      </trkpt>
      <trkpt lat="48.50495" lon="-2.70623">
        <ele>65</ele>
        <time>2013-11-22T08:42:38Z</time>
      </trkpt>
      <trkpt lat="48.50496" lon="-2.70624">
        <ele>65</ele>
        <time>2013-11-22T08:42:39Z</time>
      </trkpt>
      <trkpt lat="48.50498" lon="-2.70625">
        <ele>65</ele>
        <time>2013-11-22T08:42:40Z</time>
      </trkpt>
      <trkpt lat="48.50499" lon="-2.70627">
        <ele>65</ele>
        <time>2013-11-22T08:42:41Z</time>
      </trkpt>
      <trkpt lat="48.505" lon="-2.70628">
        <ele>65</ele>
        <time>2013-11-22T08:42:42Z</time>
      </trkpt>
      <trkpt lat="48.50502" lon="-2.70629">
        <ele>65</ele>
        <time>2013-11-22T08:42:43Z</time>
      </trkpt>
      <trkpt lat="48.50504" lon="-2.70631">
        <ele>65</ele>
        <time>2013-11-22T08:42:45Z</time>
      </trkpt>
      <trkpt lat="48.50505" lon="-2.70632">
        <ele>65</ele>
        <time>2013-11-22T08:42:46Z</time>
      </trkpt>
      <trkpt lat="48.50507" lon="-2.70635">
        <ele>65</ele>
        <time>2013-11-22T08:42:48Z</time>
      </trkpt>
      <trkpt lat="48.50508" lon="-2.70636">
        <ele>65</ele>
        <time>2013-11-22T08:42:49Z</time>
      </trkpt>
      <trkpt lat="48.5051" lon="-2.70639">
        <ele>65</ele>
        <time>2013-11-22T08:42:51Z</time>
      </trkpt>
      <trkpt lat="48.50512" lon="-2.70642">
        <ele>65</ele>
        <time>2013-11-22T08:42:53Z</time>
      </trkpt>
      <trkpt lat="48.50513" lon="-2.70645">
        <ele>65</ele>
        <time>2013-11-22T08:42:55Z</time>
      </trkpt>
      <trkpt lat="48.50515" lon="-2.70648">
        <ele>65</ele>
        <time>2013-11-22T08:42:57Z</time>
      </trkpt>
      <trkpt lat="48.50517" lon="-2.70651">
        <ele>65</ele>
        <time>2013-11-22T08:42:59Z</time>
      </trkpt>
      <trkpt lat="48.50517" lon="-2.70653">
        <ele>65</ele>
        <time>2013-11-22T08:43:00Z</time>
      </trkpt>
      <trkpt lat="48.50519" lon="-2.70655">
        <ele>65</ele>
        <time>2013-11-22T08:43:02Z</time>
      </trkpt>
      <trkpt lat="48.50521" lon="-2.70658">
        <ele>65</ele>
        <time>2013-11-22T08:43:04Z</time>
      </trkpt>
      <trkpt lat="48.50522" lon="-2.7066">
        <ele>65</ele>
        <time>2013-11-22T08:43:05Z</time>
      </trkpt>
      <trkpt lat="48.50524" lon="-2.70661">
        <ele>65</ele>
        <time>2013-11-22T08:43:06Z</time>
      </trkpt>
      <trkpt lat="48.50525" lon="-2.70663">
        <ele>65</ele>
        <time>2013-11-22T08:43:07Z</time>
      </trkpt>
      <trkpt lat="48.50527" lon="-2.70666">
        <ele>65</ele>
        <time>2013-11-22T08:43:09Z</time>
      </trkpt>
      <trkpt lat="48.50528" lon="-2.70669">
        <ele>65</ele>
        <time>2013-11-22T08:43:11Z</time>
      </trkpt>
      <trkpt lat="48.50529" lon="-2.70671">
        <ele>65</ele>
        <time>2013-11-22T08:43:12Z</time>
      </trkpt>
      <trkpt lat="48.5053" lon="-2.70672">
        <ele>65</ele>
        <time>2013-11-22T08:43:13Z</time>
      </trkpt>
      <trkpt lat="48.50532" lon="-2.70674">
        <ele>65</ele>
        <time>2013-11-22T08:43:14Z</time>
      </trkpt>
      <trkpt lat="48.50533" lon="-2.70676">
        <ele>65</ele>
        <time>2013-11-22T08:43:15Z</time>
      </trkpt>
      <trkpt lat="48.50534" lon="-2.70678">
        <ele>65</ele>
        <time>2013-11-22T08:43:16Z</time>
      </trkpt>
      <trkpt lat="48.50535" lon="-2.7068">
        <ele>65</ele>
        <time>2013-11-22T08:43:18Z</time>
      </trkpt>
      <trkpt lat="48.50536" lon="-2.70682">
        <ele>65</ele>
        <time>2013-11-22T08:43:19Z</time>
      </trkpt>
      <trkpt lat="48.50538" lon="-2.70684">
        <ele>65</ele>
        <time>2013-11-22T08:43:20Z</time>
      </trkpt>
      <trkpt lat="48.50539" lon="-2.70686">
        <ele>65</ele>
        <time>2013-11-22T08:43:21Z</time>
      </trkpt>
      <trkpt lat="48.50539" lon="-2.70689">
        <ele>65</ele>
        <time>2013-11-22T08:43:22Z</time>
      </trkpt>
      <trkpt lat="48.5054" lon="-2.70691">
        <ele>65</ele>
        <time>2013-11-22T08:43:23Z</time>
      </trkpt>
      <trkpt lat="48.50541" lon="-2.70695">
        <ele>65</ele>
        <time>2013-11-22T08:43:26Z</time>
      </trkpt>
      <trkpt lat="48.50541" lon="-2.70698">
        <ele>65</ele>
        <time>2013-11-22T08:43:28Z</time>
      </trkpt>
      <trkpt lat="48.50541" lon="-2.707">
        <ele>65</ele>
        <time>2013-11-22T08:43:29Z</time>
      </trkpt>
      <trkpt lat="48.50541" lon="-2.70702">
        <ele>65</ele>
        <time>2013-11-22T08:43:30Z</time>
      </trkpt>
      <trkpt lat="48.50542" lon="-2.70708">
        <ele>65</ele>
        <time>2013-11-22T08:43:33Z</time>
      </trkpt>
      <trkpt lat="48.50541" lon="-2.70712">
        <ele>65</ele>
        <time>2013-11-22T08:43:34Z</time>
      </trkpt>
      <trkpt lat="48.5054" lon="-2.70718">
        <ele>65</ele>
        <time>2013-11-22T08:43:36Z</time>
      </trkpt>
      <trkpt lat="48.50541" lon="-2.7072">
        <ele>65</ele>
        <time>2013-11-22T08:43:37Z</time>
      </trkpt>
      <trkpt lat="48.50542" lon="-2.70722">
        <ele>65</ele>
        <time>2013-11-22T08:43:38Z</time>
      </trkpt>
      <trkpt lat="48.5054" lon="-2.70728">
        <ele>65</ele>
        <time>2013-11-22T08:43:40Z</time>
      </trkpt>
      <trkpt lat="48.50539" lon="-2.70732">
        <ele>65</ele>
        <time>2013-11-22T08:43:41Z</time>
      </trkpt>
      <trkpt lat="48.50538" lon="-2.70735">
        <ele>65</ele>
        <time>2013-11-22T08:43:42Z</time>
      </trkpt>
      <trkpt lat="48.50537" lon="-2.70738">
        <ele>65</ele>
        <time>2013-11-22T08:43:43Z</time>
      </trkpt>
      <trkpt lat="48.50537" lon="-2.70743">
        <ele>65</ele>
        <time>2013-11-22T08:43:45Z</time>
      </trkpt>
      <trkpt lat="48.50538" lon="-2.70749">
        <ele>65</ele>
        <time>2013-11-22T08:43:48Z</time>
      </trkpt>
      <trkpt lat="48.50537" lon="-2.70761">
        <ele>65</ele>
        <time>2013-11-22T08:43:54Z</time>
      </trkpt>
      <trkpt lat="48.50537" lon="-2.70763">
        <ele>65</ele>
        <time>2013-11-22T08:43:55Z</time>
      </trkpt>
      <trkpt lat="48.50537" lon="-2.70771">
        <ele>65</ele>
        <time>2013-11-22T08:43:59Z</time>
      </trkpt>
      <trkpt lat="48.50537" lon="-2.70773">
        <ele>65</ele>
        <time>2013-11-22T08:44:00Z</time>
      </trkpt>
      <trkpt lat="48.50536" lon="-2.70775">
        <ele>65</ele>
        <time>2013-11-22T08:44:01Z</time>
      </trkpt>
      <trkpt lat="48.50536" lon="-2.70779">
        <ele>65</ele>
        <time>2013-11-22T08:44:03Z</time>
      </trkpt>
      <trkpt lat="48.50535" lon="-2.70781">
        <ele>65</ele>
        <time>2013-11-22T08:44:04Z</time>
      </trkpt>
      <trkpt lat="48.50535" lon="-2.70783">
        <ele>65</ele>
        <time>2013-11-22T08:44:05Z</time>
      </trkpt>
      <trkpt lat="48.50534" lon="-2.70787">
        <ele>65</ele>
        <time>2013-11-22T08:44:07Z</time>
      </trkpt>
      <trkpt lat="48.50533" lon="-2.70789">
        <ele>65</ele>
        <time>2013-11-22T08:44:08Z</time>
      </trkpt>
      <trkpt lat="48.50533" lon="-2.7079">
        <ele>65</ele>
        <time>2013-11-22T08:44:09Z</time>
      </trkpt>
      <trkpt lat="48.50532" lon="-2.70793">
        <ele>65</ele>
        <time>2013-11-22T08:44:10Z</time>
      </trkpt>
      <trkpt lat="48.50531" lon="-2.70795">
        <ele>65</ele>
        <time>2013-11-22T08:44:11Z</time>
      </trkpt>
      <trkpt lat="48.50531" lon="-2.70796">
        <ele>65</ele>
        <time>2013-11-22T08:44:12Z</time>
      </trkpt>
      <trkpt lat="48.5053" lon="-2.70798">
        <ele>65</ele>
        <time>2013-11-22T08:44:13Z</time>
      </trkpt>
      <trkpt lat="48.5053" lon="-2.70802">
        <ele>65</ele>
        <time>2013-11-22T08:44:15Z</time>
      </trkpt>
      <trkpt lat="48.50529" lon="-2.70804">
        <ele>65</ele>
        <time>2013-11-22T08:44:16Z</time>
      </trkpt>
      <trkpt lat="48.50528" lon="-2.70806">
        <ele>65</ele>
        <time>2013-11-22T08:44:17Z</time>
      </trkpt>
      <trkpt lat="48.50528" lon="-2.70808">
        <ele>65</ele>
        <time>2013-11-22T08:44:18Z</time>
      </trkpt>
      <trkpt lat="48.50527" lon="-2.7081">
        <ele>65</ele>
        <time>2013-11-22T08:44:19Z</time>
      </trkpt>
      <trkpt lat="48.50526" lon="-2.70812">
        <ele>65</ele>
        <time>2013-11-22T08:44:20Z</time>
      </trkpt>
      <trkpt lat="48.50526" lon="-2.70814">
        <ele>65</ele>
        <time>2013-11-22T08:44:21Z</time>
      </trkpt>
      <trkpt lat="48.50525" lon="-2.70815">
        <ele>66</ele>
        <time>2013-11-22T08:44:22Z</time>
      </trkpt>
      <trkpt lat="48.50525" lon="-2.7082">
        <ele>66</ele>
        <time>2013-11-22T08:44:24Z</time>
      </trkpt>
      <trkpt lat="48.50524" lon="-2.70822">
        <ele>66</ele>
        <time>2013-11-22T08:44:25Z</time>
      </trkpt>
      <trkpt lat="48.50523" lon="-2.70824">
        <ele>66</ele>
        <time>2013-11-22T08:44:26Z</time>
      </trkpt>
      <trkpt lat="48.50524" lon="-2.7083">
        <ele>66</ele>
        <time>2013-11-22T08:44:29Z</time>
      </trkpt>
      <trkpt lat="48.50524" lon="-2.70832">
        <ele>66</ele>
        <time>2013-11-22T08:44:30Z</time>
      </trkpt>
      <trkpt lat="48.50525" lon="-2.70834">
        <ele>66</ele>
        <time>2013-11-22T08:44:31Z</time>
      </trkpt>
      <trkpt lat="48.50526" lon="-2.70835">
        <ele>66</ele>
        <time>2013-11-22T08:44:32Z</time>
      </trkpt>
      <trkpt lat="48.50527" lon="-2.70837">
        <ele>66</ele>
        <time>2013-11-22T08:44:33Z</time>
      </trkpt>
      <trkpt lat="48.50529" lon="-2.7084">
        <ele>66</ele>
        <time>2013-11-22T08:44:35Z</time>
      </trkpt>
      <trkpt lat="48.50531" lon="-2.70841">
        <ele>67</ele>
        <time>2013-11-22T08:44:36Z</time>
      </trkpt>
      <trkpt lat="48.50532" lon="-2.70843">
        <ele>67</ele>
        <time>2013-11-22T08:44:37Z</time>
      </trkpt>
      <trkpt lat="48.50533" lon="-2.70845">
        <ele>67</ele>
        <time>2013-11-22T08:44:38Z</time>
      </trkpt>
      <trkpt lat="48.50535" lon="-2.70848">
        <ele>67</ele>
        <time>2013-11-22T08:44:40Z</time>
      </trkpt>
      <trkpt lat="48.50537" lon="-2.70851">
        <ele>67</ele>
        <time>2013-11-22T08:44:42Z</time>
      </trkpt>
      <trkpt lat="48.50538" lon="-2.70852">
        <ele>67</ele>
        <time>2013-11-22T08:44:43Z</time>
      </trkpt>
      <trkpt lat="48.5054" lon="-2.70855">
        <ele>67</ele>
        <time>2013-11-22T08:44:45Z</time>
      </trkpt>
      <trkpt lat="48.50542" lon="-2.70857">
        <ele>67</ele>
        <time>2013-11-22T08:44:46Z</time>
      </trkpt>
      <trkpt lat="48.50543" lon="-2.70859">
        <ele>67</ele>
        <time>2013-11-22T08:44:47Z</time>
      </trkpt>
      <trkpt lat="48.50545" lon="-2.70862">
        <ele>68</ele>
        <time>2013-11-22T08:44:49Z</time>
      </trkpt>
      <trkpt lat="48.50546" lon="-2.70863">
        <ele>68</ele>
        <time>2013-11-22T08:44:50Z</time>
      </trkpt>
      <trkpt lat="48.50548" lon="-2.70866">
        <ele>68</ele>
        <time>2013-11-22T08:44:52Z</time>
      </trkpt>
      <trkpt lat="48.5055" lon="-2.70869">
        <ele>68</ele>
        <time>2013-11-22T08:44:54Z</time>
      </trkpt>
      <trkpt lat="48.50552" lon="-2.70872">
        <ele>68</ele>
        <time>2013-11-22T08:44:56Z</time>
      </trkpt>
      <trkpt lat="48.50554" lon="-2.70874">
        <ele>68</ele>
        <time>2013-11-22T08:44:57Z</time>
      </trkpt>
      <trkpt lat="48.50555" lon="-2.70877">
        <ele>68</ele>
        <time>2013-11-22T08:44:59Z</time>
      </trkpt>
      <trkpt lat="48.50558" lon="-2.70879">
        <ele>69</ele>
        <time>2013-11-22T08:45:01Z</time>
      </trkpt>
      <trkpt lat="48.5056" lon="-2.70882">
        <ele>69</ele>
        <time>2013-11-22T08:45:03Z</time>
      </trkpt>
      <trkpt lat="48.50561" lon="-2.70884">
        <ele>69</ele>
        <time>2013-11-22T08:45:04Z</time>
      </trkpt>
      <trkpt lat="48.50562" lon="-2.70885">
        <ele>69</ele>
        <time>2013-11-22T08:45:05Z</time>
      </trkpt>
      <trkpt lat="48.50563" lon="-2.70889">
        <ele>69</ele>
        <time>2013-11-22T08:45:07Z</time>
      </trkpt>
      <trkpt lat="48.50564" lon="-2.7089">
        <ele>69</ele>
        <time>2013-11-22T08:45:08Z</time>
      </trkpt>
      <trkpt lat="48.50565" lon="-2.70892">
        <ele>69</ele>
        <time>2013-11-22T08:45:09Z</time>
      </trkpt>
      <trkpt lat="48.50567" lon="-2.70895">
        <ele>69</ele>
        <time>2013-11-22T08:45:11Z</time>
      </trkpt>
      <trkpt lat="48.50568" lon="-2.70896">
        <ele>69</ele>
        <time>2013-11-22T08:45:12Z</time>
      </trkpt>
      <trkpt lat="48.5057" lon="-2.70899">
        <ele>69</ele>
        <time>2013-11-22T08:45:14Z</time>
      </trkpt>
      <trkpt lat="48.50572" lon="-2.70902">
        <ele>69</ele>
        <time>2013-11-22T08:45:16Z</time>
      </trkpt>
      <trkpt lat="48.50574" lon="-2.70905">
        <ele>69</ele>
        <time>2013-11-22T08:45:18Z</time>
      </trkpt>
      <trkpt lat="48.50576" lon="-2.70908">
        <ele>69</ele>
        <time>2013-11-22T08:45:20Z</time>
      </trkpt>
      <trkpt lat="48.50577" lon="-2.7091">
        <ele>69</ele>
        <time>2013-11-22T08:45:21Z</time>
      </trkpt>
      <trkpt lat="48.50579" lon="-2.70911">
        <ele>69</ele>
        <time>2013-11-22T08:45:22Z</time>
      </trkpt>
      <trkpt lat="48.5058" lon="-2.70912">
        <ele>69</ele>
        <time>2013-11-22T08:45:23Z</time>
      </trkpt>
      <trkpt lat="48.50581" lon="-2.70914">
        <ele>69</ele>
        <time>2013-11-22T08:45:24Z</time>
      </trkpt>
      <trkpt lat="48.50582" lon="-2.70915">
        <ele>69</ele>
        <time>2013-11-22T08:45:25Z</time>
      </trkpt>
      <trkpt lat="48.50583" lon="-2.70916">
        <ele>69</ele>
        <time>2013-11-22T08:45:26Z</time>
      </trkpt>
      <trkpt lat="48.50584" lon="-2.70917">
        <ele>69</ele>
        <time>2013-11-22T08:45:27Z</time>
      </trkpt>
      <trkpt lat="48.50586" lon="-2.70919">
        <ele>69</ele>
        <time>2013-11-22T08:45:29Z</time>
      </trkpt>
      <trkpt lat="48.50589" lon="-2.70921">
        <ele>69</ele>
        <time>2013-11-22T08:45:31Z</time>
      </trkpt>
      <trkpt lat="48.5059" lon="-2.70922">
        <ele>69</ele>
        <time>2013-11-22T08:45:32Z</time>
      </trkpt>
      <trkpt lat="48.50591" lon="-2.70923">
        <ele>69</ele>
        <time>2013-11-22T08:45:33Z</time>
      </trkpt>
      <trkpt lat="48.50593" lon="-2.70924">
        <ele>69</ele>
        <time>2013-11-22T08:45:34Z</time>
      </trkpt>
      <trkpt lat="48.50594" lon="-2.70925">
        <ele>69</ele>
        <time>2013-11-22T08:45:35Z</time>
      </trkpt>
      <trkpt lat="48.50595" lon="-2.70925">
        <ele>69</ele>
        <time>2013-11-22T08:45:36Z</time>
      </trkpt>
      <trkpt lat="48.50597" lon="-2.70926">
        <ele>69</ele>
        <time>2013-11-22T08:45:37Z</time>
      </trkpt>
      <trkpt lat="48.50598" lon="-2.70926">
        <ele>69</ele>
        <time>2013-11-22T08:45:38Z</time>
      </trkpt>
      <trkpt lat="48.506" lon="-2.70927">
        <ele>69</ele>
        <time>2013-11-22T08:45:39Z</time>
      </trkpt>
      <trkpt lat="48.50602" lon="-2.70928">
        <ele>69</ele>
        <time>2013-11-22T08:45:40Z</time>
      </trkpt>
      <trkpt lat="48.50603" lon="-2.70928">
        <ele>69</ele>
        <time>2013-11-22T08:45:41Z</time>
      </trkpt>
      <trkpt lat="48.50605" lon="-2.70929">
        <ele>69</ele>
        <time>2013-11-22T08:45:42Z</time>
      </trkpt>
      <trkpt lat="48.50606" lon="-2.7093">
        <ele>69</ele>
        <time>2013-11-22T08:45:43Z</time>
      </trkpt>
      <trkpt lat="48.50607" lon="-2.70931">
        <ele>69</ele>
        <time>2013-11-22T08:45:44Z</time>
      </trkpt>
      <trkpt lat="48.50608" lon="-2.70932">
        <ele>69</ele>
        <time>2013-11-22T08:45:45Z</time>
      </trkpt>
      <trkpt lat="48.50609" lon="-2.70934">
        <ele>69</ele>
        <time>2013-11-22T08:45:46Z</time>
      </trkpt>
      <trkpt lat="48.50611" lon="-2.70935">
        <ele>69</ele>
        <time>2013-11-22T08:45:47Z</time>
      </trkpt>
      <trkpt lat="48.50612" lon="-2.70936">
        <ele>69</ele>
        <time>2013-11-22T08:45:48Z</time>
      </trkpt>
      <trkpt lat="48.50613" lon="-2.7094">
        <ele>69</ele>
        <time>2013-11-22T08:45:50Z</time>
      </trkpt>
      <trkpt lat="48.50614" lon="-2.70942">
        <ele>69</ele>
        <time>2013-11-22T08:45:51Z</time>
      </trkpt>
      <trkpt lat="48.50614" lon="-2.70943">
        <ele>69</ele>
        <time>2013-11-22T08:45:52Z</time>
      </trkpt>
      <trkpt lat="48.50615" lon="-2.70945">
        <ele>69</ele>
        <time>2013-11-22T08:45:53Z</time>
      </trkpt>
      <trkpt lat="48.50615" lon="-2.70947">
        <ele>69</ele>
        <time>2013-11-22T08:45:54Z</time>
      </trkpt>
      <trkpt lat="48.50615" lon="-2.70949">
        <ele>69</ele>
        <time>2013-11-22T08:45:55Z</time>
      </trkpt>
      <trkpt lat="48.50616" lon="-2.70951">
        <ele>69</ele>
        <time>2013-11-22T08:45:56Z</time>
      </trkpt>
      <trkpt lat="48.50616" lon="-2.70953">
        <ele>69</ele>
        <time>2013-11-22T08:45:57Z</time>
      </trkpt>
      <trkpt lat="48.50617" lon="-2.70954">
        <ele>69</ele>
        <time>2013-11-22T08:45:58Z</time>
      </trkpt>
      <trkpt lat="48.50617" lon="-2.70957">
        <ele>69</ele>
        <time>2013-11-22T08:45:59Z</time>
      </trkpt>
      <trkpt lat="48.50618" lon="-2.70959">
        <ele>69</ele>
        <time>2013-11-22T08:46:00Z</time>
      </trkpt>
      <trkpt lat="48.50618" lon="-2.70961">
        <ele>69</ele>
        <time>2013-11-22T08:46:01Z</time>
      </trkpt>
      <trkpt lat="48.50618" lon="-2.70963">
        <ele>69</ele>
        <time>2013-11-22T08:46:02Z</time>
      </trkpt>
      <trkpt lat="48.50619" lon="-2.70965">
        <ele>69</ele>
        <time>2013-11-22T08:46:03Z</time>
      </trkpt>
      <trkpt lat="48.5062" lon="-2.70967">
        <ele>69</ele>
        <time>2013-11-22T08:46:04Z</time>
      </trkpt>
      <trkpt lat="48.5062" lon="-2.70969">
        <ele>70</ele>
        <time>2013-11-22T08:46:05Z</time>
      </trkpt>
      <trkpt lat="48.50621" lon="-2.70971">
        <ele>70</ele>
        <time>2013-11-22T08:46:06Z</time>
      </trkpt>
      <trkpt lat="48.50621" lon="-2.70973">
        <ele>70</ele>
        <time>2013-11-22T08:46:07Z</time>
      </trkpt>
      <trkpt lat="48.50622" lon="-2.70974">
        <ele>70</ele>
        <time>2013-11-22T08:46:08Z</time>
      </trkpt>
      <trkpt lat="48.50622" lon="-2.70976">
        <ele>70</ele>
        <time>2013-11-22T08:46:09Z</time>
      </trkpt>
      <trkpt lat="48.50623" lon="-2.70978">
        <ele>70</ele>
        <time>2013-11-22T08:46:10Z</time>
      </trkpt>
      <trkpt lat="48.50623" lon="-2.70981">
        <ele>70</ele>
        <time>2013-11-22T08:46:11Z</time>
      </trkpt>
      <trkpt lat="48.50624" lon="-2.70983">
        <ele>70</ele>
        <time>2013-11-22T08:46:12Z</time>
      </trkpt>
      <trkpt lat="48.50624" lon="-2.70985">
        <ele>70</ele>
        <time>2013-11-22T08:46:13Z</time>
      </trkpt>
      <trkpt lat="48.50625" lon="-2.70987">
        <ele>70</ele>
        <time>2013-11-22T08:46:14Z</time>
      </trkpt>
      <trkpt lat="48.50625" lon="-2.70989">
        <ele>70</ele>
        <time>2013-11-22T08:46:15Z</time>
      </trkpt>
      <trkpt lat="48.50626" lon="-2.70991">
        <ele>70</ele>
        <time>2013-11-22T08:46:16Z</time>
      </trkpt>
      <trkpt lat="48.50626" lon="-2.70995">
        <ele>71</ele>
        <time>2013-11-22T08:46:18Z</time>
      </trkpt>
      <trkpt lat="48.50626" lon="-2.70999">
        <ele>71</ele>
        <time>2013-11-22T08:46:20Z</time>
      </trkpt>
      <trkpt lat="48.50626" lon="-2.71011">
        <ele>71</ele>
        <time>2013-11-22T08:46:26Z</time>
      </trkpt>
      <trkpt lat="48.50626" lon="-2.71013">
        <ele>71</ele>
        <time>2013-11-22T08:46:27Z</time>
      </trkpt>
      <trkpt lat="48.50625" lon="-2.71017">
        <ele>71</ele>
        <time>2013-11-22T08:46:29Z</time>
      </trkpt>
      <trkpt lat="48.50624" lon="-2.71019">
        <ele>71</ele>
        <time>2013-11-22T08:46:30Z</time>
      </trkpt>
      <trkpt lat="48.50624" lon="-2.71021">
        <ele>71</ele>
        <time>2013-11-22T08:46:31Z</time>
      </trkpt>
      <trkpt lat="48.50623" lon="-2.71023">
        <ele>71</ele>
        <time>2013-11-22T08:46:32Z</time>
      </trkpt>
      <trkpt lat="48.50623" lon="-2.71025">
        <ele>71</ele>
        <time>2013-11-22T08:46:33Z</time>
      </trkpt>
      <trkpt lat="48.50622" lon="-2.71027">
        <ele>71</ele>
        <time>2013-11-22T08:46:34Z</time>
      </trkpt>
      <trkpt lat="48.50622" lon="-2.71029">
        <ele>71</ele>
        <time>2013-11-22T08:46:35Z</time>
      </trkpt>
      <trkpt lat="48.50621" lon="-2.71031">
        <ele>71</ele>
        <time>2013-11-22T08:46:36Z</time>
      </trkpt>
      <trkpt lat="48.5062" lon="-2.71033">
        <ele>71</ele>
        <time>2013-11-22T08:46:37Z</time>
      </trkpt>
      <trkpt lat="48.5062" lon="-2.71035">
        <ele>72</ele>
        <time>2013-11-22T08:46:38Z</time>
      </trkpt>
      <trkpt lat="48.50619" lon="-2.71037">
        <ele>72</ele>
        <time>2013-11-22T08:46:39Z</time>
      </trkpt>
      <trkpt lat="48.50618" lon="-2.71039">
        <ele>72</ele>
        <time>2013-11-22T08:46:40Z</time>
      </trkpt>
      <trkpt lat="48.50618" lon="-2.71041">
        <ele>72</ele>
        <time>2013-11-22T08:46:41Z</time>
      </trkpt>
      <trkpt lat="48.50617" lon="-2.71042">
        <ele>72</ele>
        <time>2013-11-22T08:46:42Z</time>
      </trkpt>
      <trkpt lat="48.50616" lon="-2.71044">
        <ele>72</ele>
        <time>2013-11-22T08:46:43Z</time>
      </trkpt>
      <trkpt lat="48.50616" lon="-2.71046">
        <ele>72</ele>
        <time>2013-11-22T08:46:44Z</time>
      </trkpt>
      <trkpt lat="48.50615" lon="-2.71049">
        <ele>72</ele>
        <time>2013-11-22T08:46:45Z</time>
      </trkpt>
      <trkpt lat="48.50615" lon="-2.71051">
        <ele>72</ele>
        <time>2013-11-22T08:46:46Z</time>
      </trkpt>
      <trkpt lat="48.50615" lon="-2.71053">
        <ele>73</ele>
        <time>2013-11-22T08:46:47Z</time>
      </trkpt>
      <trkpt lat="48.50614" lon="-2.71055">
        <ele>73</ele>
        <time>2013-11-22T08:46:48Z</time>
      </trkpt>
      <trkpt lat="48.50614" lon="-2.71057">
        <ele>73</ele>
        <time>2013-11-22T08:46:49Z</time>
      </trkpt>
      <trkpt lat="48.50613" lon="-2.71059">
        <ele>73</ele>
        <time>2013-11-22T08:46:50Z</time>
      </trkpt>
      <trkpt lat="48.50613" lon="-2.7106">
        <ele>73</ele>
        <time>2013-11-22T08:46:51Z</time>
      </trkpt>
      <trkpt lat="48.50613" lon="-2.71062">
        <ele>73</ele>
        <time>2013-11-22T08:46:52Z</time>
      </trkpt>
      <trkpt lat="48.50612" lon="-2.71064">
        <ele>73</ele>
        <time>2013-11-22T08:46:53Z</time>
      </trkpt>
      <trkpt lat="48.50613" lon="-2.71073">
        <ele>74</ele>
        <time>2013-11-22T08:46:58Z</time>
      </trkpt>
      <trkpt lat="48.50613" lon="-2.71075">
        <ele>74</ele>
        <time>2013-11-22T08:46:59Z</time>
      </trkpt>
      <trkpt lat="48.50615" lon="-2.71078">
        <ele>74</ele>
        <time>2013-11-22T08:47:01Z</time>
      </trkpt>
      <trkpt lat="48.50616" lon="-2.71079">
        <ele>74</ele>
        <time>2013-11-22T08:47:02Z</time>
      </trkpt>
      <trkpt lat="48.50618" lon="-2.7108">
        <ele>74</ele>
        <time>2013-11-22T08:47:03Z</time>
      </trkpt>
      <trkpt lat="48.50619" lon="-2.71082">
        <ele>74</ele>
        <time>2013-11-22T08:47:04Z</time>
      </trkpt>
      <trkpt lat="48.50621" lon="-2.71083">
        <ele>74</ele>
        <time>2013-11-22T08:47:05Z</time>
      </trkpt>
      <trkpt lat="48.50622" lon="-2.71084">
        <ele>74</ele>
        <time>2013-11-22T08:47:06Z</time>
      </trkpt>
      <trkpt lat="48.50623" lon="-2.71085">
        <ele>74</ele>
        <time>2013-11-22T08:47:07Z</time>
      </trkpt>
      <trkpt lat="48.50625" lon="-2.71086">
        <ele>74</ele>
        <time>2013-11-22T08:47:08Z</time>
      </trkpt>
      <trkpt lat="48.50626" lon="-2.71087">
        <ele>74</ele>
        <time>2013-11-22T08:47:09Z</time>
      </trkpt>
      <trkpt lat="48.50628" lon="-2.71088">
        <ele>74</ele>
        <time>2013-11-22T08:47:10Z</time>
      </trkpt>
      <trkpt lat="48.50629" lon="-2.7109">
        <ele>74</ele>
        <time>2013-11-22T08:47:11Z</time>
      </trkpt>
      <trkpt lat="48.5063" lon="-2.71091">
        <ele>74</ele>
        <time>2013-11-22T08:47:12Z</time>
      </trkpt>
      <trkpt lat="48.50632" lon="-2.71092">
        <ele>74</ele>
        <time>2013-11-22T08:47:13Z</time>
      </trkpt>
      <trkpt lat="48.50634" lon="-2.71093">
        <ele>74</ele>
        <time>2013-11-22T08:47:14Z</time>
      </trkpt>
      <trkpt lat="48.50635" lon="-2.71093">
        <ele>74</ele>
        <time>2013-11-22T08:47:15Z</time>
      </trkpt>
      <trkpt lat="48.50637" lon="-2.71094">
        <ele>74</ele>
        <time>2013-11-22T08:47:16Z</time>
      </trkpt>
      <trkpt lat="48.50638" lon="-2.71095">
        <ele>74</ele>
        <time>2013-11-22T08:47:17Z</time>
      </trkpt>
      <trkpt lat="48.50639" lon="-2.71096">
        <ele>74</ele>
        <time>2013-11-22T08:47:18Z</time>
      </trkpt>
      <trkpt lat="48.50641" lon="-2.71097">
        <ele>74</ele>
        <time>2013-11-22T08:47:19Z</time>
      </trkpt>
      <trkpt lat="48.50642" lon="-2.71097">
        <ele>74</ele>
        <time>2013-11-22T08:47:20Z</time>
      </trkpt>
      <trkpt lat="48.50644" lon="-2.71098">
        <ele>74</ele>
        <time>2013-11-22T08:47:21Z</time>
      </trkpt>
      <trkpt lat="48.50645" lon="-2.71099">
        <ele>74</ele>
        <time>2013-11-22T08:47:22Z</time>
      </trkpt>
      <trkpt lat="48.50647" lon="-2.711">
        <ele>74</ele>
        <time>2013-11-22T08:47:23Z</time>
      </trkpt>
      <trkpt lat="48.50648" lon="-2.71101">
        <ele>74</ele>
        <time>2013-11-22T08:47:24Z</time>
      </trkpt>
      <trkpt lat="48.5065" lon="-2.71101">
        <ele>74</ele>
        <time>2013-11-22T08:47:25Z</time>
      </trkpt>
      <trkpt lat="48.50652" lon="-2.71103">
        <ele>74</ele>
        <time>2013-11-22T08:47:27Z</time>
      </trkpt>
      <trkpt lat="48.50653" lon="-2.71104">
        <ele>74</ele>
        <time>2013-11-22T08:47:28Z</time>
      </trkpt>
      <trkpt lat="48.50654" lon="-2.71105">
        <ele>74</ele>
        <time>2013-11-22T08:47:29Z</time>
      </trkpt>
      <trkpt lat="48.50656" lon="-2.71106">
        <ele>74</ele>
        <time>2013-11-22T08:47:30Z</time>
      </trkpt>
      <trkpt lat="48.50657" lon="-2.71107">
        <ele>74</ele>
        <time>2013-11-22T08:47:31Z</time>
      </trkpt>
      <trkpt lat="48.50659" lon="-2.71107">
        <ele>74</ele>
        <time>2013-11-22T08:47:32Z</time>
      </trkpt>
      <trkpt lat="48.5066" lon="-2.71108">
        <ele>74</ele>
        <time>2013-11-22T08:47:33Z</time>
      </trkpt>
      <trkpt lat="48.50661" lon="-2.71109">
        <ele>74</ele>
        <time>2013-11-22T08:47:34Z</time>
      </trkpt>
      <trkpt lat="48.50663" lon="-2.7111">
        <ele>74</ele>
        <time>2013-11-22T08:47:35Z</time>
      </trkpt>
      <trkpt lat="48.50664" lon="-2.71111">
        <ele>74</ele>
        <time>2013-11-22T08:47:36Z</time>
      </trkpt>
      <trkpt lat="48.50666" lon="-2.71111">
        <ele>74</ele>
        <time>2013-11-22T08:47:37Z</time>
      </trkpt>
      <trkpt lat="48.50667" lon="-2.71112">
        <ele>74</ele>
        <time>2013-11-22T08:47:38Z</time>
      </trkpt>
      <trkpt lat="48.50668" lon="-2.71113">
        <ele>74</ele>
        <time>2013-11-22T08:47:39Z</time>
      </trkpt>
      <trkpt lat="48.5067" lon="-2.71113">
        <ele>74</ele>
        <time>2013-11-22T08:47:40Z</time>
      </trkpt>
      <trkpt lat="48.50671" lon="-2.71114">
        <ele>74</ele>
        <time>2013-11-22T08:47:41Z</time>
      </trkpt>
      <trkpt lat="48.50673" lon="-2.71115">
        <ele>74</ele>
        <time>2013-11-22T08:47:42Z</time>
      </trkpt>
      <trkpt lat="48.50674" lon="-2.71116">
        <ele>74</ele>
        <time>2013-11-22T08:47:43Z</time>
      </trkpt>
      <trkpt lat="48.50676" lon="-2.71117">
        <ele>74</ele>
        <time>2013-11-22T08:47:44Z</time>
      </trkpt>
      <trkpt lat="48.50677" lon="-2.71117">
        <ele>74</ele>
        <time>2013-11-22T08:47:45Z</time>
      </trkpt>
      <trkpt lat="48.50679" lon="-2.71118">
        <ele>74</ele>
        <time>2013-11-22T08:47:46Z</time>
      </trkpt>
      <trkpt lat="48.5068" lon="-2.71119">
        <ele>74</ele>
        <time>2013-11-22T08:47:47Z</time>
      </trkpt>
      <trkpt lat="48.50681" lon="-2.71119">
        <ele>74</ele>
        <time>2013-11-22T08:47:48Z</time>
      </trkpt>
      <trkpt lat="48.50682" lon="-2.7112">
        <ele>74</ele>
        <time>2013-11-22T08:47:49Z</time>
      </trkpt>
      <trkpt lat="48.50684" lon="-2.7112">
        <ele>74</ele>
        <time>2013-11-22T08:47:50Z</time>
      </trkpt>
      <trkpt lat="48.50686" lon="-2.71121">
        <ele>74</ele>
        <time>2013-11-22T08:47:51Z</time>
      </trkpt>
      <trkpt lat="48.50687" lon="-2.71121">
        <ele>74</ele>
        <time>2013-11-22T08:47:52Z</time>
      </trkpt>
      <trkpt lat="48.50689" lon="-2.71122">
        <ele>74</ele>
        <time>2013-11-22T08:47:53Z</time>
      </trkpt>
      <trkpt lat="48.5069" lon="-2.71123">
        <ele>74</ele>
        <time>2013-11-22T08:47:54Z</time>
      </trkpt>
      <trkpt lat="48.50692" lon="-2.71124">
        <ele>74</ele>
        <time>2013-11-22T08:47:55Z</time>
      </trkpt>
      <trkpt lat="48.50693" lon="-2.71124">
        <ele>74</ele>
        <time>2013-11-22T08:47:56Z</time>
      </trkpt>
      <trkpt lat="48.50694" lon="-2.71125">
        <ele>74</ele>
        <time>2013-11-22T08:47:57Z</time>
      </trkpt>
      <trkpt lat="48.50696" lon="-2.71126">
        <ele>74</ele>
        <time>2013-11-22T08:47:58Z</time>
      </trkpt>
      <trkpt lat="48.50697" lon="-2.71126">
        <ele>74</ele>
        <time>2013-11-22T08:47:59Z</time>
      </trkpt>
      <trkpt lat="48.50699" lon="-2.71127">
        <ele>74</ele>
        <time>2013-11-22T08:48:00Z</time>
      </trkpt>
      <trkpt lat="48.507" lon="-2.71128">
        <ele>74</ele>
        <time>2013-11-22T08:48:01Z</time>
      </trkpt>
      <trkpt lat="48.50702" lon="-2.71129">
        <ele>74</ele>
        <time>2013-11-22T08:48:02Z</time>
      </trkpt>
      <trkpt lat="48.50703" lon="-2.7113">
        <ele>74</ele>
        <time>2013-11-22T08:48:03Z</time>
      </trkpt>
      <trkpt lat="48.50705" lon="-2.7113">
        <ele>74</ele>
        <time>2013-11-22T08:48:04Z</time>
      </trkpt>
      <trkpt lat="48.50706" lon="-2.71131">
        <ele>74</ele>
        <time>2013-11-22T08:48:05Z</time>
      </trkpt>
      <trkpt lat="48.50708" lon="-2.71132">
        <ele>74</ele>
        <time>2013-11-22T08:48:06Z</time>
      </trkpt>
      <trkpt lat="48.50709" lon="-2.71133">
        <ele>74</ele>
        <time>2013-11-22T08:48:07Z</time>
      </trkpt>
      <trkpt lat="48.5071" lon="-2.71133">
        <ele>74</ele>
        <time>2013-11-22T08:48:08Z</time>
      </trkpt>
      <trkpt lat="48.50712" lon="-2.71134">
        <ele>74</ele>
        <time>2013-11-22T08:48:09Z</time>
      </trkpt>
      <trkpt lat="48.50713" lon="-2.71135">
        <ele>74</ele>
        <time>2013-11-22T08:48:10Z</time>
      </trkpt>
      <trkpt lat="48.50714" lon="-2.71136">
        <ele>74</ele>
        <time>2013-11-22T08:48:11Z</time>
      </trkpt>
      <trkpt lat="48.50716" lon="-2.71137">
        <ele>74</ele>
        <time>2013-11-22T08:48:12Z</time>
      </trkpt>
      <trkpt lat="48.50718" lon="-2.71138">
        <ele>74</ele>
        <time>2013-11-22T08:48:13Z</time>
      </trkpt>
      <trkpt lat="48.50719" lon="-2.71138">
        <ele>74</ele>
        <time>2013-11-22T08:48:14Z</time>
      </trkpt>
      <trkpt lat="48.50721" lon="-2.71139">
        <ele>74</ele>
        <time>2013-11-22T08:48:15Z</time>
      </trkpt>
      <trkpt lat="48.50722" lon="-2.7114">
        <ele>74</ele>
        <time>2013-11-22T08:48:16Z</time>
      </trkpt>
      <trkpt lat="48.50724" lon="-2.71141">
        <ele>74</ele>
        <time>2013-11-22T08:48:17Z</time>
      </trkpt>
      <trkpt lat="48.50725" lon="-2.71141">
        <ele>74</ele>
        <time>2013-11-22T08:48:18Z</time>
      </trkpt>
      <trkpt lat="48.50726" lon="-2.71142">
        <ele>74</ele>
        <time>2013-11-22T08:48:19Z</time>
      </trkpt>
      <trkpt lat="48.50728" lon="-2.71143">
        <ele>74</ele>
        <time>2013-11-22T08:48:20Z</time>
      </trkpt>
      <trkpt lat="48.50729" lon="-2.71144">
        <ele>73</ele>
        <time>2013-11-22T08:48:21Z</time>
      </trkpt>
      <trkpt lat="48.50731" lon="-2.71145">
        <ele>73</ele>
        <time>2013-11-22T08:48:22Z</time>
      </trkpt>
      <trkpt lat="48.50732" lon="-2.71146">
        <ele>73</ele>
        <time>2013-11-22T08:48:23Z</time>
      </trkpt>
      <trkpt lat="48.50733" lon="-2.71146">
        <ele>73</ele>
        <time>2013-11-22T08:48:24Z</time>
      </trkpt>
      <trkpt lat="48.50735" lon="-2.71147">
        <ele>73</ele>
        <time>2013-11-22T08:48:25Z</time>
      </trkpt>
      <trkpt lat="48.50736" lon="-2.71148">
        <ele>73</ele>
        <time>2013-11-22T08:48:26Z</time>
      </trkpt>
      <trkpt lat="48.50737" lon="-2.71149">
        <ele>73</ele>
        <time>2013-11-22T08:48:27Z</time>
      </trkpt>
      <trkpt lat="48.50739" lon="-2.7115">
        <ele>73</ele>
        <time>2013-11-22T08:48:28Z</time>
      </trkpt>
      <trkpt lat="48.5074" lon="-2.71151">
        <ele>73</ele>
        <time>2013-11-22T08:48:29Z</time>
      </trkpt>
      <trkpt lat="48.50742" lon="-2.71151">
        <ele>73</ele>
        <time>2013-11-22T08:48:30Z</time>
      </trkpt>
      <trkpt lat="48.50743" lon="-2.71152">
        <ele>73</ele>
        <time>2013-11-22T08:48:31Z</time>
      </trkpt>
      <trkpt lat="48.50744" lon="-2.71153">
        <ele>73</ele>
        <time>2013-11-22T08:48:32Z</time>
      </trkpt>
      <trkpt lat="48.50746" lon="-2.71154">
        <ele>73</ele>
        <time>2013-11-22T08:48:33Z</time>
      </trkpt>
      <trkpt lat="48.50747" lon="-2.71154">
        <ele>73</ele>
        <time>2013-11-22T08:48:34Z</time>
      </trkpt>
      <trkpt lat="48.50749" lon="-2.71154">
        <ele>73</ele>
        <time>2013-11-22T08:48:35Z</time>
      </trkpt>
      <trkpt lat="48.5075" lon="-2.71155">
        <ele>73</ele>
        <time>2013-11-22T08:48:36Z</time>
      </trkpt>
      <trkpt lat="48.50752" lon="-2.71156">
        <ele>73</ele>
        <time>2013-11-22T08:48:37Z</time>
      </trkpt>
      <trkpt lat="48.50753" lon="-2.71156">
        <ele>73</ele>
        <time>2013-11-22T08:48:38Z</time>
      </trkpt>
      <trkpt lat="48.50755" lon="-2.71156">
        <ele>72</ele>
        <time>2013-11-22T08:48:39Z</time>
      </trkpt>
      <trkpt lat="48.50756" lon="-2.71157">
        <ele>72</ele>
        <time>2013-11-22T08:48:40Z</time>
      </trkpt>
      <trkpt lat="48.50757" lon="-2.71157">
        <ele>72</ele>
        <time>2013-11-22T08:48:41Z</time>
      </trkpt>
      <trkpt lat="48.50758" lon="-2.71158">
        <ele>72</ele>
        <time>2013-11-22T08:48:42Z</time>
      </trkpt>
      <trkpt lat="48.5076" lon="-2.71158">
        <ele>72</ele>
        <time>2013-11-22T08:48:43Z</time>
      </trkpt>
      <trkpt lat="48.50761" lon="-2.71158">
        <ele>72</ele>
        <time>2013-11-22T08:48:44Z</time>
      </trkpt>
      <trkpt lat="48.50763" lon="-2.71159">
        <ele>72</ele>
        <time>2013-11-22T08:48:45Z</time>
      </trkpt>
      <trkpt lat="48.50764" lon="-2.71159">
        <ele>72</ele>
        <time>2013-11-22T08:48:46Z</time>
      </trkpt>
      <trkpt lat="48.50765" lon="-2.7116">
        <ele>72</ele>
        <time>2013-11-22T08:48:47Z</time>
      </trkpt>
      <trkpt lat="48.50767" lon="-2.7116">
        <ele>72</ele>
        <time>2013-11-22T08:48:48Z</time>
      </trkpt>
      <trkpt lat="48.50768" lon="-2.7116">
        <ele>72</ele>
        <time>2013-11-22T08:48:49Z</time>
      </trkpt>
      <trkpt lat="48.5077" lon="-2.71161">
        <ele>72</ele>
        <time>2013-11-22T08:48:50Z</time>
      </trkpt>
      <trkpt lat="48.50771" lon="-2.71161">
        <ele>72</ele>
        <time>2013-11-22T08:48:51Z</time>
      </trkpt>
      <trkpt lat="48.50772" lon="-2.71161">
        <ele>72</ele>
        <time>2013-11-22T08:48:52Z</time>
      </trkpt>
      <trkpt lat="48.50774" lon="-2.71162">
        <ele>72</ele>
        <time>2013-11-22T08:48:53Z</time>
      </trkpt>
      <trkpt lat="48.50775" lon="-2.71162">
        <ele>72</ele>
        <time>2013-11-22T08:48:54Z</time>
      </trkpt>
      <trkpt lat="48.50777" lon="-2.71162">
        <ele>72</ele>
        <time>2013-11-22T08:48:55Z</time>
      </trkpt>
      <trkpt lat="48.50778" lon="-2.71163">
        <ele>72</ele>
        <time>2013-11-22T08:48:56Z</time>
      </trkpt>
      <trkpt lat="48.50779" lon="-2.71163">
        <ele>72</ele>
        <time>2013-11-22T08:48:57Z</time>
      </trkpt>
      <trkpt lat="48.50781" lon="-2.71164">
        <ele>72</ele>
        <time>2013-11-22T08:48:58Z</time>
      </trkpt>
      <trkpt lat="48.50783" lon="-2.71164">
        <ele>72</ele>
        <time>2013-11-22T08:48:59Z</time>
      </trkpt>
      <trkpt lat="48.50784" lon="-2.71165">
        <ele>72</ele>
        <time>2013-11-22T08:49:00Z</time>
      </trkpt>
      <trkpt lat="48.50786" lon="-2.71165">
        <ele>72</ele>
        <time>2013-11-22T08:49:01Z</time>
      </trkpt>
      <trkpt lat="48.50787" lon="-2.71165">
        <ele>72</ele>
        <time>2013-11-22T08:49:02Z</time>
      </trkpt>
      <trkpt lat="48.50789" lon="-2.71166">
        <ele>72</ele>
        <time>2013-11-22T08:49:03Z</time>
      </trkpt>
      <trkpt lat="48.5079" lon="-2.71166">
        <ele>72</ele>
        <time>2013-11-22T08:49:04Z</time>
      </trkpt>
      <trkpt lat="48.50791" lon="-2.71166">
        <ele>72</ele>
        <time>2013-11-22T08:49:05Z</time>
      </trkpt>
      <trkpt lat="48.50793" lon="-2.71167">
        <ele>72</ele>
        <time>2013-11-22T08:49:06Z</time>
      </trkpt>
      <trkpt lat="48.50794" lon="-2.71167">
        <ele>72</ele>
        <time>2013-11-22T08:49:07Z</time>
      </trkpt>
      <trkpt lat="48.50795" lon="-2.71167">
        <ele>72</ele>
        <time>2013-11-22T08:49:08Z</time>
      </trkpt>
      <trkpt lat="48.50797" lon="-2.71168">
        <ele>72</ele>
        <time>2013-11-22T08:49:09Z</time>
      </trkpt>
      <trkpt lat="48.50798" lon="-2.71168">
        <ele>72</ele>
        <time>2013-11-22T08:49:10Z</time>
      </trkpt>
      <trkpt lat="48.508" lon="-2.71169">
        <ele>72</ele>
        <time>2013-11-22T08:49:11Z</time>
      </trkpt>
      <trkpt lat="48.50801" lon="-2.71169">
        <ele>72</ele>
        <time>2013-11-22T08:49:12Z</time>
      </trkpt>
      <trkpt lat="48.50802" lon="-2.7117">
        <ele>72</ele>
        <time>2013-11-22T08:49:13Z</time>
      </trkpt>
      <trkpt lat="48.50803" lon="-2.7117">
        <ele>72</ele>
        <time>2013-11-22T08:49:14Z</time>
      </trkpt>
      <trkpt lat="48.50805" lon="-2.7117">
        <ele>72</ele>
        <time>2013-11-22T08:49:15Z</time>
      </trkpt>
      <trkpt lat="48.50806" lon="-2.71171">
        <ele>72</ele>
        <time>2013-11-22T08:49:16Z</time>
      </trkpt>
      <trkpt lat="48.50808" lon="-2.71171">
        <ele>72</ele>
        <time>2013-11-22T08:49:17Z</time>
      </trkpt>
      <trkpt lat="48.50809" lon="-2.71171">
        <ele>72</ele>
        <time>2013-11-22T08:49:18Z</time>
      </trkpt>
      <trkpt lat="48.50812" lon="-2.71171">
        <ele>72</ele>
        <time>2013-11-22T08:49:20Z</time>
      </trkpt>
      <trkpt lat="48.50815" lon="-2.71171">
        <ele>72</ele>
        <time>2013-11-22T08:49:22Z</time>
      </trkpt>
      <trkpt lat="48.50818" lon="-2.71171">
        <ele>71</ele>
        <time>2013-11-22T08:49:24Z</time>
      </trkpt>
      <trkpt lat="48.50821" lon="-2.71171">
        <ele>71</ele>
        <time>2013-11-22T08:49:26Z</time>
      </trkpt>
      <trkpt lat="48.50823" lon="-2.71171">
        <ele>71</ele>
        <time>2013-11-22T08:49:27Z</time>
      </trkpt>
      <trkpt lat="48.50829" lon="-2.71171">
        <ele>70</ele>
        <time>2013-11-22T08:49:31Z</time>
      </trkpt>
      <trkpt lat="48.50831" lon="-2.71171">
        <ele>69</ele>
        <time>2013-11-22T08:49:32Z</time>
      </trkpt>
      <trkpt lat="48.50832" lon="-2.71172">
        <ele>69</ele>
        <time>2013-11-22T08:49:33Z</time>
      </trkpt>
      <trkpt lat="48.50834" lon="-2.71171">
        <ele>69</ele>
        <time>2013-11-22T08:49:34Z</time>
      </trkpt>
      <trkpt lat="48.50837" lon="-2.71171">
        <ele>69</ele>
        <time>2013-11-22T08:49:36Z</time>
      </trkpt>
      <trkpt lat="48.5084" lon="-2.71171">
        <ele>68</ele>
        <time>2013-11-22T08:49:38Z</time>
      </trkpt>
      <trkpt lat="48.50843" lon="-2.71171">
        <ele>68</ele>
        <time>2013-11-22T08:49:40Z</time>
      </trkpt>
      <trkpt lat="48.50844" lon="-2.71171">
        <ele>68</ele>
        <time>2013-11-22T08:49:41Z</time>
      </trkpt>
      <trkpt lat="48.50847" lon="-2.71171">
        <ele>68</ele>
        <time>2013-11-22T08:49:43Z</time>
      </trkpt>
      <trkpt lat="48.50849" lon="-2.71171">
        <ele>68</ele>
        <time>2013-11-22T08:49:44Z</time>
      </trkpt>
      <trkpt lat="48.5085" lon="-2.71172">
        <ele>68</ele>
        <time>2013-11-22T08:49:45Z</time>
      </trkpt>
      <trkpt lat="48.50852" lon="-2.71172">
        <ele>68</ele>
        <time>2013-11-22T08:49:46Z</time>
      </trkpt>
      <trkpt lat="48.50853" lon="-2.71173">
        <ele>68</ele>
        <time>2013-11-22T08:49:47Z</time>
      </trkpt>
      <trkpt lat="48.50854" lon="-2.71174">
        <ele>68</ele>
        <time>2013-11-22T08:49:48Z</time>
      </trkpt>
      <trkpt lat="48.50856" lon="-2.71174">
        <ele>68</ele>
        <time>2013-11-22T08:49:49Z</time>
      </trkpt>
      <trkpt lat="48.50857" lon="-2.71175">
        <ele>68</ele>
        <time>2013-11-22T08:49:50Z</time>
      </trkpt>
      <trkpt lat="48.50859" lon="-2.71176">
        <ele>68</ele>
        <time>2013-11-22T08:49:51Z</time>
      </trkpt>
      <trkpt lat="48.5086" lon="-2.71177">
        <ele>68</ele>
        <time>2013-11-22T08:49:52Z</time>
      </trkpt>
      <trkpt lat="48.50861" lon="-2.71177">
        <ele>68</ele>
        <time>2013-11-22T08:49:53Z</time>
      </trkpt>
      <trkpt lat="48.50863" lon="-2.71178">
        <ele>68</ele>
        <time>2013-11-22T08:49:54Z</time>
      </trkpt>
      <trkpt lat="48.50864" lon="-2.71179">
        <ele>68</ele>
        <time>2013-11-22T08:49:55Z</time>
      </trkpt>
      <trkpt lat="48.50865" lon="-2.7118">
        <ele>68</ele>
        <time>2013-11-22T08:49:56Z</time>
      </trkpt>
      <trkpt lat="48.50867" lon="-2.71181">
        <ele>68</ele>
        <time>2013-11-22T08:49:57Z</time>
      </trkpt>
      <trkpt lat="48.50868" lon="-2.71181">
        <ele>68</ele>
        <time>2013-11-22T08:49:58Z</time>
      </trkpt>
      <trkpt lat="48.5087" lon="-2.71183">
        <ele>68</ele>
        <time>2013-11-22T08:50:00Z</time>
      </trkpt>
      <trkpt lat="48.50872" lon="-2.71183">
        <ele>68</ele>
        <time>2013-11-22T08:50:01Z</time>
      </trkpt>
      <trkpt lat="48.50873" lon="-2.71184">
        <ele>68</ele>
        <time>2013-11-22T08:50:02Z</time>
      </trkpt>
      <trkpt lat="48.50874" lon="-2.71184">
        <ele>68</ele>
        <time>2013-11-22T08:50:03Z</time>
      </trkpt>
      <trkpt lat="48.50876" lon="-2.71185">
        <ele>68</ele>
        <time>2013-11-22T08:50:05Z</time>
      </trkpt>
      <trkpt lat="48.50877" lon="-2.71186">
        <ele>68</ele>
        <time>2013-11-22T08:50:06Z</time>
      </trkpt>
      <trkpt lat="48.50879" lon="-2.71187">
        <ele>68</ele>
        <time>2013-11-22T08:50:07Z</time>
      </trkpt>
      <trkpt lat="48.5088" lon="-2.71187">
        <ele>68</ele>
        <time>2013-11-22T08:50:08Z</time>
      </trkpt>
      <trkpt lat="48.50883" lon="-2.71187">
        <ele>68</ele>
        <time>2013-11-22T08:50:10Z</time>
      </trkpt>
      <trkpt lat="48.50884" lon="-2.71186">
        <ele>68</ele>
        <time>2013-11-22T08:50:11Z</time>
      </trkpt>
      <trkpt lat="48.50885" lon="-2.71186">
        <ele>68</ele>
        <time>2013-11-22T08:50:12Z</time>
      </trkpt>
      <trkpt lat="48.50887" lon="-2.71186">
        <ele>68</ele>
        <time>2013-11-22T08:50:13Z</time>
      </trkpt>
      <trkpt lat="48.50888" lon="-2.71185">
        <ele>68</ele>
        <time>2013-11-22T08:50:14Z</time>
      </trkpt>
      <trkpt lat="48.50889" lon="-2.71185">
        <ele>68</ele>
        <time>2013-11-22T08:50:15Z</time>
      </trkpt>
      <trkpt lat="48.5089" lon="-2.71184">
        <ele>68</ele>
        <time>2013-11-22T08:50:16Z</time>
      </trkpt>
      <trkpt lat="48.50892" lon="-2.71184">
        <ele>68</ele>
        <time>2013-11-22T08:50:17Z</time>
      </trkpt>
      <trkpt lat="48.50893" lon="-2.71183">
        <ele>68</ele>
        <time>2013-11-22T08:50:18Z</time>
      </trkpt>
      <trkpt lat="48.50894" lon="-2.71182">
        <ele>68</ele>
        <time>2013-11-22T08:50:19Z</time>
      </trkpt>
      <trkpt lat="48.50895" lon="-2.71181">
        <ele>68</ele>
        <time>2013-11-22T08:50:20Z</time>
      </trkpt>
      <trkpt lat="48.50897" lon="-2.71181">
        <ele>68</ele>
        <time>2013-11-22T08:50:21Z</time>
      </trkpt>
      <trkpt lat="48.50898" lon="-2.7118">
        <ele>68</ele>
        <time>2013-11-22T08:50:22Z</time>
      </trkpt>
      <trkpt lat="48.50899" lon="-2.71179">
        <ele>68</ele>
        <time>2013-11-22T08:50:23Z</time>
      </trkpt>
      <trkpt lat="48.50901" lon="-2.71178">
        <ele>68</ele>
        <time>2013-11-22T08:50:25Z</time>
      </trkpt>
      <trkpt lat="48.50903" lon="-2.71176">
        <ele>68</ele>
        <time>2013-11-22T08:50:27Z</time>
      </trkpt>
      <trkpt lat="48.50904" lon="-2.71175">
        <ele>68</ele>
        <time>2013-11-22T08:50:28Z</time>
      </trkpt>
      <trkpt lat="48.50906" lon="-2.71174">
        <ele>68</ele>
        <time>2013-11-22T08:50:30Z</time>
      </trkpt>
      <trkpt lat="48.50908" lon="-2.71173">
        <ele>68</ele>
        <time>2013-11-22T08:50:31Z</time>
      </trkpt>
      <trkpt lat="48.50909" lon="-2.71172">
        <ele>68</ele>
        <time>2013-11-22T08:50:32Z</time>
      </trkpt>
      <trkpt lat="48.5091" lon="-2.71171">
        <ele>68</ele>
        <time>2013-11-22T08:50:33Z</time>
      </trkpt>
      <trkpt lat="48.50912" lon="-2.7117">
        <ele>68</ele>
        <time>2013-11-22T08:50:34Z</time>
      </trkpt>
      <trkpt lat="48.50913" lon="-2.71169">
        <ele>68</ele>
        <time>2013-11-22T08:50:35Z</time>
      </trkpt>
      <trkpt lat="48.50914" lon="-2.71168">
        <ele>68</ele>
        <time>2013-11-22T08:50:36Z</time>
      </trkpt>
      <trkpt lat="48.50915" lon="-2.71168">
        <ele>67</ele>
        <time>2013-11-22T08:50:37Z</time>
      </trkpt>
      <trkpt lat="48.50917" lon="-2.71167">
        <ele>67</ele>
        <time>2013-11-22T08:50:38Z</time>
      </trkpt>
      <trkpt lat="48.50918" lon="-2.71166">
        <ele>67</ele>
        <time>2013-11-22T08:50:39Z</time>
      </trkpt>
      <trkpt lat="48.5092" lon="-2.71164">
        <ele>67</ele>
        <time>2013-11-22T08:50:41Z</time>
      </trkpt>
      <trkpt lat="48.50921" lon="-2.71164">
        <ele>67</ele>
        <time>2013-11-22T08:50:42Z</time>
      </trkpt>
      <trkpt lat="48.50922" lon="-2.71163">
        <ele>67</ele>
        <time>2013-11-22T08:50:43Z</time>
      </trkpt>
      <trkpt lat="48.50924" lon="-2.71162">
        <ele>67</ele>
        <time>2013-11-22T08:50:44Z</time>
      </trkpt>
      <trkpt lat="48.50925" lon="-2.71162">
        <ele>67</ele>
        <time>2013-11-22T08:50:45Z</time>
      </trkpt>
      <trkpt lat="48.50927" lon="-2.71161">
        <ele>67</ele>
        <time>2013-11-22T08:50:46Z</time>
      </trkpt>
      <trkpt lat="48.50928" lon="-2.7116">
        <ele>67</ele>
        <time>2013-11-22T08:50:47Z</time>
      </trkpt>
      <trkpt lat="48.50929" lon="-2.71159">
        <ele>67</ele>
        <time>2013-11-22T08:50:48Z</time>
      </trkpt>
      <trkpt lat="48.5093" lon="-2.71158">
        <ele>66</ele>
        <time>2013-11-22T08:50:49Z</time>
      </trkpt>
      <trkpt lat="48.50932" lon="-2.71157">
        <ele>66</ele>
        <time>2013-11-22T08:50:50Z</time>
      </trkpt>
      <trkpt lat="48.50933" lon="-2.71156">
        <ele>66</ele>
        <time>2013-11-22T08:50:51Z</time>
      </trkpt>
      <trkpt lat="48.50934" lon="-2.71155">
        <ele>66</ele>
        <time>2013-11-22T08:50:52Z</time>
      </trkpt>
      <trkpt lat="48.50935" lon="-2.71155">
        <ele>66</ele>
        <time>2013-11-22T08:50:53Z</time>
      </trkpt>
      <trkpt lat="48.50937" lon="-2.71154">
        <ele>66</ele>
        <time>2013-11-22T08:50:54Z</time>
      </trkpt>
      <trkpt lat="48.50938" lon="-2.71154">
        <ele>66</ele>
        <time>2013-11-22T08:50:55Z</time>
      </trkpt>
      <trkpt lat="48.50939" lon="-2.71153">
        <ele>66</ele>
        <time>2013-11-22T08:50:56Z</time>
      </trkpt>
      <trkpt lat="48.50941" lon="-2.71152">
        <ele>66</ele>
        <time>2013-11-22T08:50:57Z</time>
      </trkpt>
      <trkpt lat="48.50942" lon="-2.71151">
        <ele>65</ele>
        <time>2013-11-22T08:50:58Z</time>
      </trkpt>
      <trkpt lat="48.50943" lon="-2.71151">
        <ele>65</ele>
        <time>2013-11-22T08:50:59Z</time>
      </trkpt>
      <trkpt lat="48.50945" lon="-2.71151">
        <ele>65</ele>
        <time>2013-11-22T08:51:00Z</time>
      </trkpt>
      <trkpt lat="48.50946" lon="-2.7115">
        <ele>65</ele>
        <time>2013-11-22T08:51:01Z</time>
      </trkpt>
      <trkpt lat="48.50947" lon="-2.7115">
        <ele>65</ele>
        <time>2013-11-22T08:51:02Z</time>
      </trkpt>
      <trkpt lat="48.50949" lon="-2.7115">
        <ele>65</ele>
        <time>2013-11-22T08:51:03Z</time>
      </trkpt>
      <trkpt lat="48.5095" lon="-2.71149">
        <ele>65</ele>
        <time>2013-11-22T08:51:04Z</time>
      </trkpt>
      <trkpt lat="48.50952" lon="-2.71149">
        <ele>65</ele>
        <time>2013-11-22T08:51:05Z</time>
      </trkpt>
      <trkpt lat="48.50954" lon="-2.71149">
        <ele>65</ele>
        <time>2013-11-22T08:51:07Z</time>
      </trkpt>
      <trkpt lat="48.5096" lon="-2.71149">
        <ele>64</ele>
        <time>2013-11-22T08:51:11Z</time>
      </trkpt>
      <trkpt lat="48.50961" lon="-2.71149">
        <ele>63</ele>
        <time>2013-11-22T08:51:12Z</time>
      </trkpt>
      <trkpt lat="48.50964" lon="-2.71149">
        <ele>63</ele>
        <time>2013-11-22T08:51:14Z</time>
      </trkpt>
      <trkpt lat="48.50966" lon="-2.71149">
        <ele>63</ele>
        <time>2013-11-22T08:51:15Z</time>
      </trkpt>
      <trkpt lat="48.50969" lon="-2.7115">
        <ele>63</ele>
        <time>2013-11-22T08:51:17Z</time>
      </trkpt>
      <trkpt lat="48.5097" lon="-2.7115">
        <ele>63</ele>
        <time>2013-11-22T08:51:18Z</time>
      </trkpt>
      <trkpt lat="48.50973" lon="-2.7115">
        <ele>63</ele>
        <time>2013-11-22T08:51:20Z</time>
      </trkpt>
      <trkpt lat="48.50974" lon="-2.7115">
        <ele>63</ele>
        <time>2013-11-22T08:51:21Z</time>
      </trkpt>
      <trkpt lat="48.50975" lon="-2.7115">
        <ele>63</ele>
        <time>2013-11-22T08:51:22Z</time>
      </trkpt>
      <trkpt lat="48.50977" lon="-2.7115">
        <ele>63</ele>
        <time>2013-11-22T08:51:23Z</time>
      </trkpt>
      <trkpt lat="48.5098" lon="-2.7115">
        <ele>63</ele>
        <time>2013-11-22T08:51:25Z</time>
      </trkpt>
      <trkpt lat="48.50985" lon="-2.7115">
        <ele>63</ele>
        <time>2013-11-22T08:51:29Z</time>
      </trkpt>
      <trkpt lat="48.50991" lon="-2.7115">
        <ele>63</ele>
        <time>2013-11-22T08:51:33Z</time>
      </trkpt>
      <trkpt lat="48.50993" lon="-2.7115">
        <ele>63</ele>
        <time>2013-11-22T08:51:34Z</time>
      </trkpt>
      <trkpt lat="48.50995" lon="-2.7115">
        <ele>63</ele>
        <time>2013-11-22T08:51:36Z</time>
      </trkpt>
      <trkpt lat="48.50998" lon="-2.71149">
        <ele>63</ele>
        <time>2013-11-22T08:51:38Z</time>
      </trkpt>
      <trkpt lat="48.51001" lon="-2.71149">
        <ele>63</ele>
        <time>2013-11-22T08:51:40Z</time>
      </trkpt>
      <trkpt lat="48.51003" lon="-2.71149">
        <ele>63</ele>
        <time>2013-11-22T08:51:41Z</time>
      </trkpt>
      <trkpt lat="48.51004" lon="-2.71149">
        <ele>63</ele>
        <time>2013-11-22T08:51:42Z</time>
      </trkpt>
      <trkpt lat="48.51005" lon="-2.71149">
        <ele>63</ele>
        <time>2013-11-22T08:51:43Z</time>
      </trkpt>
      <trkpt lat="48.51007" lon="-2.71149">
        <ele>63</ele>
        <time>2013-11-22T08:51:44Z</time>
      </trkpt>
      <trkpt lat="48.51009" lon="-2.71148">
        <ele>63</ele>
        <time>2013-11-22T08:51:46Z</time>
      </trkpt>
      <trkpt lat="48.51011" lon="-2.71148">
        <ele>63</ele>
        <time>2013-11-22T08:51:47Z</time>
      </trkpt>
      <trkpt lat="48.51012" lon="-2.71148">
        <ele>63</ele>
        <time>2013-11-22T08:51:48Z</time>
      </trkpt>
      <trkpt lat="48.51015" lon="-2.71148">
        <ele>63</ele>
        <time>2013-11-22T08:51:50Z</time>
      </trkpt>
      <trkpt lat="48.51017" lon="-2.71148">
        <ele>63</ele>
        <time>2013-11-22T08:51:51Z</time>
      </trkpt>
      <trkpt lat="48.5102" lon="-2.71148">
        <ele>63</ele>
        <time>2013-11-22T08:51:53Z</time>
      </trkpt>
      <trkpt lat="48.51022" lon="-2.71147">
        <ele>63</ele>
        <time>2013-11-22T08:51:55Z</time>
      </trkpt>
      <trkpt lat="48.5103" lon="-2.71147">
        <ele>63</ele>
        <time>2013-11-22T08:52:00Z</time>
      </trkpt>
      <trkpt lat="48.51031" lon="-2.71147">
        <ele>62</ele>
        <time>2013-11-22T08:52:01Z</time>
      </trkpt>
      <trkpt lat="48.51033" lon="-2.71148">
        <ele>62</ele>
        <time>2013-11-22T08:52:02Z</time>
      </trkpt>
      <trkpt lat="48.51037" lon="-2.71148">
        <ele>62</ele>
        <time>2013-11-22T08:52:05Z</time>
      </trkpt>
      <trkpt lat="48.51038" lon="-2.71148">
        <ele>61</ele>
        <time>2013-11-22T08:52:06Z</time>
      </trkpt>
      <trkpt lat="48.5104" lon="-2.71148">
        <ele>61</ele>
        <time>2013-11-22T08:52:07Z</time>
      </trkpt>
      <trkpt lat="48.51041" lon="-2.71148">
        <ele>61</ele>
        <time>2013-11-22T08:52:08Z</time>
      </trkpt>
      <trkpt lat="48.51043" lon="-2.71149">
        <ele>61</ele>
        <time>2013-11-22T08:52:09Z</time>
      </trkpt>
      <trkpt lat="48.51044" lon="-2.71149">
        <ele>61</ele>
        <time>2013-11-22T08:52:10Z</time>
      </trkpt>
      <trkpt lat="48.51046" lon="-2.71149">
        <ele>61</ele>
        <time>2013-11-22T08:52:11Z</time>
      </trkpt>
      <trkpt lat="48.51047" lon="-2.71149">
        <ele>61</ele>
        <time>2013-11-22T08:52:12Z</time>
      </trkpt>
      <trkpt lat="48.51049" lon="-2.7115">
        <ele>61</ele>
        <time>2013-11-22T08:52:13Z</time>
      </trkpt>
      <trkpt lat="48.5105" lon="-2.7115">
        <ele>61</ele>
        <time>2013-11-22T08:52:14Z</time>
      </trkpt>
      <trkpt lat="48.51051" lon="-2.7115">
        <ele>61</ele>
        <time>2013-11-22T08:52:15Z</time>
      </trkpt>
      <trkpt lat="48.51053" lon="-2.71151">
        <ele>61</ele>
        <time>2013-11-22T08:52:16Z</time>
      </trkpt>
      <trkpt lat="48.51054" lon="-2.71151">
        <ele>60</ele>
        <time>2013-11-22T08:52:17Z</time>
      </trkpt>
      <trkpt lat="48.51056" lon="-2.71152">
        <ele>60</ele>
        <time>2013-11-22T08:52:18Z</time>
      </trkpt>
      <trkpt lat="48.51057" lon="-2.71152">
        <ele>60</ele>
        <time>2013-11-22T08:52:19Z</time>
      </trkpt>
      <trkpt lat="48.51059" lon="-2.71153">
        <ele>60</ele>
        <time>2013-11-22T08:52:20Z</time>
      </trkpt>
      <trkpt lat="48.5106" lon="-2.71153">
        <ele>60</ele>
        <time>2013-11-22T08:52:21Z</time>
      </trkpt>
      <trkpt lat="48.51062" lon="-2.71154">
        <ele>60</ele>
        <time>2013-11-22T08:52:22Z</time>
      </trkpt>
      <trkpt lat="48.51063" lon="-2.71154">
        <ele>60</ele>
        <time>2013-11-22T08:52:23Z</time>
      </trkpt>
      <trkpt lat="48.51064" lon="-2.71155">
        <ele>60</ele>
        <time>2013-11-22T08:52:24Z</time>
      </trkpt>
      <trkpt lat="48.51066" lon="-2.71156">
        <ele>60</ele>
        <time>2013-11-22T08:52:25Z</time>
      </trkpt>
      <trkpt lat="48.51067" lon="-2.71156">
        <ele>60</ele>
        <time>2013-11-22T08:52:26Z</time>
      </trkpt>
      <trkpt lat="48.51069" lon="-2.71157">
        <ele>60</ele>
        <time>2013-11-22T08:52:27Z</time>
      </trkpt>
      <trkpt lat="48.5107" lon="-2.71157">
        <ele>60</ele>
        <time>2013-11-22T08:52:28Z</time>
      </trkpt>
      <trkpt lat="48.51072" lon="-2.71158">
        <ele>60</ele>
        <time>2013-11-22T08:52:29Z</time>
      </trkpt>
      <trkpt lat="48.51073" lon="-2.71159">
        <ele>60</ele>
        <time>2013-11-22T08:52:30Z</time>
      </trkpt>
      <trkpt lat="48.51074" lon="-2.7116">
        <ele>60</ele>
        <time>2013-11-22T08:52:31Z</time>
      </trkpt>
      <trkpt lat="48.51076" lon="-2.71161">
        <ele>60</ele>
        <time>2013-11-22T08:52:32Z</time>
      </trkpt>
      <trkpt lat="48.51077" lon="-2.71162">
        <ele>60</ele>
        <time>2013-11-22T08:52:33Z</time>
      </trkpt>
      <trkpt lat="48.51079" lon="-2.71162">
        <ele>60</ele>
        <time>2013-11-22T08:52:34Z</time>
      </trkpt>
      <trkpt lat="48.5108" lon="-2.71163">
        <ele>60</ele>
        <time>2013-11-22T08:52:35Z</time>
      </trkpt>
      <trkpt lat="48.51081" lon="-2.71164">
        <ele>60</ele>
        <time>2013-11-22T08:52:36Z</time>
      </trkpt>
      <trkpt lat="48.51083" lon="-2.71164">
        <ele>60</ele>
        <time>2013-11-22T08:52:37Z</time>
      </trkpt>
      <trkpt lat="48.51084" lon="-2.71165">
        <ele>60</ele>
        <time>2013-11-22T08:52:38Z</time>
      </trkpt>
      <trkpt lat="48.51086" lon="-2.71166">
        <ele>60</ele>
        <time>2013-11-22T08:52:39Z</time>
      </trkpt>
      <trkpt lat="48.51087" lon="-2.71167">
        <ele>60</ele>
        <time>2013-11-22T08:52:40Z</time>
      </trkpt>
      <trkpt lat="48.51088" lon="-2.71168">
        <ele>60</ele>
        <time>2013-11-22T08:52:41Z</time>
      </trkpt>
      <trkpt lat="48.5109" lon="-2.71168">
        <ele>60</ele>
        <time>2013-11-22T08:52:42Z</time>
      </trkpt>
      <trkpt lat="48.51091" lon="-2.71169">
        <ele>60</ele>
        <time>2013-11-22T08:52:43Z</time>
      </trkpt>
      <trkpt lat="48.51093" lon="-2.7117">
        <ele>60</ele>
        <time>2013-11-22T08:52:44Z</time>
      </trkpt>
      <trkpt lat="48.51094" lon="-2.71171">
        <ele>60</ele>
        <time>2013-11-22T08:52:45Z</time>
      </trkpt>
      <trkpt lat="48.51096" lon="-2.71171">
        <ele>60</ele>
        <time>2013-11-22T08:52:46Z</time>
      </trkpt>
      <trkpt lat="48.51097" lon="-2.71172">
        <ele>60</ele>
        <time>2013-11-22T08:52:47Z</time>
      </trkpt>
      <trkpt lat="48.51099" lon="-2.71172">
        <ele>60</ele>
        <time>2013-11-22T08:52:48Z</time>
      </trkpt>
      <trkpt lat="48.511" lon="-2.71173">
        <ele>60</ele>
        <time>2013-11-22T08:52:49Z</time>
      </trkpt>
      <trkpt lat="48.51102" lon="-2.71173">
        <ele>60</ele>
        <time>2013-11-22T08:52:50Z</time>
      </trkpt>
      <trkpt lat="48.51103" lon="-2.71174">
        <ele>60</ele>
        <time>2013-11-22T08:52:51Z</time>
      </trkpt>
      <trkpt lat="48.51105" lon="-2.71174">
        <ele>60</ele>
        <time>2013-11-22T08:52:52Z</time>
      </trkpt>
      <trkpt lat="48.51106" lon="-2.71175">
        <ele>60</ele>
        <time>2013-11-22T08:52:53Z</time>
      </trkpt>
      <trkpt lat="48.51108" lon="-2.71175">
        <ele>60</ele>
        <time>2013-11-22T08:52:54Z</time>
      </trkpt>
      <trkpt lat="48.51109" lon="-2.71176">
        <ele>60</ele>
        <time>2013-11-22T08:52:55Z</time>
      </trkpt>
      <trkpt lat="48.5111" lon="-2.71176">
        <ele>60</ele>
        <time>2013-11-22T08:52:56Z</time>
      </trkpt>
      <trkpt lat="48.51114" lon="-2.71176">
        <ele>60</ele>
        <time>2013-11-22T08:52:58Z</time>
      </trkpt>
      <trkpt lat="48.51115" lon="-2.71177">
        <ele>60</ele>
        <time>2013-11-22T08:52:59Z</time>
      </trkpt>
      <trkpt lat="48.51118" lon="-2.71177">
        <ele>60</ele>
        <time>2013-11-22T08:53:01Z</time>
      </trkpt>
      <trkpt lat="48.5112" lon="-2.71177">
        <ele>60</ele>
        <time>2013-11-22T08:53:02Z</time>
      </trkpt>
      <trkpt lat="48.51122" lon="-2.71177">
        <ele>60</ele>
        <time>2013-11-22T08:53:04Z</time>
      </trkpt>
      <trkpt lat="48.51125" lon="-2.71177">
        <ele>60</ele>
        <time>2013-11-22T08:53:06Z</time>
      </trkpt>
      <trkpt lat="48.51128" lon="-2.71178">
        <ele>60</ele>
        <time>2013-11-22T08:53:08Z</time>
      </trkpt>
      <trkpt lat="48.51129" lon="-2.71178">
        <ele>60</ele>
        <time>2013-11-22T08:53:09Z</time>
      </trkpt>
      <trkpt lat="48.51132" lon="-2.71178">
        <ele>60</ele>
        <time>2013-11-22T08:53:11Z</time>
      </trkpt>
      <trkpt lat="48.51139" lon="-2.71177">
        <ele>60</ele>
        <time>2013-11-22T08:53:16Z</time>
      </trkpt>
      <trkpt lat="48.51141" lon="-2.71177">
        <ele>60</ele>
        <time>2013-11-22T08:53:17Z</time>
      </trkpt>
      <trkpt lat="48.51142" lon="-2.71177">
        <ele>60</ele>
        <time>2013-11-22T08:53:18Z</time>
      </trkpt>
      <trkpt lat="48.51146" lon="-2.71177">
        <ele>60</ele>
        <time>2013-11-22T08:53:21Z</time>
      </trkpt>
      <trkpt lat="48.51149" lon="-2.71177">
        <ele>59</ele>
        <time>2013-11-22T08:53:23Z</time>
      </trkpt>
      <trkpt lat="48.51151" lon="-2.71177">
        <ele>59</ele>
        <time>2013-11-22T08:53:24Z</time>
      </trkpt>
      <trkpt lat="48.51152" lon="-2.71177">
        <ele>59</ele>
        <time>2013-11-22T08:53:25Z</time>
      </trkpt>
      <trkpt lat="48.51154" lon="-2.71177">
        <ele>59</ele>
        <time>2013-11-22T08:53:26Z</time>
      </trkpt>
      <trkpt lat="48.51155" lon="-2.71176">
        <ele>59</ele>
        <time>2013-11-22T08:53:27Z</time>
      </trkpt>
      <trkpt lat="48.51158" lon="-2.71176">
        <ele>59</ele>
        <time>2013-11-22T08:53:29Z</time>
      </trkpt>
      <trkpt lat="48.5116" lon="-2.71176">
        <ele>59</ele>
        <time>2013-11-22T08:53:30Z</time>
      </trkpt>
      <trkpt lat="48.51162" lon="-2.71176">
        <ele>58</ele>
        <time>2013-11-22T08:53:32Z</time>
      </trkpt>
      <trkpt lat="48.51165" lon="-2.71176">
        <ele>58</ele>
        <time>2013-11-22T08:53:34Z</time>
      </trkpt>
      <trkpt lat="48.51167" lon="-2.71176">
        <ele>58</ele>
        <time>2013-11-22T08:53:35Z</time>
      </trkpt>
      <trkpt lat="48.51168" lon="-2.71175">
        <ele>58</ele>
        <time>2013-11-22T08:53:36Z</time>
      </trkpt>
      <trkpt lat="48.5117" lon="-2.71175">
        <ele>58</ele>
        <time>2013-11-22T08:53:37Z</time>
      </trkpt>
      <trkpt lat="48.51171" lon="-2.71175">
        <ele>58</ele>
        <time>2013-11-22T08:53:38Z</time>
      </trkpt>
      <trkpt lat="48.51174" lon="-2.71175">
        <ele>58</ele>
        <time>2013-11-22T08:53:40Z</time>
      </trkpt>
      <trkpt lat="48.51175" lon="-2.71174">
        <ele>58</ele>
        <time>2013-11-22T08:53:41Z</time>
      </trkpt>
      <trkpt lat="48.51177" lon="-2.71174">
        <ele>58</ele>
        <time>2013-11-22T08:53:42Z</time>
      </trkpt>
      <trkpt lat="48.51178" lon="-2.71174">
        <ele>57</ele>
        <time>2013-11-22T08:53:43Z</time>
      </trkpt>
      <trkpt lat="48.5118" lon="-2.71173">
        <ele>57</ele>
        <time>2013-11-22T08:53:44Z</time>
      </trkpt>
      <trkpt lat="48.51181" lon="-2.71173">
        <ele>57</ele>
        <time>2013-11-22T08:53:45Z</time>
      </trkpt>
      <trkpt lat="48.51183" lon="-2.71173">
        <ele>57</ele>
        <time>2013-11-22T08:53:46Z</time>
      </trkpt>
      <trkpt lat="48.51184" lon="-2.71173">
        <ele>57</ele>
        <time>2013-11-22T08:53:47Z</time>
      </trkpt>
      <trkpt lat="48.51186" lon="-2.71172">
        <ele>57</ele>
        <time>2013-11-22T08:53:48Z</time>
      </trkpt>
      <trkpt lat="48.51187" lon="-2.71172">
        <ele>57</ele>
        <time>2013-11-22T08:53:49Z</time>
      </trkpt>
      <trkpt lat="48.51189" lon="-2.71172">
        <ele>57</ele>
        <time>2013-11-22T08:53:50Z</time>
      </trkpt>
      <trkpt lat="48.5119" lon="-2.71171">
        <ele>57</ele>
        <time>2013-11-22T08:53:51Z</time>
      </trkpt>
      <trkpt lat="48.51191" lon="-2.71171">
        <ele>56</ele>
        <time>2013-11-22T08:53:52Z</time>
      </trkpt>
      <trkpt lat="48.51193" lon="-2.71171">
        <ele>56</ele>
        <time>2013-11-22T08:53:53Z</time>
      </trkpt>
      <trkpt lat="48.51194" lon="-2.71171">
        <ele>56</ele>
        <time>2013-11-22T08:53:54Z</time>
      </trkpt>
      <trkpt lat="48.51196" lon="-2.7117">
        <ele>56</ele>
        <time>2013-11-22T08:53:55Z</time>
      </trkpt>
      <trkpt lat="48.51197" lon="-2.7117">
        <ele>56</ele>
        <time>2013-11-22T08:53:56Z</time>
      </trkpt>
      <trkpt lat="48.51199" lon="-2.7117">
        <ele>56</ele>
        <time>2013-11-22T08:53:57Z</time>
      </trkpt>
      <trkpt lat="48.512" lon="-2.7117">
        <ele>56</ele>
        <time>2013-11-22T08:53:58Z</time>
      </trkpt>
      <trkpt lat="48.51201" lon="-2.71169">
        <ele>56</ele>
        <time>2013-11-22T08:53:59Z</time>
      </trkpt>
      <trkpt lat="48.51203" lon="-2.71169">
        <ele>56</ele>
        <time>2013-11-22T08:54:00Z</time>
      </trkpt>
      <trkpt lat="48.51204" lon="-2.71169">
        <ele>56</ele>
        <time>2013-11-22T08:54:01Z</time>
      </trkpt>
      <trkpt lat="48.51206" lon="-2.71168">
        <ele>55</ele>
        <time>2013-11-22T08:54:02Z</time>
      </trkpt>
      <trkpt lat="48.51207" lon="-2.71168">
        <ele>55</ele>
        <time>2013-11-22T08:54:03Z</time>
      </trkpt>
      <trkpt lat="48.51209" lon="-2.71167">
        <ele>55</ele>
        <time>2013-11-22T08:54:04Z</time>
      </trkpt>
      <trkpt lat="48.5121" lon="-2.71167">
        <ele>55</ele>
        <time>2013-11-22T08:54:05Z</time>
      </trkpt>
      <trkpt lat="48.51212" lon="-2.71166">
        <ele>55</ele>
        <time>2013-11-22T08:54:06Z</time>
      </trkpt>
      <trkpt lat="48.51213" lon="-2.71166">
        <ele>55</ele>
        <time>2013-11-22T08:54:07Z</time>
      </trkpt>
      <trkpt lat="48.51214" lon="-2.71166">
        <ele>55</ele>
        <time>2013-11-22T08:54:08Z</time>
      </trkpt>
      <trkpt lat="48.51216" lon="-2.71165">
        <ele>55</ele>
        <time>2013-11-22T08:54:09Z</time>
      </trkpt>
      <trkpt lat="48.51217" lon="-2.71164">
        <ele>55</ele>
        <time>2013-11-22T08:54:10Z</time>
      </trkpt>
      <trkpt lat="48.51218" lon="-2.71164">
        <ele>55</ele>
        <time>2013-11-22T08:54:11Z</time>
      </trkpt>
      <trkpt lat="48.5122" lon="-2.71163">
        <ele>55</ele>
        <time>2013-11-22T08:54:12Z</time>
      </trkpt>
      <trkpt lat="48.51221" lon="-2.71162">
        <ele>55</ele>
        <time>2013-11-22T08:54:13Z</time>
      </trkpt>
      <trkpt lat="48.51223" lon="-2.71161">
        <ele>55</ele>
        <time>2013-11-22T08:54:14Z</time>
      </trkpt>
      <trkpt lat="48.51225" lon="-2.71159">
        <ele>55</ele>
        <time>2013-11-22T08:54:16Z</time>
      </trkpt>
      <trkpt lat="48.51226" lon="-2.71158">
        <ele>55</ele>
        <time>2013-11-22T08:54:17Z</time>
      </trkpt>
      <trkpt lat="48.51228" lon="-2.71155">
        <ele>54</ele>
        <time>2013-11-22T08:54:19Z</time>
      </trkpt>
      <trkpt lat="48.51229" lon="-2.71153">
        <ele>54</ele>
        <time>2013-11-22T08:54:20Z</time>
      </trkpt>
      <trkpt lat="48.51231" lon="-2.7115">
        <ele>54</ele>
        <time>2013-11-22T08:54:22Z</time>
      </trkpt>
      <trkpt lat="48.51233" lon="-2.71149">
        <ele>54</ele>
        <time>2013-11-22T08:54:23Z</time>
      </trkpt>
      <trkpt lat="48.51234" lon="-2.71148">
        <ele>54</ele>
        <time>2013-11-22T08:54:24Z</time>
      </trkpt>
      <trkpt lat="48.51235" lon="-2.71147">
        <ele>54</ele>
        <time>2013-11-22T08:54:25Z</time>
      </trkpt>
      <trkpt lat="48.51237" lon="-2.71146">
        <ele>54</ele>
        <time>2013-11-22T08:54:26Z</time>
      </trkpt>
      <trkpt lat="48.51238" lon="-2.71146">
        <ele>54</ele>
        <time>2013-11-22T08:54:27Z</time>
      </trkpt>
      <trkpt lat="48.51239" lon="-2.71146">
        <ele>54</ele>
        <time>2013-11-22T08:54:28Z</time>
      </trkpt>
      <trkpt lat="48.51241" lon="-2.71145">
        <ele>54</ele>
        <time>2013-11-22T08:54:29Z</time>
      </trkpt>
      <trkpt lat="48.51242" lon="-2.71145">
        <ele>54</ele>
        <time>2013-11-22T08:54:30Z</time>
      </trkpt>
      <trkpt lat="48.51244" lon="-2.71145">
        <ele>54</ele>
        <time>2013-11-22T08:54:31Z</time>
      </trkpt>
      <trkpt lat="48.51247" lon="-2.71145">
        <ele>54</ele>
        <time>2013-11-22T08:54:33Z</time>
      </trkpt>
      <trkpt lat="48.5125" lon="-2.71145">
        <ele>54</ele>
        <time>2013-11-22T08:54:35Z</time>
      </trkpt>
      <trkpt lat="48.51251" lon="-2.71145">
        <ele>54</ele>
        <time>2013-11-22T08:54:36Z</time>
      </trkpt>
      <trkpt lat="48.51254" lon="-2.71145">
        <ele>54</ele>
        <time>2013-11-22T08:54:38Z</time>
      </trkpt>
      <trkpt lat="48.51255" lon="-2.71145">
        <ele>54</ele>
        <time>2013-11-22T08:54:39Z</time>
      </trkpt>
      <trkpt lat="48.51257" lon="-2.71145">
        <ele>53</ele>
        <time>2013-11-22T08:54:40Z</time>
      </trkpt>
      <trkpt lat="48.51264" lon="-2.71145">
        <ele>53</ele>
        <time>2013-11-22T08:54:45Z</time>
      </trkpt>
      <trkpt lat="48.51265" lon="-2.71145">
        <ele>53</ele>
        <time>2013-11-22T08:54:46Z</time>
      </trkpt>
      <trkpt lat="48.51268" lon="-2.71145">
        <ele>53</ele>
        <time>2013-11-22T08:54:48Z</time>
      </trkpt>
      <trkpt lat="48.51269" lon="-2.71144">
        <ele>53</ele>
        <time>2013-11-22T08:54:49Z</time>
      </trkpt>
      <trkpt lat="48.51271" lon="-2.71144">
        <ele>53</ele>
        <time>2013-11-22T08:54:50Z</time>
      </trkpt>
      <trkpt lat="48.51273" lon="-2.71144">
        <ele>52</ele>
        <time>2013-11-22T08:54:52Z</time>
      </trkpt>
      <trkpt lat="48.51275" lon="-2.71144">
        <ele>52</ele>
        <time>2013-11-22T08:54:53Z</time>
      </trkpt>
      <trkpt lat="48.51276" lon="-2.71143">
        <ele>52</ele>
        <time>2013-11-22T08:54:54Z</time>
      </trkpt>
      <trkpt lat="48.51278" lon="-2.71143">
        <ele>52</ele>
        <time>2013-11-22T08:54:55Z</time>
      </trkpt>
      <trkpt lat="48.51279" lon="-2.71143">
        <ele>52</ele>
        <time>2013-11-22T08:54:56Z</time>
      </trkpt>
      <trkpt lat="48.51282" lon="-2.71143">
        <ele>52</ele>
        <time>2013-11-22T08:54:58Z</time>
      </trkpt>
      <trkpt lat="48.51284" lon="-2.71143">
        <ele>52</ele>
        <time>2013-11-22T08:54:59Z</time>
      </trkpt>
      <trkpt lat="48.51285" lon="-2.71142">
        <ele>52</ele>
        <time>2013-11-22T08:55:00Z</time>
      </trkpt>
      <trkpt lat="48.51286" lon="-2.71142">
        <ele>52</ele>
        <time>2013-11-22T08:55:01Z</time>
      </trkpt>
      <trkpt lat="48.51288" lon="-2.71142">
        <ele>51</ele>
        <time>2013-11-22T08:55:02Z</time>
      </trkpt>
      <trkpt lat="48.51289" lon="-2.71142">
        <ele>51</ele>
        <time>2013-11-22T08:55:03Z</time>
      </trkpt>
      <trkpt lat="48.51291" lon="-2.71141">
        <ele>51</ele>
        <time>2013-11-22T08:55:04Z</time>
      </trkpt>
      <trkpt lat="48.51292" lon="-2.71141">
        <ele>51</ele>
        <time>2013-11-22T08:55:05Z</time>
      </trkpt>
      <trkpt lat="48.51294" lon="-2.71141">
        <ele>51</ele>
        <time>2013-11-22T08:55:06Z</time>
      </trkpt>
      <trkpt lat="48.51295" lon="-2.7114">
        <ele>51</ele>
        <time>2013-11-22T08:55:07Z</time>
      </trkpt>
      <trkpt lat="48.51297" lon="-2.7114">
        <ele>51</ele>
        <time>2013-11-22T08:55:08Z</time>
      </trkpt>
      <trkpt lat="48.51298" lon="-2.7114">
        <ele>51</ele>
        <time>2013-11-22T08:55:09Z</time>
      </trkpt>
      <trkpt lat="48.513" lon="-2.71139">
        <ele>50</ele>
        <time>2013-11-22T08:55:10Z</time>
      </trkpt>
      <trkpt lat="48.51301" lon="-2.71139">
        <ele>50</ele>
        <time>2013-11-22T08:55:11Z</time>
      </trkpt>
      <trkpt lat="48.51302" lon="-2.71139">
        <ele>50</ele>
        <time>2013-11-22T08:55:12Z</time>
      </trkpt>
      <trkpt lat="48.51303" lon="-2.71139">
        <ele>50</ele>
        <time>2013-11-22T08:55:13Z</time>
      </trkpt>
      <trkpt lat="48.51305" lon="-2.71138">
        <ele>50</ele>
        <time>2013-11-22T08:55:14Z</time>
      </trkpt>
      <trkpt lat="48.51307" lon="-2.71138">
        <ele>50</ele>
        <time>2013-11-22T08:55:15Z</time>
      </trkpt>
      <trkpt lat="48.51308" lon="-2.71138">
        <ele>50</ele>
        <time>2013-11-22T08:55:16Z</time>
      </trkpt>
      <trkpt lat="48.51309" lon="-2.71138">
        <ele>50</ele>
        <time>2013-11-22T08:55:17Z</time>
      </trkpt>
      <trkpt lat="48.51311" lon="-2.71137">
        <ele>50</ele>
        <time>2013-11-22T08:55:18Z</time>
      </trkpt>
      <trkpt lat="48.51312" lon="-2.71137">
        <ele>50</ele>
        <time>2013-11-22T08:55:19Z</time>
      </trkpt>
      <trkpt lat="48.51314" lon="-2.71137">
        <ele>50</ele>
        <time>2013-11-22T08:55:20Z</time>
      </trkpt>
      <trkpt lat="48.51315" lon="-2.71137">
        <ele>50</ele>
        <time>2013-11-22T08:55:21Z</time>
      </trkpt>
      <trkpt lat="48.51316" lon="-2.71136">
        <ele>50</ele>
        <time>2013-11-22T08:55:22Z</time>
      </trkpt>
      <trkpt lat="48.51318" lon="-2.71136">
        <ele>50</ele>
        <time>2013-11-22T08:55:23Z</time>
      </trkpt>
      <trkpt lat="48.51321" lon="-2.71136">
        <ele>50</ele>
        <time>2013-11-22T08:55:25Z</time>
      </trkpt>
      <trkpt lat="48.51322" lon="-2.71136">
        <ele>50</ele>
        <time>2013-11-22T08:55:26Z</time>
      </trkpt>
      <trkpt lat="48.51323" lon="-2.71135">
        <ele>50</ele>
        <time>2013-11-22T08:55:27Z</time>
      </trkpt>
      <trkpt lat="48.51324" lon="-2.71135">
        <ele>50</ele>
        <time>2013-11-22T08:55:28Z</time>
      </trkpt>
      <trkpt lat="48.51326" lon="-2.71135">
        <ele>50</ele>
        <time>2013-11-22T08:55:29Z</time>
      </trkpt>
      <trkpt lat="48.51327" lon="-2.71134">
        <ele>50</ele>
        <time>2013-11-22T08:55:30Z</time>
      </trkpt>
      <trkpt lat="48.51329" lon="-2.71134">
        <ele>50</ele>
        <time>2013-11-22T08:55:31Z</time>
      </trkpt>
      <trkpt lat="48.51331" lon="-2.71134">
        <ele>50</ele>
        <time>2013-11-22T08:55:33Z</time>
      </trkpt>
      <trkpt lat="48.51332" lon="-2.71133">
        <ele>50</ele>
        <time>2013-11-22T08:55:34Z</time>
      </trkpt>
      <trkpt lat="48.51334" lon="-2.71133">
        <ele>50</ele>
        <time>2013-11-22T08:55:35Z</time>
      </trkpt>
      <trkpt lat="48.51335" lon="-2.71133">
        <ele>49</ele>
        <time>2013-11-22T08:55:36Z</time>
      </trkpt>
      <trkpt lat="48.51337" lon="-2.71133">
        <ele>49</ele>
        <time>2013-11-22T08:55:37Z</time>
      </trkpt>
      <trkpt lat="48.51338" lon="-2.71132">
        <ele>49</ele>
        <time>2013-11-22T08:55:38Z</time>
      </trkpt>
      <trkpt lat="48.5134" lon="-2.71132">
        <ele>49</ele>
        <time>2013-11-22T08:55:39Z</time>
      </trkpt>
      <trkpt lat="48.51341" lon="-2.71132">
        <ele>49</ele>
        <time>2013-11-22T08:55:40Z</time>
      </trkpt>
      <trkpt lat="48.51344" lon="-2.71132">
        <ele>48</ele>
        <time>2013-11-22T08:55:41Z</time>
      </trkpt>
      <trkpt lat="48.51345" lon="-2.71132">
        <ele>48</ele>
        <time>2013-11-22T08:55:43Z</time>
      </trkpt>
      <trkpt lat="48.51346" lon="-2.71131">
        <ele>48</ele>
        <time>2013-11-22T08:55:44Z</time>
      </trkpt>
      <trkpt lat="48.51348" lon="-2.71131">
        <ele>48</ele>
        <time>2013-11-22T08:55:45Z</time>
      </trkpt>
      <trkpt lat="48.51349" lon="-2.71131">
        <ele>48</ele>
        <time>2013-11-22T08:55:45Z</time>
      </trkpt>
      <trkpt lat="48.51352" lon="-2.71131">
        <ele>48</ele>
        <time>2013-11-22T08:55:48Z</time>
      </trkpt>
      <trkpt lat="48.51354" lon="-2.71131">
        <ele>48</ele>
        <time>2013-11-22T08:55:49Z</time>
      </trkpt>
      <trkpt lat="48.51355" lon="-2.7113">
        <ele>48</ele>
        <time>2013-11-22T08:55:49Z</time>
      </trkpt>
      <trkpt lat="48.51356" lon="-2.7113">
        <ele>48</ele>
        <time>2013-11-22T08:55:50Z</time>
      </trkpt>
      <trkpt lat="48.51358" lon="-2.7113">
        <ele>48</ele>
        <time>2013-11-22T08:55:52Z</time>
      </trkpt>
      <trkpt lat="48.51359" lon="-2.7113">
        <ele>48</ele>
        <time>2013-11-22T08:55:53Z</time>
      </trkpt>
      <trkpt lat="48.5136" lon="-2.7113">
        <ele>48</ele>
        <time>2013-11-22T08:55:54Z</time>
      </trkpt>
      <trkpt lat="48.51366" lon="-2.71129">
        <ele>48</ele>
        <time>2013-11-22T08:55:58Z</time>
      </trkpt>
      <trkpt lat="48.5137" lon="-2.71129">
        <ele>48</ele>
        <time>2013-11-22T08:56:01Z</time>
      </trkpt>
      <trkpt lat="48.51371" lon="-2.71129">
        <ele>48</ele>
        <time>2013-11-22T08:56:02Z</time>
      </trkpt>
      <trkpt lat="48.51373" lon="-2.71129">
        <ele>48</ele>
        <time>2013-11-22T08:56:03Z</time>
      </trkpt>
      <trkpt lat="48.51376" lon="-2.71129">
        <ele>48</ele>
        <time>2013-11-22T08:56:05Z</time>
      </trkpt>
      <trkpt lat="48.51377" lon="-2.7113">
        <ele>48</ele>
        <time>2013-11-22T08:56:06Z</time>
      </trkpt>
      <trkpt lat="48.51379" lon="-2.71131">
        <ele>48</ele>
        <time>2013-11-22T08:56:07Z</time>
      </trkpt>
      <trkpt lat="48.5138" lon="-2.71134">
        <ele>48</ele>
        <time>2013-11-22T08:56:09Z</time>
      </trkpt>
      <trkpt lat="48.51381" lon="-2.71136">
        <ele>48</ele>
        <time>2013-11-22T08:56:10Z</time>
      </trkpt>
      <trkpt lat="48.51381" lon="-2.71138">
        <ele>48</ele>
        <time>2013-11-22T08:56:11Z</time>
      </trkpt>
      <trkpt lat="48.51381" lon="-2.71156">
        <ele>48</ele>
        <time>2013-11-22T08:56:19Z</time>
      </trkpt>
      <trkpt lat="48.51382" lon="-2.7116">
        <ele>48</ele>
        <time>2013-11-22T08:56:21Z</time>
      </trkpt>
      <trkpt lat="48.51382" lon="-2.71166">
        <ele>48</ele>
        <time>2013-11-22T08:56:24Z</time>
      </trkpt>
      <trkpt lat="48.51382" lon="-2.7117">
        <ele>47</ele>
        <time>2013-11-22T08:56:26Z</time>
      </trkpt>
      <trkpt lat="48.51382" lon="-2.71174">
        <ele>47</ele>
        <time>2013-11-22T08:56:28Z</time>
      </trkpt>
      <trkpt lat="48.51382" lon="-2.71181">
        <ele>47</ele>
        <time>2013-11-22T08:56:31Z</time>
      </trkpt>
      <trkpt lat="48.51383" lon="-2.71185">
        <ele>47</ele>
        <time>2013-11-22T08:56:33Z</time>
      </trkpt>
      <trkpt lat="48.51383" lon="-2.71191">
        <ele>46</ele>
        <time>2013-11-22T08:56:36Z</time>
      </trkpt>
      <trkpt lat="48.51384" lon="-2.71193">
        <ele>46</ele>
        <time>2013-11-22T08:56:37Z</time>
      </trkpt>
      <trkpt lat="48.51384" lon="-2.71196">
        <ele>45</ele>
        <time>2013-11-22T08:56:38Z</time>
      </trkpt>
      <trkpt lat="48.51384" lon="-2.71198">
        <ele>45</ele>
        <time>2013-11-22T08:56:39Z</time>
      </trkpt>
      <trkpt lat="48.51385" lon="-2.71206">
        <ele>44</ele>
        <time>2013-11-22T08:56:43Z</time>
      </trkpt>
      <trkpt lat="48.51385" lon="-2.71208">
        <ele>44</ele>
        <time>2013-11-22T08:56:44Z</time>
      </trkpt>
      <trkpt lat="48.51386" lon="-2.7121">
        <ele>43</ele>
        <time>2013-11-22T08:56:45Z</time>
      </trkpt>
      <trkpt lat="48.51386" lon="-2.71212">
        <ele>43</ele>
        <time>2013-11-22T08:56:46Z</time>
      </trkpt>
      <trkpt lat="48.51386" lon="-2.71214">
        <ele>43</ele>
        <time>2013-11-22T08:56:47Z</time>
      </trkpt>
      <trkpt lat="48.51387" lon="-2.71216">
        <ele>42</ele>
        <time>2013-11-22T08:56:48Z</time>
      </trkpt>
      <trkpt lat="48.51387" lon="-2.71218">
        <ele>42</ele>
        <time>2013-11-22T08:56:49Z</time>
      </trkpt>
      <trkpt lat="48.51388" lon="-2.71219">
        <ele>42</ele>
        <time>2013-11-22T08:56:50Z</time>
      </trkpt>
      <trkpt lat="48.51389" lon="-2.71221">
        <ele>42</ele>
        <time>2013-11-22T08:56:51Z</time>
      </trkpt>
      <trkpt lat="48.5139" lon="-2.71223">
        <ele>41</ele>
        <time>2013-11-22T08:56:52Z</time>
      </trkpt>
      <trkpt lat="48.51392" lon="-2.71226">
        <ele>41</ele>
        <time>2013-11-22T08:56:53Z</time>
      </trkpt>
      <trkpt lat="48.51394" lon="-2.71227">
        <ele>41</ele>
        <time>2013-11-22T08:56:56Z</time>
      </trkpt>
      <trkpt lat="48.51395" lon="-2.71227">
        <ele>41</ele>
        <time>2013-11-22T08:56:57Z</time>
      </trkpt>
      <trkpt lat="48.51397" lon="-2.71227">
        <ele>40</ele>
        <time>2013-11-22T08:56:58Z</time>
      </trkpt>
      <trkpt lat="48.51401" lon="-2.71227">
        <ele>40</ele>
        <time>2013-11-22T08:57:01Z</time>
      </trkpt>
      <trkpt lat="48.51403" lon="-2.71227">
        <ele>40</ele>
        <time>2013-11-22T08:57:02Z</time>
      </trkpt>
      <trkpt lat="48.51405" lon="-2.71226">
        <ele>40</ele>
        <time>2013-11-22T08:57:04Z</time>
      </trkpt>
      <trkpt lat="48.51406" lon="-2.71226">
        <ele>40</ele>
        <time>2013-11-22T08:57:04Z</time>
      </trkpt>
      <trkpt lat="48.51407" lon="-2.71226">
        <ele>39</ele>
        <time>2013-11-22T08:57:05Z</time>
      </trkpt>
      <trkpt lat="48.51409" lon="-2.71225">
        <ele>39</ele>
        <time>2013-11-22T08:57:07Z</time>
      </trkpt>
      <trkpt lat="48.5141" lon="-2.71225">
        <ele>39</ele>
        <time>2013-11-22T08:57:08Z</time>
      </trkpt>
      <trkpt lat="48.51412" lon="-2.71225">
        <ele>39</ele>
        <time>2013-11-22T08:57:08Z</time>
      </trkpt>
      <trkpt lat="48.51413" lon="-2.71225">
        <ele>39</ele>
        <time>2013-11-22T08:57:09Z</time>
      </trkpt>
      <trkpt lat="48.51414" lon="-2.71226">
        <ele>38</ele>
        <time>2013-11-22T08:57:10Z</time>
      </trkpt>
      <trkpt lat="48.51416" lon="-2.71227">
        <ele>38</ele>
        <time>2013-11-22T08:57:12Z</time>
      </trkpt>
      <trkpt lat="48.51417" lon="-2.71228">
        <ele>38</ele>
        <time>2013-11-22T08:57:13Z</time>
      </trkpt>
      <trkpt lat="48.51419" lon="-2.71231">
        <ele>37</ele>
        <time>2013-11-22T08:57:14Z</time>
      </trkpt>
      <trkpt lat="48.51419" lon="-2.71234">
        <ele>37</ele>
        <time>2013-11-22T08:57:17Z</time>
      </trkpt>
      <trkpt lat="48.5142" lon="-2.71236">
        <ele>36</ele>
        <time>2013-11-22T08:57:17Z</time>
      </trkpt>
      <trkpt lat="48.5142" lon="-2.71238">
        <ele>36</ele>
        <time>2013-11-22T08:57:19Z</time>
      </trkpt>
      <trkpt lat="48.51421" lon="-2.7124">
        <ele>36</ele>
        <time>2013-11-22T08:57:20Z</time>
      </trkpt>
      <trkpt lat="48.51421" lon="-2.71242">
        <ele>35</ele>
        <time>2013-11-22T08:57:21Z</time>
      </trkpt>
      <trkpt lat="48.51421" lon="-2.71243">
        <ele>35</ele>
        <time>2013-11-22T08:57:21Z</time>
      </trkpt>
      <trkpt lat="48.51422" lon="-2.71245">
        <ele>35</ele>
        <time>2013-11-22T08:57:23Z</time>
      </trkpt>
      <trkpt lat="48.51423" lon="-2.71247">
        <ele>35</ele>
        <time>2013-11-22T08:57:24Z</time>
      </trkpt>
      <trkpt lat="48.51423" lon="-2.71248">
        <ele>34</ele>
        <time>2013-11-22T08:57:25Z</time>
      </trkpt>
      <trkpt lat="48.51424" lon="-2.71252">
        <ele>34</ele>
        <time>2013-11-22T08:57:26Z</time>
      </trkpt>
      <trkpt lat="48.51425" lon="-2.71253">
        <ele>34</ele>
        <time>2013-11-22T08:57:28Z</time>
      </trkpt>
      <trkpt lat="48.51425" lon="-2.71255">
        <ele>34</ele>
        <time>2013-11-22T08:57:28Z</time>
      </trkpt>
      <trkpt lat="48.51426" lon="-2.71259">
        <ele>33</ele>
        <time>2013-11-22T08:57:31Z</time>
      </trkpt>
      <trkpt lat="48.51426" lon="-2.71261">
        <ele>33</ele>
        <time>2013-11-22T08:57:31Z</time>
      </trkpt>
      <trkpt lat="48.51426" lon="-2.71263">
        <ele>33</ele>
        <time>2013-11-22T08:57:33Z</time>
      </trkpt>
      <trkpt lat="48.51427" lon="-2.71266">
        <ele>33</ele>
        <time>2013-11-22T08:57:34Z</time>
      </trkpt>
      <trkpt lat="48.51427" lon="-2.71269">
        <ele>32</ele>
        <time>2013-11-22T08:57:36Z</time>
      </trkpt>
      <trkpt lat="48.51428" lon="-2.71271">
        <ele>32</ele>
        <time>2013-11-22T08:57:39Z</time>
      </trkpt>
      <trkpt lat="48.51428" lon="-2.71281">
        <ele>29</ele>
        <time>2013-11-22T08:57:44Z</time>
      </trkpt>
      <trkpt lat="48.51428" lon="-2.71283">
        <ele>29</ele>
        <time>2013-11-22T08:57:45Z</time>
      </trkpt>
      <trkpt lat="48.51427" lon="-2.71286">
        <ele>29</ele>
        <time>2013-11-22T08:57:46Z</time>
      </trkpt>
      <trkpt lat="48.51427" lon="-2.7129">
        <ele>27</ele>
        <time>2013-11-22T08:57:50Z</time>
      </trkpt>
      <trkpt lat="48.51427" lon="-2.71291">
        <ele>27</ele>
        <time>2013-11-22T08:57:51Z</time>
      </trkpt>
      <trkpt lat="48.51429" lon="-2.71293">
        <ele>27</ele>
        <time>2013-11-22T08:57:53Z</time>
      </trkpt>
      <trkpt lat="48.51428" lon="-2.71299">
        <ele>27</ele>
        <time>2013-11-22T08:57:58Z</time>
      </trkpt>
      <trkpt lat="48.51429" lon="-2.71301">
        <ele>26</ele>
        <time>2013-11-22T08:58:01Z</time>
      </trkpt>
      <trkpt lat="48.5143" lon="-2.71303">
        <ele>25</ele>
        <time>2013-11-22T08:58:04Z</time>
      </trkpt>
      <trkpt lat="48.5143" lon="-2.71306">
        <ele>25</ele>
        <time>2013-11-22T08:58:05Z</time>
      </trkpt>
      <trkpt lat="48.5143" lon="-2.71314">
        <ele>25</ele>
        <time>2013-11-22T08:58:09Z</time>
      </trkpt>
      <trkpt lat="48.51429" lon="-2.71316">
        <ele>25</ele>
        <time>2013-11-22T08:58:11Z</time>
      </trkpt>
      <trkpt lat="48.5143" lon="-2.7133">
        <ele>25</ele>
        <time>2013-11-22T08:58:17Z</time>
      </trkpt>
      <trkpt lat="48.51432" lon="-2.71332">
        <ele>25</ele>
        <time>2013-11-22T08:58:20Z</time>
      </trkpt>
      <trkpt lat="48.51433" lon="-2.71332">
        <ele>25</ele>
        <time>2013-11-22T08:58:22Z</time>
      </trkpt>
      <trkpt lat="48.51435" lon="-2.71333">
        <ele>25</ele>
        <time>2013-11-22T08:58:22Z</time>
      </trkpt>
      <trkpt lat="48.51437" lon="-2.71333">
        <ele>25</ele>
        <time>2013-11-22T08:58:23Z</time>
      </trkpt>
      <trkpt lat="48.51438" lon="-2.71333">
        <ele>25</ele>
        <time>2013-11-22T08:58:24Z</time>
      </trkpt>
      <trkpt lat="48.51439" lon="-2.71333">
        <ele>25</ele>
        <time>2013-11-22T08:58:25Z</time>
      </trkpt>
      <trkpt lat="48.51441" lon="-2.71334">
        <ele>25</ele>
        <time>2013-11-22T08:58:27Z</time>
      </trkpt>
      <trkpt lat="48.51442" lon="-2.71334">
        <ele>25</ele>
        <time>2013-11-22T08:58:27Z</time>
      </trkpt>
      <trkpt lat="48.51443" lon="-2.71334">
        <ele>25</ele>
        <time>2013-11-22T08:58:28Z</time>
      </trkpt>
      <trkpt lat="48.51444" lon="-2.71334">
        <ele>25</ele>
        <time>2013-11-22T08:58:29Z</time>
      </trkpt>
      <trkpt lat="48.51447" lon="-2.71334">
        <ele>25</ele>
        <time>2013-11-22T08:58:32Z</time>
      </trkpt>
      <trkpt lat="48.51448" lon="-2.71334">
        <ele>25</ele>
        <time>2013-11-22T08:58:32Z</time>
      </trkpt>
      <trkpt lat="48.51451" lon="-2.71335">
        <ele>26</ele>
        <time>2013-11-22T08:58:34Z</time>
      </trkpt>
      <trkpt lat="48.51452" lon="-2.71335">
        <ele>26</ele>
        <time>2013-11-22T08:58:35Z</time>
      </trkpt>
      <trkpt lat="48.51453" lon="-2.71335">
        <ele>26</ele>
        <time>2013-11-22T08:58:37Z</time>
      </trkpt>
      <trkpt lat="48.51456" lon="-2.71334">
        <ele>27</ele>
        <time>2013-11-22T08:58:38Z</time>
      </trkpt>
      <trkpt lat="48.51458" lon="-2.71334">
        <ele>27</ele>
        <time>2013-11-22T08:58:39Z</time>
      </trkpt>
      <trkpt lat="48.51459" lon="-2.71334">
        <ele>27</ele>
        <time>2013-11-22T08:58:40Z</time>
      </trkpt>
      <trkpt lat="48.5146" lon="-2.71333">
        <ele>27</ele>
        <time>2013-11-22T08:58:42Z</time>
      </trkpt>
      <trkpt lat="48.51462" lon="-2.71333">
        <ele>27</ele>
        <time>2013-11-22T08:58:43Z</time>
      </trkpt>
      <trkpt lat="48.51463" lon="-2.71333">
        <ele>27</ele>
        <time>2013-11-22T08:58:43Z</time>
      </trkpt>
      <trkpt lat="48.51465" lon="-2.71332">
        <ele>27</ele>
        <time>2013-11-22T08:58:44Z</time>
      </trkpt>
      <trkpt lat="48.51466" lon="-2.71332">
        <ele>27</ele>
        <time>2013-11-22T08:58:45Z</time>
      </trkpt>
      <trkpt lat="48.51468" lon="-2.71332">
        <ele>28</ele>
        <time>2013-11-22T08:58:47Z</time>
      </trkpt>
      <trkpt lat="48.51469" lon="-2.71331">
        <ele>28</ele>
        <time>2013-11-22T08:58:47Z</time>
      </trkpt>
      <trkpt lat="48.51471" lon="-2.71331">
        <ele>28</ele>
        <time>2013-11-22T08:58:48Z</time>
      </trkpt>
      <trkpt lat="48.51472" lon="-2.71331">
        <ele>28</ele>
        <time>2013-11-22T08:58:49Z</time>
      </trkpt>
      <trkpt lat="48.51474" lon="-2.7133">
        <ele>28</ele>
        <time>2013-11-22T08:58:52Z</time>
      </trkpt>
      <trkpt lat="48.51476" lon="-2.7133">
        <ele>28</ele>
        <time>2013-11-22T08:58:52Z</time>
      </trkpt>
      <trkpt lat="48.51477" lon="-2.7133">
        <ele>29</ele>
        <time>2013-11-22T08:58:53Z</time>
      </trkpt>
      <trkpt lat="48.51478" lon="-2.71329">
        <ele>29</ele>
        <time>2013-11-22T08:58:54Z</time>
      </trkpt>
      <trkpt lat="48.51479" lon="-2.71329">
        <ele>29</ele>
        <time>2013-11-22T08:58:55Z</time>
      </trkpt>
      <trkpt lat="48.51481" lon="-2.71328">
        <ele>29</ele>
        <time>2013-11-22T08:58:57Z</time>
      </trkpt>
      <trkpt lat="48.51482" lon="-2.71328">
        <ele>29</ele>
        <time>2013-11-22T08:58:57Z</time>
      </trkpt>
      <trkpt lat="48.51483" lon="-2.71327">
        <ele>29</ele>
        <time>2013-11-22T08:58:58Z</time>
      </trkpt>
      <trkpt lat="48.51485" lon="-2.71327">
        <ele>29</ele>
        <time>2013-11-22T08:58:59Z</time>
      </trkpt>
      <trkpt lat="48.51486" lon="-2.71327">
        <ele>29</ele>
        <time>2013-11-22T08:59:00Z</time>
      </trkpt>
      <trkpt lat="48.51487" lon="-2.71326">
        <ele>29</ele>
        <time>2013-11-22T08:59:02Z</time>
      </trkpt>
      <trkpt lat="48.51488" lon="-2.71326">
        <ele>29</ele>
        <time>2013-11-22T08:59:02Z</time>
      </trkpt>
      <trkpt lat="48.5149" lon="-2.71325">
        <ele>29</ele>
        <time>2013-11-22T08:59:03Z</time>
      </trkpt>
      <trkpt lat="48.51492" lon="-2.71325">
        <ele>29</ele>
        <time>2013-11-22T08:59:04Z</time>
      </trkpt>
      <trkpt lat="48.51493" lon="-2.71324">
        <ele>29</ele>
        <time>2013-11-22T08:59:05Z</time>
      </trkpt>
      <trkpt lat="48.51495" lon="-2.71323">
        <ele>30</ele>
        <time>2013-11-22T08:59:07Z</time>
      </trkpt>
      <trkpt lat="48.51496" lon="-2.71323">
        <ele>30</ele>
        <time>2013-11-22T08:59:07Z</time>
      </trkpt>
      <trkpt lat="48.51497" lon="-2.71322">
        <ele>30</ele>
        <time>2013-11-22T08:59:08Z</time>
      </trkpt>
      <trkpt lat="48.51498" lon="-2.71322">
        <ele>30</ele>
        <time>2013-11-22T08:59:09Z</time>
      </trkpt>
      <trkpt lat="48.515" lon="-2.71321">
        <ele>30</ele>
        <time>2013-11-22T08:59:10Z</time>
      </trkpt>
      <trkpt lat="48.51501" lon="-2.7132">
        <ele>31</ele>
        <time>2013-11-22T08:59:11Z</time>
      </trkpt>
      <trkpt lat="48.51503" lon="-2.71319">
        <ele>32</ele>
        <time>2013-11-22T08:59:12Z</time>
      </trkpt>
      <trkpt lat="48.51504" lon="-2.71318">
        <ele>32</ele>
        <time>2013-11-22T08:59:13Z</time>
      </trkpt>
      <trkpt lat="48.51505" lon="-2.71317">
        <ele>33</ele>
        <time>2013-11-22T08:59:14Z</time>
      </trkpt>
      <trkpt lat="48.51506" lon="-2.71316">
        <ele>34</ele>
        <time>2013-11-22T08:59:15Z</time>
      </trkpt>
      <trkpt lat="48.51508" lon="-2.71315">
        <ele>34</ele>
        <time>2013-11-22T08:59:17Z</time>
      </trkpt>
      <trkpt lat="48.51509" lon="-2.71314">
        <ele>35</ele>
        <time>2013-11-22T08:59:17Z</time>
      </trkpt>
      <trkpt lat="48.5151" lon="-2.71314">
        <ele>35</ele>
        <time>2013-11-22T08:59:18Z</time>
      </trkpt>
      <trkpt lat="48.51512" lon="-2.71313">
        <ele>35</ele>
        <time>2013-11-22T08:59:19Z</time>
      </trkpt>
      <trkpt lat="48.51513" lon="-2.71312">
        <ele>36</ele>
        <time>2013-11-22T08:59:20Z</time>
      </trkpt>
      <trkpt lat="48.51514" lon="-2.71311">
        <ele>36</ele>
        <time>2013-11-22T08:59:22Z</time>
      </trkpt>
      <trkpt lat="48.51516" lon="-2.7131">
        <ele>36</ele>
        <time>2013-11-22T08:59:22Z</time>
      </trkpt>
      <trkpt lat="48.51517" lon="-2.71308">
        <ele>36</ele>
        <time>2013-11-22T08:59:23Z</time>
      </trkpt>
      <trkpt lat="48.51518" lon="-2.71307">
        <ele>36</ele>
        <time>2013-11-22T08:59:24Z</time>
      </trkpt>
      <trkpt lat="48.51519" lon="-2.71306">
        <ele>36</ele>
        <time>2013-11-22T08:59:25Z</time>
      </trkpt>
      <trkpt lat="48.51521" lon="-2.71305">
        <ele>36</ele>
        <time>2013-11-22T08:59:27Z</time>
      </trkpt>
      <trkpt lat="48.51522" lon="-2.71304">
        <ele>36</ele>
        <time>2013-11-22T08:59:27Z</time>
      </trkpt>
      <trkpt lat="48.51524" lon="-2.71303">
        <ele>36</ele>
        <time>2013-11-22T08:59:28Z</time>
      </trkpt>
      <trkpt lat="48.51525" lon="-2.71302">
        <ele>36</ele>
        <time>2013-11-22T08:59:29Z</time>
      </trkpt>
      <trkpt lat="48.51526" lon="-2.71301">
        <ele>37</ele>
        <time>2013-11-22T08:59:30Z</time>
      </trkpt>
      <trkpt lat="48.51527" lon="-2.713">
        <ele>37</ele>
        <time>2013-11-22T08:59:32Z</time>
      </trkpt>
      <trkpt lat="48.51529" lon="-2.71299">
        <ele>37</ele>
        <time>2013-11-22T08:59:32Z</time>
      </trkpt>
      <trkpt lat="48.5153" lon="-2.71298">
        <ele>37</ele>
        <time>2013-11-22T08:59:33Z</time>
      </trkpt>
      <trkpt lat="48.51531" lon="-2.71297">
        <ele>37</ele>
        <time>2013-11-22T08:59:34Z</time>
      </trkpt>
      <trkpt lat="48.51533" lon="-2.71296">
        <ele>37</ele>
        <time>2013-11-22T08:59:35Z</time>
      </trkpt>
      <trkpt lat="48.51534" lon="-2.71295">
        <ele>37</ele>
        <time>2013-11-22T08:59:37Z</time>
      </trkpt>
      <trkpt lat="48.51536" lon="-2.71294">
        <ele>37</ele>
        <time>2013-11-22T08:59:37Z</time>
      </trkpt>
      <trkpt lat="48.51537" lon="-2.71293">
        <ele>37</ele>
        <time>2013-11-22T08:59:38Z</time>
      </trkpt>
      <trkpt lat="48.51538" lon="-2.71291">
        <ele>37</ele>
        <time>2013-11-22T08:59:39Z</time>
      </trkpt>
      <trkpt lat="48.5154" lon="-2.71291">
        <ele>37</ele>
        <time>2013-11-22T08:59:40Z</time>
      </trkpt>
      <trkpt lat="48.51541" lon="-2.7129">
        <ele>37</ele>
        <time>2013-11-22T08:59:42Z</time>
      </trkpt>
      <trkpt lat="48.51543" lon="-2.71289">
        <ele>37</ele>
        <time>2013-11-22T08:59:42Z</time>
      </trkpt>
      <trkpt lat="48.51544" lon="-2.71289">
        <ele>37</ele>
        <time>2013-11-22T08:59:43Z</time>
      </trkpt>
      <trkpt lat="48.51545" lon="-2.71288">
        <ele>37</ele>
        <time>2013-11-22T08:59:44Z</time>
      </trkpt>
      <trkpt lat="48.51547" lon="-2.71288">
        <ele>37</ele>
        <time>2013-11-22T08:59:45Z</time>
      </trkpt>
      <trkpt lat="48.51548" lon="-2.71289">
        <ele>37</ele>
        <time>2013-11-22T08:59:47Z</time>
      </trkpt>
      <trkpt lat="48.5155" lon="-2.71289">
        <ele>37</ele>
        <time>2013-11-22T08:59:47Z</time>
      </trkpt>
      <trkpt lat="48.51551" lon="-2.71289">
        <ele>37</ele>
        <time>2013-11-22T08:59:48Z</time>
      </trkpt>
      <trkpt lat="48.51553" lon="-2.7129">
        <ele>37</ele>
        <time>2013-11-22T08:59:50Z</time>
      </trkpt>
      <trkpt lat="48.51554" lon="-2.7129">
        <ele>37</ele>
        <time>2013-11-22T08:59:52Z</time>
      </trkpt>
      <trkpt lat="48.51556" lon="-2.71292">
        <ele>37</ele>
        <time>2013-11-22T08:59:53Z</time>
      </trkpt>
      <trkpt lat="48.51558" lon="-2.71293">
        <ele>37</ele>
        <time>2013-11-22T08:59:55Z</time>
      </trkpt>
      <trkpt lat="48.5156" lon="-2.71292">
        <ele>37</ele>
        <time>2013-11-22T08:59:58Z</time>
      </trkpt>
      <trkpt lat="48.51561" lon="-2.71292">
        <ele>37</ele>
        <time>2013-11-22T08:59:58Z</time>
      </trkpt>
      <trkpt lat="48.51563" lon="-2.71291">
        <ele>37</ele>
        <time>2013-11-22T09:00:00Z</time>
      </trkpt>
      <trkpt lat="48.51564" lon="-2.71291">
        <ele>37</ele>
        <time>2013-11-22T09:00:01Z</time>
      </trkpt>
      <trkpt lat="48.51565" lon="-2.71291">
        <ele>37</ele>
        <time>2013-11-22T09:00:03Z</time>
      </trkpt>
      <trkpt lat="48.51567" lon="-2.71291">
        <ele>37</ele>
        <time>2013-11-22T09:00:03Z</time>
      </trkpt>
      <trkpt lat="48.51568" lon="-2.7129">
        <ele>37</ele>
        <time>2013-11-22T09:00:04Z</time>
      </trkpt>
      <trkpt lat="48.51569" lon="-2.7129">
        <ele>37</ele>
        <time>2013-11-22T09:00:05Z</time>
      </trkpt>
      <trkpt lat="48.51572" lon="-2.7129">
        <ele>37</ele>
        <time>2013-11-22T09:00:08Z</time>
      </trkpt>
      <trkpt lat="48.51573" lon="-2.7129">
        <ele>37</ele>
        <time>2013-11-22T09:00:08Z</time>
      </trkpt>
      <trkpt lat="48.51574" lon="-2.7129">
        <ele>37</ele>
        <time>2013-11-22T09:00:09Z</time>
      </trkpt>
      <trkpt lat="48.51577" lon="-2.71289">
        <ele>37</ele>
        <time>2013-11-22T09:00:11Z</time>
      </trkpt>
      <trkpt lat="48.51584" lon="-2.71289">
        <ele>37</ele>
        <time>2013-11-22T09:00:16Z</time>
      </trkpt>
      <trkpt lat="48.51588" lon="-2.71289">
        <ele>37</ele>
        <time>2013-11-22T09:00:19Z</time>
      </trkpt>
      <trkpt lat="48.51592" lon="-2.71289">
        <ele>37</ele>
        <time>2013-11-22T09:00:22Z</time>
      </trkpt>
      <trkpt lat="48.51598" lon="-2.71289">
        <ele>37</ele>
        <time>2013-11-22T09:00:27Z</time>
      </trkpt>
      <trkpt lat="48.516" lon="-2.71288">
        <ele>37</ele>
        <time>2013-11-22T09:00:29Z</time>
      </trkpt>
      <trkpt lat="48.5161" lon="-2.71288">
        <ele>37</ele>
        <time>2013-11-22T09:00:35Z</time>
      </trkpt>
      <trkpt lat="48.51613" lon="-2.71288">
        <ele>37</ele>
        <time>2013-11-22T09:00:37Z</time>
      </trkpt>
      <trkpt lat="48.51614" lon="-2.71289">
        <ele>37</ele>
        <time>2013-11-22T09:00:39Z</time>
      </trkpt>
      <trkpt lat="48.51616" lon="-2.71289">
        <ele>37</ele>
        <time>2013-11-22T09:00:39Z</time>
      </trkpt>
      <trkpt lat="48.5162" lon="-2.71289">
        <ele>37</ele>
        <time>2013-11-22T09:00:43Z</time>
      </trkpt>
      <trkpt lat="48.51625" lon="-2.71289">
        <ele>37</ele>
        <time>2013-11-22T09:00:45Z</time>
      </trkpt>
      <trkpt lat="48.51626" lon="-2.71289">
        <ele>37</ele>
        <time>2013-11-22T09:00:46Z</time>
      </trkpt>
      <trkpt lat="48.51629" lon="-2.7129">
        <ele>37</ele>
        <time>2013-11-22T09:00:49Z</time>
      </trkpt>
      <trkpt lat="48.5163" lon="-2.7129">
        <ele>37</ele>
        <time>2013-11-22T09:00:49Z</time>
      </trkpt>
      <trkpt lat="48.51632" lon="-2.7129">
        <ele>37</ele>
        <time>2013-11-22T09:00:50Z</time>
      </trkpt>
      <trkpt lat="48.51633" lon="-2.7129">
        <ele>37</ele>
        <time>2013-11-22T09:00:51Z</time>
      </trkpt>
      <trkpt lat="48.51634" lon="-2.71291">
        <ele>37</ele>
        <time>2013-11-22T09:00:52Z</time>
      </trkpt>
      <trkpt lat="48.51636" lon="-2.71291">
        <ele>37</ele>
        <time>2013-11-22T09:00:54Z</time>
      </trkpt>
      <trkpt lat="48.51637" lon="-2.71291">
        <ele>37</ele>
        <time>2013-11-22T09:00:54Z</time>
      </trkpt>
      <trkpt lat="48.51639" lon="-2.71291">
        <ele>37</ele>
        <time>2013-11-22T09:00:55Z</time>
      </trkpt>
      <trkpt lat="48.5164" lon="-2.71292">
        <ele>37</ele>
        <time>2013-11-22T09:00:56Z</time>
      </trkpt>
      <trkpt lat="48.51642" lon="-2.71292">
        <ele>37</ele>
        <time>2013-11-22T09:00:57Z</time>
      </trkpt>
      <trkpt lat="48.51643" lon="-2.71293">
        <ele>37</ele>
        <time>2013-11-22T09:00:59Z</time>
      </trkpt>
      <trkpt lat="48.51644" lon="-2.71293">
        <ele>36</ele>
        <time>2013-11-22T09:00:59Z</time>
      </trkpt>
      <trkpt lat="48.51646" lon="-2.71293">
        <ele>36</ele>
        <time>2013-11-22T09:01:00Z</time>
      </trkpt>
      <trkpt lat="48.51647" lon="-2.71294">
        <ele>36</ele>
        <time>2013-11-22T09:01:01Z</time>
      </trkpt>
      <trkpt lat="48.51648" lon="-2.71295">
        <ele>36</ele>
        <time>2013-11-22T09:01:02Z</time>
      </trkpt>
      <trkpt lat="48.5165" lon="-2.71295">
        <ele>36</ele>
        <time>2013-11-22T09:01:04Z</time>
      </trkpt>
      <trkpt lat="48.51651" lon="-2.71295">
        <ele>36</ele>
        <time>2013-11-22T09:01:04Z</time>
      </trkpt>
      <trkpt lat="48.51653" lon="-2.71296">
        <ele>36</ele>
        <time>2013-11-22T09:01:05Z</time>
      </trkpt>
      <trkpt lat="48.51654" lon="-2.71296">
        <ele>36</ele>
        <time>2013-11-22T09:01:06Z</time>
      </trkpt>
      <trkpt lat="48.51656" lon="-2.71296">
        <ele>36</ele>
        <time>2013-11-22T09:01:07Z</time>
      </trkpt>
      <trkpt lat="48.51657" lon="-2.71297">
        <ele>36</ele>
        <time>2013-11-22T09:01:09Z</time>
      </trkpt>
      <trkpt lat="48.51659" lon="-2.71297">
        <ele>36</ele>
        <time>2013-11-22T09:01:09Z</time>
      </trkpt>
      <trkpt lat="48.51661" lon="-2.71297">
        <ele>36</ele>
        <time>2013-11-22T09:01:10Z</time>
      </trkpt>
      <trkpt lat="48.51662" lon="-2.71298">
        <ele>36</ele>
        <time>2013-11-22T09:01:11Z</time>
      </trkpt>
      <trkpt lat="48.51666" lon="-2.71298">
        <ele>36</ele>
        <time>2013-11-22T09:01:14Z</time>
      </trkpt>
      <trkpt lat="48.51667" lon="-2.71298">
        <ele>36</ele>
        <time>2013-11-22T09:01:14Z</time>
      </trkpt>
      <trkpt lat="48.51669" lon="-2.71299">
        <ele>36</ele>
        <time>2013-11-22T09:01:15Z</time>
      </trkpt>
      <trkpt lat="48.5167" lon="-2.71299">
        <ele>35</ele>
        <time>2013-11-22T09:01:16Z</time>
      </trkpt>
      <trkpt lat="48.51672" lon="-2.713">
        <ele>35</ele>
        <time>2013-11-22T09:01:17Z</time>
      </trkpt>
      <trkpt lat="48.51673" lon="-2.71301">
        <ele>35</ele>
        <time>2013-11-22T09:01:19Z</time>
      </trkpt>
      <trkpt lat="48.51674" lon="-2.71302">
        <ele>35</ele>
        <time>2013-11-22T09:01:19Z</time>
      </trkpt>
      <trkpt lat="48.51675" lon="-2.71303">
        <ele>35</ele>
        <time>2013-11-22T09:01:20Z</time>
      </trkpt>
      <trkpt lat="48.51677" lon="-2.71305">
        <ele>35</ele>
        <time>2013-11-22T09:01:22Z</time>
      </trkpt>
      <trkpt lat="48.5168" lon="-2.71307">
        <ele>35</ele>
        <time>2013-11-22T09:01:25Z</time>
      </trkpt>
      <trkpt lat="48.51681" lon="-2.71308">
        <ele>35</ele>
        <time>2013-11-22T09:01:25Z</time>
      </trkpt>
      <trkpt lat="48.51682" lon="-2.7131">
        <ele>34</ele>
        <time>2013-11-22T09:01:26Z</time>
      </trkpt>
      <trkpt lat="48.51683" lon="-2.71311">
        <ele>34</ele>
        <time>2013-11-22T09:01:27Z</time>
      </trkpt>
      <trkpt lat="48.51685" lon="-2.71311">
        <ele>34</ele>
        <time>2013-11-22T09:01:28Z</time>
      </trkpt>
      <trkpt lat="48.51687" lon="-2.71314">
        <ele>34</ele>
        <time>2013-11-22T09:01:31Z</time>
      </trkpt>
      <trkpt lat="48.51688" lon="-2.71315">
        <ele>34</ele>
        <time>2013-11-22T09:01:31Z</time>
      </trkpt>
      <trkpt lat="48.51689" lon="-2.71316">
        <ele>34</ele>
        <time>2013-11-22T09:01:32Z</time>
      </trkpt>
      <trkpt lat="48.5169" lon="-2.71317">
        <ele>33</ele>
        <time>2013-11-22T09:01:33Z</time>
      </trkpt>
      <trkpt lat="48.51692" lon="-2.71319">
        <ele>33</ele>
        <time>2013-11-22T09:01:34Z</time>
      </trkpt>
      <trkpt lat="48.51693" lon="-2.7132">
        <ele>33</ele>
        <time>2013-11-22T09:01:36Z</time>
      </trkpt>
      <trkpt lat="48.51695" lon="-2.71321">
        <ele>32</ele>
        <time>2013-11-22T09:01:37Z</time>
      </trkpt>
      <trkpt lat="48.51696" lon="-2.71322">
        <ele>32</ele>
        <time>2013-11-22T09:01:38Z</time>
      </trkpt>
      <trkpt lat="48.51698" lon="-2.71323">
        <ele>32</ele>
        <time>2013-11-22T09:01:39Z</time>
      </trkpt>
      <trkpt lat="48.51699" lon="-2.71325">
        <ele>32</ele>
        <time>2013-11-22T09:01:41Z</time>
      </trkpt>
      <trkpt lat="48.51701" lon="-2.71326">
        <ele>32</ele>
        <time>2013-11-22T09:01:41Z</time>
      </trkpt>
      <trkpt lat="48.51703" lon="-2.71329">
        <ele>32</ele>
        <time>2013-11-22T09:01:43Z</time>
      </trkpt>
      <trkpt lat="48.51704" lon="-2.71331">
        <ele>32</ele>
        <time>2013-11-22T09:01:44Z</time>
      </trkpt>
      <trkpt lat="48.51705" lon="-2.71332">
        <ele>32</ele>
        <time>2013-11-22T09:01:46Z</time>
      </trkpt>
      <trkpt lat="48.51706" lon="-2.71334">
        <ele>32</ele>
        <time>2013-11-22T09:01:46Z</time>
      </trkpt>
      <trkpt lat="48.51707" lon="-2.71335">
        <ele>32</ele>
        <time>2013-11-22T09:01:47Z</time>
      </trkpt>
      <trkpt lat="48.51709" lon="-2.71337">
        <ele>32</ele>
        <time>2013-11-22T09:01:48Z</time>
      </trkpt>
      <trkpt lat="48.5171" lon="-2.71338">
        <ele>31</ele>
        <time>2013-11-22T09:01:49Z</time>
      </trkpt>
      <trkpt lat="48.51712" lon="-2.71341">
        <ele>31</ele>
        <time>2013-11-22T09:01:52Z</time>
      </trkpt>
      <trkpt lat="48.51713" lon="-2.71343">
        <ele>31</ele>
        <time>2013-11-22T09:01:52Z</time>
      </trkpt>
      <trkpt lat="48.51714" lon="-2.71345">
        <ele>31</ele>
        <time>2013-11-22T09:01:53Z</time>
      </trkpt>
      <trkpt lat="48.51715" lon="-2.71347">
        <ele>31</ele>
        <time>2013-11-22T09:01:54Z</time>
      </trkpt>
      <trkpt lat="48.51715" lon="-2.71349">
        <ele>31</ele>
        <time>2013-11-22T09:01:55Z</time>
      </trkpt>
      <trkpt lat="48.51717" lon="-2.71351">
        <ele>31</ele>
        <time>2013-11-22T09:01:57Z</time>
      </trkpt>
      <trkpt lat="48.51719" lon="-2.71354">
        <ele>31</ele>
        <time>2013-11-22T09:01:59Z</time>
      </trkpt>
      <trkpt lat="48.5172" lon="-2.71356">
        <ele>31</ele>
        <time>2013-11-22T09:02:00Z</time>
      </trkpt>
      <trkpt lat="48.51721" lon="-2.71357">
        <ele>31</ele>
        <time>2013-11-22T09:02:01Z</time>
      </trkpt>
      <trkpt lat="48.51723" lon="-2.7136">
        <ele>31</ele>
        <time>2013-11-22T09:02:03Z</time>
      </trkpt>
      <trkpt lat="48.51724" lon="-2.71362">
        <ele>31</ele>
        <time>2013-11-22T09:02:04Z</time>
      </trkpt>
      <trkpt lat="48.51725" lon="-2.71364">
        <ele>31</ele>
        <time>2013-11-22T09:02:05Z</time>
      </trkpt>
      <trkpt lat="48.51726" lon="-2.71366">
        <ele>31</ele>
        <time>2013-11-22T09:02:06Z</time>
      </trkpt>
      <trkpt lat="48.51727" lon="-2.71367">
        <ele>31</ele>
        <time>2013-11-22T09:02:07Z</time>
      </trkpt>
      <trkpt lat="48.51728" lon="-2.71369">
        <ele>31</ele>
        <time>2013-11-22T09:02:09Z</time>
      </trkpt>
      <trkpt lat="48.51729" lon="-2.71371">
        <ele>31</ele>
        <time>2013-11-22T09:02:09Z</time>
      </trkpt>
      <trkpt lat="48.51731" lon="-2.71374">
        <ele>31</ele>
        <time>2013-11-22T09:02:11Z</time>
      </trkpt>
      <trkpt lat="48.51732" lon="-2.71375">
        <ele>31</ele>
        <time>2013-11-22T09:02:12Z</time>
      </trkpt>
      <trkpt lat="48.51733" lon="-2.71377">
        <ele>31</ele>
        <time>2013-11-22T09:02:15Z</time>
      </trkpt>
      <trkpt lat="48.51735" lon="-2.71379">
        <ele>30</ele>
        <time>2013-11-22T09:02:16Z</time>
      </trkpt>
      <trkpt lat="48.51736" lon="-2.71381">
        <ele>30</ele>
        <time>2013-11-22T09:02:17Z</time>
      </trkpt>
      <trkpt lat="48.51737" lon="-2.71382">
        <ele>30</ele>
        <time>2013-11-22T09:02:18Z</time>
      </trkpt>
      <trkpt lat="48.51738" lon="-2.71384">
        <ele>30</ele>
        <time>2013-11-22T09:02:20Z</time>
      </trkpt>
      <trkpt lat="48.51738" lon="-2.71386">
        <ele>30</ele>
        <time>2013-11-22T09:02:20Z</time>
      </trkpt>
      <trkpt lat="48.5174" lon="-2.71387">
        <ele>30</ele>
        <time>2013-11-22T09:02:21Z</time>
      </trkpt>
      <trkpt lat="48.51741" lon="-2.71389">
        <ele>30</ele>
        <time>2013-11-22T09:02:22Z</time>
      </trkpt>
      <trkpt lat="48.51741" lon="-2.71391">
        <ele>30</ele>
        <time>2013-11-22T09:02:23Z</time>
      </trkpt>
      <trkpt lat="48.51742" lon="-2.71392">
        <ele>30</ele>
        <time>2013-11-22T09:02:25Z</time>
      </trkpt>
      <trkpt lat="48.51743" lon="-2.71394">
        <ele>30</ele>
        <time>2013-11-22T09:02:25Z</time>
      </trkpt>
      <trkpt lat="48.51744" lon="-2.71396">
        <ele>30</ele>
        <time>2013-11-22T09:02:26Z</time>
      </trkpt>
      <trkpt lat="48.51745" lon="-2.71398">
        <ele>29</ele>
        <time>2013-11-22T09:02:27Z</time>
      </trkpt>
      <trkpt lat="48.51746" lon="-2.71399">
        <ele>29</ele>
        <time>2013-11-22T09:02:28Z</time>
      </trkpt>
      <trkpt lat="48.51747" lon="-2.71401">
        <ele>29</ele>
        <time>2013-11-22T09:02:30Z</time>
      </trkpt>
      <trkpt lat="48.51748" lon="-2.71403">
        <ele>29</ele>
        <time>2013-11-22T09:02:30Z</time>
      </trkpt>
      <trkpt lat="48.51749" lon="-2.71404">
        <ele>29</ele>
        <time>2013-11-22T09:02:31Z</time>
      </trkpt>
      <trkpt lat="48.5175" lon="-2.71406">
        <ele>29</ele>
        <time>2013-11-22T09:02:32Z</time>
      </trkpt>
      <trkpt lat="48.51751" lon="-2.71408">
        <ele>29</ele>
        <time>2013-11-22T09:02:33Z</time>
      </trkpt>
      <trkpt lat="48.51752" lon="-2.7141">
        <ele>29</ele>
        <time>2013-11-22T09:02:35Z</time>
      </trkpt>
      <trkpt lat="48.51753" lon="-2.71411">
        <ele>29</ele>
        <time>2013-11-22T09:02:35Z</time>
      </trkpt>
      <trkpt lat="48.51754" lon="-2.71413">
        <ele>29</ele>
        <time>2013-11-22T09:02:36Z</time>
      </trkpt>
      <trkpt lat="48.51755" lon="-2.71415">
        <ele>29</ele>
        <time>2013-11-22T09:02:37Z</time>
      </trkpt>
      <trkpt lat="48.51756" lon="-2.71417">
        <ele>28</ele>
        <time>2013-11-22T09:02:38Z</time>
      </trkpt>
      <trkpt lat="48.51757" lon="-2.7142">
        <ele>28</ele>
        <time>2013-11-22T09:02:41Z</time>
      </trkpt>
      <trkpt lat="48.51759" lon="-2.71423">
        <ele>28</ele>
        <time>2013-11-22T09:02:43Z</time>
      </trkpt>
      <trkpt lat="48.5176" lon="-2.71424">
        <ele>28</ele>
        <time>2013-11-22T09:02:43Z</time>
      </trkpt>
      <trkpt lat="48.51761" lon="-2.71426">
        <ele>27</ele>
        <time>2013-11-22T09:02:44Z</time>
      </trkpt>
      <trkpt lat="48.51762" lon="-2.71428">
        <ele>27</ele>
        <time>2013-11-22T09:02:46Z</time>
      </trkpt>
      <trkpt lat="48.51762" lon="-2.71429">
        <ele>27</ele>
        <time>2013-11-22T09:02:46Z</time>
      </trkpt>
      <trkpt lat="48.51763" lon="-2.71431">
        <ele>27</ele>
        <time>2013-11-22T09:02:47Z</time>
      </trkpt>
      <trkpt lat="48.51764" lon="-2.71433">
        <ele>27</ele>
        <time>2013-11-22T09:02:48Z</time>
      </trkpt>
      <trkpt lat="48.51765" lon="-2.71435">
        <ele>27</ele>
        <time>2013-11-22T09:02:49Z</time>
      </trkpt>
      <trkpt lat="48.51766" lon="-2.71436">
        <ele>27</ele>
        <time>2013-11-22T09:02:51Z</time>
      </trkpt>
      <trkpt lat="48.51767" lon="-2.71438">
        <ele>27</ele>
        <time>2013-11-22T09:02:51Z</time>
      </trkpt>
      <trkpt lat="48.51768" lon="-2.7144">
        <ele>27</ele>
        <time>2013-11-22T09:02:52Z</time>
      </trkpt>
      <trkpt lat="48.51768" lon="-2.71441">
        <ele>27</ele>
        <time>2013-11-22T09:02:53Z</time>
      </trkpt>
      <trkpt lat="48.51769" lon="-2.71443">
        <ele>27</ele>
        <time>2013-11-22T09:02:54Z</time>
      </trkpt>
      <trkpt lat="48.5177" lon="-2.71445">
        <ele>27</ele>
        <time>2013-11-22T09:02:56Z</time>
      </trkpt>
      <trkpt lat="48.51771" lon="-2.71446">
        <ele>26</ele>
        <time>2013-11-22T09:02:56Z</time>
      </trkpt>
      <trkpt lat="48.51772" lon="-2.71448">
        <ele>26</ele>
        <time>2013-11-22T09:02:57Z</time>
      </trkpt>
      <trkpt lat="48.51773" lon="-2.7145">
        <ele>26</ele>
        <time>2013-11-22T09:02:58Z</time>
      </trkpt>
      <trkpt lat="48.51774" lon="-2.71452">
        <ele>26</ele>
        <time>2013-11-22T09:02:59Z</time>
      </trkpt>
      <trkpt lat="48.51775" lon="-2.71454">
        <ele>26</ele>
        <time>2013-11-22T09:03:01Z</time>
      </trkpt>
      <trkpt lat="48.51776" lon="-2.71455">
        <ele>26</ele>
        <time>2013-11-22T09:03:01Z</time>
      </trkpt>
      <trkpt lat="48.51777" lon="-2.71457">
        <ele>26</ele>
        <time>2013-11-22T09:03:02Z</time>
      </trkpt>
      <trkpt lat="48.51778" lon="-2.7146">
        <ele>25</ele>
        <time>2013-11-22T09:03:04Z</time>
      </trkpt>
      <trkpt lat="48.51778" lon="-2.71462">
        <ele>25</ele>
        <time>2013-11-22T09:03:05Z</time>
      </trkpt>
      <trkpt lat="48.51779" lon="-2.71464">
        <ele>25</ele>
        <time>2013-11-22T09:03:06Z</time>
      </trkpt>
      <trkpt lat="48.5178" lon="-2.71465">
        <ele>25</ele>
        <time>2013-11-22T09:03:07Z</time>
      </trkpt>
      <trkpt lat="48.5178" lon="-2.71467">
        <ele>25</ele>
        <time>2013-11-22T09:03:08Z</time>
      </trkpt>
      <trkpt lat="48.51781" lon="-2.71469">
        <ele>25</ele>
        <time>2013-11-22T09:03:09Z</time>
      </trkpt>
      <trkpt lat="48.51782" lon="-2.71471">
        <ele>25</ele>
        <time>2013-11-22T09:03:10Z</time>
      </trkpt>
      <trkpt lat="48.51783" lon="-2.71472">
        <ele>24</ele>
        <time>2013-11-22T09:03:11Z</time>
      </trkpt>
      <trkpt lat="48.51784" lon="-2.71474">
        <ele>24</ele>
        <time>2013-11-22T09:03:12Z</time>
      </trkpt>
      <trkpt lat="48.51785" lon="-2.71476">
        <ele>24</ele>
        <time>2013-11-22T09:03:13Z</time>
      </trkpt>
      <trkpt lat="48.51785" lon="-2.71478">
        <ele>24</ele>
        <time>2013-11-22T09:03:14Z</time>
      </trkpt>
      <trkpt lat="48.51786" lon="-2.7148">
        <ele>24</ele>
        <time>2013-11-22T09:03:16Z</time>
      </trkpt>
      <trkpt lat="48.51787" lon="-2.71481">
        <ele>24</ele>
        <time>2013-11-22T09:03:16Z</time>
      </trkpt>
      <trkpt lat="48.51788" lon="-2.71483">
        <ele>23</ele>
        <time>2013-11-22T09:03:17Z</time>
      </trkpt>
      <trkpt lat="48.51788" lon="-2.71484">
        <ele>23</ele>
        <time>2013-11-22T09:03:18Z</time>
      </trkpt>
      <trkpt lat="48.51789" lon="-2.71486">
        <ele>23</ele>
        <time>2013-11-22T09:03:19Z</time>
      </trkpt>
      <trkpt lat="48.51789" lon="-2.71488">
        <ele>23</ele>
        <time>2013-11-22T09:03:21Z</time>
      </trkpt>
      <trkpt lat="48.5179" lon="-2.7149">
        <ele>23</ele>
        <time>2013-11-22T09:03:21Z</time>
      </trkpt>
      <trkpt lat="48.51791" lon="-2.71492">
        <ele>23</ele>
        <time>2013-11-22T09:03:22Z</time>
      </trkpt>
      <trkpt lat="48.51792" lon="-2.71493">
        <ele>22</ele>
        <time>2013-11-22T09:03:23Z</time>
      </trkpt>
      <trkpt lat="48.51793" lon="-2.71495">
        <ele>22</ele>
        <time>2013-11-22T09:03:24Z</time>
      </trkpt>
      <trkpt lat="48.51794" lon="-2.71497">
        <ele>22</ele>
        <time>2013-11-22T09:03:26Z</time>
      </trkpt>
      <trkpt lat="48.51795" lon="-2.71499">
        <ele>22</ele>
        <time>2013-11-22T09:03:26Z</time>
      </trkpt>
      <trkpt lat="48.51795" lon="-2.71501">
        <ele>22</ele>
        <time>2013-11-22T09:03:27Z</time>
      </trkpt>
      <trkpt lat="48.51796" lon="-2.71503">
        <ele>22</ele>
        <time>2013-11-22T09:03:28Z</time>
      </trkpt>
      <trkpt lat="48.51797" lon="-2.71505">
        <ele>22</ele>
        <time>2013-11-22T09:03:29Z</time>
      </trkpt>
      <trkpt lat="48.51798" lon="-2.71506">
        <ele>22</ele>
        <time>2013-11-22T09:03:31Z</time>
      </trkpt>
      <trkpt lat="48.51799" lon="-2.71508">
        <ele>22</ele>
        <time>2013-11-22T09:03:31Z</time>
      </trkpt>
      <trkpt lat="48.51799" lon="-2.7151">
        <ele>22</ele>
        <time>2013-11-22T09:03:32Z</time>
      </trkpt>
      <trkpt lat="48.51801" lon="-2.71513">
        <ele>22</ele>
        <time>2013-11-22T09:03:34Z</time>
      </trkpt>
      <trkpt lat="48.51801" lon="-2.71515">
        <ele>22</ele>
        <time>2013-11-22T09:03:36Z</time>
      </trkpt>
      <trkpt lat="48.51802" lon="-2.71517">
        <ele>22</ele>
        <time>2013-11-22T09:03:36Z</time>
      </trkpt>
      <trkpt lat="48.51803" lon="-2.71519">
        <ele>21</ele>
        <time>2013-11-22T09:03:37Z</time>
      </trkpt>
      <trkpt lat="48.51804" lon="-2.7152">
        <ele>21</ele>
        <time>2013-11-22T09:03:38Z</time>
      </trkpt>
      <trkpt lat="48.51804" lon="-2.71522">
        <ele>21</ele>
        <time>2013-11-22T09:03:39Z</time>
      </trkpt>
      <trkpt lat="48.51805" lon="-2.71524">
        <ele>21</ele>
        <time>2013-11-22T09:03:40Z</time>
      </trkpt>
      <trkpt lat="48.51806" lon="-2.71527">
        <ele>21</ele>
        <time>2013-11-22T09:03:43Z</time>
      </trkpt>
      <trkpt lat="48.51806" lon="-2.71529">
        <ele>20</ele>
        <time>2013-11-22T09:03:43Z</time>
      </trkpt>
      <trkpt lat="48.51806" lon="-2.71531">
        <ele>20</ele>
        <time>2013-11-22T09:03:44Z</time>
      </trkpt>
      <trkpt lat="48.51807" lon="-2.71533">
        <ele>20</ele>
        <time>2013-11-22T09:03:46Z</time>
      </trkpt>
      <trkpt lat="48.51808" lon="-2.71534">
        <ele>19</ele>
        <time>2013-11-22T09:03:46Z</time>
      </trkpt>
      <trkpt lat="48.51808" lon="-2.71536">
        <ele>19</ele>
        <time>2013-11-22T09:03:47Z</time>
      </trkpt>
      <trkpt lat="48.51809" lon="-2.71538">
        <ele>19</ele>
        <time>2013-11-22T09:03:48Z</time>
      </trkpt>
      <trkpt lat="48.5181" lon="-2.7154">
        <ele>19</ele>
        <time>2013-11-22T09:03:49Z</time>
      </trkpt>
      <trkpt lat="48.5181" lon="-2.71542">
        <ele>19</ele>
        <time>2013-11-22T09:03:51Z</time>
      </trkpt>
      <trkpt lat="48.51811" lon="-2.71543">
        <ele>19</ele>
        <time>2013-11-22T09:03:51Z</time>
      </trkpt>
      <trkpt lat="48.51812" lon="-2.71545">
        <ele>19</ele>
        <time>2013-11-22T09:03:52Z</time>
      </trkpt>
      <trkpt lat="48.51812" lon="-2.71547">
        <ele>18</ele>
        <time>2013-11-22T09:03:53Z</time>
      </trkpt>
      <trkpt lat="48.51813" lon="-2.71548">
        <ele>18</ele>
        <time>2013-11-22T09:03:54Z</time>
      </trkpt>
      <trkpt lat="48.51814" lon="-2.7155">
        <ele>18</ele>
        <time>2013-11-22T09:03:56Z</time>
      </trkpt>
      <trkpt lat="48.51815" lon="-2.71552">
        <ele>18</ele>
        <time>2013-11-22T09:03:56Z</time>
      </trkpt>
      <trkpt lat="48.51815" lon="-2.71553">
        <ele>17</ele>
        <time>2013-11-22T09:03:57Z</time>
      </trkpt>
      <trkpt lat="48.51816" lon="-2.71555">
        <ele>17</ele>
        <time>2013-11-22T09:03:58Z</time>
      </trkpt>
      <trkpt lat="48.51817" lon="-2.71557">
        <ele>17</ele>
        <time>2013-11-22T09:03:59Z</time>
      </trkpt>
      <trkpt lat="48.51817" lon="-2.71559">
        <ele>17</ele>
        <time>2013-11-22T09:04:01Z</time>
      </trkpt>
      <trkpt lat="48.51818" lon="-2.7156">
        <ele>17</ele>
        <time>2013-11-22T09:04:01Z</time>
      </trkpt>
      <trkpt lat="48.51819" lon="-2.71562">
        <ele>17</ele>
        <time>2013-11-22T09:04:02Z</time>
      </trkpt>
      <trkpt lat="48.5182" lon="-2.71564">
        <ele>16</ele>
        <time>2013-11-22T09:04:03Z</time>
      </trkpt>
      <trkpt lat="48.51821" lon="-2.71565">
        <ele>16</ele>
        <time>2013-11-22T09:04:04Z</time>
      </trkpt>
      <trkpt lat="48.51822" lon="-2.71567">
        <ele>16</ele>
        <time>2013-11-22T09:04:06Z</time>
      </trkpt>
      <trkpt lat="48.51823" lon="-2.71569">
        <ele>16</ele>
        <time>2013-11-22T09:04:06Z</time>
      </trkpt>
      <trkpt lat="48.51824" lon="-2.7157">
        <ele>16</ele>
        <time>2013-11-22T09:04:07Z</time>
      </trkpt>
      <trkpt lat="48.51826" lon="-2.71574">
        <ele>15</ele>
        <time>2013-11-22T09:04:09Z</time>
      </trkpt>
      <trkpt lat="48.51827" lon="-2.71575">
        <ele>15</ele>
        <time>2013-11-22T09:04:10Z</time>
      </trkpt>
      <trkpt lat="48.51829" lon="-2.71578">
        <ele>15</ele>
        <time>2013-11-22T09:04:12Z</time>
      </trkpt>
      <trkpt lat="48.5183" lon="-2.7158">
        <ele>15</ele>
        <time>2013-11-22T09:04:13Z</time>
      </trkpt>
      <trkpt lat="48.51832" lon="-2.71582">
        <ele>15</ele>
        <time>2013-11-22T09:04:16Z</time>
      </trkpt>
      <trkpt lat="48.51833" lon="-2.71583">
        <ele>15</ele>
        <time>2013-11-22T09:04:16Z</time>
      </trkpt>
      <trkpt lat="48.51834" lon="-2.71585">
        <ele>15</ele>
        <time>2013-11-22T09:04:17Z</time>
      </trkpt>
      <trkpt lat="48.51836" lon="-2.71587">
        <ele>14</ele>
        <time>2013-11-22T09:04:19Z</time>
      </trkpt>
      <trkpt lat="48.51838" lon="-2.71588">
        <ele>14</ele>
        <time>2013-11-22T09:04:20Z</time>
      </trkpt>
      <trkpt lat="48.51839" lon="-2.71588">
        <ele>14</ele>
        <time>2013-11-22T09:04:21Z</time>
      </trkpt>
      <trkpt lat="48.5184" lon="-2.71589">
        <ele>14</ele>
        <time>2013-11-22T09:04:22Z</time>
      </trkpt>
      <trkpt lat="48.51841" lon="-2.7159">
        <ele>14</ele>
        <time>2013-11-22T09:04:23Z</time>
      </trkpt>
      <trkpt lat="48.51843" lon="-2.71591">
        <ele>14</ele>
        <time>2013-11-22T09:04:24Z</time>
      </trkpt>
      <trkpt lat="48.51844" lon="-2.71592">
        <ele>14</ele>
        <time>2013-11-22T09:04:25Z</time>
      </trkpt>
      <trkpt lat="48.51845" lon="-2.71593">
        <ele>13</ele>
        <time>2013-11-22T09:04:26Z</time>
      </trkpt>
      <trkpt lat="48.51846" lon="-2.71594">
        <ele>13</ele>
        <time>2013-11-22T09:04:27Z</time>
      </trkpt>
      <trkpt lat="48.51847" lon="-2.71594">
        <ele>13</ele>
        <time>2013-11-22T09:04:28Z</time>
      </trkpt>
      <trkpt lat="48.51849" lon="-2.71595">
        <ele>13</ele>
        <time>2013-11-22T09:04:29Z</time>
      </trkpt>
      <trkpt lat="48.5185" lon="-2.71596">
        <ele>13</ele>
        <time>2013-11-22T09:04:31Z</time>
      </trkpt>
      <trkpt lat="48.51852" lon="-2.71597">
        <ele>13</ele>
        <time>2013-11-22T09:04:31Z</time>
      </trkpt>
      <trkpt lat="48.51853" lon="-2.71598">
        <ele>13</ele>
        <time>2013-11-22T09:04:32Z</time>
      </trkpt>
      <trkpt lat="48.51854" lon="-2.71598">
        <ele>13</ele>
        <time>2013-11-22T09:04:33Z</time>
      </trkpt>
      <trkpt lat="48.51856" lon="-2.71599">
        <ele>13</ele>
        <time>2013-11-22T09:04:34Z</time>
      </trkpt>
      <trkpt lat="48.51857" lon="-2.716">
        <ele>12</ele>
        <time>2013-11-22T09:04:35Z</time>
      </trkpt>
      <trkpt lat="48.51859" lon="-2.716">
        <ele>12</ele>
        <time>2013-11-22T09:04:36Z</time>
      </trkpt>
      <trkpt lat="48.5186" lon="-2.716">
        <ele>12</ele>
        <time>2013-11-22T09:04:37Z</time>
      </trkpt>
      <trkpt lat="48.51861" lon="-2.71601">
        <ele>12</ele>
        <time>2013-11-22T09:04:38Z</time>
      </trkpt>
      <trkpt lat="48.51863" lon="-2.71601">
        <ele>12</ele>
        <time>2013-11-22T09:04:39Z</time>
      </trkpt>
      <trkpt lat="48.51864" lon="-2.71602">
        <ele>12</ele>
        <time>2013-11-22T09:04:40Z</time>
      </trkpt>
      <trkpt lat="48.51866" lon="-2.71602">
        <ele>12</ele>
        <time>2013-11-22T09:04:41Z</time>
      </trkpt>
      <trkpt lat="48.51867" lon="-2.71602">
        <ele>12</ele>
        <time>2013-11-22T09:04:42Z</time>
      </trkpt>
      <trkpt lat="48.51868" lon="-2.71602">
        <ele>12</ele>
        <time>2013-11-22T09:04:43Z</time>
      </trkpt>
      <trkpt lat="48.5187" lon="-2.71603">
        <ele>11</ele>
        <time>2013-11-22T09:04:44Z</time>
      </trkpt>
      <trkpt lat="48.51871" lon="-2.71603">
        <ele>11</ele>
        <time>2013-11-22T09:04:45Z</time>
      </trkpt>
      <trkpt lat="48.51873" lon="-2.71603">
        <ele>11</ele>
        <time>2013-11-22T09:04:46Z</time>
      </trkpt>
      <trkpt lat="48.51875" lon="-2.71603">
        <ele>11</ele>
        <time>2013-11-22T09:04:48Z</time>
      </trkpt>
      <trkpt lat="48.51876" lon="-2.71604">
        <ele>11</ele>
        <time>2013-11-22T09:04:50Z</time>
      </trkpt>
      <trkpt lat="48.51878" lon="-2.71603">
        <ele>11</ele>
        <time>2013-11-22T09:04:52Z</time>
      </trkpt>
      <trkpt lat="48.51881" lon="-2.71604">
        <ele>11</ele>
        <time>2013-11-22T09:04:54Z</time>
      </trkpt>
      <trkpt lat="48.51882" lon="-2.71606">
        <ele>11</ele>
        <time>2013-11-22T09:04:56Z</time>
      </trkpt>
      <trkpt lat="48.51884" lon="-2.71608">
        <ele>11</ele>
        <time>2013-11-22T09:04:58Z</time>
      </trkpt>
      <trkpt lat="48.51886" lon="-2.7161">
        <ele>11</ele>
        <time>2013-11-22T09:04:59Z</time>
      </trkpt>
      <trkpt lat="48.51887" lon="-2.71611">
        <ele>11</ele>
        <time>2013-11-22T09:05:00Z</time>
      </trkpt>
      <trkpt lat="48.51889" lon="-2.71614">
        <ele>11</ele>
        <time>2013-11-22T09:05:02Z</time>
      </trkpt>
      <trkpt lat="48.51891" lon="-2.71617">
        <ele>11</ele>
        <time>2013-11-22T09:05:04Z</time>
      </trkpt>
      <trkpt lat="48.51892" lon="-2.71618">
        <ele>11</ele>
        <time>2013-11-22T09:05:05Z</time>
      </trkpt>
      <trkpt lat="48.51894" lon="-2.71619">
        <ele>11</ele>
        <time>2013-11-22T09:05:06Z</time>
      </trkpt>
      <trkpt lat="48.51895" lon="-2.7162">
        <ele>11</ele>
        <time>2013-11-22T09:05:07Z</time>
      </trkpt>
      <trkpt lat="48.51896" lon="-2.71621">
        <ele>11</ele>
        <time>2013-11-22T09:05:08Z</time>
      </trkpt>
      <trkpt lat="48.51897" lon="-2.71622">
        <ele>11</ele>
        <time>2013-11-22T09:05:09Z</time>
      </trkpt>
      <trkpt lat="48.51898" lon="-2.71624">
        <ele>11</ele>
        <time>2013-11-22T09:05:10Z</time>
      </trkpt>
      <trkpt lat="48.51899" lon="-2.71625">
        <ele>11</ele>
        <time>2013-11-22T09:05:11Z</time>
      </trkpt>
      <trkpt lat="48.51901" lon="-2.71629">
        <ele>11</ele>
        <time>2013-11-22T09:05:13Z</time>
      </trkpt>
      <trkpt lat="48.51902" lon="-2.7163">
        <ele>11</ele>
        <time>2013-11-22T09:05:14Z</time>
      </trkpt>
      <trkpt lat="48.51902" lon="-2.71632">
        <ele>11</ele>
        <time>2013-11-22T09:05:15Z</time>
      </trkpt>
      <trkpt lat="48.51902" lon="-2.71641">
        <ele>11</ele>
        <time>2013-11-22T09:05:19Z</time>
      </trkpt>
      <trkpt lat="48.51901" lon="-2.71643">
        <ele>11</ele>
        <time>2013-11-22T09:05:20Z</time>
      </trkpt>
      <trkpt lat="48.519" lon="-2.71645">
        <ele>11</ele>
        <time>2013-11-22T09:05:21Z</time>
      </trkpt>
      <trkpt lat="48.519" lon="-2.71647">
        <ele>10</ele>
        <time>2013-11-22T09:05:22Z</time>
      </trkpt>
      <trkpt lat="48.51899" lon="-2.71649">
        <ele>10</ele>
        <time>2013-11-22T09:05:23Z</time>
      </trkpt>
      <trkpt lat="48.51898" lon="-2.71651">
        <ele>10</ele>
        <time>2013-11-22T09:05:24Z</time>
      </trkpt>
      <trkpt lat="48.51898" lon="-2.71653">
        <ele>10</ele>
        <time>2013-11-22T09:05:25Z</time>
      </trkpt>
      <trkpt lat="48.51897" lon="-2.71655">
        <ele>10</ele>
        <time>2013-11-22T09:05:26Z</time>
      </trkpt>
      <trkpt lat="48.51896" lon="-2.71657">
        <ele>10</ele>
        <time>2013-11-22T09:05:27Z</time>
      </trkpt>
      <trkpt lat="48.51895" lon="-2.71659">
        <ele>10</ele>
        <time>2013-11-22T09:05:28Z</time>
      </trkpt>
      <trkpt lat="48.51894" lon="-2.71661">
        <ele>10</ele>
        <time>2013-11-22T09:05:29Z</time>
      </trkpt>
      <trkpt lat="48.51894" lon="-2.71663">
        <ele>10</ele>
        <time>2013-11-22T09:05:30Z</time>
      </trkpt>
      <trkpt lat="48.51893" lon="-2.71665">
        <ele>10</ele>
        <time>2013-11-22T09:05:31Z</time>
      </trkpt>
      <trkpt lat="48.51892" lon="-2.71667">
        <ele>10</ele>
        <time>2013-11-22T09:05:32Z</time>
      </trkpt>
      <trkpt lat="48.51892" lon="-2.71669">
        <ele>10</ele>
        <time>2013-11-22T09:05:33Z</time>
      </trkpt>
      <trkpt lat="48.51891" lon="-2.71671">
        <ele>10</ele>
        <time>2013-11-22T09:05:34Z</time>
      </trkpt>
      <trkpt lat="48.51891" lon="-2.71673">
        <ele>10</ele>
        <time>2013-11-22T09:05:35Z</time>
      </trkpt>
      <trkpt lat="48.5189" lon="-2.71674">
        <ele>10</ele>
        <time>2013-11-22T09:05:36Z</time>
      </trkpt>
      <trkpt lat="48.51889" lon="-2.71676">
        <ele>10</ele>
        <time>2013-11-22T09:05:37Z</time>
      </trkpt>
      <trkpt lat="48.51889" lon="-2.71678">
        <ele>10</ele>
        <time>2013-11-22T09:05:38Z</time>
      </trkpt>
      <trkpt lat="48.51888" lon="-2.7168">
        <ele>10</ele>
        <time>2013-11-22T09:05:39Z</time>
      </trkpt>
      <trkpt lat="48.51887" lon="-2.71683">
        <ele>10</ele>
        <time>2013-11-22T09:05:40Z</time>
      </trkpt>
      <trkpt lat="48.51888" lon="-2.71687">
        <ele>10</ele>
        <time>2013-11-22T09:05:58Z</time>
      </trkpt>
      <trkpt lat="48.51888" lon="-2.71689">
        <ele>10</ele>
        <time>2013-11-22T09:06:00Z</time>
      </trkpt>
      <trkpt lat="48.51886" lon="-2.71692">
        <ele>10</ele>
        <time>2013-11-22T09:06:02Z</time>
      </trkpt>
      <trkpt lat="48.51886" lon="-2.71694">
        <ele>10</ele>
        <time>2013-11-22T09:06:04Z</time>
      </trkpt>
      <trkpt lat="48.51885" lon="-2.71699">
        <ele>10</ele>
        <time>2013-11-22T09:06:07Z</time>
      </trkpt>
      <trkpt lat="48.51884" lon="-2.71701">
        <ele>10</ele>
        <time>2013-11-22T09:06:09Z</time>
      </trkpt>
      <trkpt lat="48.51883" lon="-2.71704">
        <ele>10</ele>
        <time>2013-11-22T09:06:11Z</time>
      </trkpt>
      <trkpt lat="48.51883" lon="-2.71707">
        <ele>10</ele>
        <time>2013-11-22T09:06:13Z</time>
      </trkpt>
      <trkpt lat="48.51882" lon="-2.71709">
        <ele>10</ele>
        <time>2013-11-22T09:06:14Z</time>
      </trkpt>
      <trkpt lat="48.51881" lon="-2.7171">
        <ele>10</ele>
        <time>2013-11-22T09:06:15Z</time>
      </trkpt>
      <trkpt lat="48.51881" lon="-2.71712">
        <ele>10</ele>
        <time>2013-11-22T09:06:16Z</time>
      </trkpt>
      <trkpt lat="48.5188" lon="-2.71715">
        <ele>10</ele>
        <time>2013-11-22T09:06:18Z</time>
      </trkpt>
      <trkpt lat="48.51878" lon="-2.71718">
        <ele>10</ele>
        <time>2013-11-22T09:06:20Z</time>
      </trkpt>
      <trkpt lat="48.51878" lon="-2.7172">
        <ele>10</ele>
        <time>2013-11-22T09:06:21Z</time>
      </trkpt>
      <trkpt lat="48.51877" lon="-2.71722">
        <ele>10</ele>
        <time>2013-11-22T09:06:22Z</time>
      </trkpt>
      <trkpt lat="48.51876" lon="-2.71723">
        <ele>10</ele>
        <time>2013-11-22T09:06:23Z</time>
      </trkpt>
      <trkpt lat="48.51875" lon="-2.71726">
        <ele>10</ele>
        <time>2013-11-22T09:06:25Z</time>
      </trkpt>
      <trkpt lat="48.51875" lon="-2.71728">
        <ele>10</ele>
        <time>2013-11-22T09:06:26Z</time>
      </trkpt>
      <trkpt lat="48.51874" lon="-2.7173">
        <ele>10</ele>
        <time>2013-11-22T09:06:27Z</time>
      </trkpt>
      <trkpt lat="48.51874" lon="-2.71732">
        <ele>10</ele>
        <time>2013-11-22T09:06:28Z</time>
      </trkpt>
      <trkpt lat="48.51873" lon="-2.71734">
        <ele>10</ele>
        <time>2013-11-22T09:06:29Z</time>
      </trkpt>
      <trkpt lat="48.51872" lon="-2.71736">
        <ele>10</ele>
        <time>2013-11-22T09:06:31Z</time>
      </trkpt>
      <trkpt lat="48.51871" lon="-2.7174">
        <ele>10</ele>
        <time>2013-11-22T09:06:33Z</time>
      </trkpt>
      <trkpt lat="48.5187" lon="-2.71741">
        <ele>10</ele>
        <time>2013-11-22T09:06:34Z</time>
      </trkpt>
      <trkpt lat="48.5187" lon="-2.71743">
        <ele>10</ele>
        <time>2013-11-22T09:06:35Z</time>
      </trkpt>
      <trkpt lat="48.5187" lon="-2.71745">
        <ele>10</ele>
        <time>2013-11-22T09:06:36Z</time>
      </trkpt>
      <trkpt lat="48.51869" lon="-2.71747">
        <ele>10</ele>
        <time>2013-11-22T09:06:37Z</time>
      </trkpt>
      <trkpt lat="48.51868" lon="-2.7175">
        <ele>10</ele>
        <time>2013-11-22T09:06:39Z</time>
      </trkpt>
      <trkpt lat="48.51867" lon="-2.71752">
        <ele>10</ele>
        <time>2013-11-22T09:06:40Z</time>
      </trkpt>
      <trkpt lat="48.51866" lon="-2.71754">
        <ele>10</ele>
        <time>2013-11-22T09:06:41Z</time>
      </trkpt>
      <trkpt lat="48.51865" lon="-2.71757">
        <ele>10</ele>
        <time>2013-11-22T09:06:43Z</time>
      </trkpt>
      <trkpt lat="48.51865" lon="-2.71759">
        <ele>10</ele>
        <time>2013-11-22T09:06:44Z</time>
      </trkpt>
      <trkpt lat="48.51864" lon="-2.71761">
        <ele>10</ele>
        <time>2013-11-22T09:06:45Z</time>
      </trkpt>
      <trkpt lat="48.51863" lon="-2.71762">
        <ele>10</ele>
        <time>2013-11-22T09:06:46Z</time>
      </trkpt>
      <trkpt lat="48.51863" lon="-2.71764">
        <ele>10</ele>
        <time>2013-11-22T09:06:47Z</time>
      </trkpt>
      <trkpt lat="48.51862" lon="-2.71766">
        <ele>10</ele>
        <time>2013-11-22T09:06:48Z</time>
      </trkpt>
      <trkpt lat="48.51861" lon="-2.71768">
        <ele>10</ele>
        <time>2013-11-22T09:06:49Z</time>
      </trkpt>
      <trkpt lat="48.51861" lon="-2.7177">
        <ele>10</ele>
        <time>2013-11-22T09:06:50Z</time>
      </trkpt>
      <trkpt lat="48.5186" lon="-2.71772">
        <ele>10</ele>
        <time>2013-11-22T09:06:51Z</time>
      </trkpt>
      <trkpt lat="48.5186" lon="-2.71773">
        <ele>10</ele>
        <time>2013-11-22T09:06:52Z</time>
      </trkpt>
      <trkpt lat="48.51859" lon="-2.71775">
        <ele>10</ele>
        <time>2013-11-22T09:06:53Z</time>
      </trkpt>
      <trkpt lat="48.51858" lon="-2.71777">
        <ele>10</ele>
        <time>2013-11-22T09:06:54Z</time>
      </trkpt>
      <trkpt lat="48.51858" lon="-2.71779">
        <ele>10</ele>
        <time>2013-11-22T09:06:55Z</time>
      </trkpt>
      <trkpt lat="48.51857" lon="-2.71781">
        <ele>10</ele>
        <time>2013-11-22T09:06:56Z</time>
      </trkpt>
      <trkpt lat="48.51856" lon="-2.71783">
        <ele>10</ele>
        <time>2013-11-22T09:06:57Z</time>
      </trkpt>
      <trkpt lat="48.51855" lon="-2.71785">
        <ele>10</ele>
        <time>2013-11-22T09:06:58Z</time>
      </trkpt>
      <trkpt lat="48.51854" lon="-2.71788">
        <ele>10</ele>
        <time>2013-11-22T09:07:00Z</time>
      </trkpt>
      <trkpt lat="48.51853" lon="-2.71789">
        <ele>10</ele>
        <time>2013-11-22T09:07:01Z</time>
      </trkpt>
      <trkpt lat="48.51852" lon="-2.71791">
        <ele>10</ele>
        <time>2013-11-22T09:07:02Z</time>
      </trkpt>
      <trkpt lat="48.51852" lon="-2.71793">
        <ele>10</ele>
        <time>2013-11-22T09:07:03Z</time>
      </trkpt>
      <trkpt lat="48.51852" lon="-2.71795">
        <ele>10</ele>
        <time>2013-11-22T09:07:04Z</time>
      </trkpt>
      <trkpt lat="48.51851" lon="-2.71797">
        <ele>10</ele>
        <time>2013-11-22T09:07:05Z</time>
      </trkpt>
      <trkpt lat="48.51851" lon="-2.71799">
        <ele>10</ele>
        <time>2013-11-22T09:07:06Z</time>
      </trkpt>
      <trkpt lat="48.5185" lon="-2.71801">
        <ele>10</ele>
        <time>2013-11-22T09:07:07Z</time>
      </trkpt>
      <trkpt lat="48.5185" lon="-2.71803">
        <ele>10</ele>
        <time>2013-11-22T09:07:08Z</time>
      </trkpt>
      <trkpt lat="48.51849" lon="-2.71805">
        <ele>10</ele>
        <time>2013-11-22T09:07:09Z</time>
      </trkpt>
      <trkpt lat="48.51849" lon="-2.71807">
        <ele>10</ele>
        <time>2013-11-22T09:07:10Z</time>
      </trkpt>
      <trkpt lat="48.51848" lon="-2.71809">
        <ele>10</ele>
        <time>2013-11-22T09:07:11Z</time>
      </trkpt>
      <trkpt lat="48.51847" lon="-2.71811">
        <ele>10</ele>
        <time>2013-11-22T09:07:12Z</time>
      </trkpt>
      <trkpt lat="48.51846" lon="-2.71814">
        <ele>10</ele>
        <time>2013-11-22T09:07:14Z</time>
      </trkpt>
      <trkpt lat="48.51846" lon="-2.71816">
        <ele>10</ele>
        <time>2013-11-22T09:07:15Z</time>
      </trkpt>
      <trkpt lat="48.51845" lon="-2.71818">
        <ele>10</ele>
        <time>2013-11-22T09:07:16Z</time>
      </trkpt>
      <trkpt lat="48.51844" lon="-2.7182">
        <ele>10</ele>
        <time>2013-11-22T09:07:17Z</time>
      </trkpt>
      <trkpt lat="48.51843" lon="-2.71822">
        <ele>10</ele>
        <time>2013-11-22T09:07:18Z</time>
      </trkpt>
      <trkpt lat="48.51843" lon="-2.71824">
        <ele>10</ele>
        <time>2013-11-22T09:07:19Z</time>
      </trkpt>
      <trkpt lat="48.51842" lon="-2.71826">
        <ele>10</ele>
        <time>2013-11-22T09:07:20Z</time>
      </trkpt>
      <trkpt lat="48.51841" lon="-2.71828">
        <ele>10</ele>
        <time>2013-11-22T09:07:21Z</time>
      </trkpt>
      <trkpt lat="48.51841" lon="-2.71831">
        <ele>10</ele>
        <time>2013-11-22T09:07:22Z</time>
      </trkpt>
      <trkpt lat="48.5184" lon="-2.71833">
        <ele>10</ele>
        <time>2013-11-22T09:07:23Z</time>
      </trkpt>
      <trkpt lat="48.51839" lon="-2.71835">
        <ele>10</ele>
        <time>2013-11-22T09:07:24Z</time>
      </trkpt>
      <trkpt lat="48.51839" lon="-2.71837">
        <ele>10</ele>
        <time>2013-11-22T09:07:25Z</time>
      </trkpt>
      <trkpt lat="48.51838" lon="-2.71839">
        <ele>10</ele>
        <time>2013-11-22T09:07:26Z</time>
      </trkpt>
      <trkpt lat="48.51838" lon="-2.71841">
        <ele>10</ele>
        <time>2013-11-22T09:07:27Z</time>
      </trkpt>
      <trkpt lat="48.51837" lon="-2.71843">
        <ele>10</ele>
        <time>2013-11-22T09:07:28Z</time>
      </trkpt>
      <trkpt lat="48.51836" lon="-2.71845">
        <ele>10</ele>
        <time>2013-11-22T09:07:29Z</time>
      </trkpt>
      <trkpt lat="48.51836" lon="-2.71847">
        <ele>10</ele>
        <time>2013-11-22T09:07:30Z</time>
      </trkpt>
      <trkpt lat="48.51836" lon="-2.71849">
        <ele>10</ele>
        <time>2013-11-22T09:07:31Z</time>
      </trkpt>
      <trkpt lat="48.51835" lon="-2.71851">
        <ele>10</ele>
        <time>2013-11-22T09:07:32Z</time>
      </trkpt>
      <trkpt lat="48.51834" lon="-2.71853">
        <ele>10</ele>
        <time>2013-11-22T09:07:33Z</time>
      </trkpt>
      <trkpt lat="48.51833" lon="-2.71855">
        <ele>10</ele>
        <time>2013-11-22T09:07:34Z</time>
      </trkpt>
      <trkpt lat="48.51833" lon="-2.71857">
        <ele>10</ele>
        <time>2013-11-22T09:07:35Z</time>
      </trkpt>
      <trkpt lat="48.51832" lon="-2.71859">
        <ele>10</ele>
        <time>2013-11-22T09:07:36Z</time>
      </trkpt>
      <trkpt lat="48.51831" lon="-2.71861">
        <ele>10</ele>
        <time>2013-11-22T09:07:37Z</time>
      </trkpt>
      <trkpt lat="48.51831" lon="-2.71863">
        <ele>10</ele>
        <time>2013-11-22T09:07:38Z</time>
      </trkpt>
      <trkpt lat="48.51831" lon="-2.71865">
        <ele>10</ele>
        <time>2013-11-22T09:07:39Z</time>
      </trkpt>
      <trkpt lat="48.5183" lon="-2.71868">
        <ele>10</ele>
        <time>2013-11-22T09:07:40Z</time>
      </trkpt>
      <trkpt lat="48.5183" lon="-2.7187">
        <ele>10</ele>
        <time>2013-11-22T09:07:41Z</time>
      </trkpt>
      <trkpt lat="48.51829" lon="-2.71872">
        <ele>10</ele>
        <time>2013-11-22T09:07:42Z</time>
      </trkpt>
      <trkpt lat="48.51828" lon="-2.71874">
        <ele>10</ele>
        <time>2013-11-22T09:07:43Z</time>
      </trkpt>
      <trkpt lat="48.51828" lon="-2.71876">
        <ele>10</ele>
        <time>2013-11-22T09:07:44Z</time>
      </trkpt>
      <trkpt lat="48.51826" lon="-2.7188">
        <ele>10</ele>
        <time>2013-11-22T09:07:46Z</time>
      </trkpt>
      <trkpt lat="48.51825" lon="-2.71882">
        <ele>10</ele>
        <time>2013-11-22T09:07:47Z</time>
      </trkpt>
      <trkpt lat="48.51825" lon="-2.71884">
        <ele>10</ele>
        <time>2013-11-22T09:07:48Z</time>
      </trkpt>
      <trkpt lat="48.51824" lon="-2.71886">
        <ele>10</ele>
        <time>2013-11-22T09:07:49Z</time>
      </trkpt>
      <trkpt lat="48.51823" lon="-2.71888">
        <ele>10</ele>
        <time>2013-11-22T09:07:50Z</time>
      </trkpt>
      <trkpt lat="48.51823" lon="-2.7189">
        <ele>10</ele>
        <time>2013-11-22T09:07:51Z</time>
      </trkpt>
      <trkpt lat="48.51822" lon="-2.71892">
        <ele>10</ele>
        <time>2013-11-22T09:07:52Z</time>
      </trkpt>
      <trkpt lat="48.5182" lon="-2.71895">
        <ele>10</ele>
        <time>2013-11-22T09:07:54Z</time>
      </trkpt>
      <trkpt lat="48.5182" lon="-2.71897">
        <ele>10</ele>
        <time>2013-11-22T09:07:55Z</time>
      </trkpt>
      <trkpt lat="48.51819" lon="-2.71898">
        <ele>10</ele>
        <time>2013-11-22T09:07:56Z</time>
      </trkpt>
      <trkpt lat="48.51818" lon="-2.71902">
        <ele>10</ele>
        <time>2013-11-22T09:07:58Z</time>
      </trkpt>
      <trkpt lat="48.51817" lon="-2.71904">
        <ele>10</ele>
        <time>2013-11-22T09:07:59Z</time>
      </trkpt>
      <trkpt lat="48.51817" lon="-2.71906">
        <ele>10</ele>
        <time>2013-11-22T09:08:00Z</time>
      </trkpt>
      <trkpt lat="48.51815" lon="-2.71907">
        <ele>10</ele>
        <time>2013-11-22T09:08:01Z</time>
      </trkpt>
      <trkpt lat="48.51814" lon="-2.71908">
        <ele>10</ele>
        <time>2013-11-22T09:08:02Z</time>
      </trkpt>
      <trkpt lat="48.51812" lon="-2.71907">
        <ele>10</ele>
        <time>2013-11-22T09:08:03Z</time>
      </trkpt>
      <trkpt lat="48.51811" lon="-2.71906">
        <ele>10</ele>
        <time>2013-11-22T09:08:04Z</time>
      </trkpt>
      <trkpt lat="48.5181" lon="-2.71906">
        <ele>10</ele>
        <time>2013-11-22T09:08:05Z</time>
      </trkpt>
      <trkpt lat="48.51808" lon="-2.71906">
        <ele>10</ele>
        <time>2013-11-22T09:08:06Z</time>
      </trkpt>
      <trkpt lat="48.51807" lon="-2.71905">
        <ele>10</ele>
        <time>2013-11-22T09:08:07Z</time>
      </trkpt>
      <trkpt lat="48.51805" lon="-2.71904">
        <ele>10</ele>
        <time>2013-11-22T09:08:08Z</time>
      </trkpt>
      <trkpt lat="48.51803" lon="-2.71903">
        <ele>10</ele>
        <time>2013-11-22T09:08:09Z</time>
      </trkpt>
      <trkpt lat="48.51802" lon="-2.71903">
        <ele>10</ele>
        <time>2013-11-22T09:08:10Z</time>
      </trkpt>
      <trkpt lat="48.51801" lon="-2.71904">
        <ele>10</ele>
        <time>2013-11-22T09:08:11Z</time>
      </trkpt>
      <trkpt lat="48.51799" lon="-2.71904">
        <ele>10</ele>
        <time>2013-11-22T09:08:12Z</time>
      </trkpt>
      <trkpt lat="48.51798" lon="-2.71905">
        <ele>10</ele>
        <time>2013-11-22T09:08:13Z</time>
      </trkpt>
      <trkpt lat="48.51797" lon="-2.71905">
        <ele>10</ele>
        <time>2013-11-22T09:08:14Z</time>
      </trkpt>
      <trkpt lat="48.51795" lon="-2.71906">
        <ele>10</ele>
        <time>2013-11-22T09:08:15Z</time>
      </trkpt>
      <trkpt lat="48.51793" lon="-2.71907">
        <ele>10</ele>
        <time>2013-11-22T09:08:16Z</time>
      </trkpt>
      <trkpt lat="48.51792" lon="-2.71908">
        <ele>10</ele>
        <time>2013-11-22T09:08:17Z</time>
      </trkpt>
      <trkpt lat="48.5179" lon="-2.71909">
        <ele>10</ele>
        <time>2013-11-22T09:08:19Z</time>
      </trkpt>
      <trkpt lat="48.51789" lon="-2.7191">
        <ele>10</ele>
        <time>2013-11-22T09:08:20Z</time>
      </trkpt>
      <trkpt lat="48.51788" lon="-2.7191">
        <ele>10</ele>
        <time>2013-11-22T09:08:21Z</time>
      </trkpt>
      <trkpt lat="48.51786" lon="-2.7191">
        <ele>10</ele>
        <time>2013-11-22T09:08:22Z</time>
      </trkpt>
      <trkpt lat="48.51785" lon="-2.71911">
        <ele>10</ele>
        <time>2013-11-22T09:08:23Z</time>
      </trkpt>
      <trkpt lat="48.51784" lon="-2.71911">
        <ele>10</ele>
        <time>2013-11-22T09:08:24Z</time>
      </trkpt>
      <trkpt lat="48.51783" lon="-2.71911">
        <ele>10</ele>
        <time>2013-11-22T09:08:25Z</time>
      </trkpt>
      <trkpt lat="48.51781" lon="-2.71912">
        <ele>10</ele>
        <time>2013-11-22T09:08:26Z</time>
      </trkpt>
      <trkpt lat="48.5178" lon="-2.71913">
        <ele>10</ele>
        <time>2013-11-22T09:08:27Z</time>
      </trkpt>
      <trkpt lat="48.51779" lon="-2.71913">
        <ele>10</ele>
        <time>2013-11-22T09:08:28Z</time>
      </trkpt>
      <trkpt lat="48.51778" lon="-2.71914">
        <ele>10</ele>
        <time>2013-11-22T09:08:29Z</time>
      </trkpt>
      <trkpt lat="48.51776" lon="-2.71914">
        <ele>10</ele>
        <time>2013-11-22T09:08:30Z</time>
      </trkpt>
      <trkpt lat="48.51775" lon="-2.71915">
        <ele>10</ele>
        <time>2013-11-22T09:08:31Z</time>
      </trkpt>
      <trkpt lat="48.51774" lon="-2.71916">
        <ele>10</ele>
        <time>2013-11-22T09:08:32Z</time>
      </trkpt>
      <trkpt lat="48.51772" lon="-2.71916">
        <ele>10</ele>
        <time>2013-11-22T09:08:33Z</time>
      </trkpt>
      <trkpt lat="48.5177" lon="-2.71918">
        <ele>10</ele>
        <time>2013-11-22T09:08:34Z</time>
      </trkpt>
      <trkpt lat="48.51769" lon="-2.71918">
        <ele>10</ele>
        <time>2013-11-22T09:08:35Z</time>
      </trkpt>
      <trkpt lat="48.51768" lon="-2.71919">
        <ele>10</ele>
        <time>2013-11-22T09:08:36Z</time>
      </trkpt>
      <trkpt lat="48.51766" lon="-2.7192">
        <ele>10</ele>
        <time>2013-11-22T09:08:37Z</time>
      </trkpt>
      <trkpt lat="48.51765" lon="-2.7192">
        <ele>10</ele>
        <time>2013-11-22T09:08:38Z</time>
      </trkpt>
      <trkpt lat="48.51764" lon="-2.7192">
        <ele>10</ele>
        <time>2013-11-22T09:08:39Z</time>
      </trkpt>
      <trkpt lat="48.51762" lon="-2.71921">
        <ele>10</ele>
        <time>2013-11-22T09:08:40Z</time>
      </trkpt>
      <trkpt lat="48.51761" lon="-2.71921">
        <ele>10</ele>
        <time>2013-11-22T09:08:41Z</time>
      </trkpt>
      <trkpt lat="48.5176" lon="-2.71922">
        <ele>10</ele>
        <time>2013-11-22T09:08:42Z</time>
      </trkpt>
      <trkpt lat="48.51758" lon="-2.71923">
        <ele>10</ele>
        <time>2013-11-22T09:08:43Z</time>
      </trkpt>
      <trkpt lat="48.51757" lon="-2.71924">
        <ele>10</ele>
        <time>2013-11-22T09:08:44Z</time>
      </trkpt>
      <trkpt lat="48.51756" lon="-2.71924">
        <ele>10</ele>
        <time>2013-11-22T09:08:45Z</time>
      </trkpt>
      <trkpt lat="48.51754" lon="-2.71925">
        <ele>10</ele>
        <time>2013-11-22T09:08:46Z</time>
      </trkpt>
      <trkpt lat="48.51753" lon="-2.71926">
        <ele>10</ele>
        <time>2013-11-22T09:08:47Z</time>
      </trkpt>
      <trkpt lat="48.51751" lon="-2.71926">
        <ele>10</ele>
        <time>2013-11-22T09:08:48Z</time>
      </trkpt>
      <trkpt lat="48.5175" lon="-2.71927">
        <ele>10</ele>
        <time>2013-11-22T09:08:49Z</time>
      </trkpt>
      <trkpt lat="48.51749" lon="-2.71928">
        <ele>10</ele>
        <time>2013-11-22T09:08:50Z</time>
      </trkpt>
      <trkpt lat="48.51747" lon="-2.71929">
        <ele>10</ele>
        <time>2013-11-22T09:08:51Z</time>
      </trkpt>
      <trkpt lat="48.51746" lon="-2.71929">
        <ele>10</ele>
        <time>2013-11-22T09:08:52Z</time>
      </trkpt>
      <trkpt lat="48.51744" lon="-2.7193">
        <ele>10</ele>
        <time>2013-11-22T09:08:53Z</time>
      </trkpt>
      <trkpt lat="48.51743" lon="-2.7193">
        <ele>10</ele>
        <time>2013-11-22T09:08:54Z</time>
      </trkpt>
      <trkpt lat="48.51742" lon="-2.71931">
        <ele>10</ele>
        <time>2013-11-22T09:08:55Z</time>
      </trkpt>
      <trkpt lat="48.5174" lon="-2.71931">
        <ele>10</ele>
        <time>2013-11-22T09:08:56Z</time>
      </trkpt>
      <trkpt lat="48.51739" lon="-2.71931">
        <ele>10</ele>
        <time>2013-11-22T09:08:57Z</time>
      </trkpt>
      <trkpt lat="48.51738" lon="-2.71932">
        <ele>10</ele>
        <time>2013-11-22T09:08:58Z</time>
      </trkpt>
      <trkpt lat="48.51736" lon="-2.71932">
        <ele>10</ele>
        <time>2013-11-22T09:08:59Z</time>
      </trkpt>
      <trkpt lat="48.51735" lon="-2.71932">
        <ele>10</ele>
        <time>2013-11-22T09:09:00Z</time>
      </trkpt>
      <trkpt lat="48.51733" lon="-2.71933">
        <ele>10</ele>
        <time>2013-11-22T09:09:01Z</time>
      </trkpt>
      <trkpt lat="48.51732" lon="-2.71933">
        <ele>10</ele>
        <time>2013-11-22T09:09:02Z</time>
      </trkpt>
      <trkpt lat="48.51731" lon="-2.71933">
        <ele>11</ele>
        <time>2013-11-22T09:09:03Z</time>
      </trkpt>
      <trkpt lat="48.5173" lon="-2.71933">
        <ele>11</ele>
        <time>2013-11-22T09:09:04Z</time>
      </trkpt>
      <trkpt lat="48.51728" lon="-2.71934">
        <ele>11</ele>
        <time>2013-11-22T09:09:05Z</time>
      </trkpt>
      <trkpt lat="48.51726" lon="-2.71934">
        <ele>11</ele>
        <time>2013-11-22T09:09:06Z</time>
      </trkpt>
      <trkpt lat="48.51725" lon="-2.71934">
        <ele>11</ele>
        <time>2013-11-22T09:09:07Z</time>
      </trkpt>
      <trkpt lat="48.51723" lon="-2.71935">
        <ele>11</ele>
        <time>2013-11-22T09:09:08Z</time>
      </trkpt>
      <trkpt lat="48.51722" lon="-2.71935">
        <ele>11</ele>
        <time>2013-11-22T09:09:09Z</time>
      </trkpt>
      <trkpt lat="48.5172" lon="-2.71935">
        <ele>11</ele>
        <time>2013-11-22T09:09:10Z</time>
      </trkpt>
      <trkpt lat="48.51719" lon="-2.71936">
        <ele>11</ele>
        <time>2013-11-22T09:09:11Z</time>
      </trkpt>
      <trkpt lat="48.51717" lon="-2.71936">
        <ele>11</ele>
        <time>2013-11-22T09:09:12Z</time>
      </trkpt>
      <trkpt lat="48.51714" lon="-2.71936">
        <ele>11</ele>
        <time>2013-11-22T09:09:14Z</time>
      </trkpt>
      <trkpt lat="48.51713" lon="-2.71935">
        <ele>11</ele>
        <time>2013-11-22T09:09:15Z</time>
      </trkpt>
      <trkpt lat="48.51712" lon="-2.71935">
        <ele>11</ele>
        <time>2013-11-22T09:09:16Z</time>
      </trkpt>
      <trkpt lat="48.51711" lon="-2.71935">
        <ele>11</ele>
        <time>2013-11-22T09:09:17Z</time>
      </trkpt>
      <trkpt lat="48.51709" lon="-2.71935">
        <ele>11</ele>
        <time>2013-11-22T09:09:18Z</time>
      </trkpt>
      <trkpt lat="48.51707" lon="-2.71934">
        <ele>11</ele>
        <time>2013-11-22T09:09:20Z</time>
      </trkpt>
      <trkpt lat="48.51704" lon="-2.71934">
        <ele>11</ele>
        <time>2013-11-22T09:09:22Z</time>
      </trkpt>
      <trkpt lat="48.51703" lon="-2.71933">
        <ele>11</ele>
        <time>2013-11-22T09:09:24Z</time>
      </trkpt>
      <trkpt lat="48.517" lon="-2.71934">
        <ele>11</ele>
        <time>2013-11-22T09:09:26Z</time>
      </trkpt>
      <trkpt lat="48.51699" lon="-2.71934">
        <ele>11</ele>
        <time>2013-11-22T09:09:27Z</time>
      </trkpt>
      <trkpt lat="48.51696" lon="-2.71934">
        <ele>11</ele>
        <time>2013-11-22T09:09:29Z</time>
      </trkpt>
      <trkpt lat="48.51693" lon="-2.71935">
        <ele>11</ele>
        <time>2013-11-22T09:09:31Z</time>
      </trkpt>
      <trkpt lat="48.51692" lon="-2.71935">
        <ele>11</ele>
        <time>2013-11-22T09:09:32Z</time>
      </trkpt>
      <trkpt lat="48.5169" lon="-2.71936">
        <ele>11</ele>
        <time>2013-11-22T09:09:33Z</time>
      </trkpt>
      <trkpt lat="48.51688" lon="-2.71937">
        <ele>11</ele>
        <time>2013-11-22T09:09:34Z</time>
      </trkpt>
      <trkpt lat="48.51686" lon="-2.71938">
        <ele>11</ele>
        <time>2013-11-22T09:09:35Z</time>
      </trkpt>
      <trkpt lat="48.51685" lon="-2.71939">
        <ele>11</ele>
        <time>2013-11-22T09:09:36Z</time>
      </trkpt>
      <trkpt lat="48.51683" lon="-2.7194">
        <ele>11</ele>
        <time>2013-11-22T09:09:37Z</time>
      </trkpt>
      <trkpt lat="48.51682" lon="-2.71941">
        <ele>11</ele>
        <time>2013-11-22T09:09:38Z</time>
      </trkpt>
      <trkpt lat="48.5168" lon="-2.71941">
        <ele>11</ele>
        <time>2013-11-22T09:09:39Z</time>
      </trkpt>
      <trkpt lat="48.51678" lon="-2.71941">
        <ele>11</ele>
        <time>2013-11-22T09:09:40Z</time>
      </trkpt>
      <trkpt lat="48.51677" lon="-2.71942">
        <ele>11</ele>
        <time>2013-11-22T09:09:41Z</time>
      </trkpt>
      <trkpt lat="48.51675" lon="-2.71941">
        <ele>11</ele>
        <time>2013-11-22T09:09:42Z</time>
      </trkpt>
      <trkpt lat="48.51674" lon="-2.71941">
        <ele>11</ele>
        <time>2013-11-22T09:09:43Z</time>
      </trkpt>
      <trkpt lat="48.51672" lon="-2.7194">
        <ele>11</ele>
        <time>2013-11-22T09:09:44Z</time>
      </trkpt>
      <trkpt lat="48.51671" lon="-2.71939">
        <ele>11</ele>
        <time>2013-11-22T09:09:45Z</time>
      </trkpt>
      <trkpt lat="48.5167" lon="-2.71938">
        <ele>11</ele>
        <time>2013-11-22T09:09:46Z</time>
      </trkpt>
      <trkpt lat="48.51668" lon="-2.71936">
        <ele>11</ele>
        <time>2013-11-22T09:09:48Z</time>
      </trkpt>
      <trkpt lat="48.51666" lon="-2.71936">
        <ele>11</ele>
        <time>2013-11-22T09:09:49Z</time>
      </trkpt>
      <trkpt lat="48.51665" lon="-2.71935">
        <ele>11</ele>
        <time>2013-11-22T09:09:50Z</time>
      </trkpt>
      <trkpt lat="48.51663" lon="-2.71935">
        <ele>11</ele>
        <time>2013-11-22T09:09:51Z</time>
      </trkpt>
      <trkpt lat="48.51661" lon="-2.71935">
        <ele>11</ele>
        <time>2013-11-22T09:09:52Z</time>
      </trkpt>
      <trkpt lat="48.51659" lon="-2.71936">
        <ele>11</ele>
        <time>2013-11-22T09:09:53Z</time>
      </trkpt>
      <trkpt lat="48.51657" lon="-2.71937">
        <ele>11</ele>
        <time>2013-11-22T09:09:54Z</time>
      </trkpt>
      <trkpt lat="48.51656" lon="-2.71937">
        <ele>11</ele>
        <time>2013-11-22T09:09:55Z</time>
      </trkpt>
      <trkpt lat="48.51655" lon="-2.71938">
        <ele>11</ele>
        <time>2013-11-22T09:09:56Z</time>
      </trkpt>
      <trkpt lat="48.51654" lon="-2.71939">
        <ele>11</ele>
        <time>2013-11-22T09:09:57Z</time>
      </trkpt>
      <trkpt lat="48.51652" lon="-2.7194">
        <ele>11</ele>
        <time>2013-11-22T09:09:59Z</time>
      </trkpt>
      <trkpt lat="48.51651" lon="-2.71942">
        <ele>11</ele>
        <time>2013-11-22T09:10:02Z</time>
      </trkpt>
      <trkpt lat="48.51649" lon="-2.71944">
        <ele>11</ele>
        <time>2013-11-22T09:10:04Z</time>
      </trkpt>
      <trkpt lat="48.51648" lon="-2.71945">
        <ele>11</ele>
        <time>2013-11-22T09:10:06Z</time>
      </trkpt>
      <trkpt lat="48.51647" lon="-2.71947">
        <ele>12</ele>
        <time>2013-11-22T09:10:07Z</time>
      </trkpt>
      <trkpt lat="48.51646" lon="-2.71949">
        <ele>12</ele>
        <time>2013-11-22T09:10:08Z</time>
      </trkpt>
      <trkpt lat="48.51646" lon="-2.71951">
        <ele>12</ele>
        <time>2013-11-22T09:10:09Z</time>
      </trkpt>
      <trkpt lat="48.51645" lon="-2.71953">
        <ele>12</ele>
        <time>2013-11-22T09:10:10Z</time>
      </trkpt>
      <trkpt lat="48.51644" lon="-2.71955">
        <ele>12</ele>
        <time>2013-11-22T09:10:11Z</time>
      </trkpt>
      <trkpt lat="48.51643" lon="-2.71957">
        <ele>13</ele>
        <time>2013-11-22T09:10:12Z</time>
      </trkpt>
      <trkpt lat="48.51643" lon="-2.71958">
        <ele>13</ele>
        <time>2013-11-22T09:10:13Z</time>
      </trkpt>
      <trkpt lat="48.51642" lon="-2.7196">
        <ele>13</ele>
        <time>2013-11-22T09:10:14Z</time>
      </trkpt>
      <trkpt lat="48.51642" lon="-2.71963">
        <ele>13</ele>
        <time>2013-11-22T09:10:15Z</time>
      </trkpt>
      <trkpt lat="48.51641" lon="-2.71965">
        <ele>13</ele>
        <time>2013-11-22T09:10:16Z</time>
      </trkpt>
      <trkpt lat="48.51641" lon="-2.71969">
        <ele>13</ele>
        <time>2013-11-22T09:10:18Z</time>
      </trkpt>
      <trkpt lat="48.5164" lon="-2.71971">
        <ele>13</ele>
        <time>2013-11-22T09:10:19Z</time>
      </trkpt>
      <trkpt lat="48.5164" lon="-2.71973">
        <ele>13</ele>
        <time>2013-11-22T09:10:20Z</time>
      </trkpt>
      <trkpt lat="48.51639" lon="-2.71975">
        <ele>14</ele>
        <time>2013-11-22T09:10:21Z</time>
      </trkpt>
      <trkpt lat="48.51639" lon="-2.71979">
        <ele>14</ele>
        <time>2013-11-22T09:10:23Z</time>
      </trkpt>
      <trkpt lat="48.51638" lon="-2.71983">
        <ele>15</ele>
        <time>2013-11-22T09:10:25Z</time>
      </trkpt>
      <trkpt lat="48.51638" lon="-2.71986">
        <ele>15</ele>
        <time>2013-11-22T09:10:26Z</time>
      </trkpt>
      <trkpt lat="48.51638" lon="-2.71988">
        <ele>15</ele>
        <time>2013-11-22T09:10:27Z</time>
      </trkpt>
      <trkpt lat="48.51637" lon="-2.71996">
        <ele>15</ele>
        <time>2013-11-22T09:10:31Z</time>
      </trkpt>
      <trkpt lat="48.51637" lon="-2.71998">
        <ele>15</ele>
        <time>2013-11-22T09:10:32Z</time>
      </trkpt>
      <trkpt lat="48.51637" lon="-2.72001">
        <ele>15</ele>
        <time>2013-11-22T09:10:33Z</time>
      </trkpt>
      <trkpt lat="48.51636" lon="-2.72003">
        <ele>15</ele>
        <time>2013-11-22T09:10:34Z</time>
      </trkpt>
      <trkpt lat="48.51635" lon="-2.72005">
        <ele>15</ele>
        <time>2013-11-22T09:10:35Z</time>
      </trkpt>
      <trkpt lat="48.51635" lon="-2.72007">
        <ele>15</ele>
        <time>2013-11-22T09:10:36Z</time>
      </trkpt>
      <trkpt lat="48.51635" lon="-2.72009">
        <ele>15</ele>
        <time>2013-11-22T09:10:37Z</time>
      </trkpt>
      <trkpt lat="48.51634" lon="-2.72011">
        <ele>15</ele>
        <time>2013-11-22T09:10:39Z</time>
      </trkpt>
      <trkpt lat="48.51633" lon="-2.72014">
        <ele>15</ele>
        <time>2013-11-22T09:10:40Z</time>
      </trkpt>
      <trkpt lat="48.51633" lon="-2.72016">
        <ele>15</ele>
        <time>2013-11-22T09:10:41Z</time>
      </trkpt>
      <trkpt lat="48.51632" lon="-2.72019">
        <ele>15</ele>
        <time>2013-11-22T09:10:42Z</time>
      </trkpt>
      <trkpt lat="48.51631" lon="-2.72022">
        <ele>15</ele>
        <time>2013-11-22T09:10:43Z</time>
      </trkpt>
      <trkpt lat="48.5163" lon="-2.72024">
        <ele>15</ele>
        <time>2013-11-22T09:10:44Z</time>
      </trkpt>
      <trkpt lat="48.5163" lon="-2.72025">
        <ele>15</ele>
        <time>2013-11-22T09:10:45Z</time>
      </trkpt>
      <trkpt lat="48.51629" lon="-2.72027">
        <ele>15</ele>
        <time>2013-11-22T09:10:46Z</time>
      </trkpt>
      <trkpt lat="48.51629" lon="-2.72029">
        <ele>15</ele>
        <time>2013-11-22T09:10:47Z</time>
      </trkpt>
      <trkpt lat="48.51628" lon="-2.72031">
        <ele>15</ele>
        <time>2013-11-22T09:10:48Z</time>
      </trkpt>
      <trkpt lat="48.51628" lon="-2.72033">
        <ele>15</ele>
        <time>2013-11-22T09:10:49Z</time>
      </trkpt>
      <trkpt lat="48.51627" lon="-2.72034">
        <ele>15</ele>
        <time>2013-11-22T09:10:50Z</time>
      </trkpt>
      <trkpt lat="48.51627" lon="-2.72036">
        <ele>16</ele>
        <time>2013-11-22T09:10:51Z</time>
      </trkpt>
      <trkpt lat="48.51626" lon="-2.72038">
        <ele>16</ele>
        <time>2013-11-22T09:10:52Z</time>
      </trkpt>
      <trkpt lat="48.51626" lon="-2.7204">
        <ele>16</ele>
        <time>2013-11-22T09:10:53Z</time>
      </trkpt>
      <trkpt lat="48.51625" lon="-2.72042">
        <ele>16</ele>
        <time>2013-11-22T09:10:54Z</time>
      </trkpt>
      <trkpt lat="48.51625" lon="-2.72044">
        <ele>16</ele>
        <time>2013-11-22T09:10:55Z</time>
      </trkpt>
      <trkpt lat="48.51624" lon="-2.72045">
        <ele>16</ele>
        <time>2013-11-22T09:10:56Z</time>
      </trkpt>
      <trkpt lat="48.51623" lon="-2.72047">
        <ele>16</ele>
        <time>2013-11-22T09:10:57Z</time>
      </trkpt>
      <trkpt lat="48.51623" lon="-2.72049">
        <ele>16</ele>
        <time>2013-11-22T09:10:58Z</time>
      </trkpt>
      <trkpt lat="48.51622" lon="-2.72053">
        <ele>16</ele>
        <time>2013-11-22T09:11:00Z</time>
      </trkpt>
      <trkpt lat="48.51622" lon="-2.72055">
        <ele>16</ele>
        <time>2013-11-22T09:11:01Z</time>
      </trkpt>
      <trkpt lat="48.51622" lon="-2.72058">
        <ele>16</ele>
        <time>2013-11-22T09:11:02Z</time>
      </trkpt>
      <trkpt lat="48.51621" lon="-2.72062">
        <ele>16</ele>
        <time>2013-11-22T09:11:04Z</time>
      </trkpt>
      <trkpt lat="48.51621" lon="-2.72064">
        <ele>17</ele>
        <time>2013-11-22T09:11:05Z</time>
      </trkpt>
      <trkpt lat="48.5162" lon="-2.72067">
        <ele>17</ele>
        <time>2013-11-22T09:11:06Z</time>
      </trkpt>
      <trkpt lat="48.5162" lon="-2.72069">
        <ele>17</ele>
        <time>2013-11-22T09:11:07Z</time>
      </trkpt>
      <trkpt lat="48.51619" lon="-2.72071">
        <ele>17</ele>
        <time>2013-11-22T09:11:08Z</time>
      </trkpt>
      <trkpt lat="48.51619" lon="-2.72074">
        <ele>17</ele>
        <time>2013-11-22T09:11:09Z</time>
      </trkpt>
      <trkpt lat="48.51618" lon="-2.72078">
        <ele>17</ele>
        <time>2013-11-22T09:11:11Z</time>
      </trkpt>
      <trkpt lat="48.51618" lon="-2.7208">
        <ele>17</ele>
        <time>2013-11-22T09:11:12Z</time>
      </trkpt>
      <trkpt lat="48.51617" lon="-2.72083">
        <ele>17</ele>
        <time>2013-11-22T09:11:13Z</time>
      </trkpt>
      <trkpt lat="48.51617" lon="-2.72087">
        <ele>17</ele>
        <time>2013-11-22T09:11:15Z</time>
      </trkpt>
      <trkpt lat="48.51616" lon="-2.72091">
        <ele>18</ele>
        <time>2013-11-22T09:11:17Z</time>
      </trkpt>
      <trkpt lat="48.51616" lon="-2.72093">
        <ele>18</ele>
        <time>2013-11-22T09:11:18Z</time>
      </trkpt>
      <trkpt lat="48.51616" lon="-2.72096">
        <ele>18</ele>
        <time>2013-11-22T09:11:19Z</time>
      </trkpt>
      <trkpt lat="48.51616" lon="-2.72098">
        <ele>18</ele>
        <time>2013-11-22T09:11:20Z</time>
      </trkpt>
      <trkpt lat="48.51616" lon="-2.721">
        <ele>18</ele>
        <time>2013-11-22T09:11:21Z</time>
      </trkpt>
      <trkpt lat="48.51615" lon="-2.72102">
        <ele>18</ele>
        <time>2013-11-22T09:11:22Z</time>
      </trkpt>
      <trkpt lat="48.51614" lon="-2.72104">
        <ele>18</ele>
        <time>2013-11-22T09:11:23Z</time>
      </trkpt>
      <trkpt lat="48.51614" lon="-2.72106">
        <ele>18</ele>
        <time>2013-11-22T09:11:24Z</time>
      </trkpt>
      <trkpt lat="48.51613" lon="-2.72108">
        <ele>18</ele>
        <time>2013-11-22T09:11:25Z</time>
      </trkpt>
      <trkpt lat="48.51613" lon="-2.7211">
        <ele>18</ele>
        <time>2013-11-22T09:11:26Z</time>
      </trkpt>
      <trkpt lat="48.51612" lon="-2.72122">
        <ele>18</ele>
        <time>2013-11-22T09:11:31Z</time>
      </trkpt>
      <trkpt lat="48.51611" lon="-2.72124">
        <ele>18</ele>
        <time>2013-11-22T09:11:32Z</time>
      </trkpt>
      <trkpt lat="48.51611" lon="-2.72129">
        <ele>18</ele>
        <time>2013-11-22T09:11:34Z</time>
      </trkpt>
      <trkpt lat="48.51611" lon="-2.72132">
        <ele>18</ele>
        <time>2013-11-22T09:11:36Z</time>
      </trkpt>
      <trkpt lat="48.51611" lon="-2.72137">
        <ele>18</ele>
        <time>2013-11-22T09:11:38Z</time>
      </trkpt>
      <trkpt lat="48.5161" lon="-2.72139">
        <ele>18</ele>
        <time>2013-11-22T09:11:39Z</time>
      </trkpt>
      <trkpt lat="48.51609" lon="-2.72141">
        <ele>18</ele>
        <time>2013-11-22T09:11:40Z</time>
      </trkpt>
      <trkpt lat="48.51609" lon="-2.72143">
        <ele>18</ele>
        <time>2013-11-22T09:11:41Z</time>
      </trkpt>
      <trkpt lat="48.51609" lon="-2.72146">
        <ele>18</ele>
        <time>2013-11-22T09:11:42Z</time>
      </trkpt>
      <trkpt lat="48.51608" lon="-2.72147">
        <ele>18</ele>
        <time>2013-11-22T09:11:43Z</time>
      </trkpt>
      <trkpt lat="48.51607" lon="-2.7215">
        <ele>18</ele>
        <time>2013-11-22T09:11:44Z</time>
      </trkpt>
      <trkpt lat="48.51607" lon="-2.72152">
        <ele>18</ele>
        <time>2013-11-22T09:11:45Z</time>
      </trkpt>
      <trkpt lat="48.51606" lon="-2.72155">
        <ele>18</ele>
        <time>2013-11-22T09:11:46Z</time>
      </trkpt>
      <trkpt lat="48.51606" lon="-2.72157">
        <ele>18</ele>
        <time>2013-11-22T09:11:47Z</time>
      </trkpt>
      <trkpt lat="48.51608" lon="-2.72159">
        <ele>18</ele>
        <time>2013-11-22T09:11:48Z</time>
      </trkpt>
      <trkpt lat="48.51607" lon="-2.72163">
        <ele>18</ele>
        <time>2013-11-22T09:11:50Z</time>
      </trkpt>
      <trkpt lat="48.51607" lon="-2.72165">
        <ele>18</ele>
        <time>2013-11-22T09:11:51Z</time>
      </trkpt>
      <trkpt lat="48.51606" lon="-2.72167">
        <ele>19</ele>
        <time>2013-11-22T09:11:52Z</time>
      </trkpt>
      <trkpt lat="48.51607" lon="-2.7217">
        <ele>19</ele>
        <time>2013-11-22T09:11:53Z</time>
      </trkpt>
      <trkpt lat="48.51607" lon="-2.72173">
        <ele>19</ele>
        <time>2013-11-22T09:11:54Z</time>
      </trkpt>
      <trkpt lat="48.51606" lon="-2.72175">
        <ele>19</ele>
        <time>2013-11-22T09:11:55Z</time>
      </trkpt>
      <trkpt lat="48.51608" lon="-2.72177">
        <ele>20</ele>
        <time>2013-11-22T09:11:56Z</time>
      </trkpt>
      <trkpt lat="48.51607" lon="-2.7218">
        <ele>20</ele>
        <time>2013-11-22T09:11:57Z</time>
      </trkpt>
      <trkpt lat="48.51606" lon="-2.72182">
        <ele>20</ele>
        <time>2013-11-22T09:11:58Z</time>
      </trkpt>
      <trkpt lat="48.51606" lon="-2.72193">
        <ele>21</ele>
        <time>2013-11-22T09:12:03Z</time>
      </trkpt>
      <trkpt lat="48.51605" lon="-2.72196">
        <ele>21</ele>
        <time>2013-11-22T09:12:04Z</time>
      </trkpt>
      <trkpt lat="48.51604" lon="-2.72198">
        <ele>21</ele>
        <time>2013-11-22T09:12:05Z</time>
      </trkpt>
      <trkpt lat="48.51604" lon="-2.722">
        <ele>21</ele>
        <time>2013-11-22T09:12:06Z</time>
      </trkpt>
      <trkpt lat="48.51603" lon="-2.72203">
        <ele>21</ele>
        <time>2013-11-22T09:12:07Z</time>
      </trkpt>
      <trkpt lat="48.51603" lon="-2.72212">
        <ele>21</ele>
        <time>2013-11-22T09:12:11Z</time>
      </trkpt>
      <trkpt lat="48.51603" lon="-2.72214">
        <ele>21</ele>
        <time>2013-11-22T09:12:12Z</time>
      </trkpt>
      <trkpt lat="48.51602" lon="-2.72216">
        <ele>21</ele>
        <time>2013-11-22T09:12:13Z</time>
      </trkpt>
      <trkpt lat="48.51602" lon="-2.7222">
        <ele>21</ele>
        <time>2013-11-22T09:12:15Z</time>
      </trkpt>
      <trkpt lat="48.51601" lon="-2.72225">
        <ele>21</ele>
        <time>2013-11-22T09:12:17Z</time>
      </trkpt>
      <trkpt lat="48.51601" lon="-2.72231">
        <ele>21</ele>
        <time>2013-11-22T09:12:20Z</time>
      </trkpt>
      <trkpt lat="48.51601" lon="-2.72233">
        <ele>21</ele>
        <time>2013-11-22T09:12:21Z</time>
      </trkpt>
      <trkpt lat="48.516" lon="-2.7224">
        <ele>21</ele>
        <time>2013-11-22T09:12:24Z</time>
      </trkpt>
      <trkpt lat="48.516" lon="-2.72242">
        <ele>21</ele>
        <time>2013-11-22T09:12:25Z</time>
      </trkpt>
      <trkpt lat="48.516" lon="-2.72248">
        <ele>21</ele>
        <time>2013-11-22T09:12:28Z</time>
      </trkpt>
      <trkpt lat="48.51599" lon="-2.7225">
        <ele>21</ele>
        <time>2013-11-22T09:12:29Z</time>
      </trkpt>
      <trkpt lat="48.516" lon="-2.72263">
        <ele>21</ele>
        <time>2013-11-22T09:12:35Z</time>
      </trkpt>
      <trkpt lat="48.516" lon="-2.72269">
        <ele>21</ele>
        <time>2013-11-22T09:12:38Z</time>
      </trkpt>
      <trkpt lat="48.516" lon="-2.72274">
        <ele>21</ele>
        <time>2013-11-22T09:12:40Z</time>
      </trkpt>
      <trkpt lat="48.516" lon="-2.72293">
        <ele>21</ele>
        <time>2013-11-22T09:12:49Z</time>
      </trkpt>
      <trkpt lat="48.51601" lon="-2.72299">
        <ele>21</ele>
        <time>2013-11-22T09:12:52Z</time>
      </trkpt>
      <trkpt lat="48.51601" lon="-2.72304">
        <ele>21</ele>
        <time>2013-11-22T09:12:55Z</time>
      </trkpt>
      <trkpt lat="48.51602" lon="-2.72306">
        <ele>21</ele>
        <time>2013-11-22T09:12:56Z</time>
      </trkpt>
      <trkpt lat="48.51603" lon="-2.72308">
        <ele>21</ele>
        <time>2013-11-22T09:12:57Z</time>
      </trkpt>
      <trkpt lat="48.51603" lon="-2.7231">
        <ele>21</ele>
        <time>2013-11-22T09:12:58Z</time>
      </trkpt>
      <trkpt lat="48.51604" lon="-2.72314">
        <ele>21</ele>
        <time>2013-11-22T09:13:00Z</time>
      </trkpt>
      <trkpt lat="48.51604" lon="-2.72316">
        <ele>21</ele>
        <time>2013-11-22T09:13:01Z</time>
      </trkpt>
      <trkpt lat="48.51605" lon="-2.72318">
        <ele>21</ele>
        <time>2013-11-22T09:13:02Z</time>
      </trkpt>
      <trkpt lat="48.51605" lon="-2.7232">
        <ele>21</ele>
        <time>2013-11-22T09:13:03Z</time>
      </trkpt>
      <trkpt lat="48.51606" lon="-2.72322">
        <ele>21</ele>
        <time>2013-11-22T09:13:04Z</time>
      </trkpt>
      <trkpt lat="48.51606" lon="-2.72324">
        <ele>21</ele>
        <time>2013-11-22T09:13:05Z</time>
      </trkpt>
      <trkpt lat="48.51607" lon="-2.72326">
        <ele>21</ele>
        <time>2013-11-22T09:13:06Z</time>
      </trkpt>
      <trkpt lat="48.51607" lon="-2.72328">
        <ele>21</ele>
        <time>2013-11-22T09:13:07Z</time>
      </trkpt>
      <trkpt lat="48.51608" lon="-2.7233">
        <ele>21</ele>
        <time>2013-11-22T09:13:08Z</time>
      </trkpt>
      <trkpt lat="48.51609" lon="-2.72332">
        <ele>21</ele>
        <time>2013-11-22T09:13:09Z</time>
      </trkpt>
      <trkpt lat="48.5161" lon="-2.72334">
        <ele>21</ele>
        <time>2013-11-22T09:13:10Z</time>
      </trkpt>
      <trkpt lat="48.5161" lon="-2.72336">
        <ele>21</ele>
        <time>2013-11-22T09:13:11Z</time>
      </trkpt>
      <trkpt lat="48.51611" lon="-2.72338">
        <ele>21</ele>
        <time>2013-11-22T09:13:12Z</time>
      </trkpt>
      <trkpt lat="48.51611" lon="-2.72341">
        <ele>21</ele>
        <time>2013-11-22T09:13:13Z</time>
      </trkpt>
      <trkpt lat="48.51612" lon="-2.72345">
        <ele>21</ele>
        <time>2013-11-22T09:13:15Z</time>
      </trkpt>
      <trkpt lat="48.51612" lon="-2.72347">
        <ele>21</ele>
        <time>2013-11-22T09:13:16Z</time>
      </trkpt>
      <trkpt lat="48.51613" lon="-2.72349">
        <ele>21</ele>
        <time>2013-11-22T09:13:17Z</time>
      </trkpt>
      <trkpt lat="48.51613" lon="-2.72354">
        <ele>21</ele>
        <time>2013-11-22T09:13:19Z</time>
      </trkpt>
      <trkpt lat="48.51614" lon="-2.72356">
        <ele>21</ele>
        <time>2013-11-22T09:13:20Z</time>
      </trkpt>
      <trkpt lat="48.51614" lon="-2.7236">
        <ele>21</ele>
        <time>2013-11-22T09:13:22Z</time>
      </trkpt>
      <trkpt lat="48.51614" lon="-2.72362">
        <ele>21</ele>
        <time>2013-11-22T09:13:23Z</time>
      </trkpt>
      <trkpt lat="48.51615" lon="-2.72369">
        <ele>21</ele>
        <time>2013-11-22T09:13:26Z</time>
      </trkpt>
      <trkpt lat="48.51615" lon="-2.72373">
        <ele>21</ele>
        <time>2013-11-22T09:13:28Z</time>
      </trkpt>
      <trkpt lat="48.51616" lon="-2.7238">
        <ele>21</ele>
        <time>2013-11-22T09:13:31Z</time>
      </trkpt>
      <trkpt lat="48.51616" lon="-2.72382">
        <ele>21</ele>
        <time>2013-11-22T09:13:32Z</time>
      </trkpt>
      <trkpt lat="48.51616" lon="-2.72393">
        <ele>21</ele>
        <time>2013-11-22T09:13:37Z</time>
      </trkpt>
      <trkpt lat="48.51617" lon="-2.72395">
        <ele>21</ele>
        <time>2013-11-22T09:13:38Z</time>
      </trkpt>
      <trkpt lat="48.51617" lon="-2.72406">
        <ele>21</ele>
        <time>2013-11-22T09:13:43Z</time>
      </trkpt>
      <trkpt lat="48.51617" lon="-2.72412">
        <ele>21</ele>
        <time>2013-11-22T09:13:46Z</time>
      </trkpt>
      <trkpt lat="48.51618" lon="-2.72414">
        <ele>21</ele>
        <time>2013-11-22T09:13:47Z</time>
      </trkpt>
      <trkpt lat="48.51618" lon="-2.72417">
        <ele>21</ele>
        <time>2013-11-22T09:13:48Z</time>
      </trkpt>
      <trkpt lat="48.51619" lon="-2.72419">
        <ele>21</ele>
        <time>2013-11-22T09:13:49Z</time>
      </trkpt>
      <trkpt lat="48.51619" lon="-2.72421">
        <ele>21</ele>
        <time>2013-11-22T09:13:50Z</time>
      </trkpt>
      <trkpt lat="48.51619" lon="-2.72423">
        <ele>21</ele>
        <time>2013-11-22T09:13:51Z</time>
      </trkpt>
      <trkpt lat="48.5162" lon="-2.72429">
        <ele>21</ele>
        <time>2013-11-22T09:13:54Z</time>
      </trkpt>
      <trkpt lat="48.5162" lon="-2.72434">
        <ele>22</ele>
        <time>2013-11-22T09:13:56Z</time>
      </trkpt>
      <trkpt lat="48.5162" lon="-2.72436">
        <ele>22</ele>
        <time>2013-11-22T09:13:57Z</time>
      </trkpt>
      <trkpt lat="48.5162" lon="-2.72438">
        <ele>22</ele>
        <time>2013-11-22T09:13:58Z</time>
      </trkpt>
      <trkpt lat="48.51619" lon="-2.72441">
        <ele>22</ele>
        <time>2013-11-22T09:13:59Z</time>
      </trkpt>
      <trkpt lat="48.51619" lon="-2.72443">
        <ele>22</ele>
        <time>2013-11-22T09:14:00Z</time>
      </trkpt>
      <trkpt lat="48.51618" lon="-2.72445">
        <ele>22</ele>
        <time>2013-11-22T09:14:01Z</time>
      </trkpt>
      <trkpt lat="48.51617" lon="-2.72447">
        <ele>22</ele>
        <time>2013-11-22T09:14:02Z</time>
      </trkpt>
      <trkpt lat="48.51617" lon="-2.7245">
        <ele>22</ele>
        <time>2013-11-22T09:14:03Z</time>
      </trkpt>
      <trkpt lat="48.51617" lon="-2.72454">
        <ele>22</ele>
        <time>2013-11-22T09:14:05Z</time>
      </trkpt>
      <trkpt lat="48.51616" lon="-2.72458">
        <ele>22</ele>
        <time>2013-11-22T09:14:07Z</time>
      </trkpt>
      <trkpt lat="48.51616" lon="-2.72461">
        <ele>22</ele>
        <time>2013-11-22T09:14:08Z</time>
      </trkpt>
      <trkpt lat="48.51616" lon="-2.72465">
        <ele>22</ele>
        <time>2013-11-22T09:14:10Z</time>
      </trkpt>
      <trkpt lat="48.51615" lon="-2.72467">
        <ele>22</ele>
        <time>2013-11-22T09:14:11Z</time>
      </trkpt>
      <trkpt lat="48.51615" lon="-2.7247">
        <ele>22</ele>
        <time>2013-11-22T09:14:12Z</time>
      </trkpt>
      <trkpt lat="48.51614" lon="-2.72472">
        <ele>22</ele>
        <time>2013-11-22T09:14:13Z</time>
      </trkpt>
      <trkpt lat="48.51614" lon="-2.72474">
        <ele>22</ele>
        <time>2013-11-22T09:14:14Z</time>
      </trkpt>
      <trkpt lat="48.51613" lon="-2.72478">
        <ele>22</ele>
        <time>2013-11-22T09:14:16Z</time>
      </trkpt>
      <trkpt lat="48.51613" lon="-2.72482">
        <ele>22</ele>
        <time>2013-11-22T09:14:18Z</time>
      </trkpt>
      <trkpt lat="48.51612" lon="-2.72489">
        <ele>22</ele>
        <time>2013-11-22T09:14:21Z</time>
      </trkpt>
      <trkpt lat="48.51612" lon="-2.72494">
        <ele>22</ele>
        <time>2013-11-22T09:14:23Z</time>
      </trkpt>
      <trkpt lat="48.51612" lon="-2.72498">
        <ele>22</ele>
        <time>2013-11-22T09:14:25Z</time>
      </trkpt>
      <trkpt lat="48.51611" lon="-2.72504">
        <ele>22</ele>
        <time>2013-11-22T09:14:27Z</time>
      </trkpt>
      <trkpt lat="48.51611" lon="-2.72507">
        <ele>22</ele>
        <time>2013-11-22T09:14:28Z</time>
      </trkpt>
      <trkpt lat="48.51612" lon="-2.7251">
        <ele>23</ele>
        <time>2013-11-22T09:15:16Z</time>
      </trkpt>
      <trkpt lat="48.51613" lon="-2.72509">
        <ele>23</ele>
        <time>2013-11-22T09:16:22Z</time>
      </trkpt>
      <trkpt lat="48.51614" lon="-2.72512">
        <ele>23</ele>
        <time>2013-11-22T09:16:39Z</time>
      </trkpt>
      <trkpt lat="48.51613" lon="-2.72517">
        <ele>24</ele>
        <time>2013-11-22T09:16:43Z</time>
      </trkpt>
      <trkpt lat="48.51613" lon="-2.72519">
        <ele>24</ele>
        <time>2013-11-22T09:16:44Z</time>
      </trkpt>
      <trkpt lat="48.51612" lon="-2.72528">
        <ele>24</ele>
        <time>2013-11-22T09:16:49Z</time>
      </trkpt>
      <trkpt lat="48.51612" lon="-2.7253">
        <ele>24</ele>
        <time>2013-11-22T09:16:50Z</time>
      </trkpt>
      <trkpt lat="48.51612" lon="-2.72535">
        <ele>24</ele>
        <time>2013-11-22T09:16:53Z</time>
      </trkpt>
      <trkpt lat="48.51611" lon="-2.72541">
        <ele>24</ele>
        <time>2013-11-22T09:16:56Z</time>
      </trkpt>
      <trkpt lat="48.51611" lon="-2.72543">
        <ele>24</ele>
        <time>2013-11-22T09:16:57Z</time>
      </trkpt>
      <trkpt lat="48.51611" lon="-2.72544">
        <ele>24</ele>
        <time>2013-11-22T09:16:58Z</time>
      </trkpt>
      <trkpt lat="48.5161" lon="-2.72547">
        <ele>24</ele>
        <time>2013-11-22T09:16:59Z</time>
      </trkpt>
      <trkpt lat="48.5161" lon="-2.72549">
        <ele>24</ele>
        <time>2013-11-22T09:17:00Z</time>
      </trkpt>
      <trkpt lat="48.51609" lon="-2.72551">
        <ele>24</ele>
        <time>2013-11-22T09:17:02Z</time>
      </trkpt>
      <trkpt lat="48.5161" lon="-2.72552">
        <ele>25</ele>
        <time>2013-11-22T09:17:38Z</time>
      </trkpt>
      <trkpt lat="48.5161" lon="-2.72553">
        <ele>25</ele>
        <time>2013-11-22T09:17:40Z</time>
      </trkpt>
      <trkpt lat="48.51608" lon="-2.72556">
        <ele>25</ele>
        <time>2013-11-22T09:17:42Z</time>
      </trkpt>
      <trkpt lat="48.51607" lon="-2.72559">
        <ele>25</ele>
        <time>2013-11-22T09:17:44Z</time>
      </trkpt>
      <trkpt lat="48.51606" lon="-2.72561">
        <ele>25</ele>
        <time>2013-11-22T09:17:45Z</time>
      </trkpt>
      <trkpt lat="48.51605" lon="-2.72563">
        <ele>25</ele>
        <time>2013-11-22T09:17:46Z</time>
      </trkpt>
      <trkpt lat="48.51605" lon="-2.72565">
        <ele>25</ele>
        <time>2013-11-22T09:17:47Z</time>
      </trkpt>
      <trkpt lat="48.51604" lon="-2.72567">
        <ele>25</ele>
        <time>2013-11-22T09:17:48Z</time>
      </trkpt>
      <trkpt lat="48.51603" lon="-2.72569">
        <ele>25</ele>
        <time>2013-11-22T09:17:49Z</time>
      </trkpt>
      <trkpt lat="48.51602" lon="-2.72571">
        <ele>25</ele>
        <time>2013-11-22T09:17:50Z</time>
      </trkpt>
      <trkpt lat="48.51601" lon="-2.72574">
        <ele>25</ele>
        <time>2013-11-22T09:17:52Z</time>
      </trkpt>
      <trkpt lat="48.51601" lon="-2.72576">
        <ele>25</ele>
        <time>2013-11-22T09:17:53Z</time>
      </trkpt>
      <trkpt lat="48.516" lon="-2.72578">
        <ele>25</ele>
        <time>2013-11-22T09:17:54Z</time>
      </trkpt>
      <trkpt lat="48.51599" lon="-2.7258">
        <ele>25</ele>
        <time>2013-11-22T09:17:55Z</time>
      </trkpt>
      <trkpt lat="48.51598" lon="-2.72583">
        <ele>25</ele>
        <time>2013-11-22T09:17:56Z</time>
      </trkpt>
      <trkpt lat="48.51597" lon="-2.72585">
        <ele>25</ele>
        <time>2013-11-22T09:17:57Z</time>
      </trkpt>
      <trkpt lat="48.51596" lon="-2.72587">
        <ele>25</ele>
        <time>2013-11-22T09:17:59Z</time>
      </trkpt>
      <trkpt lat="48.51596" lon="-2.72589">
        <ele>25</ele>
        <time>2013-11-22T09:18:00Z</time>
      </trkpt>
      <trkpt lat="48.51595" lon="-2.72591">
        <ele>25</ele>
        <time>2013-11-22T09:18:01Z</time>
      </trkpt>
      <trkpt lat="48.51595" lon="-2.72593">
        <ele>25</ele>
        <time>2013-11-22T09:18:02Z</time>
      </trkpt>
      <trkpt lat="48.51594" lon="-2.72595">
        <ele>25</ele>
        <time>2013-11-22T09:18:03Z</time>
      </trkpt>
      <trkpt lat="48.51593" lon="-2.72597">
        <ele>25</ele>
        <time>2013-11-22T09:18:04Z</time>
      </trkpt>
      <trkpt lat="48.51593" lon="-2.72599">
        <ele>25</ele>
        <time>2013-11-22T09:18:05Z</time>
      </trkpt>
      <trkpt lat="48.51592" lon="-2.72601">
        <ele>25</ele>
        <time>2013-11-22T09:18:06Z</time>
      </trkpt>
      <trkpt lat="48.51593" lon="-2.72603">
        <ele>25</ele>
        <time>2013-11-22T09:18:07Z</time>
      </trkpt>
      <trkpt lat="48.51592" lon="-2.72605">
        <ele>25</ele>
        <time>2013-11-22T09:18:08Z</time>
      </trkpt>
      <trkpt lat="48.51592" lon="-2.72606">
        <ele>25</ele>
        <time>2013-11-22T09:18:09Z</time>
      </trkpt>
      <trkpt lat="48.51591" lon="-2.72608">
        <ele>25</ele>
        <time>2013-11-22T09:18:10Z</time>
      </trkpt>
      <trkpt lat="48.51591" lon="-2.7261">
        <ele>25</ele>
        <time>2013-11-22T09:18:11Z</time>
      </trkpt>
      <trkpt lat="48.5159" lon="-2.72612">
        <ele>25</ele>
        <time>2013-11-22T09:18:12Z</time>
      </trkpt>
      <trkpt lat="48.5159" lon="-2.72616">
        <ele>25</ele>
        <time>2013-11-22T09:18:14Z</time>
      </trkpt>
      <trkpt lat="48.51589" lon="-2.72618">
        <ele>25</ele>
        <time>2013-11-22T09:18:15Z</time>
      </trkpt>
      <trkpt lat="48.51588" lon="-2.7262">
        <ele>25</ele>
        <time>2013-11-22T09:18:16Z</time>
      </trkpt>
      <trkpt lat="48.51588" lon="-2.72622">
        <ele>25</ele>
        <time>2013-11-22T09:18:17Z</time>
      </trkpt>
      <trkpt lat="48.51587" lon="-2.72624">
        <ele>25</ele>
        <time>2013-11-22T09:18:18Z</time>
      </trkpt>
      <trkpt lat="48.51586" lon="-2.72627">
        <ele>25</ele>
        <time>2013-11-22T09:18:20Z</time>
      </trkpt>
      <trkpt lat="48.51585" lon="-2.72629">
        <ele>25</ele>
        <time>2013-11-22T09:18:21Z</time>
      </trkpt>
      <trkpt lat="48.51585" lon="-2.72633">
        <ele>25</ele>
        <time>2013-11-22T09:18:23Z</time>
      </trkpt>
      <trkpt lat="48.51584" lon="-2.72635">
        <ele>25</ele>
        <time>2013-11-22T09:18:24Z</time>
      </trkpt>
      <trkpt lat="48.51584" lon="-2.72637">
        <ele>25</ele>
        <time>2013-11-22T09:18:25Z</time>
      </trkpt>
      <trkpt lat="48.51583" lon="-2.72639">
        <ele>25</ele>
        <time>2013-11-22T09:18:26Z</time>
      </trkpt>
      <trkpt lat="48.51582" lon="-2.72641">
        <ele>26</ele>
        <time>2013-11-22T09:18:27Z</time>
      </trkpt>
      <trkpt lat="48.51582" lon="-2.72642">
        <ele>26</ele>
        <time>2013-11-22T09:18:28Z</time>
      </trkpt>
      <trkpt lat="48.51581" lon="-2.72644">
        <ele>26</ele>
        <time>2013-11-22T09:18:29Z</time>
      </trkpt>
      <trkpt lat="48.5158" lon="-2.72648">
        <ele>26</ele>
        <time>2013-11-22T09:18:31Z</time>
      </trkpt>
      <trkpt lat="48.51579" lon="-2.72649">
        <ele>27</ele>
        <time>2013-11-22T09:18:32Z</time>
      </trkpt>
      <trkpt lat="48.51579" lon="-2.72651">
        <ele>27</ele>
        <time>2013-11-22T09:18:33Z</time>
      </trkpt>
      <trkpt lat="48.51578" lon="-2.72653">
        <ele>27</ele>
        <time>2013-11-22T09:18:34Z</time>
      </trkpt>
      <trkpt lat="48.51577" lon="-2.72655">
        <ele>27</ele>
        <time>2013-11-22T09:18:35Z</time>
      </trkpt>
      <trkpt lat="48.51576" lon="-2.7266">
        <ele>27</ele>
        <time>2013-11-22T09:18:38Z</time>
      </trkpt>
      <trkpt lat="48.51575" lon="-2.72662">
        <ele>27</ele>
        <time>2013-11-22T09:18:39Z</time>
      </trkpt>
      <trkpt lat="48.51575" lon="-2.72664">
        <ele>27</ele>
        <time>2013-11-22T09:18:40Z</time>
      </trkpt>
      <trkpt lat="48.51574" lon="-2.72666">
        <ele>28</ele>
        <time>2013-11-22T09:18:41Z</time>
      </trkpt>
      <trkpt lat="48.51574" lon="-2.72668">
        <ele>28</ele>
        <time>2013-11-22T09:18:42Z</time>
      </trkpt>
      <trkpt lat="48.51573" lon="-2.7267">
        <ele>28</ele>
        <time>2013-11-22T09:18:43Z</time>
      </trkpt>
      <trkpt lat="48.51573" lon="-2.72675">
        <ele>29</ele>
        <time>2013-11-22T09:18:46Z</time>
      </trkpt>
      <trkpt lat="48.51572" lon="-2.72677">
        <ele>29</ele>
        <time>2013-11-22T09:18:47Z</time>
      </trkpt>
      <trkpt lat="48.51572" lon="-2.7268">
        <ele>30</ele>
        <time>2013-11-22T09:18:49Z</time>
      </trkpt>
      <trkpt lat="48.51571" lon="-2.72682">
        <ele>30</ele>
        <time>2013-11-22T09:18:50Z</time>
      </trkpt>
      <trkpt lat="48.51571" lon="-2.72684">
        <ele>30</ele>
        <time>2013-11-22T09:18:51Z</time>
      </trkpt>
      <trkpt lat="48.5157" lon="-2.72686">
        <ele>30</ele>
        <time>2013-11-22T09:18:52Z</time>
      </trkpt>
      <trkpt lat="48.51569" lon="-2.72688">
        <ele>31</ele>
        <time>2013-11-22T09:18:53Z</time>
      </trkpt>
      <trkpt lat="48.51569" lon="-2.7269">
        <ele>31</ele>
        <time>2013-11-22T09:18:54Z</time>
      </trkpt>
      <trkpt lat="48.51568" lon="-2.72692">
        <ele>31</ele>
        <time>2013-11-22T09:18:55Z</time>
      </trkpt>
      <trkpt lat="48.51567" lon="-2.72694">
        <ele>31</ele>
        <time>2013-11-22T09:18:56Z</time>
      </trkpt>
      <trkpt lat="48.51566" lon="-2.72697">
        <ele>31</ele>
        <time>2013-11-22T09:18:57Z</time>
      </trkpt>
      <trkpt lat="48.51566" lon="-2.72699">
        <ele>31</ele>
        <time>2013-11-22T09:18:58Z</time>
      </trkpt>
      <trkpt lat="48.51565" lon="-2.72701">
        <ele>31</ele>
        <time>2013-11-22T09:18:59Z</time>
      </trkpt>
      <trkpt lat="48.51565" lon="-2.72703">
        <ele>31</ele>
        <time>2013-11-22T09:19:00Z</time>
      </trkpt>
      <trkpt lat="48.51564" lon="-2.72709">
        <ele>31</ele>
        <time>2013-11-22T09:19:03Z</time>
      </trkpt>
      <trkpt lat="48.51564" lon="-2.7271">
        <ele>31</ele>
        <time>2013-11-22T09:19:04Z</time>
      </trkpt>
      <trkpt lat="48.51565" lon="-2.7272">
        <ele>31</ele>
        <time>2013-11-22T09:19:09Z</time>
      </trkpt>
      <trkpt lat="48.51565" lon="-2.72726">
        <ele>31</ele>
        <time>2013-11-22T09:19:11Z</time>
      </trkpt>
      <trkpt lat="48.51566" lon="-2.72734">
        <ele>31</ele>
        <time>2013-11-22T09:19:16Z</time>
      </trkpt>
      <trkpt lat="48.51566" lon="-2.72736">
        <ele>31</ele>
        <time>2013-11-22T09:19:17Z</time>
      </trkpt>
      <trkpt lat="48.51567" lon="-2.72738">
        <ele>31</ele>
        <time>2013-11-22T09:19:18Z</time>
      </trkpt>
      <trkpt lat="48.51567" lon="-2.72742">
        <ele>31</ele>
        <time>2013-11-22T09:19:20Z</time>
      </trkpt>
      <trkpt lat="48.51567" lon="-2.72743">
        <ele>32</ele>
        <time>2013-11-22T09:19:21Z</time>
      </trkpt>
      <trkpt lat="48.51568" lon="-2.72745">
        <ele>32</ele>
        <time>2013-11-22T09:19:22Z</time>
      </trkpt>
      <trkpt lat="48.51567" lon="-2.72755">
        <ele>33</ele>
        <time>2013-11-22T09:19:27Z</time>
      </trkpt>
      <trkpt lat="48.51568" lon="-2.72765">
        <ele>34</ele>
        <time>2013-11-22T09:19:32Z</time>
      </trkpt>
      <trkpt lat="48.51568" lon="-2.72768">
        <ele>35</ele>
        <time>2013-11-22T09:19:34Z</time>
      </trkpt>
      <trkpt lat="48.51569" lon="-2.7277">
        <ele>35</ele>
        <time>2013-11-22T09:19:35Z</time>
      </trkpt>
      <trkpt lat="48.51569" lon="-2.72773">
        <ele>36</ele>
        <time>2013-11-22T09:19:37Z</time>
      </trkpt>
      <trkpt lat="48.5157" lon="-2.72775">
        <ele>36</ele>
        <time>2013-11-22T09:19:38Z</time>
      </trkpt>
      <trkpt lat="48.5157" lon="-2.72777">
        <ele>37</ele>
        <time>2013-11-22T09:19:39Z</time>
      </trkpt>
      <trkpt lat="48.51569" lon="-2.7278">
        <ele>37</ele>
        <time>2013-11-22T09:19:41Z</time>
      </trkpt>
      <trkpt lat="48.51568" lon="-2.72781">
        <ele>37</ele>
        <time>2013-11-22T09:19:42Z</time>
      </trkpt>
      <trkpt lat="48.51566" lon="-2.72784">
        <ele>38</ele>
        <time>2013-11-22T09:19:44Z</time>
      </trkpt>
      <trkpt lat="48.51564" lon="-2.72785">
        <ele>38</ele>
        <time>2013-11-22T09:19:46Z</time>
      </trkpt>
      <trkpt lat="48.51563" lon="-2.72786">
        <ele>39</ele>
        <time>2013-11-22T09:19:48Z</time>
      </trkpt>
      <trkpt lat="48.51558" lon="-2.72785">
        <ele>39</ele>
        <time>2013-11-22T09:19:52Z</time>
      </trkpt>
      <trkpt lat="48.51557" lon="-2.72785">
        <ele>39</ele>
        <time>2013-11-22T09:19:53Z</time>
      </trkpt>
      <trkpt lat="48.51556" lon="-2.72785">
        <ele>39</ele>
        <time>2013-11-22T09:19:54Z</time>
      </trkpt>
      <trkpt lat="48.51554" lon="-2.72784">
        <ele>39</ele>
        <time>2013-11-22T09:19:55Z</time>
      </trkpt>
      <trkpt lat="48.51553" lon="-2.72783">
        <ele>39</ele>
        <time>2013-11-22T09:19:56Z</time>
      </trkpt>
      <trkpt lat="48.51552" lon="-2.72783">
        <ele>39</ele>
        <time>2013-11-22T09:19:57Z</time>
      </trkpt>
      <trkpt lat="48.51551" lon="-2.72782">
        <ele>39</ele>
        <time>2013-11-22T09:19:58Z</time>
      </trkpt>
      <trkpt lat="48.51549" lon="-2.72781">
        <ele>39</ele>
        <time>2013-11-22T09:19:59Z</time>
      </trkpt>
      <trkpt lat="48.51548" lon="-2.72781">
        <ele>39</ele>
        <time>2013-11-22T09:20:00Z</time>
      </trkpt>
      <trkpt lat="48.51546" lon="-2.7278">
        <ele>39</ele>
        <time>2013-11-22T09:20:01Z</time>
      </trkpt>
      <trkpt lat="48.51545" lon="-2.7278">
        <ele>39</ele>
        <time>2013-11-22T09:20:02Z</time>
      </trkpt>
      <trkpt lat="48.51543" lon="-2.72779">
        <ele>39</ele>
        <time>2013-11-22T09:20:03Z</time>
      </trkpt>
      <trkpt lat="48.51542" lon="-2.72779">
        <ele>39</ele>
        <time>2013-11-22T09:20:04Z</time>
      </trkpt>
      <trkpt lat="48.51541" lon="-2.72778">
        <ele>39</ele>
        <time>2013-11-22T09:20:05Z</time>
      </trkpt>
      <trkpt lat="48.5154" lon="-2.72777">
        <ele>39</ele>
        <time>2013-11-22T09:20:06Z</time>
      </trkpt>
      <trkpt lat="48.51538" lon="-2.72777">
        <ele>39</ele>
        <time>2013-11-22T09:20:07Z</time>
      </trkpt>
      <trkpt lat="48.51537" lon="-2.72776">
        <ele>39</ele>
        <time>2013-11-22T09:20:08Z</time>
      </trkpt>
      <trkpt lat="48.51535" lon="-2.72776">
        <ele>39</ele>
        <time>2013-11-22T09:20:09Z</time>
      </trkpt>
      <trkpt lat="48.51534" lon="-2.72775">
        <ele>39</ele>
        <time>2013-11-22T09:20:10Z</time>
      </trkpt>
      <trkpt lat="48.51533" lon="-2.72775">
        <ele>39</ele>
        <time>2013-11-22T09:20:11Z</time>
      </trkpt>
      <trkpt lat="48.51532" lon="-2.72775">
        <ele>39</ele>
        <time>2013-11-22T09:20:12Z</time>
      </trkpt>
      <trkpt lat="48.5153" lon="-2.72776">
        <ele>39</ele>
        <time>2013-11-22T09:20:13Z</time>
      </trkpt>
      <trkpt lat="48.51528" lon="-2.72776">
        <ele>39</ele>
        <time>2013-11-22T09:20:14Z</time>
      </trkpt>
      <trkpt lat="48.51526" lon="-2.72776">
        <ele>39</ele>
        <time>2013-11-22T09:20:16Z</time>
      </trkpt>
      <trkpt lat="48.51525" lon="-2.72776">
        <ele>38</ele>
        <time>2013-11-22T09:20:17Z</time>
      </trkpt>
      <trkpt lat="48.51524" lon="-2.72776">
        <ele>38</ele>
        <time>2013-11-22T09:20:18Z</time>
      </trkpt>
      <trkpt lat="48.51523" lon="-2.72777">
        <ele>38</ele>
        <time>2013-11-22T09:20:19Z</time>
      </trkpt>
      <trkpt lat="48.51522" lon="-2.72777">
        <ele>38</ele>
        <time>2013-11-22T09:20:20Z</time>
      </trkpt>
      <trkpt lat="48.5152" lon="-2.72777">
        <ele>38</ele>
        <time>2013-11-22T09:20:21Z</time>
      </trkpt>
      <trkpt lat="48.51519" lon="-2.72778">
        <ele>38</ele>
        <time>2013-11-22T09:20:22Z</time>
      </trkpt>
      <trkpt lat="48.51518" lon="-2.72778">
        <ele>37</ele>
        <time>2013-11-22T09:20:23Z</time>
      </trkpt>
      <trkpt lat="48.51516" lon="-2.72778">
        <ele>37</ele>
        <time>2013-11-22T09:20:24Z</time>
      </trkpt>
      <trkpt lat="48.51514" lon="-2.72778">
        <ele>37</ele>
        <time>2013-11-22T09:20:26Z</time>
      </trkpt>
      <trkpt lat="48.51513" lon="-2.72778">
        <ele>37</ele>
        <time>2013-11-22T09:20:27Z</time>
      </trkpt>
      <trkpt lat="48.51511" lon="-2.72779">
        <ele>37</ele>
        <time>2013-11-22T09:20:28Z</time>
      </trkpt>
      <trkpt lat="48.5151" lon="-2.72778">
        <ele>37</ele>
        <time>2013-11-22T09:20:29Z</time>
      </trkpt>
      <trkpt lat="48.51508" lon="-2.72779">
        <ele>37</ele>
        <time>2013-11-22T09:20:31Z</time>
      </trkpt>
      <trkpt lat="48.51505" lon="-2.7278">
        <ele>37</ele>
        <time>2013-11-22T09:20:33Z</time>
      </trkpt>
      <trkpt lat="48.51504" lon="-2.7278">
        <ele>37</ele>
        <time>2013-11-22T09:20:34Z</time>
      </trkpt>
      <trkpt lat="48.515" lon="-2.72779">
        <ele>36</ele>
        <time>2013-11-22T09:20:37Z</time>
      </trkpt>
      <trkpt lat="48.51498" lon="-2.72779">
        <ele>36</ele>
        <time>2013-11-22T09:20:38Z</time>
      </trkpt>
      <trkpt lat="48.51497" lon="-2.72779">
        <ele>36</ele>
        <time>2013-11-22T09:20:39Z</time>
      </trkpt>
      <trkpt lat="48.51493" lon="-2.72779">
        <ele>36</ele>
        <time>2013-11-22T09:20:42Z</time>
      </trkpt>
      <trkpt lat="48.51491" lon="-2.72779">
        <ele>36</ele>
        <time>2013-11-22T09:20:43Z</time>
      </trkpt>
      <trkpt lat="48.5149" lon="-2.72779">
        <ele>36</ele>
        <time>2013-11-22T09:20:44Z</time>
      </trkpt>
      <trkpt lat="48.51488" lon="-2.72779">
        <ele>36</ele>
        <time>2013-11-22T09:20:45Z</time>
      </trkpt>
      <trkpt lat="48.51485" lon="-2.72779">
        <ele>36</ele>
        <time>2013-11-22T09:20:47Z</time>
      </trkpt>
      <trkpt lat="48.51484" lon="-2.7278">
        <ele>36</ele>
        <time>2013-11-22T09:20:48Z</time>
      </trkpt>
      <trkpt lat="48.51481" lon="-2.72781">
        <ele>36</ele>
        <time>2013-11-22T09:20:49Z</time>
      </trkpt>
      <trkpt lat="48.51479" lon="-2.72782">
        <ele>36</ele>
        <time>2013-11-22T09:20:50Z</time>
      </trkpt>
      <trkpt lat="48.51477" lon="-2.72782">
        <ele>36</ele>
        <time>2013-11-22T09:20:52Z</time>
      </trkpt>
      <trkpt lat="48.51475" lon="-2.72783">
        <ele>36</ele>
        <time>2013-11-22T09:20:54Z</time>
      </trkpt>
      <trkpt lat="48.51474" lon="-2.72783">
        <ele>36</ele>
        <time>2013-11-22T09:20:55Z</time>
      </trkpt>
      <trkpt lat="48.51472" lon="-2.72783">
        <ele>36</ele>
        <time>2013-11-22T09:20:56Z</time>
      </trkpt>
      <trkpt lat="48.51471" lon="-2.72783">
        <ele>36</ele>
        <time>2013-11-22T09:20:57Z</time>
      </trkpt>
      <trkpt lat="48.51465" lon="-2.72783">
        <ele>36</ele>
        <time>2013-11-22T09:21:01Z</time>
      </trkpt>
      <trkpt lat="48.51463" lon="-2.72783">
        <ele>36</ele>
        <time>2013-11-22T09:21:02Z</time>
      </trkpt>
      <trkpt lat="48.51462" lon="-2.72782">
        <ele>36</ele>
        <time>2013-11-22T09:21:03Z</time>
      </trkpt>
      <trkpt lat="48.5146" lon="-2.72781">
        <ele>36</ele>
        <time>2013-11-22T09:21:04Z</time>
      </trkpt>
      <trkpt lat="48.51458" lon="-2.7278">
        <ele>36</ele>
        <time>2013-11-22T09:21:05Z</time>
      </trkpt>
      <trkpt lat="48.51457" lon="-2.72779">
        <ele>36</ele>
        <time>2013-11-22T09:21:06Z</time>
      </trkpt>
      <trkpt lat="48.51456" lon="-2.72779">
        <ele>36</ele>
        <time>2013-11-22T09:21:07Z</time>
      </trkpt>
      <trkpt lat="48.51454" lon="-2.72779">
        <ele>36</ele>
        <time>2013-11-22T09:21:08Z</time>
      </trkpt>
      <trkpt lat="48.51453" lon="-2.72778">
        <ele>36</ele>
        <time>2013-11-22T09:21:09Z</time>
      </trkpt>
      <trkpt lat="48.5145" lon="-2.72778">
        <ele>36</ele>
        <time>2013-11-22T09:21:11Z</time>
      </trkpt>
      <trkpt lat="48.51448" lon="-2.72779">
        <ele>36</ele>
        <time>2013-11-22T09:21:12Z</time>
      </trkpt>
      <trkpt lat="48.51447" lon="-2.72779">
        <ele>36</ele>
        <time>2013-11-22T09:21:13Z</time>
      </trkpt>
      <trkpt lat="48.51444" lon="-2.7278">
        <ele>36</ele>
        <time>2013-11-22T09:21:15Z</time>
      </trkpt>
      <trkpt lat="48.51443" lon="-2.72781">
        <ele>36</ele>
        <time>2013-11-22T09:21:16Z</time>
      </trkpt>
      <trkpt lat="48.51442" lon="-2.72781">
        <ele>36</ele>
        <time>2013-11-22T09:21:17Z</time>
      </trkpt>
      <trkpt lat="48.51441" lon="-2.72783">
        <ele>36</ele>
        <time>2013-11-22T09:21:18Z</time>
      </trkpt>
      <trkpt lat="48.51439" lon="-2.72784">
        <ele>36</ele>
        <time>2013-11-22T09:21:19Z</time>
      </trkpt>
      <trkpt lat="48.51437" lon="-2.72785">
        <ele>36</ele>
        <time>2013-11-22T09:21:21Z</time>
      </trkpt>
      <trkpt lat="48.51435" lon="-2.72787">
        <ele>37</ele>
        <time>2013-11-22T09:21:23Z</time>
      </trkpt>
      <trkpt lat="48.51434" lon="-2.72788">
        <ele>37</ele>
        <time>2013-11-22T09:21:24Z</time>
      </trkpt>
      <trkpt lat="48.51432" lon="-2.7279">
        <ele>37</ele>
        <time>2013-11-22T09:21:25Z</time>
      </trkpt>
      <trkpt lat="48.51431" lon="-2.7279">
        <ele>37</ele>
        <time>2013-11-22T09:21:26Z</time>
      </trkpt>
      <trkpt lat="48.5143" lon="-2.72791">
        <ele>38</ele>
        <time>2013-11-22T09:21:27Z</time>
      </trkpt>
      <trkpt lat="48.51429" lon="-2.72792">
        <ele>38</ele>
        <time>2013-11-22T09:21:28Z</time>
      </trkpt>
      <trkpt lat="48.51427" lon="-2.72793">
        <ele>38</ele>
        <time>2013-11-22T09:21:29Z</time>
      </trkpt>
      <trkpt lat="48.51426" lon="-2.72794">
        <ele>38</ele>
        <time>2013-11-22T09:21:31Z</time>
      </trkpt>
      <trkpt lat="48.51424" lon="-2.72795">
        <ele>38</ele>
        <time>2013-11-22T09:21:32Z</time>
      </trkpt>
      <trkpt lat="48.51423" lon="-2.72796">
        <ele>38</ele>
        <time>2013-11-22T09:21:33Z</time>
      </trkpt>
      <trkpt lat="48.51421" lon="-2.72797">
        <ele>39</ele>
        <time>2013-11-22T09:21:34Z</time>
      </trkpt>
      <trkpt lat="48.51419" lon="-2.72799">
        <ele>39</ele>
        <time>2013-11-22T09:21:36Z</time>
      </trkpt>
      <trkpt lat="48.51418" lon="-2.728">
        <ele>39</ele>
        <time>2013-11-22T09:21:37Z</time>
      </trkpt>
      <trkpt lat="48.51416" lon="-2.72801">
        <ele>40</ele>
        <time>2013-11-22T09:21:39Z</time>
      </trkpt>
      <trkpt lat="48.51414" lon="-2.72802">
        <ele>40</ele>
        <time>2013-11-22T09:21:40Z</time>
      </trkpt>
      <trkpt lat="48.51413" lon="-2.72803">
        <ele>40</ele>
        <time>2013-11-22T09:21:41Z</time>
      </trkpt>
      <trkpt lat="48.51411" lon="-2.72804">
        <ele>40</ele>
        <time>2013-11-22T09:21:43Z</time>
      </trkpt>
      <trkpt lat="48.51409" lon="-2.72804">
        <ele>40</ele>
        <time>2013-11-22T09:21:44Z</time>
      </trkpt>
      <trkpt lat="48.51408" lon="-2.72806">
        <ele>40</ele>
        <time>2013-11-22T09:21:46Z</time>
      </trkpt>
      <trkpt lat="48.51405" lon="-2.72807">
        <ele>40</ele>
        <time>2013-11-22T09:21:48Z</time>
      </trkpt>
      <trkpt lat="48.51404" lon="-2.72808">
        <ele>41</ele>
        <time>2013-11-22T09:21:49Z</time>
      </trkpt>
      <trkpt lat="48.51403" lon="-2.72809">
        <ele>41</ele>
        <time>2013-11-22T09:21:50Z</time>
      </trkpt>
      <trkpt lat="48.51402" lon="-2.72809">
        <ele>41</ele>
        <time>2013-11-22T09:21:51Z</time>
      </trkpt>
      <trkpt lat="48.51401" lon="-2.7281">
        <ele>41</ele>
        <time>2013-11-22T09:21:52Z</time>
      </trkpt>
      <trkpt lat="48.514" lon="-2.72811">
        <ele>41</ele>
        <time>2013-11-22T09:21:53Z</time>
      </trkpt>
      <trkpt lat="48.51398" lon="-2.72811">
        <ele>41</ele>
        <time>2013-11-22T09:21:54Z</time>
      </trkpt>
      <trkpt lat="48.51397" lon="-2.72812">
        <ele>41</ele>
        <time>2013-11-22T09:21:55Z</time>
      </trkpt>
      <trkpt lat="48.51396" lon="-2.72813">
        <ele>41</ele>
        <time>2013-11-22T09:21:56Z</time>
      </trkpt>
      <trkpt lat="48.51395" lon="-2.72813">
        <ele>42</ele>
        <time>2013-11-22T09:21:57Z</time>
      </trkpt>
      <trkpt lat="48.51394" lon="-2.72814">
        <ele>42</ele>
        <time>2013-11-22T09:21:58Z</time>
      </trkpt>
      <trkpt lat="48.51392" lon="-2.72814">
        <ele>42</ele>
        <time>2013-11-22T09:21:59Z</time>
      </trkpt>
      <trkpt lat="48.51391" lon="-2.72815">
        <ele>42</ele>
        <time>2013-11-22T09:22:00Z</time>
      </trkpt>
      <trkpt lat="48.5139" lon="-2.72815">
        <ele>42</ele>
        <time>2013-11-22T09:22:01Z</time>
      </trkpt>
      <trkpt lat="48.51389" lon="-2.72816">
        <ele>42</ele>
        <time>2013-11-22T09:22:02Z</time>
      </trkpt>
      <trkpt lat="48.51387" lon="-2.72817">
        <ele>42</ele>
        <time>2013-11-22T09:22:03Z</time>
      </trkpt>
      <trkpt lat="48.51386" lon="-2.72817">
        <ele>42</ele>
        <time>2013-11-22T09:22:04Z</time>
      </trkpt>
      <trkpt lat="48.51385" lon="-2.72818">
        <ele>42</ele>
        <time>2013-11-22T09:22:05Z</time>
      </trkpt>
      <trkpt lat="48.51383" lon="-2.72821">
        <ele>42</ele>
        <time>2013-11-22T09:22:07Z</time>
      </trkpt>
      <trkpt lat="48.51382" lon="-2.72821">
        <ele>42</ele>
        <time>2013-11-22T09:22:08Z</time>
      </trkpt>
      <trkpt lat="48.51381" lon="-2.72822">
        <ele>42</ele>
        <time>2013-11-22T09:22:09Z</time>
      </trkpt>
      <trkpt lat="48.51379" lon="-2.72823">
        <ele>42</ele>
        <time>2013-11-22T09:22:10Z</time>
      </trkpt>
      <trkpt lat="48.51378" lon="-2.72824">
        <ele>42</ele>
        <time>2013-11-22T09:22:11Z</time>
      </trkpt>
      <trkpt lat="48.51377" lon="-2.72825">
        <ele>42</ele>
        <time>2013-11-22T09:22:12Z</time>
      </trkpt>
      <trkpt lat="48.51376" lon="-2.72826">
        <ele>42</ele>
        <time>2013-11-22T09:22:13Z</time>
      </trkpt>
      <trkpt lat="48.51373" lon="-2.72827">
        <ele>42</ele>
        <time>2013-11-22T09:22:15Z</time>
      </trkpt>
      <trkpt lat="48.51372" lon="-2.72828">
        <ele>42</ele>
        <time>2013-11-22T09:22:16Z</time>
      </trkpt>
      <trkpt lat="48.51371" lon="-2.72828">
        <ele>42</ele>
        <time>2013-11-22T09:22:17Z</time>
      </trkpt>
      <trkpt lat="48.51368" lon="-2.72829">
        <ele>42</ele>
        <time>2013-11-22T09:22:18Z</time>
      </trkpt>
      <trkpt lat="48.51367" lon="-2.72829">
        <ele>42</ele>
        <time>2013-11-22T09:22:19Z</time>
      </trkpt>
      <trkpt lat="48.51365" lon="-2.7283">
        <ele>42</ele>
        <time>2013-11-22T09:22:20Z</time>
      </trkpt>
      <trkpt lat="48.51364" lon="-2.7283">
        <ele>42</ele>
        <time>2013-11-22T09:22:21Z</time>
      </trkpt>
      <trkpt lat="48.51363" lon="-2.7283">
        <ele>42</ele>
        <time>2013-11-22T09:22:22Z</time>
      </trkpt>
      <trkpt lat="48.51361" lon="-2.7283">
        <ele>42</ele>
        <time>2013-11-22T09:22:23Z</time>
      </trkpt>
      <trkpt lat="48.5136" lon="-2.72831">
        <ele>42</ele>
        <time>2013-11-22T09:22:24Z</time>
      </trkpt>
      <trkpt lat="48.51358" lon="-2.72831">
        <ele>42</ele>
        <time>2013-11-22T09:22:25Z</time>
      </trkpt>
      <trkpt lat="48.51357" lon="-2.72831">
        <ele>42</ele>
        <time>2013-11-22T09:22:26Z</time>
      </trkpt>
      <trkpt lat="48.51355" lon="-2.72832">
        <ele>42</ele>
        <time>2013-11-22T09:22:27Z</time>
      </trkpt>
      <trkpt lat="48.51349" lon="-2.72832">
        <ele>42</ele>
        <time>2013-11-22T09:22:31Z</time>
      </trkpt>
      <trkpt lat="48.51347" lon="-2.72832">
        <ele>42</ele>
        <time>2013-11-22T09:22:32Z</time>
      </trkpt>
      <trkpt lat="48.51346" lon="-2.72832">
        <ele>42</ele>
        <time>2013-11-22T09:22:33Z</time>
      </trkpt>
      <trkpt lat="48.51344" lon="-2.72833">
        <ele>42</ele>
        <time>2013-11-22T09:22:34Z</time>
      </trkpt>
      <trkpt lat="48.51343" lon="-2.72833">
        <ele>42</ele>
        <time>2013-11-22T09:22:35Z</time>
      </trkpt>
      <trkpt lat="48.51342" lon="-2.72832">
        <ele>42</ele>
        <time>2013-11-22T09:22:36Z</time>
      </trkpt>
      <trkpt lat="48.5134" lon="-2.72833">
        <ele>42</ele>
        <time>2013-11-22T09:22:37Z</time>
      </trkpt>
      <trkpt lat="48.51339" lon="-2.72833">
        <ele>43</ele>
        <time>2013-11-22T09:22:38Z</time>
      </trkpt>
      <trkpt lat="48.51337" lon="-2.72833">
        <ele>43</ele>
        <time>2013-11-22T09:22:39Z</time>
      </trkpt>
      <trkpt lat="48.51336" lon="-2.72833">
        <ele>43</ele>
        <time>2013-11-22T09:22:40Z</time>
      </trkpt>
      <trkpt lat="48.51335" lon="-2.72834">
        <ele>43</ele>
        <time>2013-11-22T09:22:41Z</time>
      </trkpt>
      <trkpt lat="48.51334" lon="-2.72834">
        <ele>43</ele>
        <time>2013-11-22T09:22:42Z</time>
      </trkpt>
      <trkpt lat="48.51332" lon="-2.72834">
        <ele>43</ele>
        <time>2013-11-22T09:22:43Z</time>
      </trkpt>
      <trkpt lat="48.51331" lon="-2.72835">
        <ele>43</ele>
        <time>2013-11-22T09:22:44Z</time>
      </trkpt>
      <trkpt lat="48.51329" lon="-2.72836">
        <ele>43</ele>
        <time>2013-11-22T09:22:45Z</time>
      </trkpt>
      <trkpt lat="48.51328" lon="-2.72836">
        <ele>43</ele>
        <time>2013-11-22T09:22:46Z</time>
      </trkpt>
      <trkpt lat="48.51327" lon="-2.72836">
        <ele>43</ele>
        <time>2013-11-22T09:22:47Z</time>
      </trkpt>
      <trkpt lat="48.51326" lon="-2.72837">
        <ele>43</ele>
        <time>2013-11-22T09:22:48Z</time>
      </trkpt>
      <trkpt lat="48.51324" lon="-2.72837">
        <ele>43</ele>
        <time>2013-11-22T09:22:49Z</time>
      </trkpt>
      <trkpt lat="48.51323" lon="-2.72838">
        <ele>43</ele>
        <time>2013-11-22T09:22:50Z</time>
      </trkpt>
      <trkpt lat="48.5132" lon="-2.72837">
        <ele>43</ele>
        <time>2013-11-22T09:22:54Z</time>
      </trkpt>
      <trkpt lat="48.51321" lon="-2.72835">
        <ele>43</ele>
        <time>2013-11-22T09:23:12Z</time>
      </trkpt>
      <trkpt lat="48.51321" lon="-2.72833">
        <ele>43</ele>
        <time>2013-11-22T09:23:25Z</time>
      </trkpt>
      <trkpt lat="48.5132" lon="-2.7283">
        <ele>43</ele>
        <time>2013-11-22T09:23:27Z</time>
      </trkpt>
      <trkpt lat="48.51318" lon="-2.72827">
        <ele>43</ele>
        <time>2013-11-22T09:23:29Z</time>
      </trkpt>
      <trkpt lat="48.51318" lon="-2.72825">
        <ele>43</ele>
        <time>2013-11-22T09:23:30Z</time>
      </trkpt>
      <trkpt lat="48.51317" lon="-2.72824">
        <ele>43</ele>
        <time>2013-11-22T09:23:31Z</time>
      </trkpt>
      <trkpt lat="48.51317" lon="-2.7282">
        <ele>43</ele>
        <time>2013-11-22T09:23:33Z</time>
      </trkpt>
      <trkpt lat="48.51317" lon="-2.72808">
        <ele>40</ele>
        <time>2013-11-22T09:23:40Z</time>
      </trkpt>
      <trkpt lat="48.51318" lon="-2.72805">
        <ele>40</ele>
        <time>2013-11-22T09:23:42Z</time>
      </trkpt>
      <trkpt lat="48.51318" lon="-2.72803">
        <ele>40</ele>
        <time>2013-11-22T09:23:43Z</time>
      </trkpt>
      <trkpt lat="48.51318" lon="-2.72801">
        <ele>40</ele>
        <time>2013-11-22T09:23:44Z</time>
      </trkpt>
      <trkpt lat="48.51319" lon="-2.72799">
        <ele>40</ele>
        <time>2013-11-22T09:23:45Z</time>
      </trkpt>
      <trkpt lat="48.51319" lon="-2.72798">
        <ele>39</ele>
        <time>2013-11-22T09:23:46Z</time>
      </trkpt>
      <trkpt lat="48.5132" lon="-2.72796">
        <ele>39</ele>
        <time>2013-11-22T09:23:48Z</time>
      </trkpt>
      <trkpt lat="48.51319" lon="-2.72793">
        <ele>39</ele>
        <time>2013-11-22T09:23:50Z</time>
      </trkpt>
      <trkpt lat="48.5132" lon="-2.72787">
        <ele>39</ele>
        <time>2013-11-22T09:23:54Z</time>
      </trkpt>
      <trkpt lat="48.5132" lon="-2.72778">
        <ele>39</ele>
        <time>2013-11-22T09:23:59Z</time>
      </trkpt>
      <trkpt lat="48.51319" lon="-2.72776">
        <ele>39</ele>
        <time>2013-11-22T09:24:00Z</time>
      </trkpt>
      <trkpt lat="48.51318" lon="-2.72773">
        <ele>39</ele>
        <time>2013-11-22T09:24:02Z</time>
      </trkpt>
      <trkpt lat="48.51318" lon="-2.7277">
        <ele>39</ele>
        <time>2013-11-22T09:24:04Z</time>
      </trkpt>
      <trkpt lat="48.51316" lon="-2.72767">
        <ele>39</ele>
        <time>2013-11-22T09:24:06Z</time>
      </trkpt>
      <trkpt lat="48.51314" lon="-2.72766">
        <ele>39</ele>
        <time>2013-11-22T09:24:07Z</time>
      </trkpt>
      <trkpt lat="48.51312" lon="-2.72763">
        <ele>38</ele>
        <time>2013-11-22T09:24:09Z</time>
      </trkpt>
      <trkpt lat="48.51311" lon="-2.72762">
        <ele>38</ele>
        <time>2013-11-22T09:24:10Z</time>
      </trkpt>
      <trkpt lat="48.5131" lon="-2.72762">
        <ele>38</ele>
        <time>2013-11-22T09:24:11Z</time>
      </trkpt>
      <trkpt lat="48.51308" lon="-2.72761">
        <ele>37</ele>
        <time>2013-11-22T09:24:12Z</time>
      </trkpt>
      <trkpt lat="48.51307" lon="-2.72761">
        <ele>37</ele>
        <time>2013-11-22T09:24:13Z</time>
      </trkpt>
      <trkpt lat="48.51306" lon="-2.7276">
        <ele>36</ele>
        <time>2013-11-22T09:24:14Z</time>
      </trkpt>
      <trkpt lat="48.51305" lon="-2.7276">
        <ele>36</ele>
        <time>2013-11-22T09:24:15Z</time>
      </trkpt>
      <trkpt lat="48.51303" lon="-2.72759">
        <ele>35</ele>
        <time>2013-11-22T09:24:16Z</time>
      </trkpt>
      <trkpt lat="48.51302" lon="-2.72759">
        <ele>35</ele>
        <time>2013-11-22T09:24:17Z</time>
      </trkpt>
      <trkpt lat="48.513" lon="-2.72759">
        <ele>35</ele>
        <time>2013-11-22T09:24:18Z</time>
      </trkpt>
      <trkpt lat="48.51299" lon="-2.72759">
        <ele>35</ele>
        <time>2013-11-22T09:24:19Z</time>
      </trkpt>
      <trkpt lat="48.51297" lon="-2.72759">
        <ele>35</ele>
        <time>2013-11-22T09:24:20Z</time>
      </trkpt>
      <trkpt lat="48.51295" lon="-2.72758">
        <ele>35</ele>
        <time>2013-11-22T09:24:22Z</time>
      </trkpt>
      <trkpt lat="48.51294" lon="-2.72759">
        <ele>35</ele>
        <time>2013-11-22T09:24:23Z</time>
      </trkpt>
      <trkpt lat="48.5129" lon="-2.72759">
        <ele>34</ele>
        <time>2013-11-22T09:24:26Z</time>
      </trkpt>
      <trkpt lat="48.51287" lon="-2.72759">
        <ele>33</ele>
        <time>2013-11-22T09:24:28Z</time>
      </trkpt>
      <trkpt lat="48.51286" lon="-2.7276">
        <ele>33</ele>
        <time>2013-11-22T09:24:29Z</time>
      </trkpt>
      <trkpt lat="48.51285" lon="-2.7276">
        <ele>33</ele>
        <time>2013-11-22T09:24:30Z</time>
      </trkpt>
      <trkpt lat="48.51283" lon="-2.7276">
        <ele>33</ele>
        <time>2013-11-22T09:24:32Z</time>
      </trkpt>
      <trkpt lat="48.5128" lon="-2.72761">
        <ele>33</ele>
        <time>2013-11-22T09:24:34Z</time>
      </trkpt>
      <trkpt lat="48.51279" lon="-2.72762">
        <ele>33</ele>
        <time>2013-11-22T09:24:36Z</time>
      </trkpt>
      <trkpt lat="48.51276" lon="-2.72763">
        <ele>33</ele>
        <time>2013-11-22T09:24:38Z</time>
      </trkpt>
      <trkpt lat="48.51275" lon="-2.72763">
        <ele>33</ele>
        <time>2013-11-22T09:24:39Z</time>
      </trkpt>
      <trkpt lat="48.51274" lon="-2.72763">
        <ele>33</ele>
        <time>2013-11-22T09:24:40Z</time>
      </trkpt>
      <trkpt lat="48.51273" lon="-2.72764">
        <ele>33</ele>
        <time>2013-11-22T09:24:41Z</time>
      </trkpt>
      <trkpt lat="48.51271" lon="-2.72765">
        <ele>33</ele>
        <time>2013-11-22T09:24:42Z</time>
      </trkpt>
      <trkpt lat="48.51269" lon="-2.72766">
        <ele>33</ele>
        <time>2013-11-22T09:24:44Z</time>
      </trkpt>
      <trkpt lat="48.51268" lon="-2.72766">
        <ele>33</ele>
        <time>2013-11-22T09:24:46Z</time>
      </trkpt>
      <trkpt lat="48.51266" lon="-2.72767">
        <ele>33</ele>
        <time>2013-11-22T09:24:52Z</time>
      </trkpt>
      <trkpt lat="48.51265" lon="-2.72769">
        <ele>33</ele>
        <time>2013-11-22T09:24:57Z</time>
      </trkpt>
      <trkpt lat="48.51263" lon="-2.72771">
        <ele>33</ele>
        <time>2013-11-22T09:24:59Z</time>
      </trkpt>
      <trkpt lat="48.51261" lon="-2.72772">
        <ele>33</ele>
        <time>2013-11-22T09:25:01Z</time>
      </trkpt>
      <trkpt lat="48.51259" lon="-2.72773">
        <ele>33</ele>
        <time>2013-11-22T09:25:03Z</time>
      </trkpt>
      <trkpt lat="48.51257" lon="-2.72775">
        <ele>33</ele>
        <time>2013-11-22T09:25:05Z</time>
      </trkpt>
      <trkpt lat="48.51255" lon="-2.72776">
        <ele>33</ele>
        <time>2013-11-22T09:25:06Z</time>
      </trkpt>
      <trkpt lat="48.51254" lon="-2.72777">
        <ele>33</ele>
        <time>2013-11-22T09:25:07Z</time>
      </trkpt>
      <trkpt lat="48.51253" lon="-2.72778">
        <ele>33</ele>
        <time>2013-11-22T09:25:08Z</time>
      </trkpt>
      <trkpt lat="48.51251" lon="-2.72779">
        <ele>33</ele>
        <time>2013-11-22T09:25:10Z</time>
      </trkpt>
      <trkpt lat="48.5125" lon="-2.7278">
        <ele>33</ele>
        <time>2013-11-22T09:25:11Z</time>
      </trkpt>
      <trkpt lat="48.51248" lon="-2.72781">
        <ele>33</ele>
        <time>2013-11-22T09:25:12Z</time>
      </trkpt>
      <trkpt lat="48.51247" lon="-2.72781">
        <ele>33</ele>
        <time>2013-11-22T09:25:13Z</time>
      </trkpt>
      <trkpt lat="48.51246" lon="-2.72782">
        <ele>33</ele>
        <time>2013-11-22T09:25:14Z</time>
      </trkpt>
      <trkpt lat="48.51245" lon="-2.72783">
        <ele>33</ele>
        <time>2013-11-22T09:25:15Z</time>
      </trkpt>
      <trkpt lat="48.51244" lon="-2.72785">
        <ele>33</ele>
        <time>2013-11-22T09:25:16Z</time>
      </trkpt>
      <trkpt lat="48.51242" lon="-2.72786">
        <ele>33</ele>
        <time>2013-11-22T09:25:17Z</time>
      </trkpt>
      <trkpt lat="48.51241" lon="-2.72789">
        <ele>33</ele>
        <time>2013-11-22T09:25:19Z</time>
      </trkpt>
      <trkpt lat="48.51238" lon="-2.72791">
        <ele>33</ele>
        <time>2013-11-22T09:25:21Z</time>
      </trkpt>
      <trkpt lat="48.51237" lon="-2.72793">
        <ele>33</ele>
        <time>2013-11-22T09:25:22Z</time>
      </trkpt>
      <trkpt lat="48.51235" lon="-2.72796">
        <ele>33</ele>
        <time>2013-11-22T09:25:24Z</time>
      </trkpt>
      <trkpt lat="48.51234" lon="-2.72797">
        <ele>33</ele>
        <time>2013-11-22T09:25:25Z</time>
      </trkpt>
      <trkpt lat="48.51233" lon="-2.72798">
        <ele>33</ele>
        <time>2013-11-22T09:25:26Z</time>
      </trkpt>
      <trkpt lat="48.51232" lon="-2.728">
        <ele>33</ele>
        <time>2013-11-22T09:25:27Z</time>
      </trkpt>
      <trkpt lat="48.5123" lon="-2.72801">
        <ele>33</ele>
        <time>2013-11-22T09:25:28Z</time>
      </trkpt>
      <trkpt lat="48.51229" lon="-2.72802">
        <ele>33</ele>
        <time>2013-11-22T09:25:29Z</time>
      </trkpt>
      <trkpt lat="48.51228" lon="-2.72803">
        <ele>33</ele>
        <time>2013-11-22T09:25:30Z</time>
      </trkpt>
      <trkpt lat="48.51226" lon="-2.72806">
        <ele>33</ele>
        <time>2013-11-22T09:25:32Z</time>
      </trkpt>
      <trkpt lat="48.51224" lon="-2.72808">
        <ele>33</ele>
        <time>2013-11-22T09:25:34Z</time>
      </trkpt>
      <trkpt lat="48.51223" lon="-2.72809">
        <ele>33</ele>
        <time>2013-11-22T09:25:35Z</time>
      </trkpt>
      <trkpt lat="48.51222" lon="-2.72811">
        <ele>33</ele>
        <time>2013-11-22T09:25:36Z</time>
      </trkpt>
      <trkpt lat="48.5122" lon="-2.72814">
        <ele>33</ele>
        <time>2013-11-22T09:25:37Z</time>
      </trkpt>
      <trkpt lat="48.51219" lon="-2.72815">
        <ele>33</ele>
        <time>2013-11-22T09:25:38Z</time>
      </trkpt>
      <trkpt lat="48.51217" lon="-2.72817">
        <ele>33</ele>
        <time>2013-11-22T09:25:40Z</time>
      </trkpt>
      <trkpt lat="48.51216" lon="-2.72819">
        <ele>33</ele>
        <time>2013-11-22T09:25:41Z</time>
      </trkpt>
      <trkpt lat="48.51214" lon="-2.7282">
        <ele>33</ele>
        <time>2013-11-22T09:25:42Z</time>
      </trkpt>
      <trkpt lat="48.51213" lon="-2.72822">
        <ele>33</ele>
        <time>2013-11-22T09:25:43Z</time>
      </trkpt>
      <trkpt lat="48.51212" lon="-2.72822">
        <ele>33</ele>
        <time>2013-11-22T09:25:44Z</time>
      </trkpt>
      <trkpt lat="48.5121" lon="-2.72823">
        <ele>33</ele>
        <time>2013-11-22T09:25:45Z</time>
      </trkpt>
      <trkpt lat="48.51209" lon="-2.72824">
        <ele>33</ele>
        <time>2013-11-22T09:25:46Z</time>
      </trkpt>
      <trkpt lat="48.51208" lon="-2.72826">
        <ele>33</ele>
        <time>2013-11-22T09:25:48Z</time>
      </trkpt>
      <trkpt lat="48.51207" lon="-2.72827">
        <ele>33</ele>
        <time>2013-11-22T09:25:50Z</time>
      </trkpt>
      <trkpt lat="48.51205" lon="-2.72829">
        <ele>33</ele>
        <time>2013-11-22T09:25:52Z</time>
      </trkpt>
      <trkpt lat="48.51202" lon="-2.72832">
        <ele>33</ele>
        <time>2013-11-22T09:25:54Z</time>
      </trkpt>
      <trkpt lat="48.512" lon="-2.72834">
        <ele>33</ele>
        <time>2013-11-22T09:25:56Z</time>
      </trkpt>
      <trkpt lat="48.51199" lon="-2.72836">
        <ele>33</ele>
        <time>2013-11-22T09:25:58Z</time>
      </trkpt>
      <trkpt lat="48.51197" lon="-2.72838">
        <ele>33</ele>
        <time>2013-11-22T09:26:00Z</time>
      </trkpt>
      <trkpt lat="48.51196" lon="-2.72839">
        <ele>33</ele>
        <time>2013-11-22T09:26:01Z</time>
      </trkpt>
      <trkpt lat="48.51194" lon="-2.72842">
        <ele>33</ele>
        <time>2013-11-22T09:26:03Z</time>
      </trkpt>
      <trkpt lat="48.51192" lon="-2.72843">
        <ele>33</ele>
        <time>2013-11-22T09:26:04Z</time>
      </trkpt>
      <trkpt lat="48.5119" lon="-2.72846">
        <ele>33</ele>
        <time>2013-11-22T09:26:06Z</time>
      </trkpt>
      <trkpt lat="48.51189" lon="-2.72847">
        <ele>33</ele>
        <time>2013-11-22T09:26:08Z</time>
      </trkpt>
      <trkpt lat="48.51187" lon="-2.72849">
        <ele>33</ele>
        <time>2013-11-22T09:26:10Z</time>
      </trkpt>
      <trkpt lat="48.51185" lon="-2.72851">
        <ele>33</ele>
        <time>2013-11-22T09:26:12Z</time>
      </trkpt>
      <trkpt lat="48.51183" lon="-2.72854">
        <ele>33</ele>
        <time>2013-11-22T09:26:14Z</time>
      </trkpt>
      <trkpt lat="48.51182" lon="-2.72855">
        <ele>33</ele>
        <time>2013-11-22T09:26:15Z</time>
      </trkpt>
      <trkpt lat="48.5118" lon="-2.72858">
        <ele>33</ele>
        <time>2013-11-22T09:26:17Z</time>
      </trkpt>
      <trkpt lat="48.51179" lon="-2.7286">
        <ele>33</ele>
        <time>2013-11-22T09:26:18Z</time>
      </trkpt>
      <trkpt lat="48.51178" lon="-2.72861">
        <ele>33</ele>
        <time>2013-11-22T09:26:19Z</time>
      </trkpt>
      <trkpt lat="48.51176" lon="-2.72864">
        <ele>33</ele>
        <time>2013-11-22T09:26:21Z</time>
      </trkpt>
      <trkpt lat="48.51174" lon="-2.72867">
        <ele>33</ele>
        <time>2013-11-22T09:26:23Z</time>
      </trkpt>
      <trkpt lat="48.51173" lon="-2.72869">
        <ele>33</ele>
        <time>2013-11-22T09:26:24Z</time>
      </trkpt>
      <trkpt lat="48.51172" lon="-2.7287">
        <ele>33</ele>
        <time>2013-11-22T09:26:25Z</time>
      </trkpt>
      <trkpt lat="48.51171" lon="-2.72872">
        <ele>33</ele>
        <time>2013-11-22T09:26:26Z</time>
      </trkpt>
      <trkpt lat="48.51169" lon="-2.72875">
        <ele>33</ele>
        <time>2013-11-22T09:26:28Z</time>
      </trkpt>
      <trkpt lat="48.51168" lon="-2.72876">
        <ele>33</ele>
        <time>2013-11-22T09:26:29Z</time>
      </trkpt>
      <trkpt lat="48.51167" lon="-2.72877">
        <ele>33</ele>
        <time>2013-11-22T09:26:30Z</time>
      </trkpt>
      <trkpt lat="48.51164" lon="-2.72879">
        <ele>33</ele>
        <time>2013-11-22T09:26:32Z</time>
      </trkpt>
      <trkpt lat="48.51163" lon="-2.7288">
        <ele>33</ele>
        <time>2013-11-22T09:26:33Z</time>
      </trkpt>
      <trkpt lat="48.51162" lon="-2.72881">
        <ele>33</ele>
        <time>2013-11-22T09:26:34Z</time>
      </trkpt>
      <trkpt lat="48.5116" lon="-2.72883">
        <ele>33</ele>
        <time>2013-11-22T09:26:36Z</time>
      </trkpt>
      <trkpt lat="48.51158" lon="-2.72884">
        <ele>33</ele>
        <time>2013-11-22T09:26:37Z</time>
      </trkpt>
      <trkpt lat="48.51157" lon="-2.72885">
        <ele>33</ele>
        <time>2013-11-22T09:26:38Z</time>
      </trkpt>
      <trkpt lat="48.51156" lon="-2.72887">
        <ele>33</ele>
        <time>2013-11-22T09:26:39Z</time>
      </trkpt>
      <trkpt lat="48.51154" lon="-2.72888">
        <ele>33</ele>
        <time>2013-11-22T09:26:40Z</time>
      </trkpt>
      <trkpt lat="48.51153" lon="-2.72889">
        <ele>33</ele>
        <time>2013-11-22T09:26:41Z</time>
      </trkpt>
      <trkpt lat="48.51151" lon="-2.72891">
        <ele>33</ele>
        <time>2013-11-22T09:26:42Z</time>
      </trkpt>
      <trkpt lat="48.5115" lon="-2.72893">
        <ele>33</ele>
        <time>2013-11-22T09:26:43Z</time>
      </trkpt>
      <trkpt lat="48.51149" lon="-2.72894">
        <ele>33</ele>
        <time>2013-11-22T09:26:44Z</time>
      </trkpt>
      <trkpt lat="48.51147" lon="-2.72896">
        <ele>33</ele>
        <time>2013-11-22T09:26:45Z</time>
      </trkpt>
      <trkpt lat="48.51146" lon="-2.72897">
        <ele>33</ele>
        <time>2013-11-22T09:26:46Z</time>
      </trkpt>
      <trkpt lat="48.51144" lon="-2.72898">
        <ele>33</ele>
        <time>2013-11-22T09:26:50Z</time>
      </trkpt>
      <trkpt lat="48.51143" lon="-2.729">
        <ele>33</ele>
        <time>2013-11-22T09:26:51Z</time>
      </trkpt>
      <trkpt lat="48.51142" lon="-2.72901">
        <ele>33</ele>
        <time>2013-11-22T09:26:52Z</time>
      </trkpt>
      <trkpt lat="48.51141" lon="-2.72902">
        <ele>33</ele>
        <time>2013-11-22T09:26:54Z</time>
      </trkpt>
      <trkpt lat="48.51139" lon="-2.72903">
        <ele>33</ele>
        <time>2013-11-22T09:26:56Z</time>
      </trkpt>
      <trkpt lat="48.51137" lon="-2.72905">
        <ele>33</ele>
        <time>2013-11-22T09:26:58Z</time>
      </trkpt>
      <trkpt lat="48.51136" lon="-2.72906">
        <ele>33</ele>
        <time>2013-11-22T09:26:59Z</time>
      </trkpt>
      <trkpt lat="48.51134" lon="-2.72907">
        <ele>33</ele>
        <time>2013-11-22T09:27:00Z</time>
      </trkpt>
      <trkpt lat="48.51133" lon="-2.72908">
        <ele>33</ele>
        <time>2013-11-22T09:27:01Z</time>
      </trkpt>
      <trkpt lat="48.51131" lon="-2.7291">
        <ele>33</ele>
        <time>2013-11-22T09:27:03Z</time>
      </trkpt>
      <trkpt lat="48.5113" lon="-2.72911">
        <ele>33</ele>
        <time>2013-11-22T09:27:04Z</time>
      </trkpt>
      <trkpt lat="48.51129" lon="-2.72912">
        <ele>33</ele>
        <time>2013-11-22T09:27:05Z</time>
      </trkpt>
      <trkpt lat="48.51128" lon="-2.72913">
        <ele>33</ele>
        <time>2013-11-22T09:27:06Z</time>
      </trkpt>
      <trkpt lat="48.51126" lon="-2.72913">
        <ele>33</ele>
        <time>2013-11-22T09:27:07Z</time>
      </trkpt>
      <trkpt lat="48.51124" lon="-2.72915">
        <ele>33</ele>
        <time>2013-11-22T09:27:09Z</time>
      </trkpt>
      <trkpt lat="48.51123" lon="-2.72915">
        <ele>33</ele>
        <time>2013-11-22T09:27:10Z</time>
      </trkpt>
      <trkpt lat="48.51122" lon="-2.72916">
        <ele>33</ele>
        <time>2013-11-22T09:27:12Z</time>
      </trkpt>
      <trkpt lat="48.5112" lon="-2.72918">
        <ele>33</ele>
        <time>2013-11-22T09:27:14Z</time>
      </trkpt>
      <trkpt lat="48.51118" lon="-2.7292">
        <ele>33</ele>
        <time>2013-11-22T09:27:15Z</time>
      </trkpt>
      <trkpt lat="48.51116" lon="-2.72921">
        <ele>33</ele>
        <time>2013-11-22T09:27:16Z</time>
      </trkpt>
      <trkpt lat="48.51115" lon="-2.72923">
        <ele>33</ele>
        <time>2013-11-22T09:27:17Z</time>
      </trkpt>
      <trkpt lat="48.51113" lon="-2.72924">
        <ele>34</ele>
        <time>2013-11-22T09:27:18Z</time>
      </trkpt>
      <trkpt lat="48.51112" lon="-2.72926">
        <ele>34</ele>
        <time>2013-11-22T09:27:19Z</time>
      </trkpt>
      <trkpt lat="48.5111" lon="-2.72927">
        <ele>34</ele>
        <time>2013-11-22T09:27:20Z</time>
      </trkpt>
      <trkpt lat="48.51109" lon="-2.72928">
        <ele>34</ele>
        <time>2013-11-22T09:27:21Z</time>
      </trkpt>
      <trkpt lat="48.51108" lon="-2.72928">
        <ele>34</ele>
        <time>2013-11-22T09:27:22Z</time>
      </trkpt>
      <trkpt lat="48.51106" lon="-2.72929">
        <ele>34</ele>
        <time>2013-11-22T09:27:23Z</time>
      </trkpt>
      <trkpt lat="48.51105" lon="-2.7293">
        <ele>34</ele>
        <time>2013-11-22T09:27:24Z</time>
      </trkpt>
      <trkpt lat="48.51104" lon="-2.72932">
        <ele>34</ele>
        <time>2013-11-22T09:27:25Z</time>
      </trkpt>
      <trkpt lat="48.51102" lon="-2.72933">
        <ele>34</ele>
        <time>2013-11-22T09:27:27Z</time>
      </trkpt>
      <trkpt lat="48.51101" lon="-2.72934">
        <ele>34</ele>
        <time>2013-11-22T09:27:28Z</time>
      </trkpt>
      <trkpt lat="48.51099" lon="-2.72935">
        <ele>34</ele>
        <time>2013-11-22T09:27:29Z</time>
      </trkpt>
      <trkpt lat="48.51098" lon="-2.72935">
        <ele>34</ele>
        <time>2013-11-22T09:27:30Z</time>
      </trkpt>
      <trkpt lat="48.51095" lon="-2.72936">
        <ele>34</ele>
        <time>2013-11-22T09:27:32Z</time>
      </trkpt>
      <trkpt lat="48.51093" lon="-2.72937">
        <ele>34</ele>
        <time>2013-11-22T09:27:33Z</time>
      </trkpt>
      <trkpt lat="48.51092" lon="-2.72938">
        <ele>34</ele>
        <time>2013-11-22T09:27:34Z</time>
      </trkpt>
      <trkpt lat="48.51091" lon="-2.72939">
        <ele>34</ele>
        <time>2013-11-22T09:27:35Z</time>
      </trkpt>
      <trkpt lat="48.51089" lon="-2.72939">
        <ele>34</ele>
        <time>2013-11-22T09:27:36Z</time>
      </trkpt>
      <trkpt lat="48.51088" lon="-2.72939">
        <ele>34</ele>
        <time>2013-11-22T09:27:37Z</time>
      </trkpt>
      <trkpt lat="48.51085" lon="-2.72939">
        <ele>34</ele>
        <time>2013-11-22T09:27:39Z</time>
      </trkpt>
      <trkpt lat="48.51083" lon="-2.72939">
        <ele>34</ele>
        <time>2013-11-22T09:27:40Z</time>
      </trkpt>
      <trkpt lat="48.51082" lon="-2.7294">
        <ele>34</ele>
        <time>2013-11-22T09:27:41Z</time>
      </trkpt>
      <trkpt lat="48.5108" lon="-2.7294">
        <ele>35</ele>
        <time>2013-11-22T09:27:42Z</time>
      </trkpt>
      <trkpt lat="48.51079" lon="-2.72941">
        <ele>36</ele>
        <time>2013-11-22T09:27:44Z</time>
      </trkpt>
      <trkpt lat="48.51073" lon="-2.72942">
        <ele>36</ele>
        <time>2013-11-22T09:27:48Z</time>
      </trkpt>
      <trkpt lat="48.51072" lon="-2.72943">
        <ele>36</ele>
        <time>2013-11-22T09:27:49Z</time>
      </trkpt>
      <trkpt lat="48.5107" lon="-2.72943">
        <ele>36</ele>
        <time>2013-11-22T09:27:50Z</time>
      </trkpt>
      <trkpt lat="48.51069" lon="-2.72944">
        <ele>36</ele>
        <time>2013-11-22T09:27:51Z</time>
      </trkpt>
      <trkpt lat="48.51068" lon="-2.72945">
        <ele>36</ele>
        <time>2013-11-22T09:27:52Z</time>
      </trkpt>
      <trkpt lat="48.51066" lon="-2.72945">
        <ele>36</ele>
        <time>2013-11-22T09:27:53Z</time>
      </trkpt>
      <trkpt lat="48.51064" lon="-2.72946">
        <ele>36</ele>
        <time>2013-11-22T09:27:54Z</time>
      </trkpt>
      <trkpt lat="48.51063" lon="-2.72946">
        <ele>36</ele>
        <time>2013-11-22T09:27:55Z</time>
      </trkpt>
      <trkpt lat="48.51061" lon="-2.72947">
        <ele>36</ele>
        <time>2013-11-22T09:27:56Z</time>
      </trkpt>
      <trkpt lat="48.5106" lon="-2.72947">
        <ele>36</ele>
        <time>2013-11-22T09:27:57Z</time>
      </trkpt>
      <trkpt lat="48.51059" lon="-2.72948">
        <ele>36</ele>
        <time>2013-11-22T09:27:59Z</time>
      </trkpt>
      <trkpt lat="48.51056" lon="-2.7295">
        <ele>36</ele>
        <time>2013-11-22T09:28:01Z</time>
      </trkpt>
      <trkpt lat="48.51055" lon="-2.72951">
        <ele>36</ele>
        <time>2013-11-22T09:28:02Z</time>
      </trkpt>
      <trkpt lat="48.51054" lon="-2.72951">
        <ele>36</ele>
        <time>2013-11-22T09:28:03Z</time>
      </trkpt>
      <trkpt lat="48.51052" lon="-2.72952">
        <ele>36</ele>
        <time>2013-11-22T09:28:04Z</time>
      </trkpt>
      <trkpt lat="48.51051" lon="-2.72953">
        <ele>36</ele>
        <time>2013-11-22T09:28:05Z</time>
      </trkpt>
      <trkpt lat="48.5105" lon="-2.72953">
        <ele>36</ele>
        <time>2013-11-22T09:28:06Z</time>
      </trkpt>
      <trkpt lat="48.51049" lon="-2.72953">
        <ele>36</ele>
        <time>2013-11-22T09:28:07Z</time>
      </trkpt>
      <trkpt lat="48.51047" lon="-2.72954">
        <ele>36</ele>
        <time>2013-11-22T09:28:08Z</time>
      </trkpt>
      <trkpt lat="48.51045" lon="-2.72955">
        <ele>36</ele>
        <time>2013-11-22T09:28:10Z</time>
      </trkpt>
      <trkpt lat="48.51043" lon="-2.72955">
        <ele>36</ele>
        <time>2013-11-22T09:28:12Z</time>
      </trkpt>
      <trkpt lat="48.51042" lon="-2.72956">
        <ele>36</ele>
        <time>2013-11-22T09:28:13Z</time>
      </trkpt>
      <trkpt lat="48.51041" lon="-2.72956">
        <ele>36</ele>
        <time>2013-11-22T09:28:14Z</time>
      </trkpt>
      <trkpt lat="48.51039" lon="-2.72956">
        <ele>36</ele>
        <time>2013-11-22T09:28:15Z</time>
      </trkpt>
      <trkpt lat="48.51038" lon="-2.72957">
        <ele>36</ele>
        <time>2013-11-22T09:28:16Z</time>
      </trkpt>
      <trkpt lat="48.51037" lon="-2.72957">
        <ele>36</ele>
        <time>2013-11-22T09:28:17Z</time>
      </trkpt>
      <trkpt lat="48.51036" lon="-2.72958">
        <ele>36</ele>
        <time>2013-11-22T09:28:18Z</time>
      </trkpt>
      <trkpt lat="48.51033" lon="-2.72959">
        <ele>36</ele>
        <time>2013-11-22T09:28:20Z</time>
      </trkpt>
      <trkpt lat="48.51032" lon="-2.72959">
        <ele>36</ele>
        <time>2013-11-22T09:28:21Z</time>
      </trkpt>
      <trkpt lat="48.5103" lon="-2.7296">
        <ele>36</ele>
        <time>2013-11-22T09:28:22Z</time>
      </trkpt>
      <trkpt lat="48.51029" lon="-2.72961">
        <ele>36</ele>
        <time>2013-11-22T09:28:23Z</time>
      </trkpt>
      <trkpt lat="48.51027" lon="-2.72961">
        <ele>36</ele>
        <time>2013-11-22T09:28:24Z</time>
      </trkpt>
      <trkpt lat="48.51025" lon="-2.72962">
        <ele>36</ele>
        <time>2013-11-22T09:28:25Z</time>
      </trkpt>
      <trkpt lat="48.51024" lon="-2.72962">
        <ele>36</ele>
        <time>2013-11-22T09:28:26Z</time>
      </trkpt>
      <trkpt lat="48.51023" lon="-2.72962">
        <ele>36</ele>
        <time>2013-11-22T09:28:27Z</time>
      </trkpt>
      <trkpt lat="48.5102" lon="-2.72963">
        <ele>36</ele>
        <time>2013-11-22T09:28:30Z</time>
      </trkpt>
      <trkpt lat="48.51019" lon="-2.72964">
        <ele>36</ele>
        <time>2013-11-22T09:28:31Z</time>
      </trkpt>
      <trkpt lat="48.51018" lon="-2.72964">
        <ele>36</ele>
        <time>2013-11-22T09:28:32Z</time>
      </trkpt>
      <trkpt lat="48.51017" lon="-2.72965">
        <ele>36</ele>
        <time>2013-11-22T09:28:33Z</time>
      </trkpt>
      <trkpt lat="48.51015" lon="-2.72965">
        <ele>36</ele>
        <time>2013-11-22T09:28:34Z</time>
      </trkpt>
      <trkpt lat="48.51014" lon="-2.72966">
        <ele>36</ele>
        <time>2013-11-22T09:28:35Z</time>
      </trkpt>
      <trkpt lat="48.51013" lon="-2.72966">
        <ele>36</ele>
        <time>2013-11-22T09:28:36Z</time>
      </trkpt>
      <trkpt lat="48.51011" lon="-2.72967">
        <ele>36</ele>
        <time>2013-11-22T09:28:38Z</time>
      </trkpt>
      <trkpt lat="48.51009" lon="-2.72967">
        <ele>36</ele>
        <time>2013-11-22T09:28:39Z</time>
      </trkpt>
      <trkpt lat="48.51008" lon="-2.72968">
        <ele>36</ele>
        <time>2013-11-22T09:28:40Z</time>
      </trkpt>
      <trkpt lat="48.51007" lon="-2.72968">
        <ele>36</ele>
        <time>2013-11-22T09:28:41Z</time>
      </trkpt>
      <trkpt lat="48.51006" lon="-2.72969">
        <ele>36</ele>
        <time>2013-11-22T09:28:42Z</time>
      </trkpt>
      <trkpt lat="48.51004" lon="-2.7297">
        <ele>36</ele>
        <time>2013-11-22T09:28:43Z</time>
      </trkpt>
      <trkpt lat="48.51003" lon="-2.7297">
        <ele>36</ele>
        <time>2013-11-22T09:28:44Z</time>
      </trkpt>
      <trkpt lat="48.51002" lon="-2.72971">
        <ele>36</ele>
        <time>2013-11-22T09:28:45Z</time>
      </trkpt>
      <trkpt lat="48.51" lon="-2.72972">
        <ele>36</ele>
        <time>2013-11-22T09:28:46Z</time>
      </trkpt>
      <trkpt lat="48.50998" lon="-2.72974">
        <ele>36</ele>
        <time>2013-11-22T09:28:48Z</time>
      </trkpt>
      <trkpt lat="48.50996" lon="-2.72974">
        <ele>36</ele>
        <time>2013-11-22T09:28:49Z</time>
      </trkpt>
      <trkpt lat="48.50995" lon="-2.72974">
        <ele>36</ele>
        <time>2013-11-22T09:28:50Z</time>
      </trkpt>
      <trkpt lat="48.50994" lon="-2.72975">
        <ele>36</ele>
        <time>2013-11-22T09:28:51Z</time>
      </trkpt>
      <trkpt lat="48.50993" lon="-2.72975">
        <ele>36</ele>
        <time>2013-11-22T09:28:52Z</time>
      </trkpt>
      <trkpt lat="48.50991" lon="-2.72976">
        <ele>36</ele>
        <time>2013-11-22T09:28:54Z</time>
      </trkpt>
      <trkpt lat="48.5099" lon="-2.72977">
        <ele>36</ele>
        <time>2013-11-22T09:28:55Z</time>
      </trkpt>
      <trkpt lat="48.50988" lon="-2.72978">
        <ele>36</ele>
        <time>2013-11-22T09:28:56Z</time>
      </trkpt>
      <trkpt lat="48.50986" lon="-2.72979">
        <ele>36</ele>
        <time>2013-11-22T09:28:58Z</time>
      </trkpt>
      <trkpt lat="48.50985" lon="-2.72979">
        <ele>36</ele>
        <time>2013-11-22T09:28:59Z</time>
      </trkpt>
      <trkpt lat="48.50984" lon="-2.7298">
        <ele>36</ele>
        <time>2013-11-22T09:29:00Z</time>
      </trkpt>
      <trkpt lat="48.50983" lon="-2.72981">
        <ele>36</ele>
        <time>2013-11-22T09:29:01Z</time>
      </trkpt>
      <trkpt lat="48.50981" lon="-2.72982">
        <ele>36</ele>
        <time>2013-11-22T09:29:02Z</time>
      </trkpt>
      <trkpt lat="48.5098" lon="-2.72983">
        <ele>36</ele>
        <time>2013-11-22T09:29:03Z</time>
      </trkpt>
      <trkpt lat="48.50979" lon="-2.72984">
        <ele>36</ele>
        <time>2013-11-22T09:29:04Z</time>
      </trkpt>
      <trkpt lat="48.50977" lon="-2.72985">
        <ele>36</ele>
        <time>2013-11-22T09:29:05Z</time>
      </trkpt>
      <trkpt lat="48.50976" lon="-2.72987">
        <ele>36</ele>
        <time>2013-11-22T09:29:07Z</time>
      </trkpt>
      <trkpt lat="48.50975" lon="-2.72988">
        <ele>36</ele>
        <time>2013-11-22T09:29:08Z</time>
      </trkpt>
      <trkpt lat="48.50973" lon="-2.7299">
        <ele>36</ele>
        <time>2013-11-22T09:29:10Z</time>
      </trkpt>
      <trkpt lat="48.50971" lon="-2.72993">
        <ele>36</ele>
        <time>2013-11-22T09:29:12Z</time>
      </trkpt>
      <trkpt lat="48.50969" lon="-2.72995">
        <ele>36</ele>
        <time>2013-11-22T09:29:14Z</time>
      </trkpt>
      <trkpt lat="48.50967" lon="-2.72998">
        <ele>36</ele>
        <time>2013-11-22T09:29:16Z</time>
      </trkpt>
      <trkpt lat="48.50967" lon="-2.73">
        <ele>36</ele>
        <time>2013-11-22T09:29:17Z</time>
      </trkpt>
      <trkpt lat="48.50966" lon="-2.73003">
        <ele>37</ele>
        <time>2013-11-22T09:29:19Z</time>
      </trkpt>
      <trkpt lat="48.50965" lon="-2.73005">
        <ele>37</ele>
        <time>2013-11-22T09:29:20Z</time>
      </trkpt>
      <trkpt lat="48.50963" lon="-2.73007">
        <ele>37</ele>
        <time>2013-11-22T09:29:22Z</time>
      </trkpt>
      <trkpt lat="48.50961" lon="-2.73009">
        <ele>37</ele>
        <time>2013-11-22T09:29:24Z</time>
      </trkpt>
      <trkpt lat="48.50959" lon="-2.73011">
        <ele>37</ele>
        <time>2013-11-22T09:29:26Z</time>
      </trkpt>
      <trkpt lat="48.50958" lon="-2.73012">
        <ele>37</ele>
        <time>2013-11-22T09:29:27Z</time>
      </trkpt>
      <trkpt lat="48.50956" lon="-2.73013">
        <ele>37</ele>
        <time>2013-11-22T09:29:28Z</time>
      </trkpt>
      <trkpt lat="48.50951" lon="-2.73013">
        <ele>38</ele>
        <time>2013-11-22T09:29:33Z</time>
      </trkpt>
      <trkpt lat="48.5095" lon="-2.73014">
        <ele>38</ele>
        <time>2013-11-22T09:29:35Z</time>
      </trkpt>
      <trkpt lat="48.50948" lon="-2.73015">
        <ele>38</ele>
        <time>2013-11-22T09:29:37Z</time>
      </trkpt>
      <trkpt lat="48.50946" lon="-2.73015">
        <ele>38</ele>
        <time>2013-11-22T09:29:39Z</time>
      </trkpt>
      <trkpt lat="48.50944" lon="-2.73016">
        <ele>38</ele>
        <time>2013-11-22T09:29:40Z</time>
      </trkpt>
      <trkpt lat="48.50943" lon="-2.73017">
        <ele>39</ele>
        <time>2013-11-22T09:29:41Z</time>
      </trkpt>
      <trkpt lat="48.50941" lon="-2.73018">
        <ele>39</ele>
        <time>2013-11-22T09:29:42Z</time>
      </trkpt>
      <trkpt lat="48.5094" lon="-2.73018">
        <ele>39</ele>
        <time>2013-11-22T09:29:43Z</time>
      </trkpt>
      <trkpt lat="48.50938" lon="-2.7302">
        <ele>40</ele>
        <time>2013-11-22T09:29:44Z</time>
      </trkpt>
      <trkpt lat="48.50937" lon="-2.73021">
        <ele>40</ele>
        <time>2013-11-22T09:29:45Z</time>
      </trkpt>
      <trkpt lat="48.50935" lon="-2.73021">
        <ele>41</ele>
        <time>2013-11-22T09:29:46Z</time>
      </trkpt>
      <trkpt lat="48.50933" lon="-2.73022">
        <ele>41</ele>
        <time>2013-11-22T09:29:47Z</time>
      </trkpt>
      <trkpt lat="48.50932" lon="-2.73023">
        <ele>42</ele>
        <time>2013-11-22T09:29:48Z</time>
      </trkpt>
      <trkpt lat="48.5093" lon="-2.73025">
        <ele>42</ele>
        <time>2013-11-22T09:29:50Z</time>
      </trkpt>
      <trkpt lat="48.50928" lon="-2.73025">
        <ele>42</ele>
        <time>2013-11-22T09:29:51Z</time>
      </trkpt>
      <trkpt lat="48.50927" lon="-2.73026">
        <ele>42</ele>
        <time>2013-11-22T09:29:52Z</time>
      </trkpt>
      <trkpt lat="48.50926" lon="-2.73026">
        <ele>42</ele>
        <time>2013-11-22T09:29:53Z</time>
      </trkpt>
      <trkpt lat="48.50925" lon="-2.73027">
        <ele>42</ele>
        <time>2013-11-22T09:29:54Z</time>
      </trkpt>
      <trkpt lat="48.50922" lon="-2.73029">
        <ele>43</ele>
        <time>2013-11-22T09:29:55Z</time>
      </trkpt>
      <trkpt lat="48.5092" lon="-2.73031">
        <ele>44</ele>
        <time>2013-11-22T09:29:56Z</time>
      </trkpt>
      <trkpt lat="48.50919" lon="-2.73031">
        <ele>45</ele>
        <time>2013-11-22T09:29:57Z</time>
      </trkpt>
      <trkpt lat="48.50917" lon="-2.73033">
        <ele>46</ele>
        <time>2013-11-22T09:29:58Z</time>
      </trkpt>
      <trkpt lat="48.50916" lon="-2.73033">
        <ele>47</ele>
        <time>2013-11-22T09:29:59Z</time>
      </trkpt>
      <trkpt lat="48.50914" lon="-2.73033">
        <ele>48</ele>
        <time>2013-11-22T09:30:00Z</time>
      </trkpt>
      <trkpt lat="48.50912" lon="-2.73034">
        <ele>49</ele>
        <time>2013-11-22T09:30:01Z</time>
      </trkpt>
      <trkpt lat="48.50911" lon="-2.73035">
        <ele>49</ele>
        <time>2013-11-22T09:30:02Z</time>
      </trkpt>
      <trkpt lat="48.5091" lon="-2.73037">
        <ele>49</ele>
        <time>2013-11-22T09:30:03Z</time>
      </trkpt>
      <trkpt lat="48.50908" lon="-2.73038">
        <ele>49</ele>
        <time>2013-11-22T09:30:05Z</time>
      </trkpt>
      <trkpt lat="48.50907" lon="-2.73039">
        <ele>49</ele>
        <time>2013-11-22T09:30:06Z</time>
      </trkpt>
      <trkpt lat="48.50905" lon="-2.7304">
        <ele>49</ele>
        <time>2013-11-22T09:30:08Z</time>
      </trkpt>
      <trkpt lat="48.50904" lon="-2.73041">
        <ele>49</ele>
        <time>2013-11-22T09:30:09Z</time>
      </trkpt>
      <trkpt lat="48.50902" lon="-2.73041">
        <ele>49</ele>
        <time>2013-11-22T09:30:10Z</time>
      </trkpt>
      <trkpt lat="48.50901" lon="-2.73042">
        <ele>49</ele>
        <time>2013-11-22T09:30:11Z</time>
      </trkpt>
      <trkpt lat="48.509" lon="-2.73042">
        <ele>49</ele>
        <time>2013-11-22T09:30:12Z</time>
      </trkpt>
      <trkpt lat="48.50898" lon="-2.73043">
        <ele>49</ele>
        <time>2013-11-22T09:30:13Z</time>
      </trkpt>
      <trkpt lat="48.50897" lon="-2.73043">
        <ele>49</ele>
        <time>2013-11-22T09:30:14Z</time>
      </trkpt>
      <trkpt lat="48.50896" lon="-2.73043">
        <ele>49</ele>
        <time>2013-11-22T09:30:15Z</time>
      </trkpt>
      <trkpt lat="48.50895" lon="-2.73044">
        <ele>49</ele>
        <time>2013-11-22T09:30:16Z</time>
      </trkpt>
      <trkpt lat="48.50894" lon="-2.73045">
        <ele>49</ele>
        <time>2013-11-22T09:30:18Z</time>
      </trkpt>
      <trkpt lat="48.50892" lon="-2.73047">
        <ele>49</ele>
        <time>2013-11-22T09:30:20Z</time>
      </trkpt>
      <trkpt lat="48.50891" lon="-2.73047">
        <ele>49</ele>
        <time>2013-11-22T09:30:21Z</time>
      </trkpt>
      <trkpt lat="48.5089" lon="-2.73048">
        <ele>49</ele>
        <time>2013-11-22T09:30:22Z</time>
      </trkpt>
      <trkpt lat="48.50888" lon="-2.73049">
        <ele>49</ele>
        <time>2013-11-22T09:30:23Z</time>
      </trkpt>
      <trkpt lat="48.50887" lon="-2.73049">
        <ele>49</ele>
        <time>2013-11-22T09:30:24Z</time>
      </trkpt>
      <trkpt lat="48.50886" lon="-2.7305">
        <ele>49</ele>
        <time>2013-11-22T09:30:25Z</time>
      </trkpt>
      <trkpt lat="48.50884" lon="-2.73051">
        <ele>49</ele>
        <time>2013-11-22T09:30:26Z</time>
      </trkpt>
      <trkpt lat="48.50883" lon="-2.73051">
        <ele>49</ele>
        <time>2013-11-22T09:30:27Z</time>
      </trkpt>
      <trkpt lat="48.50882" lon="-2.73052">
        <ele>49</ele>
        <time>2013-11-22T09:30:28Z</time>
      </trkpt>
      <trkpt lat="48.5088" lon="-2.73053">
        <ele>49</ele>
        <time>2013-11-22T09:30:29Z</time>
      </trkpt>
      <trkpt lat="48.50879" lon="-2.73053">
        <ele>49</ele>
        <time>2013-11-22T09:30:30Z</time>
      </trkpt>
      <trkpt lat="48.50878" lon="-2.73054">
        <ele>49</ele>
        <time>2013-11-22T09:30:31Z</time>
      </trkpt>
      <trkpt lat="48.50876" lon="-2.73055">
        <ele>49</ele>
        <time>2013-11-22T09:30:32Z</time>
      </trkpt>
      <trkpt lat="48.50875" lon="-2.73056">
        <ele>49</ele>
        <time>2013-11-22T09:30:33Z</time>
      </trkpt>
      <trkpt lat="48.50874" lon="-2.73057">
        <ele>49</ele>
        <time>2013-11-22T09:30:34Z</time>
      </trkpt>
      <trkpt lat="48.50872" lon="-2.73058">
        <ele>49</ele>
        <time>2013-11-22T09:30:35Z</time>
      </trkpt>
      <trkpt lat="48.50871" lon="-2.73059">
        <ele>49</ele>
        <time>2013-11-22T09:30:36Z</time>
      </trkpt>
      <trkpt lat="48.5087" lon="-2.73059">
        <ele>49</ele>
        <time>2013-11-22T09:30:37Z</time>
      </trkpt>
      <trkpt lat="48.50869" lon="-2.7306">
        <ele>49</ele>
        <time>2013-11-22T09:30:38Z</time>
      </trkpt>
      <trkpt lat="48.50867" lon="-2.7306">
        <ele>49</ele>
        <time>2013-11-22T09:30:39Z</time>
      </trkpt>
      <trkpt lat="48.50866" lon="-2.73061">
        <ele>49</ele>
        <time>2013-11-22T09:30:40Z</time>
      </trkpt>
      <trkpt lat="48.50865" lon="-2.73062">
        <ele>49</ele>
        <time>2013-11-22T09:30:41Z</time>
      </trkpt>
      <trkpt lat="48.50864" lon="-2.73062">
        <ele>48</ele>
        <time>2013-11-22T09:30:42Z</time>
      </trkpt>
      <trkpt lat="48.50862" lon="-2.73063">
        <ele>48</ele>
        <time>2013-11-22T09:30:43Z</time>
      </trkpt>
      <trkpt lat="48.50861" lon="-2.73063">
        <ele>48</ele>
        <time>2013-11-22T09:30:44Z</time>
      </trkpt>
      <trkpt lat="48.50859" lon="-2.73063">
        <ele>48</ele>
        <time>2013-11-22T09:30:45Z</time>
      </trkpt>
      <trkpt lat="48.50856" lon="-2.73064">
        <ele>48</ele>
        <time>2013-11-22T09:30:47Z</time>
      </trkpt>
      <trkpt lat="48.50851" lon="-2.73064">
        <ele>48</ele>
        <time>2013-11-22T09:30:50Z</time>
      </trkpt>
      <trkpt lat="48.5085" lon="-2.73063">
        <ele>48</ele>
        <time>2013-11-22T09:30:51Z</time>
      </trkpt>
      <trkpt lat="48.50848" lon="-2.73063">
        <ele>48</ele>
        <time>2013-11-22T09:30:53Z</time>
      </trkpt>
      <trkpt lat="48.50845" lon="-2.73063">
        <ele>48</ele>
        <time>2013-11-22T09:30:55Z</time>
      </trkpt>
      <trkpt lat="48.50843" lon="-2.73062">
        <ele>48</ele>
        <time>2013-11-22T09:30:57Z</time>
      </trkpt>
      <trkpt lat="48.50842" lon="-2.73061">
        <ele>48</ele>
        <time>2013-11-22T09:30:58Z</time>
      </trkpt>
      <trkpt lat="48.50841" lon="-2.73061">
        <ele>48</ele>
        <time>2013-11-22T09:30:59Z</time>
      </trkpt>
      <trkpt lat="48.50838" lon="-2.73062">
        <ele>48</ele>
        <time>2013-11-22T09:31:01Z</time>
      </trkpt>
      <trkpt lat="48.50837" lon="-2.73063">
        <ele>48</ele>
        <time>2013-11-22T09:31:02Z</time>
      </trkpt>
      <trkpt lat="48.50835" lon="-2.73063">
        <ele>48</ele>
        <time>2013-11-22T09:31:03Z</time>
      </trkpt>
      <trkpt lat="48.50834" lon="-2.73064">
        <ele>48</ele>
        <time>2013-11-22T09:31:04Z</time>
      </trkpt>
      <trkpt lat="48.50832" lon="-2.73065">
        <ele>48</ele>
        <time>2013-11-22T09:31:05Z</time>
      </trkpt>
      <trkpt lat="48.50831" lon="-2.73065">
        <ele>48</ele>
        <time>2013-11-22T09:31:06Z</time>
      </trkpt>
      <trkpt lat="48.5083" lon="-2.73066">
        <ele>48</ele>
        <time>2013-11-22T09:31:07Z</time>
      </trkpt>
      <trkpt lat="48.50829" lon="-2.73066">
        <ele>48</ele>
        <time>2013-11-22T09:31:08Z</time>
      </trkpt>
      <trkpt lat="48.50827" lon="-2.73067">
        <ele>48</ele>
        <time>2013-11-22T09:31:09Z</time>
      </trkpt>
      <trkpt lat="48.50825" lon="-2.73067">
        <ele>48</ele>
        <time>2013-11-22T09:31:11Z</time>
      </trkpt>
      <trkpt lat="48.50824" lon="-2.73068">
        <ele>48</ele>
        <time>2013-11-22T09:31:13Z</time>
      </trkpt>
      <trkpt lat="48.50823" lon="-2.73067">
        <ele>48</ele>
        <time>2013-11-22T09:31:15Z</time>
      </trkpt>
      <trkpt lat="48.50821" lon="-2.73066">
        <ele>48</ele>
        <time>2013-11-22T09:31:17Z</time>
      </trkpt>
      <trkpt lat="48.50819" lon="-2.73064">
        <ele>48</ele>
        <time>2013-11-22T09:31:19Z</time>
      </trkpt>
      <trkpt lat="48.50817" lon="-2.73063">
        <ele>48</ele>
        <time>2013-11-22T09:31:21Z</time>
      </trkpt>
      <trkpt lat="48.50815" lon="-2.73062">
        <ele>48</ele>
        <time>2013-11-22T09:31:24Z</time>
      </trkpt>
      <trkpt lat="48.50813" lon="-2.73061">
        <ele>48</ele>
        <time>2013-11-22T09:31:26Z</time>
      </trkpt>
      <trkpt lat="48.50811" lon="-2.73061">
        <ele>48</ele>
        <time>2013-11-22T09:31:28Z</time>
      </trkpt>
      <trkpt lat="48.50809" lon="-2.73061">
        <ele>48</ele>
        <time>2013-11-22T09:31:29Z</time>
      </trkpt>
      <trkpt lat="48.50808" lon="-2.7306">
        <ele>48</ele>
        <time>2013-11-22T09:31:30Z</time>
      </trkpt>
      <trkpt lat="48.50807" lon="-2.7306">
        <ele>48</ele>
        <time>2013-11-22T09:31:31Z</time>
      </trkpt>
      <trkpt lat="48.50806" lon="-2.7306">
        <ele>48</ele>
        <time>2013-11-22T09:31:32Z</time>
      </trkpt>
      <trkpt lat="48.50803" lon="-2.7306">
        <ele>48</ele>
        <time>2013-11-22T09:31:34Z</time>
      </trkpt>
      <trkpt lat="48.50802" lon="-2.7306">
        <ele>48</ele>
        <time>2013-11-22T09:31:35Z</time>
      </trkpt>
      <trkpt lat="48.508" lon="-2.7306">
        <ele>48</ele>
        <time>2013-11-22T09:31:37Z</time>
      </trkpt>
      <trkpt lat="48.50798" lon="-2.7306">
        <ele>48</ele>
        <time>2013-11-22T09:31:41Z</time>
      </trkpt>
      <trkpt lat="48.50796" lon="-2.7306">
        <ele>48</ele>
        <time>2013-11-22T09:31:45Z</time>
      </trkpt>
      <trkpt lat="48.50797" lon="-2.73058">
        <ele>50</ele>
        <time>2013-11-22T09:32:09Z</time>
      </trkpt>
      <trkpt lat="48.50795" lon="-2.73059">
        <ele>50</ele>
        <time>2013-11-22T09:32:55Z</time>
      </trkpt>
      <trkpt lat="48.50794" lon="-2.73059">
        <ele>50</ele>
        <time>2013-11-22T09:32:56Z</time>
      </trkpt>
      <trkpt lat="48.50792" lon="-2.73059">
        <ele>50</ele>
        <time>2013-11-22T09:32:57Z</time>
      </trkpt>
      <trkpt lat="48.50791" lon="-2.73059">
        <ele>50</ele>
        <time>2013-11-22T09:32:58Z</time>
      </trkpt>
      <trkpt lat="48.50788" lon="-2.73059">
        <ele>50</ele>
        <time>2013-11-22T09:33:00Z</time>
      </trkpt>
      <trkpt lat="48.50787" lon="-2.73059">
        <ele>50</ele>
        <time>2013-11-22T09:33:01Z</time>
      </trkpt>
      <trkpt lat="48.50785" lon="-2.73059">
        <ele>50</ele>
        <time>2013-11-22T09:33:02Z</time>
      </trkpt>
      <trkpt lat="48.50784" lon="-2.7306">
        <ele>50</ele>
        <time>2013-11-22T09:33:03Z</time>
      </trkpt>
      <trkpt lat="48.50783" lon="-2.7306">
        <ele>50</ele>
        <time>2013-11-22T09:33:04Z</time>
      </trkpt>
      <trkpt lat="48.50781" lon="-2.7306">
        <ele>50</ele>
        <time>2013-11-22T09:33:06Z</time>
      </trkpt>
      <trkpt lat="48.50779" lon="-2.7306">
        <ele>50</ele>
        <time>2013-11-22T09:33:07Z</time>
      </trkpt>
      <trkpt lat="48.50778" lon="-2.7306">
        <ele>50</ele>
        <time>2013-11-22T09:33:08Z</time>
      </trkpt>
      <trkpt lat="48.50777" lon="-2.73059">
        <ele>50</ele>
        <time>2013-11-22T09:33:10Z</time>
      </trkpt>
      <trkpt lat="48.50776" lon="-2.73058">
        <ele>50</ele>
        <time>2013-11-22T09:33:15Z</time>
      </trkpt>
      <trkpt lat="48.50774" lon="-2.73056">
        <ele>50</ele>
        <time>2013-11-22T09:33:17Z</time>
      </trkpt>
      <trkpt lat="48.50773" lon="-2.73055">
        <ele>50</ele>
        <time>2013-11-22T09:33:21Z</time>
      </trkpt>
      <trkpt lat="48.50771" lon="-2.73053">
        <ele>50</ele>
        <time>2013-11-22T09:33:23Z</time>
      </trkpt>
      <trkpt lat="48.50769" lon="-2.73051">
        <ele>50</ele>
        <time>2013-11-22T09:33:25Z</time>
      </trkpt>
      <trkpt lat="48.50768" lon="-2.73049">
        <ele>50</ele>
        <time>2013-11-22T09:33:27Z</time>
      </trkpt>
      <trkpt lat="48.50766" lon="-2.73048">
        <ele>50</ele>
        <time>2013-11-22T09:33:29Z</time>
      </trkpt>
      <trkpt lat="48.50765" lon="-2.73046">
        <ele>50</ele>
        <time>2013-11-22T09:33:31Z</time>
      </trkpt>
      <trkpt lat="48.50763" lon="-2.73045">
        <ele>50</ele>
        <time>2013-11-22T09:33:33Z</time>
      </trkpt>
      <trkpt lat="48.50761" lon="-2.73044">
        <ele>50</ele>
        <time>2013-11-22T09:33:35Z</time>
      </trkpt>
      <trkpt lat="48.50758" lon="-2.73042">
        <ele>50</ele>
        <time>2013-11-22T09:33:39Z</time>
      </trkpt>
      <trkpt lat="48.50757" lon="-2.73041">
        <ele>50</ele>
        <time>2013-11-22T09:33:40Z</time>
      </trkpt>
      <trkpt lat="48.50756" lon="-2.73041">
        <ele>50</ele>
        <time>2013-11-22T09:33:41Z</time>
      </trkpt>
      <trkpt lat="48.50754" lon="-2.7304">
        <ele>50</ele>
        <time>2013-11-22T09:33:43Z</time>
      </trkpt>
      <trkpt lat="48.50753" lon="-2.73039">
        <ele>50</ele>
        <time>2013-11-22T09:33:44Z</time>
      </trkpt>
      <trkpt lat="48.50751" lon="-2.73039">
        <ele>50</ele>
        <time>2013-11-22T09:33:45Z</time>
      </trkpt>
      <trkpt lat="48.5075" lon="-2.73039">
        <ele>50</ele>
        <time>2013-11-22T09:33:46Z</time>
      </trkpt>
      <trkpt lat="48.50748" lon="-2.73039">
        <ele>50</ele>
        <time>2013-11-22T09:33:47Z</time>
      </trkpt>
      <trkpt lat="48.50747" lon="-2.73038">
        <ele>50</ele>
        <time>2013-11-22T09:33:48Z</time>
      </trkpt>
      <trkpt lat="48.50746" lon="-2.73038">
        <ele>50</ele>
        <time>2013-11-22T09:33:49Z</time>
      </trkpt>
      <trkpt lat="48.50744" lon="-2.73038">
        <ele>50</ele>
        <time>2013-11-22T09:33:50Z</time>
      </trkpt>
      <trkpt lat="48.50741" lon="-2.73038">
        <ele>50</ele>
        <time>2013-11-22T09:33:53Z</time>
      </trkpt>
      <trkpt lat="48.50739" lon="-2.73039">
        <ele>50</ele>
        <time>2013-11-22T09:33:54Z</time>
      </trkpt>
      <trkpt lat="48.50738" lon="-2.73038">
        <ele>50</ele>
        <time>2013-11-22T09:33:56Z</time>
      </trkpt>
      <trkpt lat="48.50735" lon="-2.73038">
        <ele>50</ele>
        <time>2013-11-22T09:33:58Z</time>
      </trkpt>
      <trkpt lat="48.50732" lon="-2.73039">
        <ele>50</ele>
        <time>2013-11-22T09:34:00Z</time>
      </trkpt>
      <trkpt lat="48.50731" lon="-2.73039">
        <ele>50</ele>
        <time>2013-11-22T09:34:01Z</time>
      </trkpt>
      <trkpt lat="48.5073" lon="-2.7304">
        <ele>50</ele>
        <time>2013-11-22T09:34:02Z</time>
      </trkpt>
      <trkpt lat="48.50728" lon="-2.73041">
        <ele>50</ele>
        <time>2013-11-22T09:34:03Z</time>
      </trkpt>
      <trkpt lat="48.50726" lon="-2.73042">
        <ele>50</ele>
        <time>2013-11-22T09:34:04Z</time>
      </trkpt>
      <trkpt lat="48.50725" lon="-2.73042">
        <ele>50</ele>
        <time>2013-11-22T09:34:05Z</time>
      </trkpt>
      <trkpt lat="48.50723" lon="-2.73043">
        <ele>50</ele>
        <time>2013-11-22T09:34:06Z</time>
      </trkpt>
      <trkpt lat="48.50722" lon="-2.73043">
        <ele>50</ele>
        <time>2013-11-22T09:34:07Z</time>
      </trkpt>
      <trkpt lat="48.50721" lon="-2.73043">
        <ele>50</ele>
        <time>2013-11-22T09:34:09Z</time>
      </trkpt>
      <trkpt lat="48.50719" lon="-2.73044">
        <ele>50</ele>
        <time>2013-11-22T09:34:12Z</time>
      </trkpt>
      <trkpt lat="48.50718" lon="-2.73044">
        <ele>50</ele>
        <time>2013-11-22T09:34:18Z</time>
      </trkpt>
      <trkpt lat="48.50717" lon="-2.73044">
        <ele>50</ele>
        <time>2013-11-22T09:34:34Z</time>
      </trkpt>
      <trkpt lat="48.50717" lon="-2.73046">
        <ele>50</ele>
        <time>2013-11-22T09:34:42Z</time>
      </trkpt>
      <trkpt lat="48.50718" lon="-2.73045">
        <ele>50</ele>
        <time>2013-11-22T09:34:59Z</time>
      </trkpt>
      <trkpt lat="48.50719" lon="-2.73044">
        <ele>50</ele>
        <time>2013-11-22T09:35:04Z</time>
      </trkpt>
      <trkpt lat="48.50718" lon="-2.73042">
        <ele>50</ele>
        <time>2013-11-22T09:35:26Z</time>
      </trkpt>
      <trkpt lat="48.50716" lon="-2.73043">
        <ele>50</ele>
        <time>2013-11-22T09:35:28Z</time>
      </trkpt>
      <trkpt lat="48.50715" lon="-2.73043">
        <ele>50</ele>
        <time>2013-11-22T09:35:29Z</time>
      </trkpt>
      <trkpt lat="48.50713" lon="-2.73044">
        <ele>50</ele>
        <time>2013-11-22T09:35:30Z</time>
      </trkpt>
      <trkpt lat="48.50711" lon="-2.73043">
        <ele>50</ele>
        <time>2013-11-22T09:35:32Z</time>
      </trkpt>
      <trkpt lat="48.5071" lon="-2.73043">
        <ele>50</ele>
        <time>2013-11-22T09:35:33Z</time>
      </trkpt>
      <trkpt lat="48.50708" lon="-2.73043">
        <ele>50</ele>
        <time>2013-11-22T09:35:41Z</time>
      </trkpt>
      <trkpt lat="48.50707" lon="-2.73043">
        <ele>50</ele>
        <time>2013-11-22T09:35:42Z</time>
      </trkpt>
      <trkpt lat="48.50705" lon="-2.73042">
        <ele>50</ele>
        <time>2013-11-22T09:35:43Z</time>
      </trkpt>
      <trkpt lat="48.50704" lon="-2.73042">
        <ele>50</ele>
        <time>2013-11-22T09:35:44Z</time>
      </trkpt>
      <trkpt lat="48.50703" lon="-2.73041">
        <ele>50</ele>
        <time>2013-11-22T09:35:45Z</time>
      </trkpt>
      <trkpt lat="48.50701" lon="-2.7304">
        <ele>50</ele>
        <time>2013-11-22T09:35:47Z</time>
      </trkpt>
      <trkpt lat="48.50699" lon="-2.73039">
        <ele>50</ele>
        <time>2013-11-22T09:35:49Z</time>
      </trkpt>
      <trkpt lat="48.50697" lon="-2.73038">
        <ele>50</ele>
        <time>2013-11-22T09:35:50Z</time>
      </trkpt>
      <trkpt lat="48.50695" lon="-2.73038">
        <ele>50</ele>
        <time>2013-11-22T09:35:51Z</time>
      </trkpt>
      <trkpt lat="48.50693" lon="-2.73038">
        <ele>50</ele>
        <time>2013-11-22T09:35:52Z</time>
      </trkpt>
      <trkpt lat="48.50692" lon="-2.73037">
        <ele>50</ele>
        <time>2013-11-22T09:35:53Z</time>
      </trkpt>
      <trkpt lat="48.5069" lon="-2.73036">
        <ele>50</ele>
        <time>2013-11-22T09:35:54Z</time>
      </trkpt>
      <trkpt lat="48.50689" lon="-2.73035">
        <ele>50</ele>
        <time>2013-11-22T09:35:55Z</time>
      </trkpt>
      <trkpt lat="48.50687" lon="-2.73035">
        <ele>50</ele>
        <time>2013-11-22T09:35:56Z</time>
      </trkpt>
      <trkpt lat="48.50686" lon="-2.73034">
        <ele>50</ele>
        <time>2013-11-22T09:35:57Z</time>
      </trkpt>
      <trkpt lat="48.50684" lon="-2.73034">
        <ele>50</ele>
        <time>2013-11-22T09:35:58Z</time>
      </trkpt>
      <trkpt lat="48.50679" lon="-2.73033">
        <ele>50</ele>
        <time>2013-11-22T09:36:01Z</time>
      </trkpt>
      <trkpt lat="48.50677" lon="-2.73033">
        <ele>50</ele>
        <time>2013-11-22T09:36:02Z</time>
      </trkpt>
      <trkpt lat="48.50676" lon="-2.73032">
        <ele>50</ele>
        <time>2013-11-22T09:36:03Z</time>
      </trkpt>
      <trkpt lat="48.50675" lon="-2.73032">
        <ele>50</ele>
        <time>2013-11-22T09:36:04Z</time>
      </trkpt>
      <trkpt lat="48.50673" lon="-2.73032">
        <ele>50</ele>
        <time>2013-11-22T09:36:05Z</time>
      </trkpt>
      <trkpt lat="48.50671" lon="-2.73031">
        <ele>50</ele>
        <time>2013-11-22T09:36:06Z</time>
      </trkpt>
      <trkpt lat="48.50669" lon="-2.73031">
        <ele>50</ele>
        <time>2013-11-22T09:36:07Z</time>
      </trkpt>
      <trkpt lat="48.50668" lon="-2.73031">
        <ele>50</ele>
        <time>2013-11-22T09:36:08Z</time>
      </trkpt>
      <trkpt lat="48.50666" lon="-2.73031">
        <ele>50</ele>
        <time>2013-11-22T09:36:09Z</time>
      </trkpt>
      <trkpt lat="48.50664" lon="-2.7303">
        <ele>50</ele>
        <time>2013-11-22T09:36:10Z</time>
      </trkpt>
      <trkpt lat="48.50661" lon="-2.7303">
        <ele>50</ele>
        <time>2013-11-22T09:36:12Z</time>
      </trkpt>
      <trkpt lat="48.5066" lon="-2.7303">
        <ele>50</ele>
        <time>2013-11-22T09:36:13Z</time>
      </trkpt>
      <trkpt lat="48.50658" lon="-2.73031">
        <ele>50</ele>
        <time>2013-11-22T09:36:15Z</time>
      </trkpt>
      <trkpt lat="48.50657" lon="-2.73031">
        <ele>50</ele>
        <time>2013-11-22T09:36:15Z</time>
      </trkpt>
      <trkpt lat="48.50655" lon="-2.73031">
        <ele>50</ele>
        <time>2013-11-22T09:36:16Z</time>
      </trkpt>
      <trkpt lat="48.50653" lon="-2.73031">
        <ele>50</ele>
        <time>2013-11-22T09:36:17Z</time>
      </trkpt>
      <trkpt lat="48.50652" lon="-2.73032">
        <ele>50</ele>
        <time>2013-11-22T09:36:18Z</time>
      </trkpt>
      <trkpt lat="48.50651" lon="-2.73032">
        <ele>50</ele>
        <time>2013-11-22T09:36:19Z</time>
      </trkpt>
      <trkpt lat="48.5065" lon="-2.73032">
        <ele>50</ele>
        <time>2013-11-22T09:36:20Z</time>
      </trkpt>
      <trkpt lat="48.50647" lon="-2.73032">
        <ele>50</ele>
        <time>2013-11-22T09:36:22Z</time>
      </trkpt>
      <trkpt lat="48.50645" lon="-2.73032">
        <ele>50</ele>
        <time>2013-11-22T09:36:23Z</time>
      </trkpt>
      <trkpt lat="48.50643" lon="-2.73031">
        <ele>50</ele>
        <time>2013-11-22T09:36:25Z</time>
      </trkpt>
      <trkpt lat="48.50642" lon="-2.73031">
        <ele>50</ele>
        <time>2013-11-22T09:36:26Z</time>
      </trkpt>
      <trkpt lat="48.50641" lon="-2.7303">
        <ele>50</ele>
        <time>2013-11-22T09:36:27Z</time>
      </trkpt>
      <trkpt lat="48.5064" lon="-2.7303">
        <ele>50</ele>
        <time>2013-11-22T09:36:28Z</time>
      </trkpt>
      <trkpt lat="48.50639" lon="-2.73029">
        <ele>50</ele>
        <time>2013-11-22T09:36:29Z</time>
      </trkpt>
      <trkpt lat="48.50636" lon="-2.73028">
        <ele>50</ele>
        <time>2013-11-22T09:36:31Z</time>
      </trkpt>
      <trkpt lat="48.50634" lon="-2.73027">
        <ele>50</ele>
        <time>2013-11-22T09:36:33Z</time>
      </trkpt>
      <trkpt lat="48.50633" lon="-2.73026">
        <ele>50</ele>
        <time>2013-11-22T09:36:35Z</time>
      </trkpt>
      <trkpt lat="48.50632" lon="-2.73025">
        <ele>50</ele>
        <time>2013-11-22T09:36:39Z</time>
      </trkpt>
      <trkpt lat="48.5063" lon="-2.73025">
        <ele>50</ele>
        <time>2013-11-22T09:36:43Z</time>
      </trkpt>
      <trkpt lat="48.50629" lon="-2.73026">
        <ele>50</ele>
        <time>2013-11-22T09:36:44Z</time>
      </trkpt>
      <trkpt lat="48.50628" lon="-2.73026">
        <ele>50</ele>
        <time>2013-11-22T09:36:45Z</time>
      </trkpt>
      <trkpt lat="48.50625" lon="-2.73026">
        <ele>50</ele>
        <time>2013-11-22T09:36:47Z</time>
      </trkpt>
      <trkpt lat="48.50623" lon="-2.73025">
        <ele>50</ele>
        <time>2013-11-22T09:36:48Z</time>
      </trkpt>
      <trkpt lat="48.50622" lon="-2.73025">
        <ele>50</ele>
        <time>2013-11-22T09:36:49Z</time>
      </trkpt>
      <trkpt lat="48.50621" lon="-2.73025">
        <ele>50</ele>
        <time>2013-11-22T09:36:50Z</time>
      </trkpt>
      <trkpt lat="48.50617" lon="-2.73025">
        <ele>50</ele>
        <time>2013-11-22T09:36:52Z</time>
      </trkpt>
      <trkpt lat="48.50616" lon="-2.73024">
        <ele>50</ele>
        <time>2013-11-22T09:36:53Z</time>
      </trkpt>
      <trkpt lat="48.50614" lon="-2.73023">
        <ele>50</ele>
        <time>2013-11-22T09:36:55Z</time>
      </trkpt>
      <trkpt lat="48.50613" lon="-2.73023">
        <ele>50</ele>
        <time>2013-11-22T09:36:57Z</time>
      </trkpt>
      <trkpt lat="48.50611" lon="-2.73021">
        <ele>50</ele>
        <time>2013-11-22T09:36:59Z</time>
      </trkpt>
      <trkpt lat="48.5061" lon="-2.73018">
        <ele>50</ele>
        <time>2013-11-22T09:37:01Z</time>
      </trkpt>
      <trkpt lat="48.5061" lon="-2.73016">
        <ele>50</ele>
        <time>2013-11-22T09:37:03Z</time>
      </trkpt>
      <trkpt lat="48.50609" lon="-2.73017">
        <ele>50</ele>
        <time>2013-11-22T09:37:06Z</time>
      </trkpt>
      <trkpt lat="48.50607" lon="-2.73018">
        <ele>50</ele>
        <time>2013-11-22T09:37:08Z</time>
      </trkpt>
      <trkpt lat="48.50606" lon="-2.7302">
        <ele>50</ele>
        <time>2013-11-22T09:37:10Z</time>
      </trkpt>
      <trkpt lat="48.50604" lon="-2.73021">
        <ele>50</ele>
        <time>2013-11-22T09:37:12Z</time>
      </trkpt>
      <trkpt lat="48.50603" lon="-2.73022">
        <ele>50</ele>
        <time>2013-11-22T09:37:14Z</time>
      </trkpt>
      <trkpt lat="48.50602" lon="-2.73025">
        <ele>50</ele>
        <time>2013-11-22T09:37:16Z</time>
      </trkpt>
      <trkpt lat="48.506" lon="-2.73025">
        <ele>50</ele>
        <time>2013-11-22T09:37:18Z</time>
      </trkpt>
      <trkpt lat="48.50599" lon="-2.73024">
        <ele>50</ele>
        <time>2013-11-22T09:37:19Z</time>
      </trkpt>
      <trkpt lat="48.50597" lon="-2.73021">
        <ele>50</ele>
        <time>2013-11-22T09:37:21Z</time>
      </trkpt>
      <trkpt lat="48.50596" lon="-2.73018">
        <ele>50</ele>
        <time>2013-11-22T09:37:23Z</time>
      </trkpt>
      <trkpt lat="48.50594" lon="-2.73016">
        <ele>50</ele>
        <time>2013-11-22T09:37:25Z</time>
      </trkpt>
      <trkpt lat="48.50592" lon="-2.73015">
        <ele>50</ele>
        <time>2013-11-22T09:37:26Z</time>
      </trkpt>
      <trkpt lat="48.50591" lon="-2.73014">
        <ele>50</ele>
        <time>2013-11-22T09:37:28Z</time>
      </trkpt>
      <trkpt lat="48.50589" lon="-2.73013">
        <ele>50</ele>
        <time>2013-11-22T09:37:29Z</time>
      </trkpt>
      <trkpt lat="48.50588" lon="-2.73012">
        <ele>50</ele>
        <time>2013-11-22T09:37:30Z</time>
      </trkpt>
      <trkpt lat="48.50586" lon="-2.73011">
        <ele>50</ele>
        <time>2013-11-22T09:37:32Z</time>
      </trkpt>
      <trkpt lat="48.50585" lon="-2.73009">
        <ele>50</ele>
        <time>2013-11-22T09:37:34Z</time>
      </trkpt>
      <trkpt lat="48.50583" lon="-2.73007">
        <ele>50</ele>
        <time>2013-11-22T09:37:36Z</time>
      </trkpt>
      <trkpt lat="48.50581" lon="-2.73004">
        <ele>50</ele>
        <time>2013-11-22T09:37:38Z</time>
      </trkpt>
      <trkpt lat="48.50579" lon="-2.73002">
        <ele>50</ele>
        <time>2013-11-22T09:37:40Z</time>
      </trkpt>
      <trkpt lat="48.50578" lon="-2.73">
        <ele>50</ele>
        <time>2013-11-22T09:37:42Z</time>
      </trkpt>
      <trkpt lat="48.50576" lon="-2.72998">
        <ele>50</ele>
        <time>2013-11-22T09:37:44Z</time>
      </trkpt>
      <trkpt lat="48.50574" lon="-2.72996">
        <ele>50</ele>
        <time>2013-11-22T09:37:46Z</time>
      </trkpt>
      <trkpt lat="48.50572" lon="-2.72994">
        <ele>50</ele>
        <time>2013-11-22T09:37:48Z</time>
      </trkpt>
      <trkpt lat="48.50571" lon="-2.72992">
        <ele>50</ele>
        <time>2013-11-22T09:37:49Z</time>
      </trkpt>
      <trkpt lat="48.5057" lon="-2.72991">
        <ele>50</ele>
        <time>2013-11-22T09:37:50Z</time>
      </trkpt>
      <trkpt lat="48.50569" lon="-2.72988">
        <ele>50</ele>
        <time>2013-11-22T09:37:52Z</time>
      </trkpt>
      <trkpt lat="48.50568" lon="-2.72986">
        <ele>50</ele>
        <time>2013-11-22T09:37:53Z</time>
      </trkpt>
      <trkpt lat="48.50568" lon="-2.72982">
        <ele>50</ele>
        <time>2013-11-22T09:37:55Z</time>
      </trkpt>
      <trkpt lat="48.50567" lon="-2.72979">
        <ele>50</ele>
        <time>2013-11-22T09:37:57Z</time>
      </trkpt>
      <trkpt lat="48.50566" lon="-2.72976">
        <ele>50</ele>
        <time>2013-11-22T09:37:59Z</time>
      </trkpt>
      <trkpt lat="48.50567" lon="-2.72967">
        <ele>50</ele>
        <time>2013-11-22T09:38:04Z</time>
      </trkpt>
      <trkpt lat="48.50566" lon="-2.72955">
        <ele>50</ele>
        <time>2013-11-22T09:38:10Z</time>
      </trkpt>
      <trkpt lat="48.50566" lon="-2.72953">
        <ele>50</ele>
        <time>2013-11-22T09:38:11Z</time>
      </trkpt>
      <trkpt lat="48.50565" lon="-2.72952">
        <ele>50</ele>
        <time>2013-11-22T09:38:12Z</time>
      </trkpt>
      <trkpt lat="48.50565" lon="-2.7295">
        <ele>50</ele>
        <time>2013-11-22T09:38:13Z</time>
      </trkpt>
      <trkpt lat="48.50564" lon="-2.72948">
        <ele>50</ele>
        <time>2013-11-22T09:38:15Z</time>
      </trkpt>
      <trkpt lat="48.50562" lon="-2.72945">
        <ele>50</ele>
        <time>2013-11-22T09:38:17Z</time>
      </trkpt>
      <trkpt lat="48.50564" lon="-2.72944">
        <ele>50</ele>
        <time>2013-11-22T09:38:20Z</time>
      </trkpt>
      <trkpt lat="48.50565" lon="-2.72944">
        <ele>50</ele>
        <time>2013-11-22T09:38:21Z</time>
      </trkpt>
      <trkpt lat="48.50566" lon="-2.72944">
        <ele>50</ele>
        <time>2013-11-22T09:38:22Z</time>
      </trkpt>
      <trkpt lat="48.50568" lon="-2.72945">
        <ele>50</ele>
        <time>2013-11-22T09:38:24Z</time>
      </trkpt>
      <trkpt lat="48.50566" lon="-2.72944">
        <ele>50</ele>
        <time>2013-11-22T09:38:36Z</time>
      </trkpt>
      <trkpt lat="48.50564" lon="-2.72944">
        <ele>50</ele>
        <time>2013-11-22T09:38:38Z</time>
      </trkpt>
      <trkpt lat="48.50563" lon="-2.72944">
        <ele>50</ele>
        <time>2013-11-22T09:38:39Z</time>
      </trkpt>
      <trkpt lat="48.50561" lon="-2.72944">
        <ele>50</ele>
        <time>2013-11-22T09:38:40Z</time>
      </trkpt>
      <trkpt lat="48.5056" lon="-2.72943">
        <ele>50</ele>
        <time>2013-11-22T09:38:41Z</time>
      </trkpt>
      <trkpt lat="48.50558" lon="-2.72943">
        <ele>50</ele>
        <time>2013-11-22T09:38:42Z</time>
      </trkpt>
      <trkpt lat="48.50556" lon="-2.72943">
        <ele>50</ele>
        <time>2013-11-22T09:38:43Z</time>
      </trkpt>
      <trkpt lat="48.50555" lon="-2.72942">
        <ele>50</ele>
        <time>2013-11-22T09:38:44Z</time>
      </trkpt>
      <trkpt lat="48.50553" lon="-2.72942">
        <ele>50</ele>
        <time>2013-11-22T09:38:45Z</time>
      </trkpt>
      <trkpt lat="48.5055" lon="-2.72942">
        <ele>50</ele>
        <time>2013-11-22T09:38:47Z</time>
      </trkpt>
      <trkpt lat="48.50547" lon="-2.72942">
        <ele>50</ele>
        <time>2013-11-22T09:38:49Z</time>
      </trkpt>
      <trkpt lat="48.50546" lon="-2.72941">
        <ele>50</ele>
        <time>2013-11-22T09:38:50Z</time>
      </trkpt>
      <trkpt lat="48.50544" lon="-2.72941">
        <ele>50</ele>
        <time>2013-11-22T09:38:51Z</time>
      </trkpt>
      <trkpt lat="48.50542" lon="-2.72941">
        <ele>50</ele>
        <time>2013-11-22T09:38:53Z</time>
      </trkpt>
      <trkpt lat="48.5054" lon="-2.72941">
        <ele>50</ele>
        <time>2013-11-22T09:38:54Z</time>
      </trkpt>
      <trkpt lat="48.50539" lon="-2.72941">
        <ele>50</ele>
        <time>2013-11-22T09:38:55Z</time>
      </trkpt>
      <trkpt lat="48.50536" lon="-2.72941">
        <ele>50</ele>
        <time>2013-11-22T09:38:58Z</time>
      </trkpt>
      <trkpt lat="48.50532" lon="-2.72941">
        <ele>50</ele>
        <time>2013-11-22T09:39:01Z</time>
      </trkpt>
      <trkpt lat="48.5053" lon="-2.72941">
        <ele>50</ele>
        <time>2013-11-22T09:39:02Z</time>
      </trkpt>
      <trkpt lat="48.50528" lon="-2.72941">
        <ele>50</ele>
        <time>2013-11-22T09:39:04Z</time>
      </trkpt>
      <trkpt lat="48.50526" lon="-2.72941">
        <ele>50</ele>
        <time>2013-11-22T09:39:05Z</time>
      </trkpt>
      <trkpt lat="48.50525" lon="-2.72941">
        <ele>50</ele>
        <time>2013-11-22T09:39:06Z</time>
      </trkpt>
      <trkpt lat="48.50524" lon="-2.72942">
        <ele>50</ele>
        <time>2013-11-22T09:39:07Z</time>
      </trkpt>
      <trkpt lat="48.50523" lon="-2.72942">
        <ele>50</ele>
        <time>2013-11-22T09:39:08Z</time>
      </trkpt>
      <trkpt lat="48.50521" lon="-2.72942">
        <ele>50</ele>
        <time>2013-11-22T09:39:09Z</time>
      </trkpt>
      <trkpt lat="48.5052" lon="-2.72942">
        <ele>50</ele>
        <time>2013-11-22T09:39:10Z</time>
      </trkpt>
      <trkpt lat="48.50518" lon="-2.72943">
        <ele>50</ele>
        <time>2013-11-22T09:39:11Z</time>
      </trkpt>
      <trkpt lat="48.50517" lon="-2.72943">
        <ele>50</ele>
        <time>2013-11-22T09:39:12Z</time>
      </trkpt>
      <trkpt lat="48.50516" lon="-2.72943">
        <ele>50</ele>
        <time>2013-11-22T09:39:13Z</time>
      </trkpt>
      <trkpt lat="48.50515" lon="-2.72943">
        <ele>50</ele>
        <time>2013-11-22T09:39:14Z</time>
      </trkpt>
      <trkpt lat="48.50513" lon="-2.72944">
        <ele>50</ele>
        <time>2013-11-22T09:39:15Z</time>
      </trkpt>
      <trkpt lat="48.50512" lon="-2.72944">
        <ele>50</ele>
        <time>2013-11-22T09:39:16Z</time>
      </trkpt>
      <trkpt lat="48.5051" lon="-2.72944">
        <ele>50</ele>
        <time>2013-11-22T09:39:17Z</time>
      </trkpt>
      <trkpt lat="48.50505" lon="-2.72945">
        <ele>50</ele>
        <time>2013-11-22T09:39:20Z</time>
      </trkpt>
      <trkpt lat="48.50504" lon="-2.72945">
        <ele>50</ele>
        <time>2013-11-22T09:39:21Z</time>
      </trkpt>
      <trkpt lat="48.50502" lon="-2.72946">
        <ele>50</ele>
        <time>2013-11-22T09:39:22Z</time>
      </trkpt>
      <trkpt lat="48.50501" lon="-2.72947">
        <ele>50</ele>
        <time>2013-11-22T09:39:23Z</time>
      </trkpt>
      <trkpt lat="48.505" lon="-2.72947">
        <ele>50</ele>
        <time>2013-11-22T09:39:24Z</time>
      </trkpt>
      <trkpt lat="48.50498" lon="-2.72948">
        <ele>50</ele>
        <time>2013-11-22T09:39:25Z</time>
      </trkpt>
      <trkpt lat="48.50496" lon="-2.72948">
        <ele>50</ele>
        <time>2013-11-22T09:39:27Z</time>
      </trkpt>
      <trkpt lat="48.50494" lon="-2.72948">
        <ele>50</ele>
        <time>2013-11-22T09:39:28Z</time>
      </trkpt>
      <trkpt lat="48.50492" lon="-2.72948">
        <ele>50</ele>
        <time>2013-11-22T09:39:29Z</time>
      </trkpt>
      <trkpt lat="48.50491" lon="-2.72948">
        <ele>50</ele>
        <time>2013-11-22T09:39:30Z</time>
      </trkpt>
      <trkpt lat="48.50489" lon="-2.72949">
        <ele>50</ele>
        <time>2013-11-22T09:39:31Z</time>
      </trkpt>
      <trkpt lat="48.50487" lon="-2.72949">
        <ele>50</ele>
        <time>2013-11-22T09:39:32Z</time>
      </trkpt>
      <trkpt lat="48.50486" lon="-2.72949">
        <ele>50</ele>
        <time>2013-11-22T09:39:33Z</time>
      </trkpt>
      <trkpt lat="48.50484" lon="-2.72949">
        <ele>50</ele>
        <time>2013-11-22T09:39:34Z</time>
      </trkpt>
      <trkpt lat="48.50483" lon="-2.72949">
        <ele>50</ele>
        <time>2013-11-22T09:39:35Z</time>
      </trkpt>
      <trkpt lat="48.50481" lon="-2.72948">
        <ele>50</ele>
        <time>2013-11-22T09:39:36Z</time>
      </trkpt>
      <trkpt lat="48.5048" lon="-2.72948">
        <ele>50</ele>
        <time>2013-11-22T09:39:37Z</time>
      </trkpt>
      <trkpt lat="48.50478" lon="-2.72948">
        <ele>50</ele>
        <time>2013-11-22T09:39:38Z</time>
      </trkpt>
      <trkpt lat="48.50476" lon="-2.72948">
        <ele>50</ele>
        <time>2013-11-22T09:39:39Z</time>
      </trkpt>
      <trkpt lat="48.50473" lon="-2.72948">
        <ele>50</ele>
        <time>2013-11-22T09:39:41Z</time>
      </trkpt>
      <trkpt lat="48.50472" lon="-2.72948">
        <ele>50</ele>
        <time>2013-11-22T09:39:42Z</time>
      </trkpt>
      <trkpt lat="48.5047" lon="-2.72947">
        <ele>50</ele>
        <time>2013-11-22T09:39:43Z</time>
      </trkpt>
      <trkpt lat="48.50468" lon="-2.72946">
        <ele>50</ele>
        <time>2013-11-22T09:39:44Z</time>
      </trkpt>
      <trkpt lat="48.50467" lon="-2.72946">
        <ele>50</ele>
        <time>2013-11-22T09:39:45Z</time>
      </trkpt>
      <trkpt lat="48.50465" lon="-2.72945">
        <ele>50</ele>
        <time>2013-11-22T09:39:46Z</time>
      </trkpt>
      <trkpt lat="48.50464" lon="-2.72944">
        <ele>50</ele>
        <time>2013-11-22T09:39:47Z</time>
      </trkpt>
      <trkpt lat="48.50462" lon="-2.72941">
        <ele>50</ele>
        <time>2013-11-22T09:39:49Z</time>
      </trkpt>
      <trkpt lat="48.50461" lon="-2.72938">
        <ele>50</ele>
        <time>2013-11-22T09:39:51Z</time>
      </trkpt>
      <trkpt lat="48.5046" lon="-2.72937">
        <ele>50</ele>
        <time>2013-11-22T09:39:52Z</time>
      </trkpt>
      <trkpt lat="48.50459" lon="-2.72936">
        <ele>50</ele>
        <time>2013-11-22T09:39:53Z</time>
      </trkpt>
      <trkpt lat="48.50457" lon="-2.72934">
        <ele>50</ele>
        <time>2013-11-22T09:39:54Z</time>
      </trkpt>
      <trkpt lat="48.50456" lon="-2.72932">
        <ele>51</ele>
        <time>2013-11-22T09:39:56Z</time>
      </trkpt>
      <trkpt lat="48.50455" lon="-2.7293">
        <ele>51</ele>
        <time>2013-11-22T09:39:57Z</time>
      </trkpt>
      <trkpt lat="48.50455" lon="-2.72928">
        <ele>51</ele>
        <time>2013-11-22T09:39:58Z</time>
      </trkpt>
      <trkpt lat="48.50454" lon="-2.72927">
        <ele>51</ele>
        <time>2013-11-22T09:39:59Z</time>
      </trkpt>
      <trkpt lat="48.50453" lon="-2.72924">
        <ele>52</ele>
        <time>2013-11-22T09:40:01Z</time>
      </trkpt>
      <trkpt lat="48.50452" lon="-2.72922">
        <ele>52</ele>
        <time>2013-11-22T09:40:02Z</time>
      </trkpt>
      <trkpt lat="48.50451" lon="-2.72919">
        <ele>52</ele>
        <time>2013-11-22T09:40:04Z</time>
      </trkpt>
      <trkpt lat="48.5045" lon="-2.72918">
        <ele>52</ele>
        <time>2013-11-22T09:40:06Z</time>
      </trkpt>
      <trkpt lat="48.50449" lon="-2.72916">
        <ele>53</ele>
        <time>2013-11-22T09:40:08Z</time>
      </trkpt>
      <trkpt lat="48.50448" lon="-2.72914">
        <ele>53</ele>
        <time>2013-11-22T09:40:10Z</time>
      </trkpt>
      <trkpt lat="48.50447" lon="-2.72912">
        <ele>53</ele>
        <time>2013-11-22T09:40:11Z</time>
      </trkpt>
      <trkpt lat="48.50446" lon="-2.72909">
        <ele>54</ele>
        <time>2013-11-22T09:40:13Z</time>
      </trkpt>
      <trkpt lat="48.50446" lon="-2.72907">
        <ele>54</ele>
        <time>2013-11-22T09:40:14Z</time>
      </trkpt>
      <trkpt lat="48.50446" lon="-2.72905">
        <ele>54</ele>
        <time>2013-11-22T09:40:15Z</time>
      </trkpt>
      <trkpt lat="48.50445" lon="-2.72903">
        <ele>54</ele>
        <time>2013-11-22T09:40:16Z</time>
      </trkpt>
      <trkpt lat="48.50445" lon="-2.729">
        <ele>54</ele>
        <time>2013-11-22T09:40:18Z</time>
      </trkpt>
      <trkpt lat="48.50444" lon="-2.72896">
        <ele>54</ele>
        <time>2013-11-22T09:40:20Z</time>
      </trkpt>
      <trkpt lat="48.50444" lon="-2.72894">
        <ele>54</ele>
        <time>2013-11-22T09:40:21Z</time>
      </trkpt>
      <trkpt lat="48.50443" lon="-2.72887">
        <ele>54</ele>
        <time>2013-11-22T09:40:25Z</time>
      </trkpt>
      <trkpt lat="48.50444" lon="-2.72886">
        <ele>54</ele>
        <time>2013-11-22T09:40:26Z</time>
      </trkpt>
      <trkpt lat="48.50443" lon="-2.72884">
        <ele>54</ele>
        <time>2013-11-22T09:40:27Z</time>
      </trkpt>
      <trkpt lat="48.50443" lon="-2.72882">
        <ele>54</ele>
        <time>2013-11-22T09:40:28Z</time>
      </trkpt>
      <trkpt lat="48.50443" lon="-2.7288">
        <ele>54</ele>
        <time>2013-11-22T09:40:29Z</time>
      </trkpt>
      <trkpt lat="48.50442" lon="-2.72878">
        <ele>54</ele>
        <time>2013-11-22T09:40:30Z</time>
      </trkpt>
      <trkpt lat="48.50441" lon="-2.72875">
        <ele>54</ele>
        <time>2013-11-22T09:40:32Z</time>
      </trkpt>
      <trkpt lat="48.50441" lon="-2.72873">
        <ele>54</ele>
        <time>2013-11-22T09:40:33Z</time>
      </trkpt>
      <trkpt lat="48.50441" lon="-2.72871">
        <ele>54</ele>
        <time>2013-11-22T09:40:34Z</time>
      </trkpt>
      <trkpt lat="48.5044" lon="-2.72868">
        <ele>54</ele>
        <time>2013-11-22T09:40:35Z</time>
      </trkpt>
      <trkpt lat="48.50439" lon="-2.72866">
        <ele>54</ele>
        <time>2013-11-22T09:40:36Z</time>
      </trkpt>
      <trkpt lat="48.50439" lon="-2.72863">
        <ele>54</ele>
        <time>2013-11-22T09:40:37Z</time>
      </trkpt>
      <trkpt lat="48.50438" lon="-2.72861">
        <ele>54</ele>
        <time>2013-11-22T09:40:38Z</time>
      </trkpt>
      <trkpt lat="48.50438" lon="-2.72859">
        <ele>54</ele>
        <time>2013-11-22T09:40:39Z</time>
      </trkpt>
      <trkpt lat="48.50437" lon="-2.72858">
        <ele>54</ele>
        <time>2013-11-22T09:40:40Z</time>
      </trkpt>
      <trkpt lat="48.50436" lon="-2.72856">
        <ele>54</ele>
        <time>2013-11-22T09:40:41Z</time>
      </trkpt>
      <trkpt lat="48.50436" lon="-2.72854">
        <ele>54</ele>
        <time>2013-11-22T09:40:42Z</time>
      </trkpt>
      <trkpt lat="48.50435" lon="-2.72852">
        <ele>54</ele>
        <time>2013-11-22T09:40:43Z</time>
      </trkpt>
      <trkpt lat="48.50435" lon="-2.7285">
        <ele>54</ele>
        <time>2013-11-22T09:40:44Z</time>
      </trkpt>
      <trkpt lat="48.50434" lon="-2.72849">
        <ele>54</ele>
        <time>2013-11-22T09:40:45Z</time>
      </trkpt>
      <trkpt lat="48.50433" lon="-2.72845">
        <ele>54</ele>
        <time>2013-11-22T09:40:47Z</time>
      </trkpt>
      <trkpt lat="48.50433" lon="-2.72843">
        <ele>54</ele>
        <time>2013-11-22T09:40:48Z</time>
      </trkpt>
      <trkpt lat="48.50433" lon="-2.72841">
        <ele>54</ele>
        <time>2013-11-22T09:40:49Z</time>
      </trkpt>
      <trkpt lat="48.50432" lon="-2.72839">
        <ele>54</ele>
        <time>2013-11-22T09:40:50Z</time>
      </trkpt>
      <trkpt lat="48.50431" lon="-2.72836">
        <ele>54</ele>
        <time>2013-11-22T09:40:51Z</time>
      </trkpt>
      <trkpt lat="48.50431" lon="-2.72834">
        <ele>54</ele>
        <time>2013-11-22T09:40:52Z</time>
      </trkpt>
      <trkpt lat="48.5043" lon="-2.72832">
        <ele>54</ele>
        <time>2013-11-22T09:40:53Z</time>
      </trkpt>
      <trkpt lat="48.5043" lon="-2.72831">
        <ele>54</ele>
        <time>2013-11-22T09:40:54Z</time>
      </trkpt>
      <trkpt lat="48.5043" lon="-2.72828">
        <ele>54</ele>
        <time>2013-11-22T09:40:55Z</time>
      </trkpt>
      <trkpt lat="48.50429" lon="-2.72826">
        <ele>54</ele>
        <time>2013-11-22T09:40:56Z</time>
      </trkpt>
      <trkpt lat="48.50428" lon="-2.72824">
        <ele>55</ele>
        <time>2013-11-22T09:40:57Z</time>
      </trkpt>
      <trkpt lat="48.50428" lon="-2.7282">
        <ele>56</ele>
        <time>2013-11-22T09:40:59Z</time>
      </trkpt>
      <trkpt lat="48.50427" lon="-2.72816">
        <ele>58</ele>
        <time>2013-11-22T09:41:02Z</time>
      </trkpt>
      <trkpt lat="48.50427" lon="-2.72815">
        <ele>59</ele>
        <time>2013-11-22T09:41:05Z</time>
      </trkpt>
      <trkpt lat="48.50425" lon="-2.72813">
        <ele>62</ele>
        <time>2013-11-22T09:41:14Z</time>
      </trkpt>
      <trkpt lat="48.50425" lon="-2.72811">
        <ele>62</ele>
        <time>2013-11-22T09:41:16Z</time>
      </trkpt>
      <trkpt lat="48.50424" lon="-2.7281">
        <ele>62</ele>
        <time>2013-11-22T09:41:17Z</time>
      </trkpt>
      <trkpt lat="48.50423" lon="-2.72808">
        <ele>62</ele>
        <time>2013-11-22T09:41:18Z</time>
      </trkpt>
      <trkpt lat="48.50423" lon="-2.72806">
        <ele>62</ele>
        <time>2013-11-22T09:41:19Z</time>
      </trkpt>
      <trkpt lat="48.50422" lon="-2.72803">
        <ele>62</ele>
        <time>2013-11-22T09:41:21Z</time>
      </trkpt>
      <trkpt lat="48.50421" lon="-2.72801">
        <ele>62</ele>
        <time>2013-11-22T09:41:22Z</time>
      </trkpt>
      <trkpt lat="48.5042" lon="-2.728">
        <ele>62</ele>
        <time>2013-11-22T09:41:23Z</time>
      </trkpt>
      <trkpt lat="48.5042" lon="-2.72798">
        <ele>63</ele>
        <time>2013-11-22T09:41:24Z</time>
      </trkpt>
      <trkpt lat="48.50418" lon="-2.72795">
        <ele>63</ele>
        <time>2013-11-22T09:41:26Z</time>
      </trkpt>
      <trkpt lat="48.50417" lon="-2.72793">
        <ele>63</ele>
        <time>2013-11-22T09:41:27Z</time>
      </trkpt>
      <trkpt lat="48.50417" lon="-2.72791">
        <ele>63</ele>
        <time>2013-11-22T09:41:28Z</time>
      </trkpt>
      <trkpt lat="48.50416" lon="-2.72789">
        <ele>63</ele>
        <time>2013-11-22T09:41:29Z</time>
      </trkpt>
      <trkpt lat="48.50415" lon="-2.72787">
        <ele>63</ele>
        <time>2013-11-22T09:41:30Z</time>
      </trkpt>
      <trkpt lat="48.50415" lon="-2.72785">
        <ele>63</ele>
        <time>2013-11-22T09:41:31Z</time>
      </trkpt>
      <trkpt lat="48.50414" lon="-2.72783">
        <ele>63</ele>
        <time>2013-11-22T09:41:32Z</time>
      </trkpt>
      <trkpt lat="48.50413" lon="-2.72781">
        <ele>63</ele>
        <time>2013-11-22T09:41:33Z</time>
      </trkpt>
      <trkpt lat="48.50413" lon="-2.72779">
        <ele>63</ele>
        <time>2013-11-22T09:41:34Z</time>
      </trkpt>
      <trkpt lat="48.50412" lon="-2.72778">
        <ele>64</ele>
        <time>2013-11-22T09:41:35Z</time>
      </trkpt>
      <trkpt lat="48.50411" lon="-2.72776">
        <ele>64</ele>
        <time>2013-11-22T09:41:36Z</time>
      </trkpt>
      <trkpt lat="48.50411" lon="-2.72774">
        <ele>64</ele>
        <time>2013-11-22T09:41:37Z</time>
      </trkpt>
      <trkpt lat="48.5041" lon="-2.72772">
        <ele>64</ele>
        <time>2013-11-22T09:41:38Z</time>
      </trkpt>
      <trkpt lat="48.5041" lon="-2.72771">
        <ele>64</ele>
        <time>2013-11-22T09:41:39Z</time>
      </trkpt>
      <trkpt lat="48.50409" lon="-2.72769">
        <ele>64</ele>
        <time>2013-11-22T09:41:40Z</time>
      </trkpt>
      <trkpt lat="48.50409" lon="-2.72766">
        <ele>64</ele>
        <time>2013-11-22T09:41:41Z</time>
      </trkpt>
      <trkpt lat="48.50408" lon="-2.72764">
        <ele>65</ele>
        <time>2013-11-22T09:41:42Z</time>
      </trkpt>
      <trkpt lat="48.50407" lon="-2.72763">
        <ele>65</ele>
        <time>2013-11-22T09:41:43Z</time>
      </trkpt>
      <trkpt lat="48.50407" lon="-2.72761">
        <ele>65</ele>
        <time>2013-11-22T09:41:44Z</time>
      </trkpt>
      <trkpt lat="48.50407" lon="-2.72759">
        <ele>65</ele>
        <time>2013-11-22T09:41:45Z</time>
      </trkpt>
      <trkpt lat="48.50406" lon="-2.72757">
        <ele>65</ele>
        <time>2013-11-22T09:41:46Z</time>
      </trkpt>
      <trkpt lat="48.50406" lon="-2.72755">
        <ele>65</ele>
        <time>2013-11-22T09:41:47Z</time>
      </trkpt>
      <trkpt lat="48.50405" lon="-2.72754">
        <ele>65</ele>
        <time>2013-11-22T09:41:48Z</time>
      </trkpt>
      <trkpt lat="48.50404" lon="-2.72752">
        <ele>65</ele>
        <time>2013-11-22T09:41:49Z</time>
      </trkpt>
      <trkpt lat="48.50403" lon="-2.7275">
        <ele>65</ele>
        <time>2013-11-22T09:41:50Z</time>
      </trkpt>
      <trkpt lat="48.50402" lon="-2.72748">
        <ele>65</ele>
        <time>2013-11-22T09:41:51Z</time>
      </trkpt>
      <trkpt lat="48.50402" lon="-2.72746">
        <ele>65</ele>
        <time>2013-11-22T09:41:52Z</time>
      </trkpt>
      <trkpt lat="48.504" lon="-2.72743">
        <ele>65</ele>
        <time>2013-11-22T09:41:54Z</time>
      </trkpt>
      <trkpt lat="48.504" lon="-2.72741">
        <ele>66</ele>
        <time>2013-11-22T09:41:55Z</time>
      </trkpt>
      <trkpt lat="48.50399" lon="-2.72739">
        <ele>66</ele>
        <time>2013-11-22T09:41:56Z</time>
      </trkpt>
      <trkpt lat="48.50399" lon="-2.72737">
        <ele>66</ele>
        <time>2013-11-22T09:41:57Z</time>
      </trkpt>
      <trkpt lat="48.50398" lon="-2.72735">
        <ele>66</ele>
        <time>2013-11-22T09:41:58Z</time>
      </trkpt>
      <trkpt lat="48.50397" lon="-2.72731">
        <ele>67</ele>
        <time>2013-11-22T09:42:00Z</time>
      </trkpt>
      <trkpt lat="48.50396" lon="-2.72727">
        <ele>68</ele>
        <time>2013-11-22T09:42:02Z</time>
      </trkpt>
      <trkpt lat="48.50396" lon="-2.72726">
        <ele>68</ele>
        <time>2013-11-22T09:42:03Z</time>
      </trkpt>
      <trkpt lat="48.50395" lon="-2.72724">
        <ele>68</ele>
        <time>2013-11-22T09:42:04Z</time>
      </trkpt>
      <trkpt lat="48.50395" lon="-2.72722">
        <ele>69</ele>
        <time>2013-11-22T09:42:05Z</time>
      </trkpt>
      <trkpt lat="48.50394" lon="-2.7272">
        <ele>69</ele>
        <time>2013-11-22T09:42:06Z</time>
      </trkpt>
      <trkpt lat="48.50394" lon="-2.72718">
        <ele>69</ele>
        <time>2013-11-22T09:42:07Z</time>
      </trkpt>
      <trkpt lat="48.50393" lon="-2.72714">
        <ele>69</ele>
        <time>2013-11-22T09:42:09Z</time>
      </trkpt>
      <trkpt lat="48.50393" lon="-2.72712">
        <ele>69</ele>
        <time>2013-11-22T09:42:10Z</time>
      </trkpt>
      <trkpt lat="48.50393" lon="-2.72706">
        <ele>70</ele>
        <time>2013-11-22T09:42:13Z</time>
      </trkpt>
      <trkpt lat="48.50392" lon="-2.72702">
        <ele>71</ele>
        <time>2013-11-22T09:42:15Z</time>
      </trkpt>
      <trkpt lat="48.50392" lon="-2.727">
        <ele>71</ele>
        <time>2013-11-22T09:42:16Z</time>
      </trkpt>
      <trkpt lat="48.50391" lon="-2.72698">
        <ele>71</ele>
        <time>2013-11-22T09:42:17Z</time>
      </trkpt>
      <trkpt lat="48.50392" lon="-2.72688">
        <ele>71</ele>
        <time>2013-11-22T09:42:23Z</time>
      </trkpt>
      <trkpt lat="48.50393" lon="-2.72687">
        <ele>72</ele>
        <time>2013-11-22T09:42:29Z</time>
      </trkpt>
      <trkpt lat="48.50394" lon="-2.72687">
        <ele>72</ele>
        <time>2013-11-22T09:42:30Z</time>
      </trkpt>
      <trkpt lat="48.50396" lon="-2.72688">
        <ele>73</ele>
        <time>2013-11-22T09:42:31Z</time>
      </trkpt>
      <trkpt lat="48.50397" lon="-2.72689">
        <ele>73</ele>
        <time>2013-11-22T09:42:32Z</time>
      </trkpt>
      <trkpt lat="48.50399" lon="-2.7269">
        <ele>73</ele>
        <time>2013-11-22T09:42:33Z</time>
      </trkpt>
      <trkpt lat="48.504" lon="-2.72691">
        <ele>73</ele>
        <time>2013-11-22T09:42:34Z</time>
      </trkpt>
      <trkpt lat="48.50401" lon="-2.72692">
        <ele>73</ele>
        <time>2013-11-22T09:42:35Z</time>
      </trkpt>
      <trkpt lat="48.50402" lon="-2.72693">
        <ele>73</ele>
        <time>2013-11-22T09:42:37Z</time>
      </trkpt>
      <trkpt lat="48.50403" lon="-2.72694">
        <ele>74</ele>
        <time>2013-11-22T09:42:39Z</time>
      </trkpt>
      <trkpt lat="48.50404" lon="-2.72695">
        <ele>74</ele>
        <time>2013-11-22T09:42:41Z</time>
      </trkpt>
      <trkpt lat="48.50406" lon="-2.72695">
        <ele>74</ele>
        <time>2013-11-22T09:42:43Z</time>
      </trkpt>
      <trkpt lat="48.50407" lon="-2.72694">
        <ele>75</ele>
        <time>2013-11-22T09:42:48Z</time>
      </trkpt>
      <trkpt lat="48.50409" lon="-2.72692">
        <ele>75</ele>
        <time>2013-11-22T09:42:50Z</time>
      </trkpt>
      <trkpt lat="48.5041" lon="-2.72694">
        <ele>76</ele>
        <time>2013-11-22T09:43:01Z</time>
      </trkpt>
      <trkpt lat="48.50409" lon="-2.72696">
        <ele>79</ele>
        <time>2013-11-22T09:43:32Z</time>
      </trkpt>
      <trkpt lat="48.5041" lon="-2.72698">
        <ele>79</ele>
        <time>2013-11-22T09:43:34Z</time>
      </trkpt>
      <trkpt lat="48.50412" lon="-2.727">
        <ele>79</ele>
        <time>2013-11-22T09:43:36Z</time>
      </trkpt>
      <trkpt lat="48.50413" lon="-2.72702">
        <ele>79</ele>
        <time>2013-11-22T09:43:38Z</time>
      </trkpt>
      <trkpt lat="48.50415" lon="-2.72704">
        <ele>79</ele>
        <time>2013-11-22T09:43:40Z</time>
      </trkpt>
      <trkpt lat="48.50416" lon="-2.72706">
        <ele>79</ele>
        <time>2013-11-22T09:43:42Z</time>
      </trkpt>
      <trkpt lat="48.50418" lon="-2.72708">
        <ele>79</ele>
        <time>2013-11-22T09:43:44Z</time>
      </trkpt>
      <trkpt lat="48.5042" lon="-2.7271">
        <ele>79</ele>
        <time>2013-11-22T09:43:46Z</time>
      </trkpt>
      <trkpt lat="48.50421" lon="-2.72712">
        <ele>79</ele>
        <time>2013-11-22T09:43:48Z</time>
      </trkpt>
      <trkpt lat="48.50422" lon="-2.72714">
        <ele>79</ele>
        <time>2013-11-22T09:43:50Z</time>
      </trkpt>
      <trkpt lat="48.50424" lon="-2.72715">
        <ele>79</ele>
        <time>2013-11-22T09:43:52Z</time>
      </trkpt>
      <trkpt lat="48.50425" lon="-2.72716">
        <ele>79</ele>
        <time>2013-11-22T09:43:54Z</time>
      </trkpt>
      <trkpt lat="48.50427" lon="-2.72717">
        <ele>79</ele>
        <time>2013-11-22T09:43:56Z</time>
      </trkpt>
      <trkpt lat="48.50429" lon="-2.72717">
        <ele>79</ele>
        <time>2013-11-22T09:43:58Z</time>
      </trkpt>
      <trkpt lat="48.50431" lon="-2.72717">
        <ele>79</ele>
        <time>2013-11-22T09:44:00Z</time>
      </trkpt>
      <trkpt lat="48.50434" lon="-2.72717">
        <ele>79</ele>
        <time>2013-11-22T09:44:04Z</time>
      </trkpt>
      <trkpt lat="48.50436" lon="-2.72716">
        <ele>79</ele>
        <time>2013-11-22T09:44:06Z</time>
      </trkpt>
      <trkpt lat="48.50438" lon="-2.72715">
        <ele>79</ele>
        <time>2013-11-22T09:44:08Z</time>
      </trkpt>
      <trkpt lat="48.5044" lon="-2.72714">
        <ele>79</ele>
        <time>2013-11-22T09:44:10Z</time>
      </trkpt>
      <trkpt lat="48.50441" lon="-2.72712">
        <ele>79</ele>
        <time>2013-11-22T09:44:12Z</time>
      </trkpt>
      <trkpt lat="48.50442" lon="-2.72711">
        <ele>79</ele>
        <time>2013-11-22T09:44:14Z</time>
      </trkpt>
      <trkpt lat="48.50444" lon="-2.72709">
        <ele>79</ele>
        <time>2013-11-22T09:44:16Z</time>
      </trkpt>
      <trkpt lat="48.50444" lon="-2.72706">
        <ele>79</ele>
        <time>2013-11-22T09:44:18Z</time>
      </trkpt>
      <trkpt lat="48.50445" lon="-2.72703">
        <ele>79</ele>
        <time>2013-11-22T09:44:20Z</time>
      </trkpt>
      <trkpt lat="48.50446" lon="-2.727">
        <ele>79</ele>
        <time>2013-11-22T09:44:22Z</time>
      </trkpt>
      <trkpt lat="48.50446" lon="-2.72697">
        <ele>79</ele>
        <time>2013-11-22T09:44:24Z</time>
      </trkpt>
      <trkpt lat="48.50446" lon="-2.72694">
        <ele>79</ele>
        <time>2013-11-22T09:44:26Z</time>
      </trkpt>
      <trkpt lat="48.50446" lon="-2.72675">
        <ele>79</ele>
        <time>2013-11-22T09:44:37Z</time>
      </trkpt>
      <trkpt lat="48.50446" lon="-2.72672">
        <ele>79</ele>
        <time>2013-11-22T09:44:39Z</time>
      </trkpt>
      <trkpt lat="48.50446" lon="-2.7267">
        <ele>79</ele>
        <time>2013-11-22T09:44:40Z</time>
      </trkpt>
      <trkpt lat="48.50447" lon="-2.72662">
        <ele>79</ele>
        <time>2013-11-22T09:44:45Z</time>
      </trkpt>
      <trkpt lat="48.50447" lon="-2.72654">
        <ele>79</ele>
        <time>2013-11-22T09:44:50Z</time>
      </trkpt>
      <trkpt lat="48.50447" lon="-2.72652">
        <ele>79</ele>
        <time>2013-11-22T09:44:51Z</time>
      </trkpt>
      <trkpt lat="48.50448" lon="-2.72648">
        <ele>79</ele>
        <time>2013-11-22T09:44:53Z</time>
      </trkpt>
      <trkpt lat="48.50448" lon="-2.72643">
        <ele>79</ele>
        <time>2013-11-22T09:44:56Z</time>
      </trkpt>
      <trkpt lat="48.50449" lon="-2.72641">
        <ele>79</ele>
        <time>2013-11-22T09:44:57Z</time>
      </trkpt>
      <trkpt lat="48.50449" lon="-2.72639">
        <ele>79</ele>
        <time>2013-11-22T09:44:58Z</time>
      </trkpt>
      <trkpt lat="48.50449" lon="-2.72636">
        <ele>79</ele>
        <time>2013-11-22T09:45:00Z</time>
      </trkpt>
      <trkpt lat="48.5045" lon="-2.72632">
        <ele>79</ele>
        <time>2013-11-22T09:45:02Z</time>
      </trkpt>
      <trkpt lat="48.5045" lon="-2.72631">
        <ele>79</ele>
        <time>2013-11-22T09:45:03Z</time>
      </trkpt>
      <trkpt lat="48.50451" lon="-2.72628">
        <ele>79</ele>
        <time>2013-11-22T09:45:05Z</time>
      </trkpt>
      <trkpt lat="48.50451" lon="-2.72626">
        <ele>79</ele>
        <time>2013-11-22T09:45:06Z</time>
      </trkpt>
      <trkpt lat="48.50452" lon="-2.72624">
        <ele>79</ele>
        <time>2013-11-22T09:45:07Z</time>
      </trkpt>
      <trkpt lat="48.50452" lon="-2.72623">
        <ele>79</ele>
        <time>2013-11-22T09:45:08Z</time>
      </trkpt>
      <trkpt lat="48.50453" lon="-2.72621">
        <ele>79</ele>
        <time>2013-11-22T09:45:09Z</time>
      </trkpt>
      <trkpt lat="48.50454" lon="-2.72619">
        <ele>79</ele>
        <time>2013-11-22T09:45:10Z</time>
      </trkpt>
      <trkpt lat="48.50454" lon="-2.72617">
        <ele>79</ele>
        <time>2013-11-22T09:45:11Z</time>
      </trkpt>
      <trkpt lat="48.50454" lon="-2.72616">
        <ele>79</ele>
        <time>2013-11-22T09:45:12Z</time>
      </trkpt>
      <trkpt lat="48.50455" lon="-2.72614">
        <ele>79</ele>
        <time>2013-11-22T09:45:13Z</time>
      </trkpt>
      <trkpt lat="48.50455" lon="-2.72612">
        <ele>79</ele>
        <time>2013-11-22T09:45:14Z</time>
      </trkpt>
      <trkpt lat="48.50456" lon="-2.72611">
        <ele>79</ele>
        <time>2013-11-22T09:45:15Z</time>
      </trkpt>
      <trkpt lat="48.50457" lon="-2.72609">
        <ele>79</ele>
        <time>2013-11-22T09:45:16Z</time>
      </trkpt>
      <trkpt lat="48.50457" lon="-2.72607">
        <ele>79</ele>
        <time>2013-11-22T09:45:17Z</time>
      </trkpt>
      <trkpt lat="48.50458" lon="-2.72604">
        <ele>79</ele>
        <time>2013-11-22T09:45:19Z</time>
      </trkpt>
      <trkpt lat="48.5046" lon="-2.72601">
        <ele>79</ele>
        <time>2013-11-22T09:45:21Z</time>
      </trkpt>
      <trkpt lat="48.50461" lon="-2.726">
        <ele>79</ele>
        <time>2013-11-22T09:45:22Z</time>
      </trkpt>
      <trkpt lat="48.50462" lon="-2.72598">
        <ele>79</ele>
        <time>2013-11-22T09:45:23Z</time>
      </trkpt>
      <trkpt lat="48.50462" lon="-2.72596">
        <ele>79</ele>
        <time>2013-11-22T09:45:24Z</time>
      </trkpt>
      <trkpt lat="48.50463" lon="-2.72594">
        <ele>79</ele>
        <time>2013-11-22T09:45:25Z</time>
      </trkpt>
      <trkpt lat="48.50465" lon="-2.72591">
        <ele>79</ele>
        <time>2013-11-22T09:45:27Z</time>
      </trkpt>
      <trkpt lat="48.50466" lon="-2.72588">
        <ele>79</ele>
        <time>2013-11-22T09:45:28Z</time>
      </trkpt>
      <trkpt lat="48.50466" lon="-2.72587">
        <ele>79</ele>
        <time>2013-11-22T09:45:29Z</time>
      </trkpt>
      <trkpt lat="48.50467" lon="-2.72584">
        <ele>79</ele>
        <time>2013-11-22T09:45:31Z</time>
      </trkpt>
      <trkpt lat="48.50468" lon="-2.72582">
        <ele>79</ele>
        <time>2013-11-22T09:45:32Z</time>
      </trkpt>
      <trkpt lat="48.50468" lon="-2.72579">
        <ele>79</ele>
        <time>2013-11-22T09:45:34Z</time>
      </trkpt>
      <trkpt lat="48.50469" lon="-2.72576">
        <ele>79</ele>
        <time>2013-11-22T09:45:36Z</time>
      </trkpt>
      <trkpt lat="48.50468" lon="-2.72572">
        <ele>79</ele>
        <time>2013-11-22T09:45:38Z</time>
      </trkpt>
      <trkpt lat="48.50469" lon="-2.72565">
        <ele>79</ele>
        <time>2013-11-22T09:45:42Z</time>
      </trkpt>
      <trkpt lat="48.5047" lon="-2.72563">
        <ele>79</ele>
        <time>2013-11-22T09:45:44Z</time>
      </trkpt>
      <trkpt lat="48.5047" lon="-2.7256">
        <ele>79</ele>
        <time>2013-11-22T09:45:46Z</time>
      </trkpt>
      <trkpt lat="48.50471" lon="-2.72558">
        <ele>79</ele>
        <time>2013-11-22T09:45:47Z</time>
      </trkpt>
      <trkpt lat="48.50472" lon="-2.72554">
        <ele>79</ele>
        <time>2013-11-22T09:45:49Z</time>
      </trkpt>
      <trkpt lat="48.50472" lon="-2.72552">
        <ele>79</ele>
        <time>2013-11-22T09:45:50Z</time>
      </trkpt>
      <trkpt lat="48.50473" lon="-2.7255">
        <ele>79</ele>
        <time>2013-11-22T09:45:51Z</time>
      </trkpt>
      <trkpt lat="48.50473" lon="-2.72547">
        <ele>79</ele>
        <time>2013-11-22T09:45:53Z</time>
      </trkpt>
      <trkpt lat="48.50474" lon="-2.72545">
        <ele>79</ele>
        <time>2013-11-22T09:45:54Z</time>
      </trkpt>
      <trkpt lat="48.50474" lon="-2.72543">
        <ele>79</ele>
        <time>2013-11-22T09:45:55Z</time>
      </trkpt>
      <trkpt lat="48.50475" lon="-2.72537">
        <ele>79</ele>
        <time>2013-11-22T09:45:58Z</time>
      </trkpt>
      <trkpt lat="48.50475" lon="-2.72535">
        <ele>79</ele>
        <time>2013-11-22T09:45:59Z</time>
      </trkpt>
      <trkpt lat="48.50475" lon="-2.72533">
        <ele>79</ele>
        <time>2013-11-22T09:46:00Z</time>
      </trkpt>
      <trkpt lat="48.50476" lon="-2.72529">
        <ele>79</ele>
        <time>2013-11-22T09:46:02Z</time>
      </trkpt>
      <trkpt lat="48.50476" lon="-2.72527">
        <ele>79</ele>
        <time>2013-11-22T09:46:03Z</time>
      </trkpt>
      <trkpt lat="48.50476" lon="-2.72525">
        <ele>79</ele>
        <time>2013-11-22T09:46:04Z</time>
      </trkpt>
      <trkpt lat="48.50476" lon="-2.72523">
        <ele>79</ele>
        <time>2013-11-22T09:46:05Z</time>
      </trkpt>
      <trkpt lat="48.50476" lon="-2.72515">
        <ele>79</ele>
        <time>2013-11-22T09:46:09Z</time>
      </trkpt>
      <trkpt lat="48.50477" lon="-2.72513">
        <ele>79</ele>
        <time>2013-11-22T09:46:10Z</time>
      </trkpt>
      <trkpt lat="48.50477" lon="-2.72508">
        <ele>78</ele>
        <time>2013-11-22T09:46:13Z</time>
      </trkpt>
      <trkpt lat="48.50478" lon="-2.72502">
        <ele>78</ele>
        <time>2013-11-22T09:46:16Z</time>
      </trkpt>
      <trkpt lat="48.50477" lon="-2.72498">
        <ele>77</ele>
        <time>2013-11-22T09:46:18Z</time>
      </trkpt>
      <trkpt lat="48.50477" lon="-2.72496">
        <ele>77</ele>
        <time>2013-11-22T09:46:19Z</time>
      </trkpt>
      <trkpt lat="48.50476" lon="-2.7249">
        <ele>76</ele>
        <time>2013-11-22T09:46:22Z</time>
      </trkpt>
      <trkpt lat="48.50476" lon="-2.72488">
        <ele>76</ele>
        <time>2013-11-22T09:46:23Z</time>
      </trkpt>
      <trkpt lat="48.50475" lon="-2.72485">
        <ele>76</ele>
        <time>2013-11-22T09:46:24Z</time>
      </trkpt>
      <trkpt lat="48.50476" lon="-2.72477">
        <ele>75</ele>
        <time>2013-11-22T09:46:28Z</time>
      </trkpt>
      <trkpt lat="48.50476" lon="-2.72475">
        <ele>75</ele>
        <time>2013-11-22T09:46:29Z</time>
      </trkpt>
      <trkpt lat="48.50477" lon="-2.72473">
        <ele>75</ele>
        <time>2013-11-22T09:46:30Z</time>
      </trkpt>
      <trkpt lat="48.50477" lon="-2.72471">
        <ele>75</ele>
        <time>2013-11-22T09:46:31Z</time>
      </trkpt>
      <trkpt lat="48.50478" lon="-2.72469">
        <ele>75</ele>
        <time>2013-11-22T09:46:32Z</time>
      </trkpt>
      <trkpt lat="48.50478" lon="-2.72467">
        <ele>75</ele>
        <time>2013-11-22T09:46:33Z</time>
      </trkpt>
      <trkpt lat="48.50479" lon="-2.72465">
        <ele>75</ele>
        <time>2013-11-22T09:46:34Z</time>
      </trkpt>
      <trkpt lat="48.50481" lon="-2.72463">
        <ele>75</ele>
        <time>2013-11-22T09:46:35Z</time>
      </trkpt>
      <trkpt lat="48.50482" lon="-2.72462">
        <ele>75</ele>
        <time>2013-11-22T09:46:36Z</time>
      </trkpt>
      <trkpt lat="48.50483" lon="-2.72461">
        <ele>75</ele>
        <time>2013-11-22T09:46:37Z</time>
      </trkpt>
      <trkpt lat="48.50484" lon="-2.7246">
        <ele>75</ele>
        <time>2013-11-22T09:46:38Z</time>
      </trkpt>
      <trkpt lat="48.50486" lon="-2.72459">
        <ele>75</ele>
        <time>2013-11-22T09:46:39Z</time>
      </trkpt>
      <trkpt lat="48.50488" lon="-2.72458">
        <ele>75</ele>
        <time>2013-11-22T09:46:40Z</time>
      </trkpt>
      <trkpt lat="48.50489" lon="-2.72457">
        <ele>75</ele>
        <time>2013-11-22T09:46:41Z</time>
      </trkpt>
      <trkpt lat="48.50491" lon="-2.72456">
        <ele>75</ele>
        <time>2013-11-22T09:46:42Z</time>
      </trkpt>
      <trkpt lat="48.50492" lon="-2.72456">
        <ele>75</ele>
        <time>2013-11-22T09:46:43Z</time>
      </trkpt>
      <trkpt lat="48.50494" lon="-2.72456">
        <ele>75</ele>
        <time>2013-11-22T09:46:44Z</time>
      </trkpt>
      <trkpt lat="48.50495" lon="-2.72455">
        <ele>75</ele>
        <time>2013-11-22T09:46:45Z</time>
      </trkpt>
      <trkpt lat="48.50497" lon="-2.72455">
        <ele>75</ele>
        <time>2013-11-22T09:46:46Z</time>
      </trkpt>
      <trkpt lat="48.50499" lon="-2.72454">
        <ele>75</ele>
        <time>2013-11-22T09:46:47Z</time>
      </trkpt>
      <trkpt lat="48.505" lon="-2.72454">
        <ele>75</ele>
        <time>2013-11-22T09:46:48Z</time>
      </trkpt>
      <trkpt lat="48.50502" lon="-2.72453">
        <ele>75</ele>
        <time>2013-11-22T09:46:49Z</time>
      </trkpt>
      <trkpt lat="48.50503" lon="-2.72452">
        <ele>75</ele>
        <time>2013-11-22T09:46:50Z</time>
      </trkpt>
      <trkpt lat="48.50504" lon="-2.72452">
        <ele>75</ele>
        <time>2013-11-22T09:46:51Z</time>
      </trkpt>
      <trkpt lat="48.50505" lon="-2.72451">
        <ele>75</ele>
        <time>2013-11-22T09:46:52Z</time>
      </trkpt>
      <trkpt lat="48.50507" lon="-2.7245">
        <ele>75</ele>
        <time>2013-11-22T09:46:53Z</time>
      </trkpt>
      <trkpt lat="48.50508" lon="-2.72449">
        <ele>75</ele>
        <time>2013-11-22T09:46:54Z</time>
      </trkpt>
      <trkpt lat="48.50509" lon="-2.72448">
        <ele>75</ele>
        <time>2013-11-22T09:46:55Z</time>
      </trkpt>
      <trkpt lat="48.5051" lon="-2.72448">
        <ele>75</ele>
        <time>2013-11-22T09:46:56Z</time>
      </trkpt>
      <trkpt lat="48.50512" lon="-2.72447">
        <ele>75</ele>
        <time>2013-11-22T09:46:57Z</time>
      </trkpt>
      <trkpt lat="48.50513" lon="-2.72446">
        <ele>75</ele>
        <time>2013-11-22T09:46:58Z</time>
      </trkpt>
      <trkpt lat="48.50515" lon="-2.72445">
        <ele>75</ele>
        <time>2013-11-22T09:46:59Z</time>
      </trkpt>
      <trkpt lat="48.50516" lon="-2.72444">
        <ele>75</ele>
        <time>2013-11-22T09:47:00Z</time>
      </trkpt>
      <trkpt lat="48.50517" lon="-2.72444">
        <ele>75</ele>
        <time>2013-11-22T09:47:01Z</time>
      </trkpt>
      <trkpt lat="48.50518" lon="-2.72443">
        <ele>75</ele>
        <time>2013-11-22T09:47:02Z</time>
      </trkpt>
      <trkpt lat="48.5052" lon="-2.72442">
        <ele>75</ele>
        <time>2013-11-22T09:47:03Z</time>
      </trkpt>
      <trkpt lat="48.50521" lon="-2.72441">
        <ele>75</ele>
        <time>2013-11-22T09:47:04Z</time>
      </trkpt>
      <trkpt lat="48.50522" lon="-2.7244">
        <ele>75</ele>
        <time>2013-11-22T09:47:05Z</time>
      </trkpt>
      <trkpt lat="48.50523" lon="-2.72439">
        <ele>75</ele>
        <time>2013-11-22T09:47:06Z</time>
      </trkpt>
      <trkpt lat="48.50525" lon="-2.72438">
        <ele>75</ele>
        <time>2013-11-22T09:47:07Z</time>
      </trkpt>
      <trkpt lat="48.50526" lon="-2.72437">
        <ele>75</ele>
        <time>2013-11-22T09:47:08Z</time>
      </trkpt>
      <trkpt lat="48.50528" lon="-2.72436">
        <ele>75</ele>
        <time>2013-11-22T09:47:09Z</time>
      </trkpt>
      <trkpt lat="48.50529" lon="-2.72434">
        <ele>75</ele>
        <time>2013-11-22T09:47:10Z</time>
      </trkpt>
      <trkpt lat="48.5053" lon="-2.72433">
        <ele>75</ele>
        <time>2013-11-22T09:47:11Z</time>
      </trkpt>
      <trkpt lat="48.50532" lon="-2.72432">
        <ele>75</ele>
        <time>2013-11-22T09:47:12Z</time>
      </trkpt>
      <trkpt lat="48.50533" lon="-2.72431">
        <ele>75</ele>
        <time>2013-11-22T09:47:13Z</time>
      </trkpt>
      <trkpt lat="48.50535" lon="-2.7243">
        <ele>75</ele>
        <time>2013-11-22T09:47:14Z</time>
      </trkpt>
      <trkpt lat="48.50536" lon="-2.72429">
        <ele>75</ele>
        <time>2013-11-22T09:47:15Z</time>
      </trkpt>
      <trkpt lat="48.50537" lon="-2.72428">
        <ele>75</ele>
        <time>2013-11-22T09:47:16Z</time>
      </trkpt>
      <trkpt lat="48.50539" lon="-2.72428">
        <ele>75</ele>
        <time>2013-11-22T09:47:17Z</time>
      </trkpt>
      <trkpt lat="48.5054" lon="-2.72426">
        <ele>75</ele>
        <time>2013-11-22T09:47:18Z</time>
      </trkpt>
      <trkpt lat="48.50542" lon="-2.72425">
        <ele>75</ele>
        <time>2013-11-22T09:47:19Z</time>
      </trkpt>
      <trkpt lat="48.50543" lon="-2.72424">
        <ele>75</ele>
        <time>2013-11-22T09:47:20Z</time>
      </trkpt>
      <trkpt lat="48.50544" lon="-2.72423">
        <ele>75</ele>
        <time>2013-11-22T09:47:21Z</time>
      </trkpt>
      <trkpt lat="48.50546" lon="-2.72422">
        <ele>75</ele>
        <time>2013-11-22T09:47:22Z</time>
      </trkpt>
      <trkpt lat="48.50547" lon="-2.72421">
        <ele>75</ele>
        <time>2013-11-22T09:47:23Z</time>
      </trkpt>
      <trkpt lat="48.50548" lon="-2.7242">
        <ele>75</ele>
        <time>2013-11-22T09:47:24Z</time>
      </trkpt>
      <trkpt lat="48.50549" lon="-2.72419">
        <ele>75</ele>
        <time>2013-11-22T09:47:25Z</time>
      </trkpt>
      <trkpt lat="48.50551" lon="-2.72418">
        <ele>75</ele>
        <time>2013-11-22T09:47:26Z</time>
      </trkpt>
      <trkpt lat="48.50552" lon="-2.72418">
        <ele>75</ele>
        <time>2013-11-22T09:47:27Z</time>
      </trkpt>
      <trkpt lat="48.50554" lon="-2.72416">
        <ele>75</ele>
        <time>2013-11-22T09:47:28Z</time>
      </trkpt>
      <trkpt lat="48.50555" lon="-2.72415">
        <ele>75</ele>
        <time>2013-11-22T09:47:29Z</time>
      </trkpt>
      <trkpt lat="48.50556" lon="-2.72414">
        <ele>75</ele>
        <time>2013-11-22T09:47:30Z</time>
      </trkpt>
      <trkpt lat="48.50557" lon="-2.72413">
        <ele>75</ele>
        <time>2013-11-22T09:47:31Z</time>
      </trkpt>
      <trkpt lat="48.50559" lon="-2.72413">
        <ele>75</ele>
        <time>2013-11-22T09:47:32Z</time>
      </trkpt>
      <trkpt lat="48.5056" lon="-2.72412">
        <ele>75</ele>
        <time>2013-11-22T09:47:33Z</time>
      </trkpt>
      <trkpt lat="48.50562" lon="-2.72411">
        <ele>75</ele>
        <time>2013-11-22T09:47:34Z</time>
      </trkpt>
      <trkpt lat="48.50563" lon="-2.72411">
        <ele>75</ele>
        <time>2013-11-22T09:47:35Z</time>
      </trkpt>
      <trkpt lat="48.50565" lon="-2.72409">
        <ele>75</ele>
        <time>2013-11-22T09:47:36Z</time>
      </trkpt>
      <trkpt lat="48.50566" lon="-2.72409">
        <ele>75</ele>
        <time>2013-11-22T09:47:37Z</time>
      </trkpt>
      <trkpt lat="48.50567" lon="-2.72408">
        <ele>75</ele>
        <time>2013-11-22T09:47:38Z</time>
      </trkpt>
      <trkpt lat="48.50568" lon="-2.72407">
        <ele>75</ele>
        <time>2013-11-22T09:47:39Z</time>
      </trkpt>
      <trkpt lat="48.5057" lon="-2.72406">
        <ele>75</ele>
        <time>2013-11-22T09:47:40Z</time>
      </trkpt>
      <trkpt lat="48.50571" lon="-2.72406">
        <ele>75</ele>
        <time>2013-11-22T09:47:41Z</time>
      </trkpt>
      <trkpt lat="48.50572" lon="-2.72405">
        <ele>75</ele>
        <time>2013-11-22T09:47:42Z</time>
      </trkpt>
      <trkpt lat="48.50574" lon="-2.72405">
        <ele>75</ele>
        <time>2013-11-22T09:47:43Z</time>
      </trkpt>
      <trkpt lat="48.50575" lon="-2.72404">
        <ele>75</ele>
        <time>2013-11-22T09:47:44Z</time>
      </trkpt>
      <trkpt lat="48.50576" lon="-2.72404">
        <ele>75</ele>
        <time>2013-11-22T09:47:45Z</time>
      </trkpt>
      <trkpt lat="48.50578" lon="-2.72403">
        <ele>75</ele>
        <time>2013-11-22T09:47:46Z</time>
      </trkpt>
      <trkpt lat="48.50579" lon="-2.72403">
        <ele>75</ele>
        <time>2013-11-22T09:47:47Z</time>
      </trkpt>
      <trkpt lat="48.50581" lon="-2.72402">
        <ele>75</ele>
        <time>2013-11-22T09:47:48Z</time>
      </trkpt>
      <trkpt lat="48.50582" lon="-2.72402">
        <ele>75</ele>
        <time>2013-11-22T09:47:49Z</time>
      </trkpt>
      <trkpt lat="48.50584" lon="-2.72401">
        <ele>75</ele>
        <time>2013-11-22T09:47:50Z</time>
      </trkpt>
      <trkpt lat="48.50585" lon="-2.724">
        <ele>75</ele>
        <time>2013-11-22T09:47:51Z</time>
      </trkpt>
      <trkpt lat="48.50586" lon="-2.72399">
        <ele>75</ele>
        <time>2013-11-22T09:47:52Z</time>
      </trkpt>
      <trkpt lat="48.50588" lon="-2.72399">
        <ele>75</ele>
        <time>2013-11-22T09:47:53Z</time>
      </trkpt>
      <trkpt lat="48.50589" lon="-2.72398">
        <ele>75</ele>
        <time>2013-11-22T09:47:54Z</time>
      </trkpt>
      <trkpt lat="48.50591" lon="-2.72397">
        <ele>75</ele>
        <time>2013-11-22T09:47:55Z</time>
      </trkpt>
      <trkpt lat="48.50592" lon="-2.72397">
        <ele>75</ele>
        <time>2013-11-22T09:47:56Z</time>
      </trkpt>
      <trkpt lat="48.50594" lon="-2.72396">
        <ele>75</ele>
        <time>2013-11-22T09:47:57Z</time>
      </trkpt>
      <trkpt lat="48.50595" lon="-2.72396">
        <ele>75</ele>
        <time>2013-11-22T09:47:58Z</time>
      </trkpt>
      <trkpt lat="48.50597" lon="-2.72395">
        <ele>75</ele>
        <time>2013-11-22T09:47:59Z</time>
      </trkpt>
      <trkpt lat="48.50598" lon="-2.72395">
        <ele>75</ele>
        <time>2013-11-22T09:48:00Z</time>
      </trkpt>
      <trkpt lat="48.50599" lon="-2.72394">
        <ele>75</ele>
        <time>2013-11-22T09:48:01Z</time>
      </trkpt>
      <trkpt lat="48.506" lon="-2.72393">
        <ele>75</ele>
        <time>2013-11-22T09:48:02Z</time>
      </trkpt>
      <trkpt lat="48.50602" lon="-2.72392">
        <ele>75</ele>
        <time>2013-11-22T09:48:03Z</time>
      </trkpt>
      <trkpt lat="48.50603" lon="-2.72392">
        <ele>75</ele>
        <time>2013-11-22T09:48:04Z</time>
      </trkpt>
      <trkpt lat="48.50605" lon="-2.72391">
        <ele>75</ele>
        <time>2013-11-22T09:48:05Z</time>
      </trkpt>
      <trkpt lat="48.50606" lon="-2.72391">
        <ele>75</ele>
        <time>2013-11-22T09:48:06Z</time>
      </trkpt>
      <trkpt lat="48.50608" lon="-2.7239">
        <ele>75</ele>
        <time>2013-11-22T09:48:07Z</time>
      </trkpt>
      <trkpt lat="48.5061" lon="-2.72389">
        <ele>75</ele>
        <time>2013-11-22T09:48:08Z</time>
      </trkpt>
      <trkpt lat="48.50611" lon="-2.72389">
        <ele>75</ele>
        <time>2013-11-22T09:48:09Z</time>
      </trkpt>
      <trkpt lat="48.50613" lon="-2.72389">
        <ele>75</ele>
        <time>2013-11-22T09:48:10Z</time>
      </trkpt>
      <trkpt lat="48.50614" lon="-2.72388">
        <ele>75</ele>
        <time>2013-11-22T09:48:11Z</time>
      </trkpt>
      <trkpt lat="48.50616" lon="-2.72388">
        <ele>75</ele>
        <time>2013-11-22T09:48:12Z</time>
      </trkpt>
      <trkpt lat="48.50618" lon="-2.72388">
        <ele>75</ele>
        <time>2013-11-22T09:48:13Z</time>
      </trkpt>
      <trkpt lat="48.50619" lon="-2.72387">
        <ele>75</ele>
        <time>2013-11-22T09:48:14Z</time>
      </trkpt>
      <trkpt lat="48.50621" lon="-2.72386">
        <ele>75</ele>
        <time>2013-11-22T09:48:15Z</time>
      </trkpt>
      <trkpt lat="48.50622" lon="-2.72386">
        <ele>75</ele>
        <time>2013-11-22T09:48:16Z</time>
      </trkpt>
      <trkpt lat="48.50623" lon="-2.72385">
        <ele>75</ele>
        <time>2013-11-22T09:48:17Z</time>
      </trkpt>
      <trkpt lat="48.50624" lon="-2.72385">
        <ele>75</ele>
        <time>2013-11-22T09:48:18Z</time>
      </trkpt>
      <trkpt lat="48.50626" lon="-2.72384">
        <ele>75</ele>
        <time>2013-11-22T09:48:19Z</time>
      </trkpt>
      <trkpt lat="48.50628" lon="-2.72383">
        <ele>75</ele>
        <time>2013-11-22T09:48:20Z</time>
      </trkpt>
      <trkpt lat="48.50629" lon="-2.72383">
        <ele>75</ele>
        <time>2013-11-22T09:48:21Z</time>
      </trkpt>
      <trkpt lat="48.50631" lon="-2.72382">
        <ele>75</ele>
        <time>2013-11-22T09:48:22Z</time>
      </trkpt>
      <trkpt lat="48.50632" lon="-2.72382">
        <ele>75</ele>
        <time>2013-11-22T09:48:23Z</time>
      </trkpt>
      <trkpt lat="48.50634" lon="-2.72381">
        <ele>75</ele>
        <time>2013-11-22T09:48:24Z</time>
      </trkpt>
      <trkpt lat="48.50635" lon="-2.7238">
        <ele>75</ele>
        <time>2013-11-22T09:48:25Z</time>
      </trkpt>
      <trkpt lat="48.50637" lon="-2.72379">
        <ele>75</ele>
        <time>2013-11-22T09:48:26Z</time>
      </trkpt>
      <trkpt lat="48.50638" lon="-2.72379">
        <ele>75</ele>
        <time>2013-11-22T09:48:27Z</time>
      </trkpt>
      <trkpt lat="48.50639" lon="-2.72378">
        <ele>75</ele>
        <time>2013-11-22T09:48:28Z</time>
      </trkpt>
      <trkpt lat="48.5064" lon="-2.72378">
        <ele>75</ele>
        <time>2013-11-22T09:48:29Z</time>
      </trkpt>
      <trkpt lat="48.50642" lon="-2.72377">
        <ele>75</ele>
        <time>2013-11-22T09:48:30Z</time>
      </trkpt>
      <trkpt lat="48.50644" lon="-2.72376">
        <ele>75</ele>
        <time>2013-11-22T09:48:31Z</time>
      </trkpt>
      <trkpt lat="48.50645" lon="-2.72376">
        <ele>75</ele>
        <time>2013-11-22T09:48:32Z</time>
      </trkpt>
      <trkpt lat="48.50647" lon="-2.72375">
        <ele>75</ele>
        <time>2013-11-22T09:48:33Z</time>
      </trkpt>
      <trkpt lat="48.50648" lon="-2.72375">
        <ele>75</ele>
        <time>2013-11-22T09:48:34Z</time>
      </trkpt>
      <trkpt lat="48.50649" lon="-2.72374">
        <ele>75</ele>
        <time>2013-11-22T09:48:35Z</time>
      </trkpt>
      <trkpt lat="48.50651" lon="-2.72374">
        <ele>75</ele>
        <time>2013-11-22T09:48:36Z</time>
      </trkpt>
      <trkpt lat="48.50652" lon="-2.72373">
        <ele>75</ele>
        <time>2013-11-22T09:48:37Z</time>
      </trkpt>
      <trkpt lat="48.50653" lon="-2.72372">
        <ele>75</ele>
        <time>2013-11-22T09:48:38Z</time>
      </trkpt>
      <trkpt lat="48.50655" lon="-2.72372">
        <ele>75</ele>
        <time>2013-11-22T09:48:39Z</time>
      </trkpt>
      <trkpt lat="48.50656" lon="-2.72371">
        <ele>75</ele>
        <time>2013-11-22T09:48:40Z</time>
      </trkpt>
      <trkpt lat="48.50658" lon="-2.7237">
        <ele>75</ele>
        <time>2013-11-22T09:48:41Z</time>
      </trkpt>
      <trkpt lat="48.50659" lon="-2.72369">
        <ele>75</ele>
        <time>2013-11-22T09:48:42Z</time>
      </trkpt>
      <trkpt lat="48.50661" lon="-2.72369">
        <ele>75</ele>
        <time>2013-11-22T09:48:43Z</time>
      </trkpt>
      <trkpt lat="48.50663" lon="-2.72368">
        <ele>75</ele>
        <time>2013-11-22T09:48:44Z</time>
      </trkpt>
      <trkpt lat="48.50664" lon="-2.72367">
        <ele>75</ele>
        <time>2013-11-22T09:48:45Z</time>
      </trkpt>
      <trkpt lat="48.50666" lon="-2.72366">
        <ele>75</ele>
        <time>2013-11-22T09:48:46Z</time>
      </trkpt>
      <trkpt lat="48.50667" lon="-2.72366">
        <ele>75</ele>
        <time>2013-11-22T09:48:47Z</time>
      </trkpt>
      <trkpt lat="48.50669" lon="-2.72365">
        <ele>75</ele>
        <time>2013-11-22T09:48:48Z</time>
      </trkpt>
      <trkpt lat="48.5067" lon="-2.72365">
        <ele>75</ele>
        <time>2013-11-22T09:48:49Z</time>
      </trkpt>
      <trkpt lat="48.50671" lon="-2.72364">
        <ele>75</ele>
        <time>2013-11-22T09:48:50Z</time>
      </trkpt>
      <trkpt lat="48.50673" lon="-2.72363">
        <ele>75</ele>
        <time>2013-11-22T09:48:51Z</time>
      </trkpt>
      <trkpt lat="48.50674" lon="-2.72363">
        <ele>75</ele>
        <time>2013-11-22T09:48:52Z</time>
      </trkpt>
      <trkpt lat="48.50676" lon="-2.72362">
        <ele>75</ele>
        <time>2013-11-22T09:48:53Z</time>
      </trkpt>
      <trkpt lat="48.50677" lon="-2.72361">
        <ele>75</ele>
        <time>2013-11-22T09:48:54Z</time>
      </trkpt>
      <trkpt lat="48.50679" lon="-2.72361">
        <ele>75</ele>
        <time>2013-11-22T09:48:55Z</time>
      </trkpt>
      <trkpt lat="48.5068" lon="-2.7236">
        <ele>75</ele>
        <time>2013-11-22T09:48:56Z</time>
      </trkpt>
      <trkpt lat="48.50682" lon="-2.72359">
        <ele>75</ele>
        <time>2013-11-22T09:48:57Z</time>
      </trkpt>
      <trkpt lat="48.50683" lon="-2.72359">
        <ele>75</ele>
        <time>2013-11-22T09:48:58Z</time>
      </trkpt>
      <trkpt lat="48.50685" lon="-2.72358">
        <ele>75</ele>
        <time>2013-11-22T09:48:59Z</time>
      </trkpt>
      <trkpt lat="48.50686" lon="-2.72358">
        <ele>75</ele>
        <time>2013-11-22T09:49:00Z</time>
      </trkpt>
      <trkpt lat="48.50687" lon="-2.72357">
        <ele>75</ele>
        <time>2013-11-22T09:49:01Z</time>
      </trkpt>
      <trkpt lat="48.50689" lon="-2.72357">
        <ele>75</ele>
        <time>2013-11-22T09:49:02Z</time>
      </trkpt>
      <trkpt lat="48.5069" lon="-2.72356">
        <ele>75</ele>
        <time>2013-11-22T09:49:03Z</time>
      </trkpt>
      <trkpt lat="48.50692" lon="-2.72356">
        <ele>75</ele>
        <time>2013-11-22T09:49:04Z</time>
      </trkpt>
      <trkpt lat="48.50693" lon="-2.72355">
        <ele>75</ele>
        <time>2013-11-22T09:49:05Z</time>
      </trkpt>
      <trkpt lat="48.50695" lon="-2.72355">
        <ele>75</ele>
        <time>2013-11-22T09:49:06Z</time>
      </trkpt>
      <trkpt lat="48.50696" lon="-2.72354">
        <ele>75</ele>
        <time>2013-11-22T09:49:07Z</time>
      </trkpt>
      <trkpt lat="48.50698" lon="-2.72354">
        <ele>75</ele>
        <time>2013-11-22T09:49:08Z</time>
      </trkpt>
      <trkpt lat="48.50699" lon="-2.72353">
        <ele>75</ele>
        <time>2013-11-22T09:49:09Z</time>
      </trkpt>
      <trkpt lat="48.50701" lon="-2.72353">
        <ele>75</ele>
        <time>2013-11-22T09:49:10Z</time>
      </trkpt>
      <trkpt lat="48.50702" lon="-2.72353">
        <ele>75</ele>
        <time>2013-11-22T09:49:11Z</time>
      </trkpt>
      <trkpt lat="48.50704" lon="-2.72352">
        <ele>75</ele>
        <time>2013-11-22T09:49:12Z</time>
      </trkpt>
      <trkpt lat="48.50705" lon="-2.72352">
        <ele>75</ele>
        <time>2013-11-22T09:49:13Z</time>
      </trkpt>
      <trkpt lat="48.50707" lon="-2.72351">
        <ele>75</ele>
        <time>2013-11-22T09:49:14Z</time>
      </trkpt>
      <trkpt lat="48.50709" lon="-2.72351">
        <ele>75</ele>
        <time>2013-11-22T09:49:15Z</time>
      </trkpt>
      <trkpt lat="48.5071" lon="-2.7235">
        <ele>75</ele>
        <time>2013-11-22T09:49:16Z</time>
      </trkpt>
      <trkpt lat="48.50712" lon="-2.7235">
        <ele>75</ele>
        <time>2013-11-22T09:49:17Z</time>
      </trkpt>
      <trkpt lat="48.50713" lon="-2.7235">
        <ele>75</ele>
        <time>2013-11-22T09:49:18Z</time>
      </trkpt>
      <trkpt lat="48.50714" lon="-2.72349">
        <ele>75</ele>
        <time>2013-11-22T09:49:19Z</time>
      </trkpt>
      <trkpt lat="48.50716" lon="-2.72349">
        <ele>75</ele>
        <time>2013-11-22T09:49:20Z</time>
      </trkpt>
      <trkpt lat="48.50717" lon="-2.72349">
        <ele>75</ele>
        <time>2013-11-22T09:49:21Z</time>
      </trkpt>
      <trkpt lat="48.50719" lon="-2.72348">
        <ele>75</ele>
        <time>2013-11-22T09:49:22Z</time>
      </trkpt>
      <trkpt lat="48.5072" lon="-2.72348">
        <ele>75</ele>
        <time>2013-11-22T09:49:23Z</time>
      </trkpt>
      <trkpt lat="48.50721" lon="-2.72349">
        <ele>75</ele>
        <time>2013-11-22T09:49:24Z</time>
      </trkpt>
      <trkpt lat="48.50723" lon="-2.72349">
        <ele>75</ele>
        <time>2013-11-22T09:49:25Z</time>
      </trkpt>
      <trkpt lat="48.50724" lon="-2.72348">
        <ele>75</ele>
        <time>2013-11-22T09:49:26Z</time>
      </trkpt>
      <trkpt lat="48.50725" lon="-2.72348">
        <ele>75</ele>
        <time>2013-11-22T09:49:27Z</time>
      </trkpt>
      <trkpt lat="48.50726" lon="-2.72347">
        <ele>75</ele>
        <time>2013-11-22T09:49:28Z</time>
      </trkpt>
      <trkpt lat="48.50728" lon="-2.72347">
        <ele>75</ele>
        <time>2013-11-22T09:49:29Z</time>
      </trkpt>
      <trkpt lat="48.5073" lon="-2.72347">
        <ele>75</ele>
        <time>2013-11-22T09:49:30Z</time>
      </trkpt>
      <trkpt lat="48.50735" lon="-2.72347">
        <ele>74</ele>
        <time>2013-11-22T09:49:34Z</time>
      </trkpt>
      <trkpt lat="48.50737" lon="-2.72347">
        <ele>74</ele>
        <time>2013-11-22T09:49:35Z</time>
      </trkpt>
      <trkpt lat="48.50738" lon="-2.72346">
        <ele>74</ele>
        <time>2013-11-22T09:49:36Z</time>
      </trkpt>
      <trkpt lat="48.50746" lon="-2.72347">
        <ele>74</ele>
        <time>2013-11-22T09:49:41Z</time>
      </trkpt>
      <trkpt lat="48.50747" lon="-2.72347">
        <ele>74</ele>
        <time>2013-11-22T09:49:42Z</time>
      </trkpt>
      <trkpt lat="48.50749" lon="-2.72348">
        <ele>74</ele>
        <time>2013-11-22T09:49:44Z</time>
      </trkpt>
      <trkpt lat="48.50751" lon="-2.72349">
        <ele>74</ele>
        <time>2013-11-22T09:49:46Z</time>
      </trkpt>
      <trkpt lat="48.50752" lon="-2.7235">
        <ele>74</ele>
        <time>2013-11-22T09:49:47Z</time>
      </trkpt>
      <trkpt lat="48.50753" lon="-2.72352">
        <ele>74</ele>
        <time>2013-11-22T09:49:48Z</time>
      </trkpt>
      <trkpt lat="48.50754" lon="-2.72353">
        <ele>74</ele>
        <time>2013-11-22T09:49:49Z</time>
      </trkpt>
      <trkpt lat="48.50755" lon="-2.72355">
        <ele>74</ele>
        <time>2013-11-22T09:49:50Z</time>
      </trkpt>
      <trkpt lat="48.50756" lon="-2.72357">
        <ele>74</ele>
        <time>2013-11-22T09:49:51Z</time>
      </trkpt>
      <trkpt lat="48.50757" lon="-2.72358">
        <ele>74</ele>
        <time>2013-11-22T09:49:52Z</time>
      </trkpt>
      <trkpt lat="48.50757" lon="-2.7236">
        <ele>74</ele>
        <time>2013-11-22T09:49:53Z</time>
      </trkpt>
      <trkpt lat="48.50758" lon="-2.72362">
        <ele>74</ele>
        <time>2013-11-22T09:49:54Z</time>
      </trkpt>
      <trkpt lat="48.50758" lon="-2.72363">
        <ele>74</ele>
        <time>2013-11-22T09:49:55Z</time>
      </trkpt>
      <trkpt lat="48.50759" lon="-2.72365">
        <ele>74</ele>
        <time>2013-11-22T09:49:56Z</time>
      </trkpt>
      <trkpt lat="48.5076" lon="-2.72367">
        <ele>74</ele>
        <time>2013-11-22T09:49:57Z</time>
      </trkpt>
      <trkpt lat="48.5076" lon="-2.72369">
        <ele>74</ele>
        <time>2013-11-22T09:49:58Z</time>
      </trkpt>
      <trkpt lat="48.50761" lon="-2.72372">
        <ele>74</ele>
        <time>2013-11-22T09:49:59Z</time>
      </trkpt>
      <trkpt lat="48.50761" lon="-2.72374">
        <ele>74</ele>
        <time>2013-11-22T09:50:00Z</time>
      </trkpt>
      <trkpt lat="48.50762" lon="-2.72376">
        <ele>74</ele>
        <time>2013-11-22T09:50:01Z</time>
      </trkpt>
      <trkpt lat="48.50762" lon="-2.72379">
        <ele>74</ele>
        <time>2013-11-22T09:50:02Z</time>
      </trkpt>
      <trkpt lat="48.50763" lon="-2.72381">
        <ele>74</ele>
        <time>2013-11-22T09:50:03Z</time>
      </trkpt>
      <trkpt lat="48.50763" lon="-2.72383">
        <ele>74</ele>
        <time>2013-11-22T09:50:04Z</time>
      </trkpt>
      <trkpt lat="48.50764" lon="-2.72385">
        <ele>74</ele>
        <time>2013-11-22T09:50:05Z</time>
      </trkpt>
      <trkpt lat="48.50765" lon="-2.72387">
        <ele>74</ele>
        <time>2013-11-22T09:50:06Z</time>
      </trkpt>
      <trkpt lat="48.50765" lon="-2.72389">
        <ele>74</ele>
        <time>2013-11-22T09:50:07Z</time>
      </trkpt>
      <trkpt lat="48.50766" lon="-2.72391">
        <ele>74</ele>
        <time>2013-11-22T09:50:08Z</time>
      </trkpt>
      <trkpt lat="48.50767" lon="-2.72393">
        <ele>74</ele>
        <time>2013-11-22T09:50:09Z</time>
      </trkpt>
      <trkpt lat="48.50768" lon="-2.72395">
        <ele>74</ele>
        <time>2013-11-22T09:50:10Z</time>
      </trkpt>
      <trkpt lat="48.50769" lon="-2.72397">
        <ele>74</ele>
        <time>2013-11-22T09:50:11Z</time>
      </trkpt>
      <trkpt lat="48.5077" lon="-2.72399">
        <ele>74</ele>
        <time>2013-11-22T09:50:12Z</time>
      </trkpt>
      <trkpt lat="48.50771" lon="-2.72401">
        <ele>74</ele>
        <time>2013-11-22T09:50:13Z</time>
      </trkpt>
      <trkpt lat="48.50772" lon="-2.72402">
        <ele>74</ele>
        <time>2013-11-22T09:50:14Z</time>
      </trkpt>
      <trkpt lat="48.50773" lon="-2.72404">
        <ele>74</ele>
        <time>2013-11-22T09:50:15Z</time>
      </trkpt>
      <trkpt lat="48.50774" lon="-2.72406">
        <ele>74</ele>
        <time>2013-11-22T09:50:16Z</time>
      </trkpt>
      <trkpt lat="48.50775" lon="-2.72408">
        <ele>74</ele>
        <time>2013-11-22T09:50:17Z</time>
      </trkpt>
      <trkpt lat="48.50776" lon="-2.7241">
        <ele>74</ele>
        <time>2013-11-22T09:50:18Z</time>
      </trkpt>
      <trkpt lat="48.50777" lon="-2.72412">
        <ele>74</ele>
        <time>2013-11-22T09:50:19Z</time>
      </trkpt>
      <trkpt lat="48.50777" lon="-2.72414">
        <ele>74</ele>
        <time>2013-11-22T09:50:20Z</time>
      </trkpt>
      <trkpt lat="48.50779" lon="-2.72416">
        <ele>74</ele>
        <time>2013-11-22T09:50:21Z</time>
      </trkpt>
      <trkpt lat="48.50779" lon="-2.72418">
        <ele>74</ele>
        <time>2013-11-22T09:50:22Z</time>
      </trkpt>
      <trkpt lat="48.5078" lon="-2.7242">
        <ele>74</ele>
        <time>2013-11-22T09:50:23Z</time>
      </trkpt>
      <trkpt lat="48.50781" lon="-2.72422">
        <ele>74</ele>
        <time>2013-11-22T09:50:24Z</time>
      </trkpt>
      <trkpt lat="48.50782" lon="-2.72424">
        <ele>74</ele>
        <time>2013-11-22T09:50:25Z</time>
      </trkpt>
      <trkpt lat="48.50783" lon="-2.72426">
        <ele>74</ele>
        <time>2013-11-22T09:50:26Z</time>
      </trkpt>
      <trkpt lat="48.50783" lon="-2.72428">
        <ele>74</ele>
        <time>2013-11-22T09:50:27Z</time>
      </trkpt>
      <trkpt lat="48.50784" lon="-2.7243">
        <ele>74</ele>
        <time>2013-11-22T09:50:28Z</time>
      </trkpt>
      <trkpt lat="48.50785" lon="-2.72432">
        <ele>74</ele>
        <time>2013-11-22T09:50:29Z</time>
      </trkpt>
      <trkpt lat="48.50785" lon="-2.72434">
        <ele>74</ele>
        <time>2013-11-22T09:50:30Z</time>
      </trkpt>
      <trkpt lat="48.50786" lon="-2.72435">
        <ele>74</ele>
        <time>2013-11-22T09:50:31Z</time>
      </trkpt>
      <trkpt lat="48.50787" lon="-2.72437">
        <ele>74</ele>
        <time>2013-11-22T09:50:32Z</time>
      </trkpt>
      <trkpt lat="48.50787" lon="-2.72439">
        <ele>74</ele>
        <time>2013-11-22T09:50:33Z</time>
      </trkpt>
      <trkpt lat="48.50788" lon="-2.72441">
        <ele>74</ele>
        <time>2013-11-22T09:50:34Z</time>
      </trkpt>
      <trkpt lat="48.50788" lon="-2.72443">
        <ele>74</ele>
        <time>2013-11-22T09:50:35Z</time>
      </trkpt>
      <trkpt lat="48.50789" lon="-2.72445">
        <ele>74</ele>
        <time>2013-11-22T09:50:36Z</time>
      </trkpt>
      <trkpt lat="48.5079" lon="-2.72447">
        <ele>74</ele>
        <time>2013-11-22T09:50:37Z</time>
      </trkpt>
      <trkpt lat="48.5079" lon="-2.72449">
        <ele>74</ele>
        <time>2013-11-22T09:50:38Z</time>
      </trkpt>
      <trkpt lat="48.5079" lon="-2.72451">
        <ele>74</ele>
        <time>2013-11-22T09:50:39Z</time>
      </trkpt>
      <trkpt lat="48.50791" lon="-2.72453">
        <ele>74</ele>
        <time>2013-11-22T09:50:40Z</time>
      </trkpt>
      <trkpt lat="48.50792" lon="-2.72457">
        <ele>74</ele>
        <time>2013-11-22T09:50:42Z</time>
      </trkpt>
      <trkpt lat="48.50792" lon="-2.72459">
        <ele>74</ele>
        <time>2013-11-22T09:50:43Z</time>
      </trkpt>
      <trkpt lat="48.50792" lon="-2.72461">
        <ele>74</ele>
        <time>2013-11-22T09:50:44Z</time>
      </trkpt>
      <trkpt lat="48.50793" lon="-2.72463">
        <ele>74</ele>
        <time>2013-11-22T09:50:45Z</time>
      </trkpt>
      <trkpt lat="48.50793" lon="-2.72465">
        <ele>74</ele>
        <time>2013-11-22T09:50:46Z</time>
      </trkpt>
      <trkpt lat="48.50793" lon="-2.72467">
        <ele>74</ele>
        <time>2013-11-22T09:50:47Z</time>
      </trkpt>
      <trkpt lat="48.50794" lon="-2.72469">
        <ele>74</ele>
        <time>2013-11-22T09:50:48Z</time>
      </trkpt>
      <trkpt lat="48.50794" lon="-2.72471">
        <ele>74</ele>
        <time>2013-11-22T09:50:49Z</time>
      </trkpt>
      <trkpt lat="48.50795" lon="-2.72473">
        <ele>74</ele>
        <time>2013-11-22T09:50:50Z</time>
      </trkpt>
      <trkpt lat="48.50795" lon="-2.72475">
        <ele>74</ele>
        <time>2013-11-22T09:50:51Z</time>
      </trkpt>
      <trkpt lat="48.50795" lon="-2.72487">
        <ele>74</ele>
        <time>2013-11-22T09:50:56Z</time>
      </trkpt>
      <trkpt lat="48.50796" lon="-2.72489">
        <ele>74</ele>
        <time>2013-11-22T09:50:57Z</time>
      </trkpt>
      <trkpt lat="48.50796" lon="-2.72491">
        <ele>74</ele>
        <time>2013-11-22T09:50:58Z</time>
      </trkpt>
      <trkpt lat="48.50797" lon="-2.72493">
        <ele>74</ele>
        <time>2013-11-22T09:50:59Z</time>
      </trkpt>
      <trkpt lat="48.50798" lon="-2.72495">
        <ele>74</ele>
        <time>2013-11-22T09:51:00Z</time>
      </trkpt>
      <trkpt lat="48.50798" lon="-2.72497">
        <ele>74</ele>
        <time>2013-11-22T09:51:01Z</time>
      </trkpt>
      <trkpt lat="48.50799" lon="-2.72499">
        <ele>74</ele>
        <time>2013-11-22T09:51:02Z</time>
      </trkpt>
      <trkpt lat="48.508" lon="-2.72501">
        <ele>74</ele>
        <time>2013-11-22T09:51:03Z</time>
      </trkpt>
      <trkpt lat="48.508" lon="-2.72503">
        <ele>74</ele>
        <time>2013-11-22T09:51:04Z</time>
      </trkpt>
      <trkpt lat="48.50801" lon="-2.72505">
        <ele>74</ele>
        <time>2013-11-22T09:51:05Z</time>
      </trkpt>
      <trkpt lat="48.50801" lon="-2.72507">
        <ele>74</ele>
        <time>2013-11-22T09:51:06Z</time>
      </trkpt>
      <trkpt lat="48.50802" lon="-2.72509">
        <ele>74</ele>
        <time>2013-11-22T09:51:07Z</time>
      </trkpt>
      <trkpt lat="48.50803" lon="-2.72511">
        <ele>74</ele>
        <time>2013-11-22T09:51:08Z</time>
      </trkpt>
      <trkpt lat="48.50804" lon="-2.72513">
        <ele>74</ele>
        <time>2013-11-22T09:51:09Z</time>
      </trkpt>
      <trkpt lat="48.50805" lon="-2.72515">
        <ele>74</ele>
        <time>2013-11-22T09:51:10Z</time>
      </trkpt>
      <trkpt lat="48.50806" lon="-2.72517">
        <ele>74</ele>
        <time>2013-11-22T09:51:11Z</time>
      </trkpt>
      <trkpt lat="48.50806" lon="-2.72519">
        <ele>74</ele>
        <time>2013-11-22T09:51:12Z</time>
      </trkpt>
      <trkpt lat="48.50807" lon="-2.72521">
        <ele>74</ele>
        <time>2013-11-22T09:51:13Z</time>
      </trkpt>
      <trkpt lat="48.50808" lon="-2.72523">
        <ele>75</ele>
        <time>2013-11-22T09:51:14Z</time>
      </trkpt>
      <trkpt lat="48.50809" lon="-2.72525">
        <ele>75</ele>
        <time>2013-11-22T09:51:15Z</time>
      </trkpt>
      <trkpt lat="48.50809" lon="-2.72528">
        <ele>75</ele>
        <time>2013-11-22T09:51:16Z</time>
      </trkpt>
      <trkpt lat="48.5081" lon="-2.7253">
        <ele>75</ele>
        <time>2013-11-22T09:51:17Z</time>
      </trkpt>
      <trkpt lat="48.50811" lon="-2.72532">
        <ele>75</ele>
        <time>2013-11-22T09:51:18Z</time>
      </trkpt>
      <trkpt lat="48.50812" lon="-2.72534">
        <ele>75</ele>
        <time>2013-11-22T09:51:19Z</time>
      </trkpt>
      <trkpt lat="48.50812" lon="-2.72536">
        <ele>75</ele>
        <time>2013-11-22T09:51:20Z</time>
      </trkpt>
      <trkpt lat="48.50813" lon="-2.72537">
        <ele>75</ele>
        <time>2013-11-22T09:51:21Z</time>
      </trkpt>
      <trkpt lat="48.50814" lon="-2.72539">
        <ele>75</ele>
        <time>2013-11-22T09:51:22Z</time>
      </trkpt>
      <trkpt lat="48.50815" lon="-2.72541">
        <ele>75</ele>
        <time>2013-11-22T09:51:23Z</time>
      </trkpt>
      <trkpt lat="48.50816" lon="-2.72543">
        <ele>75</ele>
        <time>2013-11-22T09:51:24Z</time>
      </trkpt>
      <trkpt lat="48.50816" lon="-2.72545">
        <ele>75</ele>
        <time>2013-11-22T09:51:25Z</time>
      </trkpt>
      <trkpt lat="48.50817" lon="-2.72547">
        <ele>76</ele>
        <time>2013-11-22T09:51:26Z</time>
      </trkpt>
      <trkpt lat="48.50818" lon="-2.72549">
        <ele>76</ele>
        <time>2013-11-22T09:51:27Z</time>
      </trkpt>
      <trkpt lat="48.50819" lon="-2.72551">
        <ele>76</ele>
        <time>2013-11-22T09:51:28Z</time>
      </trkpt>
      <trkpt lat="48.50819" lon="-2.72553">
        <ele>76</ele>
        <time>2013-11-22T09:51:29Z</time>
      </trkpt>
      <trkpt lat="48.5082" lon="-2.72555">
        <ele>76</ele>
        <time>2013-11-22T09:51:30Z</time>
      </trkpt>
      <trkpt lat="48.5082" lon="-2.72557">
        <ele>76</ele>
        <time>2013-11-22T09:51:31Z</time>
      </trkpt>
      <trkpt lat="48.50821" lon="-2.72559">
        <ele>76</ele>
        <time>2013-11-22T09:51:32Z</time>
      </trkpt>
      <trkpt lat="48.50821" lon="-2.72561">
        <ele>76</ele>
        <time>2013-11-22T09:51:33Z</time>
      </trkpt>
      <trkpt lat="48.50822" lon="-2.72563">
        <ele>76</ele>
        <time>2013-11-22T09:51:34Z</time>
      </trkpt>
      <trkpt lat="48.50823" lon="-2.72565">
        <ele>76</ele>
        <time>2013-11-22T09:51:35Z</time>
      </trkpt>
      <trkpt lat="48.50824" lon="-2.72567">
        <ele>76</ele>
        <time>2013-11-22T09:51:36Z</time>
      </trkpt>
      <trkpt lat="48.50824" lon="-2.72569">
        <ele>76</ele>
        <time>2013-11-22T09:51:37Z</time>
      </trkpt>
      <trkpt lat="48.50824" lon="-2.72572">
        <ele>76</ele>
        <time>2013-11-22T09:51:38Z</time>
      </trkpt>
      <trkpt lat="48.50825" lon="-2.72574">
        <ele>76</ele>
        <time>2013-11-22T09:51:39Z</time>
      </trkpt>
      <trkpt lat="48.50826" lon="-2.72576">
        <ele>76</ele>
        <time>2013-11-22T09:51:40Z</time>
      </trkpt>
      <trkpt lat="48.50827" lon="-2.72577">
        <ele>76</ele>
        <time>2013-11-22T09:51:41Z</time>
      </trkpt>
      <trkpt lat="48.50828" lon="-2.72579">
        <ele>76</ele>
        <time>2013-11-22T09:51:42Z</time>
      </trkpt>
      <trkpt lat="48.50829" lon="-2.72581">
        <ele>76</ele>
        <time>2013-11-22T09:51:43Z</time>
      </trkpt>
      <trkpt lat="48.50829" lon="-2.72583">
        <ele>76</ele>
        <time>2013-11-22T09:51:44Z</time>
      </trkpt>
      <trkpt lat="48.5083" lon="-2.72585">
        <ele>76</ele>
        <time>2013-11-22T09:51:45Z</time>
      </trkpt>
      <trkpt lat="48.50831" lon="-2.72587">
        <ele>76</ele>
        <time>2013-11-22T09:51:46Z</time>
      </trkpt>
      <trkpt lat="48.50831" lon="-2.72589">
        <ele>76</ele>
        <time>2013-11-22T09:51:47Z</time>
      </trkpt>
      <trkpt lat="48.50832" lon="-2.72591">
        <ele>76</ele>
        <time>2013-11-22T09:51:48Z</time>
      </trkpt>
      <trkpt lat="48.50832" lon="-2.72593">
        <ele>76</ele>
        <time>2013-11-22T09:51:49Z</time>
      </trkpt>
      <trkpt lat="48.50833" lon="-2.72595">
        <ele>76</ele>
        <time>2013-11-22T09:51:50Z</time>
      </trkpt>
      <trkpt lat="48.50834" lon="-2.72596">
        <ele>76</ele>
        <time>2013-11-22T09:51:51Z</time>
      </trkpt>
      <trkpt lat="48.50834" lon="-2.72598">
        <ele>76</ele>
        <time>2013-11-22T09:51:52Z</time>
      </trkpt>
      <trkpt lat="48.50836" lon="-2.72601">
        <ele>76</ele>
        <time>2013-11-22T09:51:54Z</time>
      </trkpt>
      <trkpt lat="48.50836" lon="-2.72603">
        <ele>76</ele>
        <time>2013-11-22T09:51:55Z</time>
      </trkpt>
      <trkpt lat="48.50837" lon="-2.72605">
        <ele>76</ele>
        <time>2013-11-22T09:51:56Z</time>
      </trkpt>
      <trkpt lat="48.50838" lon="-2.72607">
        <ele>76</ele>
        <time>2013-11-22T09:51:57Z</time>
      </trkpt>
      <trkpt lat="48.50838" lon="-2.72609">
        <ele>76</ele>
        <time>2013-11-22T09:51:58Z</time>
      </trkpt>
      <trkpt lat="48.50839" lon="-2.7261">
        <ele>76</ele>
        <time>2013-11-22T09:51:59Z</time>
      </trkpt>
      <trkpt lat="48.5084" lon="-2.72612">
        <ele>76</ele>
        <time>2013-11-22T09:52:00Z</time>
      </trkpt>
      <trkpt lat="48.50841" lon="-2.72614">
        <ele>76</ele>
        <time>2013-11-22T09:52:01Z</time>
      </trkpt>
      <trkpt lat="48.50841" lon="-2.72616">
        <ele>76</ele>
        <time>2013-11-22T09:52:02Z</time>
      </trkpt>
      <trkpt lat="48.50842" lon="-2.72618">
        <ele>76</ele>
        <time>2013-11-22T09:52:03Z</time>
      </trkpt>
      <trkpt lat="48.50843" lon="-2.7262">
        <ele>76</ele>
        <time>2013-11-22T09:52:04Z</time>
      </trkpt>
      <trkpt lat="48.50844" lon="-2.72622">
        <ele>76</ele>
        <time>2013-11-22T09:52:05Z</time>
      </trkpt>
      <trkpt lat="48.50845" lon="-2.72624">
        <ele>76</ele>
        <time>2013-11-22T09:52:06Z</time>
      </trkpt>
      <trkpt lat="48.50845" lon="-2.72627">
        <ele>76</ele>
        <time>2013-11-22T09:52:07Z</time>
      </trkpt>
      <trkpt lat="48.50846" lon="-2.72629">
        <ele>76</ele>
        <time>2013-11-22T09:52:08Z</time>
      </trkpt>
      <trkpt lat="48.50847" lon="-2.7263">
        <ele>76</ele>
        <time>2013-11-22T09:52:09Z</time>
      </trkpt>
      <trkpt lat="48.50848" lon="-2.72632">
        <ele>76</ele>
        <time>2013-11-22T09:52:10Z</time>
      </trkpt>
      <trkpt lat="48.50848" lon="-2.72634">
        <ele>76</ele>
        <time>2013-11-22T09:52:11Z</time>
      </trkpt>
      <trkpt lat="48.50849" lon="-2.72637">
        <ele>76</ele>
        <time>2013-11-22T09:52:12Z</time>
      </trkpt>
      <trkpt lat="48.5085" lon="-2.72639">
        <ele>76</ele>
        <time>2013-11-22T09:52:13Z</time>
      </trkpt>
      <trkpt lat="48.5085" lon="-2.72641">
        <ele>76</ele>
        <time>2013-11-22T09:52:14Z</time>
      </trkpt>
      <trkpt lat="48.50851" lon="-2.72643">
        <ele>76</ele>
        <time>2013-11-22T09:52:15Z</time>
      </trkpt>
      <trkpt lat="48.50851" lon="-2.72646">
        <ele>76</ele>
        <time>2013-11-22T09:52:16Z</time>
      </trkpt>
      <trkpt lat="48.50852" lon="-2.72648">
        <ele>76</ele>
        <time>2013-11-22T09:52:17Z</time>
      </trkpt>
      <trkpt lat="48.50852" lon="-2.72652">
        <ele>76</ele>
        <time>2013-11-22T09:52:19Z</time>
      </trkpt>
      <trkpt lat="48.50853" lon="-2.72655">
        <ele>76</ele>
        <time>2013-11-22T09:52:20Z</time>
      </trkpt>
      <trkpt lat="48.50853" lon="-2.72657">
        <ele>76</ele>
        <time>2013-11-22T09:52:21Z</time>
      </trkpt>
      <trkpt lat="48.50853" lon="-2.72664">
        <ele>76</ele>
        <time>2013-11-22T09:52:25Z</time>
      </trkpt>
      <trkpt lat="48.50854" lon="-2.72668">
        <ele>76</ele>
        <time>2013-11-22T09:52:27Z</time>
      </trkpt>
      <trkpt lat="48.50854" lon="-2.7267">
        <ele>76</ele>
        <time>2013-11-22T09:52:28Z</time>
      </trkpt>
      <trkpt lat="48.50855" lon="-2.72672">
        <ele>76</ele>
        <time>2013-11-22T09:52:29Z</time>
      </trkpt>
      <trkpt lat="48.50856" lon="-2.72674">
        <ele>76</ele>
        <time>2013-11-22T09:52:30Z</time>
      </trkpt>
      <trkpt lat="48.50857" lon="-2.72676">
        <ele>76</ele>
        <time>2013-11-22T09:52:31Z</time>
      </trkpt>
      <trkpt lat="48.50857" lon="-2.72679">
        <ele>76</ele>
        <time>2013-11-22T09:52:32Z</time>
      </trkpt>
      <trkpt lat="48.50858" lon="-2.72681">
        <ele>76</ele>
        <time>2013-11-22T09:52:33Z</time>
      </trkpt>
      <trkpt lat="48.50859" lon="-2.72683">
        <ele>76</ele>
        <time>2013-11-22T09:52:34Z</time>
      </trkpt>
      <trkpt lat="48.50861" lon="-2.72685">
        <ele>76</ele>
        <time>2013-11-22T09:52:36Z</time>
      </trkpt>
      <trkpt lat="48.50862" lon="-2.72686">
        <ele>76</ele>
        <time>2013-11-22T09:52:37Z</time>
      </trkpt>
      <trkpt lat="48.50864" lon="-2.72686">
        <ele>76</ele>
        <time>2013-11-22T09:52:38Z</time>
      </trkpt>
      <trkpt lat="48.50865" lon="-2.72686">
        <ele>76</ele>
        <time>2013-11-22T09:52:39Z</time>
      </trkpt>
      <trkpt lat="48.50866" lon="-2.72686">
        <ele>76</ele>
        <time>2013-11-22T09:52:40Z</time>
      </trkpt>
      <trkpt lat="48.50868" lon="-2.72687">
        <ele>76</ele>
        <time>2013-11-22T09:52:41Z</time>
      </trkpt>
      <trkpt lat="48.5087" lon="-2.72687">
        <ele>76</ele>
        <time>2013-11-22T09:52:43Z</time>
      </trkpt>
      <trkpt lat="48.50872" lon="-2.72688">
        <ele>76</ele>
        <time>2013-11-22T09:52:44Z</time>
      </trkpt>
      <trkpt lat="48.50873" lon="-2.72688">
        <ele>76</ele>
        <time>2013-11-22T09:52:45Z</time>
      </trkpt>
      <trkpt lat="48.50875" lon="-2.72689">
        <ele>76</ele>
        <time>2013-11-22T09:52:47Z</time>
      </trkpt>
      <trkpt lat="48.50876" lon="-2.72689">
        <ele>76</ele>
        <time>2013-11-22T09:52:50Z</time>
      </trkpt>
      <trkpt lat="48.50878" lon="-2.7269">
        <ele>76</ele>
        <time>2013-11-22T09:52:52Z</time>
      </trkpt>
      <trkpt lat="48.5088" lon="-2.7269">
        <ele>76</ele>
        <time>2013-11-22T09:52:54Z</time>
      </trkpt>
      <trkpt lat="48.50882" lon="-2.7269">
        <ele>76</ele>
        <time>2013-11-22T09:52:55Z</time>
      </trkpt>
      <trkpt lat="48.50883" lon="-2.72691">
        <ele>76</ele>
        <time>2013-11-22T09:52:56Z</time>
      </trkpt>
      <trkpt lat="48.50885" lon="-2.72691">
        <ele>76</ele>
        <time>2013-11-22T09:52:57Z</time>
      </trkpt>
      <trkpt lat="48.50886" lon="-2.72691">
        <ele>76</ele>
        <time>2013-11-22T09:52:58Z</time>
      </trkpt>
      <trkpt lat="48.50888" lon="-2.72692">
        <ele>76</ele>
        <time>2013-11-22T09:52:59Z</time>
      </trkpt>
      <trkpt lat="48.5089" lon="-2.72692">
        <ele>76</ele>
        <time>2013-11-22T09:53:00Z</time>
      </trkpt>
      <trkpt lat="48.50894" lon="-2.72692">
        <ele>76</ele>
        <time>2013-11-22T09:53:03Z</time>
      </trkpt>
      <trkpt lat="48.50896" lon="-2.72692">
        <ele>76</ele>
        <time>2013-11-22T09:53:04Z</time>
      </trkpt>
      <trkpt lat="48.50898" lon="-2.72692">
        <ele>76</ele>
        <time>2013-11-22T09:53:05Z</time>
      </trkpt>
      <trkpt lat="48.50899" lon="-2.72692">
        <ele>76</ele>
        <time>2013-11-22T09:53:06Z</time>
      </trkpt>
      <trkpt lat="48.50902" lon="-2.72692">
        <ele>76</ele>
        <time>2013-11-22T09:53:08Z</time>
      </trkpt>
      <trkpt lat="48.50904" lon="-2.72692">
        <ele>76</ele>
        <time>2013-11-22T09:53:09Z</time>
      </trkpt>
      <trkpt lat="48.50905" lon="-2.72692">
        <ele>76</ele>
        <time>2013-11-22T09:53:10Z</time>
      </trkpt>
      <trkpt lat="48.50907" lon="-2.72691">
        <ele>76</ele>
        <time>2013-11-22T09:53:11Z</time>
      </trkpt>
      <trkpt lat="48.50909" lon="-2.72691">
        <ele>76</ele>
        <time>2013-11-22T09:53:12Z</time>
      </trkpt>
      <trkpt lat="48.5091" lon="-2.72691">
        <ele>76</ele>
        <time>2013-11-22T09:53:13Z</time>
      </trkpt>
      <trkpt lat="48.50912" lon="-2.72691">
        <ele>76</ele>
        <time>2013-11-22T09:53:14Z</time>
      </trkpt>
      <trkpt lat="48.50914" lon="-2.7269">
        <ele>76</ele>
        <time>2013-11-22T09:53:15Z</time>
      </trkpt>
      <trkpt lat="48.50915" lon="-2.7269">
        <ele>76</ele>
        <time>2013-11-22T09:53:16Z</time>
      </trkpt>
      <trkpt lat="48.50917" lon="-2.72689">
        <ele>76</ele>
        <time>2013-11-22T09:53:17Z</time>
      </trkpt>
      <trkpt lat="48.50919" lon="-2.72689">
        <ele>76</ele>
        <time>2013-11-22T09:53:18Z</time>
      </trkpt>
      <trkpt lat="48.5092" lon="-2.72688">
        <ele>76</ele>
        <time>2013-11-22T09:53:19Z</time>
      </trkpt>
      <trkpt lat="48.50922" lon="-2.72688">
        <ele>76</ele>
        <time>2013-11-22T09:53:20Z</time>
      </trkpt>
      <trkpt lat="48.50924" lon="-2.72687">
        <ele>76</ele>
        <time>2013-11-22T09:53:21Z</time>
      </trkpt>
      <trkpt lat="48.50925" lon="-2.72687">
        <ele>76</ele>
        <time>2013-11-22T09:53:22Z</time>
      </trkpt>
      <trkpt lat="48.50927" lon="-2.72686">
        <ele>76</ele>
        <time>2013-11-22T09:53:23Z</time>
      </trkpt>
      <trkpt lat="48.50929" lon="-2.72685">
        <ele>76</ele>
        <time>2013-11-22T09:53:24Z</time>
      </trkpt>
      <trkpt lat="48.5093" lon="-2.72685">
        <ele>76</ele>
        <time>2013-11-22T09:53:25Z</time>
      </trkpt>
      <trkpt lat="48.50932" lon="-2.72684">
        <ele>76</ele>
        <time>2013-11-22T09:53:26Z</time>
      </trkpt>
      <trkpt lat="48.50933" lon="-2.72683">
        <ele>76</ele>
        <time>2013-11-22T09:53:27Z</time>
      </trkpt>
      <trkpt lat="48.50935" lon="-2.72683">
        <ele>76</ele>
        <time>2013-11-22T09:53:28Z</time>
      </trkpt>
      <trkpt lat="48.50937" lon="-2.72682">
        <ele>76</ele>
        <time>2013-11-22T09:53:29Z</time>
      </trkpt>
      <trkpt lat="48.50938" lon="-2.72681">
        <ele>76</ele>
        <time>2013-11-22T09:53:30Z</time>
      </trkpt>
      <trkpt lat="48.50939" lon="-2.72681">
        <ele>76</ele>
        <time>2013-11-22T09:53:31Z</time>
      </trkpt>
      <trkpt lat="48.50941" lon="-2.7268">
        <ele>76</ele>
        <time>2013-11-22T09:53:32Z</time>
      </trkpt>
      <trkpt lat="48.50943" lon="-2.7268">
        <ele>76</ele>
        <time>2013-11-22T09:53:33Z</time>
      </trkpt>
      <trkpt lat="48.50944" lon="-2.72679">
        <ele>76</ele>
        <time>2013-11-22T09:53:34Z</time>
      </trkpt>
      <trkpt lat="48.50946" lon="-2.72678">
        <ele>76</ele>
        <time>2013-11-22T09:53:35Z</time>
      </trkpt>
      <trkpt lat="48.50948" lon="-2.72678">
        <ele>76</ele>
        <time>2013-11-22T09:53:36Z</time>
      </trkpt>
      <trkpt lat="48.50949" lon="-2.72677">
        <ele>76</ele>
        <time>2013-11-22T09:53:37Z</time>
      </trkpt>
      <trkpt lat="48.50951" lon="-2.72677">
        <ele>76</ele>
        <time>2013-11-22T09:53:38Z</time>
      </trkpt>
      <trkpt lat="48.50953" lon="-2.72676">
        <ele>76</ele>
        <time>2013-11-22T09:53:39Z</time>
      </trkpt>
      <trkpt lat="48.50954" lon="-2.72676">
        <ele>76</ele>
        <time>2013-11-22T09:53:40Z</time>
      </trkpt>
      <trkpt lat="48.50956" lon="-2.72675">
        <ele>76</ele>
        <time>2013-11-22T09:53:41Z</time>
      </trkpt>
      <trkpt lat="48.50957" lon="-2.72675">
        <ele>76</ele>
        <time>2013-11-22T09:53:42Z</time>
      </trkpt>
      <trkpt lat="48.50959" lon="-2.72674">
        <ele>76</ele>
        <time>2013-11-22T09:53:43Z</time>
      </trkpt>
      <trkpt lat="48.5096" lon="-2.72674">
        <ele>76</ele>
        <time>2013-11-22T09:53:44Z</time>
      </trkpt>
      <trkpt lat="48.50962" lon="-2.72674">
        <ele>76</ele>
        <time>2013-11-22T09:53:45Z</time>
      </trkpt>
      <trkpt lat="48.50963" lon="-2.72673">
        <ele>76</ele>
        <time>2013-11-22T09:53:46Z</time>
      </trkpt>
      <trkpt lat="48.50964" lon="-2.72673">
        <ele>76</ele>
        <time>2013-11-22T09:53:47Z</time>
      </trkpt>
      <trkpt lat="48.50966" lon="-2.72672">
        <ele>76</ele>
        <time>2013-11-22T09:53:48Z</time>
      </trkpt>
      <trkpt lat="48.50967" lon="-2.72671">
        <ele>76</ele>
        <time>2013-11-22T09:53:49Z</time>
      </trkpt>
      <trkpt lat="48.50969" lon="-2.72669">
        <ele>76</ele>
        <time>2013-11-22T09:53:51Z</time>
      </trkpt>
      <trkpt lat="48.50969" lon="-2.72667">
        <ele>76</ele>
        <time>2013-11-22T09:53:52Z</time>
      </trkpt>
      <trkpt lat="48.5097" lon="-2.72665">
        <ele>76</ele>
        <time>2013-11-22T09:53:53Z</time>
      </trkpt>
      <trkpt lat="48.50971" lon="-2.72663">
        <ele>76</ele>
        <time>2013-11-22T09:53:54Z</time>
      </trkpt>
      <trkpt lat="48.50971" lon="-2.7266">
        <ele>76</ele>
        <time>2013-11-22T09:53:55Z</time>
      </trkpt>
      <trkpt lat="48.50971" lon="-2.72657">
        <ele>76</ele>
        <time>2013-11-22T09:53:56Z</time>
      </trkpt>
      <trkpt lat="48.5097" lon="-2.72655">
        <ele>76</ele>
        <time>2013-11-22T09:53:57Z</time>
      </trkpt>
      <trkpt lat="48.50969" lon="-2.72652">
        <ele>76</ele>
        <time>2013-11-22T09:53:58Z</time>
      </trkpt>
      <trkpt lat="48.50969" lon="-2.72649">
        <ele>76</ele>
        <time>2013-11-22T09:53:59Z</time>
      </trkpt>
      <trkpt lat="48.50968" lon="-2.72647">
        <ele>76</ele>
        <time>2013-11-22T09:54:00Z</time>
      </trkpt>
      <trkpt lat="48.50967" lon="-2.72645">
        <ele>76</ele>
        <time>2013-11-22T09:54:01Z</time>
      </trkpt>
      <trkpt lat="48.50966" lon="-2.72642">
        <ele>76</ele>
        <time>2013-11-22T09:54:02Z</time>
      </trkpt>
      <trkpt lat="48.50966" lon="-2.7264">
        <ele>76</ele>
        <time>2013-11-22T09:54:03Z</time>
      </trkpt>
      <trkpt lat="48.50965" lon="-2.72638">
        <ele>76</ele>
        <time>2013-11-22T09:54:04Z</time>
      </trkpt>
      <trkpt lat="48.50964" lon="-2.72635">
        <ele>76</ele>
        <time>2013-11-22T09:54:05Z</time>
      </trkpt>
      <trkpt lat="48.50963" lon="-2.72632">
        <ele>76</ele>
        <time>2013-11-22T09:54:06Z</time>
      </trkpt>
      <trkpt lat="48.50962" lon="-2.72629">
        <ele>76</ele>
        <time>2013-11-22T09:54:07Z</time>
      </trkpt>
      <trkpt lat="48.50961" lon="-2.72627">
        <ele>76</ele>
        <time>2013-11-22T09:54:08Z</time>
      </trkpt>
      <trkpt lat="48.5096" lon="-2.72624">
        <ele>76</ele>
        <time>2013-11-22T09:54:09Z</time>
      </trkpt>
      <trkpt lat="48.50959" lon="-2.72622">
        <ele>76</ele>
        <time>2013-11-22T09:54:10Z</time>
      </trkpt>
      <trkpt lat="48.50958" lon="-2.72619">
        <ele>76</ele>
        <time>2013-11-22T09:54:11Z</time>
      </trkpt>
      <trkpt lat="48.50957" lon="-2.72617">
        <ele>76</ele>
        <time>2013-11-22T09:54:12Z</time>
      </trkpt>
      <trkpt lat="48.50956" lon="-2.72614">
        <ele>76</ele>
        <time>2013-11-22T09:54:14Z</time>
      </trkpt>
      <trkpt lat="48.50955" lon="-2.72611">
        <ele>76</ele>
        <time>2013-11-22T09:54:16Z</time>
      </trkpt>
      <trkpt lat="48.50954" lon="-2.72609">
        <ele>76</ele>
        <time>2013-11-22T09:54:17Z</time>
      </trkpt>
      <trkpt lat="48.50953" lon="-2.72607">
        <ele>76</ele>
        <time>2013-11-22T09:54:18Z</time>
      </trkpt>
      <trkpt lat="48.50953" lon="-2.72605">
        <ele>76</ele>
        <time>2013-11-22T09:54:19Z</time>
      </trkpt>
      <trkpt lat="48.50952" lon="-2.72603">
        <ele>76</ele>
        <time>2013-11-22T09:54:20Z</time>
      </trkpt>
      <trkpt lat="48.50951" lon="-2.726">
        <ele>76</ele>
        <time>2013-11-22T09:54:21Z</time>
      </trkpt>
      <trkpt lat="48.5095" lon="-2.72598">
        <ele>76</ele>
        <time>2013-11-22T09:54:22Z</time>
      </trkpt>
      <trkpt lat="48.5095" lon="-2.72597">
        <ele>76</ele>
        <time>2013-11-22T09:54:23Z</time>
      </trkpt>
      <trkpt lat="48.50949" lon="-2.72595">
        <ele>76</ele>
        <time>2013-11-22T09:54:24Z</time>
      </trkpt>
      <trkpt lat="48.50948" lon="-2.72593">
        <ele>76</ele>
        <time>2013-11-22T09:54:25Z</time>
      </trkpt>
      <trkpt lat="48.50948" lon="-2.72591">
        <ele>76</ele>
        <time>2013-11-22T09:54:26Z</time>
      </trkpt>
      <trkpt lat="48.50947" lon="-2.72589">
        <ele>76</ele>
        <time>2013-11-22T09:54:27Z</time>
      </trkpt>
      <trkpt lat="48.50947" lon="-2.72587">
        <ele>76</ele>
        <time>2013-11-22T09:54:28Z</time>
      </trkpt>
      <trkpt lat="48.50946" lon="-2.72585">
        <ele>76</ele>
        <time>2013-11-22T09:54:29Z</time>
      </trkpt>
      <trkpt lat="48.50946" lon="-2.72583">
        <ele>76</ele>
        <time>2013-11-22T09:54:30Z</time>
      </trkpt>
      <trkpt lat="48.50945" lon="-2.72581">
        <ele>76</ele>
        <time>2013-11-22T09:54:31Z</time>
      </trkpt>
      <trkpt lat="48.50944" lon="-2.72579">
        <ele>76</ele>
        <time>2013-11-22T09:54:32Z</time>
      </trkpt>
      <trkpt lat="48.50944" lon="-2.72577">
        <ele>76</ele>
        <time>2013-11-22T09:54:33Z</time>
      </trkpt>
      <trkpt lat="48.50943" lon="-2.72575">
        <ele>76</ele>
        <time>2013-11-22T09:54:34Z</time>
      </trkpt>
      <trkpt lat="48.50943" lon="-2.72573">
        <ele>76</ele>
        <time>2013-11-22T09:54:35Z</time>
      </trkpt>
      <trkpt lat="48.50942" lon="-2.72571">
        <ele>76</ele>
        <time>2013-11-22T09:54:36Z</time>
      </trkpt>
      <trkpt lat="48.50941" lon="-2.72569">
        <ele>76</ele>
        <time>2013-11-22T09:54:37Z</time>
      </trkpt>
      <trkpt lat="48.50941" lon="-2.72567">
        <ele>76</ele>
        <time>2013-11-22T09:54:38Z</time>
      </trkpt>
      <trkpt lat="48.5094" lon="-2.72565">
        <ele>76</ele>
        <time>2013-11-22T09:54:39Z</time>
      </trkpt>
      <trkpt lat="48.5094" lon="-2.72563">
        <ele>76</ele>
        <time>2013-11-22T09:54:40Z</time>
      </trkpt>
      <trkpt lat="48.50939" lon="-2.72561">
        <ele>76</ele>
        <time>2013-11-22T09:54:41Z</time>
      </trkpt>
      <trkpt lat="48.50939" lon="-2.72558">
        <ele>76</ele>
        <time>2013-11-22T09:54:42Z</time>
      </trkpt>
      <trkpt lat="48.50938" lon="-2.72556">
        <ele>76</ele>
        <time>2013-11-22T09:54:43Z</time>
      </trkpt>
      <trkpt lat="48.50938" lon="-2.72553">
        <ele>76</ele>
        <time>2013-11-22T09:54:44Z</time>
      </trkpt>
      <trkpt lat="48.50937" lon="-2.72551">
        <ele>76</ele>
        <time>2013-11-22T09:54:45Z</time>
      </trkpt>
      <trkpt lat="48.50936" lon="-2.72547">
        <ele>76</ele>
        <time>2013-11-22T09:54:47Z</time>
      </trkpt>
      <trkpt lat="48.50936" lon="-2.72545">
        <ele>76</ele>
        <time>2013-11-22T09:54:48Z</time>
      </trkpt>
      <trkpt lat="48.50935" lon="-2.72542">
        <ele>76</ele>
        <time>2013-11-22T09:54:49Z</time>
      </trkpt>
      <trkpt lat="48.50935" lon="-2.7254">
        <ele>76</ele>
        <time>2013-11-22T09:54:50Z</time>
      </trkpt>
      <trkpt lat="48.50935" lon="-2.72538">
        <ele>76</ele>
        <time>2013-11-22T09:54:51Z</time>
      </trkpt>
      <trkpt lat="48.50934" lon="-2.72536">
        <ele>76</ele>
        <time>2013-11-22T09:54:52Z</time>
      </trkpt>
      <trkpt lat="48.50934" lon="-2.72534">
        <ele>76</ele>
        <time>2013-11-22T09:54:53Z</time>
      </trkpt>
      <trkpt lat="48.50933" lon="-2.7253">
        <ele>76</ele>
        <time>2013-11-22T09:54:55Z</time>
      </trkpt>
      <trkpt lat="48.50933" lon="-2.72528">
        <ele>76</ele>
        <time>2013-11-22T09:54:56Z</time>
      </trkpt>
      <trkpt lat="48.50933" lon="-2.72523">
        <ele>76</ele>
        <time>2013-11-22T09:54:58Z</time>
      </trkpt>
      <trkpt lat="48.50932" lon="-2.72518">
        <ele>76</ele>
        <time>2013-11-22T09:55:00Z</time>
      </trkpt>
      <trkpt lat="48.50932" lon="-2.72513">
        <ele>76</ele>
        <time>2013-11-22T09:55:02Z</time>
      </trkpt>
      <trkpt lat="48.50932" lon="-2.72498">
        <ele>76</ele>
        <time>2013-11-22T09:55:08Z</time>
      </trkpt>
      <trkpt lat="48.50931" lon="-2.72452">
        <ele>75</ele>
        <time>2013-11-22T09:55:29Z</time>
      </trkpt>
      <trkpt lat="48.50932" lon="-2.7245">
        <ele>75</ele>
        <time>2013-11-22T09:55:30Z</time>
      </trkpt>
      <trkpt lat="48.50931" lon="-2.72421">
        <ele>74</ele>
        <time>2013-11-22T09:55:44Z</time>
      </trkpt>
      <trkpt lat="48.50931" lon="-2.72416">
        <ele>74</ele>
        <time>2013-11-22T09:55:46Z</time>
      </trkpt>
      <trkpt lat="48.5093" lon="-2.72414">
        <ele>74</ele>
        <time>2013-11-22T09:55:47Z</time>
      </trkpt>
      <trkpt lat="48.5093" lon="-2.72411">
        <ele>74</ele>
        <time>2013-11-22T09:55:48Z</time>
      </trkpt>
      <trkpt lat="48.5093" lon="-2.72409">
        <ele>74</ele>
        <time>2013-11-22T09:55:49Z</time>
      </trkpt>
      <trkpt lat="48.50929" lon="-2.72406">
        <ele>74</ele>
        <time>2013-11-22T09:55:50Z</time>
      </trkpt>
      <trkpt lat="48.50929" lon="-2.72404">
        <ele>74</ele>
        <time>2013-11-22T09:55:51Z</time>
      </trkpt>
      <trkpt lat="48.50929" lon="-2.72402">
        <ele>74</ele>
        <time>2013-11-22T09:55:52Z</time>
      </trkpt>
      <trkpt lat="48.50928" lon="-2.72399">
        <ele>74</ele>
        <time>2013-11-22T09:55:53Z</time>
      </trkpt>
      <trkpt lat="48.50928" lon="-2.72397">
        <ele>74</ele>
        <time>2013-11-22T09:55:54Z</time>
      </trkpt>
      <trkpt lat="48.50927" lon="-2.72395">
        <ele>73</ele>
        <time>2013-11-22T09:55:55Z</time>
      </trkpt>
      <trkpt lat="48.50927" lon="-2.72393">
        <ele>73</ele>
        <time>2013-11-22T09:55:56Z</time>
      </trkpt>
      <trkpt lat="48.50927" lon="-2.72391">
        <ele>73</ele>
        <time>2013-11-22T09:55:57Z</time>
      </trkpt>
      <trkpt lat="48.50926" lon="-2.72389">
        <ele>73</ele>
        <time>2013-11-22T09:55:58Z</time>
      </trkpt>
      <trkpt lat="48.50926" lon="-2.72388">
        <ele>73</ele>
        <time>2013-11-22T09:55:59Z</time>
      </trkpt>
      <trkpt lat="48.50925" lon="-2.72386">
        <ele>73</ele>
        <time>2013-11-22T09:56:00Z</time>
      </trkpt>
      <trkpt lat="48.50925" lon="-2.72384">
        <ele>73</ele>
        <time>2013-11-22T09:56:01Z</time>
      </trkpt>
      <trkpt lat="48.50924" lon="-2.72382">
        <ele>73</ele>
        <time>2013-11-22T09:56:02Z</time>
      </trkpt>
      <trkpt lat="48.50924" lon="-2.7238">
        <ele>73</ele>
        <time>2013-11-22T09:56:03Z</time>
      </trkpt>
      <trkpt lat="48.50923" lon="-2.72378">
        <ele>73</ele>
        <time>2013-11-22T09:56:04Z</time>
      </trkpt>
      <trkpt lat="48.50923" lon="-2.72376">
        <ele>73</ele>
        <time>2013-11-22T09:56:05Z</time>
      </trkpt>
      <trkpt lat="48.50922" lon="-2.72374">
        <ele>73</ele>
        <time>2013-11-22T09:56:06Z</time>
      </trkpt>
      <trkpt lat="48.50922" lon="-2.72373">
        <ele>73</ele>
        <time>2013-11-22T09:56:07Z</time>
      </trkpt>
      <trkpt lat="48.50921" lon="-2.72369">
        <ele>73</ele>
        <time>2013-11-22T09:56:09Z</time>
      </trkpt>
      <trkpt lat="48.5092" lon="-2.72363">
        <ele>73</ele>
        <time>2013-11-22T09:56:12Z</time>
      </trkpt>
      <trkpt lat="48.5092" lon="-2.72361">
        <ele>73</ele>
        <time>2013-11-22T09:56:13Z</time>
      </trkpt>
      <trkpt lat="48.50919" lon="-2.72359">
        <ele>73</ele>
        <time>2013-11-22T09:56:14Z</time>
      </trkpt>
      <trkpt lat="48.50919" lon="-2.72358">
        <ele>73</ele>
        <time>2013-11-22T09:56:15Z</time>
      </trkpt>
      <trkpt lat="48.50918" lon="-2.72356">
        <ele>73</ele>
        <time>2013-11-22T09:56:16Z</time>
      </trkpt>
      <trkpt lat="48.50918" lon="-2.72354">
        <ele>73</ele>
        <time>2013-11-22T09:56:17Z</time>
      </trkpt>
      <trkpt lat="48.50917" lon="-2.72353">
        <ele>73</ele>
        <time>2013-11-22T09:56:18Z</time>
      </trkpt>
      <trkpt lat="48.50917" lon="-2.72351">
        <ele>73</ele>
        <time>2013-11-22T09:56:19Z</time>
      </trkpt>
      <trkpt lat="48.50917" lon="-2.72349">
        <ele>73</ele>
        <time>2013-11-22T09:56:20Z</time>
      </trkpt>
      <trkpt lat="48.50916" lon="-2.72347">
        <ele>73</ele>
        <time>2013-11-22T09:56:21Z</time>
      </trkpt>
      <trkpt lat="48.50916" lon="-2.72345">
        <ele>73</ele>
        <time>2013-11-22T09:56:22Z</time>
      </trkpt>
      <trkpt lat="48.50916" lon="-2.72343">
        <ele>73</ele>
        <time>2013-11-22T09:56:23Z</time>
      </trkpt>
      <trkpt lat="48.50915" lon="-2.72341">
        <ele>73</ele>
        <time>2013-11-22T09:56:24Z</time>
      </trkpt>
      <trkpt lat="48.50915" lon="-2.72339">
        <ele>73</ele>
        <time>2013-11-22T09:56:25Z</time>
      </trkpt>
      <trkpt lat="48.50914" lon="-2.72337">
        <ele>73</ele>
        <time>2013-11-22T09:56:26Z</time>
      </trkpt>
      <trkpt lat="48.50914" lon="-2.72335">
        <ele>73</ele>
        <time>2013-11-22T09:56:27Z</time>
      </trkpt>
      <trkpt lat="48.50914" lon="-2.72333">
        <ele>73</ele>
        <time>2013-11-22T09:56:28Z</time>
      </trkpt>
      <trkpt lat="48.50913" lon="-2.7233">
        <ele>73</ele>
        <time>2013-11-22T09:56:29Z</time>
      </trkpt>
      <trkpt lat="48.50912" lon="-2.72326">
        <ele>72</ele>
        <time>2013-11-22T09:56:31Z</time>
      </trkpt>
      <trkpt lat="48.50912" lon="-2.72324">
        <ele>72</ele>
        <time>2013-11-22T09:56:32Z</time>
      </trkpt>
      <trkpt lat="48.50912" lon="-2.72322">
        <ele>72</ele>
        <time>2013-11-22T09:56:33Z</time>
      </trkpt>
      <trkpt lat="48.50911" lon="-2.7232">
        <ele>72</ele>
        <time>2013-11-22T09:56:34Z</time>
      </trkpt>
      <trkpt lat="48.50911" lon="-2.72316">
        <ele>72</ele>
        <time>2013-11-22T09:56:36Z</time>
      </trkpt>
      <trkpt lat="48.5091" lon="-2.72313">
        <ele>72</ele>
        <time>2013-11-22T09:56:37Z</time>
      </trkpt>
      <trkpt lat="48.5091" lon="-2.72311">
        <ele>72</ele>
        <time>2013-11-22T09:56:38Z</time>
      </trkpt>
      <trkpt lat="48.50909" lon="-2.72309">
        <ele>72</ele>
        <time>2013-11-22T09:56:39Z</time>
      </trkpt>
      <trkpt lat="48.50909" lon="-2.72307">
        <ele>72</ele>
        <time>2013-11-22T09:56:40Z</time>
      </trkpt>
      <trkpt lat="48.50909" lon="-2.72305">
        <ele>72</ele>
        <time>2013-11-22T09:56:41Z</time>
      </trkpt>
      <trkpt lat="48.50908" lon="-2.72301">
        <ele>72</ele>
        <time>2013-11-22T09:56:43Z</time>
      </trkpt>
      <trkpt lat="48.50908" lon="-2.72299">
        <ele>72</ele>
        <time>2013-11-22T09:56:44Z</time>
      </trkpt>
      <trkpt lat="48.50908" lon="-2.72297">
        <ele>72</ele>
        <time>2013-11-22T09:56:45Z</time>
      </trkpt>
      <trkpt lat="48.50907" lon="-2.72295">
        <ele>72</ele>
        <time>2013-11-22T09:56:46Z</time>
      </trkpt>
      <trkpt lat="48.50907" lon="-2.72291">
        <ele>72</ele>
        <time>2013-11-22T09:56:48Z</time>
      </trkpt>
      <trkpt lat="48.50906" lon="-2.7229">
        <ele>72</ele>
        <time>2013-11-22T09:56:49Z</time>
      </trkpt>
      <trkpt lat="48.50906" lon="-2.72288">
        <ele>72</ele>
        <time>2013-11-22T09:56:50Z</time>
      </trkpt>
      <trkpt lat="48.50905" lon="-2.72286">
        <ele>72</ele>
        <time>2013-11-22T09:56:51Z</time>
      </trkpt>
      <trkpt lat="48.50905" lon="-2.72284">
        <ele>72</ele>
        <time>2013-11-22T09:56:52Z</time>
      </trkpt>
      <trkpt lat="48.50904" lon="-2.72282">
        <ele>72</ele>
        <time>2013-11-22T09:56:53Z</time>
      </trkpt>
      <trkpt lat="48.50904" lon="-2.72281">
        <ele>72</ele>
        <time>2013-11-22T09:56:54Z</time>
      </trkpt>
      <trkpt lat="48.50903" lon="-2.72279">
        <ele>72</ele>
        <time>2013-11-22T09:56:55Z</time>
      </trkpt>
      <trkpt lat="48.50903" lon="-2.72275">
        <ele>72</ele>
        <time>2013-11-22T09:56:57Z</time>
      </trkpt>
      <trkpt lat="48.50902" lon="-2.72273">
        <ele>72</ele>
        <time>2013-11-22T09:56:58Z</time>
      </trkpt>
      <trkpt lat="48.50901" lon="-2.72271">
        <ele>72</ele>
        <time>2013-11-22T09:56:59Z</time>
      </trkpt>
      <trkpt lat="48.50901" lon="-2.72269">
        <ele>72</ele>
        <time>2013-11-22T09:57:00Z</time>
      </trkpt>
      <trkpt lat="48.509" lon="-2.72267">
        <ele>72</ele>
        <time>2013-11-22T09:57:01Z</time>
      </trkpt>
      <trkpt lat="48.50899" lon="-2.72265">
        <ele>72</ele>
        <time>2013-11-22T09:57:02Z</time>
      </trkpt>
      <trkpt lat="48.50898" lon="-2.72264">
        <ele>72</ele>
        <time>2013-11-22T09:57:03Z</time>
      </trkpt>
      <trkpt lat="48.50898" lon="-2.72262">
        <ele>72</ele>
        <time>2013-11-22T09:57:04Z</time>
      </trkpt>
      <trkpt lat="48.50897" lon="-2.7226">
        <ele>72</ele>
        <time>2013-11-22T09:57:05Z</time>
      </trkpt>
      <trkpt lat="48.50896" lon="-2.72258">
        <ele>72</ele>
        <time>2013-11-22T09:57:06Z</time>
      </trkpt>
      <trkpt lat="48.50895" lon="-2.72256">
        <ele>71</ele>
        <time>2013-11-22T09:57:07Z</time>
      </trkpt>
      <trkpt lat="48.50895" lon="-2.72254">
        <ele>71</ele>
        <time>2013-11-22T09:57:08Z</time>
      </trkpt>
      <trkpt lat="48.50894" lon="-2.72252">
        <ele>71</ele>
        <time>2013-11-22T09:57:09Z</time>
      </trkpt>
      <trkpt lat="48.50893" lon="-2.7225">
        <ele>71</ele>
        <time>2013-11-22T09:57:10Z</time>
      </trkpt>
      <trkpt lat="48.50893" lon="-2.72248">
        <ele>70</ele>
        <time>2013-11-22T09:57:11Z</time>
      </trkpt>
      <trkpt lat="48.50892" lon="-2.72246">
        <ele>70</ele>
        <time>2013-11-22T09:57:12Z</time>
      </trkpt>
      <trkpt lat="48.50891" lon="-2.72244">
        <ele>70</ele>
        <time>2013-11-22T09:57:13Z</time>
      </trkpt>
      <trkpt lat="48.5089" lon="-2.72243">
        <ele>70</ele>
        <time>2013-11-22T09:57:14Z</time>
      </trkpt>
      <trkpt lat="48.5089" lon="-2.72241">
        <ele>70</ele>
        <time>2013-11-22T09:57:15Z</time>
      </trkpt>
      <trkpt lat="48.50889" lon="-2.72239">
        <ele>69</ele>
        <time>2013-11-22T09:57:16Z</time>
      </trkpt>
      <trkpt lat="48.50888" lon="-2.72237">
        <ele>69</ele>
        <time>2013-11-22T09:57:17Z</time>
      </trkpt>
      <trkpt lat="48.50887" lon="-2.72236">
        <ele>69</ele>
        <time>2013-11-22T09:57:18Z</time>
      </trkpt>
      <trkpt lat="48.50886" lon="-2.72233">
        <ele>69</ele>
        <time>2013-11-22T09:57:20Z</time>
      </trkpt>
      <trkpt lat="48.50885" lon="-2.72231">
        <ele>69</ele>
        <time>2013-11-22T09:57:21Z</time>
      </trkpt>
      <trkpt lat="48.50885" lon="-2.72229">
        <ele>69</ele>
        <time>2013-11-22T09:57:22Z</time>
      </trkpt>
      <trkpt lat="48.50884" lon="-2.72227">
        <ele>69</ele>
        <time>2013-11-22T09:57:23Z</time>
      </trkpt>
      <trkpt lat="48.50883" lon="-2.72225">
        <ele>69</ele>
        <time>2013-11-22T09:57:24Z</time>
      </trkpt>
      <trkpt lat="48.50882" lon="-2.72224">
        <ele>69</ele>
        <time>2013-11-22T09:57:25Z</time>
      </trkpt>
      <trkpt lat="48.50882" lon="-2.72222">
        <ele>69</ele>
        <time>2013-11-22T09:57:26Z</time>
      </trkpt>
      <trkpt lat="48.50881" lon="-2.7222">
        <ele>69</ele>
        <time>2013-11-22T09:57:27Z</time>
      </trkpt>
      <trkpt lat="48.5088" lon="-2.72217">
        <ele>69</ele>
        <time>2013-11-22T09:57:28Z</time>
      </trkpt>
      <trkpt lat="48.50879" lon="-2.72215">
        <ele>69</ele>
        <time>2013-11-22T09:57:29Z</time>
      </trkpt>
      <trkpt lat="48.50878" lon="-2.72213">
        <ele>69</ele>
        <time>2013-11-22T09:57:30Z</time>
      </trkpt>
      <trkpt lat="48.50877" lon="-2.72211">
        <ele>69</ele>
        <time>2013-11-22T09:57:31Z</time>
      </trkpt>
      <trkpt lat="48.50877" lon="-2.72209">
        <ele>69</ele>
        <time>2013-11-22T09:57:32Z</time>
      </trkpt>
      <trkpt lat="48.50876" lon="-2.72207">
        <ele>69</ele>
        <time>2013-11-22T09:57:33Z</time>
      </trkpt>
      <trkpt lat="48.50875" lon="-2.72206">
        <ele>69</ele>
        <time>2013-11-22T09:57:34Z</time>
      </trkpt>
      <trkpt lat="48.50875" lon="-2.72203">
        <ele>68</ele>
        <time>2013-11-22T09:57:35Z</time>
      </trkpt>
      <trkpt lat="48.50874" lon="-2.72202">
        <ele>68</ele>
        <time>2013-11-22T09:57:36Z</time>
      </trkpt>
      <trkpt lat="48.50874" lon="-2.722">
        <ele>68</ele>
        <time>2013-11-22T09:57:37Z</time>
      </trkpt>
      <trkpt lat="48.50872" lon="-2.72197">
        <ele>68</ele>
        <time>2013-11-22T09:57:39Z</time>
      </trkpt>
      <trkpt lat="48.50872" lon="-2.72195">
        <ele>68</ele>
        <time>2013-11-22T09:57:40Z</time>
      </trkpt>
      <trkpt lat="48.50871" lon="-2.72193">
        <ele>68</ele>
        <time>2013-11-22T09:57:41Z</time>
      </trkpt>
      <trkpt lat="48.50869" lon="-2.7219">
        <ele>68</ele>
        <time>2013-11-22T09:57:43Z</time>
      </trkpt>
      <trkpt lat="48.50868" lon="-2.72187">
        <ele>67</ele>
        <time>2013-11-22T09:57:45Z</time>
      </trkpt>
      <trkpt lat="48.50868" lon="-2.72186">
        <ele>67</ele>
        <time>2013-11-22T09:57:46Z</time>
      </trkpt>
      <trkpt lat="48.50867" lon="-2.72184">
        <ele>67</ele>
        <time>2013-11-22T09:57:47Z</time>
      </trkpt>
      <trkpt lat="48.50866" lon="-2.72181">
        <ele>67</ele>
        <time>2013-11-22T09:57:49Z</time>
      </trkpt>
      <trkpt lat="48.50865" lon="-2.72179">
        <ele>67</ele>
        <time>2013-11-22T09:57:50Z</time>
      </trkpt>
      <trkpt lat="48.50864" lon="-2.72176">
        <ele>67</ele>
        <time>2013-11-22T09:57:52Z</time>
      </trkpt>
      <trkpt lat="48.50864" lon="-2.72175">
        <ele>66</ele>
        <time>2013-11-22T09:57:53Z</time>
      </trkpt>
      <trkpt lat="48.50863" lon="-2.72173">
        <ele>66</ele>
        <time>2013-11-22T09:57:54Z</time>
      </trkpt>
      <trkpt lat="48.50863" lon="-2.72171">
        <ele>66</ele>
        <time>2013-11-22T09:57:55Z</time>
      </trkpt>
      <trkpt lat="48.50862" lon="-2.7217">
        <ele>66</ele>
        <time>2013-11-22T09:57:56Z</time>
      </trkpt>
      <trkpt lat="48.50861" lon="-2.72168">
        <ele>66</ele>
        <time>2013-11-22T09:57:57Z</time>
      </trkpt>
      <trkpt lat="48.50861" lon="-2.72166">
        <ele>65</ele>
        <time>2013-11-22T09:57:58Z</time>
      </trkpt>
      <trkpt lat="48.5086" lon="-2.72164">
        <ele>65</ele>
        <time>2013-11-22T09:57:59Z</time>
      </trkpt>
      <trkpt lat="48.50859" lon="-2.72162">
        <ele>65</ele>
        <time>2013-11-22T09:58:01Z</time>
      </trkpt>
      <trkpt lat="48.50858" lon="-2.7216">
        <ele>64</ele>
        <time>2013-11-22T09:58:02Z</time>
      </trkpt>
      <trkpt lat="48.50856" lon="-2.72159">
        <ele>64</ele>
        <time>2013-11-22T09:58:03Z</time>
      </trkpt>
      <trkpt lat="48.50855" lon="-2.72159">
        <ele>64</ele>
        <time>2013-11-22T09:58:04Z</time>
      </trkpt>
      <trkpt lat="48.50853" lon="-2.72159">
        <ele>64</ele>
        <time>2013-11-22T09:58:05Z</time>
      </trkpt>
      <trkpt lat="48.50852" lon="-2.72159">
        <ele>64</ele>
        <time>2013-11-22T09:58:06Z</time>
      </trkpt>
      <trkpt lat="48.5085" lon="-2.72159">
        <ele>63</ele>
        <time>2013-11-22T09:58:07Z</time>
      </trkpt>
      <trkpt lat="48.50849" lon="-2.7216">
        <ele>63</ele>
        <time>2013-11-22T09:58:08Z</time>
      </trkpt>
      <trkpt lat="48.50846" lon="-2.7216">
        <ele>62</ele>
        <time>2013-11-22T09:58:10Z</time>
      </trkpt>
      <trkpt lat="48.50844" lon="-2.72161">
        <ele>62</ele>
        <time>2013-11-22T09:58:11Z</time>
      </trkpt>
      <trkpt lat="48.50843" lon="-2.72161">
        <ele>62</ele>
        <time>2013-11-22T09:58:12Z</time>
      </trkpt>
      <trkpt lat="48.50842" lon="-2.72162">
        <ele>61</ele>
        <time>2013-11-22T09:58:13Z</time>
      </trkpt>
      <trkpt lat="48.5084" lon="-2.72162">
        <ele>61</ele>
        <time>2013-11-22T09:58:14Z</time>
      </trkpt>
      <trkpt lat="48.50839" lon="-2.72162">
        <ele>60</ele>
        <time>2013-11-22T09:58:15Z</time>
      </trkpt>
      <trkpt lat="48.50838" lon="-2.72162">
        <ele>60</ele>
        <time>2013-11-22T09:58:16Z</time>
      </trkpt>
      <trkpt lat="48.50836" lon="-2.72163">
        <ele>60</ele>
        <time>2013-11-22T09:58:17Z</time>
      </trkpt>
      <trkpt lat="48.50835" lon="-2.72164">
        <ele>59</ele>
        <time>2013-11-22T09:58:18Z</time>
      </trkpt>
      <trkpt lat="48.50834" lon="-2.72164">
        <ele>59</ele>
        <time>2013-11-22T09:58:19Z</time>
      </trkpt>
      <trkpt lat="48.50833" lon="-2.72165">
        <ele>59</ele>
        <time>2013-11-22T09:58:20Z</time>
      </trkpt>
      <trkpt lat="48.50832" lon="-2.72165">
        <ele>58</ele>
        <time>2013-11-22T09:58:21Z</time>
      </trkpt>
      <trkpt lat="48.5083" lon="-2.72165">
        <ele>58</ele>
        <time>2013-11-22T09:58:22Z</time>
      </trkpt>
      <trkpt lat="48.50829" lon="-2.72165">
        <ele>58</ele>
        <time>2013-11-22T09:58:23Z</time>
      </trkpt>
      <trkpt lat="48.50827" lon="-2.72165">
        <ele>57</ele>
        <time>2013-11-22T09:58:24Z</time>
      </trkpt>
      <trkpt lat="48.50826" lon="-2.72165">
        <ele>57</ele>
        <time>2013-11-22T09:58:25Z</time>
      </trkpt>
      <trkpt lat="48.50825" lon="-2.72165">
        <ele>57</ele>
        <time>2013-11-22T09:58:26Z</time>
      </trkpt>
      <trkpt lat="48.50824" lon="-2.72165">
        <ele>57</ele>
        <time>2013-11-22T09:58:27Z</time>
      </trkpt>
      <trkpt lat="48.50822" lon="-2.72164">
        <ele>57</ele>
        <time>2013-11-22T09:58:28Z</time>
      </trkpt>
      <trkpt lat="48.5082" lon="-2.72164">
        <ele>57</ele>
        <time>2013-11-22T09:58:30Z</time>
      </trkpt>
      <trkpt lat="48.50818" lon="-2.72165">
        <ele>57</ele>
        <time>2013-11-22T09:58:31Z</time>
      </trkpt>
      <trkpt lat="48.50817" lon="-2.72165">
        <ele>57</ele>
        <time>2013-11-22T09:58:32Z</time>
      </trkpt>
      <trkpt lat="48.50816" lon="-2.72165">
        <ele>57</ele>
        <time>2013-11-22T09:58:33Z</time>
      </trkpt>
      <trkpt lat="48.50814" lon="-2.72164">
        <ele>57</ele>
        <time>2013-11-22T09:58:34Z</time>
      </trkpt>
      <trkpt lat="48.50812" lon="-2.72161">
        <ele>57</ele>
        <time>2013-11-22T09:58:36Z</time>
      </trkpt>
      <trkpt lat="48.50811" lon="-2.7216">
        <ele>57</ele>
        <time>2013-11-22T09:58:37Z</time>
      </trkpt>
      <trkpt lat="48.50809" lon="-2.72157">
        <ele>57</ele>
        <time>2013-11-22T09:58:39Z</time>
      </trkpt>
      <trkpt lat="48.50808" lon="-2.72155">
        <ele>57</ele>
        <time>2013-11-22T09:58:40Z</time>
      </trkpt>
      <trkpt lat="48.50808" lon="-2.72153">
        <ele>57</ele>
        <time>2013-11-22T09:58:41Z</time>
      </trkpt>
      <trkpt lat="48.50808" lon="-2.7215">
        <ele>57</ele>
        <time>2013-11-22T09:58:42Z</time>
      </trkpt>
      <trkpt lat="48.50807" lon="-2.72148">
        <ele>57</ele>
        <time>2013-11-22T09:58:43Z</time>
      </trkpt>
      <trkpt lat="48.50807" lon="-2.72146">
        <ele>57</ele>
        <time>2013-11-22T09:58:44Z</time>
      </trkpt>
      <trkpt lat="48.50806" lon="-2.72143">
        <ele>57</ele>
        <time>2013-11-22T09:58:46Z</time>
      </trkpt>
      <trkpt lat="48.50806" lon="-2.72139">
        <ele>57</ele>
        <time>2013-11-22T09:58:48Z</time>
      </trkpt>
      <trkpt lat="48.50806" lon="-2.72135">
        <ele>57</ele>
        <time>2013-11-22T09:58:50Z</time>
      </trkpt>
      <trkpt lat="48.50805" lon="-2.72123">
        <ele>58</ele>
        <time>2013-11-22T09:58:57Z</time>
      </trkpt>
      <trkpt lat="48.50805" lon="-2.7212">
        <ele>58</ele>
        <time>2013-11-22T09:58:59Z</time>
      </trkpt>
      <trkpt lat="48.50805" lon="-2.72115">
        <ele>59</ele>
        <time>2013-11-22T09:59:01Z</time>
      </trkpt>
      <trkpt lat="48.50804" lon="-2.72108">
        <ele>60</ele>
        <time>2013-11-22T09:59:05Z</time>
      </trkpt>
      <trkpt lat="48.50804" lon="-2.72103">
        <ele>60</ele>
        <time>2013-11-22T09:59:08Z</time>
      </trkpt>
      <trkpt lat="48.50803" lon="-2.72101">
        <ele>60</ele>
        <time>2013-11-22T09:59:09Z</time>
      </trkpt>
      <trkpt lat="48.50803" lon="-2.7209">
        <ele>62</ele>
        <time>2013-11-22T09:59:15Z</time>
      </trkpt>
      <trkpt lat="48.50803" lon="-2.72088">
        <ele>62</ele>
        <time>2013-11-22T09:59:16Z</time>
      </trkpt>
      <trkpt lat="48.50802" lon="-2.72079">
        <ele>63</ele>
        <time>2013-11-22T09:59:21Z</time>
      </trkpt>
      <trkpt lat="48.50802" lon="-2.72075">
        <ele>63</ele>
        <time>2013-11-22T09:59:23Z</time>
      </trkpt>
      <trkpt lat="48.50801" lon="-2.72069">
        <ele>64</ele>
        <time>2013-11-22T09:59:26Z</time>
      </trkpt>
      <trkpt lat="48.50801" lon="-2.72066">
        <ele>64</ele>
        <time>2013-11-22T09:59:28Z</time>
      </trkpt>
      <trkpt lat="48.50801" lon="-2.72059">
        <ele>65</ele>
        <time>2013-11-22T09:59:32Z</time>
      </trkpt>
      <trkpt lat="48.508" lon="-2.72049">
        <ele>65</ele>
        <time>2013-11-22T09:59:37Z</time>
      </trkpt>
      <trkpt lat="48.508" lon="-2.72042">
        <ele>66</ele>
        <time>2013-11-22T09:59:41Z</time>
      </trkpt>
      <trkpt lat="48.508" lon="-2.7204">
        <ele>66</ele>
        <time>2013-11-22T09:59:42Z</time>
      </trkpt>
      <trkpt lat="48.50799" lon="-2.72036">
        <ele>66</ele>
        <time>2013-11-22T09:59:44Z</time>
      </trkpt>
      <trkpt lat="48.50799" lon="-2.72026">
        <ele>67</ele>
        <time>2013-11-22T09:59:49Z</time>
      </trkpt>
      <trkpt lat="48.50798" lon="-2.72023">
        <ele>67</ele>
        <time>2013-11-22T09:59:51Z</time>
      </trkpt>
      <trkpt lat="48.50798" lon="-2.72013">
        <ele>67</ele>
        <time>2013-11-22T09:59:56Z</time>
      </trkpt>
      <trkpt lat="48.50798" lon="-2.72009">
        <ele>67</ele>
        <time>2013-11-22T09:59:58Z</time>
      </trkpt>
      <trkpt lat="48.50797" lon="-2.71995">
        <ele>67</ele>
        <time>2013-11-22T10:00:05Z</time>
      </trkpt>
      <trkpt lat="48.50797" lon="-2.71987">
        <ele>67</ele>
        <time>2013-11-22T10:00:09Z</time>
      </trkpt>
      <trkpt lat="48.50796" lon="-2.71965">
        <ele>68</ele>
        <time>2013-11-22T10:00:20Z</time>
      </trkpt>
      <trkpt lat="48.50796" lon="-2.71953">
        <ele>68</ele>
        <time>2013-11-22T10:00:26Z</time>
      </trkpt>
      <trkpt lat="48.50795" lon="-2.71951">
        <ele>68</ele>
        <time>2013-11-22T10:00:27Z</time>
      </trkpt>
      <trkpt lat="48.50795" lon="-2.71942">
        <ele>69</ele>
        <time>2013-11-22T10:00:31Z</time>
      </trkpt>
      <trkpt lat="48.50795" lon="-2.71938">
        <ele>69</ele>
        <time>2013-11-22T10:00:33Z</time>
      </trkpt>
      <trkpt lat="48.50794" lon="-2.7193">
        <ele>70</ele>
        <time>2013-11-22T10:00:37Z</time>
      </trkpt>
      <trkpt lat="48.50794" lon="-2.71926">
        <ele>70</ele>
        <time>2013-11-22T10:00:39Z</time>
      </trkpt>
      <trkpt lat="48.50793" lon="-2.71913">
        <ele>71</ele>
        <time>2013-11-22T10:00:45Z</time>
      </trkpt>
      <trkpt lat="48.50793" lon="-2.71898">
        <ele>71</ele>
        <time>2013-11-22T10:00:52Z</time>
      </trkpt>
      <trkpt lat="48.50793" lon="-2.71893">
        <ele>71</ele>
        <time>2013-11-22T10:00:54Z</time>
      </trkpt>
      <trkpt lat="48.50792" lon="-2.71887">
        <ele>71</ele>
        <time>2013-11-22T10:00:57Z</time>
      </trkpt>
      <trkpt lat="48.50792" lon="-2.71879">
        <ele>71</ele>
        <time>2013-11-22T10:01:01Z</time>
      </trkpt>
      <trkpt lat="48.50792" lon="-2.71875">
        <ele>71</ele>
        <time>2013-11-22T10:01:03Z</time>
      </trkpt>
      <trkpt lat="48.50791" lon="-2.71868">
        <ele>71</ele>
        <time>2013-11-22T10:01:06Z</time>
      </trkpt>
      <trkpt lat="48.50791" lon="-2.71862">
        <ele>71</ele>
        <time>2013-11-22T10:01:09Z</time>
      </trkpt>
      <trkpt lat="48.5079" lon="-2.7186">
        <ele>71</ele>
        <time>2013-11-22T10:01:10Z</time>
      </trkpt>
      <trkpt lat="48.5079" lon="-2.71857">
        <ele>71</ele>
        <time>2013-11-22T10:01:11Z</time>
      </trkpt>
      <trkpt lat="48.5079" lon="-2.71855">
        <ele>71</ele>
        <time>2013-11-22T10:01:12Z</time>
      </trkpt>
      <trkpt lat="48.50789" lon="-2.71851">
        <ele>71</ele>
        <time>2013-11-22T10:01:14Z</time>
      </trkpt>
      <trkpt lat="48.50789" lon="-2.71849">
        <ele>71</ele>
        <time>2013-11-22T10:01:15Z</time>
      </trkpt>
      <trkpt lat="48.50788" lon="-2.71845">
        <ele>71</ele>
        <time>2013-11-22T10:01:17Z</time>
      </trkpt>
      <trkpt lat="48.50788" lon="-2.71841">
        <ele>71</ele>
        <time>2013-11-22T10:01:19Z</time>
      </trkpt>
      <trkpt lat="48.50787" lon="-2.71839">
        <ele>71</ele>
        <time>2013-11-22T10:01:20Z</time>
      </trkpt>
      <trkpt lat="48.50787" lon="-2.71837">
        <ele>71</ele>
        <time>2013-11-22T10:01:21Z</time>
      </trkpt>
      <trkpt lat="48.50787" lon="-2.71835">
        <ele>71</ele>
        <time>2013-11-22T10:01:22Z</time>
      </trkpt>
      <trkpt lat="48.50786" lon="-2.71832">
        <ele>71</ele>
        <time>2013-11-22T10:01:23Z</time>
      </trkpt>
      <trkpt lat="48.50786" lon="-2.71829">
        <ele>71</ele>
        <time>2013-11-22T10:01:25Z</time>
      </trkpt>
      <trkpt lat="48.50785" lon="-2.71825">
        <ele>71</ele>
        <time>2013-11-22T10:01:27Z</time>
      </trkpt>
      <trkpt lat="48.50785" lon="-2.71823">
        <ele>71</ele>
        <time>2013-11-22T10:01:28Z</time>
      </trkpt>
      <trkpt lat="48.50785" lon="-2.71821">
        <ele>71</ele>
        <time>2013-11-22T10:01:29Z</time>
      </trkpt>
      <trkpt lat="48.50784" lon="-2.71816">
        <ele>71</ele>
        <time>2013-11-22T10:01:31Z</time>
      </trkpt>
      <trkpt lat="48.50784" lon="-2.71814">
        <ele>71</ele>
        <time>2013-11-22T10:01:32Z</time>
      </trkpt>
      <trkpt lat="48.50784" lon="-2.71812">
        <ele>71</ele>
        <time>2013-11-22T10:01:33Z</time>
      </trkpt>
      <trkpt lat="48.50783" lon="-2.7181">
        <ele>71</ele>
        <time>2013-11-22T10:01:34Z</time>
      </trkpt>
      <trkpt lat="48.50783" lon="-2.71808">
        <ele>71</ele>
        <time>2013-11-22T10:01:35Z</time>
      </trkpt>
      <trkpt lat="48.50782" lon="-2.71806">
        <ele>71</ele>
        <time>2013-11-22T10:01:36Z</time>
      </trkpt>
      <trkpt lat="48.50782" lon="-2.71804">
        <ele>71</ele>
        <time>2013-11-22T10:01:37Z</time>
      </trkpt>
      <trkpt lat="48.50782" lon="-2.71802">
        <ele>71</ele>
        <time>2013-11-22T10:01:38Z</time>
      </trkpt>
      <trkpt lat="48.50781" lon="-2.71797">
        <ele>71</ele>
        <time>2013-11-22T10:01:40Z</time>
      </trkpt>
      <trkpt lat="48.50781" lon="-2.71795">
        <ele>71</ele>
        <time>2013-11-22T10:01:41Z</time>
      </trkpt>
      <trkpt lat="48.5078" lon="-2.71791">
        <ele>71</ele>
        <time>2013-11-22T10:01:43Z</time>
      </trkpt>
      <trkpt lat="48.5078" lon="-2.71789">
        <ele>71</ele>
        <time>2013-11-22T10:01:44Z</time>
      </trkpt>
      <trkpt lat="48.5078" lon="-2.71786">
        <ele>71</ele>
        <time>2013-11-22T10:01:45Z</time>
      </trkpt>
      <trkpt lat="48.50779" lon="-2.71784">
        <ele>71</ele>
        <time>2013-11-22T10:01:46Z</time>
      </trkpt>
      <trkpt lat="48.50779" lon="-2.71782">
        <ele>71</ele>
        <time>2013-11-22T10:01:47Z</time>
      </trkpt>
      <trkpt lat="48.50779" lon="-2.7178">
        <ele>71</ele>
        <time>2013-11-22T10:01:48Z</time>
      </trkpt>
      <trkpt lat="48.50778" lon="-2.71778">
        <ele>71</ele>
        <time>2013-11-22T10:01:49Z</time>
      </trkpt>
      <trkpt lat="48.50778" lon="-2.71776">
        <ele>71</ele>
        <time>2013-11-22T10:01:50Z</time>
      </trkpt>
      <trkpt lat="48.50777" lon="-2.71772">
        <ele>71</ele>
        <time>2013-11-22T10:01:52Z</time>
      </trkpt>
      <trkpt lat="48.50777" lon="-2.71768">
        <ele>71</ele>
        <time>2013-11-22T10:01:54Z</time>
      </trkpt>
      <trkpt lat="48.50777" lon="-2.71765">
        <ele>71</ele>
        <time>2013-11-22T10:01:55Z</time>
      </trkpt>
      <trkpt lat="48.50776" lon="-2.71761">
        <ele>71</ele>
        <time>2013-11-22T10:01:57Z</time>
      </trkpt>
      <trkpt lat="48.50776" lon="-2.71759">
        <ele>71</ele>
        <time>2013-11-22T10:01:58Z</time>
      </trkpt>
      <trkpt lat="48.50776" lon="-2.71757">
        <ele>71</ele>
        <time>2013-11-22T10:01:59Z</time>
      </trkpt>
      <trkpt lat="48.50775" lon="-2.71754">
        <ele>71</ele>
        <time>2013-11-22T10:02:00Z</time>
      </trkpt>
      <trkpt lat="48.50775" lon="-2.71752">
        <ele>71</ele>
        <time>2013-11-22T10:02:01Z</time>
      </trkpt>
      <trkpt lat="48.50774" lon="-2.71747">
        <ele>71</ele>
        <time>2013-11-22T10:02:03Z</time>
      </trkpt>
      <trkpt lat="48.50774" lon="-2.71743">
        <ele>71</ele>
        <time>2013-11-22T10:02:05Z</time>
      </trkpt>
      <trkpt lat="48.50774" lon="-2.7174">
        <ele>71</ele>
        <time>2013-11-22T10:02:06Z</time>
      </trkpt>
      <trkpt lat="48.50773" lon="-2.71733">
        <ele>71</ele>
        <time>2013-11-22T10:02:09Z</time>
      </trkpt>
      <trkpt lat="48.50774" lon="-2.71713">
        <ele>70</ele>
        <time>2013-11-22T10:02:18Z</time>
      </trkpt>
      <trkpt lat="48.50774" lon="-2.71709">
        <ele>70</ele>
        <time>2013-11-22T10:02:20Z</time>
      </trkpt>
      <trkpt lat="48.50774" lon="-2.71707">
        <ele>69</ele>
        <time>2013-11-22T10:02:21Z</time>
      </trkpt>
      <trkpt lat="48.50775" lon="-2.71704">
        <ele>69</ele>
        <time>2013-11-22T10:02:22Z</time>
      </trkpt>
      <trkpt lat="48.50775" lon="-2.717">
        <ele>69</ele>
        <time>2013-11-22T10:02:24Z</time>
      </trkpt>
      <trkpt lat="48.50776" lon="-2.71697">
        <ele>69</ele>
        <time>2013-11-22T10:02:25Z</time>
      </trkpt>
      <trkpt lat="48.50776" lon="-2.71695">
        <ele>69</ele>
        <time>2013-11-22T10:02:26Z</time>
      </trkpt>
      <trkpt lat="48.50777" lon="-2.71693">
        <ele>69</ele>
        <time>2013-11-22T10:02:27Z</time>
      </trkpt>
      <trkpt lat="48.50777" lon="-2.71691">
        <ele>68</ele>
        <time>2013-11-22T10:02:28Z</time>
      </trkpt>
      <trkpt lat="48.50778" lon="-2.71689">
        <ele>68</ele>
        <time>2013-11-22T10:02:29Z</time>
      </trkpt>
      <trkpt lat="48.50779" lon="-2.71685">
        <ele>68</ele>
        <time>2013-11-22T10:02:31Z</time>
      </trkpt>
      <trkpt lat="48.50779" lon="-2.71683">
        <ele>68</ele>
        <time>2013-11-22T10:02:32Z</time>
      </trkpt>
      <trkpt lat="48.50779" lon="-2.71681">
        <ele>67</ele>
        <time>2013-11-22T10:02:33Z</time>
      </trkpt>
      <trkpt lat="48.5078" lon="-2.71679">
        <ele>67</ele>
        <time>2013-11-22T10:02:34Z</time>
      </trkpt>
      <trkpt lat="48.5078" lon="-2.71676">
        <ele>67</ele>
        <time>2013-11-22T10:02:35Z</time>
      </trkpt>
      <trkpt lat="48.50781" lon="-2.71674">
        <ele>67</ele>
        <time>2013-11-22T10:02:36Z</time>
      </trkpt>
      <trkpt lat="48.50782" lon="-2.71672">
        <ele>67</ele>
        <time>2013-11-22T10:02:37Z</time>
      </trkpt>
      <trkpt lat="48.50782" lon="-2.7167">
        <ele>67</ele>
        <time>2013-11-22T10:02:38Z</time>
      </trkpt>
      <trkpt lat="48.50782" lon="-2.71668">
        <ele>66</ele>
        <time>2013-11-22T10:02:39Z</time>
      </trkpt>
      <trkpt lat="48.50783" lon="-2.71666">
        <ele>66</ele>
        <time>2013-11-22T10:02:40Z</time>
      </trkpt>
      <trkpt lat="48.50783" lon="-2.71664">
        <ele>66</ele>
        <time>2013-11-22T10:02:41Z</time>
      </trkpt>
      <trkpt lat="48.50784" lon="-2.71662">
        <ele>66</ele>
        <time>2013-11-22T10:02:42Z</time>
      </trkpt>
      <trkpt lat="48.50784" lon="-2.7166">
        <ele>66</ele>
        <time>2013-11-22T10:02:43Z</time>
      </trkpt>
      <trkpt lat="48.50784" lon="-2.71658">
        <ele>66</ele>
        <time>2013-11-22T10:02:44Z</time>
      </trkpt>
      <trkpt lat="48.50785" lon="-2.71654">
        <ele>66</ele>
        <time>2013-11-22T10:02:46Z</time>
      </trkpt>
      <trkpt lat="48.50784" lon="-2.7164">
        <ele>66</ele>
        <time>2013-11-22T10:02:52Z</time>
      </trkpt>
      <trkpt lat="48.50784" lon="-2.71636">
        <ele>66</ele>
        <time>2013-11-22T10:02:54Z</time>
      </trkpt>
      <trkpt lat="48.50784" lon="-2.71634">
        <ele>66</ele>
        <time>2013-11-22T10:02:55Z</time>
      </trkpt>
      <trkpt lat="48.50783" lon="-2.71629">
        <ele>66</ele>
        <time>2013-11-22T10:02:57Z</time>
      </trkpt>
      <trkpt lat="48.50783" lon="-2.71627">
        <ele>66</ele>
        <time>2013-11-22T10:02:58Z</time>
      </trkpt>
      <trkpt lat="48.50782" lon="-2.71625">
        <ele>66</ele>
        <time>2013-11-22T10:02:59Z</time>
      </trkpt>
      <trkpt lat="48.50782" lon="-2.71623">
        <ele>66</ele>
        <time>2013-11-22T10:03:00Z</time>
      </trkpt>
      <trkpt lat="48.50782" lon="-2.71621">
        <ele>66</ele>
        <time>2013-11-22T10:03:01Z</time>
      </trkpt>
      <trkpt lat="48.50781" lon="-2.71617">
        <ele>66</ele>
        <time>2013-11-22T10:03:03Z</time>
      </trkpt>
      <trkpt lat="48.50781" lon="-2.71615">
        <ele>66</ele>
        <time>2013-11-22T10:03:04Z</time>
      </trkpt>
      <trkpt lat="48.5078" lon="-2.71613">
        <ele>66</ele>
        <time>2013-11-22T10:03:05Z</time>
      </trkpt>
      <trkpt lat="48.5078" lon="-2.71609">
        <ele>66</ele>
        <time>2013-11-22T10:03:07Z</time>
      </trkpt>
      <trkpt lat="48.50779" lon="-2.71606">
        <ele>66</ele>
        <time>2013-11-22T10:03:08Z</time>
      </trkpt>
      <trkpt lat="48.50779" lon="-2.71603">
        <ele>66</ele>
        <time>2013-11-22T10:03:10Z</time>
      </trkpt>
      <trkpt lat="48.50778" lon="-2.71599">
        <ele>66</ele>
        <time>2013-11-22T10:03:12Z</time>
      </trkpt>
      <trkpt lat="48.50778" lon="-2.71597">
        <ele>66</ele>
        <time>2013-11-22T10:03:13Z</time>
      </trkpt>
      <trkpt lat="48.50777" lon="-2.71595">
        <ele>66</ele>
        <time>2013-11-22T10:03:14Z</time>
      </trkpt>
      <trkpt lat="48.50777" lon="-2.71593">
        <ele>66</ele>
        <time>2013-11-22T10:03:15Z</time>
      </trkpt>
      <trkpt lat="48.50777" lon="-2.71591">
        <ele>66</ele>
        <time>2013-11-22T10:03:16Z</time>
      </trkpt>
      <trkpt lat="48.50776" lon="-2.71588">
        <ele>66</ele>
        <time>2013-11-22T10:03:17Z</time>
      </trkpt>
      <trkpt lat="48.50776" lon="-2.71586">
        <ele>66</ele>
        <time>2013-11-22T10:03:18Z</time>
      </trkpt>
      <trkpt lat="48.50775" lon="-2.71585">
        <ele>66</ele>
        <time>2013-11-22T10:03:19Z</time>
      </trkpt>
      <trkpt lat="48.50775" lon="-2.71583">
        <ele>66</ele>
        <time>2013-11-22T10:03:20Z</time>
      </trkpt>
      <trkpt lat="48.50774" lon="-2.71581">
        <ele>66</ele>
        <time>2013-11-22T10:03:21Z</time>
      </trkpt>
      <trkpt lat="48.50774" lon="-2.71579">
        <ele>66</ele>
        <time>2013-11-22T10:03:22Z</time>
      </trkpt>
      <trkpt lat="48.50773" lon="-2.71577">
        <ele>66</ele>
        <time>2013-11-22T10:03:23Z</time>
      </trkpt>
      <trkpt lat="48.50773" lon="-2.71575">
        <ele>66</ele>
        <time>2013-11-22T10:03:24Z</time>
      </trkpt>
      <trkpt lat="48.50772" lon="-2.71573">
        <ele>66</ele>
        <time>2013-11-22T10:03:25Z</time>
      </trkpt>
      <trkpt lat="48.50772" lon="-2.71571">
        <ele>66</ele>
        <time>2013-11-22T10:03:26Z</time>
      </trkpt>
      <trkpt lat="48.50771" lon="-2.71569">
        <ele>66</ele>
        <time>2013-11-22T10:03:27Z</time>
      </trkpt>
      <trkpt lat="48.50771" lon="-2.71567">
        <ele>66</ele>
        <time>2013-11-22T10:03:28Z</time>
      </trkpt>
      <trkpt lat="48.5077" lon="-2.71565">
        <ele>66</ele>
        <time>2013-11-22T10:03:29Z</time>
      </trkpt>
      <trkpt lat="48.5077" lon="-2.71561">
        <ele>66</ele>
        <time>2013-11-22T10:03:32Z</time>
      </trkpt>
      <trkpt lat="48.50769" lon="-2.71559">
        <ele>66</ele>
        <time>2013-11-22T10:03:33Z</time>
      </trkpt>
      <trkpt lat="48.50768" lon="-2.71557">
        <ele>66</ele>
        <time>2013-11-22T10:03:34Z</time>
      </trkpt>
      <trkpt lat="48.50768" lon="-2.71555">
        <ele>66</ele>
        <time>2013-11-22T10:03:35Z</time>
      </trkpt>
      <trkpt lat="48.50767" lon="-2.71552">
        <ele>66</ele>
        <time>2013-11-22T10:03:36Z</time>
      </trkpt>
      <trkpt lat="48.50766" lon="-2.7155">
        <ele>66</ele>
        <time>2013-11-22T10:03:37Z</time>
      </trkpt>
      <trkpt lat="48.50765" lon="-2.71548">
        <ele>66</ele>
        <time>2013-11-22T10:03:38Z</time>
      </trkpt>
      <trkpt lat="48.50765" lon="-2.71546">
        <ele>66</ele>
        <time>2013-11-22T10:03:39Z</time>
      </trkpt>
      <trkpt lat="48.50764" lon="-2.71544">
        <ele>66</ele>
        <time>2013-11-22T10:03:40Z</time>
      </trkpt>
      <trkpt lat="48.50763" lon="-2.71542">
        <ele>66</ele>
        <time>2013-11-22T10:03:41Z</time>
      </trkpt>
      <trkpt lat="48.50763" lon="-2.7154">
        <ele>66</ele>
        <time>2013-11-22T10:03:42Z</time>
      </trkpt>
      <trkpt lat="48.50762" lon="-2.71538">
        <ele>66</ele>
        <time>2013-11-22T10:03:43Z</time>
      </trkpt>
      <trkpt lat="48.50761" lon="-2.71536">
        <ele>66</ele>
        <time>2013-11-22T10:03:44Z</time>
      </trkpt>
      <trkpt lat="48.50761" lon="-2.71535">
        <ele>66</ele>
        <time>2013-11-22T10:03:45Z</time>
      </trkpt>
      <trkpt lat="48.5076" lon="-2.71533">
        <ele>66</ele>
        <time>2013-11-22T10:03:46Z</time>
      </trkpt>
      <trkpt lat="48.50759" lon="-2.71531">
        <ele>66</ele>
        <time>2013-11-22T10:03:47Z</time>
      </trkpt>
      <trkpt lat="48.50759" lon="-2.71529">
        <ele>66</ele>
        <time>2013-11-22T10:03:48Z</time>
      </trkpt>
      <trkpt lat="48.50758" lon="-2.71527">
        <ele>67</ele>
        <time>2013-11-22T10:03:49Z</time>
      </trkpt>
      <trkpt lat="48.50757" lon="-2.71525">
        <ele>67</ele>
        <time>2013-11-22T10:03:50Z</time>
      </trkpt>
      <trkpt lat="48.50757" lon="-2.71523">
        <ele>67</ele>
        <time>2013-11-22T10:03:51Z</time>
      </trkpt>
      <trkpt lat="48.50756" lon="-2.71521">
        <ele>67</ele>
        <time>2013-11-22T10:03:52Z</time>
      </trkpt>
      <trkpt lat="48.50755" lon="-2.71519">
        <ele>67</ele>
        <time>2013-11-22T10:03:53Z</time>
      </trkpt>
      <trkpt lat="48.50755" lon="-2.71518">
        <ele>67</ele>
        <time>2013-11-22T10:03:54Z</time>
      </trkpt>
      <trkpt lat="48.50754" lon="-2.71516">
        <ele>67</ele>
        <time>2013-11-22T10:03:55Z</time>
      </trkpt>
      <trkpt lat="48.50753" lon="-2.71514">
        <ele>67</ele>
        <time>2013-11-22T10:03:56Z</time>
      </trkpt>
      <trkpt lat="48.50752" lon="-2.71512">
        <ele>67</ele>
        <time>2013-11-22T10:03:57Z</time>
      </trkpt>
      <trkpt lat="48.50752" lon="-2.71511">
        <ele>67</ele>
        <time>2013-11-22T10:03:58Z</time>
      </trkpt>
      <trkpt lat="48.50751" lon="-2.71509">
        <ele>67</ele>
        <time>2013-11-22T10:03:59Z</time>
      </trkpt>
      <trkpt lat="48.5075" lon="-2.71507">
        <ele>67</ele>
        <time>2013-11-22T10:04:00Z</time>
      </trkpt>
      <trkpt lat="48.50748" lon="-2.71504">
        <ele>67</ele>
        <time>2013-11-22T10:04:02Z</time>
      </trkpt>
      <trkpt lat="48.50748" lon="-2.71502">
        <ele>67</ele>
        <time>2013-11-22T10:04:03Z</time>
      </trkpt>
      <trkpt lat="48.50747" lon="-2.715">
        <ele>67</ele>
        <time>2013-11-22T10:04:04Z</time>
      </trkpt>
      <trkpt lat="48.50746" lon="-2.71499">
        <ele>67</ele>
        <time>2013-11-22T10:04:05Z</time>
      </trkpt>
      <trkpt lat="48.50745" lon="-2.71497">
        <ele>68</ele>
        <time>2013-11-22T10:04:06Z</time>
      </trkpt>
      <trkpt lat="48.50744" lon="-2.71495">
        <ele>68</ele>
        <time>2013-11-22T10:04:07Z</time>
      </trkpt>
      <trkpt lat="48.50743" lon="-2.71494">
        <ele>68</ele>
        <time>2013-11-22T10:04:08Z</time>
      </trkpt>
      <trkpt lat="48.50741" lon="-2.71491">
        <ele>68</ele>
        <time>2013-11-22T10:04:10Z</time>
      </trkpt>
      <trkpt lat="48.5074" lon="-2.71489">
        <ele>68</ele>
        <time>2013-11-22T10:04:11Z</time>
      </trkpt>
      <trkpt lat="48.5074" lon="-2.71487">
        <ele>68</ele>
        <time>2013-11-22T10:04:12Z</time>
      </trkpt>
      <trkpt lat="48.50739" lon="-2.71485">
        <ele>68</ele>
        <time>2013-11-22T10:04:13Z</time>
      </trkpt>
      <trkpt lat="48.50738" lon="-2.71483">
        <ele>68</ele>
        <time>2013-11-22T10:04:14Z</time>
      </trkpt>
      <trkpt lat="48.50737" lon="-2.71481">
        <ele>68</ele>
        <time>2013-11-22T10:04:15Z</time>
      </trkpt>
      <trkpt lat="48.50736" lon="-2.7148">
        <ele>68</ele>
        <time>2013-11-22T10:04:16Z</time>
      </trkpt>
      <trkpt lat="48.50735" lon="-2.71478">
        <ele>68</ele>
        <time>2013-11-22T10:04:17Z</time>
      </trkpt>
      <trkpt lat="48.50734" lon="-2.71476">
        <ele>68</ele>
        <time>2013-11-22T10:04:18Z</time>
      </trkpt>
      <trkpt lat="48.50734" lon="-2.71474">
        <ele>68</ele>
        <time>2013-11-22T10:04:19Z</time>
      </trkpt>
      <trkpt lat="48.50733" lon="-2.71472">
        <ele>68</ele>
        <time>2013-11-22T10:04:20Z</time>
      </trkpt>
      <trkpt lat="48.50732" lon="-2.7147">
        <ele>68</ele>
        <time>2013-11-22T10:04:21Z</time>
      </trkpt>
      <trkpt lat="48.50732" lon="-2.71468">
        <ele>68</ele>
        <time>2013-11-22T10:04:22Z</time>
      </trkpt>
      <trkpt lat="48.50731" lon="-2.71466">
        <ele>68</ele>
        <time>2013-11-22T10:04:23Z</time>
      </trkpt>
      <trkpt lat="48.50731" lon="-2.71464">
        <ele>68</ele>
        <time>2013-11-22T10:04:24Z</time>
      </trkpt>
      <trkpt lat="48.5073" lon="-2.7146">
        <ele>68</ele>
        <time>2013-11-22T10:04:26Z</time>
      </trkpt>
      <trkpt lat="48.50731" lon="-2.71449">
        <ele>68</ele>
        <time>2013-11-22T10:04:31Z</time>
      </trkpt>
      <trkpt lat="48.50731" lon="-2.71447">
        <ele>68</ele>
        <time>2013-11-22T10:04:32Z</time>
      </trkpt>
      <trkpt lat="48.50732" lon="-2.71445">
        <ele>68</ele>
        <time>2013-11-22T10:04:33Z</time>
      </trkpt>
      <trkpt lat="48.50733" lon="-2.71444">
        <ele>68</ele>
        <time>2013-11-22T10:04:34Z</time>
      </trkpt>
      <trkpt lat="48.50734" lon="-2.71442">
        <ele>68</ele>
        <time>2013-11-22T10:04:35Z</time>
      </trkpt>
      <trkpt lat="48.50734" lon="-2.7144">
        <ele>68</ele>
        <time>2013-11-22T10:04:36Z</time>
      </trkpt>
      <trkpt lat="48.50735" lon="-2.71438">
        <ele>68</ele>
        <time>2013-11-22T10:04:37Z</time>
      </trkpt>
      <trkpt lat="48.50736" lon="-2.71436">
        <ele>68</ele>
        <time>2013-11-22T10:04:38Z</time>
      </trkpt>
      <trkpt lat="48.50737" lon="-2.71435">
        <ele>68</ele>
        <time>2013-11-22T10:04:39Z</time>
      </trkpt>
      <trkpt lat="48.50738" lon="-2.71433">
        <ele>68</ele>
        <time>2013-11-22T10:04:40Z</time>
      </trkpt>
      <trkpt lat="48.50739" lon="-2.71431">
        <ele>68</ele>
        <time>2013-11-22T10:04:41Z</time>
      </trkpt>
      <trkpt lat="48.5074" lon="-2.71429">
        <ele>68</ele>
        <time>2013-11-22T10:04:42Z</time>
      </trkpt>
      <trkpt lat="48.50741" lon="-2.71427">
        <ele>68</ele>
        <time>2013-11-22T10:04:43Z</time>
      </trkpt>
      <trkpt lat="48.50743" lon="-2.71425">
        <ele>68</ele>
        <time>2013-11-22T10:04:45Z</time>
      </trkpt>
      <trkpt lat="48.50744" lon="-2.71423">
        <ele>68</ele>
        <time>2013-11-22T10:04:46Z</time>
      </trkpt>
      <trkpt lat="48.50746" lon="-2.7142">
        <ele>68</ele>
        <time>2013-11-22T10:04:48Z</time>
      </trkpt>
      <trkpt lat="48.50747" lon="-2.71418">
        <ele>68</ele>
        <time>2013-11-22T10:04:49Z</time>
      </trkpt>
      <trkpt lat="48.50749" lon="-2.71415">
        <ele>68</ele>
        <time>2013-11-22T10:04:51Z</time>
      </trkpt>
      <trkpt lat="48.5075" lon="-2.71414">
        <ele>68</ele>
        <time>2013-11-22T10:04:52Z</time>
      </trkpt>
      <trkpt lat="48.50751" lon="-2.71412">
        <ele>68</ele>
        <time>2013-11-22T10:04:53Z</time>
      </trkpt>
      <trkpt lat="48.50752" lon="-2.71411">
        <ele>68</ele>
        <time>2013-11-22T10:04:54Z</time>
      </trkpt>
      <trkpt lat="48.50754" lon="-2.71409">
        <ele>68</ele>
        <time>2013-11-22T10:04:55Z</time>
      </trkpt>
      <trkpt lat="48.50755" lon="-2.71408">
        <ele>68</ele>
        <time>2013-11-22T10:04:56Z</time>
      </trkpt>
      <trkpt lat="48.50756" lon="-2.71406">
        <ele>68</ele>
        <time>2013-11-22T10:04:57Z</time>
      </trkpt>
      <trkpt lat="48.50757" lon="-2.71405">
        <ele>68</ele>
        <time>2013-11-22T10:04:58Z</time>
      </trkpt>
      <trkpt lat="48.50758" lon="-2.71403">
        <ele>68</ele>
        <time>2013-11-22T10:04:59Z</time>
      </trkpt>
      <trkpt lat="48.50759" lon="-2.71401">
        <ele>68</ele>
        <time>2013-11-22T10:05:00Z</time>
      </trkpt>
      <trkpt lat="48.5076" lon="-2.71399">
        <ele>68</ele>
        <time>2013-11-22T10:05:01Z</time>
      </trkpt>
      <trkpt lat="48.50761" lon="-2.71397">
        <ele>68</ele>
        <time>2013-11-22T10:05:02Z</time>
      </trkpt>
      <trkpt lat="48.50763" lon="-2.71395">
        <ele>68</ele>
        <time>2013-11-22T10:05:04Z</time>
      </trkpt>
      <trkpt lat="48.50764" lon="-2.71393">
        <ele>68</ele>
        <time>2013-11-22T10:05:05Z</time>
      </trkpt>
      <trkpt lat="48.50765" lon="-2.71391">
        <ele>68</ele>
        <time>2013-11-22T10:05:06Z</time>
      </trkpt>
      <trkpt lat="48.50766" lon="-2.7139">
        <ele>68</ele>
        <time>2013-11-22T10:05:07Z</time>
      </trkpt>
      <trkpt lat="48.50767" lon="-2.71388">
        <ele>68</ele>
        <time>2013-11-22T10:05:08Z</time>
      </trkpt>
      <trkpt lat="48.50769" lon="-2.71386">
        <ele>68</ele>
        <time>2013-11-22T10:05:09Z</time>
      </trkpt>
      <trkpt lat="48.5077" lon="-2.71385">
        <ele>68</ele>
        <time>2013-11-22T10:05:10Z</time>
      </trkpt>
      <trkpt lat="48.50771" lon="-2.71383">
        <ele>68</ele>
        <time>2013-11-22T10:05:11Z</time>
      </trkpt>
      <trkpt lat="48.50772" lon="-2.71381">
        <ele>68</ele>
        <time>2013-11-22T10:05:12Z</time>
      </trkpt>
      <trkpt lat="48.50773" lon="-2.71379">
        <ele>68</ele>
        <time>2013-11-22T10:05:13Z</time>
      </trkpt>
      <trkpt lat="48.50774" lon="-2.71377">
        <ele>68</ele>
        <time>2013-11-22T10:05:14Z</time>
      </trkpt>
      <trkpt lat="48.50775" lon="-2.71375">
        <ele>68</ele>
        <time>2013-11-22T10:05:15Z</time>
      </trkpt>
      <trkpt lat="48.50775" lon="-2.71373">
        <ele>68</ele>
        <time>2013-11-22T10:05:16Z</time>
      </trkpt>
      <trkpt lat="48.50776" lon="-2.71371">
        <ele>68</ele>
        <time>2013-11-22T10:05:17Z</time>
      </trkpt>
      <trkpt lat="48.50777" lon="-2.71369">
        <ele>68</ele>
        <time>2013-11-22T10:05:18Z</time>
      </trkpt>
      <trkpt lat="48.50778" lon="-2.71368">
        <ele>68</ele>
        <time>2013-11-22T10:05:19Z</time>
      </trkpt>
      <trkpt lat="48.50779" lon="-2.71366">
        <ele>68</ele>
        <time>2013-11-22T10:05:20Z</time>
      </trkpt>
      <trkpt lat="48.5078" lon="-2.71365">
        <ele>68</ele>
        <time>2013-11-22T10:05:21Z</time>
      </trkpt>
      <trkpt lat="48.5078" lon="-2.71362">
        <ele>68</ele>
        <time>2013-11-22T10:05:22Z</time>
      </trkpt>
      <trkpt lat="48.50781" lon="-2.71359">
        <ele>68</ele>
        <time>2013-11-22T10:05:23Z</time>
      </trkpt>
      <trkpt lat="48.50782" lon="-2.71357">
        <ele>68</ele>
        <time>2013-11-22T10:05:24Z</time>
      </trkpt>
      <trkpt lat="48.50782" lon="-2.71354">
        <ele>68</ele>
        <time>2013-11-22T10:05:25Z</time>
      </trkpt>
      <trkpt lat="48.50783" lon="-2.71352">
        <ele>68</ele>
        <time>2013-11-22T10:05:26Z</time>
      </trkpt>
      <trkpt lat="48.50784" lon="-2.7135">
        <ele>68</ele>
        <time>2013-11-22T10:05:27Z</time>
      </trkpt>
      <trkpt lat="48.50785" lon="-2.71349">
        <ele>68</ele>
        <time>2013-11-22T10:05:28Z</time>
      </trkpt>
      <trkpt lat="48.50786" lon="-2.71347">
        <ele>68</ele>
        <time>2013-11-22T10:05:29Z</time>
      </trkpt>
      <trkpt lat="48.50787" lon="-2.71345">
        <ele>68</ele>
        <time>2013-11-22T10:05:30Z</time>
      </trkpt>
      <trkpt lat="48.50788" lon="-2.71343">
        <ele>68</ele>
        <time>2013-11-22T10:05:31Z</time>
      </trkpt>
      <trkpt lat="48.50789" lon="-2.71341">
        <ele>68</ele>
        <time>2013-11-22T10:05:32Z</time>
      </trkpt>
      <trkpt lat="48.50789" lon="-2.7134">
        <ele>68</ele>
        <time>2013-11-22T10:05:33Z</time>
      </trkpt>
      <trkpt lat="48.5079" lon="-2.71338">
        <ele>68</ele>
        <time>2013-11-22T10:05:34Z</time>
      </trkpt>
      <trkpt lat="48.50791" lon="-2.71336">
        <ele>68</ele>
        <time>2013-11-22T10:05:35Z</time>
      </trkpt>
      <trkpt lat="48.50792" lon="-2.71334">
        <ele>68</ele>
        <time>2013-11-22T10:05:36Z</time>
      </trkpt>
      <trkpt lat="48.50794" lon="-2.71331">
        <ele>68</ele>
        <time>2013-11-22T10:05:38Z</time>
      </trkpt>
      <trkpt lat="48.50794" lon="-2.71329">
        <ele>68</ele>
        <time>2013-11-22T10:05:39Z</time>
      </trkpt>
      <trkpt lat="48.50795" lon="-2.71327">
        <ele>68</ele>
        <time>2013-11-22T10:05:40Z</time>
      </trkpt>
      <trkpt lat="48.50796" lon="-2.71322">
        <ele>68</ele>
        <time>2013-11-22T10:05:42Z</time>
      </trkpt>
      <trkpt lat="48.50797" lon="-2.7132">
        <ele>68</ele>
        <time>2013-11-22T10:05:43Z</time>
      </trkpt>
      <trkpt lat="48.50797" lon="-2.71318">
        <ele>68</ele>
        <time>2013-11-22T10:05:44Z</time>
      </trkpt>
      <trkpt lat="48.50798" lon="-2.71316">
        <ele>68</ele>
        <time>2013-11-22T10:05:45Z</time>
      </trkpt>
      <trkpt lat="48.50799" lon="-2.71314">
        <ele>68</ele>
        <time>2013-11-22T10:05:46Z</time>
      </trkpt>
      <trkpt lat="48.508" lon="-2.71312">
        <ele>68</ele>
        <time>2013-11-22T10:05:47Z</time>
      </trkpt>
      <trkpt lat="48.50801" lon="-2.71309">
        <ele>68</ele>
        <time>2013-11-22T10:05:49Z</time>
      </trkpt>
      <trkpt lat="48.50802" lon="-2.71307">
        <ele>68</ele>
        <time>2013-11-22T10:05:50Z</time>
      </trkpt>
      <trkpt lat="48.50802" lon="-2.71302">
        <ele>67</ele>
        <time>2013-11-22T10:05:52Z</time>
      </trkpt>
      <trkpt lat="48.50803" lon="-2.713">
        <ele>67</ele>
        <time>2013-11-22T10:05:53Z</time>
      </trkpt>
      <trkpt lat="48.50803" lon="-2.71298">
        <ele>67</ele>
        <time>2013-11-22T10:05:54Z</time>
      </trkpt>
      <trkpt lat="48.50804" lon="-2.71296">
        <ele>67</ele>
        <time>2013-11-22T10:05:55Z</time>
      </trkpt>
      <trkpt lat="48.50804" lon="-2.71293">
        <ele>66</ele>
        <time>2013-11-22T10:05:56Z</time>
      </trkpt>
      <trkpt lat="48.50805" lon="-2.71291">
        <ele>66</ele>
        <time>2013-11-22T10:05:57Z</time>
      </trkpt>
      <trkpt lat="48.50806" lon="-2.71289">
        <ele>66</ele>
        <time>2013-11-22T10:05:58Z</time>
      </trkpt>
      <trkpt lat="48.50806" lon="-2.71288">
        <ele>66</ele>
        <time>2013-11-22T10:05:59Z</time>
      </trkpt>
      <trkpt lat="48.50807" lon="-2.71286">
        <ele>66</ele>
        <time>2013-11-22T10:06:00Z</time>
      </trkpt>
      <trkpt lat="48.50808" lon="-2.71284">
        <ele>66</ele>
        <time>2013-11-22T10:06:01Z</time>
      </trkpt>
      <trkpt lat="48.50808" lon="-2.71281">
        <ele>66</ele>
        <time>2013-11-22T10:06:02Z</time>
      </trkpt>
      <trkpt lat="48.50809" lon="-2.71279">
        <ele>66</ele>
        <time>2013-11-22T10:06:03Z</time>
      </trkpt>
      <trkpt lat="48.50809" lon="-2.71277">
        <ele>66</ele>
        <time>2013-11-22T10:06:04Z</time>
      </trkpt>
      <trkpt lat="48.5081" lon="-2.71275">
        <ele>66</ele>
        <time>2013-11-22T10:06:05Z</time>
      </trkpt>
      <trkpt lat="48.50811" lon="-2.71272">
        <ele>66</ele>
        <time>2013-11-22T10:06:06Z</time>
      </trkpt>
      <trkpt lat="48.50811" lon="-2.7127">
        <ele>66</ele>
        <time>2013-11-22T10:06:07Z</time>
      </trkpt>
      <trkpt lat="48.50812" lon="-2.71268">
        <ele>66</ele>
        <time>2013-11-22T10:06:08Z</time>
      </trkpt>
      <trkpt lat="48.50813" lon="-2.71266">
        <ele>66</ele>
        <time>2013-11-22T10:06:09Z</time>
      </trkpt>
      <trkpt lat="48.50813" lon="-2.71264">
        <ele>66</ele>
        <time>2013-11-22T10:06:10Z</time>
      </trkpt>
      <trkpt lat="48.50814" lon="-2.71263">
        <ele>66</ele>
        <time>2013-11-22T10:06:11Z</time>
      </trkpt>
      <trkpt lat="48.50814" lon="-2.71261">
        <ele>66</ele>
        <time>2013-11-22T10:06:12Z</time>
      </trkpt>
      <trkpt lat="48.50815" lon="-2.71258">
        <ele>66</ele>
        <time>2013-11-22T10:06:13Z</time>
      </trkpt>
      <trkpt lat="48.50816" lon="-2.71256">
        <ele>66</ele>
        <time>2013-11-22T10:06:14Z</time>
      </trkpt>
      <trkpt lat="48.50816" lon="-2.71254">
        <ele>66</ele>
        <time>2013-11-22T10:06:15Z</time>
      </trkpt>
      <trkpt lat="48.50817" lon="-2.71252">
        <ele>66</ele>
        <time>2013-11-22T10:06:16Z</time>
      </trkpt>
      <trkpt lat="48.50818" lon="-2.7125">
        <ele>66</ele>
        <time>2013-11-22T10:06:17Z</time>
      </trkpt>
      <trkpt lat="48.50818" lon="-2.71248">
        <ele>66</ele>
        <time>2013-11-22T10:06:18Z</time>
      </trkpt>
      <trkpt lat="48.50819" lon="-2.71246">
        <ele>66</ele>
        <time>2013-11-22T10:06:19Z</time>
      </trkpt>
      <trkpt lat="48.50819" lon="-2.71244">
        <ele>66</ele>
        <time>2013-11-22T10:06:20Z</time>
      </trkpt>
      <trkpt lat="48.5082" lon="-2.71242">
        <ele>66</ele>
        <time>2013-11-22T10:06:21Z</time>
      </trkpt>
      <trkpt lat="48.5082" lon="-2.7124">
        <ele>66</ele>
        <time>2013-11-22T10:06:22Z</time>
      </trkpt>
      <trkpt lat="48.50821" lon="-2.71238">
        <ele>66</ele>
        <time>2013-11-22T10:06:23Z</time>
      </trkpt>
      <trkpt lat="48.50821" lon="-2.71236">
        <ele>66</ele>
        <time>2013-11-22T10:06:24Z</time>
      </trkpt>
      <trkpt lat="48.50821" lon="-2.71234">
        <ele>66</ele>
        <time>2013-11-22T10:06:25Z</time>
      </trkpt>
      <trkpt lat="48.50822" lon="-2.71232">
        <ele>66</ele>
        <time>2013-11-22T10:06:26Z</time>
      </trkpt>
      <trkpt lat="48.50822" lon="-2.71229">
        <ele>66</ele>
        <time>2013-11-22T10:06:27Z</time>
      </trkpt>
      <trkpt lat="48.50822" lon="-2.71227">
        <ele>66</ele>
        <time>2013-11-22T10:06:28Z</time>
      </trkpt>
      <trkpt lat="48.50823" lon="-2.71225">
        <ele>66</ele>
        <time>2013-11-22T10:06:29Z</time>
      </trkpt>
      <trkpt lat="48.50823" lon="-2.71223">
        <ele>66</ele>
        <time>2013-11-22T10:06:30Z</time>
      </trkpt>
      <trkpt lat="48.50824" lon="-2.71221">
        <ele>66</ele>
        <time>2013-11-22T10:06:31Z</time>
      </trkpt>
      <trkpt lat="48.50824" lon="-2.71218">
        <ele>66</ele>
        <time>2013-11-22T10:06:32Z</time>
      </trkpt>
      <trkpt lat="48.50824" lon="-2.71216">
        <ele>66</ele>
        <time>2013-11-22T10:06:33Z</time>
      </trkpt>
      <trkpt lat="48.50825" lon="-2.71214">
        <ele>66</ele>
        <time>2013-11-22T10:06:34Z</time>
      </trkpt>
      <trkpt lat="48.50825" lon="-2.71212">
        <ele>66</ele>
        <time>2013-11-22T10:06:35Z</time>
      </trkpt>
      <trkpt lat="48.50826" lon="-2.7121">
        <ele>66</ele>
        <time>2013-11-22T10:06:36Z</time>
      </trkpt>
      <trkpt lat="48.50826" lon="-2.71208">
        <ele>66</ele>
        <time>2013-11-22T10:06:37Z</time>
      </trkpt>
      <trkpt lat="48.50826" lon="-2.71206">
        <ele>66</ele>
        <time>2013-11-22T10:06:38Z</time>
      </trkpt>
      <trkpt lat="48.50827" lon="-2.71204">
        <ele>66</ele>
        <time>2013-11-22T10:06:39Z</time>
      </trkpt>
      <trkpt lat="48.50827" lon="-2.71202">
        <ele>66</ele>
        <time>2013-11-22T10:06:40Z</time>
      </trkpt>
      <trkpt lat="48.50827" lon="-2.71198">
        <ele>66</ele>
        <time>2013-11-22T10:06:42Z</time>
      </trkpt>
      <trkpt lat="48.50828" lon="-2.71196">
        <ele>66</ele>
        <time>2013-11-22T10:06:43Z</time>
      </trkpt>
      <trkpt lat="48.50828" lon="-2.71194">
        <ele>66</ele>
        <time>2013-11-22T10:06:44Z</time>
      </trkpt>
      <trkpt lat="48.50829" lon="-2.71191">
        <ele>66</ele>
        <time>2013-11-22T10:06:45Z</time>
      </trkpt>
      <trkpt lat="48.50829" lon="-2.71189">
        <ele>66</ele>
        <time>2013-11-22T10:06:46Z</time>
      </trkpt>
      <trkpt lat="48.50829" lon="-2.71187">
        <ele>66</ele>
        <time>2013-11-22T10:06:47Z</time>
      </trkpt>
      <trkpt lat="48.50829" lon="-2.71178">
        <ele>66</ele>
        <time>2013-11-22T10:06:51Z</time>
      </trkpt>
      <trkpt lat="48.50828" lon="-2.71176">
        <ele>66</ele>
        <time>2013-11-22T10:06:52Z</time>
      </trkpt>
      <trkpt lat="48.50826" lon="-2.71174">
        <ele>66</ele>
        <time>2013-11-22T10:06:54Z</time>
      </trkpt>
      <trkpt lat="48.50825" lon="-2.71173">
        <ele>66</ele>
        <time>2013-11-22T10:06:55Z</time>
      </trkpt>
      <trkpt lat="48.50823" lon="-2.71173">
        <ele>66</ele>
        <time>2013-11-22T10:06:56Z</time>
      </trkpt>
      <trkpt lat="48.50822" lon="-2.71173">
        <ele>66</ele>
        <time>2013-11-22T10:06:57Z</time>
      </trkpt>
      <trkpt lat="48.50821" lon="-2.71172">
        <ele>66</ele>
        <time>2013-11-22T10:06:58Z</time>
      </trkpt>
      <trkpt lat="48.50819" lon="-2.71172">
        <ele>66</ele>
        <time>2013-11-22T10:06:59Z</time>
      </trkpt>
      <trkpt lat="48.50818" lon="-2.71172">
        <ele>66</ele>
        <time>2013-11-22T10:07:00Z</time>
      </trkpt>
      <trkpt lat="48.50816" lon="-2.71172">
        <ele>66</ele>
        <time>2013-11-22T10:07:01Z</time>
      </trkpt>
      <trkpt lat="48.50814" lon="-2.71171">
        <ele>66</ele>
        <time>2013-11-22T10:07:02Z</time>
      </trkpt>
      <trkpt lat="48.50813" lon="-2.71171">
        <ele>66</ele>
        <time>2013-11-22T10:07:03Z</time>
      </trkpt>
      <trkpt lat="48.50811" lon="-2.71171">
        <ele>66</ele>
        <time>2013-11-22T10:07:04Z</time>
      </trkpt>
      <trkpt lat="48.5081" lon="-2.71171">
        <ele>66</ele>
        <time>2013-11-22T10:07:05Z</time>
      </trkpt>
      <trkpt lat="48.50809" lon="-2.7117">
        <ele>66</ele>
        <time>2013-11-22T10:07:06Z</time>
      </trkpt>
      <trkpt lat="48.50807" lon="-2.7117">
        <ele>66</ele>
        <time>2013-11-22T10:07:07Z</time>
      </trkpt>
      <trkpt lat="48.50804" lon="-2.7117">
        <ele>66</ele>
        <time>2013-11-22T10:07:09Z</time>
      </trkpt>
      <trkpt lat="48.50801" lon="-2.7117">
        <ele>66</ele>
        <time>2013-11-22T10:07:11Z</time>
      </trkpt>
      <trkpt lat="48.50799" lon="-2.71169">
        <ele>66</ele>
        <time>2013-11-22T10:07:12Z</time>
      </trkpt>
      <trkpt lat="48.50798" lon="-2.71169">
        <ele>66</ele>
        <time>2013-11-22T10:07:13Z</time>
      </trkpt>
      <trkpt lat="48.50796" lon="-2.71169">
        <ele>66</ele>
        <time>2013-11-22T10:07:14Z</time>
      </trkpt>
      <trkpt lat="48.50795" lon="-2.71168">
        <ele>66</ele>
        <time>2013-11-22T10:07:15Z</time>
      </trkpt>
      <trkpt lat="48.50793" lon="-2.71168">
        <ele>66</ele>
        <time>2013-11-22T10:07:16Z</time>
      </trkpt>
      <trkpt lat="48.50792" lon="-2.71168">
        <ele>66</ele>
        <time>2013-11-22T10:07:17Z</time>
      </trkpt>
      <trkpt lat="48.5079" lon="-2.71168">
        <ele>66</ele>
        <time>2013-11-22T10:07:18Z</time>
      </trkpt>
      <trkpt lat="48.50789" lon="-2.71167">
        <ele>66</ele>
        <time>2013-11-22T10:07:19Z</time>
      </trkpt>
      <trkpt lat="48.50788" lon="-2.71167">
        <ele>66</ele>
        <time>2013-11-22T10:07:20Z</time>
      </trkpt>
      <trkpt lat="48.50786" lon="-2.71166">
        <ele>66</ele>
        <time>2013-11-22T10:07:21Z</time>
      </trkpt>
      <trkpt lat="48.50785" lon="-2.71166">
        <ele>66</ele>
        <time>2013-11-22T10:07:22Z</time>
      </trkpt>
      <trkpt lat="48.50783" lon="-2.71165">
        <ele>66</ele>
        <time>2013-11-22T10:07:23Z</time>
      </trkpt>
      <trkpt lat="48.50782" lon="-2.71164">
        <ele>66</ele>
        <time>2013-11-22T10:07:24Z</time>
      </trkpt>
      <trkpt lat="48.5078" lon="-2.71164">
        <ele>66</ele>
        <time>2013-11-22T10:07:25Z</time>
      </trkpt>
      <trkpt lat="48.50779" lon="-2.71164">
        <ele>66</ele>
        <time>2013-11-22T10:07:26Z</time>
      </trkpt>
      <trkpt lat="48.50777" lon="-2.71163">
        <ele>66</ele>
        <time>2013-11-22T10:07:27Z</time>
      </trkpt>
      <trkpt lat="48.50776" lon="-2.71163">
        <ele>66</ele>
        <time>2013-11-22T10:07:28Z</time>
      </trkpt>
      <trkpt lat="48.50774" lon="-2.71163">
        <ele>66</ele>
        <time>2013-11-22T10:07:29Z</time>
      </trkpt>
      <trkpt lat="48.50773" lon="-2.71162">
        <ele>66</ele>
        <time>2013-11-22T10:07:30Z</time>
      </trkpt>
      <trkpt lat="48.50771" lon="-2.71161">
        <ele>66</ele>
        <time>2013-11-22T10:07:31Z</time>
      </trkpt>
      <trkpt lat="48.5077" lon="-2.71161">
        <ele>66</ele>
        <time>2013-11-22T10:07:32Z</time>
      </trkpt>
      <trkpt lat="48.50769" lon="-2.7116">
        <ele>66</ele>
        <time>2013-11-22T10:07:33Z</time>
      </trkpt>
      <trkpt lat="48.50767" lon="-2.7116">
        <ele>66</ele>
        <time>2013-11-22T10:07:34Z</time>
      </trkpt>
      <trkpt lat="48.50766" lon="-2.71159">
        <ele>66</ele>
        <time>2013-11-22T10:07:35Z</time>
      </trkpt>
      <trkpt lat="48.50764" lon="-2.71159">
        <ele>66</ele>
        <time>2013-11-22T10:07:36Z</time>
      </trkpt>
      <trkpt lat="48.50763" lon="-2.71159">
        <ele>66</ele>
        <time>2013-11-22T10:07:37Z</time>
      </trkpt>
      <trkpt lat="48.50761" lon="-2.71158">
        <ele>66</ele>
        <time>2013-11-22T10:07:38Z</time>
      </trkpt>
      <trkpt lat="48.5076" lon="-2.71158">
        <ele>66</ele>
        <time>2013-11-22T10:07:39Z</time>
      </trkpt>
      <trkpt lat="48.50759" lon="-2.71157">
        <ele>66</ele>
        <time>2013-11-22T10:07:40Z</time>
      </trkpt>
      <trkpt lat="48.50758" lon="-2.71157">
        <ele>66</ele>
        <time>2013-11-22T10:07:41Z</time>
      </trkpt>
      <trkpt lat="48.50756" lon="-2.71156">
        <ele>66</ele>
        <time>2013-11-22T10:07:42Z</time>
      </trkpt>
      <trkpt lat="48.50755" lon="-2.71155">
        <ele>66</ele>
        <time>2013-11-22T10:07:43Z</time>
      </trkpt>
      <trkpt lat="48.50753" lon="-2.71155">
        <ele>66</ele>
        <time>2013-11-22T10:07:44Z</time>
      </trkpt>
      <trkpt lat="48.50752" lon="-2.71155">
        <ele>65</ele>
        <time>2013-11-22T10:07:45Z</time>
      </trkpt>
      <trkpt lat="48.5075" lon="-2.71154">
        <ele>65</ele>
        <time>2013-11-22T10:07:46Z</time>
      </trkpt>
      <trkpt lat="48.50749" lon="-2.71153">
        <ele>65</ele>
        <time>2013-11-22T10:07:47Z</time>
      </trkpt>
      <trkpt lat="48.50748" lon="-2.71152">
        <ele>65</ele>
        <time>2013-11-22T10:07:48Z</time>
      </trkpt>
      <trkpt lat="48.50746" lon="-2.71152">
        <ele>65</ele>
        <time>2013-11-22T10:07:49Z</time>
      </trkpt>
      <trkpt lat="48.50745" lon="-2.71151">
        <ele>65</ele>
        <time>2013-11-22T10:07:50Z</time>
      </trkpt>
      <trkpt lat="48.50743" lon="-2.7115">
        <ele>65</ele>
        <time>2013-11-22T10:07:51Z</time>
      </trkpt>
      <trkpt lat="48.50741" lon="-2.71149">
        <ele>65</ele>
        <time>2013-11-22T10:07:52Z</time>
      </trkpt>
      <trkpt lat="48.5074" lon="-2.71149">
        <ele>65</ele>
        <time>2013-11-22T10:07:53Z</time>
      </trkpt>
      <trkpt lat="48.50738" lon="-2.71148">
        <ele>65</ele>
        <time>2013-11-22T10:07:54Z</time>
      </trkpt>
      <trkpt lat="48.50737" lon="-2.71147">
        <ele>65</ele>
        <time>2013-11-22T10:07:55Z</time>
      </trkpt>
      <trkpt lat="48.50735" lon="-2.71146">
        <ele>65</ele>
        <time>2013-11-22T10:07:56Z</time>
      </trkpt>
      <trkpt lat="48.50734" lon="-2.71146">
        <ele>65</ele>
        <time>2013-11-22T10:07:57Z</time>
      </trkpt>
      <trkpt lat="48.50732" lon="-2.71145">
        <ele>65</ele>
        <time>2013-11-22T10:07:58Z</time>
      </trkpt>
      <trkpt lat="48.50731" lon="-2.71145">
        <ele>65</ele>
        <time>2013-11-22T10:07:59Z</time>
      </trkpt>
      <trkpt lat="48.50729" lon="-2.71144">
        <ele>65</ele>
        <time>2013-11-22T10:08:00Z</time>
      </trkpt>
      <trkpt lat="48.50727" lon="-2.71143">
        <ele>65</ele>
        <time>2013-11-22T10:08:01Z</time>
      </trkpt>
      <trkpt lat="48.50726" lon="-2.71142">
        <ele>65</ele>
        <time>2013-11-22T10:08:02Z</time>
      </trkpt>
      <trkpt lat="48.50725" lon="-2.71141">
        <ele>65</ele>
        <time>2013-11-22T10:08:03Z</time>
      </trkpt>
      <trkpt lat="48.50723" lon="-2.7114">
        <ele>65</ele>
        <time>2013-11-22T10:08:04Z</time>
      </trkpt>
      <trkpt lat="48.50722" lon="-2.71139">
        <ele>65</ele>
        <time>2013-11-22T10:08:05Z</time>
      </trkpt>
      <trkpt lat="48.5072" lon="-2.71139">
        <ele>65</ele>
        <time>2013-11-22T10:08:06Z</time>
      </trkpt>
      <trkpt lat="48.50719" lon="-2.71138">
        <ele>65</ele>
        <time>2013-11-22T10:08:07Z</time>
      </trkpt>
      <trkpt lat="48.50718" lon="-2.71137">
        <ele>65</ele>
        <time>2013-11-22T10:08:08Z</time>
      </trkpt>
      <trkpt lat="48.50716" lon="-2.71137">
        <ele>65</ele>
        <time>2013-11-22T10:08:09Z</time>
      </trkpt>
      <trkpt lat="48.50715" lon="-2.71136">
        <ele>65</ele>
        <time>2013-11-22T10:08:10Z</time>
      </trkpt>
      <trkpt lat="48.50713" lon="-2.71135">
        <ele>65</ele>
        <time>2013-11-22T10:08:11Z</time>
      </trkpt>
      <trkpt lat="48.50712" lon="-2.71134">
        <ele>65</ele>
        <time>2013-11-22T10:08:12Z</time>
      </trkpt>
      <trkpt lat="48.50711" lon="-2.71133">
        <ele>65</ele>
        <time>2013-11-22T10:08:13Z</time>
      </trkpt>
      <trkpt lat="48.50709" lon="-2.71133">
        <ele>65</ele>
        <time>2013-11-22T10:08:14Z</time>
      </trkpt>
      <trkpt lat="48.50707" lon="-2.71132">
        <ele>65</ele>
        <time>2013-11-22T10:08:15Z</time>
      </trkpt>
      <trkpt lat="48.50706" lon="-2.71131">
        <ele>65</ele>
        <time>2013-11-22T10:08:16Z</time>
      </trkpt>
      <trkpt lat="48.50704" lon="-2.7113">
        <ele>65</ele>
        <time>2013-11-22T10:08:17Z</time>
      </trkpt>
      <trkpt lat="48.50703" lon="-2.71129">
        <ele>65</ele>
        <time>2013-11-22T10:08:18Z</time>
      </trkpt>
      <trkpt lat="48.50701" lon="-2.71128">
        <ele>65</ele>
        <time>2013-11-22T10:08:19Z</time>
      </trkpt>
      <trkpt lat="48.507" lon="-2.71128">
        <ele>65</ele>
        <time>2013-11-22T10:08:20Z</time>
      </trkpt>
      <trkpt lat="48.50698" lon="-2.71127">
        <ele>65</ele>
        <time>2013-11-22T10:08:21Z</time>
      </trkpt>
      <trkpt lat="48.50697" lon="-2.71126">
        <ele>65</ele>
        <time>2013-11-22T10:08:22Z</time>
      </trkpt>
      <trkpt lat="48.50695" lon="-2.71126">
        <ele>65</ele>
        <time>2013-11-22T10:08:23Z</time>
      </trkpt>
      <trkpt lat="48.50694" lon="-2.71125">
        <ele>65</ele>
        <time>2013-11-22T10:08:24Z</time>
      </trkpt>
      <trkpt lat="48.50692" lon="-2.71124">
        <ele>65</ele>
        <time>2013-11-22T10:08:25Z</time>
      </trkpt>
      <trkpt lat="48.50691" lon="-2.71124">
        <ele>65</ele>
        <time>2013-11-22T10:08:26Z</time>
      </trkpt>
      <trkpt lat="48.5069" lon="-2.71123">
        <ele>65</ele>
        <time>2013-11-22T10:08:27Z</time>
      </trkpt>
      <trkpt lat="48.50688" lon="-2.71122">
        <ele>65</ele>
        <time>2013-11-22T10:08:28Z</time>
      </trkpt>
      <trkpt lat="48.50687" lon="-2.71121">
        <ele>65</ele>
        <time>2013-11-22T10:08:29Z</time>
      </trkpt>
      <trkpt lat="48.50685" lon="-2.7112">
        <ele>65</ele>
        <time>2013-11-22T10:08:30Z</time>
      </trkpt>
      <trkpt lat="48.50684" lon="-2.7112">
        <ele>65</ele>
        <time>2013-11-22T10:08:31Z</time>
      </trkpt>
      <trkpt lat="48.50682" lon="-2.71119">
        <ele>65</ele>
        <time>2013-11-22T10:08:32Z</time>
      </trkpt>
      <trkpt lat="48.5068" lon="-2.71118">
        <ele>65</ele>
        <time>2013-11-22T10:08:33Z</time>
      </trkpt>
      <trkpt lat="48.50679" lon="-2.71118">
        <ele>65</ele>
        <time>2013-11-22T10:08:34Z</time>
      </trkpt>
      <trkpt lat="48.50677" lon="-2.71117">
        <ele>65</ele>
        <time>2013-11-22T10:08:35Z</time>
      </trkpt>
      <trkpt lat="48.50676" lon="-2.71116">
        <ele>65</ele>
        <time>2013-11-22T10:08:36Z</time>
      </trkpt>
      <trkpt lat="48.50674" lon="-2.71115">
        <ele>65</ele>
        <time>2013-11-22T10:08:37Z</time>
      </trkpt>
      <trkpt lat="48.50673" lon="-2.71115">
        <ele>65</ele>
        <time>2013-11-22T10:08:38Z</time>
      </trkpt>
      <trkpt lat="48.50672" lon="-2.71114">
        <ele>65</ele>
        <time>2013-11-22T10:08:39Z</time>
      </trkpt>
      <trkpt lat="48.5067" lon="-2.71113">
        <ele>65</ele>
        <time>2013-11-22T10:08:40Z</time>
      </trkpt>
      <trkpt lat="48.50669" lon="-2.71112">
        <ele>65</ele>
        <time>2013-11-22T10:08:41Z</time>
      </trkpt>
      <trkpt lat="48.50667" lon="-2.71112">
        <ele>65</ele>
        <time>2013-11-22T10:08:42Z</time>
      </trkpt>
      <trkpt lat="48.50666" lon="-2.71111">
        <ele>65</ele>
        <time>2013-11-22T10:08:43Z</time>
      </trkpt>
      <trkpt lat="48.50665" lon="-2.71111">
        <ele>65</ele>
        <time>2013-11-22T10:08:44Z</time>
      </trkpt>
      <trkpt lat="48.50663" lon="-2.7111">
        <ele>65</ele>
        <time>2013-11-22T10:08:45Z</time>
      </trkpt>
      <trkpt lat="48.50662" lon="-2.7111">
        <ele>65</ele>
        <time>2013-11-22T10:08:46Z</time>
      </trkpt>
      <trkpt lat="48.50661" lon="-2.71109">
        <ele>65</ele>
        <time>2013-11-22T10:08:47Z</time>
      </trkpt>
      <trkpt lat="48.50659" lon="-2.71108">
        <ele>65</ele>
        <time>2013-11-22T10:08:48Z</time>
      </trkpt>
      <trkpt lat="48.50658" lon="-2.71107">
        <ele>65</ele>
        <time>2013-11-22T10:08:49Z</time>
      </trkpt>
      <trkpt lat="48.50657" lon="-2.71106">
        <ele>65</ele>
        <time>2013-11-22T10:08:50Z</time>
      </trkpt>
      <trkpt lat="48.50655" lon="-2.71105">
        <ele>65</ele>
        <time>2013-11-22T10:08:51Z</time>
      </trkpt>
      <trkpt lat="48.50654" lon="-2.71105">
        <ele>65</ele>
        <time>2013-11-22T10:08:52Z</time>
      </trkpt>
      <trkpt lat="48.50653" lon="-2.71104">
        <ele>65</ele>
        <time>2013-11-22T10:08:53Z</time>
      </trkpt>
      <trkpt lat="48.50652" lon="-2.71103">
        <ele>65</ele>
        <time>2013-11-22T10:08:54Z</time>
      </trkpt>
      <trkpt lat="48.5065" lon="-2.71102">
        <ele>65</ele>
        <time>2013-11-22T10:08:55Z</time>
      </trkpt>
      <trkpt lat="48.50649" lon="-2.71101">
        <ele>65</ele>
        <time>2013-11-22T10:08:56Z</time>
      </trkpt>
      <trkpt lat="48.50647" lon="-2.71101">
        <ele>65</ele>
        <time>2013-11-22T10:08:57Z</time>
      </trkpt>
      <trkpt lat="48.50646" lon="-2.711">
        <ele>65</ele>
        <time>2013-11-22T10:08:58Z</time>
      </trkpt>
      <trkpt lat="48.50645" lon="-2.71099">
        <ele>65</ele>
        <time>2013-11-22T10:08:59Z</time>
      </trkpt>
      <trkpt lat="48.50643" lon="-2.71098">
        <ele>65</ele>
        <time>2013-11-22T10:09:00Z</time>
      </trkpt>
      <trkpt lat="48.50642" lon="-2.71097">
        <ele>65</ele>
        <time>2013-11-22T10:09:01Z</time>
      </trkpt>
      <trkpt lat="48.5064" lon="-2.71097">
        <ele>65</ele>
        <time>2013-11-22T10:09:02Z</time>
      </trkpt>
      <trkpt lat="48.50639" lon="-2.71096">
        <ele>65</ele>
        <time>2013-11-22T10:09:03Z</time>
      </trkpt>
      <trkpt lat="48.50638" lon="-2.71096">
        <ele>65</ele>
        <time>2013-11-22T10:09:04Z</time>
      </trkpt>
      <trkpt lat="48.50637" lon="-2.71095">
        <ele>65</ele>
        <time>2013-11-22T10:09:05Z</time>
      </trkpt>
      <trkpt lat="48.50635" lon="-2.71094">
        <ele>65</ele>
        <time>2013-11-22T10:09:06Z</time>
      </trkpt>
      <trkpt lat="48.50634" lon="-2.71093">
        <ele>65</ele>
        <time>2013-11-22T10:09:07Z</time>
      </trkpt>
      <trkpt lat="48.50632" lon="-2.71092">
        <ele>65</ele>
        <time>2013-11-22T10:09:08Z</time>
      </trkpt>
      <trkpt lat="48.50631" lon="-2.71091">
        <ele>65</ele>
        <time>2013-11-22T10:09:09Z</time>
      </trkpt>
      <trkpt lat="48.5063" lon="-2.71091">
        <ele>65</ele>
        <time>2013-11-22T10:09:10Z</time>
      </trkpt>
      <trkpt lat="48.50629" lon="-2.7109">
        <ele>65</ele>
        <time>2013-11-22T10:09:11Z</time>
      </trkpt>
      <trkpt lat="48.50627" lon="-2.71089">
        <ele>65</ele>
        <time>2013-11-22T10:09:12Z</time>
      </trkpt>
      <trkpt lat="48.50626" lon="-2.71088">
        <ele>65</ele>
        <time>2013-11-22T10:09:13Z</time>
      </trkpt>
      <trkpt lat="48.50625" lon="-2.71087">
        <ele>65</ele>
        <time>2013-11-22T10:09:14Z</time>
      </trkpt>
      <trkpt lat="48.50622" lon="-2.71086">
        <ele>65</ele>
        <time>2013-11-22T10:09:16Z</time>
      </trkpt>
      <trkpt lat="48.50621" lon="-2.71084">
        <ele>65</ele>
        <time>2013-11-22T10:09:17Z</time>
      </trkpt>
      <trkpt lat="48.5062" lon="-2.71083">
        <ele>65</ele>
        <time>2013-11-22T10:09:18Z</time>
      </trkpt>
      <trkpt lat="48.50618" lon="-2.71082">
        <ele>65</ele>
        <time>2013-11-22T10:09:19Z</time>
      </trkpt>
      <trkpt lat="48.50617" lon="-2.71081">
        <ele>65</ele>
        <time>2013-11-22T10:09:20Z</time>
      </trkpt>
      <trkpt lat="48.50615" lon="-2.71078">
        <ele>65</ele>
        <time>2013-11-22T10:09:22Z</time>
      </trkpt>
      <trkpt lat="48.50613" lon="-2.71075">
        <ele>65</ele>
        <time>2013-11-22T10:09:24Z</time>
      </trkpt>
      <trkpt lat="48.50612" lon="-2.71073">
        <ele>65</ele>
        <time>2013-11-22T10:09:25Z</time>
      </trkpt>
      <trkpt lat="48.50612" lon="-2.71071">
        <ele>65</ele>
        <time>2013-11-22T10:09:26Z</time>
      </trkpt>
      <trkpt lat="48.50611" lon="-2.71069">
        <ele>65</ele>
        <time>2013-11-22T10:09:27Z</time>
      </trkpt>
      <trkpt lat="48.50611" lon="-2.71065">
        <ele>65</ele>
        <time>2013-11-22T10:09:29Z</time>
      </trkpt>
      <trkpt lat="48.50611" lon="-2.7106">
        <ele>65</ele>
        <time>2013-11-22T10:09:31Z</time>
      </trkpt>
      <trkpt lat="48.50612" lon="-2.71056">
        <ele>65</ele>
        <time>2013-11-22T10:09:33Z</time>
      </trkpt>
      <trkpt lat="48.50612" lon="-2.71052">
        <ele>66</ele>
        <time>2013-11-22T10:09:35Z</time>
      </trkpt>
      <trkpt lat="48.50612" lon="-2.71048">
        <ele>66</ele>
        <time>2013-11-22T10:09:37Z</time>
      </trkpt>
      <trkpt lat="48.50613" lon="-2.71045">
        <ele>66</ele>
        <time>2013-11-22T10:09:38Z</time>
      </trkpt>
      <trkpt lat="48.50613" lon="-2.71043">
        <ele>66</ele>
        <time>2013-11-22T10:09:39Z</time>
      </trkpt>
      <trkpt lat="48.50614" lon="-2.71041">
        <ele>66</ele>
        <time>2013-11-22T10:09:40Z</time>
      </trkpt>
      <trkpt lat="48.50614" lon="-2.71039">
        <ele>66</ele>
        <time>2013-11-22T10:09:41Z</time>
      </trkpt>
      <trkpt lat="48.50615" lon="-2.71037">
        <ele>66</ele>
        <time>2013-11-22T10:09:42Z</time>
      </trkpt>
      <trkpt lat="48.50615" lon="-2.71036">
        <ele>66</ele>
        <time>2013-11-22T10:09:43Z</time>
      </trkpt>
      <trkpt lat="48.50615" lon="-2.71033">
        <ele>66</ele>
        <time>2013-11-22T10:09:44Z</time>
      </trkpt>
      <trkpt lat="48.50616" lon="-2.71032">
        <ele>66</ele>
        <time>2013-11-22T10:09:45Z</time>
      </trkpt>
      <trkpt lat="48.50617" lon="-2.71029">
        <ele>66</ele>
        <time>2013-11-22T10:09:46Z</time>
      </trkpt>
      <trkpt lat="48.50617" lon="-2.71027">
        <ele>66</ele>
        <time>2013-11-22T10:09:47Z</time>
      </trkpt>
      <trkpt lat="48.50618" lon="-2.71025">
        <ele>66</ele>
        <time>2013-11-22T10:09:48Z</time>
      </trkpt>
      <trkpt lat="48.50618" lon="-2.71023">
        <ele>66</ele>
        <time>2013-11-22T10:09:49Z</time>
      </trkpt>
      <trkpt lat="48.50618" lon="-2.71021">
        <ele>66</ele>
        <time>2013-11-22T10:09:50Z</time>
      </trkpt>
      <trkpt lat="48.50619" lon="-2.71019">
        <ele>66</ele>
        <time>2013-11-22T10:09:51Z</time>
      </trkpt>
      <trkpt lat="48.50619" lon="-2.71017">
        <ele>66</ele>
        <time>2013-11-22T10:09:52Z</time>
      </trkpt>
      <trkpt lat="48.5062" lon="-2.71012">
        <ele>66</ele>
        <time>2013-11-22T10:09:55Z</time>
      </trkpt>
      <trkpt lat="48.50621" lon="-2.71008">
        <ele>66</ele>
        <time>2013-11-22T10:09:57Z</time>
      </trkpt>
      <trkpt lat="48.50621" lon="-2.71006">
        <ele>66</ele>
        <time>2013-11-22T10:09:58Z</time>
      </trkpt>
      <trkpt lat="48.50622" lon="-2.71004">
        <ele>66</ele>
        <time>2013-11-22T10:09:59Z</time>
      </trkpt>
      <trkpt lat="48.50621" lon="-2.7099">
        <ele>66</ele>
        <time>2013-11-22T10:10:06Z</time>
      </trkpt>
      <trkpt lat="48.50621" lon="-2.70989">
        <ele>66</ele>
        <time>2013-11-22T10:10:07Z</time>
      </trkpt>
      <trkpt lat="48.50621" lon="-2.70987">
        <ele>66</ele>
        <time>2013-11-22T10:10:08Z</time>
      </trkpt>
      <trkpt lat="48.5062" lon="-2.70985">
        <ele>66</ele>
        <time>2013-11-22T10:10:09Z</time>
      </trkpt>
      <trkpt lat="48.5062" lon="-2.70983">
        <ele>66</ele>
        <time>2013-11-22T10:10:10Z</time>
      </trkpt>
      <trkpt lat="48.5062" lon="-2.70981">
        <ele>66</ele>
        <time>2013-11-22T10:10:11Z</time>
      </trkpt>
      <trkpt lat="48.50619" lon="-2.70979">
        <ele>66</ele>
        <time>2013-11-22T10:10:12Z</time>
      </trkpt>
      <trkpt lat="48.50619" lon="-2.70977">
        <ele>66</ele>
        <time>2013-11-22T10:10:13Z</time>
      </trkpt>
      <trkpt lat="48.50618" lon="-2.70975">
        <ele>66</ele>
        <time>2013-11-22T10:10:14Z</time>
      </trkpt>
      <trkpt lat="48.50618" lon="-2.70973">
        <ele>66</ele>
        <time>2013-11-22T10:10:15Z</time>
      </trkpt>
      <trkpt lat="48.50617" lon="-2.70971">
        <ele>66</ele>
        <time>2013-11-22T10:10:16Z</time>
      </trkpt>
      <trkpt lat="48.50617" lon="-2.70969">
        <ele>66</ele>
        <time>2013-11-22T10:10:17Z</time>
      </trkpt>
      <trkpt lat="48.50616" lon="-2.70968">
        <ele>66</ele>
        <time>2013-11-22T10:10:18Z</time>
      </trkpt>
      <trkpt lat="48.50616" lon="-2.70966">
        <ele>66</ele>
        <time>2013-11-22T10:10:19Z</time>
      </trkpt>
      <trkpt lat="48.50615" lon="-2.70964">
        <ele>66</ele>
        <time>2013-11-22T10:10:20Z</time>
      </trkpt>
      <trkpt lat="48.50615" lon="-2.70962">
        <ele>66</ele>
        <time>2013-11-22T10:10:21Z</time>
      </trkpt>
      <trkpt lat="48.50615" lon="-2.7096">
        <ele>66</ele>
        <time>2013-11-22T10:10:22Z</time>
      </trkpt>
      <trkpt lat="48.50614" lon="-2.70958">
        <ele>65</ele>
        <time>2013-11-22T10:10:23Z</time>
      </trkpt>
      <trkpt lat="48.50613" lon="-2.70956">
        <ele>65</ele>
        <time>2013-11-22T10:10:24Z</time>
      </trkpt>
      <trkpt lat="48.50613" lon="-2.70953">
        <ele>65</ele>
        <time>2013-11-22T10:10:25Z</time>
      </trkpt>
      <trkpt lat="48.50613" lon="-2.70951">
        <ele>65</ele>
        <time>2013-11-22T10:10:26Z</time>
      </trkpt>
      <trkpt lat="48.50612" lon="-2.70949">
        <ele>65</ele>
        <time>2013-11-22T10:10:27Z</time>
      </trkpt>
      <trkpt lat="48.50611" lon="-2.70947">
        <ele>65</ele>
        <time>2013-11-22T10:10:28Z</time>
      </trkpt>
      <trkpt lat="48.5061" lon="-2.70945">
        <ele>65</ele>
        <time>2013-11-22T10:10:29Z</time>
      </trkpt>
      <trkpt lat="48.50609" lon="-2.70943">
        <ele>65</ele>
        <time>2013-11-22T10:10:30Z</time>
      </trkpt>
      <trkpt lat="48.50608" lon="-2.70942">
        <ele>65</ele>
        <time>2013-11-22T10:10:31Z</time>
      </trkpt>
      <trkpt lat="48.50607" lon="-2.70939">
        <ele>65</ele>
        <time>2013-11-22T10:10:33Z</time>
      </trkpt>
      <trkpt lat="48.50606" lon="-2.70937">
        <ele>65</ele>
        <time>2013-11-22T10:10:35Z</time>
      </trkpt>
      <trkpt lat="48.50604" lon="-2.70934">
        <ele>65</ele>
        <time>2013-11-22T10:10:37Z</time>
      </trkpt>
      <trkpt lat="48.50603" lon="-2.70931">
        <ele>65</ele>
        <time>2013-11-22T10:10:39Z</time>
      </trkpt>
      <trkpt lat="48.506" lon="-2.70929">
        <ele>65</ele>
        <time>2013-11-22T10:10:41Z</time>
      </trkpt>
      <trkpt lat="48.50599" lon="-2.70929">
        <ele>65</ele>
        <time>2013-11-22T10:10:42Z</time>
      </trkpt>
      <trkpt lat="48.50598" lon="-2.70928">
        <ele>65</ele>
        <time>2013-11-22T10:10:43Z</time>
      </trkpt>
      <trkpt lat="48.50597" lon="-2.70927">
        <ele>65</ele>
        <time>2013-11-22T10:10:44Z</time>
      </trkpt>
      <trkpt lat="48.50595" lon="-2.70926">
        <ele>65</ele>
        <time>2013-11-22T10:10:45Z</time>
      </trkpt>
      <trkpt lat="48.50594" lon="-2.70926">
        <ele>65</ele>
        <time>2013-11-22T10:10:46Z</time>
      </trkpt>
      <trkpt lat="48.50592" lon="-2.70924">
        <ele>65</ele>
        <time>2013-11-22T10:10:48Z</time>
      </trkpt>
      <trkpt lat="48.5059" lon="-2.70922">
        <ele>64</ele>
        <time>2013-11-22T10:10:50Z</time>
      </trkpt>
      <trkpt lat="48.50588" lon="-2.70922">
        <ele>64</ele>
        <time>2013-11-22T10:10:51Z</time>
      </trkpt>
      <trkpt lat="48.50587" lon="-2.70921">
        <ele>64</ele>
        <time>2013-11-22T10:10:52Z</time>
      </trkpt>
      <trkpt lat="48.50585" lon="-2.7092">
        <ele>64</ele>
        <time>2013-11-22T10:10:53Z</time>
      </trkpt>
      <trkpt lat="48.50584" lon="-2.70919">
        <ele>63</ele>
        <time>2013-11-22T10:10:54Z</time>
      </trkpt>
      <trkpt lat="48.50583" lon="-2.70918">
        <ele>63</ele>
        <time>2013-11-22T10:10:55Z</time>
      </trkpt>
      <trkpt lat="48.50581" lon="-2.70918">
        <ele>63</ele>
        <time>2013-11-22T10:10:56Z</time>
      </trkpt>
      <trkpt lat="48.50579" lon="-2.70917">
        <ele>63</ele>
        <time>2013-11-22T10:10:57Z</time>
      </trkpt>
      <trkpt lat="48.50578" lon="-2.70916">
        <ele>62</ele>
        <time>2013-11-22T10:10:58Z</time>
      </trkpt>
      <trkpt lat="48.50576" lon="-2.70914">
        <ele>62</ele>
        <time>2013-11-22T10:11:00Z</time>
      </trkpt>
      <trkpt lat="48.50576" lon="-2.70912">
        <ele>62</ele>
        <time>2013-11-22T10:11:01Z</time>
      </trkpt>
      <trkpt lat="48.50574" lon="-2.70911">
        <ele>62</ele>
        <time>2013-11-22T10:11:02Z</time>
      </trkpt>
      <trkpt lat="48.50573" lon="-2.70909">
        <ele>62</ele>
        <time>2013-11-22T10:11:03Z</time>
      </trkpt>
      <trkpt lat="48.50572" lon="-2.70907">
        <ele>62</ele>
        <time>2013-11-22T10:11:04Z</time>
      </trkpt>
      <trkpt lat="48.50571" lon="-2.70905">
        <ele>62</ele>
        <time>2013-11-22T10:11:05Z</time>
      </trkpt>
      <trkpt lat="48.50569" lon="-2.70904">
        <ele>62</ele>
        <time>2013-11-22T10:11:06Z</time>
      </trkpt>
      <trkpt lat="48.50568" lon="-2.70902">
        <ele>62</ele>
        <time>2013-11-22T10:11:07Z</time>
      </trkpt>
      <trkpt lat="48.50566" lon="-2.70901">
        <ele>62</ele>
        <time>2013-11-22T10:11:08Z</time>
      </trkpt>
      <trkpt lat="48.50565" lon="-2.709">
        <ele>62</ele>
        <time>2013-11-22T10:11:09Z</time>
      </trkpt>
      <trkpt lat="48.50564" lon="-2.70899">
        <ele>62</ele>
        <time>2013-11-22T10:11:10Z</time>
      </trkpt>
      <trkpt lat="48.50563" lon="-2.70898">
        <ele>62</ele>
        <time>2013-11-22T10:11:11Z</time>
      </trkpt>
      <trkpt lat="48.50561" lon="-2.70896">
        <ele>62</ele>
        <time>2013-11-22T10:11:12Z</time>
      </trkpt>
      <trkpt lat="48.5056" lon="-2.70895">
        <ele>62</ele>
        <time>2013-11-22T10:11:13Z</time>
      </trkpt>
      <trkpt lat="48.50559" lon="-2.70893">
        <ele>62</ele>
        <time>2013-11-22T10:11:14Z</time>
      </trkpt>
      <trkpt lat="48.50557" lon="-2.7089">
        <ele>62</ele>
        <time>2013-11-22T10:11:16Z</time>
      </trkpt>
      <trkpt lat="48.50555" lon="-2.70889">
        <ele>62</ele>
        <time>2013-11-22T10:11:17Z</time>
      </trkpt>
      <trkpt lat="48.50554" lon="-2.70887">
        <ele>62</ele>
        <time>2013-11-22T10:11:18Z</time>
      </trkpt>
      <trkpt lat="48.50553" lon="-2.70885">
        <ele>62</ele>
        <time>2013-11-22T10:11:19Z</time>
      </trkpt>
      <trkpt lat="48.50553" lon="-2.70883">
        <ele>62</ele>
        <time>2013-11-22T10:11:20Z</time>
      </trkpt>
      <trkpt lat="48.50552" lon="-2.70882">
        <ele>62</ele>
        <time>2013-11-22T10:11:21Z</time>
      </trkpt>
      <trkpt lat="48.50551" lon="-2.7088">
        <ele>62</ele>
        <time>2013-11-22T10:11:22Z</time>
      </trkpt>
      <trkpt lat="48.5055" lon="-2.70878">
        <ele>62</ele>
        <time>2013-11-22T10:11:23Z</time>
      </trkpt>
      <trkpt lat="48.50549" lon="-2.70875">
        <ele>62</ele>
        <time>2013-11-22T10:11:25Z</time>
      </trkpt>
      <trkpt lat="48.50548" lon="-2.70874">
        <ele>62</ele>
        <time>2013-11-22T10:11:26Z</time>
      </trkpt>
      <trkpt lat="48.50546" lon="-2.70871">
        <ele>62</ele>
        <time>2013-11-22T10:11:28Z</time>
      </trkpt>
      <trkpt lat="48.50544" lon="-2.70869">
        <ele>62</ele>
        <time>2013-11-22T10:11:30Z</time>
      </trkpt>
      <trkpt lat="48.50542" lon="-2.70866">
        <ele>62</ele>
        <time>2013-11-22T10:11:32Z</time>
      </trkpt>
      <trkpt lat="48.50541" lon="-2.70865">
        <ele>62</ele>
        <time>2013-11-22T10:11:33Z</time>
      </trkpt>
      <trkpt lat="48.50539" lon="-2.70862">
        <ele>62</ele>
        <time>2013-11-22T10:11:35Z</time>
      </trkpt>
      <trkpt lat="48.50537" lon="-2.70859">
        <ele>62</ele>
        <time>2013-11-22T10:11:37Z</time>
      </trkpt>
      <trkpt lat="48.50535" lon="-2.70856">
        <ele>62</ele>
        <time>2013-11-22T10:11:39Z</time>
      </trkpt>
      <trkpt lat="48.50534" lon="-2.70854">
        <ele>62</ele>
        <time>2013-11-22T10:11:40Z</time>
      </trkpt>
      <trkpt lat="48.50533" lon="-2.70853">
        <ele>62</ele>
        <time>2013-11-22T10:11:41Z</time>
      </trkpt>
      <trkpt lat="48.50532" lon="-2.70851">
        <ele>62</ele>
        <time>2013-11-22T10:11:42Z</time>
      </trkpt>
      <trkpt lat="48.5053" lon="-2.70848">
        <ele>62</ele>
        <time>2013-11-22T10:11:44Z</time>
      </trkpt>
      <trkpt lat="48.50529" lon="-2.70847">
        <ele>62</ele>
        <time>2013-11-22T10:11:45Z</time>
      </trkpt>
      <trkpt lat="48.50527" lon="-2.70844">
        <ele>62</ele>
        <time>2013-11-22T10:11:47Z</time>
      </trkpt>
      <trkpt lat="48.50525" lon="-2.7084">
        <ele>62</ele>
        <time>2013-11-22T10:11:49Z</time>
      </trkpt>
      <trkpt lat="48.50523" lon="-2.70837">
        <ele>62</ele>
        <time>2013-11-22T10:11:51Z</time>
      </trkpt>
      <trkpt lat="48.50522" lon="-2.70835">
        <ele>62</ele>
        <time>2013-11-22T10:11:52Z</time>
      </trkpt>
      <trkpt lat="48.50521" lon="-2.70834">
        <ele>62</ele>
        <time>2013-11-22T10:11:53Z</time>
      </trkpt>
      <trkpt lat="48.5052" lon="-2.70832">
        <ele>62</ele>
        <time>2013-11-22T10:11:54Z</time>
      </trkpt>
      <trkpt lat="48.5052" lon="-2.7083">
        <ele>62</ele>
        <time>2013-11-22T10:11:55Z</time>
      </trkpt>
      <trkpt lat="48.5052" lon="-2.70826">
        <ele>62</ele>
        <time>2013-11-22T10:11:57Z</time>
      </trkpt>
      <trkpt lat="48.50521" lon="-2.70824">
        <ele>62</ele>
        <time>2013-11-22T10:11:58Z</time>
      </trkpt>
      <trkpt lat="48.50521" lon="-2.70822">
        <ele>62</ele>
        <time>2013-11-22T10:11:59Z</time>
      </trkpt>
      <trkpt lat="48.50522" lon="-2.7082">
        <ele>62</ele>
        <time>2013-11-22T10:12:00Z</time>
      </trkpt>
      <trkpt lat="48.50523" lon="-2.70818">
        <ele>62</ele>
        <time>2013-11-22T10:12:01Z</time>
      </trkpt>
      <trkpt lat="48.50523" lon="-2.70816">
        <ele>62</ele>
        <time>2013-11-22T10:12:02Z</time>
      </trkpt>
      <trkpt lat="48.50524" lon="-2.70814">
        <ele>62</ele>
        <time>2013-11-22T10:12:03Z</time>
      </trkpt>
      <trkpt lat="48.50525" lon="-2.70812">
        <ele>62</ele>
        <time>2013-11-22T10:12:04Z</time>
      </trkpt>
      <trkpt lat="48.50526" lon="-2.7081">
        <ele>62</ele>
        <time>2013-11-22T10:12:05Z</time>
      </trkpt>
      <trkpt lat="48.50527" lon="-2.70807">
        <ele>62</ele>
        <time>2013-11-22T10:12:07Z</time>
      </trkpt>
      <trkpt lat="48.50528" lon="-2.70805">
        <ele>62</ele>
        <time>2013-11-22T10:12:08Z</time>
      </trkpt>
      <trkpt lat="48.50529" lon="-2.70803">
        <ele>62</ele>
        <time>2013-11-22T10:12:09Z</time>
      </trkpt>
      <trkpt lat="48.50529" lon="-2.70802">
        <ele>62</ele>
        <time>2013-11-22T10:12:10Z</time>
      </trkpt>
      <trkpt lat="48.5053" lon="-2.708">
        <ele>62</ele>
        <time>2013-11-22T10:12:11Z</time>
      </trkpt>
      <trkpt lat="48.5053" lon="-2.70798">
        <ele>62</ele>
        <time>2013-11-22T10:12:12Z</time>
      </trkpt>
      <trkpt lat="48.50531" lon="-2.70795">
        <ele>62</ele>
        <time>2013-11-22T10:12:13Z</time>
      </trkpt>
      <trkpt lat="48.50532" lon="-2.70794">
        <ele>62</ele>
        <time>2013-11-22T10:12:14Z</time>
      </trkpt>
      <trkpt lat="48.50532" lon="-2.70792">
        <ele>62</ele>
        <time>2013-11-22T10:12:15Z</time>
      </trkpt>
      <trkpt lat="48.50533" lon="-2.7079">
        <ele>62</ele>
        <time>2013-11-22T10:12:16Z</time>
      </trkpt>
      <trkpt lat="48.50533" lon="-2.70788">
        <ele>62</ele>
        <time>2013-11-22T10:12:17Z</time>
      </trkpt>
      <trkpt lat="48.50533" lon="-2.70784">
        <ele>62</ele>
        <time>2013-11-22T10:12:19Z</time>
      </trkpt>
      <trkpt lat="48.50534" lon="-2.70782">
        <ele>62</ele>
        <time>2013-11-22T10:12:20Z</time>
      </trkpt>
      <trkpt lat="48.50534" lon="-2.7078">
        <ele>62</ele>
        <time>2013-11-22T10:12:21Z</time>
      </trkpt>
      <trkpt lat="48.50534" lon="-2.70778">
        <ele>62</ele>
        <time>2013-11-22T10:12:22Z</time>
      </trkpt>
      <trkpt lat="48.50535" lon="-2.70776">
        <ele>62</ele>
        <time>2013-11-22T10:12:23Z</time>
      </trkpt>
      <trkpt lat="48.50535" lon="-2.70774">
        <ele>62</ele>
        <time>2013-11-22T10:12:24Z</time>
      </trkpt>
      <trkpt lat="48.50536" lon="-2.70772">
        <ele>62</ele>
        <time>2013-11-22T10:12:25Z</time>
      </trkpt>
      <trkpt lat="48.50536" lon="-2.70768">
        <ele>62</ele>
        <time>2013-11-22T10:12:27Z</time>
      </trkpt>
      <trkpt lat="48.50537" lon="-2.70766">
        <ele>62</ele>
        <time>2013-11-22T10:12:28Z</time>
      </trkpt>
      <trkpt lat="48.50537" lon="-2.70764">
        <ele>62</ele>
        <time>2013-11-22T10:12:29Z</time>
      </trkpt>
      <trkpt lat="48.50538" lon="-2.7076">
        <ele>62</ele>
        <time>2013-11-22T10:12:31Z</time>
      </trkpt>
      <trkpt lat="48.50538" lon="-2.70756">
        <ele>62</ele>
        <time>2013-11-22T10:12:33Z</time>
      </trkpt>
      <trkpt lat="48.50539" lon="-2.70752">
        <ele>62</ele>
        <time>2013-11-22T10:12:35Z</time>
      </trkpt>
      <trkpt lat="48.50539" lon="-2.70739">
        <ele>62</ele>
        <time>2013-11-22T10:12:40Z</time>
      </trkpt>
      <trkpt lat="48.50539" lon="-2.70734">
        <ele>62</ele>
        <time>2013-11-22T10:12:42Z</time>
      </trkpt>
      <trkpt lat="48.5054" lon="-2.70732">
        <ele>62</ele>
        <time>2013-11-22T10:12:43Z</time>
      </trkpt>
      <trkpt lat="48.50539" lon="-2.70724">
        <ele>62</ele>
        <time>2013-11-22T10:12:47Z</time>
      </trkpt>
      <trkpt lat="48.50539" lon="-2.7072">
        <ele>62</ele>
        <time>2013-11-22T10:12:49Z</time>
      </trkpt>
      <trkpt lat="48.50539" lon="-2.70715">
        <ele>62</ele>
        <time>2013-11-22T10:12:51Z</time>
      </trkpt>
      <trkpt lat="48.50538" lon="-2.70713">
        <ele>62</ele>
        <time>2013-11-22T10:12:52Z</time>
      </trkpt>
      <trkpt lat="48.50538" lon="-2.7071">
        <ele>62</ele>
        <time>2013-11-22T10:12:53Z</time>
      </trkpt>
      <trkpt lat="48.50537" lon="-2.70706">
        <ele>62</ele>
        <time>2013-11-22T10:12:55Z</time>
      </trkpt>
      <trkpt lat="48.50537" lon="-2.70703">
        <ele>62</ele>
        <time>2013-11-22T10:12:56Z</time>
      </trkpt>
      <trkpt lat="48.50537" lon="-2.70701">
        <ele>62</ele>
        <time>2013-11-22T10:12:57Z</time>
      </trkpt>
      <trkpt lat="48.50536" lon="-2.70699">
        <ele>62</ele>
        <time>2013-11-22T10:12:58Z</time>
      </trkpt>
      <trkpt lat="48.50536" lon="-2.70697">
        <ele>62</ele>
        <time>2013-11-22T10:12:59Z</time>
      </trkpt>
      <trkpt lat="48.50535" lon="-2.70695">
        <ele>62</ele>
        <time>2013-11-22T10:13:00Z</time>
      </trkpt>
      <trkpt lat="48.50535" lon="-2.70693">
        <ele>62</ele>
        <time>2013-11-22T10:13:01Z</time>
      </trkpt>
      <trkpt lat="48.50534" lon="-2.70691">
        <ele>62</ele>
        <time>2013-11-22T10:13:02Z</time>
      </trkpt>
      <trkpt lat="48.50534" lon="-2.70689">
        <ele>62</ele>
        <time>2013-11-22T10:13:03Z</time>
      </trkpt>
      <trkpt lat="48.50533" lon="-2.70687">
        <ele>62</ele>
        <time>2013-11-22T10:13:04Z</time>
      </trkpt>
      <trkpt lat="48.50533" lon="-2.70685">
        <ele>62</ele>
        <time>2013-11-22T10:13:05Z</time>
      </trkpt>
      <trkpt lat="48.50532" lon="-2.70683">
        <ele>62</ele>
        <time>2013-11-22T10:13:06Z</time>
      </trkpt>
      <trkpt lat="48.50531" lon="-2.70681">
        <ele>62</ele>
        <time>2013-11-22T10:13:07Z</time>
      </trkpt>
      <trkpt lat="48.5053" lon="-2.70679">
        <ele>62</ele>
        <time>2013-11-22T10:13:08Z</time>
      </trkpt>
      <trkpt lat="48.5053" lon="-2.70677">
        <ele>62</ele>
        <time>2013-11-22T10:13:09Z</time>
      </trkpt>
      <trkpt lat="48.50529" lon="-2.70676">
        <ele>62</ele>
        <time>2013-11-22T10:13:10Z</time>
      </trkpt>
      <trkpt lat="48.50528" lon="-2.70674">
        <ele>62</ele>
        <time>2013-11-22T10:13:11Z</time>
      </trkpt>
      <trkpt lat="48.50527" lon="-2.70672">
        <ele>62</ele>
        <time>2013-11-22T10:13:12Z</time>
      </trkpt>
      <trkpt lat="48.50527" lon="-2.7067">
        <ele>62</ele>
        <time>2013-11-22T10:13:13Z</time>
      </trkpt>
      <trkpt lat="48.50526" lon="-2.70668">
        <ele>62</ele>
        <time>2013-11-22T10:13:14Z</time>
      </trkpt>
      <trkpt lat="48.50525" lon="-2.70666">
        <ele>62</ele>
        <time>2013-11-22T10:13:15Z</time>
      </trkpt>
      <trkpt lat="48.50524" lon="-2.70665">
        <ele>62</ele>
        <time>2013-11-22T10:13:16Z</time>
      </trkpt>
      <trkpt lat="48.50523" lon="-2.70663">
        <ele>62</ele>
        <time>2013-11-22T10:13:17Z</time>
      </trkpt>
      <trkpt lat="48.50522" lon="-2.70661">
        <ele>62</ele>
        <time>2013-11-22T10:13:18Z</time>
      </trkpt>
      <trkpt lat="48.5052" lon="-2.70658">
        <ele>62</ele>
        <time>2013-11-22T10:13:20Z</time>
      </trkpt>
      <trkpt lat="48.50519" lon="-2.70657">
        <ele>62</ele>
        <time>2013-11-22T10:13:21Z</time>
      </trkpt>
      <trkpt lat="48.50517" lon="-2.70654">
        <ele>62</ele>
        <time>2013-11-22T10:13:23Z</time>
      </trkpt>
      <trkpt lat="48.50516" lon="-2.70652">
        <ele>62</ele>
        <time>2013-11-22T10:13:24Z</time>
      </trkpt>
      <trkpt lat="48.50515" lon="-2.7065">
        <ele>62</ele>
        <time>2013-11-22T10:13:25Z</time>
      </trkpt>
      <trkpt lat="48.50513" lon="-2.70647">
        <ele>62</ele>
        <time>2013-11-22T10:13:27Z</time>
      </trkpt>
      <trkpt lat="48.5051" lon="-2.70645">
        <ele>62</ele>
        <time>2013-11-22T10:13:29Z</time>
      </trkpt>
      <trkpt lat="48.50509" lon="-2.70641">
        <ele>62</ele>
        <time>2013-11-22T10:13:31Z</time>
      </trkpt>
      <trkpt lat="48.50507" lon="-2.7064">
        <ele>62</ele>
        <time>2013-11-22T10:13:32Z</time>
      </trkpt>
      <trkpt lat="48.50506" lon="-2.70638">
        <ele>61</ele>
        <time>2013-11-22T10:13:33Z</time>
      </trkpt>
      <trkpt lat="48.50505" lon="-2.70637">
        <ele>61</ele>
        <time>2013-11-22T10:13:34Z</time>
      </trkpt>
      <trkpt lat="48.50504" lon="-2.70635">
        <ele>61</ele>
        <time>2013-11-22T10:13:35Z</time>
      </trkpt>
      <trkpt lat="48.50502" lon="-2.70632">
        <ele>60</ele>
        <time>2013-11-22T10:13:37Z</time>
      </trkpt>
      <trkpt lat="48.505" lon="-2.70629">
        <ele>60</ele>
        <time>2013-11-22T10:13:39Z</time>
      </trkpt>
      <trkpt lat="48.50498" lon="-2.70627">
        <ele>59</ele>
        <time>2013-11-22T10:13:41Z</time>
      </trkpt>
      <trkpt lat="48.50496" lon="-2.70623">
        <ele>59</ele>
        <time>2013-11-22T10:13:43Z</time>
      </trkpt>
      <trkpt lat="48.50495" lon="-2.70622">
        <ele>59</ele>
        <time>2013-11-22T10:13:44Z</time>
      </trkpt>
      <trkpt lat="48.50493" lon="-2.70621">
        <ele>59</ele>
        <time>2013-11-22T10:13:45Z</time>
      </trkpt>
      <trkpt lat="48.50492" lon="-2.7062">
        <ele>59</ele>
        <time>2013-11-22T10:13:46Z</time>
      </trkpt>
      <trkpt lat="48.50491" lon="-2.70619">
        <ele>59</ele>
        <time>2013-11-22T10:13:47Z</time>
      </trkpt>
      <trkpt lat="48.50489" lon="-2.70618">
        <ele>59</ele>
        <time>2013-11-22T10:13:48Z</time>
      </trkpt>
      <trkpt lat="48.50488" lon="-2.70617">
        <ele>59</ele>
        <time>2013-11-22T10:13:49Z</time>
      </trkpt>
      <trkpt lat="48.50487" lon="-2.70616">
        <ele>59</ele>
        <time>2013-11-22T10:13:50Z</time>
      </trkpt>
      <trkpt lat="48.50486" lon="-2.70615">
        <ele>59</ele>
        <time>2013-11-22T10:13:51Z</time>
      </trkpt>
      <trkpt lat="48.50484" lon="-2.70614">
        <ele>59</ele>
        <time>2013-11-22T10:13:52Z</time>
      </trkpt>
      <trkpt lat="48.50483" lon="-2.70613">
        <ele>59</ele>
        <time>2013-11-22T10:13:53Z</time>
      </trkpt>
      <trkpt lat="48.50481" lon="-2.70613">
        <ele>59</ele>
        <time>2013-11-22T10:13:54Z</time>
      </trkpt>
      <trkpt lat="48.5048" lon="-2.70612">
        <ele>59</ele>
        <time>2013-11-22T10:13:55Z</time>
      </trkpt>
      <trkpt lat="48.50478" lon="-2.70611">
        <ele>59</ele>
        <time>2013-11-22T10:13:56Z</time>
      </trkpt>
      <trkpt lat="48.50477" lon="-2.70611">
        <ele>59</ele>
        <time>2013-11-22T10:13:57Z</time>
      </trkpt>
      <trkpt lat="48.50475" lon="-2.70611">
        <ele>59</ele>
        <time>2013-11-22T10:13:58Z</time>
      </trkpt>
      <trkpt lat="48.50472" lon="-2.70611">
        <ele>59</ele>
        <time>2013-11-22T10:14:00Z</time>
      </trkpt>
      <trkpt lat="48.50471" lon="-2.7061">
        <ele>59</ele>
        <time>2013-11-22T10:14:01Z</time>
      </trkpt>
      <trkpt lat="48.5047" lon="-2.7061">
        <ele>59</ele>
        <time>2013-11-22T10:14:02Z</time>
      </trkpt>
      <trkpt lat="48.50468" lon="-2.7061">
        <ele>59</ele>
        <time>2013-11-22T10:14:03Z</time>
      </trkpt>
      <trkpt lat="48.50467" lon="-2.70609">
        <ele>59</ele>
        <time>2013-11-22T10:14:04Z</time>
      </trkpt>
      <trkpt lat="48.50465" lon="-2.70609">
        <ele>59</ele>
        <time>2013-11-22T10:14:05Z</time>
      </trkpt>
      <trkpt lat="48.50462" lon="-2.70609">
        <ele>59</ele>
        <time>2013-11-22T10:14:07Z</time>
      </trkpt>
      <trkpt lat="48.50461" lon="-2.70609">
        <ele>59</ele>
        <time>2013-11-22T10:14:08Z</time>
      </trkpt>
      <trkpt lat="48.5046" lon="-2.70608">
        <ele>59</ele>
        <time>2013-11-22T10:14:09Z</time>
      </trkpt>
      <trkpt lat="48.50458" lon="-2.70608">
        <ele>59</ele>
        <time>2013-11-22T10:14:10Z</time>
      </trkpt>
      <trkpt lat="48.50457" lon="-2.70608">
        <ele>59</ele>
        <time>2013-11-22T10:14:11Z</time>
      </trkpt>
      <trkpt lat="48.50455" lon="-2.70608">
        <ele>59</ele>
        <time>2013-11-22T10:14:12Z</time>
      </trkpt>
      <trkpt lat="48.50454" lon="-2.70607">
        <ele>59</ele>
        <time>2013-11-22T10:14:13Z</time>
      </trkpt>
      <trkpt lat="48.50453" lon="-2.70607">
        <ele>59</ele>
        <time>2013-11-22T10:14:14Z</time>
      </trkpt>
      <trkpt lat="48.50451" lon="-2.70607">
        <ele>59</ele>
        <time>2013-11-22T10:14:15Z</time>
      </trkpt>
      <trkpt lat="48.5045" lon="-2.70607">
        <ele>59</ele>
        <time>2013-11-22T10:14:16Z</time>
      </trkpt>
      <trkpt lat="48.50449" lon="-2.70607">
        <ele>59</ele>
        <time>2013-11-22T10:14:17Z</time>
      </trkpt>
      <trkpt lat="48.50446" lon="-2.70606">
        <ele>59</ele>
        <time>2013-11-22T10:14:19Z</time>
      </trkpt>
      <trkpt lat="48.50444" lon="-2.70606">
        <ele>59</ele>
        <time>2013-11-22T10:14:20Z</time>
      </trkpt>
      <trkpt lat="48.50436" lon="-2.70606">
        <ele>59</ele>
        <time>2013-11-22T10:14:26Z</time>
      </trkpt>
      <trkpt lat="48.50434" lon="-2.70606">
        <ele>59</ele>
        <time>2013-11-22T10:14:27Z</time>
      </trkpt>
      <trkpt lat="48.50431" lon="-2.70606">
        <ele>59</ele>
        <time>2013-11-22T10:14:29Z</time>
      </trkpt>
      <trkpt lat="48.5043" lon="-2.70606">
        <ele>59</ele>
        <time>2013-11-22T10:14:30Z</time>
      </trkpt>
      <trkpt lat="48.50429" lon="-2.70605">
        <ele>59</ele>
        <time>2013-11-22T10:14:31Z</time>
      </trkpt>
      <trkpt lat="48.50427" lon="-2.70605">
        <ele>59</ele>
        <time>2013-11-22T10:14:32Z</time>
      </trkpt>
      <trkpt lat="48.50426" lon="-2.70605">
        <ele>59</ele>
        <time>2013-11-22T10:14:33Z</time>
      </trkpt>
      <trkpt lat="48.50424" lon="-2.70605">
        <ele>59</ele>
        <time>2013-11-22T10:14:34Z</time>
      </trkpt>
      <trkpt lat="48.50422" lon="-2.70605">
        <ele>59</ele>
        <time>2013-11-22T10:14:36Z</time>
      </trkpt>
      <trkpt lat="48.5042" lon="-2.70604">
        <ele>59</ele>
        <time>2013-11-22T10:14:37Z</time>
      </trkpt>
      <trkpt lat="48.50419" lon="-2.70604">
        <ele>59</ele>
        <time>2013-11-22T10:14:38Z</time>
      </trkpt>
      <trkpt lat="48.50416" lon="-2.70604">
        <ele>59</ele>
        <time>2013-11-22T10:14:40Z</time>
      </trkpt>
      <trkpt lat="48.50415" lon="-2.70604">
        <ele>59</ele>
        <time>2013-11-22T10:14:41Z</time>
      </trkpt>
      <trkpt lat="48.50413" lon="-2.70603">
        <ele>59</ele>
        <time>2013-11-22T10:14:42Z</time>
      </trkpt>
      <trkpt lat="48.50412" lon="-2.70603">
        <ele>59</ele>
        <time>2013-11-22T10:14:43Z</time>
      </trkpt>
      <trkpt lat="48.5041" lon="-2.70603">
        <ele>59</ele>
        <time>2013-11-22T10:14:44Z</time>
      </trkpt>
      <trkpt lat="48.50409" lon="-2.70603">
        <ele>59</ele>
        <time>2013-11-22T10:14:45Z</time>
      </trkpt>
      <trkpt lat="48.50407" lon="-2.70602">
        <ele>59</ele>
        <time>2013-11-22T10:14:46Z</time>
      </trkpt>
      <trkpt lat="48.50406" lon="-2.70602">
        <ele>59</ele>
        <time>2013-11-22T10:14:47Z</time>
      </trkpt>
      <trkpt lat="48.50404" lon="-2.70602">
        <ele>59</ele>
        <time>2013-11-22T10:14:48Z</time>
      </trkpt>
      <trkpt lat="48.50402" lon="-2.70601">
        <ele>59</ele>
        <time>2013-11-22T10:14:49Z</time>
      </trkpt>
      <trkpt lat="48.50401" lon="-2.70601">
        <ele>59</ele>
        <time>2013-11-22T10:14:50Z</time>
      </trkpt>
      <trkpt lat="48.50399" lon="-2.70601">
        <ele>59</ele>
        <time>2013-11-22T10:14:51Z</time>
      </trkpt>
      <trkpt lat="48.50398" lon="-2.70601">
        <ele>59</ele>
        <time>2013-11-22T10:14:52Z</time>
      </trkpt>
      <trkpt lat="48.50396" lon="-2.706">
        <ele>59</ele>
        <time>2013-11-22T10:14:53Z</time>
      </trkpt>
      <trkpt lat="48.50395" lon="-2.706">
        <ele>58</ele>
        <time>2013-11-22T10:14:54Z</time>
      </trkpt>
      <trkpt lat="48.50394" lon="-2.706">
        <ele>58</ele>
        <time>2013-11-22T10:14:55Z</time>
      </trkpt>
      <trkpt lat="48.50392" lon="-2.70599">
        <ele>58</ele>
        <time>2013-11-22T10:14:56Z</time>
      </trkpt>
      <trkpt lat="48.50391" lon="-2.70599">
        <ele>58</ele>
        <time>2013-11-22T10:14:57Z</time>
      </trkpt>
      <trkpt lat="48.50389" lon="-2.70599">
        <ele>58</ele>
        <time>2013-11-22T10:14:58Z</time>
      </trkpt>
      <trkpt lat="48.50388" lon="-2.70598">
        <ele>58</ele>
        <time>2013-11-22T10:14:59Z</time>
      </trkpt>
      <trkpt lat="48.50387" lon="-2.70598">
        <ele>58</ele>
        <time>2013-11-22T10:15:00Z</time>
      </trkpt>
      <trkpt lat="48.50385" lon="-2.70598">
        <ele>58</ele>
        <time>2013-11-22T10:15:01Z</time>
      </trkpt>
      <trkpt lat="48.50384" lon="-2.70597">
        <ele>58</ele>
        <time>2013-11-22T10:15:02Z</time>
      </trkpt>
      <trkpt lat="48.50382" lon="-2.70597">
        <ele>58</ele>
        <time>2013-11-22T10:15:03Z</time>
      </trkpt>
      <trkpt lat="48.50381" lon="-2.70597">
        <ele>58</ele>
        <time>2013-11-22T10:15:04Z</time>
      </trkpt>
      <trkpt lat="48.50376" lon="-2.70597">
        <ele>58</ele>
        <time>2013-11-22T10:15:07Z</time>
      </trkpt>
      <trkpt lat="48.50374" lon="-2.70596">
        <ele>58</ele>
        <time>2013-11-22T10:15:08Z</time>
      </trkpt>
      <trkpt lat="48.50373" lon="-2.70596">
        <ele>58</ele>
        <time>2013-11-22T10:15:09Z</time>
      </trkpt>
      <trkpt lat="48.50372" lon="-2.70596">
        <ele>58</ele>
        <time>2013-11-22T10:15:10Z</time>
      </trkpt>
      <trkpt lat="48.5037" lon="-2.70596">
        <ele>58</ele>
        <time>2013-11-22T10:15:11Z</time>
      </trkpt>
      <trkpt lat="48.50369" lon="-2.70596">
        <ele>58</ele>
        <time>2013-11-22T10:15:12Z</time>
      </trkpt>
      <trkpt lat="48.50367" lon="-2.70595">
        <ele>58</ele>
        <time>2013-11-22T10:15:13Z</time>
      </trkpt>
      <trkpt lat="48.50365" lon="-2.70595">
        <ele>58</ele>
        <time>2013-11-22T10:15:14Z</time>
      </trkpt>
      <trkpt lat="48.50364" lon="-2.70595">
        <ele>58</ele>
        <time>2013-11-22T10:15:15Z</time>
      </trkpt>
      <trkpt lat="48.50362" lon="-2.70595">
        <ele>58</ele>
        <time>2013-11-22T10:15:16Z</time>
      </trkpt>
      <trkpt lat="48.50361" lon="-2.70594">
        <ele>58</ele>
        <time>2013-11-22T10:15:17Z</time>
      </trkpt>
      <trkpt lat="48.5036" lon="-2.70594">
        <ele>58</ele>
        <time>2013-11-22T10:15:18Z</time>
      </trkpt>
      <trkpt lat="48.50359" lon="-2.70594">
        <ele>58</ele>
        <time>2013-11-22T10:15:19Z</time>
      </trkpt>
      <trkpt lat="48.50357" lon="-2.70593">
        <ele>58</ele>
        <time>2013-11-22T10:15:20Z</time>
      </trkpt>
      <trkpt lat="48.50356" lon="-2.70593">
        <ele>58</ele>
        <time>2013-11-22T10:15:21Z</time>
      </trkpt>
      <trkpt lat="48.50354" lon="-2.70593">
        <ele>58</ele>
        <time>2013-11-22T10:15:22Z</time>
      </trkpt>
      <trkpt lat="48.50353" lon="-2.70592">
        <ele>58</ele>
        <time>2013-11-22T10:15:23Z</time>
      </trkpt>
      <trkpt lat="48.50352" lon="-2.70592">
        <ele>58</ele>
        <time>2013-11-22T10:15:24Z</time>
      </trkpt>
      <trkpt lat="48.50351" lon="-2.70592">
        <ele>58</ele>
        <time>2013-11-22T10:15:25Z</time>
      </trkpt>
      <trkpt lat="48.50349" lon="-2.70591">
        <ele>58</ele>
        <time>2013-11-22T10:15:26Z</time>
      </trkpt>
      <trkpt lat="48.50348" lon="-2.70591">
        <ele>58</ele>
        <time>2013-11-22T10:15:27Z</time>
      </trkpt>
      <trkpt lat="48.50346" lon="-2.7059">
        <ele>58</ele>
        <time>2013-11-22T10:15:28Z</time>
      </trkpt>
      <trkpt lat="48.50345" lon="-2.7059">
        <ele>58</ele>
        <time>2013-11-22T10:15:29Z</time>
      </trkpt>
      <trkpt lat="48.50344" lon="-2.70589">
        <ele>58</ele>
        <time>2013-11-22T10:15:30Z</time>
      </trkpt>
      <trkpt lat="48.50343" lon="-2.70588">
        <ele>58</ele>
        <time>2013-11-22T10:15:31Z</time>
      </trkpt>
      <trkpt lat="48.50341" lon="-2.70588">
        <ele>58</ele>
        <time>2013-11-22T10:15:32Z</time>
      </trkpt>
      <trkpt lat="48.5034" lon="-2.70587">
        <ele>58</ele>
        <time>2013-11-22T10:15:33Z</time>
      </trkpt>
      <trkpt lat="48.50338" lon="-2.70587">
        <ele>58</ele>
        <time>2013-11-22T10:15:34Z</time>
      </trkpt>
      <trkpt lat="48.50336" lon="-2.70587">
        <ele>58</ele>
        <time>2013-11-22T10:15:35Z</time>
      </trkpt>
      <trkpt lat="48.50335" lon="-2.70587">
        <ele>58</ele>
        <time>2013-11-22T10:15:36Z</time>
      </trkpt>
      <trkpt lat="48.50333" lon="-2.70586">
        <ele>58</ele>
        <time>2013-11-22T10:15:37Z</time>
      </trkpt>
      <trkpt lat="48.50332" lon="-2.70586">
        <ele>58</ele>
        <time>2013-11-22T10:15:38Z</time>
      </trkpt>
      <trkpt lat="48.5033" lon="-2.70585">
        <ele>58</ele>
        <time>2013-11-22T10:15:39Z</time>
      </trkpt>
      <trkpt lat="48.50328" lon="-2.70585">
        <ele>58</ele>
        <time>2013-11-22T10:15:40Z</time>
      </trkpt>
      <trkpt lat="48.50327" lon="-2.70585">
        <ele>58</ele>
        <time>2013-11-22T10:15:41Z</time>
      </trkpt>
      <trkpt lat="48.50325" lon="-2.70585">
        <ele>58</ele>
        <time>2013-11-22T10:15:42Z</time>
      </trkpt>
      <trkpt lat="48.50324" lon="-2.70585">
        <ele>58</ele>
        <time>2013-11-22T10:15:43Z</time>
      </trkpt>
      <trkpt lat="48.50322" lon="-2.70584">
        <ele>58</ele>
        <time>2013-11-22T10:15:44Z</time>
      </trkpt>
      <trkpt lat="48.50321" lon="-2.70584">
        <ele>58</ele>
        <time>2013-11-22T10:15:45Z</time>
      </trkpt>
      <trkpt lat="48.50319" lon="-2.70584">
        <ele>58</ele>
        <time>2013-11-22T10:15:46Z</time>
      </trkpt>
      <trkpt lat="48.50318" lon="-2.70583">
        <ele>58</ele>
        <time>2013-11-22T10:15:47Z</time>
      </trkpt>
      <trkpt lat="48.50316" lon="-2.70583">
        <ele>58</ele>
        <time>2013-11-22T10:15:48Z</time>
      </trkpt>
      <trkpt lat="48.50315" lon="-2.70583">
        <ele>58</ele>
        <time>2013-11-22T10:15:49Z</time>
      </trkpt>
      <trkpt lat="48.50314" lon="-2.70582">
        <ele>58</ele>
        <time>2013-11-22T10:15:50Z</time>
      </trkpt>
      <trkpt lat="48.50312" lon="-2.70582">
        <ele>58</ele>
        <time>2013-11-22T10:15:51Z</time>
      </trkpt>
      <trkpt lat="48.50311" lon="-2.70581">
        <ele>58</ele>
        <time>2013-11-22T10:15:52Z</time>
      </trkpt>
      <trkpt lat="48.50309" lon="-2.70581">
        <ele>58</ele>
        <time>2013-11-22T10:15:53Z</time>
      </trkpt>
      <trkpt lat="48.50308" lon="-2.70581">
        <ele>58</ele>
        <time>2013-11-22T10:15:54Z</time>
      </trkpt>
      <trkpt lat="48.50306" lon="-2.70581">
        <ele>58</ele>
        <time>2013-11-22T10:15:55Z</time>
      </trkpt>
      <trkpt lat="48.50305" lon="-2.7058">
        <ele>58</ele>
        <time>2013-11-22T10:15:56Z</time>
      </trkpt>
      <trkpt lat="48.50303" lon="-2.7058">
        <ele>58</ele>
        <time>2013-11-22T10:15:57Z</time>
      </trkpt>
      <trkpt lat="48.50302" lon="-2.7058">
        <ele>58</ele>
        <time>2013-11-22T10:15:58Z</time>
      </trkpt>
      <trkpt lat="48.50301" lon="-2.7058">
        <ele>58</ele>
        <time>2013-11-22T10:15:59Z</time>
      </trkpt>
      <trkpt lat="48.50296" lon="-2.7058">
        <ele>58</ele>
        <time>2013-11-22T10:16:02Z</time>
      </trkpt>
      <trkpt lat="48.50295" lon="-2.7058">
        <ele>58</ele>
        <time>2013-11-22T10:16:03Z</time>
      </trkpt>
      <trkpt lat="48.50294" lon="-2.70581">
        <ele>58</ele>
        <time>2013-11-22T10:16:04Z</time>
      </trkpt>
      <trkpt lat="48.50293" lon="-2.70582">
        <ele>58</ele>
        <time>2013-11-22T10:16:05Z</time>
      </trkpt>
      <trkpt lat="48.50291" lon="-2.70585">
        <ele>58</ele>
        <time>2013-11-22T10:16:07Z</time>
      </trkpt>
      <trkpt lat="48.5029" lon="-2.70588">
        <ele>58</ele>
        <time>2013-11-22T10:16:09Z</time>
      </trkpt>
      <trkpt lat="48.5029" lon="-2.70589">
        <ele>58</ele>
        <time>2013-11-22T10:16:10Z</time>
      </trkpt>
      <trkpt lat="48.50289" lon="-2.70592">
        <ele>58</ele>
        <time>2013-11-22T10:16:11Z</time>
      </trkpt>
      <trkpt lat="48.50289" lon="-2.70593">
        <ele>58</ele>
        <time>2013-11-22T10:16:12Z</time>
      </trkpt>
      <trkpt lat="48.50288" lon="-2.70595">
        <ele>58</ele>
        <time>2013-11-22T10:16:13Z</time>
      </trkpt>
      <trkpt lat="48.50288" lon="-2.70599">
        <ele>58</ele>
        <time>2013-11-22T10:16:15Z</time>
      </trkpt>
      <trkpt lat="48.50287" lon="-2.70601">
        <ele>58</ele>
        <time>2013-11-22T10:16:16Z</time>
      </trkpt>
      <trkpt lat="48.50287" lon="-2.70603">
        <ele>58</ele>
        <time>2013-11-22T10:16:17Z</time>
      </trkpt>
      <trkpt lat="48.50286" lon="-2.70607">
        <ele>58</ele>
        <time>2013-11-22T10:16:19Z</time>
      </trkpt>
      <trkpt lat="48.50286" lon="-2.70609">
        <ele>58</ele>
        <time>2013-11-22T10:16:20Z</time>
      </trkpt>
      <trkpt lat="48.50285" lon="-2.70612">
        <ele>58</ele>
        <time>2013-11-22T10:16:21Z</time>
      </trkpt>
      <trkpt lat="48.50285" lon="-2.70613">
        <ele>58</ele>
        <time>2013-11-22T10:16:22Z</time>
      </trkpt>
      <trkpt lat="48.50285" lon="-2.70615">
        <ele>58</ele>
        <time>2013-11-22T10:16:23Z</time>
      </trkpt>
      <trkpt lat="48.50284" lon="-2.70617">
        <ele>58</ele>
        <time>2013-11-22T10:16:24Z</time>
      </trkpt>
      <trkpt lat="48.50284" lon="-2.70619">
        <ele>58</ele>
        <time>2013-11-22T10:16:25Z</time>
      </trkpt>
      <trkpt lat="48.50283" lon="-2.70621">
        <ele>59</ele>
        <time>2013-11-22T10:16:26Z</time>
      </trkpt>
      <trkpt lat="48.50283" lon="-2.70624">
        <ele>59</ele>
        <time>2013-11-22T10:16:27Z</time>
      </trkpt>
      <trkpt lat="48.50282" lon="-2.70626">
        <ele>59</ele>
        <time>2013-11-22T10:16:28Z</time>
      </trkpt>
      <trkpt lat="48.50282" lon="-2.70628">
        <ele>59</ele>
        <time>2013-11-22T10:16:29Z</time>
      </trkpt>
      <trkpt lat="48.50282" lon="-2.7063">
        <ele>59</ele>
        <time>2013-11-22T10:16:30Z</time>
      </trkpt>
      <trkpt lat="48.50281" lon="-2.70632">
        <ele>59</ele>
        <time>2013-11-22T10:16:31Z</time>
      </trkpt>
      <trkpt lat="48.50281" lon="-2.70634">
        <ele>60</ele>
        <time>2013-11-22T10:16:32Z</time>
      </trkpt>
      <trkpt lat="48.5028" lon="-2.70636">
        <ele>60</ele>
        <time>2013-11-22T10:16:33Z</time>
      </trkpt>
      <trkpt lat="48.5028" lon="-2.70638">
        <ele>60</ele>
        <time>2013-11-22T10:16:34Z</time>
      </trkpt>
      <trkpt lat="48.50279" lon="-2.7064">
        <ele>60</ele>
        <time>2013-11-22T10:16:35Z</time>
      </trkpt>
      <trkpt lat="48.50278" lon="-2.70643">
        <ele>60</ele>
        <time>2013-11-22T10:16:37Z</time>
      </trkpt>
      <trkpt lat="48.50278" lon="-2.70645">
        <ele>61</ele>
        <time>2013-11-22T10:16:38Z</time>
      </trkpt>
      <trkpt lat="48.50277" lon="-2.70647">
        <ele>61</ele>
        <time>2013-11-22T10:16:39Z</time>
      </trkpt>
      <trkpt lat="48.50277" lon="-2.70649">
        <ele>61</ele>
        <time>2013-11-22T10:16:40Z</time>
      </trkpt>
      <trkpt lat="48.50276" lon="-2.70651">
        <ele>61</ele>
        <time>2013-11-22T10:16:41Z</time>
      </trkpt>
      <trkpt lat="48.50276" lon="-2.70652">
        <ele>61</ele>
        <time>2013-11-22T10:16:42Z</time>
      </trkpt>
      <trkpt lat="48.50275" lon="-2.70654">
        <ele>61</ele>
        <time>2013-11-22T10:16:43Z</time>
      </trkpt>
      <trkpt lat="48.50275" lon="-2.70655">
        <ele>61</ele>
        <time>2013-11-22T10:16:44Z</time>
      </trkpt>
      <trkpt lat="48.50274" lon="-2.70659">
        <ele>61</ele>
        <time>2013-11-22T10:16:46Z</time>
      </trkpt>
      <trkpt lat="48.50273" lon="-2.70661">
        <ele>61</ele>
        <time>2013-11-22T10:16:47Z</time>
      </trkpt>
      <trkpt lat="48.50273" lon="-2.70663">
        <ele>61</ele>
        <time>2013-11-22T10:16:48Z</time>
      </trkpt>
      <trkpt lat="48.50272" lon="-2.70665">
        <ele>61</ele>
        <time>2013-11-22T10:16:49Z</time>
      </trkpt>
      <trkpt lat="48.50272" lon="-2.70666">
        <ele>62</ele>
        <time>2013-11-22T10:16:50Z</time>
      </trkpt>
      <trkpt lat="48.50271" lon="-2.70668">
        <ele>62</ele>
        <time>2013-11-22T10:16:51Z</time>
      </trkpt>
      <trkpt lat="48.5027" lon="-2.7067">
        <ele>62</ele>
        <time>2013-11-22T10:16:52Z</time>
      </trkpt>
      <trkpt lat="48.5027" lon="-2.70671">
        <ele>62</ele>
        <time>2013-11-22T10:16:53Z</time>
      </trkpt>
      <trkpt lat="48.50269" lon="-2.70673">
        <ele>62</ele>
        <time>2013-11-22T10:16:54Z</time>
      </trkpt>
      <trkpt lat="48.50268" lon="-2.70675">
        <ele>62</ele>
        <time>2013-11-22T10:16:55Z</time>
      </trkpt>
      <trkpt lat="48.50268" lon="-2.70677">
        <ele>62</ele>
        <time>2013-11-22T10:16:56Z</time>
      </trkpt>
      <trkpt lat="48.50267" lon="-2.70679">
        <ele>62</ele>
        <time>2013-11-22T10:16:57Z</time>
      </trkpt>
      <trkpt lat="48.50266" lon="-2.70681">
        <ele>62</ele>
        <time>2013-11-22T10:16:58Z</time>
      </trkpt>
      <trkpt lat="48.50266" lon="-2.70682">
        <ele>62</ele>
        <time>2013-11-22T10:16:59Z</time>
      </trkpt>
      <trkpt lat="48.50265" lon="-2.70684">
        <ele>62</ele>
        <time>2013-11-22T10:17:00Z</time>
      </trkpt>
      <trkpt lat="48.50263" lon="-2.70687">
        <ele>62</ele>
        <time>2013-11-22T10:17:02Z</time>
      </trkpt>
      <trkpt lat="48.50262" lon="-2.70689">
        <ele>63</ele>
        <time>2013-11-22T10:17:03Z</time>
      </trkpt>
      <trkpt lat="48.50261" lon="-2.70692">
        <ele>63</ele>
        <time>2013-11-22T10:17:05Z</time>
      </trkpt>
      <trkpt lat="48.50259" lon="-2.70695">
        <ele>63</ele>
        <time>2013-11-22T10:17:07Z</time>
      </trkpt>
      <trkpt lat="48.50257" lon="-2.70698">
        <ele>63</ele>
        <time>2013-11-22T10:17:09Z</time>
      </trkpt>
      <trkpt lat="48.50256" lon="-2.70699">
        <ele>63</ele>
        <time>2013-11-22T10:17:10Z</time>
      </trkpt>
      <trkpt lat="48.50254" lon="-2.70702">
        <ele>63</ele>
        <time>2013-11-22T10:17:12Z</time>
      </trkpt>
      <trkpt lat="48.50252" lon="-2.70705">
        <ele>63</ele>
        <time>2013-11-22T10:17:14Z</time>
      </trkpt>
      <trkpt lat="48.5025" lon="-2.70707">
        <ele>63</ele>
        <time>2013-11-22T10:17:16Z</time>
      </trkpt>
      <trkpt lat="48.50249" lon="-2.70708">
        <ele>63</ele>
        <time>2013-11-22T10:17:17Z</time>
      </trkpt>
      <trkpt lat="48.50247" lon="-2.70711">
        <ele>63</ele>
        <time>2013-11-22T10:17:19Z</time>
      </trkpt>
      <trkpt lat="48.50245" lon="-2.70714">
        <ele>63</ele>
        <time>2013-11-22T10:17:21Z</time>
      </trkpt>
      <trkpt lat="48.50242" lon="-2.70716">
        <ele>63</ele>
        <time>2013-11-22T10:17:23Z</time>
      </trkpt>
      <trkpt lat="48.50241" lon="-2.70717">
        <ele>63</ele>
        <time>2013-11-22T10:17:24Z</time>
      </trkpt>
      <trkpt lat="48.5024" lon="-2.70718">
        <ele>64</ele>
        <time>2013-11-22T10:17:29Z</time>
      </trkpt>
      <trkpt lat="48.50239" lon="-2.7072">
        <ele>64</ele>
        <time>2013-11-22T10:17:34Z</time>
      </trkpt>
      <trkpt lat="48.50238" lon="-2.70721">
        <ele>64</ele>
        <time>2013-11-22T10:17:36Z</time>
      </trkpt>
      <trkpt lat="48.50236" lon="-2.70723">
        <ele>64</ele>
        <time>2013-11-22T10:17:38Z</time>
      </trkpt>
      <trkpt lat="48.50234" lon="-2.70725">
        <ele>64</ele>
        <time>2013-11-22T10:17:40Z</time>
      </trkpt>
      <trkpt lat="48.50232" lon="-2.70727">
        <ele>65</ele>
        <time>2013-11-22T10:17:42Z</time>
      </trkpt>
      <trkpt lat="48.50231" lon="-2.70729">
        <ele>65</ele>
        <time>2013-11-22T10:17:44Z</time>
      </trkpt>
      <trkpt lat="48.50229" lon="-2.70731">
        <ele>65</ele>
        <time>2013-11-22T10:17:46Z</time>
      </trkpt>
      <trkpt lat="48.50227" lon="-2.70733">
        <ele>65</ele>
        <time>2013-11-22T10:17:48Z</time>
      </trkpt>
      <trkpt lat="48.50226" lon="-2.70734">
        <ele>65</ele>
        <time>2013-11-22T10:17:49Z</time>
      </trkpt>
      <trkpt lat="48.50224" lon="-2.70737">
        <ele>65</ele>
        <time>2013-11-22T10:17:51Z</time>
      </trkpt>
      <trkpt lat="48.50222" lon="-2.70739">
        <ele>65</ele>
        <time>2013-11-22T10:17:53Z</time>
      </trkpt>
      <trkpt lat="48.5022" lon="-2.70741">
        <ele>65</ele>
        <time>2013-11-22T10:17:55Z</time>
      </trkpt>
      <trkpt lat="48.50218" lon="-2.70743">
        <ele>65</ele>
        <time>2013-11-22T10:17:57Z</time>
      </trkpt>
      <trkpt lat="48.50216" lon="-2.70745">
        <ele>65</ele>
        <time>2013-11-22T10:17:59Z</time>
      </trkpt>
      <trkpt lat="48.50214" lon="-2.70749">
        <ele>65</ele>
        <time>2013-11-22T10:18:01Z</time>
      </trkpt>
      <trkpt lat="48.50213" lon="-2.7075">
        <ele>65</ele>
        <time>2013-11-22T10:18:02Z</time>
      </trkpt>
      <trkpt lat="48.50212" lon="-2.70752">
        <ele>65</ele>
        <time>2013-11-22T10:18:03Z</time>
      </trkpt>
      <trkpt lat="48.5021" lon="-2.70754">
        <ele>65</ele>
        <time>2013-11-22T10:18:05Z</time>
      </trkpt>
      <trkpt lat="48.50208" lon="-2.70757">
        <ele>65</ele>
        <time>2013-11-22T10:18:07Z</time>
      </trkpt>
      <trkpt lat="48.50206" lon="-2.7076">
        <ele>65</ele>
        <time>2013-11-22T10:18:09Z</time>
      </trkpt>
      <trkpt lat="48.50204" lon="-2.70762">
        <ele>65</ele>
        <time>2013-11-22T10:18:11Z</time>
      </trkpt>
      <trkpt lat="48.50203" lon="-2.70765">
        <ele>65</ele>
        <time>2013-11-22T10:18:13Z</time>
      </trkpt>
      <trkpt lat="48.50201" lon="-2.70768">
        <ele>65</ele>
        <time>2013-11-22T10:18:15Z</time>
      </trkpt>
      <trkpt lat="48.50199" lon="-2.7077">
        <ele>65</ele>
        <time>2013-11-22T10:18:17Z</time>
      </trkpt>
      <trkpt lat="48.50197" lon="-2.70773">
        <ele>65</ele>
        <time>2013-11-22T10:18:19Z</time>
      </trkpt>
      <trkpt lat="48.50196" lon="-2.70774">
        <ele>65</ele>
        <time>2013-11-22T10:18:20Z</time>
      </trkpt>
      <trkpt lat="48.50195" lon="-2.70775">
        <ele>65</ele>
        <time>2013-11-22T10:18:21Z</time>
      </trkpt>
      <trkpt lat="48.50193" lon="-2.70778">
        <ele>65</ele>
        <time>2013-11-22T10:18:23Z</time>
      </trkpt>
      <trkpt lat="48.50191" lon="-2.70779">
        <ele>65</ele>
        <time>2013-11-22T10:18:24Z</time>
      </trkpt>
      <trkpt lat="48.5019" lon="-2.70781">
        <ele>65</ele>
        <time>2013-11-22T10:18:26Z</time>
      </trkpt>
      <trkpt lat="48.50188" lon="-2.70784">
        <ele>65</ele>
        <time>2013-11-22T10:18:28Z</time>
      </trkpt>
      <trkpt lat="48.50186" lon="-2.70787">
        <ele>65</ele>
        <time>2013-11-22T10:18:30Z</time>
      </trkpt>
      <trkpt lat="48.50185" lon="-2.70788">
        <ele>65</ele>
        <time>2013-11-22T10:18:31Z</time>
      </trkpt>
      <trkpt lat="48.50183" lon="-2.7079">
        <ele>65</ele>
        <time>2013-11-22T10:18:32Z</time>
      </trkpt>
      <trkpt lat="48.50182" lon="-2.70791">
        <ele>65</ele>
        <time>2013-11-22T10:18:33Z</time>
      </trkpt>
      <trkpt lat="48.50181" lon="-2.70792">
        <ele>65</ele>
        <time>2013-11-22T10:18:34Z</time>
      </trkpt>
      <trkpt lat="48.5018" lon="-2.70794">
        <ele>65</ele>
        <time>2013-11-22T10:18:35Z</time>
      </trkpt>
      <trkpt lat="48.50178" lon="-2.70796">
        <ele>65</ele>
        <time>2013-11-22T10:18:37Z</time>
      </trkpt>
      <trkpt lat="48.50177" lon="-2.70797">
        <ele>65</ele>
        <time>2013-11-22T10:18:38Z</time>
      </trkpt>
      <trkpt lat="48.50175" lon="-2.70798">
        <ele>65</ele>
        <time>2013-11-22T10:18:39Z</time>
      </trkpt>
      <trkpt lat="48.50174" lon="-2.708">
        <ele>65</ele>
        <time>2013-11-22T10:18:41Z</time>
      </trkpt>
      <trkpt lat="48.50172" lon="-2.70803">
        <ele>65</ele>
        <time>2013-11-22T10:18:43Z</time>
      </trkpt>
      <trkpt lat="48.50169" lon="-2.70804">
        <ele>65</ele>
        <time>2013-11-22T10:18:45Z</time>
      </trkpt>
      <trkpt lat="48.50168" lon="-2.70805">
        <ele>65</ele>
        <time>2013-11-22T10:18:46Z</time>
      </trkpt>
      <trkpt lat="48.50167" lon="-2.70806">
        <ele>65</ele>
        <time>2013-11-22T10:18:47Z</time>
      </trkpt>
      <trkpt lat="48.50166" lon="-2.70807">
        <ele>65</ele>
        <time>2013-11-22T10:18:48Z</time>
      </trkpt>
      <trkpt lat="48.50164" lon="-2.70808">
        <ele>65</ele>
        <time>2013-11-22T10:18:49Z</time>
      </trkpt>
      <trkpt lat="48.50163" lon="-2.70809">
        <ele>65</ele>
        <time>2013-11-22T10:18:50Z</time>
      </trkpt>
      <trkpt lat="48.50162" lon="-2.7081">
        <ele>65</ele>
        <time>2013-11-22T10:18:51Z</time>
      </trkpt>
      <trkpt lat="48.5016" lon="-2.70811">
        <ele>65</ele>
        <time>2013-11-22T10:18:52Z</time>
      </trkpt>
      <trkpt lat="48.50159" lon="-2.70812">
        <ele>65</ele>
        <time>2013-11-22T10:18:53Z</time>
      </trkpt>
      <trkpt lat="48.50158" lon="-2.70813">
        <ele>65</ele>
        <time>2013-11-22T10:18:54Z</time>
      </trkpt>
      <trkpt lat="48.50156" lon="-2.70814">
        <ele>65</ele>
        <time>2013-11-22T10:18:55Z</time>
      </trkpt>
      <trkpt lat="48.50155" lon="-2.70814">
        <ele>65</ele>
        <time>2013-11-22T10:18:56Z</time>
      </trkpt>
      <trkpt lat="48.50154" lon="-2.70815">
        <ele>65</ele>
        <time>2013-11-22T10:18:57Z</time>
      </trkpt>
      <trkpt lat="48.50152" lon="-2.70816">
        <ele>65</ele>
        <time>2013-11-22T10:18:58Z</time>
      </trkpt>
      <trkpt lat="48.50151" lon="-2.70817">
        <ele>65</ele>
        <time>2013-11-22T10:18:59Z</time>
      </trkpt>
      <trkpt lat="48.5015" lon="-2.70818">
        <ele>65</ele>
        <time>2013-11-22T10:19:00Z</time>
      </trkpt>
      <trkpt lat="48.50148" lon="-2.70819">
        <ele>65</ele>
        <time>2013-11-22T10:19:01Z</time>
      </trkpt>
      <trkpt lat="48.50147" lon="-2.7082">
        <ele>65</ele>
        <time>2013-11-22T10:19:02Z</time>
      </trkpt>
      <trkpt lat="48.50145" lon="-2.70821">
        <ele>65</ele>
        <time>2013-11-22T10:19:03Z</time>
      </trkpt>
      <trkpt lat="48.50144" lon="-2.70821">
        <ele>65</ele>
        <time>2013-11-22T10:19:04Z</time>
      </trkpt>
      <trkpt lat="48.50143" lon="-2.70822">
        <ele>65</ele>
        <time>2013-11-22T10:19:05Z</time>
      </trkpt>
      <trkpt lat="48.50141" lon="-2.70823">
        <ele>65</ele>
        <time>2013-11-22T10:19:06Z</time>
      </trkpt>
      <trkpt lat="48.5014" lon="-2.70824">
        <ele>65</ele>
        <time>2013-11-22T10:19:07Z</time>
      </trkpt>
      <trkpt lat="48.50138" lon="-2.70824">
        <ele>65</ele>
        <time>2013-11-22T10:19:08Z</time>
      </trkpt>
      <trkpt lat="48.50137" lon="-2.70825">
        <ele>65</ele>
        <time>2013-11-22T10:19:09Z</time>
      </trkpt>
      <trkpt lat="48.50136" lon="-2.70826">
        <ele>65</ele>
        <time>2013-11-22T10:19:10Z</time>
      </trkpt>
      <trkpt lat="48.50135" lon="-2.70826">
        <ele>65</ele>
        <time>2013-11-22T10:19:11Z</time>
      </trkpt>
      <trkpt lat="48.50133" lon="-2.70827">
        <ele>65</ele>
        <time>2013-11-22T10:19:12Z</time>
      </trkpt>
      <trkpt lat="48.50132" lon="-2.70828">
        <ele>65</ele>
        <time>2013-11-22T10:19:13Z</time>
      </trkpt>
      <trkpt lat="48.5013" lon="-2.70828">
        <ele>65</ele>
        <time>2013-11-22T10:19:14Z</time>
      </trkpt>
      <trkpt lat="48.50129" lon="-2.70829">
        <ele>65</ele>
        <time>2013-11-22T10:19:15Z</time>
      </trkpt>
      <trkpt lat="48.50128" lon="-2.70829">
        <ele>65</ele>
        <time>2013-11-22T10:19:16Z</time>
      </trkpt>
      <trkpt lat="48.50126" lon="-2.7083">
        <ele>65</ele>
        <time>2013-11-22T10:19:17Z</time>
      </trkpt>
      <trkpt lat="48.50125" lon="-2.7083">
        <ele>65</ele>
        <time>2013-11-22T10:19:18Z</time>
      </trkpt>
      <trkpt lat="48.50123" lon="-2.70831">
        <ele>65</ele>
        <time>2013-11-22T10:19:19Z</time>
      </trkpt>
      <trkpt lat="48.50122" lon="-2.70831">
        <ele>65</ele>
        <time>2013-11-22T10:19:20Z</time>
      </trkpt>
      <trkpt lat="48.50121" lon="-2.70832">
        <ele>65</ele>
        <time>2013-11-22T10:19:21Z</time>
      </trkpt>
      <trkpt lat="48.50119" lon="-2.70833">
        <ele>65</ele>
        <time>2013-11-22T10:19:22Z</time>
      </trkpt>
      <trkpt lat="48.50117" lon="-2.70834">
        <ele>65</ele>
        <time>2013-11-22T10:19:23Z</time>
      </trkpt>
      <trkpt lat="48.50116" lon="-2.70835">
        <ele>65</ele>
        <time>2013-11-22T10:19:24Z</time>
      </trkpt>
      <trkpt lat="48.50114" lon="-2.70836">
        <ele>65</ele>
        <time>2013-11-22T10:19:25Z</time>
      </trkpt>
      <trkpt lat="48.50113" lon="-2.70838">
        <ele>65</ele>
        <time>2013-11-22T10:19:26Z</time>
      </trkpt>
      <trkpt lat="48.50112" lon="-2.70839">
        <ele>65</ele>
        <time>2013-11-22T10:19:27Z</time>
      </trkpt>
      <trkpt lat="48.5011" lon="-2.7084">
        <ele>65</ele>
        <time>2013-11-22T10:19:29Z</time>
      </trkpt>
      <trkpt lat="48.50108" lon="-2.70841">
        <ele>65</ele>
        <time>2013-11-22T10:19:30Z</time>
      </trkpt>
      <trkpt lat="48.50107" lon="-2.70842">
        <ele>65</ele>
        <time>2013-11-22T10:19:31Z</time>
      </trkpt>
      <trkpt lat="48.50106" lon="-2.70843">
        <ele>65</ele>
        <time>2013-11-22T10:19:32Z</time>
      </trkpt>
      <trkpt lat="48.50105" lon="-2.70844">
        <ele>65</ele>
        <time>2013-11-22T10:19:33Z</time>
      </trkpt>
      <trkpt lat="48.50104" lon="-2.70845">
        <ele>65</ele>
        <time>2013-11-22T10:19:34Z</time>
      </trkpt>
      <trkpt lat="48.50102" lon="-2.70845">
        <ele>65</ele>
        <time>2013-11-22T10:19:35Z</time>
      </trkpt>
      <trkpt lat="48.50101" lon="-2.70847">
        <ele>65</ele>
        <time>2013-11-22T10:19:36Z</time>
      </trkpt>
      <trkpt lat="48.501" lon="-2.70847">
        <ele>65</ele>
        <time>2013-11-22T10:19:37Z</time>
      </trkpt>
      <trkpt lat="48.50098" lon="-2.70848">
        <ele>65</ele>
        <time>2013-11-22T10:19:38Z</time>
      </trkpt>
      <trkpt lat="48.50096" lon="-2.7085">
        <ele>65</ele>
        <time>2013-11-22T10:19:40Z</time>
      </trkpt>
      <trkpt lat="48.50094" lon="-2.70852">
        <ele>65</ele>
        <time>2013-11-22T10:19:42Z</time>
      </trkpt>
      <trkpt lat="48.50093" lon="-2.70855">
        <ele>65</ele>
        <time>2013-11-22T10:19:44Z</time>
      </trkpt>
      <trkpt lat="48.50092" lon="-2.70857">
        <ele>65</ele>
        <time>2013-11-22T10:19:45Z</time>
      </trkpt>
      <trkpt lat="48.50092" lon="-2.70859">
        <ele>65</ele>
        <time>2013-11-22T10:19:46Z</time>
      </trkpt>
      <trkpt lat="48.50091" lon="-2.70861">
        <ele>65</ele>
        <time>2013-11-22T10:19:47Z</time>
      </trkpt>
      <trkpt lat="48.5009" lon="-2.70863">
        <ele>65</ele>
        <time>2013-11-22T10:19:48Z</time>
      </trkpt>
      <trkpt lat="48.50089" lon="-2.70865">
        <ele>65</ele>
        <time>2013-11-22T10:19:49Z</time>
      </trkpt>
      <trkpt lat="48.50089" lon="-2.70867">
        <ele>65</ele>
        <time>2013-11-22T10:19:50Z</time>
      </trkpt>
      <trkpt lat="48.50088" lon="-2.70869">
        <ele>65</ele>
        <time>2013-11-22T10:19:51Z</time>
      </trkpt>
      <trkpt lat="48.50088" lon="-2.70872">
        <ele>65</ele>
        <time>2013-11-22T10:19:52Z</time>
      </trkpt>
      <trkpt lat="48.50087" lon="-2.70874">
        <ele>65</ele>
        <time>2013-11-22T10:19:53Z</time>
      </trkpt>
      <trkpt lat="48.50087" lon="-2.70876">
        <ele>65</ele>
        <time>2013-11-22T10:19:54Z</time>
      </trkpt>
      <trkpt lat="48.50086" lon="-2.70879">
        <ele>65</ele>
        <time>2013-11-22T10:19:56Z</time>
      </trkpt>
      <trkpt lat="48.50086" lon="-2.70885">
        <ele>65</ele>
        <time>2013-11-22T10:19:59Z</time>
      </trkpt>
      <trkpt lat="48.50085" lon="-2.70896">
        <ele>65</ele>
        <time>2013-11-22T10:20:04Z</time>
      </trkpt>
      <trkpt lat="48.50085" lon="-2.709">
        <ele>65</ele>
        <time>2013-11-22T10:20:06Z</time>
      </trkpt>
      <trkpt lat="48.50085" lon="-2.70907">
        <ele>65</ele>
        <time>2013-11-22T10:20:09Z</time>
      </trkpt>
      <trkpt lat="48.50084" lon="-2.70912">
        <ele>65</ele>
        <time>2013-11-22T10:20:11Z</time>
      </trkpt>
      <trkpt lat="48.50084" lon="-2.70916">
        <ele>65</ele>
        <time>2013-11-22T10:20:13Z</time>
      </trkpt>
      <trkpt lat="48.50084" lon="-2.70918">
        <ele>65</ele>
        <time>2013-11-22T10:20:14Z</time>
      </trkpt>
      <trkpt lat="48.50083" lon="-2.70922">
        <ele>65</ele>
        <time>2013-11-22T10:20:16Z</time>
      </trkpt>
      <trkpt lat="48.50083" lon="-2.70929">
        <ele>65</ele>
        <time>2013-11-22T10:20:19Z</time>
      </trkpt>
      <trkpt lat="48.50082" lon="-2.70931">
        <ele>65</ele>
        <time>2013-11-22T10:20:20Z</time>
      </trkpt>
      <trkpt lat="48.50082" lon="-2.70935">
        <ele>65</ele>
        <time>2013-11-22T10:20:22Z</time>
      </trkpt>
      <trkpt lat="48.50082" lon="-2.70937">
        <ele>65</ele>
        <time>2013-11-22T10:20:23Z</time>
      </trkpt>
      <trkpt lat="48.50081" lon="-2.70944">
        <ele>65</ele>
        <time>2013-11-22T10:20:26Z</time>
      </trkpt>
      <trkpt lat="48.50081" lon="-2.70953">
        <ele>65</ele>
        <time>2013-11-22T10:20:30Z</time>
      </trkpt>
      <trkpt lat="48.5008" lon="-2.70956">
        <ele>65</ele>
        <time>2013-11-22T10:20:32Z</time>
      </trkpt>
      <trkpt lat="48.5008" lon="-2.70959">
        <ele>65</ele>
        <time>2013-11-22T10:20:33Z</time>
      </trkpt>
      <trkpt lat="48.50079" lon="-2.70961">
        <ele>65</ele>
        <time>2013-11-22T10:20:34Z</time>
      </trkpt>
      <trkpt lat="48.50079" lon="-2.70963">
        <ele>65</ele>
        <time>2013-11-22T10:20:35Z</time>
      </trkpt>
      <trkpt lat="48.50078" lon="-2.70964">
        <ele>65</ele>
        <time>2013-11-22T10:20:36Z</time>
      </trkpt>
      <trkpt lat="48.50077" lon="-2.70966">
        <ele>65</ele>
        <time>2013-11-22T10:20:37Z</time>
      </trkpt>
      <trkpt lat="48.50076" lon="-2.70967">
        <ele>65</ele>
        <time>2013-11-22T10:20:38Z</time>
      </trkpt>
      <trkpt lat="48.50073" lon="-2.7097">
        <ele>65</ele>
        <time>2013-11-22T10:20:40Z</time>
      </trkpt>
      <trkpt lat="48.50072" lon="-2.70971">
        <ele>65</ele>
        <time>2013-11-22T10:20:41Z</time>
      </trkpt>
      <trkpt lat="48.5007" lon="-2.70971">
        <ele>65</ele>
        <time>2013-11-22T10:20:42Z</time>
      </trkpt>
      <trkpt lat="48.50068" lon="-2.70971">
        <ele>65</ele>
        <time>2013-11-22T10:20:44Z</time>
      </trkpt>
      <trkpt lat="48.50066" lon="-2.70971">
        <ele>65</ele>
        <time>2013-11-22T10:20:45Z</time>
      </trkpt>
      <trkpt lat="48.50064" lon="-2.7097">
        <ele>65</ele>
        <time>2013-11-22T10:20:46Z</time>
      </trkpt>
      <trkpt lat="48.50063" lon="-2.7097">
        <ele>65</ele>
        <time>2013-11-22T10:20:47Z</time>
      </trkpt>
      <trkpt lat="48.50061" lon="-2.70969">
        <ele>65</ele>
        <time>2013-11-22T10:20:48Z</time>
      </trkpt>
      <trkpt lat="48.5006" lon="-2.70968">
        <ele>65</ele>
        <time>2013-11-22T10:20:49Z</time>
      </trkpt>
      <trkpt lat="48.50058" lon="-2.70967">
        <ele>65</ele>
        <time>2013-11-22T10:20:50Z</time>
      </trkpt>
      <trkpt lat="48.50056" lon="-2.70966">
        <ele>65</ele>
        <time>2013-11-22T10:20:51Z</time>
      </trkpt>
      <trkpt lat="48.50055" lon="-2.70965">
        <ele>65</ele>
        <time>2013-11-22T10:20:52Z</time>
      </trkpt>
      <trkpt lat="48.50054" lon="-2.70963">
        <ele>65</ele>
        <time>2013-11-22T10:20:53Z</time>
      </trkpt>
      <trkpt lat="48.50053" lon="-2.70962">
        <ele>65</ele>
        <time>2013-11-22T10:20:54Z</time>
      </trkpt>
      <trkpt lat="48.50051" lon="-2.70961">
        <ele>65</ele>
        <time>2013-11-22T10:20:55Z</time>
      </trkpt>
      <trkpt lat="48.5005" lon="-2.7096">
        <ele>65</ele>
        <time>2013-11-22T10:20:56Z</time>
      </trkpt>
      <trkpt lat="48.50049" lon="-2.70958">
        <ele>65</ele>
        <time>2013-11-22T10:20:57Z</time>
      </trkpt>
      <trkpt lat="48.50048" lon="-2.70957">
        <ele>65</ele>
        <time>2013-11-22T10:20:58Z</time>
      </trkpt>
      <trkpt lat="48.50047" lon="-2.70955">
        <ele>65</ele>
        <time>2013-11-22T10:20:59Z</time>
      </trkpt>
      <trkpt lat="48.50045" lon="-2.70954">
        <ele>65</ele>
        <time>2013-11-22T10:21:00Z</time>
      </trkpt>
      <trkpt lat="48.50044" lon="-2.70953">
        <ele>65</ele>
        <time>2013-11-22T10:21:01Z</time>
      </trkpt>
      <trkpt lat="48.50043" lon="-2.70951">
        <ele>64</ele>
        <time>2013-11-22T10:21:02Z</time>
      </trkpt>
      <trkpt lat="48.50041" lon="-2.70948">
        <ele>64</ele>
        <time>2013-11-22T10:21:04Z</time>
      </trkpt>
      <trkpt lat="48.50039" lon="-2.70946">
        <ele>64</ele>
        <time>2013-11-22T10:21:06Z</time>
      </trkpt>
      <trkpt lat="48.50037" lon="-2.70945">
        <ele>64</ele>
        <time>2013-11-22T10:21:07Z</time>
      </trkpt>
      <trkpt lat="48.50036" lon="-2.70944">
        <ele>64</ele>
        <time>2013-11-22T10:21:08Z</time>
      </trkpt>
      <trkpt lat="48.50035" lon="-2.70943">
        <ele>64</ele>
        <time>2013-11-22T10:21:09Z</time>
      </trkpt>
      <trkpt lat="48.50033" lon="-2.70942">
        <ele>64</ele>
        <time>2013-11-22T10:21:10Z</time>
      </trkpt>
      <trkpt lat="48.50032" lon="-2.70941">
        <ele>64</ele>
        <time>2013-11-22T10:21:11Z</time>
      </trkpt>
      <trkpt lat="48.50031" lon="-2.7094">
        <ele>64</ele>
        <time>2013-11-22T10:21:12Z</time>
      </trkpt>
      <trkpt lat="48.50029" lon="-2.70939">
        <ele>63</ele>
        <time>2013-11-22T10:21:13Z</time>
      </trkpt>
      <trkpt lat="48.50028" lon="-2.70938">
        <ele>63</ele>
        <time>2013-11-22T10:21:14Z</time>
      </trkpt>
      <trkpt lat="48.50027" lon="-2.70938">
        <ele>63</ele>
        <time>2013-11-22T10:21:15Z</time>
      </trkpt>
      <trkpt lat="48.50024" lon="-2.70937">
        <ele>63</ele>
        <time>2013-11-22T10:21:17Z</time>
      </trkpt>
      <trkpt lat="48.50023" lon="-2.70937">
        <ele>63</ele>
        <time>2013-11-22T10:21:18Z</time>
      </trkpt>
      <trkpt lat="48.5002" lon="-2.70936">
        <ele>63</ele>
        <time>2013-11-22T10:21:20Z</time>
      </trkpt>
      <trkpt lat="48.50018" lon="-2.70936">
        <ele>63</ele>
        <time>2013-11-22T10:21:21Z</time>
      </trkpt>
      <trkpt lat="48.50017" lon="-2.70936">
        <ele>63</ele>
        <time>2013-11-22T10:21:22Z</time>
      </trkpt>
      <trkpt lat="48.50014" lon="-2.70935">
        <ele>63</ele>
        <time>2013-11-22T10:21:24Z</time>
      </trkpt>
      <trkpt lat="48.50013" lon="-2.70934">
        <ele>63</ele>
        <time>2013-11-22T10:21:25Z</time>
      </trkpt>
      <trkpt lat="48.5001" lon="-2.70935">
        <ele>63</ele>
        <time>2013-11-22T10:21:27Z</time>
      </trkpt>
      <trkpt lat="48.50007" lon="-2.70934">
        <ele>63</ele>
        <time>2013-11-22T10:21:29Z</time>
      </trkpt>
      <trkpt lat="48.50006" lon="-2.70934">
        <ele>63</ele>
        <time>2013-11-22T10:21:30Z</time>
      </trkpt>
      <trkpt lat="48.50003" lon="-2.70934">
        <ele>63</ele>
        <time>2013-11-22T10:21:32Z</time>
      </trkpt>
      <trkpt lat="48.50002" lon="-2.70934">
        <ele>63</ele>
        <time>2013-11-22T10:21:33Z</time>
      </trkpt>
      <trkpt lat="48.49999" lon="-2.70934">
        <ele>63</ele>
        <time>2013-11-22T10:21:35Z</time>
      </trkpt>
      <trkpt lat="48.49998" lon="-2.70934">
        <ele>63</ele>
        <time>2013-11-22T10:21:36Z</time>
      </trkpt>
      <trkpt lat="48.49996" lon="-2.70934">
        <ele>63</ele>
        <time>2013-11-22T10:21:37Z</time>
      </trkpt>
      <trkpt lat="48.49995" lon="-2.70934">
        <ele>63</ele>
        <time>2013-11-22T10:21:38Z</time>
      </trkpt>
      <trkpt lat="48.49993" lon="-2.70934">
        <ele>63</ele>
        <time>2013-11-22T10:21:39Z</time>
      </trkpt>
      <trkpt lat="48.49989" lon="-2.70934">
        <ele>63</ele>
        <time>2013-11-22T10:21:42Z</time>
      </trkpt>
      <trkpt lat="48.49987" lon="-2.70935">
        <ele>63</ele>
        <time>2013-11-22T10:21:43Z</time>
      </trkpt>
      <trkpt lat="48.49984" lon="-2.70934">
        <ele>63</ele>
        <time>2013-11-22T10:21:45Z</time>
      </trkpt>
      <trkpt lat="48.49982" lon="-2.70934">
        <ele>63</ele>
        <time>2013-11-22T10:21:46Z</time>
      </trkpt>
      <trkpt lat="48.49981" lon="-2.70934">
        <ele>63</ele>
        <time>2013-11-22T10:21:47Z</time>
      </trkpt>
      <trkpt lat="48.49978" lon="-2.70934">
        <ele>63</ele>
        <time>2013-11-22T10:21:49Z</time>
      </trkpt>
      <trkpt lat="48.49976" lon="-2.70934">
        <ele>63</ele>
        <time>2013-11-22T10:21:50Z</time>
      </trkpt>
      <trkpt lat="48.49973" lon="-2.70934">
        <ele>63</ele>
        <time>2013-11-22T10:21:52Z</time>
      </trkpt>
      <trkpt lat="48.4997" lon="-2.70934">
        <ele>63</ele>
        <time>2013-11-22T10:21:54Z</time>
      </trkpt>
      <trkpt lat="48.49969" lon="-2.70935">
        <ele>63</ele>
        <time>2013-11-22T10:21:55Z</time>
      </trkpt>
      <trkpt lat="48.49967" lon="-2.70935">
        <ele>63</ele>
        <time>2013-11-22T10:21:56Z</time>
      </trkpt>
      <trkpt lat="48.49966" lon="-2.70935">
        <ele>63</ele>
        <time>2013-11-22T10:21:57Z</time>
      </trkpt>
      <trkpt lat="48.49964" lon="-2.70935">
        <ele>64</ele>
        <time>2013-11-22T10:21:58Z</time>
      </trkpt>
      <trkpt lat="48.49963" lon="-2.70936">
        <ele>64</ele>
        <time>2013-11-22T10:21:59Z</time>
      </trkpt>
      <trkpt lat="48.49961" lon="-2.70936">
        <ele>64</ele>
        <time>2013-11-22T10:22:00Z</time>
      </trkpt>
      <trkpt lat="48.4996" lon="-2.70936">
        <ele>65</ele>
        <time>2013-11-22T10:22:01Z</time>
      </trkpt>
      <trkpt lat="48.49957" lon="-2.70936">
        <ele>65</ele>
        <time>2013-11-22T10:22:03Z</time>
      </trkpt>
      <trkpt lat="48.49955" lon="-2.70936">
        <ele>66</ele>
        <time>2013-11-22T10:22:04Z</time>
      </trkpt>
      <trkpt lat="48.49951" lon="-2.70936">
        <ele>66</ele>
        <time>2013-11-22T10:22:07Z</time>
      </trkpt>
      <trkpt lat="48.49949" lon="-2.70936">
        <ele>67</ele>
        <time>2013-11-22T10:22:08Z</time>
      </trkpt>
      <trkpt lat="48.49948" lon="-2.70936">
        <ele>67</ele>
        <time>2013-11-22T10:22:09Z</time>
      </trkpt>
      <trkpt lat="48.49945" lon="-2.70936">
        <ele>67</ele>
        <time>2013-11-22T10:22:11Z</time>
      </trkpt>
      <trkpt lat="48.49937" lon="-2.70936">
        <ele>67</ele>
        <time>2013-11-22T10:22:16Z</time>
      </trkpt>
      <trkpt lat="48.49936" lon="-2.70936">
        <ele>67</ele>
        <time>2013-11-22T10:22:17Z</time>
      </trkpt>
      <trkpt lat="48.49935" lon="-2.70936">
        <ele>67</ele>
        <time>2013-11-22T10:22:18Z</time>
      </trkpt>
      <trkpt lat="48.4993" lon="-2.70936">
        <ele>67</ele>
        <time>2013-11-22T10:22:21Z</time>
      </trkpt>
      <trkpt lat="48.49929" lon="-2.70936">
        <ele>68</ele>
        <time>2013-11-22T10:22:22Z</time>
      </trkpt>
      <trkpt lat="48.49926" lon="-2.70935">
        <ele>68</ele>
        <time>2013-11-22T10:22:24Z</time>
      </trkpt>
      <trkpt lat="48.49924" lon="-2.70935">
        <ele>68</ele>
        <time>2013-11-22T10:22:25Z</time>
      </trkpt>
      <trkpt lat="48.49923" lon="-2.70935">
        <ele>68</ele>
        <time>2013-11-22T10:22:26Z</time>
      </trkpt>
      <trkpt lat="48.49922" lon="-2.70935">
        <ele>68</ele>
        <time>2013-11-22T10:22:27Z</time>
      </trkpt>
      <trkpt lat="48.4992" lon="-2.70935">
        <ele>68</ele>
        <time>2013-11-22T10:22:28Z</time>
      </trkpt>
      <trkpt lat="48.49919" lon="-2.70935">
        <ele>68</ele>
        <time>2013-11-22T10:22:29Z</time>
      </trkpt>
      <trkpt lat="48.49917" lon="-2.70934">
        <ele>68</ele>
        <time>2013-11-22T10:22:30Z</time>
      </trkpt>
      <trkpt lat="48.49913" lon="-2.70935">
        <ele>68</ele>
        <time>2013-11-22T10:22:33Z</time>
      </trkpt>
      <trkpt lat="48.49911" lon="-2.70935">
        <ele>68</ele>
        <time>2013-11-22T10:22:35Z</time>
      </trkpt>
      <trkpt lat="48.49909" lon="-2.70934">
        <ele>69</ele>
        <time>2013-11-22T10:22:36Z</time>
      </trkpt>
      <trkpt lat="48.49908" lon="-2.70934">
        <ele>69</ele>
        <time>2013-11-22T10:22:37Z</time>
      </trkpt>
      <trkpt lat="48.49906" lon="-2.70934">
        <ele>69</ele>
        <time>2013-11-22T10:22:38Z</time>
      </trkpt>
      <trkpt lat="48.49905" lon="-2.70933">
        <ele>69</ele>
        <time>2013-11-22T10:22:39Z</time>
      </trkpt>
      <trkpt lat="48.49903" lon="-2.70933">
        <ele>69</ele>
        <time>2013-11-22T10:22:40Z</time>
      </trkpt>
      <trkpt lat="48.49902" lon="-2.70933">
        <ele>69</ele>
        <time>2013-11-22T10:22:41Z</time>
      </trkpt>
      <trkpt lat="48.499" lon="-2.70932">
        <ele>69</ele>
        <time>2013-11-22T10:22:42Z</time>
      </trkpt>
      <trkpt lat="48.49899" lon="-2.70932">
        <ele>69</ele>
        <time>2013-11-22T10:22:43Z</time>
      </trkpt>
      <trkpt lat="48.49897" lon="-2.70932">
        <ele>69</ele>
        <time>2013-11-22T10:22:44Z</time>
      </trkpt>
      <trkpt lat="48.49896" lon="-2.70931">
        <ele>69</ele>
        <time>2013-11-22T10:22:45Z</time>
      </trkpt>
      <trkpt lat="48.49894" lon="-2.7093">
        <ele>69</ele>
        <time>2013-11-22T10:22:47Z</time>
      </trkpt>
      <trkpt lat="48.49893" lon="-2.7093">
        <ele>69</ele>
        <time>2013-11-22T10:22:48Z</time>
      </trkpt>
      <trkpt lat="48.49891" lon="-2.70929">
        <ele>69</ele>
        <time>2013-11-22T10:22:49Z</time>
      </trkpt>
      <trkpt lat="48.4989" lon="-2.70929">
        <ele>69</ele>
        <time>2013-11-22T10:22:50Z</time>
      </trkpt>
      <trkpt lat="48.49888" lon="-2.70928">
        <ele>69</ele>
        <time>2013-11-22T10:22:51Z</time>
      </trkpt>
      <trkpt lat="48.49887" lon="-2.70928">
        <ele>69</ele>
        <time>2013-11-22T10:22:52Z</time>
      </trkpt>
      <trkpt lat="48.49886" lon="-2.70927">
        <ele>69</ele>
        <time>2013-11-22T10:22:53Z</time>
      </trkpt>
      <trkpt lat="48.49884" lon="-2.70926">
        <ele>69</ele>
        <time>2013-11-22T10:22:54Z</time>
      </trkpt>
      <trkpt lat="48.49883" lon="-2.70926">
        <ele>69</ele>
        <time>2013-11-22T10:22:55Z</time>
      </trkpt>
      <trkpt lat="48.49882" lon="-2.70925">
        <ele>69</ele>
        <time>2013-11-22T10:22:56Z</time>
      </trkpt>
      <trkpt lat="48.4988" lon="-2.70925">
        <ele>69</ele>
        <time>2013-11-22T10:22:57Z</time>
      </trkpt>
      <trkpt lat="48.49879" lon="-2.70924">
        <ele>69</ele>
        <time>2013-11-22T10:22:58Z</time>
      </trkpt>
      <trkpt lat="48.49878" lon="-2.70924">
        <ele>69</ele>
        <time>2013-11-22T10:22:59Z</time>
      </trkpt>
      <trkpt lat="48.49876" lon="-2.70923">
        <ele>69</ele>
        <time>2013-11-22T10:23:00Z</time>
      </trkpt>
      <trkpt lat="48.49875" lon="-2.70922">
        <ele>69</ele>
        <time>2013-11-22T10:23:01Z</time>
      </trkpt>
      <trkpt lat="48.49873" lon="-2.70921">
        <ele>69</ele>
        <time>2013-11-22T10:23:02Z</time>
      </trkpt>
      <trkpt lat="48.49872" lon="-2.70921">
        <ele>69</ele>
        <time>2013-11-22T10:23:03Z</time>
      </trkpt>
      <trkpt lat="48.4987" lon="-2.7092">
        <ele>69</ele>
        <time>2013-11-22T10:23:05Z</time>
      </trkpt>
      <trkpt lat="48.49868" lon="-2.70919">
        <ele>69</ele>
        <time>2013-11-22T10:23:07Z</time>
      </trkpt>
      <trkpt lat="48.49866" lon="-2.70918">
        <ele>69</ele>
        <time>2013-11-22T10:23:08Z</time>
      </trkpt>
      <trkpt lat="48.49865" lon="-2.70918">
        <ele>69</ele>
        <time>2013-11-22T10:23:09Z</time>
      </trkpt>
      <trkpt lat="48.49864" lon="-2.70917">
        <ele>69</ele>
        <time>2013-11-22T10:23:10Z</time>
      </trkpt>
      <trkpt lat="48.49863" lon="-2.70916">
        <ele>69</ele>
        <time>2013-11-22T10:23:11Z</time>
      </trkpt>
      <trkpt lat="48.49861" lon="-2.70916">
        <ele>69</ele>
        <time>2013-11-22T10:23:12Z</time>
      </trkpt>
      <trkpt lat="48.4986" lon="-2.70915">
        <ele>69</ele>
        <time>2013-11-22T10:23:13Z</time>
      </trkpt>
      <trkpt lat="48.49858" lon="-2.70915">
        <ele>69</ele>
        <time>2013-11-22T10:23:14Z</time>
      </trkpt>
      <trkpt lat="48.49857" lon="-2.70914">
        <ele>69</ele>
        <time>2013-11-22T10:23:15Z</time>
      </trkpt>
      <trkpt lat="48.49856" lon="-2.70913">
        <ele>69</ele>
        <time>2013-11-22T10:23:16Z</time>
      </trkpt>
      <trkpt lat="48.49855" lon="-2.70912">
        <ele>69</ele>
        <time>2013-11-22T10:23:17Z</time>
      </trkpt>
      <trkpt lat="48.49853" lon="-2.70911">
        <ele>69</ele>
        <time>2013-11-22T10:23:18Z</time>
      </trkpt>
      <trkpt lat="48.49851" lon="-2.7091">
        <ele>69</ele>
        <time>2013-11-22T10:23:20Z</time>
      </trkpt>
      <trkpt lat="48.49849" lon="-2.70909">
        <ele>69</ele>
        <time>2013-11-22T10:23:22Z</time>
      </trkpt>
      <trkpt lat="48.49848" lon="-2.70909">
        <ele>69</ele>
        <time>2013-11-22T10:23:23Z</time>
      </trkpt>
      <trkpt lat="48.49846" lon="-2.70908">
        <ele>69</ele>
        <time>2013-11-22T10:23:24Z</time>
      </trkpt>
      <trkpt lat="48.49845" lon="-2.70907">
        <ele>69</ele>
        <time>2013-11-22T10:23:25Z</time>
      </trkpt>
      <trkpt lat="48.49844" lon="-2.70907">
        <ele>69</ele>
        <time>2013-11-22T10:23:26Z</time>
      </trkpt>
      <trkpt lat="48.49842" lon="-2.70906">
        <ele>69</ele>
        <time>2013-11-22T10:23:27Z</time>
      </trkpt>
      <trkpt lat="48.49841" lon="-2.70905">
        <ele>69</ele>
        <time>2013-11-22T10:23:28Z</time>
      </trkpt>
      <trkpt lat="48.49839" lon="-2.70905">
        <ele>69</ele>
        <time>2013-11-22T10:23:29Z</time>
      </trkpt>
      <trkpt lat="48.49838" lon="-2.70904">
        <ele>69</ele>
        <time>2013-11-22T10:23:30Z</time>
      </trkpt>
      <trkpt lat="48.49837" lon="-2.70903">
        <ele>69</ele>
        <time>2013-11-22T10:23:31Z</time>
      </trkpt>
      <trkpt lat="48.49836" lon="-2.70903">
        <ele>69</ele>
        <time>2013-11-22T10:23:32Z</time>
      </trkpt>
      <trkpt lat="48.49834" lon="-2.70902">
        <ele>69</ele>
        <time>2013-11-22T10:23:33Z</time>
      </trkpt>
      <trkpt lat="48.49833" lon="-2.70901">
        <ele>69</ele>
        <time>2013-11-22T10:23:34Z</time>
      </trkpt>
      <trkpt lat="48.49832" lon="-2.709">
        <ele>69</ele>
        <time>2013-11-22T10:23:35Z</time>
      </trkpt>
      <trkpt lat="48.4983" lon="-2.709">
        <ele>69</ele>
        <time>2013-11-22T10:23:36Z</time>
      </trkpt>
      <trkpt lat="48.49829" lon="-2.70898">
        <ele>69</ele>
        <time>2013-11-22T10:23:37Z</time>
      </trkpt>
      <trkpt lat="48.49828" lon="-2.70897">
        <ele>69</ele>
        <time>2013-11-22T10:23:38Z</time>
      </trkpt>
      <trkpt lat="48.49826" lon="-2.70896">
        <ele>69</ele>
        <time>2013-11-22T10:23:39Z</time>
      </trkpt>
      <trkpt lat="48.49825" lon="-2.70895">
        <ele>69</ele>
        <time>2013-11-22T10:23:40Z</time>
      </trkpt>
      <trkpt lat="48.49823" lon="-2.70895">
        <ele>69</ele>
        <time>2013-11-22T10:23:41Z</time>
      </trkpt>
      <trkpt lat="48.49822" lon="-2.70894">
        <ele>69</ele>
        <time>2013-11-22T10:23:43Z</time>
      </trkpt>
      <trkpt lat="48.4982" lon="-2.70893">
        <ele>69</ele>
        <time>2013-11-22T10:23:45Z</time>
      </trkpt>
      <trkpt lat="48.49819" lon="-2.70892">
        <ele>69</ele>
        <time>2013-11-22T10:23:46Z</time>
      </trkpt>
      <trkpt lat="48.49818" lon="-2.70891">
        <ele>69</ele>
        <time>2013-11-22T10:23:47Z</time>
      </trkpt>
      <trkpt lat="48.49816" lon="-2.70891">
        <ele>69</ele>
        <time>2013-11-22T10:23:48Z</time>
      </trkpt>
      <trkpt lat="48.49815" lon="-2.7089">
        <ele>70</ele>
        <time>2013-11-22T10:23:49Z</time>
      </trkpt>
      <trkpt lat="48.49813" lon="-2.70889">
        <ele>70</ele>
        <time>2013-11-22T10:23:50Z</time>
      </trkpt>
      <trkpt lat="48.49812" lon="-2.70887">
        <ele>70</ele>
        <time>2013-11-22T10:23:51Z</time>
      </trkpt>
      <trkpt lat="48.49811" lon="-2.70887">
        <ele>70</ele>
        <time>2013-11-22T10:23:52Z</time>
      </trkpt>
      <trkpt lat="48.4981" lon="-2.70886">
        <ele>70</ele>
        <time>2013-11-22T10:23:53Z</time>
      </trkpt>
      <trkpt lat="48.49808" lon="-2.70884">
        <ele>70</ele>
        <time>2013-11-22T10:23:54Z</time>
      </trkpt>
      <trkpt lat="48.49807" lon="-2.70883">
        <ele>70</ele>
        <time>2013-11-22T10:23:55Z</time>
      </trkpt>
      <trkpt lat="48.49806" lon="-2.70883">
        <ele>70</ele>
        <time>2013-11-22T10:23:56Z</time>
      </trkpt>
      <trkpt lat="48.49805" lon="-2.70882">
        <ele>70</ele>
        <time>2013-11-22T10:23:57Z</time>
      </trkpt>
      <trkpt lat="48.49803" lon="-2.70881">
        <ele>70</ele>
        <time>2013-11-22T10:23:58Z</time>
      </trkpt>
      <trkpt lat="48.49802" lon="-2.7088">
        <ele>70</ele>
        <time>2013-11-22T10:23:59Z</time>
      </trkpt>
      <trkpt lat="48.49799" lon="-2.70879">
        <ele>70</ele>
        <time>2013-11-22T10:24:01Z</time>
      </trkpt>
      <trkpt lat="48.49798" lon="-2.70878">
        <ele>70</ele>
        <time>2013-11-22T10:24:02Z</time>
      </trkpt>
      <trkpt lat="48.49796" lon="-2.70876">
        <ele>70</ele>
        <time>2013-11-22T10:24:04Z</time>
      </trkpt>
      <trkpt lat="48.49795" lon="-2.70875">
        <ele>70</ele>
        <time>2013-11-22T10:24:05Z</time>
      </trkpt>
      <trkpt lat="48.49793" lon="-2.70875">
        <ele>70</ele>
        <time>2013-11-22T10:24:06Z</time>
      </trkpt>
      <trkpt lat="48.49792" lon="-2.70874">
        <ele>70</ele>
        <time>2013-11-22T10:24:07Z</time>
      </trkpt>
      <trkpt lat="48.49791" lon="-2.70873">
        <ele>70</ele>
        <time>2013-11-22T10:24:08Z</time>
      </trkpt>
      <trkpt lat="48.4979" lon="-2.70872">
        <ele>70</ele>
        <time>2013-11-22T10:24:09Z</time>
      </trkpt>
      <trkpt lat="48.49789" lon="-2.70872">
        <ele>70</ele>
        <time>2013-11-22T10:24:10Z</time>
      </trkpt>
      <trkpt lat="48.49787" lon="-2.70871">
        <ele>70</ele>
        <time>2013-11-22T10:24:11Z</time>
      </trkpt>
      <trkpt lat="48.49786" lon="-2.7087">
        <ele>70</ele>
        <time>2013-11-22T10:24:12Z</time>
      </trkpt>
      <trkpt lat="48.49784" lon="-2.7087">
        <ele>70</ele>
        <time>2013-11-22T10:24:13Z</time>
      </trkpt>
      <trkpt lat="48.49783" lon="-2.70869">
        <ele>70</ele>
        <time>2013-11-22T10:24:14Z</time>
      </trkpt>
      <trkpt lat="48.49782" lon="-2.70869">
        <ele>70</ele>
        <time>2013-11-22T10:24:15Z</time>
      </trkpt>
      <trkpt lat="48.49781" lon="-2.70869">
        <ele>70</ele>
        <time>2013-11-22T10:24:16Z</time>
      </trkpt>
      <trkpt lat="48.49779" lon="-2.70868">
        <ele>70</ele>
        <time>2013-11-22T10:24:17Z</time>
      </trkpt>
      <trkpt lat="48.49778" lon="-2.70868">
        <ele>70</ele>
        <time>2013-11-22T10:24:18Z</time>
      </trkpt>
      <trkpt lat="48.49776" lon="-2.70867">
        <ele>70</ele>
        <time>2013-11-22T10:24:19Z</time>
      </trkpt>
      <trkpt lat="48.49775" lon="-2.70867">
        <ele>70</ele>
        <time>2013-11-22T10:24:20Z</time>
      </trkpt>
      <trkpt lat="48.49773" lon="-2.70866">
        <ele>70</ele>
        <time>2013-11-22T10:24:21Z</time>
      </trkpt>
      <trkpt lat="48.49772" lon="-2.70866">
        <ele>70</ele>
        <time>2013-11-22T10:24:22Z</time>
      </trkpt>
      <trkpt lat="48.49771" lon="-2.70866">
        <ele>70</ele>
        <time>2013-11-22T10:24:23Z</time>
      </trkpt>
      <trkpt lat="48.4977" lon="-2.70865">
        <ele>70</ele>
        <time>2013-11-22T10:24:24Z</time>
      </trkpt>
      <trkpt lat="48.49768" lon="-2.70864">
        <ele>70</ele>
        <time>2013-11-22T10:24:25Z</time>
      </trkpt>
      <trkpt lat="48.49767" lon="-2.70864">
        <ele>70</ele>
        <time>2013-11-22T10:24:26Z</time>
      </trkpt>
      <trkpt lat="48.49766" lon="-2.70863">
        <ele>70</ele>
        <time>2013-11-22T10:24:27Z</time>
      </trkpt>
      <trkpt lat="48.49765" lon="-2.70863">
        <ele>70</ele>
        <time>2013-11-22T10:24:28Z</time>
      </trkpt>
      <trkpt lat="48.49763" lon="-2.70862">
        <ele>70</ele>
        <time>2013-11-22T10:24:29Z</time>
      </trkpt>
      <trkpt lat="48.49762" lon="-2.70861">
        <ele>70</ele>
        <time>2013-11-22T10:24:30Z</time>
      </trkpt>
      <trkpt lat="48.4976" lon="-2.70861">
        <ele>70</ele>
        <time>2013-11-22T10:24:31Z</time>
      </trkpt>
      <trkpt lat="48.49759" lon="-2.7086">
        <ele>70</ele>
        <time>2013-11-22T10:24:32Z</time>
      </trkpt>
      <trkpt lat="48.49757" lon="-2.7086">
        <ele>70</ele>
        <time>2013-11-22T10:24:33Z</time>
      </trkpt>
      <trkpt lat="48.49756" lon="-2.7086">
        <ele>70</ele>
        <time>2013-11-22T10:24:34Z</time>
      </trkpt>
      <trkpt lat="48.49754" lon="-2.7086">
        <ele>70</ele>
        <time>2013-11-22T10:24:35Z</time>
      </trkpt>
      <trkpt lat="48.49753" lon="-2.7086">
        <ele>70</ele>
        <time>2013-11-22T10:24:36Z</time>
      </trkpt>
      <trkpt lat="48.49752" lon="-2.70859">
        <ele>70</ele>
        <time>2013-11-22T10:24:37Z</time>
      </trkpt>
      <trkpt lat="48.4975" lon="-2.70859">
        <ele>70</ele>
        <time>2013-11-22T10:24:38Z</time>
      </trkpt>
      <trkpt lat="48.49749" lon="-2.70858">
        <ele>70</ele>
        <time>2013-11-22T10:24:39Z</time>
      </trkpt>
      <trkpt lat="48.49747" lon="-2.70858">
        <ele>70</ele>
        <time>2013-11-22T10:24:40Z</time>
      </trkpt>
      <trkpt lat="48.49746" lon="-2.70857">
        <ele>70</ele>
        <time>2013-11-22T10:24:41Z</time>
      </trkpt>
      <trkpt lat="48.49745" lon="-2.70857">
        <ele>70</ele>
        <time>2013-11-22T10:24:42Z</time>
      </trkpt>
      <trkpt lat="48.49743" lon="-2.70856">
        <ele>70</ele>
        <time>2013-11-22T10:24:43Z</time>
      </trkpt>
      <trkpt lat="48.49742" lon="-2.70855">
        <ele>70</ele>
        <time>2013-11-22T10:24:44Z</time>
      </trkpt>
      <trkpt lat="48.49741" lon="-2.70855">
        <ele>70</ele>
        <time>2013-11-22T10:24:45Z</time>
      </trkpt>
      <trkpt lat="48.49739" lon="-2.70854">
        <ele>70</ele>
        <time>2013-11-22T10:24:46Z</time>
      </trkpt>
      <trkpt lat="48.49738" lon="-2.70854">
        <ele>70</ele>
        <time>2013-11-22T10:24:47Z</time>
      </trkpt>
      <trkpt lat="48.49736" lon="-2.70853">
        <ele>70</ele>
        <time>2013-11-22T10:24:48Z</time>
      </trkpt>
      <trkpt lat="48.49735" lon="-2.70853">
        <ele>70</ele>
        <time>2013-11-22T10:24:49Z</time>
      </trkpt>
      <trkpt lat="48.49733" lon="-2.70853">
        <ele>70</ele>
        <time>2013-11-22T10:24:50Z</time>
      </trkpt>
      <trkpt lat="48.49732" lon="-2.70852">
        <ele>70</ele>
        <time>2013-11-22T10:24:51Z</time>
      </trkpt>
      <trkpt lat="48.49731" lon="-2.70851">
        <ele>70</ele>
        <time>2013-11-22T10:24:52Z</time>
      </trkpt>
      <trkpt lat="48.49729" lon="-2.7085">
        <ele>70</ele>
        <time>2013-11-22T10:24:53Z</time>
      </trkpt>
      <trkpt lat="48.49728" lon="-2.70849">
        <ele>70</ele>
        <time>2013-11-22T10:24:54Z</time>
      </trkpt>
      <trkpt lat="48.49726" lon="-2.70848">
        <ele>70</ele>
        <time>2013-11-22T10:24:55Z</time>
      </trkpt>
      <trkpt lat="48.49725" lon="-2.70847">
        <ele>70</ele>
        <time>2013-11-22T10:24:56Z</time>
      </trkpt>
      <trkpt lat="48.49723" lon="-2.70847">
        <ele>70</ele>
        <time>2013-11-22T10:24:57Z</time>
      </trkpt>
      <trkpt lat="48.49722" lon="-2.70845">
        <ele>70</ele>
        <time>2013-11-22T10:24:58Z</time>
      </trkpt>
      <trkpt lat="48.49721" lon="-2.70844">
        <ele>70</ele>
        <time>2013-11-22T10:24:59Z</time>
      </trkpt>
      <trkpt lat="48.4972" lon="-2.70843">
        <ele>70</ele>
        <time>2013-11-22T10:25:00Z</time>
      </trkpt>
      <trkpt lat="48.49717" lon="-2.70841">
        <ele>70</ele>
        <time>2013-11-22T10:25:02Z</time>
      </trkpt>
      <trkpt lat="48.49716" lon="-2.7084">
        <ele>70</ele>
        <time>2013-11-22T10:25:03Z</time>
      </trkpt>
      <trkpt lat="48.49715" lon="-2.70839">
        <ele>70</ele>
        <time>2013-11-22T10:25:04Z</time>
      </trkpt>
      <trkpt lat="48.49714" lon="-2.70838">
        <ele>70</ele>
        <time>2013-11-22T10:25:05Z</time>
      </trkpt>
      <trkpt lat="48.49712" lon="-2.70836">
        <ele>70</ele>
        <time>2013-11-22T10:25:06Z</time>
      </trkpt>
      <trkpt lat="48.49711" lon="-2.70836">
        <ele>70</ele>
        <time>2013-11-22T10:25:07Z</time>
      </trkpt>
      <trkpt lat="48.4971" lon="-2.70835">
        <ele>70</ele>
        <time>2013-11-22T10:25:10Z</time>
      </trkpt>
      <trkpt lat="48.49709" lon="-2.70834">
        <ele>70</ele>
        <time>2013-11-22T10:25:11Z</time>
      </trkpt>
      <trkpt lat="48.49707" lon="-2.70833">
        <ele>70</ele>
        <time>2013-11-22T10:25:13Z</time>
      </trkpt>
      <trkpt lat="48.49709" lon="-2.70834">
        <ele>70</ele>
        <time>2013-11-22T10:25:16Z</time>
      </trkpt>
      <trkpt lat="48.4971" lon="-2.70835">
        <ele>70</ele>
        <time>2013-11-22T10:25:17Z</time>
      </trkpt>
      <trkpt lat="48.49712" lon="-2.70835">
        <ele>70</ele>
        <time>2013-11-22T10:25:19Z</time>
      </trkpt>
      <trkpt lat="48.49713" lon="-2.70837">
        <ele>70</ele>
        <time>2013-11-22T10:25:24Z</time>
      </trkpt>
      <trkpt lat="48.49712" lon="-2.70836">
        <ele>71</ele>
        <time>2013-11-22T10:25:37Z</time>
      </trkpt>
      <trkpt lat="48.4971" lon="-2.70835">
        <ele>71</ele>
        <time>2013-11-22T10:25:40Z</time>
      </trkpt>
      <trkpt lat="48.49709" lon="-2.70834">
        <ele>71</ele>
        <time>2013-11-22T10:25:41Z</time>
      </trkpt>
      <trkpt lat="48.49707" lon="-2.70835">
        <ele>72</ele>
        <time>2013-11-22T10:25:42Z</time>
      </trkpt>
      <trkpt lat="48.49706" lon="-2.70835">
        <ele>72</ele>
        <time>2013-11-22T10:25:43Z</time>
      </trkpt>
      <trkpt lat="48.49704" lon="-2.70836">
        <ele>75</ele>
        <time>2013-11-22T10:25:46Z</time>
      </trkpt>
      <trkpt lat="48.49703" lon="-2.70836">
        <ele>77</ele>
        <time>2013-11-22T10:25:49Z</time>
      </trkpt>
      <trkpt lat="48.49702" lon="-2.70835">
        <ele>78</ele>
        <time>2013-11-22T10:25:51Z</time>
      </trkpt>
      <trkpt lat="48.49701" lon="-2.70834">
        <ele>78</ele>
        <time>2013-11-22T10:25:54Z</time>
      </trkpt>
      <trkpt lat="48.49699" lon="-2.70833">
        <ele>78</ele>
        <time>2013-11-22T10:25:56Z</time>
      </trkpt>
      <trkpt lat="48.49698" lon="-2.70832">
        <ele>78</ele>
        <time>2013-11-22T10:25:58Z</time>
      </trkpt>
      <trkpt lat="48.49697" lon="-2.70831">
        <ele>78</ele>
        <time>2013-11-22T10:26:00Z</time>
      </trkpt>
      <trkpt lat="48.49696" lon="-2.70829">
        <ele>78</ele>
        <time>2013-11-22T10:26:03Z</time>
      </trkpt>
      <trkpt lat="48.49694" lon="-2.70828">
        <ele>78</ele>
        <time>2013-11-22T10:26:09Z</time>
      </trkpt>
      <trkpt lat="48.49693" lon="-2.70826">
        <ele>78</ele>
        <time>2013-11-22T10:26:11Z</time>
      </trkpt>
      <trkpt lat="48.49691" lon="-2.70824">
        <ele>78</ele>
        <time>2013-11-22T10:26:13Z</time>
      </trkpt>
      <trkpt lat="48.4969" lon="-2.70822">
        <ele>78</ele>
        <time>2013-11-22T10:26:15Z</time>
      </trkpt>
      <trkpt lat="48.49688" lon="-2.7082">
        <ele>78</ele>
        <time>2013-11-22T10:26:17Z</time>
      </trkpt>
      <trkpt lat="48.49686" lon="-2.70818">
        <ele>78</ele>
        <time>2013-11-22T10:26:19Z</time>
      </trkpt>
      <trkpt lat="48.49684" lon="-2.70817">
        <ele>78</ele>
        <time>2013-11-22T10:26:21Z</time>
      </trkpt>
      <trkpt lat="48.49682" lon="-2.70815">
        <ele>78</ele>
        <time>2013-11-22T10:26:23Z</time>
      </trkpt>
      <trkpt lat="48.49681" lon="-2.70814">
        <ele>78</ele>
        <time>2013-11-22T10:26:25Z</time>
      </trkpt>
      <trkpt lat="48.4968" lon="-2.70813">
        <ele>78</ele>
        <time>2013-11-22T10:26:27Z</time>
      </trkpt>
      <trkpt lat="48.49678" lon="-2.70811">
        <ele>78</ele>
        <time>2013-11-22T10:26:29Z</time>
      </trkpt>
      <trkpt lat="48.49677" lon="-2.7081">
        <ele>78</ele>
        <time>2013-11-22T10:26:31Z</time>
      </trkpt>
      <trkpt lat="48.49675" lon="-2.70808">
        <ele>78</ele>
        <time>2013-11-22T10:26:33Z</time>
      </trkpt>
      <trkpt lat="48.49674" lon="-2.70807">
        <ele>78</ele>
        <time>2013-11-22T10:26:35Z</time>
      </trkpt>
      <trkpt lat="48.49673" lon="-2.70805">
        <ele>78</ele>
        <time>2013-11-22T10:26:37Z</time>
      </trkpt>
      <trkpt lat="48.49672" lon="-2.70803">
        <ele>78</ele>
        <time>2013-11-22T10:26:39Z</time>
      </trkpt>
      <trkpt lat="48.49671" lon="-2.70801">
        <ele>78</ele>
        <time>2013-11-22T10:26:41Z</time>
      </trkpt>
      <trkpt lat="48.49669" lon="-2.708">
        <ele>78</ele>
        <time>2013-11-22T10:26:43Z</time>
      </trkpt>
      <trkpt lat="48.49668" lon="-2.70798">
        <ele>77</ele>
        <time>2013-11-22T10:26:45Z</time>
      </trkpt>
      <trkpt lat="48.49666" lon="-2.70797">
        <ele>77</ele>
        <time>2013-11-22T10:26:47Z</time>
      </trkpt>
      <trkpt lat="48.49665" lon="-2.70796">
        <ele>77</ele>
        <time>2013-11-22T10:26:49Z</time>
      </trkpt>
      <trkpt lat="48.49664" lon="-2.70795">
        <ele>77</ele>
        <time>2013-11-22T10:26:51Z</time>
      </trkpt>
      <trkpt lat="48.49663" lon="-2.70793">
        <ele>77</ele>
        <time>2013-11-22T10:26:53Z</time>
      </trkpt>
      <trkpt lat="48.49662" lon="-2.7079">
        <ele>77</ele>
        <time>2013-11-22T10:26:56Z</time>
      </trkpt>
      <trkpt lat="48.49661" lon="-2.70788">
        <ele>77</ele>
        <time>2013-11-22T10:26:58Z</time>
      </trkpt>
      <trkpt lat="48.4966" lon="-2.70786">
        <ele>77</ele>
        <time>2013-11-22T10:27:00Z</time>
      </trkpt>
      <trkpt lat="48.49659" lon="-2.70783">
        <ele>77</ele>
        <time>2013-11-22T10:27:02Z</time>
      </trkpt>
      <trkpt lat="48.49658" lon="-2.70781">
        <ele>77</ele>
        <time>2013-11-22T10:27:04Z</time>
      </trkpt>
      <trkpt lat="48.49657" lon="-2.7078">
        <ele>76</ele>
        <time>2013-11-22T10:27:06Z</time>
      </trkpt>
      <trkpt lat="48.49655" lon="-2.70778">
        <ele>76</ele>
        <time>2013-11-22T10:27:08Z</time>
      </trkpt>
      <trkpt lat="48.49654" lon="-2.70776">
        <ele>76</ele>
        <time>2013-11-22T10:27:10Z</time>
      </trkpt>
      <trkpt lat="48.49652" lon="-2.70774">
        <ele>76</ele>
        <time>2013-11-22T10:27:12Z</time>
      </trkpt>
      <trkpt lat="48.49651" lon="-2.70772">
        <ele>76</ele>
        <time>2013-11-22T10:27:14Z</time>
      </trkpt>
      <trkpt lat="48.49649" lon="-2.7077">
        <ele>76</ele>
        <time>2013-11-22T10:27:16Z</time>
      </trkpt>
      <trkpt lat="48.49648" lon="-2.70769">
        <ele>76</ele>
        <time>2013-11-22T10:27:18Z</time>
      </trkpt>
      <trkpt lat="48.49647" lon="-2.70768">
        <ele>75</ele>
        <time>2013-11-22T10:27:20Z</time>
      </trkpt>
      <trkpt lat="48.49646" lon="-2.70767">
        <ele>75</ele>
        <time>2013-11-22T10:27:22Z</time>
      </trkpt>
      <trkpt lat="48.49644" lon="-2.70765">
        <ele>75</ele>
        <time>2013-11-22T10:27:24Z</time>
      </trkpt>
      <trkpt lat="48.49642" lon="-2.70763">
        <ele>75</ele>
        <time>2013-11-22T10:27:26Z</time>
      </trkpt>
      <trkpt lat="48.49641" lon="-2.70761">
        <ele>75</ele>
        <time>2013-11-22T10:27:28Z</time>
      </trkpt>
      <trkpt lat="48.49639" lon="-2.70759">
        <ele>74</ele>
        <time>2013-11-22T10:27:30Z</time>
      </trkpt>
      <trkpt lat="48.49637" lon="-2.70758">
        <ele>74</ele>
        <time>2013-11-22T10:27:32Z</time>
      </trkpt>
      <trkpt lat="48.49637" lon="-2.70755">
        <ele>74</ele>
        <time>2013-11-22T10:27:34Z</time>
      </trkpt>
      <trkpt lat="48.49635" lon="-2.70754">
        <ele>74</ele>
        <time>2013-11-22T10:27:36Z</time>
      </trkpt>
      <trkpt lat="48.49634" lon="-2.70752">
        <ele>74</ele>
        <time>2013-11-22T10:27:38Z</time>
      </trkpt>
      <trkpt lat="48.49633" lon="-2.7075">
        <ele>74</ele>
        <time>2013-11-22T10:27:40Z</time>
      </trkpt>
      <trkpt lat="48.49632" lon="-2.70748">
        <ele>74</ele>
        <time>2013-11-22T10:27:42Z</time>
      </trkpt>
      <trkpt lat="48.49631" lon="-2.70746">
        <ele>74</ele>
        <time>2013-11-22T10:27:44Z</time>
      </trkpt>
      <trkpt lat="48.4963" lon="-2.70744">
        <ele>73</ele>
        <time>2013-11-22T10:27:46Z</time>
      </trkpt>
      <trkpt lat="48.49629" lon="-2.70743">
        <ele>73</ele>
        <time>2013-11-22T10:27:48Z</time>
      </trkpt>
      <trkpt lat="48.49628" lon="-2.70741">
        <ele>73</ele>
        <time>2013-11-22T10:27:50Z</time>
      </trkpt>
      <trkpt lat="48.49627" lon="-2.70739">
        <ele>73</ele>
        <time>2013-11-22T10:27:52Z</time>
      </trkpt>
      <trkpt lat="48.49625" lon="-2.70739">
        <ele>73</ele>
        <time>2013-11-22T10:27:54Z</time>
      </trkpt>
      <trkpt lat="48.49623" lon="-2.70737">
        <ele>73</ele>
        <time>2013-11-22T10:27:56Z</time>
      </trkpt>
      <trkpt lat="48.49622" lon="-2.70735">
        <ele>73</ele>
        <time>2013-11-22T10:27:58Z</time>
      </trkpt>
      <trkpt lat="48.4962" lon="-2.70734">
        <ele>73</ele>
        <time>2013-11-22T10:28:00Z</time>
      </trkpt>
      <trkpt lat="48.49619" lon="-2.70732">
        <ele>73</ele>
        <time>2013-11-22T10:28:02Z</time>
      </trkpt>
      <trkpt lat="48.49617" lon="-2.70731">
        <ele>73</ele>
        <time>2013-11-22T10:28:04Z</time>
      </trkpt>
      <trkpt lat="48.49616" lon="-2.70729">
        <ele>73</ele>
        <time>2013-11-22T10:28:06Z</time>
      </trkpt>
      <trkpt lat="48.49615" lon="-2.70727">
        <ele>73</ele>
        <time>2013-11-22T10:28:08Z</time>
      </trkpt>
      <trkpt lat="48.49613" lon="-2.70726">
        <ele>73</ele>
        <time>2013-11-22T10:28:10Z</time>
      </trkpt>
      <trkpt lat="48.49612" lon="-2.70724">
        <ele>73</ele>
        <time>2013-11-22T10:28:12Z</time>
      </trkpt>
      <trkpt lat="48.4961" lon="-2.70722">
        <ele>73</ele>
        <time>2013-11-22T10:28:14Z</time>
      </trkpt>
      <trkpt lat="48.49608" lon="-2.70721">
        <ele>73</ele>
        <time>2013-11-22T10:28:16Z</time>
      </trkpt>
      <trkpt lat="48.49606" lon="-2.70719">
        <ele>73</ele>
        <time>2013-11-22T10:28:18Z</time>
      </trkpt>
      <trkpt lat="48.49605" lon="-2.70717">
        <ele>73</ele>
        <time>2013-11-22T10:28:20Z</time>
      </trkpt>
      <trkpt lat="48.49603" lon="-2.70716">
        <ele>73</ele>
        <time>2013-11-22T10:28:22Z</time>
      </trkpt>
      <trkpt lat="48.49601" lon="-2.70714">
        <ele>73</ele>
        <time>2013-11-22T10:28:24Z</time>
      </trkpt>
      <trkpt lat="48.496" lon="-2.70712">
        <ele>72</ele>
        <time>2013-11-22T10:28:26Z</time>
      </trkpt>
      <trkpt lat="48.49599" lon="-2.7071">
        <ele>72</ele>
        <time>2013-11-22T10:28:28Z</time>
      </trkpt>
      <trkpt lat="48.49597" lon="-2.7071">
        <ele>72</ele>
        <time>2013-11-22T10:28:30Z</time>
      </trkpt>
      <trkpt lat="48.49593" lon="-2.70709">
        <ele>72</ele>
        <time>2013-11-22T10:28:34Z</time>
      </trkpt>
      <trkpt lat="48.49591" lon="-2.70708">
        <ele>71</ele>
        <time>2013-11-22T10:28:36Z</time>
      </trkpt>
      <trkpt lat="48.4959" lon="-2.70706">
        <ele>71</ele>
        <time>2013-11-22T10:28:38Z</time>
      </trkpt>
      <trkpt lat="48.49588" lon="-2.70704">
        <ele>71</ele>
        <time>2013-11-22T10:28:40Z</time>
      </trkpt>
      <trkpt lat="48.49587" lon="-2.70701">
        <ele>71</ele>
        <time>2013-11-22T10:28:42Z</time>
      </trkpt>
      <trkpt lat="48.49586" lon="-2.70698">
        <ele>71</ele>
        <time>2013-11-22T10:28:44Z</time>
      </trkpt>
      <trkpt lat="48.49585" lon="-2.70695">
        <ele>70</ele>
        <time>2013-11-22T10:28:46Z</time>
      </trkpt>
      <trkpt lat="48.49584" lon="-2.70692">
        <ele>70</ele>
        <time>2013-11-22T10:28:48Z</time>
      </trkpt>
      <trkpt lat="48.49582" lon="-2.7069">
        <ele>69</ele>
        <time>2013-11-22T10:28:50Z</time>
      </trkpt>
      <trkpt lat="48.49581" lon="-2.70687">
        <ele>69</ele>
        <time>2013-11-22T10:28:52Z</time>
      </trkpt>
      <trkpt lat="48.4958" lon="-2.70686">
        <ele>69</ele>
        <time>2013-11-22T10:28:55Z</time>
      </trkpt>
      <trkpt lat="48.49578" lon="-2.70684">
        <ele>69</ele>
        <time>2013-11-22T10:28:58Z</time>
      </trkpt>
      <trkpt lat="48.49577" lon="-2.70682">
        <ele>69</ele>
        <time>2013-11-22T10:29:00Z</time>
      </trkpt>
      <trkpt lat="48.49575" lon="-2.7068">
        <ele>69</ele>
        <time>2013-11-22T10:29:02Z</time>
      </trkpt>
      <trkpt lat="48.49572" lon="-2.70678">
        <ele>69</ele>
        <time>2013-11-22T10:29:04Z</time>
      </trkpt>
      <trkpt lat="48.4957" lon="-2.70675">
        <ele>69</ele>
        <time>2013-11-22T10:29:06Z</time>
      </trkpt>
      <trkpt lat="48.49568" lon="-2.70672">
        <ele>69</ele>
        <time>2013-11-22T10:29:08Z</time>
      </trkpt>
      <trkpt lat="48.49567" lon="-2.70671">
        <ele>69</ele>
        <time>2013-11-22T10:29:09Z</time>
      </trkpt>
      <trkpt lat="48.49566" lon="-2.7067">
        <ele>69</ele>
        <time>2013-11-22T10:29:10Z</time>
      </trkpt>
      <trkpt lat="48.49564" lon="-2.70668">
        <ele>69</ele>
        <time>2013-11-22T10:29:12Z</time>
      </trkpt>
      <trkpt lat="48.49562" lon="-2.70665">
        <ele>69</ele>
        <time>2013-11-22T10:29:14Z</time>
      </trkpt>
      <trkpt lat="48.49561" lon="-2.70664">
        <ele>69</ele>
        <time>2013-11-22T10:29:15Z</time>
      </trkpt>
      <trkpt lat="48.4956" lon="-2.70663">
        <ele>69</ele>
        <time>2013-11-22T10:29:16Z</time>
      </trkpt>
      <trkpt lat="48.49558" lon="-2.7066">
        <ele>69</ele>
        <time>2013-11-22T10:29:18Z</time>
      </trkpt>
      <trkpt lat="48.49556" lon="-2.70658">
        <ele>69</ele>
        <time>2013-11-22T10:29:20Z</time>
      </trkpt>
      <trkpt lat="48.49554" lon="-2.70655">
        <ele>69</ele>
        <time>2013-11-22T10:29:22Z</time>
      </trkpt>
      <trkpt lat="48.49552" lon="-2.70653">
        <ele>69</ele>
        <time>2013-11-22T10:29:24Z</time>
      </trkpt>
      <trkpt lat="48.4955" lon="-2.70651">
        <ele>69</ele>
        <time>2013-11-22T10:29:26Z</time>
      </trkpt>
      <trkpt lat="48.49548" lon="-2.70648">
        <ele>69</ele>
        <time>2013-11-22T10:29:28Z</time>
      </trkpt>
      <trkpt lat="48.49546" lon="-2.70646">
        <ele>69</ele>
        <time>2013-11-22T10:29:30Z</time>
      </trkpt>
      <trkpt lat="48.49544" lon="-2.70644">
        <ele>69</ele>
        <time>2013-11-22T10:29:32Z</time>
      </trkpt>
      <trkpt lat="48.49543" lon="-2.70643">
        <ele>69</ele>
        <time>2013-11-22T10:29:33Z</time>
      </trkpt>
      <trkpt lat="48.4954" lon="-2.7064">
        <ele>69</ele>
        <time>2013-11-22T10:29:35Z</time>
      </trkpt>
      <trkpt lat="48.49538" lon="-2.70638">
        <ele>69</ele>
        <time>2013-11-22T10:29:37Z</time>
      </trkpt>
      <trkpt lat="48.49537" lon="-2.70637">
        <ele>69</ele>
        <time>2013-11-22T10:29:38Z</time>
      </trkpt>
      <trkpt lat="48.49536" lon="-2.70637">
        <ele>69</ele>
        <time>2013-11-22T10:29:39Z</time>
      </trkpt>
      <trkpt lat="48.49535" lon="-2.70636">
        <ele>69</ele>
        <time>2013-11-22T10:29:40Z</time>
      </trkpt>
      <trkpt lat="48.49533" lon="-2.70635">
        <ele>69</ele>
        <time>2013-11-22T10:29:41Z</time>
      </trkpt>
      <trkpt lat="48.49532" lon="-2.70635">
        <ele>69</ele>
        <time>2013-11-22T10:29:42Z</time>
      </trkpt>
      <trkpt lat="48.49531" lon="-2.70634">
        <ele>69</ele>
        <time>2013-11-22T10:29:43Z</time>
      </trkpt>
      <trkpt lat="48.4953" lon="-2.70633">
        <ele>69</ele>
        <time>2013-11-22T10:29:44Z</time>
      </trkpt>
      <trkpt lat="48.49529" lon="-2.70633">
        <ele>69</ele>
        <time>2013-11-22T10:29:45Z</time>
      </trkpt>
      <trkpt lat="48.49527" lon="-2.70632">
        <ele>69</ele>
        <time>2013-11-22T10:29:46Z</time>
      </trkpt>
      <trkpt lat="48.49526" lon="-2.70632">
        <ele>68</ele>
        <time>2013-11-22T10:29:47Z</time>
      </trkpt>
      <trkpt lat="48.49525" lon="-2.70631">
        <ele>68</ele>
        <time>2013-11-22T10:29:48Z</time>
      </trkpt>
      <trkpt lat="48.49524" lon="-2.70631">
        <ele>68</ele>
        <time>2013-11-22T10:29:49Z</time>
      </trkpt>
      <trkpt lat="48.49522" lon="-2.7063">
        <ele>68</ele>
        <time>2013-11-22T10:29:51Z</time>
      </trkpt>
      <trkpt lat="48.4952" lon="-2.7063">
        <ele>68</ele>
        <time>2013-11-22T10:29:52Z</time>
      </trkpt>
      <trkpt lat="48.49519" lon="-2.70629">
        <ele>68</ele>
        <time>2013-11-22T10:29:53Z</time>
      </trkpt>
      <trkpt lat="48.49518" lon="-2.70629">
        <ele>68</ele>
        <time>2013-11-22T10:29:54Z</time>
      </trkpt>
      <trkpt lat="48.49511" lon="-2.70629">
        <ele>68</ele>
        <time>2013-11-22T10:30:00Z</time>
      </trkpt>
      <trkpt lat="48.49509" lon="-2.70629">
        <ele>68</ele>
        <time>2013-11-22T10:30:02Z</time>
      </trkpt>
      <trkpt lat="48.49508" lon="-2.7063">
        <ele>68</ele>
        <time>2013-11-22T10:30:03Z</time>
      </trkpt>
      <trkpt lat="48.49506" lon="-2.7063">
        <ele>68</ele>
        <time>2013-11-22T10:30:04Z</time>
      </trkpt>
      <trkpt lat="48.49505" lon="-2.7063">
        <ele>68</ele>
        <time>2013-11-22T10:30:05Z</time>
      </trkpt>
      <trkpt lat="48.49504" lon="-2.70631">
        <ele>68</ele>
        <time>2013-11-22T10:30:06Z</time>
      </trkpt>
      <trkpt lat="48.49503" lon="-2.70631">
        <ele>68</ele>
        <time>2013-11-22T10:30:07Z</time>
      </trkpt>
      <trkpt lat="48.49501" lon="-2.70632">
        <ele>68</ele>
        <time>2013-11-22T10:30:08Z</time>
      </trkpt>
      <trkpt lat="48.49499" lon="-2.70633">
        <ele>68</ele>
        <time>2013-11-22T10:30:10Z</time>
      </trkpt>
      <trkpt lat="48.49497" lon="-2.70634">
        <ele>68</ele>
        <time>2013-11-22T10:30:12Z</time>
      </trkpt>
      <trkpt lat="48.49495" lon="-2.70634">
        <ele>68</ele>
        <time>2013-11-22T10:30:14Z</time>
      </trkpt>
      <trkpt lat="48.49494" lon="-2.70634">
        <ele>68</ele>
        <time>2013-11-22T10:30:16Z</time>
      </trkpt>
      <trkpt lat="48.49494" lon="-2.70636">
        <ele>68</ele>
        <time>2013-11-22T10:30:35Z</time>
      </trkpt>
      <trkpt lat="48.49493" lon="-2.70638">
        <ele>68</ele>
        <time>2013-11-22T10:30:53Z</time>
      </trkpt>
      <trkpt lat="48.49492" lon="-2.70638">
        <ele>68</ele>
        <time>2013-11-22T10:30:55Z</time>
      </trkpt>
      <trkpt lat="48.49491" lon="-2.70637">
        <ele>68</ele>
        <time>2013-11-22T10:30:57Z</time>
      </trkpt>
      <trkpt lat="48.49489" lon="-2.70638">
        <ele>68</ele>
        <time>2013-11-22T10:30:59Z</time>
      </trkpt>
      <trkpt lat="48.49488" lon="-2.70639">
        <ele>68</ele>
        <time>2013-11-22T10:31:10Z</time>
      </trkpt>
      <trkpt lat="48.49486" lon="-2.70639">
        <ele>68</ele>
        <time>2013-11-22T10:31:12Z</time>
      </trkpt>
      <trkpt lat="48.49484" lon="-2.70641">
        <ele>68</ele>
        <time>2013-11-22T10:31:14Z</time>
      </trkpt>
      <trkpt lat="48.49482" lon="-2.70643">
        <ele>68</ele>
        <time>2013-11-22T10:31:16Z</time>
      </trkpt>
      <trkpt lat="48.4948" lon="-2.70644">
        <ele>68</ele>
        <time>2013-11-22T10:31:17Z</time>
      </trkpt>
      <trkpt lat="48.49479" lon="-2.70645">
        <ele>68</ele>
        <time>2013-11-22T10:31:18Z</time>
      </trkpt>
      <trkpt lat="48.49477" lon="-2.70647">
        <ele>68</ele>
        <time>2013-11-22T10:31:20Z</time>
      </trkpt>
      <trkpt lat="48.49475" lon="-2.70649">
        <ele>68</ele>
        <time>2013-11-22T10:31:22Z</time>
      </trkpt>
      <trkpt lat="48.49473" lon="-2.70651">
        <ele>68</ele>
        <time>2013-11-22T10:31:24Z</time>
      </trkpt>
      <trkpt lat="48.49471" lon="-2.70654">
        <ele>68</ele>
        <time>2013-11-22T10:31:26Z</time>
      </trkpt>
      <trkpt lat="48.49469" lon="-2.70655">
        <ele>68</ele>
        <time>2013-11-22T10:31:28Z</time>
      </trkpt>
      <trkpt lat="48.49468" lon="-2.70656">
        <ele>68</ele>
        <time>2013-11-22T10:31:31Z</time>
      </trkpt>
      <trkpt lat="48.49467" lon="-2.70658">
        <ele>68</ele>
        <time>2013-11-22T10:31:33Z</time>
      </trkpt>
      <trkpt lat="48.49466" lon="-2.70659">
        <ele>68</ele>
        <time>2013-11-22T10:31:34Z</time>
      </trkpt>
      <trkpt lat="48.49464" lon="-2.7066">
        <ele>68</ele>
        <time>2013-11-22T10:31:35Z</time>
      </trkpt>
      <trkpt lat="48.49462" lon="-2.70661">
        <ele>68</ele>
        <time>2013-11-22T10:31:37Z</time>
      </trkpt>
      <trkpt lat="48.4946" lon="-2.70663">
        <ele>68</ele>
        <time>2013-11-22T10:31:39Z</time>
      </trkpt>
      <trkpt lat="48.49459" lon="-2.70664">
        <ele>68</ele>
        <time>2013-11-22T10:31:40Z</time>
      </trkpt>
      <trkpt lat="48.49458" lon="-2.70665">
        <ele>68</ele>
        <time>2013-11-22T10:31:41Z</time>
      </trkpt>
      <trkpt lat="48.49457" lon="-2.70666">
        <ele>68</ele>
        <time>2013-11-22T10:31:42Z</time>
      </trkpt>
      <trkpt lat="48.49454" lon="-2.70668">
        <ele>68</ele>
        <time>2013-11-22T10:31:44Z</time>
      </trkpt>
      <trkpt lat="48.49453" lon="-2.70669">
        <ele>68</ele>
        <time>2013-11-22T10:31:45Z</time>
      </trkpt>
      <trkpt lat="48.49452" lon="-2.7067">
        <ele>68</ele>
        <time>2013-11-22T10:31:46Z</time>
      </trkpt>
      <trkpt lat="48.49451" lon="-2.70671">
        <ele>68</ele>
        <time>2013-11-22T10:31:47Z</time>
      </trkpt>
      <trkpt lat="48.4945" lon="-2.70672">
        <ele>68</ele>
        <time>2013-11-22T10:31:48Z</time>
      </trkpt>
      <trkpt lat="48.49448" lon="-2.70674">
        <ele>68</ele>
        <time>2013-11-22T10:31:50Z</time>
      </trkpt>
      <trkpt lat="48.49446" lon="-2.70675">
        <ele>68</ele>
        <time>2013-11-22T10:31:51Z</time>
      </trkpt>
      <trkpt lat="48.49445" lon="-2.70675">
        <ele>68</ele>
        <time>2013-11-22T10:31:52Z</time>
      </trkpt>
      <trkpt lat="48.49444" lon="-2.70676">
        <ele>68</ele>
        <time>2013-11-22T10:31:53Z</time>
      </trkpt>
      <trkpt lat="48.49443" lon="-2.70677">
        <ele>68</ele>
        <time>2013-11-22T10:31:54Z</time>
      </trkpt>
      <trkpt lat="48.49442" lon="-2.70678">
        <ele>68</ele>
        <time>2013-11-22T10:31:55Z</time>
      </trkpt>
      <trkpt lat="48.4944" lon="-2.70679">
        <ele>68</ele>
        <time>2013-11-22T10:31:56Z</time>
      </trkpt>
      <trkpt lat="48.49439" lon="-2.7068">
        <ele>68</ele>
        <time>2013-11-22T10:31:57Z</time>
      </trkpt>
      <trkpt lat="48.49438" lon="-2.70681">
        <ele>68</ele>
        <time>2013-11-22T10:31:58Z</time>
      </trkpt>
      <trkpt lat="48.49437" lon="-2.70683">
        <ele>68</ele>
        <time>2013-11-22T10:31:59Z</time>
      </trkpt>
      <trkpt lat="48.49436" lon="-2.70684">
        <ele>68</ele>
        <time>2013-11-22T10:32:00Z</time>
      </trkpt>
      <trkpt lat="48.49434" lon="-2.70685">
        <ele>68</ele>
        <time>2013-11-22T10:32:01Z</time>
      </trkpt>
      <trkpt lat="48.49433" lon="-2.70686">
        <ele>68</ele>
        <time>2013-11-22T10:32:02Z</time>
      </trkpt>
      <trkpt lat="48.49432" lon="-2.70686">
        <ele>68</ele>
        <time>2013-11-22T10:32:03Z</time>
      </trkpt>
      <trkpt lat="48.4943" lon="-2.70687">
        <ele>68</ele>
        <time>2013-11-22T10:32:04Z</time>
      </trkpt>
      <trkpt lat="48.49429" lon="-2.70688">
        <ele>68</ele>
        <time>2013-11-22T10:32:05Z</time>
      </trkpt>
      <trkpt lat="48.49427" lon="-2.70689">
        <ele>68</ele>
        <time>2013-11-22T10:32:07Z</time>
      </trkpt>
      <trkpt lat="48.49426" lon="-2.7069">
        <ele>68</ele>
        <time>2013-11-22T10:32:08Z</time>
      </trkpt>
      <trkpt lat="48.49424" lon="-2.70691">
        <ele>68</ele>
        <time>2013-11-22T10:32:09Z</time>
      </trkpt>
      <trkpt lat="48.49423" lon="-2.70691">
        <ele>68</ele>
        <time>2013-11-22T10:32:10Z</time>
      </trkpt>
      <trkpt lat="48.49421" lon="-2.70692">
        <ele>68</ele>
        <time>2013-11-22T10:32:11Z</time>
      </trkpt>
      <trkpt lat="48.4942" lon="-2.70693">
        <ele>68</ele>
        <time>2013-11-22T10:32:12Z</time>
      </trkpt>
      <trkpt lat="48.49419" lon="-2.70693">
        <ele>68</ele>
        <time>2013-11-22T10:32:13Z</time>
      </trkpt>
      <trkpt lat="48.49418" lon="-2.70694">
        <ele>68</ele>
        <time>2013-11-22T10:32:14Z</time>
      </trkpt>
      <trkpt lat="48.49416" lon="-2.70695">
        <ele>68</ele>
        <time>2013-11-22T10:32:15Z</time>
      </trkpt>
      <trkpt lat="48.49415" lon="-2.70696">
        <ele>68</ele>
        <time>2013-11-22T10:32:16Z</time>
      </trkpt>
      <trkpt lat="48.49414" lon="-2.70697">
        <ele>68</ele>
        <time>2013-11-22T10:32:17Z</time>
      </trkpt>
      <trkpt lat="48.49412" lon="-2.70697">
        <ele>68</ele>
        <time>2013-11-22T10:32:18Z</time>
      </trkpt>
      <trkpt lat="48.4941" lon="-2.70698">
        <ele>68</ele>
        <time>2013-11-22T10:32:19Z</time>
      </trkpt>
      <trkpt lat="48.49409" lon="-2.70698">
        <ele>68</ele>
        <time>2013-11-22T10:32:20Z</time>
      </trkpt>
      <trkpt lat="48.49408" lon="-2.70699">
        <ele>68</ele>
        <time>2013-11-22T10:32:21Z</time>
      </trkpt>
      <trkpt lat="48.49406" lon="-2.70699">
        <ele>68</ele>
        <time>2013-11-22T10:32:22Z</time>
      </trkpt>
      <trkpt lat="48.49405" lon="-2.707">
        <ele>68</ele>
        <time>2013-11-22T10:32:23Z</time>
      </trkpt>
      <trkpt lat="48.49404" lon="-2.707">
        <ele>68</ele>
        <time>2013-11-22T10:32:24Z</time>
      </trkpt>
      <trkpt lat="48.49403" lon="-2.70701">
        <ele>68</ele>
        <time>2013-11-22T10:32:25Z</time>
      </trkpt>
      <trkpt lat="48.49401" lon="-2.70701">
        <ele>68</ele>
        <time>2013-11-22T10:32:26Z</time>
      </trkpt>
      <trkpt lat="48.494" lon="-2.70701">
        <ele>68</ele>
        <time>2013-11-22T10:32:27Z</time>
      </trkpt>
      <trkpt lat="48.49399" lon="-2.70702">
        <ele>68</ele>
        <time>2013-11-22T10:32:28Z</time>
      </trkpt>
      <trkpt lat="48.49398" lon="-2.70702">
        <ele>68</ele>
        <time>2013-11-22T10:32:29Z</time>
      </trkpt>
      <trkpt lat="48.49394" lon="-2.70702">
        <ele>68</ele>
        <time>2013-11-22T10:32:32Z</time>
      </trkpt>
      <trkpt lat="48.49389" lon="-2.70701">
        <ele>68</ele>
        <time>2013-11-22T10:32:36Z</time>
      </trkpt>
      <trkpt lat="48.49386" lon="-2.70702">
        <ele>68</ele>
        <time>2013-11-22T10:32:39Z</time>
      </trkpt>
      <trkpt lat="48.49385" lon="-2.70702">
        <ele>67</ele>
        <time>2013-11-22T10:32:40Z</time>
      </trkpt>
      <trkpt lat="48.49383" lon="-2.70702">
        <ele>67</ele>
        <time>2013-11-22T10:32:41Z</time>
      </trkpt>
      <trkpt lat="48.49382" lon="-2.70702">
        <ele>67</ele>
        <time>2013-11-22T10:32:42Z</time>
      </trkpt>
      <trkpt lat="48.4938" lon="-2.70703">
        <ele>67</ele>
        <time>2013-11-22T10:32:43Z</time>
      </trkpt>
      <trkpt lat="48.49379" lon="-2.70703">
        <ele>67</ele>
        <time>2013-11-22T10:32:44Z</time>
      </trkpt>
      <trkpt lat="48.49378" lon="-2.70703">
        <ele>66</ele>
        <time>2013-11-22T10:32:45Z</time>
      </trkpt>
      <trkpt lat="48.49377" lon="-2.70703">
        <ele>66</ele>
        <time>2013-11-22T10:32:46Z</time>
      </trkpt>
      <trkpt lat="48.49375" lon="-2.70703">
        <ele>66</ele>
        <time>2013-11-22T10:32:47Z</time>
      </trkpt>
      <trkpt lat="48.49374" lon="-2.70703">
        <ele>66</ele>
        <time>2013-11-22T10:32:48Z</time>
      </trkpt>
      <trkpt lat="48.49373" lon="-2.70704">
        <ele>66</ele>
        <time>2013-11-22T10:32:49Z</time>
      </trkpt>
      <trkpt lat="48.49371" lon="-2.70704">
        <ele>66</ele>
        <time>2013-11-22T10:32:50Z</time>
      </trkpt>
      <trkpt lat="48.4937" lon="-2.70704">
        <ele>65</ele>
        <time>2013-11-22T10:32:51Z</time>
      </trkpt>
      <trkpt lat="48.49368" lon="-2.70704">
        <ele>65</ele>
        <time>2013-11-22T10:32:52Z</time>
      </trkpt>
      <trkpt lat="48.49367" lon="-2.70705">
        <ele>65</ele>
        <time>2013-11-22T10:32:53Z</time>
      </trkpt>
      <trkpt lat="48.49366" lon="-2.70705">
        <ele>65</ele>
        <time>2013-11-22T10:32:54Z</time>
      </trkpt>
      <trkpt lat="48.49364" lon="-2.70705">
        <ele>65</ele>
        <time>2013-11-22T10:32:55Z</time>
      </trkpt>
      <trkpt lat="48.49363" lon="-2.70706">
        <ele>65</ele>
        <time>2013-11-22T10:32:56Z</time>
      </trkpt>
      <trkpt lat="48.49361" lon="-2.70706">
        <ele>65</ele>
        <time>2013-11-22T10:32:57Z</time>
      </trkpt>
      <trkpt lat="48.4936" lon="-2.70706">
        <ele>65</ele>
        <time>2013-11-22T10:32:58Z</time>
      </trkpt>
      <trkpt lat="48.49358" lon="-2.70707">
        <ele>65</ele>
        <time>2013-11-22T10:32:59Z</time>
      </trkpt>
      <trkpt lat="48.49357" lon="-2.70707">
        <ele>65</ele>
        <time>2013-11-22T10:33:00Z</time>
      </trkpt>
      <trkpt lat="48.49355" lon="-2.70707">
        <ele>65</ele>
        <time>2013-11-22T10:33:01Z</time>
      </trkpt>
      <trkpt lat="48.49354" lon="-2.70707">
        <ele>65</ele>
        <time>2013-11-22T10:33:02Z</time>
      </trkpt>
      <trkpt lat="48.49353" lon="-2.70708">
        <ele>65</ele>
        <time>2013-11-22T10:33:03Z</time>
      </trkpt>
      <trkpt lat="48.49352" lon="-2.70708">
        <ele>65</ele>
        <time>2013-11-22T10:33:04Z</time>
      </trkpt>
      <trkpt lat="48.49348" lon="-2.70708">
        <ele>65</ele>
        <time>2013-11-22T10:33:06Z</time>
      </trkpt>
      <trkpt lat="48.49346" lon="-2.70708">
        <ele>65</ele>
        <time>2013-11-22T10:33:07Z</time>
      </trkpt>
      <trkpt lat="48.49345" lon="-2.70709">
        <ele>65</ele>
        <time>2013-11-22T10:33:08Z</time>
      </trkpt>
      <trkpt lat="48.49343" lon="-2.70709">
        <ele>65</ele>
        <time>2013-11-22T10:33:09Z</time>
      </trkpt>
      <trkpt lat="48.49342" lon="-2.70709">
        <ele>65</ele>
        <time>2013-11-22T10:33:10Z</time>
      </trkpt>
      <trkpt lat="48.4934" lon="-2.70709">
        <ele>65</ele>
        <time>2013-11-22T10:33:11Z</time>
      </trkpt>
      <trkpt lat="48.49335" lon="-2.70709">
        <ele>65</ele>
        <time>2013-11-22T10:33:14Z</time>
      </trkpt>
      <trkpt lat="48.49332" lon="-2.70709">
        <ele>65</ele>
        <time>2013-11-22T10:33:16Z</time>
      </trkpt>
      <trkpt lat="48.49329" lon="-2.70709">
        <ele>65</ele>
        <time>2013-11-22T10:33:18Z</time>
      </trkpt>
      <trkpt lat="48.49327" lon="-2.70709">
        <ele>65</ele>
        <time>2013-11-22T10:33:19Z</time>
      </trkpt>
      <trkpt lat="48.49326" lon="-2.70709">
        <ele>65</ele>
        <time>2013-11-22T10:33:20Z</time>
      </trkpt>
      <trkpt lat="48.49324" lon="-2.70708">
        <ele>65</ele>
        <time>2013-11-22T10:33:21Z</time>
      </trkpt>
      <trkpt lat="48.49323" lon="-2.70708">
        <ele>65</ele>
        <time>2013-11-22T10:33:22Z</time>
      </trkpt>
      <trkpt lat="48.49321" lon="-2.70708">
        <ele>65</ele>
        <time>2013-11-22T10:33:23Z</time>
      </trkpt>
      <trkpt lat="48.49319" lon="-2.70707">
        <ele>65</ele>
        <time>2013-11-22T10:33:24Z</time>
      </trkpt>
      <trkpt lat="48.49318" lon="-2.70707">
        <ele>65</ele>
        <time>2013-11-22T10:33:25Z</time>
      </trkpt>
      <trkpt lat="48.49317" lon="-2.70706">
        <ele>65</ele>
        <time>2013-11-22T10:33:26Z</time>
      </trkpt>
      <trkpt lat="48.49315" lon="-2.70705">
        <ele>65</ele>
        <time>2013-11-22T10:33:27Z</time>
      </trkpt>
      <trkpt lat="48.49314" lon="-2.70705">
        <ele>65</ele>
        <time>2013-11-22T10:33:28Z</time>
      </trkpt>
      <trkpt lat="48.49313" lon="-2.70704">
        <ele>65</ele>
        <time>2013-11-22T10:33:29Z</time>
      </trkpt>
      <trkpt lat="48.49311" lon="-2.70703">
        <ele>65</ele>
        <time>2013-11-22T10:33:30Z</time>
      </trkpt>
      <trkpt lat="48.4931" lon="-2.70702">
        <ele>65</ele>
        <time>2013-11-22T10:33:31Z</time>
      </trkpt>
      <trkpt lat="48.49308" lon="-2.70701">
        <ele>65</ele>
        <time>2013-11-22T10:33:32Z</time>
      </trkpt>
      <trkpt lat="48.49307" lon="-2.70701">
        <ele>65</ele>
        <time>2013-11-22T10:33:33Z</time>
      </trkpt>
      <trkpt lat="48.49305" lon="-2.707">
        <ele>65</ele>
        <time>2013-11-22T10:33:35Z</time>
      </trkpt>
      <trkpt lat="48.49303" lon="-2.70699">
        <ele>66</ele>
        <time>2013-11-22T10:33:37Z</time>
      </trkpt>
      <trkpt lat="48.49301" lon="-2.70698">
        <ele>66</ele>
        <time>2013-11-22T10:33:39Z</time>
      </trkpt>
      <trkpt lat="48.493" lon="-2.70698">
        <ele>66</ele>
        <time>2013-11-22T10:33:40Z</time>
      </trkpt>
      <trkpt lat="48.49298" lon="-2.70697">
        <ele>67</ele>
        <time>2013-11-22T10:33:41Z</time>
      </trkpt>
      <trkpt lat="48.49297" lon="-2.70696">
        <ele>67</ele>
        <time>2013-11-22T10:33:42Z</time>
      </trkpt>
      <trkpt lat="48.49296" lon="-2.70695">
        <ele>67</ele>
        <time>2013-11-22T10:33:43Z</time>
      </trkpt>
      <trkpt lat="48.49294" lon="-2.70693">
        <ele>67</ele>
        <time>2013-11-22T10:33:45Z</time>
      </trkpt>
      <trkpt lat="48.49292" lon="-2.70692">
        <ele>68</ele>
        <time>2013-11-22T10:33:46Z</time>
      </trkpt>
      <trkpt lat="48.4929" lon="-2.7069">
        <ele>68</ele>
        <time>2013-11-22T10:33:48Z</time>
      </trkpt>
      <trkpt lat="48.49289" lon="-2.70689">
        <ele>68</ele>
        <time>2013-11-22T10:33:49Z</time>
      </trkpt>
      <trkpt lat="48.49288" lon="-2.70687">
        <ele>68</ele>
        <time>2013-11-22T10:33:50Z</time>
      </trkpt>
      <trkpt lat="48.49287" lon="-2.70686">
        <ele>68</ele>
        <time>2013-11-22T10:33:51Z</time>
      </trkpt>
      <trkpt lat="48.49286" lon="-2.70685">
        <ele>68</ele>
        <time>2013-11-22T10:33:52Z</time>
      </trkpt>
      <trkpt lat="48.49284" lon="-2.70682">
        <ele>68</ele>
        <time>2013-11-22T10:33:54Z</time>
      </trkpt>
      <trkpt lat="48.49282" lon="-2.70681">
        <ele>68</ele>
        <time>2013-11-22T10:33:55Z</time>
      </trkpt>
      <trkpt lat="48.4928" lon="-2.70679">
        <ele>68</ele>
        <time>2013-11-22T10:33:57Z</time>
      </trkpt>
      <trkpt lat="48.49279" lon="-2.70678">
        <ele>68</ele>
        <time>2013-11-22T10:33:58Z</time>
      </trkpt>
      <trkpt lat="48.49278" lon="-2.70676">
        <ele>68</ele>
        <time>2013-11-22T10:33:59Z</time>
      </trkpt>
      <trkpt lat="48.49276" lon="-2.70675">
        <ele>69</ele>
        <time>2013-11-22T10:34:00Z</time>
      </trkpt>
      <trkpt lat="48.49275" lon="-2.70674">
        <ele>69</ele>
        <time>2013-11-22T10:34:01Z</time>
      </trkpt>
      <trkpt lat="48.49274" lon="-2.70673">
        <ele>69</ele>
        <time>2013-11-22T10:34:02Z</time>
      </trkpt>
      <trkpt lat="48.49273" lon="-2.70673">
        <ele>69</ele>
        <time>2013-11-22T10:34:03Z</time>
      </trkpt>
      <trkpt lat="48.49271" lon="-2.70672">
        <ele>69</ele>
        <time>2013-11-22T10:34:04Z</time>
      </trkpt>
      <trkpt lat="48.4927" lon="-2.70672">
        <ele>69</ele>
        <time>2013-11-22T10:34:05Z</time>
      </trkpt>
      <trkpt lat="48.49268" lon="-2.70671">
        <ele>69</ele>
        <time>2013-11-22T10:34:06Z</time>
      </trkpt>
      <trkpt lat="48.49267" lon="-2.70671">
        <ele>69</ele>
        <time>2013-11-22T10:34:07Z</time>
      </trkpt>
      <trkpt lat="48.49266" lon="-2.7067">
        <ele>69</ele>
        <time>2013-11-22T10:34:08Z</time>
      </trkpt>
      <trkpt lat="48.49264" lon="-2.7067">
        <ele>69</ele>
        <time>2013-11-22T10:34:09Z</time>
      </trkpt>
      <trkpt lat="48.49263" lon="-2.70669">
        <ele>70</ele>
        <time>2013-11-22T10:34:10Z</time>
      </trkpt>
      <trkpt lat="48.49261" lon="-2.70669">
        <ele>70</ele>
        <time>2013-11-22T10:34:11Z</time>
      </trkpt>
      <trkpt lat="48.4926" lon="-2.70668">
        <ele>70</ele>
        <time>2013-11-22T10:34:12Z</time>
      </trkpt>
      <trkpt lat="48.49259" lon="-2.70668">
        <ele>70</ele>
        <time>2013-11-22T10:34:13Z</time>
      </trkpt>
      <trkpt lat="48.49258" lon="-2.70667">
        <ele>70</ele>
        <time>2013-11-22T10:34:14Z</time>
      </trkpt>
      <trkpt lat="48.49256" lon="-2.70667">
        <ele>70</ele>
        <time>2013-11-22T10:34:15Z</time>
      </trkpt>
      <trkpt lat="48.49255" lon="-2.70666">
        <ele>70</ele>
        <time>2013-11-22T10:34:16Z</time>
      </trkpt>
      <trkpt lat="48.49253" lon="-2.70666">
        <ele>70</ele>
        <time>2013-11-22T10:34:17Z</time>
      </trkpt>
      <trkpt lat="48.49252" lon="-2.70666">
        <ele>70</ele>
        <time>2013-11-22T10:34:18Z</time>
      </trkpt>
      <trkpt lat="48.49251" lon="-2.70666">
        <ele>70</ele>
        <time>2013-11-22T10:34:19Z</time>
      </trkpt>
      <trkpt lat="48.49249" lon="-2.70666">
        <ele>70</ele>
        <time>2013-11-22T10:34:20Z</time>
      </trkpt>
      <trkpt lat="48.49248" lon="-2.70667">
        <ele>70</ele>
        <time>2013-11-22T10:34:21Z</time>
      </trkpt>
      <trkpt lat="48.49247" lon="-2.70667">
        <ele>70</ele>
        <time>2013-11-22T10:34:22Z</time>
      </trkpt>
      <trkpt lat="48.49245" lon="-2.70667">
        <ele>70</ele>
        <time>2013-11-22T10:34:23Z</time>
      </trkpt>
      <trkpt lat="48.49244" lon="-2.70666">
        <ele>70</ele>
        <time>2013-11-22T10:34:24Z</time>
      </trkpt>
      <trkpt lat="48.49242" lon="-2.70666">
        <ele>70</ele>
        <time>2013-11-22T10:34:25Z</time>
      </trkpt>
      <trkpt lat="48.49239" lon="-2.70666">
        <ele>70</ele>
        <time>2013-11-22T10:34:28Z</time>
      </trkpt>
      <trkpt lat="48.49237" lon="-2.70664">
        <ele>70</ele>
        <time>2013-11-22T10:34:29Z</time>
      </trkpt>
      <trkpt lat="48.49236" lon="-2.70663">
        <ele>70</ele>
        <time>2013-11-22T10:34:30Z</time>
      </trkpt>
      <trkpt lat="48.49236" lon="-2.70661">
        <ele>70</ele>
        <time>2013-11-22T10:34:31Z</time>
      </trkpt>
      <trkpt lat="48.49235" lon="-2.70659">
        <ele>70</ele>
        <time>2013-11-22T10:34:32Z</time>
      </trkpt>
      <trkpt lat="48.49234" lon="-2.70657">
        <ele>70</ele>
        <time>2013-11-22T10:34:33Z</time>
      </trkpt>
      <trkpt lat="48.49234" lon="-2.70656">
        <ele>70</ele>
        <time>2013-11-22T10:34:34Z</time>
      </trkpt>
      <trkpt lat="48.49233" lon="-2.70654">
        <ele>70</ele>
        <time>2013-11-22T10:34:35Z</time>
      </trkpt>
      <trkpt lat="48.49232" lon="-2.70652">
        <ele>70</ele>
        <time>2013-11-22T10:34:36Z</time>
      </trkpt>
      <trkpt lat="48.49231" lon="-2.7065">
        <ele>71</ele>
        <time>2013-11-22T10:34:37Z</time>
      </trkpt>
      <trkpt lat="48.49231" lon="-2.70648">
        <ele>71</ele>
        <time>2013-11-22T10:34:38Z</time>
      </trkpt>
      <trkpt lat="48.4923" lon="-2.70646">
        <ele>71</ele>
        <time>2013-11-22T10:34:39Z</time>
      </trkpt>
      <trkpt lat="48.4923" lon="-2.70644">
        <ele>71</ele>
        <time>2013-11-22T10:34:40Z</time>
      </trkpt>
      <trkpt lat="48.49228" lon="-2.70641">
        <ele>71</ele>
        <time>2013-11-22T10:34:42Z</time>
      </trkpt>
      <trkpt lat="48.49225" lon="-2.70641">
        <ele>71</ele>
        <time>2013-11-22T10:34:44Z</time>
      </trkpt>
      <trkpt lat="48.49224" lon="-2.70641">
        <ele>71</ele>
        <time>2013-11-22T10:34:45Z</time>
      </trkpt>
      <trkpt lat="48.49223" lon="-2.70641">
        <ele>71</ele>
        <time>2013-11-22T10:34:46Z</time>
      </trkpt>
      <trkpt lat="48.49221" lon="-2.70642">
        <ele>71</ele>
        <time>2013-11-22T10:34:47Z</time>
      </trkpt>
      <trkpt lat="48.4922" lon="-2.70642">
        <ele>71</ele>
        <time>2013-11-22T10:34:48Z</time>
      </trkpt>
      <trkpt lat="48.49218" lon="-2.70641">
        <ele>71</ele>
        <time>2013-11-22T10:34:49Z</time>
      </trkpt>
      <trkpt lat="48.49217" lon="-2.7064">
        <ele>71</ele>
        <time>2013-11-22T10:34:50Z</time>
      </trkpt>
      <trkpt lat="48.49216" lon="-2.70638">
        <ele>71</ele>
        <time>2013-11-22T10:34:51Z</time>
      </trkpt>
      <trkpt lat="48.49216" lon="-2.70636">
        <ele>71</ele>
        <time>2013-11-22T10:34:52Z</time>
      </trkpt>
      <trkpt lat="48.49215" lon="-2.70634">
        <ele>71</ele>
        <time>2013-11-22T10:34:53Z</time>
      </trkpt>
      <trkpt lat="48.49215" lon="-2.70632">
        <ele>71</ele>
        <time>2013-11-22T10:34:54Z</time>
      </trkpt>
      <trkpt lat="48.49214" lon="-2.7063">
        <ele>71</ele>
        <time>2013-11-22T10:34:55Z</time>
      </trkpt>
      <trkpt lat="48.49213" lon="-2.70628">
        <ele>71</ele>
        <time>2013-11-22T10:34:56Z</time>
      </trkpt>
      <trkpt lat="48.49212" lon="-2.70626">
        <ele>71</ele>
        <time>2013-11-22T10:34:58Z</time>
      </trkpt>
      <trkpt lat="48.49211" lon="-2.70622">
        <ele>71</ele>
        <time>2013-11-22T10:35:00Z</time>
      </trkpt>
      <trkpt lat="48.4921" lon="-2.70621">
        <ele>71</ele>
        <time>2013-11-22T10:35:01Z</time>
      </trkpt>
      <trkpt lat="48.4921" lon="-2.70619">
        <ele>72</ele>
        <time>2013-11-22T10:35:02Z</time>
      </trkpt>
      <trkpt lat="48.49209" lon="-2.70617">
        <ele>72</ele>
        <time>2013-11-22T10:35:03Z</time>
      </trkpt>
      <trkpt lat="48.49209" lon="-2.70615">
        <ele>72</ele>
        <time>2013-11-22T10:35:04Z</time>
      </trkpt>
      <trkpt lat="48.49208" lon="-2.70613">
        <ele>72</ele>
        <time>2013-11-22T10:35:05Z</time>
      </trkpt>
      <trkpt lat="48.49208" lon="-2.70611">
        <ele>72</ele>
        <time>2013-11-22T10:35:06Z</time>
      </trkpt>
      <trkpt lat="48.49207" lon="-2.70609">
        <ele>72</ele>
        <time>2013-11-22T10:35:07Z</time>
      </trkpt>
      <trkpt lat="48.49207" lon="-2.70607">
        <ele>72</ele>
        <time>2013-11-22T10:35:08Z</time>
      </trkpt>
      <trkpt lat="48.49206" lon="-2.70605">
        <ele>72</ele>
        <time>2013-11-22T10:35:09Z</time>
      </trkpt>
      <trkpt lat="48.49206" lon="-2.70603">
        <ele>72</ele>
        <time>2013-11-22T10:35:10Z</time>
      </trkpt>
      <trkpt lat="48.49205" lon="-2.70601">
        <ele>72</ele>
        <time>2013-11-22T10:35:11Z</time>
      </trkpt>
      <trkpt lat="48.49205" lon="-2.70599">
        <ele>72</ele>
        <time>2013-11-22T10:35:12Z</time>
      </trkpt>
      <trkpt lat="48.49204" lon="-2.70597">
        <ele>72</ele>
        <time>2013-11-22T10:35:13Z</time>
      </trkpt>
      <trkpt lat="48.49204" lon="-2.70595">
        <ele>72</ele>
        <time>2013-11-22T10:35:14Z</time>
      </trkpt>
      <trkpt lat="48.49203" lon="-2.70593">
        <ele>72</ele>
        <time>2013-11-22T10:35:15Z</time>
      </trkpt>
      <trkpt lat="48.49202" lon="-2.70592">
        <ele>72</ele>
        <time>2013-11-22T10:35:16Z</time>
      </trkpt>
      <trkpt lat="48.49202" lon="-2.7059">
        <ele>72</ele>
        <time>2013-11-22T10:35:17Z</time>
      </trkpt>
      <trkpt lat="48.49201" lon="-2.70588">
        <ele>72</ele>
        <time>2013-11-22T10:35:18Z</time>
      </trkpt>
      <trkpt lat="48.49201" lon="-2.70586">
        <ele>72</ele>
        <time>2013-11-22T10:35:19Z</time>
      </trkpt>
      <trkpt lat="48.492" lon="-2.70585">
        <ele>72</ele>
        <time>2013-11-22T10:35:20Z</time>
      </trkpt>
      <trkpt lat="48.492" lon="-2.70583">
        <ele>72</ele>
        <time>2013-11-22T10:35:21Z</time>
      </trkpt>
      <trkpt lat="48.49199" lon="-2.70581">
        <ele>72</ele>
        <time>2013-11-22T10:35:23Z</time>
      </trkpt>
      <trkpt lat="48.49199" lon="-2.70579">
        <ele>72</ele>
        <time>2013-11-22T10:35:25Z</time>
      </trkpt>
      <trkpt lat="48.49198" lon="-2.70577">
        <ele>72</ele>
        <time>2013-11-22T10:35:26Z</time>
      </trkpt>
      <trkpt lat="48.49198" lon="-2.70575">
        <ele>72</ele>
        <time>2013-11-22T10:35:27Z</time>
      </trkpt>
      <trkpt lat="48.49197" lon="-2.70568">
        <ele>72</ele>
        <time>2013-11-22T10:35:30Z</time>
      </trkpt>
      <trkpt lat="48.49197" lon="-2.70566">
        <ele>72</ele>
        <time>2013-11-22T10:35:31Z</time>
      </trkpt>
      <trkpt lat="48.49196" lon="-2.70564">
        <ele>72</ele>
        <time>2013-11-22T10:35:32Z</time>
      </trkpt>
      <trkpt lat="48.49195" lon="-2.7056">
        <ele>72</ele>
        <time>2013-11-22T10:35:34Z</time>
      </trkpt>
      <trkpt lat="48.49194" lon="-2.70558">
        <ele>72</ele>
        <time>2013-11-22T10:35:35Z</time>
      </trkpt>
      <trkpt lat="48.49194" lon="-2.70556">
        <ele>72</ele>
        <time>2013-11-22T10:35:36Z</time>
      </trkpt>
      <trkpt lat="48.49193" lon="-2.70554">
        <ele>72</ele>
        <time>2013-11-22T10:35:37Z</time>
      </trkpt>
      <trkpt lat="48.49192" lon="-2.70552">
        <ele>72</ele>
        <time>2013-11-22T10:35:38Z</time>
      </trkpt>
      <trkpt lat="48.49192" lon="-2.7055">
        <ele>72</ele>
        <time>2013-11-22T10:35:39Z</time>
      </trkpt>
      <trkpt lat="48.49192" lon="-2.70549">
        <ele>72</ele>
        <time>2013-11-22T10:35:40Z</time>
      </trkpt>
      <trkpt lat="48.49191" lon="-2.70546">
        <ele>72</ele>
        <time>2013-11-22T10:35:41Z</time>
      </trkpt>
      <trkpt lat="48.49191" lon="-2.70544">
        <ele>72</ele>
        <time>2013-11-22T10:35:42Z</time>
      </trkpt>
      <trkpt lat="48.4919" lon="-2.70542">
        <ele>72</ele>
        <time>2013-11-22T10:35:43Z</time>
      </trkpt>
      <trkpt lat="48.49189" lon="-2.7054">
        <ele>72</ele>
        <time>2013-11-22T10:35:44Z</time>
      </trkpt>
      <trkpt lat="48.49189" lon="-2.70538">
        <ele>72</ele>
        <time>2013-11-22T10:35:45Z</time>
      </trkpt>
      <trkpt lat="48.49188" lon="-2.70536">
        <ele>72</ele>
        <time>2013-11-22T10:35:46Z</time>
      </trkpt>
      <trkpt lat="48.49187" lon="-2.70534">
        <ele>72</ele>
        <time>2013-11-22T10:35:47Z</time>
      </trkpt>
      <trkpt lat="48.49186" lon="-2.70532">
        <ele>72</ele>
        <time>2013-11-22T10:35:48Z</time>
      </trkpt>
      <trkpt lat="48.49186" lon="-2.7053">
        <ele>72</ele>
        <time>2013-11-22T10:35:49Z</time>
      </trkpt>
      <trkpt lat="48.49186" lon="-2.70528">
        <ele>72</ele>
        <time>2013-11-22T10:35:50Z</time>
      </trkpt>
      <trkpt lat="48.49185" lon="-2.70526">
        <ele>72</ele>
        <time>2013-11-22T10:35:51Z</time>
      </trkpt>
      <trkpt lat="48.49184" lon="-2.70525">
        <ele>72</ele>
        <time>2013-11-22T10:35:52Z</time>
      </trkpt>
      <trkpt lat="48.49184" lon="-2.70523">
        <ele>72</ele>
        <time>2013-11-22T10:35:53Z</time>
      </trkpt>
      <trkpt lat="48.49183" lon="-2.7052">
        <ele>72</ele>
        <time>2013-11-22T10:35:54Z</time>
      </trkpt>
      <trkpt lat="48.49183" lon="-2.70516">
        <ele>72</ele>
        <time>2013-11-22T10:35:56Z</time>
      </trkpt>
      <trkpt lat="48.49182" lon="-2.70514">
        <ele>72</ele>
        <time>2013-11-22T10:35:57Z</time>
      </trkpt>
      <trkpt lat="48.49181" lon="-2.70513">
        <ele>72</ele>
        <time>2013-11-22T10:35:58Z</time>
      </trkpt>
      <trkpt lat="48.4918" lon="-2.70511">
        <ele>72</ele>
        <time>2013-11-22T10:35:59Z</time>
      </trkpt>
      <trkpt lat="48.49179" lon="-2.70509">
        <ele>72</ele>
        <time>2013-11-22T10:36:00Z</time>
      </trkpt>
      <trkpt lat="48.49179" lon="-2.70507">
        <ele>72</ele>
        <time>2013-11-22T10:36:01Z</time>
      </trkpt>
      <trkpt lat="48.49178" lon="-2.70505">
        <ele>72</ele>
        <time>2013-11-22T10:36:02Z</time>
      </trkpt>
      <trkpt lat="48.49178" lon="-2.70504">
        <ele>72</ele>
        <time>2013-11-22T10:36:03Z</time>
      </trkpt>
      <trkpt lat="48.49177" lon="-2.70501">
        <ele>72</ele>
        <time>2013-11-22T10:36:04Z</time>
      </trkpt>
      <trkpt lat="48.49176" lon="-2.70499">
        <ele>72</ele>
        <time>2013-11-22T10:36:05Z</time>
      </trkpt>
      <trkpt lat="48.49176" lon="-2.70498">
        <ele>72</ele>
        <time>2013-11-22T10:36:06Z</time>
      </trkpt>
      <trkpt lat="48.49174" lon="-2.70495">
        <ele>72</ele>
        <time>2013-11-22T10:36:08Z</time>
      </trkpt>
      <trkpt lat="48.49172" lon="-2.70493">
        <ele>72</ele>
        <time>2013-11-22T10:36:10Z</time>
      </trkpt>
      <trkpt lat="48.49171" lon="-2.70493">
        <ele>72</ele>
        <time>2013-11-22T10:36:11Z</time>
      </trkpt>
      <trkpt lat="48.4917" lon="-2.70493">
        <ele>72</ele>
        <time>2013-11-22T10:36:12Z</time>
      </trkpt>
      <trkpt lat="48.49168" lon="-2.70493">
        <ele>72</ele>
        <time>2013-11-22T10:36:13Z</time>
      </trkpt>
      <trkpt lat="48.49166" lon="-2.70494">
        <ele>72</ele>
        <time>2013-11-22T10:36:15Z</time>
      </trkpt>
      <trkpt lat="48.49164" lon="-2.70496">
        <ele>72</ele>
        <time>2013-11-22T10:36:17Z</time>
      </trkpt>
      <trkpt lat="48.49162" lon="-2.70498">
        <ele>72</ele>
        <time>2013-11-22T10:36:19Z</time>
      </trkpt>
      <trkpt lat="48.4916" lon="-2.705">
        <ele>72</ele>
        <time>2013-11-22T10:36:21Z</time>
      </trkpt>
      <trkpt lat="48.49158" lon="-2.70502">
        <ele>71</ele>
        <time>2013-11-22T10:36:23Z</time>
      </trkpt>
      <trkpt lat="48.49157" lon="-2.70503">
        <ele>71</ele>
        <time>2013-11-22T10:36:24Z</time>
      </trkpt>
      <trkpt lat="48.49155" lon="-2.70504">
        <ele>71</ele>
        <time>2013-11-22T10:36:25Z</time>
      </trkpt>
      <trkpt lat="48.49153" lon="-2.70506">
        <ele>71</ele>
        <time>2013-11-22T10:36:27Z</time>
      </trkpt>
      <trkpt lat="48.49151" lon="-2.70508">
        <ele>71</ele>
        <time>2013-11-22T10:36:29Z</time>
      </trkpt>
      <trkpt lat="48.49149" lon="-2.70511">
        <ele>71</ele>
        <time>2013-11-22T10:36:31Z</time>
      </trkpt>
      <trkpt lat="48.49148" lon="-2.70512">
        <ele>71</ele>
        <time>2013-11-22T10:36:32Z</time>
      </trkpt>
      <trkpt lat="48.49147" lon="-2.70513">
        <ele>71</ele>
        <time>2013-11-22T10:36:33Z</time>
      </trkpt>
      <trkpt lat="48.49145" lon="-2.70514">
        <ele>71</ele>
        <time>2013-11-22T10:36:34Z</time>
      </trkpt>
      <trkpt lat="48.49144" lon="-2.70516">
        <ele>71</ele>
        <time>2013-11-22T10:36:35Z</time>
      </trkpt>
      <trkpt lat="48.49143" lon="-2.70517">
        <ele>71</ele>
        <time>2013-11-22T10:36:36Z</time>
      </trkpt>
      <trkpt lat="48.49141" lon="-2.70518">
        <ele>71</ele>
        <time>2013-11-22T10:36:37Z</time>
      </trkpt>
      <trkpt lat="48.4914" lon="-2.70519">
        <ele>71</ele>
        <time>2013-11-22T10:36:38Z</time>
      </trkpt>
      <trkpt lat="48.49139" lon="-2.7052">
        <ele>71</ele>
        <time>2013-11-22T10:36:39Z</time>
      </trkpt>
      <trkpt lat="48.49137" lon="-2.7052">
        <ele>71</ele>
        <time>2013-11-22T10:36:40Z</time>
      </trkpt>
      <trkpt lat="48.49136" lon="-2.70521">
        <ele>71</ele>
        <time>2013-11-22T10:36:41Z</time>
      </trkpt>
      <trkpt lat="48.49134" lon="-2.70522">
        <ele>71</ele>
        <time>2013-11-22T10:36:42Z</time>
      </trkpt>
      <trkpt lat="48.49133" lon="-2.70523">
        <ele>71</ele>
        <time>2013-11-22T10:36:43Z</time>
      </trkpt>
      <trkpt lat="48.49132" lon="-2.70524">
        <ele>71</ele>
        <time>2013-11-22T10:36:44Z</time>
      </trkpt>
      <trkpt lat="48.4913" lon="-2.70524">
        <ele>71</ele>
        <time>2013-11-22T10:36:45Z</time>
      </trkpt>
      <trkpt lat="48.49129" lon="-2.70525">
        <ele>71</ele>
        <time>2013-11-22T10:36:46Z</time>
      </trkpt>
      <trkpt lat="48.49128" lon="-2.70526">
        <ele>71</ele>
        <time>2013-11-22T10:36:47Z</time>
      </trkpt>
      <trkpt lat="48.49126" lon="-2.70527">
        <ele>71</ele>
        <time>2013-11-22T10:36:48Z</time>
      </trkpt>
      <trkpt lat="48.49125" lon="-2.70527">
        <ele>71</ele>
        <time>2013-11-22T10:36:49Z</time>
      </trkpt>
      <trkpt lat="48.49123" lon="-2.70528">
        <ele>71</ele>
        <time>2013-11-22T10:36:50Z</time>
      </trkpt>
      <trkpt lat="48.49122" lon="-2.70529">
        <ele>71</ele>
        <time>2013-11-22T10:36:51Z</time>
      </trkpt>
      <trkpt lat="48.4912" lon="-2.70529">
        <ele>71</ele>
        <time>2013-11-22T10:36:52Z</time>
      </trkpt>
      <trkpt lat="48.49119" lon="-2.7053">
        <ele>71</ele>
        <time>2013-11-22T10:36:53Z</time>
      </trkpt>
      <trkpt lat="48.49117" lon="-2.70531">
        <ele>71</ele>
        <time>2013-11-22T10:36:54Z</time>
      </trkpt>
      <trkpt lat="48.49116" lon="-2.70531">
        <ele>71</ele>
        <time>2013-11-22T10:36:55Z</time>
      </trkpt>
      <trkpt lat="48.49115" lon="-2.70532">
        <ele>71</ele>
        <time>2013-11-22T10:36:56Z</time>
      </trkpt>
      <trkpt lat="48.49114" lon="-2.70532">
        <ele>71</ele>
        <time>2013-11-22T10:36:57Z</time>
      </trkpt>
      <trkpt lat="48.49112" lon="-2.70533">
        <ele>71</ele>
        <time>2013-11-22T10:36:59Z</time>
      </trkpt>
      <trkpt lat="48.4911" lon="-2.70534">
        <ele>71</ele>
        <time>2013-11-22T10:37:00Z</time>
      </trkpt>
      <trkpt lat="48.49109" lon="-2.70534">
        <ele>72</ele>
        <time>2013-11-22T10:37:01Z</time>
      </trkpt>
      <trkpt lat="48.49107" lon="-2.70535">
        <ele>72</ele>
        <time>2013-11-22T10:37:02Z</time>
      </trkpt>
      <trkpt lat="48.49106" lon="-2.70536">
        <ele>72</ele>
        <time>2013-11-22T10:37:03Z</time>
      </trkpt>
      <trkpt lat="48.49105" lon="-2.70537">
        <ele>72</ele>
        <time>2013-11-22T10:37:04Z</time>
      </trkpt>
      <trkpt lat="48.49104" lon="-2.70538">
        <ele>72</ele>
        <time>2013-11-22T10:37:05Z</time>
      </trkpt>
      <trkpt lat="48.49102" lon="-2.70538">
        <ele>72</ele>
        <time>2013-11-22T10:37:06Z</time>
      </trkpt>
      <trkpt lat="48.49101" lon="-2.70539">
        <ele>72</ele>
        <time>2013-11-22T10:37:07Z</time>
      </trkpt>
      <trkpt lat="48.49099" lon="-2.7054">
        <ele>73</ele>
        <time>2013-11-22T10:37:08Z</time>
      </trkpt>
      <trkpt lat="48.49098" lon="-2.70541">
        <ele>73</ele>
        <time>2013-11-22T10:37:09Z</time>
      </trkpt>
      <trkpt lat="48.49096" lon="-2.70541">
        <ele>73</ele>
        <time>2013-11-22T10:37:11Z</time>
      </trkpt>
      <trkpt lat="48.49095" lon="-2.70542">
        <ele>73</ele>
        <time>2013-11-22T10:37:12Z</time>
      </trkpt>
      <trkpt lat="48.49094" lon="-2.70542">
        <ele>74</ele>
        <time>2013-11-22T10:37:13Z</time>
      </trkpt>
      <trkpt lat="48.49092" lon="-2.70543">
        <ele>74</ele>
        <time>2013-11-22T10:37:14Z</time>
      </trkpt>
      <trkpt lat="48.49091" lon="-2.70543">
        <ele>74</ele>
        <time>2013-11-22T10:37:15Z</time>
      </trkpt>
      <trkpt lat="48.4909" lon="-2.70544">
        <ele>74</ele>
        <time>2013-11-22T10:37:16Z</time>
      </trkpt>
      <trkpt lat="48.49089" lon="-2.70545">
        <ele>75</ele>
        <time>2013-11-22T10:37:17Z</time>
      </trkpt>
      <trkpt lat="48.49088" lon="-2.70546">
        <ele>75</ele>
        <time>2013-11-22T10:37:18Z</time>
      </trkpt>
      <trkpt lat="48.49086" lon="-2.70547">
        <ele>75</ele>
        <time>2013-11-22T10:37:19Z</time>
      </trkpt>
      <trkpt lat="48.49085" lon="-2.70547">
        <ele>75</ele>
        <time>2013-11-22T10:37:20Z</time>
      </trkpt>
      <trkpt lat="48.49084" lon="-2.70548">
        <ele>75</ele>
        <time>2013-11-22T10:37:21Z</time>
      </trkpt>
      <trkpt lat="48.49082" lon="-2.70549">
        <ele>75</ele>
        <time>2013-11-22T10:37:22Z</time>
      </trkpt>
      <trkpt lat="48.49081" lon="-2.70549">
        <ele>75</ele>
        <time>2013-11-22T10:37:23Z</time>
      </trkpt>
      <trkpt lat="48.4908" lon="-2.7055">
        <ele>75</ele>
        <time>2013-11-22T10:37:24Z</time>
      </trkpt>
      <trkpt lat="48.49078" lon="-2.7055">
        <ele>75</ele>
        <time>2013-11-22T10:37:25Z</time>
      </trkpt>
      <trkpt lat="48.49077" lon="-2.70551">
        <ele>75</ele>
        <time>2013-11-22T10:37:26Z</time>
      </trkpt>
      <trkpt lat="48.49076" lon="-2.70551">
        <ele>75</ele>
        <time>2013-11-22T10:37:27Z</time>
      </trkpt>
      <trkpt lat="48.49075" lon="-2.70552">
        <ele>75</ele>
        <time>2013-11-22T10:37:28Z</time>
      </trkpt>
      <trkpt lat="48.49073" lon="-2.70553">
        <ele>75</ele>
        <time>2013-11-22T10:37:29Z</time>
      </trkpt>
      <trkpt lat="48.49072" lon="-2.70553">
        <ele>75</ele>
        <time>2013-11-22T10:37:30Z</time>
      </trkpt>
      <trkpt lat="48.4907" lon="-2.70554">
        <ele>75</ele>
        <time>2013-11-22T10:37:31Z</time>
      </trkpt>
      <trkpt lat="48.49069" lon="-2.70555">
        <ele>75</ele>
        <time>2013-11-22T10:37:32Z</time>
      </trkpt>
      <trkpt lat="48.49068" lon="-2.70556">
        <ele>76</ele>
        <time>2013-11-22T10:37:33Z</time>
      </trkpt>
      <trkpt lat="48.49067" lon="-2.70556">
        <ele>76</ele>
        <time>2013-11-22T10:37:34Z</time>
      </trkpt>
      <trkpt lat="48.49065" lon="-2.70557">
        <ele>76</ele>
        <time>2013-11-22T10:37:35Z</time>
      </trkpt>
      <trkpt lat="48.49064" lon="-2.70558">
        <ele>76</ele>
        <time>2013-11-22T10:37:36Z</time>
      </trkpt>
      <trkpt lat="48.49062" lon="-2.70559">
        <ele>76</ele>
        <time>2013-11-22T10:37:37Z</time>
      </trkpt>
      <trkpt lat="48.49061" lon="-2.70559">
        <ele>76</ele>
        <time>2013-11-22T10:37:38Z</time>
      </trkpt>
      <trkpt lat="48.4906" lon="-2.7056">
        <ele>76</ele>
        <time>2013-11-22T10:37:39Z</time>
      </trkpt>
      <trkpt lat="48.49059" lon="-2.70561">
        <ele>76</ele>
        <time>2013-11-22T10:37:40Z</time>
      </trkpt>
      <trkpt lat="48.49057" lon="-2.70562">
        <ele>76</ele>
        <time>2013-11-22T10:37:41Z</time>
      </trkpt>
      <trkpt lat="48.49056" lon="-2.70563">
        <ele>77</ele>
        <time>2013-11-22T10:37:42Z</time>
      </trkpt>
      <trkpt lat="48.49055" lon="-2.70563">
        <ele>77</ele>
        <time>2013-11-22T10:37:43Z</time>
      </trkpt>
      <trkpt lat="48.49053" lon="-2.70564">
        <ele>77</ele>
        <time>2013-11-22T10:37:44Z</time>
      </trkpt>
      <trkpt lat="48.49052" lon="-2.70565">
        <ele>77</ele>
        <time>2013-11-22T10:37:45Z</time>
      </trkpt>
      <trkpt lat="48.49051" lon="-2.70565">
        <ele>77</ele>
        <time>2013-11-22T10:37:46Z</time>
      </trkpt>
      <trkpt lat="48.49049" lon="-2.70566">
        <ele>77</ele>
        <time>2013-11-22T10:37:47Z</time>
      </trkpt>
      <trkpt lat="48.49048" lon="-2.70567">
        <ele>77</ele>
        <time>2013-11-22T10:37:48Z</time>
      </trkpt>
      <trkpt lat="48.49047" lon="-2.70568">
        <ele>78</ele>
        <time>2013-11-22T10:37:49Z</time>
      </trkpt>
      <trkpt lat="48.49046" lon="-2.70569">
        <ele>78</ele>
        <time>2013-11-22T10:37:50Z</time>
      </trkpt>
      <trkpt lat="48.49044" lon="-2.7057">
        <ele>78</ele>
        <time>2013-11-22T10:37:52Z</time>
      </trkpt>
      <trkpt lat="48.49043" lon="-2.70572">
        <ele>79</ele>
        <time>2013-11-22T10:37:54Z</time>
      </trkpt>
      <trkpt lat="48.49041" lon="-2.70573">
        <ele>79</ele>
        <time>2013-11-22T10:37:55Z</time>
      </trkpt>
      <trkpt lat="48.4904" lon="-2.70574">
        <ele>79</ele>
        <time>2013-11-22T10:37:56Z</time>
      </trkpt>
      <trkpt lat="48.49039" lon="-2.70575">
        <ele>80</ele>
        <time>2013-11-22T10:37:57Z</time>
      </trkpt>
      <trkpt lat="48.49038" lon="-2.70576">
        <ele>80</ele>
        <time>2013-11-22T10:37:58Z</time>
      </trkpt>
      <trkpt lat="48.49036" lon="-2.70577">
        <ele>80</ele>
        <time>2013-11-22T10:37:59Z</time>
      </trkpt>
      <trkpt lat="48.49035" lon="-2.70578">
        <ele>80</ele>
        <time>2013-11-22T10:38:00Z</time>
      </trkpt>
      <trkpt lat="48.49034" lon="-2.70579">
        <ele>80</ele>
        <time>2013-11-22T10:38:01Z</time>
      </trkpt>
      <trkpt lat="48.49032" lon="-2.7058">
        <ele>80</ele>
        <time>2013-11-22T10:38:02Z</time>
      </trkpt>
      <trkpt lat="48.49031" lon="-2.70581">
        <ele>80</ele>
        <time>2013-11-22T10:38:03Z</time>
      </trkpt>
      <trkpt lat="48.4903" lon="-2.70582">
        <ele>80</ele>
        <time>2013-11-22T10:38:04Z</time>
      </trkpt>
      <trkpt lat="48.49028" lon="-2.70583">
        <ele>80</ele>
        <time>2013-11-22T10:38:05Z</time>
      </trkpt>
      <trkpt lat="48.49027" lon="-2.70584">
        <ele>80</ele>
        <time>2013-11-22T10:38:06Z</time>
      </trkpt>
      <trkpt lat="48.49026" lon="-2.70585">
        <ele>80</ele>
        <time>2013-11-22T10:38:07Z</time>
      </trkpt>
      <trkpt lat="48.49025" lon="-2.70586">
        <ele>80</ele>
        <time>2013-11-22T10:38:08Z</time>
      </trkpt>
      <trkpt lat="48.49024" lon="-2.70587">
        <ele>80</ele>
        <time>2013-11-22T10:38:09Z</time>
      </trkpt>
      <trkpt lat="48.49023" lon="-2.70588">
        <ele>80</ele>
        <time>2013-11-22T10:38:10Z</time>
      </trkpt>
      <trkpt lat="48.49021" lon="-2.7059">
        <ele>81</ele>
        <time>2013-11-22T10:38:11Z</time>
      </trkpt>
      <trkpt lat="48.4902" lon="-2.70591">
        <ele>81</ele>
        <time>2013-11-22T10:38:12Z</time>
      </trkpt>
      <trkpt lat="48.49019" lon="-2.70593">
        <ele>81</ele>
        <time>2013-11-22T10:38:13Z</time>
      </trkpt>
      <trkpt lat="48.49018" lon="-2.70594">
        <ele>81</ele>
        <time>2013-11-22T10:38:14Z</time>
      </trkpt>
      <trkpt lat="48.49016" lon="-2.70597">
        <ele>81</ele>
        <time>2013-11-22T10:38:16Z</time>
      </trkpt>
      <trkpt lat="48.49015" lon="-2.70599">
        <ele>81</ele>
        <time>2013-11-22T10:38:17Z</time>
      </trkpt>
      <trkpt lat="48.49012" lon="-2.70602">
        <ele>81</ele>
        <time>2013-11-22T10:38:19Z</time>
      </trkpt>
      <trkpt lat="48.49011" lon="-2.70603">
        <ele>81</ele>
        <time>2013-11-22T10:38:20Z</time>
      </trkpt>
      <trkpt lat="48.49009" lon="-2.70606">
        <ele>81</ele>
        <time>2013-11-22T10:38:22Z</time>
      </trkpt>
      <trkpt lat="48.49007" lon="-2.70609">
        <ele>81</ele>
        <time>2013-11-22T10:38:24Z</time>
      </trkpt>
      <trkpt lat="48.49005" lon="-2.70612">
        <ele>81</ele>
        <time>2013-11-22T10:38:26Z</time>
      </trkpt>
      <trkpt lat="48.49003" lon="-2.70615">
        <ele>81</ele>
        <time>2013-11-22T10:38:28Z</time>
      </trkpt>
      <trkpt lat="48.49001" lon="-2.70618">
        <ele>81</ele>
        <time>2013-11-22T10:38:30Z</time>
      </trkpt>
      <trkpt lat="48.48999" lon="-2.7062">
        <ele>81</ele>
        <time>2013-11-22T10:38:32Z</time>
      </trkpt>
      <trkpt lat="48.48997" lon="-2.70623">
        <ele>81</ele>
        <time>2013-11-22T10:38:34Z</time>
      </trkpt>
      <trkpt lat="48.48996" lon="-2.70624">
        <ele>81</ele>
        <time>2013-11-22T10:38:35Z</time>
      </trkpt>
      <trkpt lat="48.48994" lon="-2.70628">
        <ele>81</ele>
        <time>2013-11-22T10:38:37Z</time>
      </trkpt>
      <trkpt lat="48.48992" lon="-2.7063">
        <ele>81</ele>
        <time>2013-11-22T10:38:39Z</time>
      </trkpt>
      <trkpt lat="48.4899" lon="-2.70633">
        <ele>81</ele>
        <time>2013-11-22T10:38:41Z</time>
      </trkpt>
      <trkpt lat="48.48988" lon="-2.70636">
        <ele>81</ele>
        <time>2013-11-22T10:38:43Z</time>
      </trkpt>
      <trkpt lat="48.48986" lon="-2.70638">
        <ele>81</ele>
        <time>2013-11-22T10:38:45Z</time>
      </trkpt>
      <trkpt lat="48.48984" lon="-2.7064">
        <ele>81</ele>
        <time>2013-11-22T10:38:47Z</time>
      </trkpt>
      <trkpt lat="48.48983" lon="-2.70643">
        <ele>81</ele>
        <time>2013-11-22T10:38:49Z</time>
      </trkpt>
      <trkpt lat="48.4898" lon="-2.70645">
        <ele>81</ele>
        <time>2013-11-22T10:38:51Z</time>
      </trkpt>
      <trkpt lat="48.48979" lon="-2.70647">
        <ele>81</ele>
        <time>2013-11-22T10:38:52Z</time>
      </trkpt>
      <trkpt lat="48.48978" lon="-2.70648">
        <ele>81</ele>
        <time>2013-11-22T10:38:53Z</time>
      </trkpt>
      <trkpt lat="48.48977" lon="-2.70649">
        <ele>81</ele>
        <time>2013-11-22T10:38:54Z</time>
      </trkpt>
      <trkpt lat="48.48976" lon="-2.7065">
        <ele>81</ele>
        <time>2013-11-22T10:38:55Z</time>
      </trkpt>
      <trkpt lat="48.48975" lon="-2.70651">
        <ele>81</ele>
        <time>2013-11-22T10:38:56Z</time>
      </trkpt>
      <trkpt lat="48.48973" lon="-2.70652">
        <ele>81</ele>
        <time>2013-11-22T10:38:57Z</time>
      </trkpt>
      <trkpt lat="48.48972" lon="-2.70653">
        <ele>81</ele>
        <time>2013-11-22T10:38:58Z</time>
      </trkpt>
      <trkpt lat="48.48971" lon="-2.70653">
        <ele>81</ele>
        <time>2013-11-22T10:38:59Z</time>
      </trkpt>
      <trkpt lat="48.4897" lon="-2.70654">
        <ele>81</ele>
        <time>2013-11-22T10:39:00Z</time>
      </trkpt>
      <trkpt lat="48.48969" lon="-2.70655">
        <ele>81</ele>
        <time>2013-11-22T10:39:01Z</time>
      </trkpt>
      <trkpt lat="48.48967" lon="-2.70656">
        <ele>81</ele>
        <time>2013-11-22T10:39:02Z</time>
      </trkpt>
      <trkpt lat="48.48966" lon="-2.70657">
        <ele>81</ele>
        <time>2013-11-22T10:39:03Z</time>
      </trkpt>
      <trkpt lat="48.48965" lon="-2.70657">
        <ele>81</ele>
        <time>2013-11-22T10:39:04Z</time>
      </trkpt>
      <trkpt lat="48.48963" lon="-2.70658">
        <ele>81</ele>
        <time>2013-11-22T10:39:05Z</time>
      </trkpt>
      <trkpt lat="48.48962" lon="-2.70658">
        <ele>81</ele>
        <time>2013-11-22T10:39:06Z</time>
      </trkpt>
      <trkpt lat="48.48961" lon="-2.70659">
        <ele>81</ele>
        <time>2013-11-22T10:39:07Z</time>
      </trkpt>
      <trkpt lat="48.48959" lon="-2.70659">
        <ele>81</ele>
        <time>2013-11-22T10:39:08Z</time>
      </trkpt>
      <trkpt lat="48.48958" lon="-2.7066">
        <ele>81</ele>
        <time>2013-11-22T10:39:09Z</time>
      </trkpt>
      <trkpt lat="48.48956" lon="-2.70661">
        <ele>81</ele>
        <time>2013-11-22T10:39:10Z</time>
      </trkpt>
      <trkpt lat="48.48955" lon="-2.70661">
        <ele>81</ele>
        <time>2013-11-22T10:39:11Z</time>
      </trkpt>
      <trkpt lat="48.48954" lon="-2.70661">
        <ele>81</ele>
        <time>2013-11-22T10:39:12Z</time>
      </trkpt>
      <trkpt lat="48.48952" lon="-2.70662">
        <ele>81</ele>
        <time>2013-11-22T10:39:13Z</time>
      </trkpt>
      <trkpt lat="48.48951" lon="-2.70662">
        <ele>81</ele>
        <time>2013-11-22T10:39:14Z</time>
      </trkpt>
      <trkpt lat="48.48949" lon="-2.70662">
        <ele>81</ele>
        <time>2013-11-22T10:39:15Z</time>
      </trkpt>
      <trkpt lat="48.48945" lon="-2.70662">
        <ele>81</ele>
        <time>2013-11-22T10:39:18Z</time>
      </trkpt>
      <trkpt lat="48.48942" lon="-2.70662">
        <ele>81</ele>
        <time>2013-11-22T10:39:20Z</time>
      </trkpt>
      <trkpt lat="48.48941" lon="-2.70661">
        <ele>81</ele>
        <time>2013-11-22T10:39:21Z</time>
      </trkpt>
      <trkpt lat="48.48938" lon="-2.70661">
        <ele>82</ele>
        <time>2013-11-22T10:39:23Z</time>
      </trkpt>
      <trkpt lat="48.48935" lon="-2.70661">
        <ele>82</ele>
        <time>2013-11-22T10:39:25Z</time>
      </trkpt>
      <trkpt lat="48.48934" lon="-2.70661">
        <ele>82</ele>
        <time>2013-11-22T10:39:26Z</time>
      </trkpt>
      <trkpt lat="48.48932" lon="-2.70661">
        <ele>82</ele>
        <time>2013-11-22T10:39:27Z</time>
      </trkpt>
      <trkpt lat="48.48931" lon="-2.7066">
        <ele>82</ele>
        <time>2013-11-22T10:39:28Z</time>
      </trkpt>
      <trkpt lat="48.48929" lon="-2.7066">
        <ele>82</ele>
        <time>2013-11-22T10:39:29Z</time>
      </trkpt>
      <trkpt lat="48.48928" lon="-2.7066">
        <ele>82</ele>
        <time>2013-11-22T10:39:30Z</time>
      </trkpt>
      <trkpt lat="48.48927" lon="-2.7066">
        <ele>82</ele>
        <time>2013-11-22T10:39:31Z</time>
      </trkpt>
      <trkpt lat="48.48925" lon="-2.7066">
        <ele>82</ele>
        <time>2013-11-22T10:39:32Z</time>
      </trkpt>
      <trkpt lat="48.48921" lon="-2.70659">
        <ele>82</ele>
        <time>2013-11-22T10:39:35Z</time>
      </trkpt>
      <trkpt lat="48.48919" lon="-2.70659">
        <ele>82</ele>
        <time>2013-11-22T10:39:36Z</time>
      </trkpt>
      <trkpt lat="48.48918" lon="-2.70659">
        <ele>82</ele>
        <time>2013-11-22T10:39:37Z</time>
      </trkpt>
      <trkpt lat="48.48916" lon="-2.70659">
        <ele>82</ele>
        <time>2013-11-22T10:39:38Z</time>
      </trkpt>
      <trkpt lat="48.48914" lon="-2.70659">
        <ele>82</ele>
        <time>2013-11-22T10:39:40Z</time>
      </trkpt>
      <trkpt lat="48.48912" lon="-2.70658">
        <ele>83</ele>
        <time>2013-11-22T10:39:41Z</time>
      </trkpt>
      <trkpt lat="48.48911" lon="-2.70658">
        <ele>83</ele>
        <time>2013-11-22T10:39:42Z</time>
      </trkpt>
      <trkpt lat="48.48908" lon="-2.70658">
        <ele>83</ele>
        <time>2013-11-22T10:39:44Z</time>
      </trkpt>
      <trkpt lat="48.48907" lon="-2.70658">
        <ele>83</ele>
        <time>2013-11-22T10:39:45Z</time>
      </trkpt>
      <trkpt lat="48.48905" lon="-2.70658">
        <ele>83</ele>
        <time>2013-11-22T10:39:46Z</time>
      </trkpt>
      <trkpt lat="48.48904" lon="-2.70657">
        <ele>83</ele>
        <time>2013-11-22T10:39:47Z</time>
      </trkpt>
      <trkpt lat="48.48903" lon="-2.70657">
        <ele>83</ele>
        <time>2013-11-22T10:39:48Z</time>
      </trkpt>
      <trkpt lat="48.48901" lon="-2.70657">
        <ele>83</ele>
        <time>2013-11-22T10:39:49Z</time>
      </trkpt>
      <trkpt lat="48.489" lon="-2.70657">
        <ele>83</ele>
        <time>2013-11-22T10:39:50Z</time>
      </trkpt>
      <trkpt lat="48.48898" lon="-2.70657">
        <ele>83</ele>
        <time>2013-11-22T10:39:51Z</time>
      </trkpt>
      <trkpt lat="48.48897" lon="-2.70656">
        <ele>83</ele>
        <time>2013-11-22T10:39:52Z</time>
      </trkpt>
      <trkpt lat="48.48896" lon="-2.70656">
        <ele>83</ele>
        <time>2013-11-22T10:39:53Z</time>
      </trkpt>
      <trkpt lat="48.48894" lon="-2.70656">
        <ele>83</ele>
        <time>2013-11-22T10:39:54Z</time>
      </trkpt>
      <trkpt lat="48.48893" lon="-2.70656">
        <ele>83</ele>
        <time>2013-11-22T10:39:55Z</time>
      </trkpt>
      <trkpt lat="48.48891" lon="-2.70656">
        <ele>83</ele>
        <time>2013-11-22T10:39:56Z</time>
      </trkpt>
      <trkpt lat="48.4889" lon="-2.70656">
        <ele>84</ele>
        <time>2013-11-22T10:39:59Z</time>
      </trkpt>
      <trkpt lat="48.48889" lon="-2.70655">
        <ele>84</ele>
        <time>2013-11-22T10:40:01Z</time>
      </trkpt>
      <trkpt lat="48.48887" lon="-2.70655">
        <ele>84</ele>
        <time>2013-11-22T10:40:03Z</time>
      </trkpt>
      <trkpt lat="48.48885" lon="-2.70654">
        <ele>84</ele>
        <time>2013-11-22T10:40:04Z</time>
      </trkpt>
      <trkpt lat="48.48884" lon="-2.70654">
        <ele>84</ele>
        <time>2013-11-22T10:40:05Z</time>
      </trkpt>
      <trkpt lat="48.48883" lon="-2.70653">
        <ele>84</ele>
        <time>2013-11-22T10:40:06Z</time>
      </trkpt>
      <trkpt lat="48.48882" lon="-2.70653">
        <ele>84</ele>
        <time>2013-11-22T10:40:07Z</time>
      </trkpt>
      <trkpt lat="48.4888" lon="-2.70652">
        <ele>84</ele>
        <time>2013-11-22T10:40:08Z</time>
      </trkpt>
      <trkpt lat="48.48879" lon="-2.70651">
        <ele>84</ele>
        <time>2013-11-22T10:40:09Z</time>
      </trkpt>
      <trkpt lat="48.48878" lon="-2.70651">
        <ele>84</ele>
        <time>2013-11-22T10:40:10Z</time>
      </trkpt>
      <trkpt lat="48.48877" lon="-2.70651">
        <ele>84</ele>
        <time>2013-11-22T10:40:11Z</time>
      </trkpt>
      <trkpt lat="48.48875" lon="-2.7065">
        <ele>84</ele>
        <time>2013-11-22T10:40:13Z</time>
      </trkpt>
      <trkpt lat="48.48872" lon="-2.70649">
        <ele>84</ele>
        <time>2013-11-22T10:40:15Z</time>
      </trkpt>
      <trkpt lat="48.48871" lon="-2.70648">
        <ele>84</ele>
        <time>2013-11-22T10:40:16Z</time>
      </trkpt>
      <trkpt lat="48.4887" lon="-2.70647">
        <ele>84</ele>
        <time>2013-11-22T10:40:17Z</time>
      </trkpt>
      <trkpt lat="48.48869" lon="-2.70646">
        <ele>84</ele>
        <time>2013-11-22T10:40:18Z</time>
      </trkpt>
      <trkpt lat="48.48867" lon="-2.70646">
        <ele>84</ele>
        <time>2013-11-22T10:40:19Z</time>
      </trkpt>
      <trkpt lat="48.48866" lon="-2.70645">
        <ele>84</ele>
        <time>2013-11-22T10:40:20Z</time>
      </trkpt>
      <trkpt lat="48.48865" lon="-2.70644">
        <ele>84</ele>
        <time>2013-11-22T10:40:21Z</time>
      </trkpt>
      <trkpt lat="48.48864" lon="-2.70643">
        <ele>84</ele>
        <time>2013-11-22T10:40:22Z</time>
      </trkpt>
      <trkpt lat="48.48862" lon="-2.70642">
        <ele>84</ele>
        <time>2013-11-22T10:40:23Z</time>
      </trkpt>
      <trkpt lat="48.48861" lon="-2.70641">
        <ele>84</ele>
        <time>2013-11-22T10:40:24Z</time>
      </trkpt>
      <trkpt lat="48.4886" lon="-2.7064">
        <ele>84</ele>
        <time>2013-11-22T10:40:26Z</time>
      </trkpt>
      <trkpt lat="48.48858" lon="-2.70639">
        <ele>84</ele>
        <time>2013-11-22T10:40:28Z</time>
      </trkpt>
      <trkpt lat="48.48856" lon="-2.70637">
        <ele>85</ele>
        <time>2013-11-22T10:40:30Z</time>
      </trkpt>
      <trkpt lat="48.48855" lon="-2.70635">
        <ele>85</ele>
        <time>2013-11-22T10:40:32Z</time>
      </trkpt>
      <trkpt lat="48.48853" lon="-2.70633">
        <ele>85</ele>
        <time>2013-11-22T10:40:34Z</time>
      </trkpt>
      <trkpt lat="48.48852" lon="-2.70632">
        <ele>85</ele>
        <time>2013-11-22T10:40:35Z</time>
      </trkpt>
      <trkpt lat="48.48851" lon="-2.70631">
        <ele>85</ele>
        <time>2013-11-22T10:40:36Z</time>
      </trkpt>
      <trkpt lat="48.48848" lon="-2.70628">
        <ele>85</ele>
        <time>2013-11-22T10:40:38Z</time>
      </trkpt>
      <trkpt lat="48.48846" lon="-2.70626">
        <ele>85</ele>
        <time>2013-11-22T10:40:40Z</time>
      </trkpt>
      <trkpt lat="48.48845" lon="-2.70624">
        <ele>85</ele>
        <time>2013-11-22T10:40:41Z</time>
      </trkpt>
      <trkpt lat="48.48843" lon="-2.70621">
        <ele>85</ele>
        <time>2013-11-22T10:40:43Z</time>
      </trkpt>
      <trkpt lat="48.48842" lon="-2.7062">
        <ele>85</ele>
        <time>2013-11-22T10:40:44Z</time>
      </trkpt>
      <trkpt lat="48.4884" lon="-2.70619">
        <ele>85</ele>
        <time>2013-11-22T10:40:45Z</time>
      </trkpt>
      <trkpt lat="48.48839" lon="-2.70618">
        <ele>85</ele>
        <time>2013-11-22T10:40:46Z</time>
      </trkpt>
      <trkpt lat="48.48837" lon="-2.70616">
        <ele>85</ele>
        <time>2013-11-22T10:40:48Z</time>
      </trkpt>
      <trkpt lat="48.48835" lon="-2.70613">
        <ele>85</ele>
        <time>2013-11-22T10:40:50Z</time>
      </trkpt>
      <trkpt lat="48.48833" lon="-2.70611">
        <ele>85</ele>
        <time>2013-11-22T10:40:52Z</time>
      </trkpt>
      <trkpt lat="48.48832" lon="-2.70609">
        <ele>85</ele>
        <time>2013-11-22T10:40:53Z</time>
      </trkpt>
      <trkpt lat="48.48831" lon="-2.70608">
        <ele>85</ele>
        <time>2013-11-22T10:40:54Z</time>
      </trkpt>
      <trkpt lat="48.4883" lon="-2.70607">
        <ele>85</ele>
        <time>2013-11-22T10:40:55Z</time>
      </trkpt>
      <trkpt lat="48.48828" lon="-2.70605">
        <ele>85</ele>
        <time>2013-11-22T10:40:57Z</time>
      </trkpt>
      <trkpt lat="48.48826" lon="-2.70602">
        <ele>85</ele>
        <time>2013-11-22T10:40:59Z</time>
      </trkpt>
      <trkpt lat="48.48824" lon="-2.706">
        <ele>85</ele>
        <time>2013-11-22T10:41:01Z</time>
      </trkpt>
      <trkpt lat="48.48822" lon="-2.70597">
        <ele>85</ele>
        <time>2013-11-22T10:41:03Z</time>
      </trkpt>
      <trkpt lat="48.48821" lon="-2.70596">
        <ele>85</ele>
        <time>2013-11-22T10:41:04Z</time>
      </trkpt>
      <trkpt lat="48.48819" lon="-2.70595">
        <ele>85</ele>
        <time>2013-11-22T10:41:05Z</time>
      </trkpt>
      <trkpt lat="48.48818" lon="-2.70594">
        <ele>85</ele>
        <time>2013-11-22T10:41:06Z</time>
      </trkpt>
      <trkpt lat="48.48817" lon="-2.70593">
        <ele>85</ele>
        <time>2013-11-22T10:41:07Z</time>
      </trkpt>
      <trkpt lat="48.48816" lon="-2.70592">
        <ele>85</ele>
        <time>2013-11-22T10:41:08Z</time>
      </trkpt>
      <trkpt lat="48.48814" lon="-2.70591">
        <ele>85</ele>
        <time>2013-11-22T10:41:10Z</time>
      </trkpt>
      <trkpt lat="48.48813" lon="-2.7059">
        <ele>85</ele>
        <time>2013-11-22T10:41:17Z</time>
      </trkpt>
      <trkpt lat="48.48812" lon="-2.70589">
        <ele>85</ele>
        <time>2013-11-22T10:41:19Z</time>
      </trkpt>
      <trkpt lat="48.4881" lon="-2.70587">
        <ele>85</ele>
        <time>2013-11-22T10:41:26Z</time>
      </trkpt>
      <trkpt lat="48.48809" lon="-2.70586">
        <ele>85</ele>
        <time>2013-11-22T10:41:28Z</time>
      </trkpt>
      <trkpt lat="48.48806" lon="-2.70587">
        <ele>85</ele>
        <time>2013-11-22T10:41:32Z</time>
      </trkpt>
      <trkpt lat="48.48804" lon="-2.70588">
        <ele>86</ele>
        <time>2013-11-22T10:41:34Z</time>
      </trkpt>
      <trkpt lat="48.48802" lon="-2.70589">
        <ele>86</ele>
        <time>2013-11-22T10:41:36Z</time>
      </trkpt>
      <trkpt lat="48.48801" lon="-2.70592">
        <ele>86</ele>
        <time>2013-11-22T10:41:38Z</time>
      </trkpt>
      <trkpt lat="48.488" lon="-2.70595">
        <ele>86</ele>
        <time>2013-11-22T10:41:40Z</time>
      </trkpt>
      <trkpt lat="48.48799" lon="-2.70597">
        <ele>87</ele>
        <time>2013-11-22T10:41:41Z</time>
      </trkpt>
      <trkpt lat="48.48798" lon="-2.70599">
        <ele>87</ele>
        <time>2013-11-22T10:41:42Z</time>
      </trkpt>
      <trkpt lat="48.48798" lon="-2.70603">
        <ele>87</ele>
        <time>2013-11-22T10:41:44Z</time>
      </trkpt>
      <trkpt lat="48.48797" lon="-2.70605">
        <ele>87</ele>
        <time>2013-11-22T10:41:45Z</time>
      </trkpt>
      <trkpt lat="48.48797" lon="-2.70607">
        <ele>87</ele>
        <time>2013-11-22T10:41:46Z</time>
      </trkpt>
      <trkpt lat="48.48796" lon="-2.70609">
        <ele>87</ele>
        <time>2013-11-22T10:41:47Z</time>
      </trkpt>
      <trkpt lat="48.48796" lon="-2.7061">
        <ele>87</ele>
        <time>2013-11-22T10:41:48Z</time>
      </trkpt>
      <trkpt lat="48.48795" lon="-2.70612">
        <ele>87</ele>
        <time>2013-11-22T10:41:49Z</time>
      </trkpt>
      <trkpt lat="48.48795" lon="-2.70614">
        <ele>87</ele>
        <time>2013-11-22T10:41:50Z</time>
      </trkpt>
      <trkpt lat="48.48795" lon="-2.70622">
        <ele>88</ele>
        <time>2013-11-22T10:41:54Z</time>
      </trkpt>
      <trkpt lat="48.48795" lon="-2.70637">
        <ele>88</ele>
        <time>2013-11-22T10:42:02Z</time>
      </trkpt>
      <trkpt lat="48.48795" lon="-2.70641">
        <ele>88</ele>
        <time>2013-11-22T10:42:05Z</time>
      </trkpt>
      <trkpt lat="48.48794" lon="-2.70643">
        <ele>88</ele>
        <time>2013-11-22T10:42:06Z</time>
      </trkpt>
      <trkpt lat="48.48794" lon="-2.70647">
        <ele>89</ele>
        <time>2013-11-22T10:42:08Z</time>
      </trkpt>
      <trkpt lat="48.48793" lon="-2.70651">
        <ele>89</ele>
        <time>2013-11-22T10:42:10Z</time>
      </trkpt>
      <trkpt lat="48.48793" lon="-2.70655">
        <ele>89</ele>
        <time>2013-11-22T10:42:12Z</time>
      </trkpt>
      <trkpt lat="48.48793" lon="-2.70656">
        <ele>89</ele>
        <time>2013-11-22T10:42:13Z</time>
      </trkpt>
      <trkpt lat="48.48792" lon="-2.70665">
        <ele>89</ele>
        <time>2013-11-22T10:42:17Z</time>
      </trkpt>
      <trkpt lat="48.48792" lon="-2.70675">
        <ele>90</ele>
        <time>2013-11-22T10:42:22Z</time>
      </trkpt>
      <trkpt lat="48.48792" lon="-2.70701">
        <ele>91</ele>
        <time>2013-11-22T10:42:36Z</time>
      </trkpt>
      <trkpt lat="48.48793" lon="-2.70712">
        <ele>91</ele>
        <time>2013-11-22T10:42:42Z</time>
      </trkpt>
      <trkpt lat="48.48793" lon="-2.7072">
        <ele>92</ele>
        <time>2013-11-22T10:42:46Z</time>
      </trkpt>
      <trkpt lat="48.48793" lon="-2.70724">
        <ele>92</ele>
        <time>2013-11-22T10:42:48Z</time>
      </trkpt>
      <trkpt lat="48.48794" lon="-2.70726">
        <ele>92</ele>
        <time>2013-11-22T10:42:49Z</time>
      </trkpt>
      <trkpt lat="48.48793" lon="-2.70729">
        <ele>92</ele>
        <time>2013-11-22T10:42:51Z</time>
      </trkpt>
      <trkpt lat="48.48792" lon="-2.70732">
        <ele>92</ele>
        <time>2013-11-22T10:42:53Z</time>
      </trkpt>
      <trkpt lat="48.4879" lon="-2.70735">
        <ele>92</ele>
        <time>2013-11-22T10:42:55Z</time>
      </trkpt>
      <trkpt lat="48.4879" lon="-2.70737">
        <ele>92</ele>
        <time>2013-11-22T10:42:56Z</time>
      </trkpt>
      <trkpt lat="48.48789" lon="-2.70739">
        <ele>92</ele>
        <time>2013-11-22T10:42:57Z</time>
      </trkpt>
      <trkpt lat="48.48789" lon="-2.70741">
        <ele>92</ele>
        <time>2013-11-22T10:42:58Z</time>
      </trkpt>
      <trkpt lat="48.48789" lon="-2.70749">
        <ele>93</ele>
        <time>2013-11-22T10:43:02Z</time>
      </trkpt>
      <trkpt lat="48.4879" lon="-2.70753">
        <ele>93</ele>
        <time>2013-11-22T10:43:04Z</time>
      </trkpt>
      <trkpt lat="48.4879" lon="-2.70757">
        <ele>93</ele>
        <time>2013-11-22T10:43:06Z</time>
      </trkpt>
      <trkpt lat="48.4879" lon="-2.70758">
        <ele>93</ele>
        <time>2013-11-22T10:43:07Z</time>
      </trkpt>
      <trkpt lat="48.48791" lon="-2.7076">
        <ele>93</ele>
        <time>2013-11-22T10:43:08Z</time>
      </trkpt>
      <trkpt lat="48.48791" lon="-2.70763">
        <ele>93</ele>
        <time>2013-11-22T10:43:10Z</time>
      </trkpt>
      <trkpt lat="48.48792" lon="-2.70765">
        <ele>93</ele>
        <time>2013-11-22T10:43:17Z</time>
      </trkpt>
      <trkpt lat="48.48792" lon="-2.70767">
        <ele>93</ele>
        <time>2013-11-22T10:43:18Z</time>
      </trkpt>
      <trkpt lat="48.48792" lon="-2.7077">
        <ele>93</ele>
        <time>2013-11-22T10:43:20Z</time>
      </trkpt>
      <trkpt lat="48.48793" lon="-2.70774">
        <ele>93</ele>
        <time>2013-11-22T10:43:22Z</time>
      </trkpt>
      <trkpt lat="48.48793" lon="-2.70778">
        <ele>93</ele>
        <time>2013-11-22T10:43:24Z</time>
      </trkpt>
      <trkpt lat="48.48793" lon="-2.7078">
        <ele>93</ele>
        <time>2013-11-22T10:43:25Z</time>
      </trkpt>
      <trkpt lat="48.48794" lon="-2.70786">
        <ele>93</ele>
        <time>2013-11-22T10:43:28Z</time>
      </trkpt>
      <trkpt lat="48.48794" lon="-2.70788">
        <ele>93</ele>
        <time>2013-11-22T10:43:29Z</time>
      </trkpt>
      <trkpt lat="48.48795" lon="-2.70794">
        <ele>93</ele>
        <time>2013-11-22T10:43:32Z</time>
      </trkpt>
      <trkpt lat="48.48795" lon="-2.70795">
        <ele>93</ele>
        <time>2013-11-22T10:43:33Z</time>
      </trkpt>
      <trkpt lat="48.48795" lon="-2.70797">
        <ele>93</ele>
        <time>2013-11-22T10:43:34Z</time>
      </trkpt>
      <trkpt lat="48.48796" lon="-2.70799">
        <ele>93</ele>
        <time>2013-11-22T10:43:35Z</time>
      </trkpt>
      <trkpt lat="48.48796" lon="-2.70803">
        <ele>93</ele>
        <time>2013-11-22T10:43:37Z</time>
      </trkpt>
      <trkpt lat="48.48796" lon="-2.70805">
        <ele>93</ele>
        <time>2013-11-22T10:43:38Z</time>
      </trkpt>
      <trkpt lat="48.48797" lon="-2.70808">
        <ele>93</ele>
        <time>2013-11-22T10:43:40Z</time>
      </trkpt>
      <trkpt lat="48.48796" lon="-2.70814">
        <ele>93</ele>
        <time>2013-11-22T10:43:43Z</time>
      </trkpt>
      <trkpt lat="48.48796" lon="-2.70825">
        <ele>93</ele>
        <time>2013-11-22T10:43:49Z</time>
      </trkpt>
      <trkpt lat="48.48796" lon="-2.70829">
        <ele>93</ele>
        <time>2013-11-22T10:43:51Z</time>
      </trkpt>
      <trkpt lat="48.48795" lon="-2.7083">
        <ele>94</ele>
        <time>2013-11-22T10:43:52Z</time>
      </trkpt>
      <trkpt lat="48.48795" lon="-2.70839">
        <ele>94</ele>
        <time>2013-11-22T10:43:58Z</time>
      </trkpt>
      <trkpt lat="48.48795" lon="-2.70841">
        <ele>94</ele>
        <time>2013-11-22T10:44:10Z</time>
      </trkpt>
      <trkpt lat="48.48795" lon="-2.70845">
        <ele>94</ele>
        <time>2013-11-22T10:44:12Z</time>
      </trkpt>
      <trkpt lat="48.48795" lon="-2.70849">
        <ele>94</ele>
        <time>2013-11-22T10:44:14Z</time>
      </trkpt>
      <trkpt lat="48.48794" lon="-2.70855">
        <ele>94</ele>
        <time>2013-11-22T10:44:17Z</time>
      </trkpt>
      <trkpt lat="48.48794" lon="-2.70857">
        <ele>94</ele>
        <time>2013-11-22T10:44:18Z</time>
      </trkpt>
      <trkpt lat="48.48793" lon="-2.70859">
        <ele>94</ele>
        <time>2013-11-22T10:44:19Z</time>
      </trkpt>
      <trkpt lat="48.48793" lon="-2.70863">
        <ele>94</ele>
        <time>2013-11-22T10:44:21Z</time>
      </trkpt>
      <trkpt lat="48.48793" lon="-2.70865">
        <ele>94</ele>
        <time>2013-11-22T10:44:22Z</time>
      </trkpt>
      <trkpt lat="48.48792" lon="-2.70869">
        <ele>94</ele>
        <time>2013-11-22T10:44:24Z</time>
      </trkpt>
      <trkpt lat="48.48792" lon="-2.70871">
        <ele>94</ele>
        <time>2013-11-22T10:44:25Z</time>
      </trkpt>
      <trkpt lat="48.48791" lon="-2.70873">
        <ele>94</ele>
        <time>2013-11-22T10:44:26Z</time>
      </trkpt>
      <trkpt lat="48.4879" lon="-2.70874">
        <ele>94</ele>
        <time>2013-11-22T10:44:27Z</time>
      </trkpt>
      <trkpt lat="48.48789" lon="-2.70877">
        <ele>94</ele>
        <time>2013-11-22T10:44:29Z</time>
      </trkpt>
      <trkpt lat="48.48788" lon="-2.70881">
        <ele>94</ele>
        <time>2013-11-22T10:44:31Z</time>
      </trkpt>
      <trkpt lat="48.48788" lon="-2.70883">
        <ele>94</ele>
        <time>2013-11-22T10:44:32Z</time>
      </trkpt>
      <trkpt lat="48.48787" lon="-2.70887">
        <ele>94</ele>
        <time>2013-11-22T10:44:34Z</time>
      </trkpt>
      <trkpt lat="48.48787" lon="-2.70889">
        <ele>94</ele>
        <time>2013-11-22T10:44:35Z</time>
      </trkpt>
      <trkpt lat="48.48786" lon="-2.70891">
        <ele>94</ele>
        <time>2013-11-22T10:44:36Z</time>
      </trkpt>
      <trkpt lat="48.48786" lon="-2.70899">
        <ele>94</ele>
        <time>2013-11-22T10:44:40Z</time>
      </trkpt>
      <trkpt lat="48.48785" lon="-2.70901">
        <ele>94</ele>
        <time>2013-11-22T10:44:41Z</time>
      </trkpt>
      <trkpt lat="48.48785" lon="-2.70903">
        <ele>94</ele>
        <time>2013-11-22T10:44:42Z</time>
      </trkpt>
      <trkpt lat="48.48784" lon="-2.70907">
        <ele>94</ele>
        <time>2013-11-22T10:44:44Z</time>
      </trkpt>
      <trkpt lat="48.48784" lon="-2.70909">
        <ele>94</ele>
        <time>2013-11-22T10:44:45Z</time>
      </trkpt>
      <trkpt lat="48.48783" lon="-2.70913">
        <ele>94</ele>
        <time>2013-11-22T10:44:47Z</time>
      </trkpt>
      <trkpt lat="48.48783" lon="-2.70915">
        <ele>94</ele>
        <time>2013-11-22T10:44:48Z</time>
      </trkpt>
      <trkpt lat="48.48783" lon="-2.70917">
        <ele>94</ele>
        <time>2013-11-22T10:44:49Z</time>
      </trkpt>
      <trkpt lat="48.48782" lon="-2.70919">
        <ele>94</ele>
        <time>2013-11-22T10:44:50Z</time>
      </trkpt>
      <trkpt lat="48.48782" lon="-2.70922">
        <ele>94</ele>
        <time>2013-11-22T10:44:52Z</time>
      </trkpt>
      <trkpt lat="48.48782" lon="-2.70926">
        <ele>94</ele>
        <time>2013-11-22T10:44:54Z</time>
      </trkpt>
      <trkpt lat="48.48781" lon="-2.7093">
        <ele>94</ele>
        <time>2013-11-22T10:44:56Z</time>
      </trkpt>
      <trkpt lat="48.48781" lon="-2.70936">
        <ele>94</ele>
        <time>2013-11-22T10:44:59Z</time>
      </trkpt>
      <trkpt lat="48.4878" lon="-2.7094">
        <ele>94</ele>
        <time>2013-11-22T10:45:02Z</time>
      </trkpt>
      <trkpt lat="48.4878" lon="-2.70944">
        <ele>94</ele>
        <time>2013-11-22T10:45:04Z</time>
      </trkpt>
      <trkpt lat="48.4878" lon="-2.7095">
        <ele>94</ele>
        <time>2013-11-22T10:45:07Z</time>
      </trkpt>
      <trkpt lat="48.48779" lon="-2.70954">
        <ele>94</ele>
        <time>2013-11-22T10:45:09Z</time>
      </trkpt>
      <trkpt lat="48.48779" lon="-2.70958">
        <ele>94</ele>
        <time>2013-11-22T10:45:11Z</time>
      </trkpt>
      <trkpt lat="48.48778" lon="-2.7096">
        <ele>94</ele>
        <time>2013-11-22T10:45:12Z</time>
      </trkpt>
      <trkpt lat="48.48778" lon="-2.70967">
        <ele>94</ele>
        <time>2013-11-22T10:45:15Z</time>
      </trkpt>
      <trkpt lat="48.48777" lon="-2.70968">
        <ele>94</ele>
        <time>2013-11-22T10:45:16Z</time>
      </trkpt>
      <trkpt lat="48.48777" lon="-2.7097">
        <ele>94</ele>
        <time>2013-11-22T10:45:17Z</time>
      </trkpt>
      <trkpt lat="48.48777" lon="-2.70972">
        <ele>94</ele>
        <time>2013-11-22T10:45:18Z</time>
      </trkpt>
      <trkpt lat="48.48776" lon="-2.70977">
        <ele>94</ele>
        <time>2013-11-22T10:45:20Z</time>
      </trkpt>
      <trkpt lat="48.48775" lon="-2.70979">
        <ele>94</ele>
        <time>2013-11-22T10:45:21Z</time>
      </trkpt>
      <trkpt lat="48.48775" lon="-2.70982">
        <ele>94</ele>
        <time>2013-11-22T10:45:22Z</time>
      </trkpt>
      <trkpt lat="48.48775" lon="-2.70984">
        <ele>94</ele>
        <time>2013-11-22T10:45:23Z</time>
      </trkpt>
      <trkpt lat="48.48775" lon="-2.70986">
        <ele>94</ele>
        <time>2013-11-22T10:45:24Z</time>
      </trkpt>
      <trkpt lat="48.48775" lon="-2.7099">
        <ele>94</ele>
        <time>2013-11-22T10:45:26Z</time>
      </trkpt>
      <trkpt lat="48.48775" lon="-2.70993">
        <ele>94</ele>
        <time>2013-11-22T10:45:28Z</time>
      </trkpt>
      <trkpt lat="48.48775" lon="-2.70996">
        <ele>94</ele>
        <time>2013-11-22T10:45:29Z</time>
      </trkpt>
      <trkpt lat="48.48774" lon="-2.70998">
        <ele>94</ele>
        <time>2013-11-22T10:45:30Z</time>
      </trkpt>
      <trkpt lat="48.48774" lon="-2.71002">
        <ele>94</ele>
        <time>2013-11-22T10:45:32Z</time>
      </trkpt>
      <trkpt lat="48.48774" lon="-2.71009">
        <ele>94</ele>
        <time>2013-11-22T10:45:36Z</time>
      </trkpt>
      <trkpt lat="48.48773" lon="-2.71014">
        <ele>94</ele>
        <time>2013-11-22T10:45:38Z</time>
      </trkpt>
      <trkpt lat="48.48773" lon="-2.71016">
        <ele>94</ele>
        <time>2013-11-22T10:45:39Z</time>
      </trkpt>
      <trkpt lat="48.48772" lon="-2.71022">
        <ele>94</ele>
        <time>2013-11-22T10:45:42Z</time>
      </trkpt>
      <trkpt lat="48.48771" lon="-2.71025">
        <ele>94</ele>
        <time>2013-11-22T10:45:44Z</time>
      </trkpt>
      <trkpt lat="48.48771" lon="-2.71029">
        <ele>95</ele>
        <time>2013-11-22T10:45:46Z</time>
      </trkpt>
      <trkpt lat="48.48771" lon="-2.71031">
        <ele>95</ele>
        <time>2013-11-22T10:45:47Z</time>
      </trkpt>
      <trkpt lat="48.4877" lon="-2.71033">
        <ele>95</ele>
        <time>2013-11-22T10:45:48Z</time>
      </trkpt>
      <trkpt lat="48.48769" lon="-2.71037">
        <ele>95</ele>
        <time>2013-11-22T10:45:50Z</time>
      </trkpt>
      <trkpt lat="48.48769" lon="-2.71038">
        <ele>95</ele>
        <time>2013-11-22T10:45:51Z</time>
      </trkpt>
      <trkpt lat="48.48769" lon="-2.7104">
        <ele>95</ele>
        <time>2013-11-22T10:45:52Z</time>
      </trkpt>
      <trkpt lat="48.48768" lon="-2.71042">
        <ele>95</ele>
        <time>2013-11-22T10:45:53Z</time>
      </trkpt>
      <trkpt lat="48.48768" lon="-2.71044">
        <ele>95</ele>
        <time>2013-11-22T10:45:54Z</time>
      </trkpt>
      <trkpt lat="48.48767" lon="-2.71046">
        <ele>95</ele>
        <time>2013-11-22T10:45:55Z</time>
      </trkpt>
      <trkpt lat="48.48767" lon="-2.71048">
        <ele>95</ele>
        <time>2013-11-22T10:45:56Z</time>
      </trkpt>
      <trkpt lat="48.48766" lon="-2.7105">
        <ele>95</ele>
        <time>2013-11-22T10:45:57Z</time>
      </trkpt>
      <trkpt lat="48.48766" lon="-2.71052">
        <ele>95</ele>
        <time>2013-11-22T10:45:58Z</time>
      </trkpt>
      <trkpt lat="48.48766" lon="-2.71055">
        <ele>96</ele>
        <time>2013-11-22T10:46:00Z</time>
      </trkpt>
      <trkpt lat="48.48765" lon="-2.71059">
        <ele>96</ele>
        <time>2013-11-22T10:46:02Z</time>
      </trkpt>
      <trkpt lat="48.48765" lon="-2.71064">
        <ele>96</ele>
        <time>2013-11-22T10:46:04Z</time>
      </trkpt>
      <trkpt lat="48.48764" lon="-2.71066">
        <ele>96</ele>
        <time>2013-11-22T10:46:05Z</time>
      </trkpt>
      <trkpt lat="48.48764" lon="-2.7107">
        <ele>96</ele>
        <time>2013-11-22T10:46:07Z</time>
      </trkpt>
      <trkpt lat="48.48764" lon="-2.71074">
        <ele>97</ele>
        <time>2013-11-22T10:46:09Z</time>
      </trkpt>
      <trkpt lat="48.48763" lon="-2.71076">
        <ele>97</ele>
        <time>2013-11-22T10:46:10Z</time>
      </trkpt>
      <trkpt lat="48.48763" lon="-2.71078">
        <ele>97</ele>
        <time>2013-11-22T10:46:11Z</time>
      </trkpt>
      <trkpt lat="48.48763" lon="-2.7108">
        <ele>97</ele>
        <time>2013-11-22T10:46:12Z</time>
      </trkpt>
      <trkpt lat="48.48762" lon="-2.71082">
        <ele>97</ele>
        <time>2013-11-22T10:46:13Z</time>
      </trkpt>
      <trkpt lat="48.48762" lon="-2.71084">
        <ele>97</ele>
        <time>2013-11-22T10:46:14Z</time>
      </trkpt>
      <trkpt lat="48.48761" lon="-2.71088">
        <ele>97</ele>
        <time>2013-11-22T10:46:16Z</time>
      </trkpt>
      <trkpt lat="48.48761" lon="-2.7109">
        <ele>97</ele>
        <time>2013-11-22T10:46:17Z</time>
      </trkpt>
      <trkpt lat="48.48761" lon="-2.71092">
        <ele>97</ele>
        <time>2013-11-22T10:46:18Z</time>
      </trkpt>
      <trkpt lat="48.4876" lon="-2.71094">
        <ele>97</ele>
        <time>2013-11-22T10:46:19Z</time>
      </trkpt>
      <trkpt lat="48.4876" lon="-2.71096">
        <ele>97</ele>
        <time>2013-11-22T10:46:20Z</time>
      </trkpt>
      <trkpt lat="48.48759" lon="-2.71098">
        <ele>97</ele>
        <time>2013-11-22T10:46:21Z</time>
      </trkpt>
      <trkpt lat="48.48759" lon="-2.711">
        <ele>97</ele>
        <time>2013-11-22T10:46:22Z</time>
      </trkpt>
      <trkpt lat="48.48759" lon="-2.71102">
        <ele>97</ele>
        <time>2013-11-22T10:46:23Z</time>
      </trkpt>
      <trkpt lat="48.48758" lon="-2.71103">
        <ele>97</ele>
        <time>2013-11-22T10:46:24Z</time>
      </trkpt>
      <trkpt lat="48.48758" lon="-2.71105">
        <ele>97</ele>
        <time>2013-11-22T10:46:25Z</time>
      </trkpt>
      <trkpt lat="48.48758" lon="-2.71107">
        <ele>97</ele>
        <time>2013-11-22T10:46:26Z</time>
      </trkpt>
      <trkpt lat="48.48757" lon="-2.71109">
        <ele>97</ele>
        <time>2013-11-22T10:46:27Z</time>
      </trkpt>
      <trkpt lat="48.48757" lon="-2.71116">
        <ele>97</ele>
        <time>2013-11-22T10:46:31Z</time>
      </trkpt>
      <trkpt lat="48.48756" lon="-2.71119">
        <ele>97</ele>
        <time>2013-11-22T10:46:33Z</time>
      </trkpt>
      <trkpt lat="48.48755" lon="-2.71122">
        <ele>97</ele>
        <time>2013-11-22T10:46:35Z</time>
      </trkpt>
      <trkpt lat="48.48753" lon="-2.71125">
        <ele>97</ele>
        <time>2013-11-22T10:46:37Z</time>
      </trkpt>
      <trkpt lat="48.48753" lon="-2.71127">
        <ele>97</ele>
        <time>2013-11-22T10:46:38Z</time>
      </trkpt>
      <trkpt lat="48.48752" lon="-2.71129">
        <ele>97</ele>
        <time>2013-11-22T10:46:39Z</time>
      </trkpt>
      <trkpt lat="48.48751" lon="-2.7113">
        <ele>97</ele>
        <time>2013-11-22T10:46:40Z</time>
      </trkpt>
      <trkpt lat="48.48751" lon="-2.71132">
        <ele>97</ele>
        <time>2013-11-22T10:46:41Z</time>
      </trkpt>
      <trkpt lat="48.48749" lon="-2.71135">
        <ele>97</ele>
        <time>2013-11-22T10:46:43Z</time>
      </trkpt>
      <trkpt lat="48.48748" lon="-2.71138">
        <ele>97</ele>
        <time>2013-11-22T10:46:45Z</time>
      </trkpt>
      <trkpt lat="48.48748" lon="-2.71145">
        <ele>97</ele>
        <time>2013-11-22T10:46:49Z</time>
      </trkpt>
      <trkpt lat="48.48747" lon="-2.71146">
        <ele>97</ele>
        <time>2013-11-22T10:47:06Z</time>
      </trkpt>
      <trkpt lat="48.48745" lon="-2.71149">
        <ele>97</ele>
        <time>2013-11-22T10:47:08Z</time>
      </trkpt>
      <trkpt lat="48.48744" lon="-2.71152">
        <ele>97</ele>
        <time>2013-11-22T10:47:10Z</time>
      </trkpt>
      <trkpt lat="48.48743" lon="-2.71154">
        <ele>97</ele>
        <time>2013-11-22T10:47:11Z</time>
      </trkpt>
      <trkpt lat="48.48743" lon="-2.71156">
        <ele>97</ele>
        <time>2013-11-22T10:47:12Z</time>
      </trkpt>
      <trkpt lat="48.48742" lon="-2.71157">
        <ele>97</ele>
        <time>2013-11-22T10:47:13Z</time>
      </trkpt>
      <trkpt lat="48.48742" lon="-2.71159">
        <ele>97</ele>
        <time>2013-11-22T10:47:14Z</time>
      </trkpt>
      <trkpt lat="48.48741" lon="-2.71161">
        <ele>97</ele>
        <time>2013-11-22T10:47:15Z</time>
      </trkpt>
      <trkpt lat="48.48741" lon="-2.71165">
        <ele>97</ele>
        <time>2013-11-22T10:47:17Z</time>
      </trkpt>
      <trkpt lat="48.4874" lon="-2.71167">
        <ele>97</ele>
        <time>2013-11-22T10:47:18Z</time>
      </trkpt>
      <trkpt lat="48.4874" lon="-2.71169">
        <ele>97</ele>
        <time>2013-11-22T10:47:19Z</time>
      </trkpt>
      <trkpt lat="48.48739" lon="-2.71171">
        <ele>97</ele>
        <time>2013-11-22T10:47:20Z</time>
      </trkpt>
      <trkpt lat="48.48739" lon="-2.71173">
        <ele>97</ele>
        <time>2013-11-22T10:47:21Z</time>
      </trkpt>
      <trkpt lat="48.48738" lon="-2.71175">
        <ele>97</ele>
        <time>2013-11-22T10:47:22Z</time>
      </trkpt>
      <trkpt lat="48.48738" lon="-2.71177">
        <ele>97</ele>
        <time>2013-11-22T10:47:23Z</time>
      </trkpt>
      <trkpt lat="48.48737" lon="-2.71179">
        <ele>97</ele>
        <time>2013-11-22T10:47:24Z</time>
      </trkpt>
      <trkpt lat="48.48737" lon="-2.7118">
        <ele>97</ele>
        <time>2013-11-22T10:47:25Z</time>
      </trkpt>
      <trkpt lat="48.48736" lon="-2.71182">
        <ele>97</ele>
        <time>2013-11-22T10:47:26Z</time>
      </trkpt>
      <trkpt lat="48.48735" lon="-2.71184">
        <ele>97</ele>
        <time>2013-11-22T10:47:27Z</time>
      </trkpt>
      <trkpt lat="48.48735" lon="-2.71185">
        <ele>97</ele>
        <time>2013-11-22T10:47:28Z</time>
      </trkpt>
      <trkpt lat="48.48734" lon="-2.71187">
        <ele>97</ele>
        <time>2013-11-22T10:47:29Z</time>
      </trkpt>
      <trkpt lat="48.48734" lon="-2.71189">
        <ele>97</ele>
        <time>2013-11-22T10:47:30Z</time>
      </trkpt>
      <trkpt lat="48.48733" lon="-2.71191">
        <ele>97</ele>
        <time>2013-11-22T10:47:31Z</time>
      </trkpt>
      <trkpt lat="48.48732" lon="-2.71192">
        <ele>97</ele>
        <time>2013-11-22T10:47:32Z</time>
      </trkpt>
      <trkpt lat="48.48732" lon="-2.71194">
        <ele>97</ele>
        <time>2013-11-22T10:47:33Z</time>
      </trkpt>
      <trkpt lat="48.48731" lon="-2.71196">
        <ele>97</ele>
        <time>2013-11-22T10:47:34Z</time>
      </trkpt>
      <trkpt lat="48.4873" lon="-2.71198">
        <ele>97</ele>
        <time>2013-11-22T10:47:35Z</time>
      </trkpt>
      <trkpt lat="48.4873" lon="-2.712">
        <ele>97</ele>
        <time>2013-11-22T10:47:36Z</time>
      </trkpt>
      <trkpt lat="48.48729" lon="-2.71201">
        <ele>97</ele>
        <time>2013-11-22T10:47:37Z</time>
      </trkpt>
      <trkpt lat="48.48729" lon="-2.71203">
        <ele>97</ele>
        <time>2013-11-22T10:47:38Z</time>
      </trkpt>
      <trkpt lat="48.48728" lon="-2.71205">
        <ele>97</ele>
        <time>2013-11-22T10:47:39Z</time>
      </trkpt>
      <trkpt lat="48.48727" lon="-2.71207">
        <ele>97</ele>
        <time>2013-11-22T10:47:40Z</time>
      </trkpt>
      <trkpt lat="48.48727" lon="-2.71209">
        <ele>97</ele>
        <time>2013-11-22T10:47:41Z</time>
      </trkpt>
      <trkpt lat="48.48726" lon="-2.71211">
        <ele>97</ele>
        <time>2013-11-22T10:47:42Z</time>
      </trkpt>
      <trkpt lat="48.48725" lon="-2.71213">
        <ele>97</ele>
        <time>2013-11-22T10:47:43Z</time>
      </trkpt>
      <trkpt lat="48.48724" lon="-2.71215">
        <ele>97</ele>
        <time>2013-11-22T10:47:44Z</time>
      </trkpt>
      <trkpt lat="48.48723" lon="-2.71216">
        <ele>97</ele>
        <time>2013-11-22T10:47:45Z</time>
      </trkpt>
      <trkpt lat="48.48722" lon="-2.71218">
        <ele>97</ele>
        <time>2013-11-22T10:47:46Z</time>
      </trkpt>
      <trkpt lat="48.48722" lon="-2.7122">
        <ele>97</ele>
        <time>2013-11-22T10:47:47Z</time>
      </trkpt>
      <trkpt lat="48.48721" lon="-2.71222">
        <ele>97</ele>
        <time>2013-11-22T10:47:48Z</time>
      </trkpt>
      <trkpt lat="48.48721" lon="-2.71224">
        <ele>97</ele>
        <time>2013-11-22T10:47:49Z</time>
      </trkpt>
      <trkpt lat="48.4872" lon="-2.71226">
        <ele>97</ele>
        <time>2013-11-22T10:47:50Z</time>
      </trkpt>
      <trkpt lat="48.48719" lon="-2.71228">
        <ele>97</ele>
        <time>2013-11-22T10:47:51Z</time>
      </trkpt>
      <trkpt lat="48.48719" lon="-2.7123">
        <ele>97</ele>
        <time>2013-11-22T10:47:52Z</time>
      </trkpt>
      <trkpt lat="48.48718" lon="-2.71231">
        <ele>97</ele>
        <time>2013-11-22T10:47:53Z</time>
      </trkpt>
      <trkpt lat="48.48716" lon="-2.71233">
        <ele>97</ele>
        <time>2013-11-22T10:47:54Z</time>
      </trkpt>
      <trkpt lat="48.48716" lon="-2.71234">
        <ele>97</ele>
        <time>2013-11-22T10:47:55Z</time>
      </trkpt>
      <trkpt lat="48.48715" lon="-2.71236">
        <ele>97</ele>
        <time>2013-11-22T10:47:56Z</time>
      </trkpt>
      <trkpt lat="48.48714" lon="-2.71238">
        <ele>97</ele>
        <time>2013-11-22T10:47:57Z</time>
      </trkpt>
      <trkpt lat="48.48714" lon="-2.7124">
        <ele>97</ele>
        <time>2013-11-22T10:47:58Z</time>
      </trkpt>
      <trkpt lat="48.48713" lon="-2.71242">
        <ele>97</ele>
        <time>2013-11-22T10:47:59Z</time>
      </trkpt>
      <trkpt lat="48.48712" lon="-2.71243">
        <ele>97</ele>
        <time>2013-11-22T10:48:00Z</time>
      </trkpt>
      <trkpt lat="48.48711" lon="-2.71245">
        <ele>97</ele>
        <time>2013-11-22T10:48:01Z</time>
      </trkpt>
      <trkpt lat="48.48711" lon="-2.71247">
        <ele>97</ele>
        <time>2013-11-22T10:48:02Z</time>
      </trkpt>
      <trkpt lat="48.4871" lon="-2.71249">
        <ele>97</ele>
        <time>2013-11-22T10:48:03Z</time>
      </trkpt>
      <trkpt lat="48.48709" lon="-2.71251">
        <ele>97</ele>
        <time>2013-11-22T10:48:04Z</time>
      </trkpt>
      <trkpt lat="48.48709" lon="-2.71252">
        <ele>97</ele>
        <time>2013-11-22T10:48:05Z</time>
      </trkpt>
      <trkpt lat="48.48708" lon="-2.71254">
        <ele>97</ele>
        <time>2013-11-22T10:48:06Z</time>
      </trkpt>
      <trkpt lat="48.48708" lon="-2.71256">
        <ele>97</ele>
        <time>2013-11-22T10:48:07Z</time>
      </trkpt>
      <trkpt lat="48.48707" lon="-2.71258">
        <ele>97</ele>
        <time>2013-11-22T10:48:08Z</time>
      </trkpt>
      <trkpt lat="48.48706" lon="-2.7126">
        <ele>97</ele>
        <time>2013-11-22T10:48:09Z</time>
      </trkpt>
      <trkpt lat="48.48706" lon="-2.71262">
        <ele>97</ele>
        <time>2013-11-22T10:48:10Z</time>
      </trkpt>
      <trkpt lat="48.48705" lon="-2.71264">
        <ele>97</ele>
        <time>2013-11-22T10:48:11Z</time>
      </trkpt>
      <trkpt lat="48.48704" lon="-2.71265">
        <ele>97</ele>
        <time>2013-11-22T10:48:12Z</time>
      </trkpt>
      <trkpt lat="48.48703" lon="-2.71267">
        <ele>97</ele>
        <time>2013-11-22T10:48:13Z</time>
      </trkpt>
      <trkpt lat="48.48702" lon="-2.71269">
        <ele>97</ele>
        <time>2013-11-22T10:48:14Z</time>
      </trkpt>
      <trkpt lat="48.48701" lon="-2.71271">
        <ele>97</ele>
        <time>2013-11-22T10:48:15Z</time>
      </trkpt>
      <trkpt lat="48.48701" lon="-2.71273">
        <ele>97</ele>
        <time>2013-11-22T10:48:16Z</time>
      </trkpt>
      <trkpt lat="48.487" lon="-2.71275">
        <ele>97</ele>
        <time>2013-11-22T10:48:17Z</time>
      </trkpt>
      <trkpt lat="48.487" lon="-2.71277">
        <ele>97</ele>
        <time>2013-11-22T10:48:18Z</time>
      </trkpt>
      <trkpt lat="48.48699" lon="-2.71279">
        <ele>97</ele>
        <time>2013-11-22T10:48:19Z</time>
      </trkpt>
      <trkpt lat="48.48698" lon="-2.71281">
        <ele>97</ele>
        <time>2013-11-22T10:48:20Z</time>
      </trkpt>
      <trkpt lat="48.48698" lon="-2.71283">
        <ele>97</ele>
        <time>2013-11-22T10:48:21Z</time>
      </trkpt>
      <trkpt lat="48.48697" lon="-2.71288">
        <ele>97</ele>
        <time>2013-11-22T10:48:23Z</time>
      </trkpt>
      <trkpt lat="48.48696" lon="-2.7129">
        <ele>97</ele>
        <time>2013-11-22T10:48:24Z</time>
      </trkpt>
      <trkpt lat="48.48696" lon="-2.71292">
        <ele>97</ele>
        <time>2013-11-22T10:48:25Z</time>
      </trkpt>
      <trkpt lat="48.48695" lon="-2.71294">
        <ele>97</ele>
        <time>2013-11-22T10:48:26Z</time>
      </trkpt>
      <trkpt lat="48.48695" lon="-2.71296">
        <ele>97</ele>
        <time>2013-11-22T10:48:27Z</time>
      </trkpt>
      <trkpt lat="48.48694" lon="-2.71298">
        <ele>97</ele>
        <time>2013-11-22T10:48:28Z</time>
      </trkpt>
      <trkpt lat="48.48693" lon="-2.71299">
        <ele>97</ele>
        <time>2013-11-22T10:48:29Z</time>
      </trkpt>
      <trkpt lat="48.48692" lon="-2.71301">
        <ele>97</ele>
        <time>2013-11-22T10:48:30Z</time>
      </trkpt>
      <trkpt lat="48.48692" lon="-2.71303">
        <ele>97</ele>
        <time>2013-11-22T10:48:31Z</time>
      </trkpt>
      <trkpt lat="48.4869" lon="-2.71304">
        <ele>97</ele>
        <time>2013-11-22T10:48:33Z</time>
      </trkpt>
      <trkpt lat="48.4869" lon="-2.71306">
        <ele>97</ele>
        <time>2013-11-22T10:48:39Z</time>
      </trkpt>
      <trkpt lat="48.48689" lon="-2.71309">
        <ele>97</ele>
        <time>2013-11-22T10:48:41Z</time>
      </trkpt>
      <trkpt lat="48.48688" lon="-2.71311">
        <ele>97</ele>
        <time>2013-11-22T10:48:42Z</time>
      </trkpt>
      <trkpt lat="48.48688" lon="-2.71313">
        <ele>97</ele>
        <time>2013-11-22T10:48:43Z</time>
      </trkpt>
      <trkpt lat="48.48687" lon="-2.71315">
        <ele>97</ele>
        <time>2013-11-22T10:48:44Z</time>
      </trkpt>
      <trkpt lat="48.48687" lon="-2.71323">
        <ele>97</ele>
        <time>2013-11-22T10:48:48Z</time>
      </trkpt>
      <trkpt lat="48.48687" lon="-2.71325">
        <ele>97</ele>
        <time>2013-11-22T10:48:49Z</time>
      </trkpt>
      <trkpt lat="48.48685" lon="-2.71327">
        <ele>97</ele>
        <time>2013-11-22T10:48:50Z</time>
      </trkpt>
      <trkpt lat="48.48685" lon="-2.71329">
        <ele>97</ele>
        <time>2013-11-22T10:48:51Z</time>
      </trkpt>
      <trkpt lat="48.48684" lon="-2.71331">
        <ele>97</ele>
        <time>2013-11-22T10:48:52Z</time>
      </trkpt>
      <trkpt lat="48.48683" lon="-2.71332">
        <ele>97</ele>
        <time>2013-11-22T10:48:53Z</time>
      </trkpt>
      <trkpt lat="48.48681" lon="-2.71336">
        <ele>97</ele>
        <time>2013-11-22T10:48:55Z</time>
      </trkpt>
      <trkpt lat="48.4868" lon="-2.71337">
        <ele>97</ele>
        <time>2013-11-22T10:48:56Z</time>
      </trkpt>
      <trkpt lat="48.4868" lon="-2.71339">
        <ele>97</ele>
        <time>2013-11-22T10:48:57Z</time>
      </trkpt>
      <trkpt lat="48.48679" lon="-2.71341">
        <ele>97</ele>
        <time>2013-11-22T10:48:58Z</time>
      </trkpt>
      <trkpt lat="48.48678" lon="-2.71343">
        <ele>97</ele>
        <time>2013-11-22T10:48:59Z</time>
      </trkpt>
      <trkpt lat="48.48678" lon="-2.71346">
        <ele>97</ele>
        <time>2013-11-22T10:49:00Z</time>
      </trkpt>
      <trkpt lat="48.48677" lon="-2.71348">
        <ele>97</ele>
        <time>2013-11-22T10:49:01Z</time>
      </trkpt>
      <trkpt lat="48.48676" lon="-2.7135">
        <ele>97</ele>
        <time>2013-11-22T10:49:02Z</time>
      </trkpt>
      <trkpt lat="48.48675" lon="-2.71351">
        <ele>97</ele>
        <time>2013-11-22T10:49:03Z</time>
      </trkpt>
      <trkpt lat="48.48675" lon="-2.71353">
        <ele>97</ele>
        <time>2013-11-22T10:49:04Z</time>
      </trkpt>
      <trkpt lat="48.48674" lon="-2.71355">
        <ele>97</ele>
        <time>2013-11-22T10:49:05Z</time>
      </trkpt>
      <trkpt lat="48.48674" lon="-2.71357">
        <ele>97</ele>
        <time>2013-11-22T10:49:06Z</time>
      </trkpt>
      <trkpt lat="48.48673" lon="-2.71359">
        <ele>97</ele>
        <time>2013-11-22T10:49:07Z</time>
      </trkpt>
      <trkpt lat="48.48672" lon="-2.7136">
        <ele>97</ele>
        <time>2013-11-22T10:49:08Z</time>
      </trkpt>
      <trkpt lat="48.48671" lon="-2.71363">
        <ele>97</ele>
        <time>2013-11-22T10:49:09Z</time>
      </trkpt>
      <trkpt lat="48.48671" lon="-2.71364">
        <ele>97</ele>
        <time>2013-11-22T10:49:10Z</time>
      </trkpt>
      <trkpt lat="48.4867" lon="-2.71366">
        <ele>97</ele>
        <time>2013-11-22T10:49:11Z</time>
      </trkpt>
      <trkpt lat="48.48669" lon="-2.71369">
        <ele>97</ele>
        <time>2013-11-22T10:49:12Z</time>
      </trkpt>
      <trkpt lat="48.48669" lon="-2.71371">
        <ele>97</ele>
        <time>2013-11-22T10:49:13Z</time>
      </trkpt>
      <trkpt lat="48.48668" lon="-2.71373">
        <ele>97</ele>
        <time>2013-11-22T10:49:14Z</time>
      </trkpt>
      <trkpt lat="48.48668" lon="-2.71375">
        <ele>97</ele>
        <time>2013-11-22T10:49:15Z</time>
      </trkpt>
      <trkpt lat="48.48667" lon="-2.71376">
        <ele>97</ele>
        <time>2013-11-22T10:49:16Z</time>
      </trkpt>
      <trkpt lat="48.48667" lon="-2.71378">
        <ele>97</ele>
        <time>2013-11-22T10:49:17Z</time>
      </trkpt>
      <trkpt lat="48.48666" lon="-2.7138">
        <ele>97</ele>
        <time>2013-11-22T10:49:18Z</time>
      </trkpt>
      <trkpt lat="48.48666" lon="-2.71382">
        <ele>97</ele>
        <time>2013-11-22T10:49:19Z</time>
      </trkpt>
      <trkpt lat="48.48665" lon="-2.71384">
        <ele>97</ele>
        <time>2013-11-22T10:49:20Z</time>
      </trkpt>
      <trkpt lat="48.4846" lon="-2.72183">
        <ele>102</ele>
        <time>2013-11-22T10:58:18Z</time>
      </trkpt>
    </trkseg>
  </trk>
</gpx>